<?xml version="1.0" encoding="UTF-8" standalone="no" ?>
<gpx xmlns="http://www.topografix.com/GPX/1/1" xmlns:xsi="http://www.w3.org/2001/XMLSchema-instance" xsi:schemaLocation="http://www.topografix.com/GPX/1/1 http://www.topografix.com/GPX/1/1/gpx.xsd" version="1.1" creator="VisuGPX - https://www.visugpx.com">
  <metadata>
    <name>Sortie mise en jambes avec Titrek, Loulou et Anthony</name>
  </metadata>
  <trk>
    <name><![CDATA[Sortie mise en jambes avec Titrek, Loulou et Anthony]]></name>
    <trkseg>
      <trkpt lat="43.55744" lon="1.17734">
        <ele>207.3</ele>
        <time>2020-11-29T08:37:35Z</time>
      </trkpt>
      <trkpt lat="43.55744" lon="1.17734">
        <ele>207.3</ele>
        <time>2020-11-29T08:37:36Z</time>
      </trkpt>
      <trkpt lat="43.55744" lon="1.17733">
        <ele>207.3</ele>
        <time>2020-11-29T08:37:37Z</time>
      </trkpt>
      <trkpt lat="43.55744" lon="1.17734">
        <ele>207.3</ele>
        <time>2020-11-29T08:37:38Z</time>
      </trkpt>
      <trkpt lat="43.55745" lon="1.17733">
        <ele>207.3</ele>
        <time>2020-11-29T08:37:39Z</time>
      </trkpt>
      <trkpt lat="43.55745" lon="1.17735">
        <ele>207.3</ele>
        <time>2020-11-29T08:37:40Z</time>
      </trkpt>
      <trkpt lat="43.55745" lon="1.17735">
        <ele>207.3</ele>
        <time>2020-11-29T08:37:41Z</time>
      </trkpt>
      <trkpt lat="43.55745" lon="1.17735">
        <ele>207.3</ele>
        <time>2020-11-29T08:37:42Z</time>
      </trkpt>
      <trkpt lat="43.55745" lon="1.17733">
        <ele>207.3</ele>
        <time>2020-11-29T08:37:43Z</time>
      </trkpt>
      <trkpt lat="43.55746" lon="1.17733">
        <ele>207.3</ele>
        <time>2020-11-29T08:37:44Z</time>
      </trkpt>
      <trkpt lat="43.55746" lon="1.17731">
        <ele>207.3</ele>
        <time>2020-11-29T08:37:45Z</time>
      </trkpt>
      <trkpt lat="43.55746" lon="1.17731">
        <ele>207.3</ele>
        <time>2020-11-29T08:37:46Z</time>
      </trkpt>
      <trkpt lat="43.55747" lon="1.1773">
        <ele>207.3</ele>
        <time>2020-11-29T08:37:47Z</time>
      </trkpt>
      <trkpt lat="43.55746" lon="1.1773">
        <ele>207.3</ele>
        <time>2020-11-29T08:37:48Z</time>
      </trkpt>
      <trkpt lat="43.55746" lon="1.17731">
        <ele>207.3</ele>
        <time>2020-11-29T08:37:49Z</time>
      </trkpt>
      <trkpt lat="43.55746" lon="1.17733">
        <ele>207.3</ele>
        <time>2020-11-29T08:37:50Z</time>
      </trkpt>
      <trkpt lat="43.55746" lon="1.17734">
        <ele>207.3</ele>
        <time>2020-11-29T08:37:51Z</time>
      </trkpt>
      <trkpt lat="43.55746" lon="1.17735">
        <ele>207.3</ele>
        <time>2020-11-29T08:37:52Z</time>
      </trkpt>
      <trkpt lat="43.55747" lon="1.17736">
        <ele>207.3</ele>
        <time>2020-11-29T08:37:53Z</time>
      </trkpt>
      <trkpt lat="43.55746" lon="1.17737">
        <ele>207.3</ele>
        <time>2020-11-29T08:37:54Z</time>
      </trkpt>
      <trkpt lat="43.55746" lon="1.17738">
        <ele>207.3</ele>
        <time>2020-11-29T08:37:55Z</time>
      </trkpt>
      <trkpt lat="43.55746" lon="1.1774">
        <ele>207.3</ele>
        <time>2020-11-29T08:37:56Z</time>
      </trkpt>
      <trkpt lat="43.55746" lon="1.17738">
        <ele>207.3</ele>
        <time>2020-11-29T08:37:57Z</time>
      </trkpt>
      <trkpt lat="43.55747" lon="1.17738">
        <ele>207.3</ele>
        <time>2020-11-29T08:37:58Z</time>
      </trkpt>
      <trkpt lat="43.55748" lon="1.17737">
        <ele>207.2</ele>
        <time>2020-11-29T08:37:59Z</time>
      </trkpt>
      <trkpt lat="43.55749" lon="1.17736">
        <ele>207.2</ele>
        <time>2020-11-29T08:38:00Z</time>
      </trkpt>
      <trkpt lat="43.55749" lon="1.17737">
        <ele>207.2</ele>
        <time>2020-11-29T08:38:01Z</time>
      </trkpt>
      <trkpt lat="43.5575" lon="1.17735">
        <ele>207.2</ele>
        <time>2020-11-29T08:38:02Z</time>
      </trkpt>
      <trkpt lat="43.55751" lon="1.17735">
        <ele>207.2</ele>
        <time>2020-11-29T08:38:03Z</time>
      </trkpt>
      <trkpt lat="43.55751" lon="1.17735">
        <ele>207.2</ele>
        <time>2020-11-29T08:38:04Z</time>
      </trkpt>
      <trkpt lat="43.55751" lon="1.17735">
        <ele>207.2</ele>
        <time>2020-11-29T08:38:05Z</time>
      </trkpt>
      <trkpt lat="43.5575" lon="1.17735">
        <ele>207.2</ele>
        <time>2020-11-29T08:38:06Z</time>
      </trkpt>
      <trkpt lat="43.5575" lon="1.17735">
        <ele>207.2</ele>
        <time>2020-11-29T08:38:07Z</time>
      </trkpt>
      <trkpt lat="43.5575" lon="1.17735">
        <ele>207.2</ele>
        <time>2020-11-29T08:38:08Z</time>
      </trkpt>
      <trkpt lat="43.5575" lon="1.17735">
        <ele>207.2</ele>
        <time>2020-11-29T08:38:09Z</time>
      </trkpt>
      <trkpt lat="43.5575" lon="1.17735">
        <ele>207.2</ele>
        <time>2020-11-29T08:38:10Z</time>
      </trkpt>
      <trkpt lat="43.5575" lon="1.17735">
        <ele>207.2</ele>
        <time>2020-11-29T08:38:11Z</time>
      </trkpt>
      <trkpt lat="43.5575" lon="1.17735">
        <ele>207.2</ele>
        <time>2020-11-29T08:38:12Z</time>
      </trkpt>
      <trkpt lat="43.5575" lon="1.17735">
        <ele>207.2</ele>
        <time>2020-11-29T08:38:13Z</time>
      </trkpt>
      <trkpt lat="43.5575" lon="1.17735">
        <ele>207.2</ele>
        <time>2020-11-29T08:38:14Z</time>
      </trkpt>
      <trkpt lat="43.55749" lon="1.17735">
        <ele>207.2</ele>
        <time>2020-11-29T08:38:15Z</time>
      </trkpt>
      <trkpt lat="43.55749" lon="1.17735">
        <ele>207.2</ele>
        <time>2020-11-29T08:38:16Z</time>
      </trkpt>
      <trkpt lat="43.55751" lon="1.17733">
        <ele>207.2</ele>
        <time>2020-11-29T08:38:17Z</time>
      </trkpt>
      <trkpt lat="43.5575" lon="1.17732">
        <ele>207.2</ele>
        <time>2020-11-29T08:38:18Z</time>
      </trkpt>
      <trkpt lat="43.55749" lon="1.17732">
        <ele>207.2</ele>
        <time>2020-11-29T08:38:19Z</time>
      </trkpt>
      <trkpt lat="43.55749" lon="1.1773">
        <ele>207.2</ele>
        <time>2020-11-29T08:38:20Z</time>
      </trkpt>
      <trkpt lat="43.5575" lon="1.17728">
        <ele>207.2</ele>
        <time>2020-11-29T08:38:21Z</time>
      </trkpt>
      <trkpt lat="43.5575" lon="1.17724">
        <ele>207.2</ele>
        <time>2020-11-29T08:38:22Z</time>
      </trkpt>
      <trkpt lat="43.55751" lon="1.17722">
        <ele>207.2</ele>
        <time>2020-11-29T08:38:23Z</time>
      </trkpt>
      <trkpt lat="43.55751" lon="1.17718">
        <ele>207.2</ele>
        <time>2020-11-29T08:38:24Z</time>
      </trkpt>
      <trkpt lat="43.5575" lon="1.17716">
        <ele>207.2</ele>
        <time>2020-11-29T08:38:25Z</time>
      </trkpt>
      <trkpt lat="43.55749" lon="1.17711">
        <ele>207.2</ele>
        <time>2020-11-29T08:38:26Z</time>
      </trkpt>
      <trkpt lat="43.55747" lon="1.17707">
        <ele>207.2</ele>
        <time>2020-11-29T08:38:27Z</time>
      </trkpt>
      <trkpt lat="43.55744" lon="1.17703">
        <ele>207.2</ele>
        <time>2020-11-29T08:38:28Z</time>
      </trkpt>
      <trkpt lat="43.55743" lon="1.17699">
        <ele>207.2</ele>
        <time>2020-11-29T08:38:29Z</time>
      </trkpt>
      <trkpt lat="43.55741" lon="1.17694">
        <ele>207.2</ele>
        <time>2020-11-29T08:38:30Z</time>
      </trkpt>
      <trkpt lat="43.55742" lon="1.1769">
        <ele>207.2</ele>
        <time>2020-11-29T08:38:31Z</time>
      </trkpt>
      <trkpt lat="43.55743" lon="1.17685">
        <ele>207.2</ele>
        <time>2020-11-29T08:38:32Z</time>
      </trkpt>
      <trkpt lat="43.55744" lon="1.1768">
        <ele>207.2</ele>
        <time>2020-11-29T08:38:33Z</time>
      </trkpt>
      <trkpt lat="43.55746" lon="1.17676">
        <ele>207.1</ele>
        <time>2020-11-29T08:38:34Z</time>
      </trkpt>
      <trkpt lat="43.55747" lon="1.17671">
        <ele>207.1</ele>
        <time>2020-11-29T08:38:35Z</time>
      </trkpt>
      <trkpt lat="43.55748" lon="1.17667">
        <ele>207.1</ele>
        <time>2020-11-29T08:38:36Z</time>
      </trkpt>
      <trkpt lat="43.55749" lon="1.17662">
        <ele>207.1</ele>
        <time>2020-11-29T08:38:37Z</time>
      </trkpt>
      <trkpt lat="43.5575" lon="1.17657">
        <ele>207.1</ele>
        <time>2020-11-29T08:38:38Z</time>
      </trkpt>
      <trkpt lat="43.55752" lon="1.17652">
        <ele>207.1</ele>
        <time>2020-11-29T08:38:39Z</time>
      </trkpt>
      <trkpt lat="43.55753" lon="1.17647">
        <ele>207.1</ele>
        <time>2020-11-29T08:38:40Z</time>
      </trkpt>
      <trkpt lat="43.55754" lon="1.17642">
        <ele>207.1</ele>
        <time>2020-11-29T08:38:41Z</time>
      </trkpt>
      <trkpt lat="43.55754" lon="1.17636">
        <ele>207.1</ele>
        <time>2020-11-29T08:38:42Z</time>
      </trkpt>
      <trkpt lat="43.55754" lon="1.17635">
        <ele>207.1</ele>
        <time>2020-11-29T08:38:43Z</time>
      </trkpt>
      <trkpt lat="43.55755" lon="1.1763">
        <ele>207.1</ele>
        <time>2020-11-29T08:38:44Z</time>
      </trkpt>
      <trkpt lat="43.55756" lon="1.17626">
        <ele>207.2</ele>
        <time>2020-11-29T08:38:45Z</time>
      </trkpt>
      <trkpt lat="43.55757" lon="1.17622">
        <ele>207.2</ele>
        <time>2020-11-29T08:38:46Z</time>
      </trkpt>
      <trkpt lat="43.55759" lon="1.17617">
        <ele>207.2</ele>
        <time>2020-11-29T08:38:47Z</time>
      </trkpt>
      <trkpt lat="43.55758" lon="1.17615">
        <ele>207.2</ele>
        <time>2020-11-29T08:38:48Z</time>
      </trkpt>
      <trkpt lat="43.55758" lon="1.1761">
        <ele>207.2</ele>
        <time>2020-11-29T08:38:49Z</time>
      </trkpt>
      <trkpt lat="43.55759" lon="1.17605">
        <ele>207.2</ele>
        <time>2020-11-29T08:38:50Z</time>
      </trkpt>
      <trkpt lat="43.55761" lon="1.176">
        <ele>207.2</ele>
        <time>2020-11-29T08:38:51Z</time>
      </trkpt>
      <trkpt lat="43.55762" lon="1.17596">
        <ele>207.2</ele>
        <time>2020-11-29T08:38:52Z</time>
      </trkpt>
      <trkpt lat="43.55764" lon="1.17591">
        <ele>207.3</ele>
        <time>2020-11-29T08:38:53Z</time>
      </trkpt>
      <trkpt lat="43.55766" lon="1.17586">
        <ele>207.3</ele>
        <time>2020-11-29T08:38:54Z</time>
      </trkpt>
      <trkpt lat="43.55768" lon="1.17581">
        <ele>207.3</ele>
        <time>2020-11-29T08:38:55Z</time>
      </trkpt>
      <trkpt lat="43.5577" lon="1.17576">
        <ele>207.3</ele>
        <time>2020-11-29T08:38:56Z</time>
      </trkpt>
      <trkpt lat="43.55772" lon="1.1757">
        <ele>207.3</ele>
        <time>2020-11-29T08:38:57Z</time>
      </trkpt>
      <trkpt lat="43.55773" lon="1.17565">
        <ele>207.4</ele>
        <time>2020-11-29T08:38:58Z</time>
      </trkpt>
      <trkpt lat="43.55774" lon="1.1756">
        <ele>207.4</ele>
        <time>2020-11-29T08:38:59Z</time>
      </trkpt>
      <trkpt lat="43.55776" lon="1.17555">
        <ele>207.4</ele>
        <time>2020-11-29T08:39:00Z</time>
      </trkpt>
      <trkpt lat="43.55777" lon="1.17549">
        <ele>207.4</ele>
        <time>2020-11-29T08:39:01Z</time>
      </trkpt>
      <trkpt lat="43.55778" lon="1.17543">
        <ele>207.4</ele>
        <time>2020-11-29T08:39:02Z</time>
      </trkpt>
      <trkpt lat="43.5578" lon="1.17539">
        <ele>207.5</ele>
        <time>2020-11-29T08:39:03Z</time>
      </trkpt>
      <trkpt lat="43.5578" lon="1.17534">
        <ele>207.5</ele>
        <time>2020-11-29T08:39:04Z</time>
      </trkpt>
      <trkpt lat="43.55781" lon="1.17528">
        <ele>207.5</ele>
        <time>2020-11-29T08:39:05Z</time>
      </trkpt>
      <trkpt lat="43.55782" lon="1.17524">
        <ele>207.5</ele>
        <time>2020-11-29T08:39:06Z</time>
      </trkpt>
      <trkpt lat="43.55783" lon="1.1752">
        <ele>207.5</ele>
        <time>2020-11-29T08:39:07Z</time>
      </trkpt>
      <trkpt lat="43.55784" lon="1.17519">
        <ele>207.5</ele>
        <time>2020-11-29T08:39:08Z</time>
      </trkpt>
      <trkpt lat="43.55785" lon="1.17514">
        <ele>207.6</ele>
        <time>2020-11-29T08:39:09Z</time>
      </trkpt>
      <trkpt lat="43.55785" lon="1.17512">
        <ele>207.6</ele>
        <time>2020-11-29T08:39:10Z</time>
      </trkpt>
      <trkpt lat="43.55786" lon="1.17507">
        <ele>207.6</ele>
        <time>2020-11-29T08:39:11Z</time>
      </trkpt>
      <trkpt lat="43.55787" lon="1.17505">
        <ele>207.6</ele>
        <time>2020-11-29T08:39:12Z</time>
      </trkpt>
      <trkpt lat="43.55787" lon="1.17501">
        <ele>207.6</ele>
        <time>2020-11-29T08:39:13Z</time>
      </trkpt>
      <trkpt lat="43.55788" lon="1.17498">
        <ele>207.6</ele>
        <time>2020-11-29T08:39:14Z</time>
      </trkpt>
      <trkpt lat="43.55788" lon="1.17496">
        <ele>207.6</ele>
        <time>2020-11-29T08:39:15Z</time>
      </trkpt>
      <trkpt lat="43.55788" lon="1.17495">
        <ele>207.6</ele>
        <time>2020-11-29T08:39:16Z</time>
      </trkpt>
      <trkpt lat="43.55787" lon="1.17495">
        <ele>207.6</ele>
        <time>2020-11-29T08:39:17Z</time>
      </trkpt>
      <trkpt lat="43.55787" lon="1.17494">
        <ele>207.6</ele>
        <time>2020-11-29T08:39:18Z</time>
      </trkpt>
      <trkpt lat="43.55787" lon="1.17494">
        <ele>207.6</ele>
        <time>2020-11-29T08:39:19Z</time>
      </trkpt>
      <trkpt lat="43.55787" lon="1.17494">
        <ele>207.6</ele>
        <time>2020-11-29T08:39:20Z</time>
      </trkpt>
      <trkpt lat="43.55788" lon="1.17495">
        <ele>207.6</ele>
        <time>2020-11-29T08:39:21Z</time>
      </trkpt>
      <trkpt lat="43.55787" lon="1.17495">
        <ele>207.6</ele>
        <time>2020-11-29T08:39:22Z</time>
      </trkpt>
      <trkpt lat="43.55787" lon="1.17494">
        <ele>207.6</ele>
        <time>2020-11-29T08:39:23Z</time>
      </trkpt>
      <trkpt lat="43.55788" lon="1.17494">
        <ele>207.6</ele>
        <time>2020-11-29T08:39:24Z</time>
      </trkpt>
      <trkpt lat="43.55787" lon="1.17494">
        <ele>207.6</ele>
        <time>2020-11-29T08:39:25Z</time>
      </trkpt>
      <trkpt lat="43.55787" lon="1.17495">
        <ele>207.6</ele>
        <time>2020-11-29T08:39:26Z</time>
      </trkpt>
      <trkpt lat="43.55787" lon="1.17495">
        <ele>207.6</ele>
        <time>2020-11-29T08:39:27Z</time>
      </trkpt>
      <trkpt lat="43.55788" lon="1.17495">
        <ele>207.6</ele>
        <time>2020-11-29T08:39:28Z</time>
      </trkpt>
      <trkpt lat="43.55788" lon="1.17495">
        <ele>207.6</ele>
        <time>2020-11-29T08:39:29Z</time>
      </trkpt>
      <trkpt lat="43.55788" lon="1.17495">
        <ele>207.6</ele>
        <time>2020-11-29T08:39:30Z</time>
      </trkpt>
      <trkpt lat="43.55788" lon="1.17496">
        <ele>207.6</ele>
        <time>2020-11-29T08:39:31Z</time>
      </trkpt>
      <trkpt lat="43.55788" lon="1.17496">
        <ele>207.6</ele>
        <time>2020-11-29T08:39:32Z</time>
      </trkpt>
      <trkpt lat="43.55788" lon="1.17496">
        <ele>207.6</ele>
        <time>2020-11-29T08:39:33Z</time>
      </trkpt>
      <trkpt lat="43.55788" lon="1.17496">
        <ele>207.6</ele>
        <time>2020-11-29T08:39:34Z</time>
      </trkpt>
      <trkpt lat="43.55788" lon="1.17496">
        <ele>207.6</ele>
        <time>2020-11-29T08:39:35Z</time>
      </trkpt>
      <trkpt lat="43.55788" lon="1.17496">
        <ele>207.6</ele>
        <time>2020-11-29T08:39:36Z</time>
      </trkpt>
      <trkpt lat="43.55788" lon="1.17496">
        <ele>207.6</ele>
        <time>2020-11-29T08:39:37Z</time>
      </trkpt>
      <trkpt lat="43.55788" lon="1.17496">
        <ele>207.5</ele>
        <time>2020-11-29T08:39:38Z</time>
      </trkpt>
      <trkpt lat="43.55788" lon="1.17496">
        <ele>207.5</ele>
        <time>2020-11-29T08:39:39Z</time>
      </trkpt>
      <trkpt lat="43.55788" lon="1.17496">
        <ele>207.5</ele>
        <time>2020-11-29T08:39:40Z</time>
      </trkpt>
      <trkpt lat="43.55788" lon="1.17496">
        <ele>207.5</ele>
        <time>2020-11-29T08:39:41Z</time>
      </trkpt>
      <trkpt lat="43.55788" lon="1.17496">
        <ele>207.5</ele>
        <time>2020-11-29T08:39:42Z</time>
      </trkpt>
      <trkpt lat="43.55788" lon="1.17496">
        <ele>207.5</ele>
        <time>2020-11-29T08:39:43Z</time>
      </trkpt>
      <trkpt lat="43.55788" lon="1.17496">
        <ele>207.5</ele>
        <time>2020-11-29T08:39:44Z</time>
      </trkpt>
      <trkpt lat="43.55788" lon="1.17496">
        <ele>207.5</ele>
        <time>2020-11-29T08:39:45Z</time>
      </trkpt>
      <trkpt lat="43.55788" lon="1.17497">
        <ele>207.5</ele>
        <time>2020-11-29T08:39:46Z</time>
      </trkpt>
      <trkpt lat="43.55788" lon="1.17497">
        <ele>207.5</ele>
        <time>2020-11-29T08:39:47Z</time>
      </trkpt>
      <trkpt lat="43.55788" lon="1.17497">
        <ele>207.5</ele>
        <time>2020-11-29T08:39:48Z</time>
      </trkpt>
      <trkpt lat="43.55788" lon="1.17497">
        <ele>207.5</ele>
        <time>2020-11-29T08:39:49Z</time>
      </trkpt>
      <trkpt lat="43.55788" lon="1.17497">
        <ele>207.5</ele>
        <time>2020-11-29T08:39:50Z</time>
      </trkpt>
      <trkpt lat="43.55788" lon="1.17497">
        <ele>207.5</ele>
        <time>2020-11-29T08:39:51Z</time>
      </trkpt>
      <trkpt lat="43.55788" lon="1.17497">
        <ele>207.5</ele>
        <time>2020-11-29T08:39:52Z</time>
      </trkpt>
      <trkpt lat="43.55788" lon="1.17497">
        <ele>207.5</ele>
        <time>2020-11-29T08:39:53Z</time>
      </trkpt>
      <trkpt lat="43.55788" lon="1.17497">
        <ele>207.5</ele>
        <time>2020-11-29T08:39:54Z</time>
      </trkpt>
      <trkpt lat="43.55788" lon="1.17497">
        <ele>207.5</ele>
        <time>2020-11-29T08:39:55Z</time>
      </trkpt>
      <trkpt lat="43.55788" lon="1.17497">
        <ele>207.5</ele>
        <time>2020-11-29T08:39:56Z</time>
      </trkpt>
      <trkpt lat="43.55788" lon="1.17497">
        <ele>207.5</ele>
        <time>2020-11-29T08:39:57Z</time>
      </trkpt>
      <trkpt lat="43.55788" lon="1.17497">
        <ele>207.5</ele>
        <time>2020-11-29T08:39:58Z</time>
      </trkpt>
      <trkpt lat="43.55788" lon="1.17497">
        <ele>207.5</ele>
        <time>2020-11-29T08:39:59Z</time>
      </trkpt>
      <trkpt lat="43.55788" lon="1.17497">
        <ele>207.5</ele>
        <time>2020-11-29T08:40:00Z</time>
      </trkpt>
      <trkpt lat="43.55788" lon="1.17497">
        <ele>207.5</ele>
        <time>2020-11-29T08:40:01Z</time>
      </trkpt>
      <trkpt lat="43.55788" lon="1.17497">
        <ele>207.5</ele>
        <time>2020-11-29T08:40:02Z</time>
      </trkpt>
      <trkpt lat="43.55788" lon="1.17497">
        <ele>207.5</ele>
        <time>2020-11-29T08:40:03Z</time>
      </trkpt>
      <trkpt lat="43.55787" lon="1.17496">
        <ele>207.5</ele>
        <time>2020-11-29T08:40:04Z</time>
      </trkpt>
      <trkpt lat="43.55787" lon="1.17495">
        <ele>207.5</ele>
        <time>2020-11-29T08:40:05Z</time>
      </trkpt>
      <trkpt lat="43.55787" lon="1.17496">
        <ele>207.5</ele>
        <time>2020-11-29T08:40:06Z</time>
      </trkpt>
      <trkpt lat="43.55787" lon="1.17496">
        <ele>207.5</ele>
        <time>2020-11-29T08:40:07Z</time>
      </trkpt>
      <trkpt lat="43.55787" lon="1.17497">
        <ele>207.5</ele>
        <time>2020-11-29T08:40:08Z</time>
      </trkpt>
      <trkpt lat="43.55787" lon="1.17497">
        <ele>207.5</ele>
        <time>2020-11-29T08:40:09Z</time>
      </trkpt>
      <trkpt lat="43.55787" lon="1.17497">
        <ele>207.5</ele>
        <time>2020-11-29T08:40:10Z</time>
      </trkpt>
      <trkpt lat="43.55787" lon="1.17496">
        <ele>207.5</ele>
        <time>2020-11-29T08:40:11Z</time>
      </trkpt>
      <trkpt lat="43.55787" lon="1.17496">
        <ele>207.5</ele>
        <time>2020-11-29T08:40:12Z</time>
      </trkpt>
      <trkpt lat="43.55787" lon="1.17495">
        <ele>207.5</ele>
        <time>2020-11-29T08:40:13Z</time>
      </trkpt>
      <trkpt lat="43.55787" lon="1.17494">
        <ele>207.5</ele>
        <time>2020-11-29T08:40:14Z</time>
      </trkpt>
      <trkpt lat="43.55787" lon="1.17493">
        <ele>207.5</ele>
        <time>2020-11-29T08:40:15Z</time>
      </trkpt>
      <trkpt lat="43.55787" lon="1.17493">
        <ele>207.5</ele>
        <time>2020-11-29T08:40:16Z</time>
      </trkpt>
      <trkpt lat="43.55787" lon="1.17493">
        <ele>207.5</ele>
        <time>2020-11-29T08:40:17Z</time>
      </trkpt>
      <trkpt lat="43.55787" lon="1.17493">
        <ele>207.5</ele>
        <time>2020-11-29T08:40:18Z</time>
      </trkpt>
      <trkpt lat="43.55786" lon="1.17493">
        <ele>207.5</ele>
        <time>2020-11-29T08:40:19Z</time>
      </trkpt>
      <trkpt lat="43.55785" lon="1.17492">
        <ele>207.5</ele>
        <time>2020-11-29T08:40:20Z</time>
      </trkpt>
      <trkpt lat="43.55785" lon="1.17492">
        <ele>207.5</ele>
        <time>2020-11-29T08:40:21Z</time>
      </trkpt>
      <trkpt lat="43.55785" lon="1.17492">
        <ele>207.5</ele>
        <time>2020-11-29T08:40:22Z</time>
      </trkpt>
      <trkpt lat="43.55785" lon="1.17492">
        <ele>207.5</ele>
        <time>2020-11-29T08:40:23Z</time>
      </trkpt>
      <trkpt lat="43.55784" lon="1.17493">
        <ele>207.5</ele>
        <time>2020-11-29T08:40:24Z</time>
      </trkpt>
      <trkpt lat="43.55784" lon="1.17493">
        <ele>207.5</ele>
        <time>2020-11-29T08:40:25Z</time>
      </trkpt>
      <trkpt lat="43.55784" lon="1.17493">
        <ele>207.5</ele>
        <time>2020-11-29T08:40:26Z</time>
      </trkpt>
      <trkpt lat="43.55784" lon="1.17493">
        <ele>207.5</ele>
        <time>2020-11-29T08:40:27Z</time>
      </trkpt>
      <trkpt lat="43.55784" lon="1.17492">
        <ele>207.5</ele>
        <time>2020-11-29T08:40:28Z</time>
      </trkpt>
      <trkpt lat="43.55784" lon="1.17492">
        <ele>207.5</ele>
        <time>2020-11-29T08:40:29Z</time>
      </trkpt>
      <trkpt lat="43.55784" lon="1.17492">
        <ele>207.5</ele>
        <time>2020-11-29T08:40:30Z</time>
      </trkpt>
      <trkpt lat="43.55784" lon="1.17491">
        <ele>207.5</ele>
        <time>2020-11-29T08:40:31Z</time>
      </trkpt>
      <trkpt lat="43.55784" lon="1.17491">
        <ele>207.5</ele>
        <time>2020-11-29T08:40:32Z</time>
      </trkpt>
      <trkpt lat="43.55784" lon="1.17491">
        <ele>207.5</ele>
        <time>2020-11-29T08:40:33Z</time>
      </trkpt>
      <trkpt lat="43.55784" lon="1.17491">
        <ele>207.5</ele>
        <time>2020-11-29T08:40:34Z</time>
      </trkpt>
      <trkpt lat="43.55784" lon="1.17491">
        <ele>207.5</ele>
        <time>2020-11-29T08:40:35Z</time>
      </trkpt>
      <trkpt lat="43.55783" lon="1.17491">
        <ele>207.5</ele>
        <time>2020-11-29T08:40:36Z</time>
      </trkpt>
      <trkpt lat="43.55783" lon="1.1749">
        <ele>207.5</ele>
        <time>2020-11-29T08:40:37Z</time>
      </trkpt>
      <trkpt lat="43.55783" lon="1.17489">
        <ele>207.4</ele>
        <time>2020-11-29T08:40:38Z</time>
      </trkpt>
      <trkpt lat="43.55783" lon="1.17489">
        <ele>207.4</ele>
        <time>2020-11-29T08:40:39Z</time>
      </trkpt>
      <trkpt lat="43.55783" lon="1.17489">
        <ele>207.4</ele>
        <time>2020-11-29T08:40:40Z</time>
      </trkpt>
      <trkpt lat="43.55783" lon="1.17489">
        <ele>207.4</ele>
        <time>2020-11-29T08:40:41Z</time>
      </trkpt>
      <trkpt lat="43.55782" lon="1.1749">
        <ele>207.4</ele>
        <time>2020-11-29T08:40:42Z</time>
      </trkpt>
      <trkpt lat="43.55781" lon="1.1749">
        <ele>207.4</ele>
        <time>2020-11-29T08:40:43Z</time>
      </trkpt>
      <trkpt lat="43.55781" lon="1.17491">
        <ele>207.4</ele>
        <time>2020-11-29T08:40:44Z</time>
      </trkpt>
      <trkpt lat="43.55782" lon="1.1749">
        <ele>207.4</ele>
        <time>2020-11-29T08:40:45Z</time>
      </trkpt>
      <trkpt lat="43.55781" lon="1.1749">
        <ele>207.4</ele>
        <time>2020-11-29T08:40:46Z</time>
      </trkpt>
      <trkpt lat="43.55781" lon="1.1749">
        <ele>207.4</ele>
        <time>2020-11-29T08:40:47Z</time>
      </trkpt>
      <trkpt lat="43.55781" lon="1.1749">
        <ele>207.4</ele>
        <time>2020-11-29T08:40:48Z</time>
      </trkpt>
      <trkpt lat="43.55781" lon="1.1749">
        <ele>207.4</ele>
        <time>2020-11-29T08:40:49Z</time>
      </trkpt>
      <trkpt lat="43.55781" lon="1.1749">
        <ele>207.4</ele>
        <time>2020-11-29T08:40:50Z</time>
      </trkpt>
      <trkpt lat="43.55781" lon="1.1749">
        <ele>207.4</ele>
        <time>2020-11-29T08:40:51Z</time>
      </trkpt>
      <trkpt lat="43.55781" lon="1.1749">
        <ele>207.4</ele>
        <time>2020-11-29T08:40:52Z</time>
      </trkpt>
      <trkpt lat="43.55782" lon="1.1749">
        <ele>207.4</ele>
        <time>2020-11-29T08:40:53Z</time>
      </trkpt>
      <trkpt lat="43.55782" lon="1.1749">
        <ele>207.4</ele>
        <time>2020-11-29T08:40:54Z</time>
      </trkpt>
      <trkpt lat="43.55782" lon="1.1749">
        <ele>207.4</ele>
        <time>2020-11-29T08:40:55Z</time>
      </trkpt>
      <trkpt lat="43.55782" lon="1.17489">
        <ele>207.4</ele>
        <time>2020-11-29T08:40:56Z</time>
      </trkpt>
      <trkpt lat="43.55782" lon="1.17488">
        <ele>207.4</ele>
        <time>2020-11-29T08:40:57Z</time>
      </trkpt>
      <trkpt lat="43.55782" lon="1.17488">
        <ele>207.4</ele>
        <time>2020-11-29T08:40:58Z</time>
      </trkpt>
      <trkpt lat="43.55782" lon="1.17487">
        <ele>207.4</ele>
        <time>2020-11-29T08:40:59Z</time>
      </trkpt>
      <trkpt lat="43.55783" lon="1.17486">
        <ele>207.4</ele>
        <time>2020-11-29T08:41:00Z</time>
      </trkpt>
      <trkpt lat="43.55786" lon="1.17482">
        <ele>207.4</ele>
        <time>2020-11-29T08:41:01Z</time>
      </trkpt>
      <trkpt lat="43.55788" lon="1.17476">
        <ele>207.4</ele>
        <time>2020-11-29T08:41:02Z</time>
      </trkpt>
      <trkpt lat="43.55791" lon="1.1747">
        <ele>207.3</ele>
        <time>2020-11-29T08:41:03Z</time>
      </trkpt>
      <trkpt lat="43.55792" lon="1.17465">
        <ele>207.3</ele>
        <time>2020-11-29T08:41:04Z</time>
      </trkpt>
      <trkpt lat="43.55793" lon="1.17459">
        <ele>207.3</ele>
        <time>2020-11-29T08:41:05Z</time>
      </trkpt>
      <trkpt lat="43.55794" lon="1.17453">
        <ele>207.3</ele>
        <time>2020-11-29T08:41:06Z</time>
      </trkpt>
      <trkpt lat="43.55796" lon="1.17447">
        <ele>207.3</ele>
        <time>2020-11-29T08:41:07Z</time>
      </trkpt>
      <trkpt lat="43.55798" lon="1.17441">
        <ele>207.3</ele>
        <time>2020-11-29T08:41:08Z</time>
      </trkpt>
      <trkpt lat="43.55801" lon="1.17435">
        <ele>207.3</ele>
        <time>2020-11-29T08:41:09Z</time>
      </trkpt>
      <trkpt lat="43.55804" lon="1.17429">
        <ele>207.3</ele>
        <time>2020-11-29T08:41:10Z</time>
      </trkpt>
      <trkpt lat="43.55807" lon="1.17423">
        <ele>207.2</ele>
        <time>2020-11-29T08:41:11Z</time>
      </trkpt>
      <trkpt lat="43.55809" lon="1.1742">
        <ele>207.2</ele>
        <time>2020-11-29T08:41:12Z</time>
      </trkpt>
      <trkpt lat="43.5581" lon="1.17416">
        <ele>207.2</ele>
        <time>2020-11-29T08:41:13Z</time>
      </trkpt>
      <trkpt lat="43.55811" lon="1.17412">
        <ele>207.2</ele>
        <time>2020-11-29T08:41:14Z</time>
      </trkpt>
      <trkpt lat="43.55813" lon="1.17406">
        <ele>207.2</ele>
        <time>2020-11-29T08:41:15Z</time>
      </trkpt>
      <trkpt lat="43.55815" lon="1.17402">
        <ele>207.2</ele>
        <time>2020-11-29T08:41:16Z</time>
      </trkpt>
      <trkpt lat="43.55817" lon="1.17397">
        <ele>207.2</ele>
        <time>2020-11-29T08:41:17Z</time>
      </trkpt>
      <trkpt lat="43.55819" lon="1.17391">
        <ele>207.2</ele>
        <time>2020-11-29T08:41:18Z</time>
      </trkpt>
      <trkpt lat="43.55821" lon="1.17384">
        <ele>207.2</ele>
        <time>2020-11-29T08:41:19Z</time>
      </trkpt>
      <trkpt lat="43.55823" lon="1.17376">
        <ele>207.2</ele>
        <time>2020-11-29T08:41:20Z</time>
      </trkpt>
      <trkpt lat="43.55825" lon="1.17369">
        <ele>207.2</ele>
        <time>2020-11-29T08:41:21Z</time>
      </trkpt>
      <trkpt lat="43.55826" lon="1.17363">
        <ele>207.2</ele>
        <time>2020-11-29T08:41:22Z</time>
      </trkpt>
      <trkpt lat="43.55828" lon="1.17357">
        <ele>207.1</ele>
        <time>2020-11-29T08:41:23Z</time>
      </trkpt>
      <trkpt lat="43.55829" lon="1.17352">
        <ele>207.1</ele>
        <time>2020-11-29T08:41:24Z</time>
      </trkpt>
      <trkpt lat="43.55831" lon="1.17346">
        <ele>207.1</ele>
        <time>2020-11-29T08:41:25Z</time>
      </trkpt>
      <trkpt lat="43.55832" lon="1.17339">
        <ele>207.1</ele>
        <time>2020-11-29T08:41:26Z</time>
      </trkpt>
      <trkpt lat="43.55834" lon="1.17334">
        <ele>207.1</ele>
        <time>2020-11-29T08:41:27Z</time>
      </trkpt>
      <trkpt lat="43.55836" lon="1.1733">
        <ele>207.1</ele>
        <time>2020-11-29T08:41:28Z</time>
      </trkpt>
      <trkpt lat="43.55837" lon="1.17323">
        <ele>207.1</ele>
        <time>2020-11-29T08:41:29Z</time>
      </trkpt>
      <trkpt lat="43.55838" lon="1.17317">
        <ele>207.1</ele>
        <time>2020-11-29T08:41:30Z</time>
      </trkpt>
      <trkpt lat="43.55839" lon="1.1731">
        <ele>207</ele>
        <time>2020-11-29T08:41:31Z</time>
      </trkpt>
      <trkpt lat="43.55841" lon="1.17303">
        <ele>207</ele>
        <time>2020-11-29T08:41:32Z</time>
      </trkpt>
      <trkpt lat="43.55842" lon="1.17295">
        <ele>207</ele>
        <time>2020-11-29T08:41:33Z</time>
      </trkpt>
      <trkpt lat="43.55843" lon="1.17288">
        <ele>207</ele>
        <time>2020-11-29T08:41:34Z</time>
      </trkpt>
      <trkpt lat="43.55844" lon="1.17281">
        <ele>207</ele>
        <time>2020-11-29T08:41:35Z</time>
      </trkpt>
      <trkpt lat="43.55846" lon="1.17274">
        <ele>207</ele>
        <time>2020-11-29T08:41:36Z</time>
      </trkpt>
      <trkpt lat="43.55847" lon="1.17268">
        <ele>207</ele>
        <time>2020-11-29T08:41:37Z</time>
      </trkpt>
      <trkpt lat="43.55848" lon="1.1726">
        <ele>207</ele>
        <time>2020-11-29T08:41:38Z</time>
      </trkpt>
      <trkpt lat="43.5585" lon="1.17253">
        <ele>207</ele>
        <time>2020-11-29T08:41:39Z</time>
      </trkpt>
      <trkpt lat="43.55852" lon="1.17247">
        <ele>207.1</ele>
        <time>2020-11-29T08:41:40Z</time>
      </trkpt>
      <trkpt lat="43.55853" lon="1.1724">
        <ele>207.1</ele>
        <time>2020-11-29T08:41:41Z</time>
      </trkpt>
      <trkpt lat="43.55855" lon="1.17233">
        <ele>207.1</ele>
        <time>2020-11-29T08:41:42Z</time>
      </trkpt>
      <trkpt lat="43.55856" lon="1.17225">
        <ele>207.1</ele>
        <time>2020-11-29T08:41:43Z</time>
      </trkpt>
      <trkpt lat="43.55857" lon="1.17217">
        <ele>207.1</ele>
        <time>2020-11-29T08:41:44Z</time>
      </trkpt>
      <trkpt lat="43.55859" lon="1.1721">
        <ele>207.1</ele>
        <time>2020-11-29T08:41:45Z</time>
      </trkpt>
      <trkpt lat="43.5586" lon="1.17204">
        <ele>207.1</ele>
        <time>2020-11-29T08:41:46Z</time>
      </trkpt>
      <trkpt lat="43.5586" lon="1.17197">
        <ele>207.1</ele>
        <time>2020-11-29T08:41:47Z</time>
      </trkpt>
      <trkpt lat="43.55862" lon="1.17189">
        <ele>207.1</ele>
        <time>2020-11-29T08:41:48Z</time>
      </trkpt>
      <trkpt lat="43.55864" lon="1.17183">
        <ele>207.2</ele>
        <time>2020-11-29T08:41:49Z</time>
      </trkpt>
      <trkpt lat="43.55866" lon="1.17176">
        <ele>207.2</ele>
        <time>2020-11-29T08:41:50Z</time>
      </trkpt>
      <trkpt lat="43.55869" lon="1.17167">
        <ele>207.2</ele>
        <time>2020-11-29T08:41:51Z</time>
      </trkpt>
      <trkpt lat="43.55871" lon="1.17159">
        <ele>207.2</ele>
        <time>2020-11-29T08:41:52Z</time>
      </trkpt>
      <trkpt lat="43.55873" lon="1.17152">
        <ele>207.2</ele>
        <time>2020-11-29T08:41:53Z</time>
      </trkpt>
      <trkpt lat="43.55874" lon="1.17145">
        <ele>207.2</ele>
        <time>2020-11-29T08:41:54Z</time>
      </trkpt>
      <trkpt lat="43.55876" lon="1.1714">
        <ele>207.3</ele>
        <time>2020-11-29T08:41:55Z</time>
      </trkpt>
      <trkpt lat="43.55878" lon="1.17134">
        <ele>207.3</ele>
        <time>2020-11-29T08:41:56Z</time>
      </trkpt>
      <trkpt lat="43.5588" lon="1.17128">
        <ele>207.3</ele>
        <time>2020-11-29T08:41:57Z</time>
      </trkpt>
      <trkpt lat="43.55882" lon="1.17123">
        <ele>207.3</ele>
        <time>2020-11-29T08:41:58Z</time>
      </trkpt>
      <trkpt lat="43.55883" lon="1.17116">
        <ele>207.3</ele>
        <time>2020-11-29T08:41:59Z</time>
      </trkpt>
      <trkpt lat="43.55885" lon="1.1711">
        <ele>207.4</ele>
        <time>2020-11-29T08:42:00Z</time>
      </trkpt>
      <trkpt lat="43.55887" lon="1.17106">
        <ele>207.4</ele>
        <time>2020-11-29T08:42:01Z</time>
      </trkpt>
      <trkpt lat="43.55887" lon="1.171">
        <ele>207.4</ele>
        <time>2020-11-29T08:42:02Z</time>
      </trkpt>
      <trkpt lat="43.55889" lon="1.17095">
        <ele>207.4</ele>
        <time>2020-11-29T08:42:03Z</time>
      </trkpt>
      <trkpt lat="43.55889" lon="1.17089">
        <ele>207.4</ele>
        <time>2020-11-29T08:42:04Z</time>
      </trkpt>
      <trkpt lat="43.55892" lon="1.17085">
        <ele>207.5</ele>
        <time>2020-11-29T08:42:05Z</time>
      </trkpt>
      <trkpt lat="43.55892" lon="1.17084">
        <ele>207.6</ele>
        <time>2020-11-29T08:42:06Z</time>
      </trkpt>
      <trkpt lat="43.55894" lon="1.1708">
        <ele>207.7</ele>
        <time>2020-11-29T08:42:07Z</time>
      </trkpt>
      <trkpt lat="43.55895" lon="1.17075">
        <ele>207.8</ele>
        <time>2020-11-29T08:42:08Z</time>
      </trkpt>
      <trkpt lat="43.55897" lon="1.1707">
        <ele>208</ele>
        <time>2020-11-29T08:42:09Z</time>
      </trkpt>
      <trkpt lat="43.55898" lon="1.17064">
        <ele>208.1</ele>
        <time>2020-11-29T08:42:10Z</time>
      </trkpt>
      <trkpt lat="43.55898" lon="1.17056">
        <ele>208.3</ele>
        <time>2020-11-29T08:42:11Z</time>
      </trkpt>
      <trkpt lat="43.559" lon="1.17049">
        <ele>208.5</ele>
        <time>2020-11-29T08:42:12Z</time>
      </trkpt>
      <trkpt lat="43.55901" lon="1.17042">
        <ele>208.7</ele>
        <time>2020-11-29T08:42:13Z</time>
      </trkpt>
      <trkpt lat="43.55903" lon="1.17034">
        <ele>209</ele>
        <time>2020-11-29T08:42:14Z</time>
      </trkpt>
      <trkpt lat="43.55903" lon="1.17027">
        <ele>209.2</ele>
        <time>2020-11-29T08:42:15Z</time>
      </trkpt>
      <trkpt lat="43.55905" lon="1.17021">
        <ele>209.4</ele>
        <time>2020-11-29T08:42:16Z</time>
      </trkpt>
      <trkpt lat="43.55907" lon="1.17015">
        <ele>209.6</ele>
        <time>2020-11-29T08:42:17Z</time>
      </trkpt>
      <trkpt lat="43.55909" lon="1.17009">
        <ele>209.8</ele>
        <time>2020-11-29T08:42:18Z</time>
      </trkpt>
      <trkpt lat="43.5591" lon="1.17003">
        <ele>210</ele>
        <time>2020-11-29T08:42:19Z</time>
      </trkpt>
      <trkpt lat="43.55911" lon="1.16997">
        <ele>210.2</ele>
        <time>2020-11-29T08:42:20Z</time>
      </trkpt>
      <trkpt lat="43.55913" lon="1.16991">
        <ele>210.4</ele>
        <time>2020-11-29T08:42:21Z</time>
      </trkpt>
      <trkpt lat="43.55915" lon="1.16985">
        <ele>210.6</ele>
        <time>2020-11-29T08:42:22Z</time>
      </trkpt>
      <trkpt lat="43.55917" lon="1.16978">
        <ele>210.9</ele>
        <time>2020-11-29T08:42:23Z</time>
      </trkpt>
      <trkpt lat="43.55917" lon="1.16971">
        <ele>211.1</ele>
        <time>2020-11-29T08:42:24Z</time>
      </trkpt>
      <trkpt lat="43.55916" lon="1.16964">
        <ele>211.2</ele>
        <time>2020-11-29T08:42:25Z</time>
      </trkpt>
      <trkpt lat="43.55914" lon="1.16956">
        <ele>211.3</ele>
        <time>2020-11-29T08:42:26Z</time>
      </trkpt>
      <trkpt lat="43.55911" lon="1.16948">
        <ele>211.3</ele>
        <time>2020-11-29T08:42:27Z</time>
      </trkpt>
      <trkpt lat="43.55908" lon="1.1694">
        <ele>211.4</ele>
        <time>2020-11-29T08:42:28Z</time>
      </trkpt>
      <trkpt lat="43.55906" lon="1.16934">
        <ele>211.5</ele>
        <time>2020-11-29T08:42:29Z</time>
      </trkpt>
      <trkpt lat="43.55904" lon="1.16926">
        <ele>211.6</ele>
        <time>2020-11-29T08:42:30Z</time>
      </trkpt>
      <trkpt lat="43.55902" lon="1.1692">
        <ele>211.7</ele>
        <time>2020-11-29T08:42:31Z</time>
      </trkpt>
      <trkpt lat="43.55902" lon="1.16915">
        <ele>211.7</ele>
        <time>2020-11-29T08:42:32Z</time>
      </trkpt>
      <trkpt lat="43.55901" lon="1.1691">
        <ele>211.8</ele>
        <time>2020-11-29T08:42:33Z</time>
      </trkpt>
      <trkpt lat="43.55899" lon="1.16903">
        <ele>211.8</ele>
        <time>2020-11-29T08:42:34Z</time>
      </trkpt>
      <trkpt lat="43.55898" lon="1.16896">
        <ele>211.9</ele>
        <time>2020-11-29T08:42:35Z</time>
      </trkpt>
      <trkpt lat="43.55897" lon="1.16889">
        <ele>212</ele>
        <time>2020-11-29T08:42:36Z</time>
      </trkpt>
      <trkpt lat="43.55895" lon="1.16882">
        <ele>212</ele>
        <time>2020-11-29T08:42:37Z</time>
      </trkpt>
      <trkpt lat="43.55893" lon="1.16877">
        <ele>212.1</ele>
        <time>2020-11-29T08:42:38Z</time>
      </trkpt>
      <trkpt lat="43.55891" lon="1.16869">
        <ele>212.1</ele>
        <time>2020-11-29T08:42:39Z</time>
      </trkpt>
      <trkpt lat="43.55889" lon="1.16862">
        <ele>212.2</ele>
        <time>2020-11-29T08:42:40Z</time>
      </trkpt>
      <trkpt lat="43.55886" lon="1.16857">
        <ele>212.2</ele>
        <time>2020-11-29T08:42:41Z</time>
      </trkpt>
      <trkpt lat="43.55885" lon="1.16851">
        <ele>212.3</ele>
        <time>2020-11-29T08:42:42Z</time>
      </trkpt>
      <trkpt lat="43.55882" lon="1.16844">
        <ele>212.4</ele>
        <time>2020-11-29T08:42:43Z</time>
      </trkpt>
      <trkpt lat="43.55881" lon="1.16838">
        <ele>212.4</ele>
        <time>2020-11-29T08:42:44Z</time>
      </trkpt>
      <trkpt lat="43.55878" lon="1.16831">
        <ele>212.5</ele>
        <time>2020-11-29T08:42:45Z</time>
      </trkpt>
      <trkpt lat="43.55875" lon="1.16825">
        <ele>212.6</ele>
        <time>2020-11-29T08:42:46Z</time>
      </trkpt>
      <trkpt lat="43.55873" lon="1.16819">
        <ele>212.7</ele>
        <time>2020-11-29T08:42:47Z</time>
      </trkpt>
      <trkpt lat="43.55872" lon="1.16811">
        <ele>212.9</ele>
        <time>2020-11-29T08:42:48Z</time>
      </trkpt>
      <trkpt lat="43.55869" lon="1.16805">
        <ele>213</ele>
        <time>2020-11-29T08:42:49Z</time>
      </trkpt>
      <trkpt lat="43.55867" lon="1.16799">
        <ele>213.1</ele>
        <time>2020-11-29T08:42:50Z</time>
      </trkpt>
      <trkpt lat="43.55866" lon="1.16792">
        <ele>213.2</ele>
        <time>2020-11-29T08:42:51Z</time>
      </trkpt>
      <trkpt lat="43.55865" lon="1.16786">
        <ele>213.3</ele>
        <time>2020-11-29T08:42:52Z</time>
      </trkpt>
      <trkpt lat="43.55864" lon="1.1678">
        <ele>213.4</ele>
        <time>2020-11-29T08:42:53Z</time>
      </trkpt>
      <trkpt lat="43.55863" lon="1.16776">
        <ele>213.5</ele>
        <time>2020-11-29T08:42:54Z</time>
      </trkpt>
      <trkpt lat="43.55859" lon="1.16773">
        <ele>213.5</ele>
        <time>2020-11-29T08:42:55Z</time>
      </trkpt>
      <trkpt lat="43.55855" lon="1.1677">
        <ele>213.6</ele>
        <time>2020-11-29T08:42:56Z</time>
      </trkpt>
      <trkpt lat="43.55851" lon="1.16768">
        <ele>213.7</ele>
        <time>2020-11-29T08:42:57Z</time>
      </trkpt>
      <trkpt lat="43.55847" lon="1.16766">
        <ele>213.8</ele>
        <time>2020-11-29T08:42:58Z</time>
      </trkpt>
      <trkpt lat="43.55843" lon="1.16763">
        <ele>213.8</ele>
        <time>2020-11-29T08:42:59Z</time>
      </trkpt>
      <trkpt lat="43.5584" lon="1.1676">
        <ele>213.9</ele>
        <time>2020-11-29T08:43:00Z</time>
      </trkpt>
      <trkpt lat="43.55837" lon="1.16756">
        <ele>214</ele>
        <time>2020-11-29T08:43:01Z</time>
      </trkpt>
      <trkpt lat="43.55834" lon="1.16751">
        <ele>214.1</ele>
        <time>2020-11-29T08:43:02Z</time>
      </trkpt>
      <trkpt lat="43.55832" lon="1.16747">
        <ele>214.2</ele>
        <time>2020-11-29T08:43:03Z</time>
      </trkpt>
      <trkpt lat="43.55828" lon="1.16741">
        <ele>214.3</ele>
        <time>2020-11-29T08:43:04Z</time>
      </trkpt>
      <trkpt lat="43.55825" lon="1.16735">
        <ele>214.4</ele>
        <time>2020-11-29T08:43:05Z</time>
      </trkpt>
      <trkpt lat="43.55822" lon="1.16728">
        <ele>214.6</ele>
        <time>2020-11-29T08:43:06Z</time>
      </trkpt>
      <trkpt lat="43.55819" lon="1.16724">
        <ele>214.6</ele>
        <time>2020-11-29T08:43:07Z</time>
      </trkpt>
      <trkpt lat="43.55816" lon="1.16719">
        <ele>214.7</ele>
        <time>2020-11-29T08:43:08Z</time>
      </trkpt>
      <trkpt lat="43.55813" lon="1.16714">
        <ele>214.8</ele>
        <time>2020-11-29T08:43:09Z</time>
      </trkpt>
      <trkpt lat="43.5581" lon="1.16708">
        <ele>214.9</ele>
        <time>2020-11-29T08:43:10Z</time>
      </trkpt>
      <trkpt lat="43.55807" lon="1.16703">
        <ele>215</ele>
        <time>2020-11-29T08:43:11Z</time>
      </trkpt>
      <trkpt lat="43.55803" lon="1.16697">
        <ele>215.1</ele>
        <time>2020-11-29T08:43:12Z</time>
      </trkpt>
      <trkpt lat="43.558" lon="1.16691">
        <ele>215.3</ele>
        <time>2020-11-29T08:43:13Z</time>
      </trkpt>
      <trkpt lat="43.55797" lon="1.16686">
        <ele>215.4</ele>
        <time>2020-11-29T08:43:14Z</time>
      </trkpt>
      <trkpt lat="43.55794" lon="1.16681">
        <ele>215.4</ele>
        <time>2020-11-29T08:43:15Z</time>
      </trkpt>
      <trkpt lat="43.5579" lon="1.16676">
        <ele>215.6</ele>
        <time>2020-11-29T08:43:16Z</time>
      </trkpt>
      <trkpt lat="43.55786" lon="1.16672">
        <ele>215.7</ele>
        <time>2020-11-29T08:43:17Z</time>
      </trkpt>
      <trkpt lat="43.55783" lon="1.16668">
        <ele>215.8</ele>
        <time>2020-11-29T08:43:18Z</time>
      </trkpt>
      <trkpt lat="43.5578" lon="1.16665">
        <ele>215.9</ele>
        <time>2020-11-29T08:43:19Z</time>
      </trkpt>
      <trkpt lat="43.55776" lon="1.16661">
        <ele>216</ele>
        <time>2020-11-29T08:43:20Z</time>
      </trkpt>
      <trkpt lat="43.55773" lon="1.16657">
        <ele>216</ele>
        <time>2020-11-29T08:43:21Z</time>
      </trkpt>
      <trkpt lat="43.5577" lon="1.16652">
        <ele>216.2</ele>
        <time>2020-11-29T08:43:22Z</time>
      </trkpt>
      <trkpt lat="43.55766" lon="1.16648">
        <ele>216.3</ele>
        <time>2020-11-29T08:43:23Z</time>
      </trkpt>
      <trkpt lat="43.55762" lon="1.16644">
        <ele>216.4</ele>
        <time>2020-11-29T08:43:24Z</time>
      </trkpt>
      <trkpt lat="43.55758" lon="1.1664">
        <ele>216.5</ele>
        <time>2020-11-29T08:43:25Z</time>
      </trkpt>
      <trkpt lat="43.55754" lon="1.16636">
        <ele>216.6</ele>
        <time>2020-11-29T08:43:26Z</time>
      </trkpt>
      <trkpt lat="43.55751" lon="1.16633">
        <ele>216.7</ele>
        <time>2020-11-29T08:43:27Z</time>
      </trkpt>
      <trkpt lat="43.55747" lon="1.16629">
        <ele>216.9</ele>
        <time>2020-11-29T08:43:28Z</time>
      </trkpt>
      <trkpt lat="43.55744" lon="1.16626">
        <ele>217</ele>
        <time>2020-11-29T08:43:29Z</time>
      </trkpt>
      <trkpt lat="43.5574" lon="1.16622">
        <ele>217.1</ele>
        <time>2020-11-29T08:43:30Z</time>
      </trkpt>
      <trkpt lat="43.55736" lon="1.16619">
        <ele>217.2</ele>
        <time>2020-11-29T08:43:31Z</time>
      </trkpt>
      <trkpt lat="43.55731" lon="1.16616">
        <ele>217.4</ele>
        <time>2020-11-29T08:43:32Z</time>
      </trkpt>
      <trkpt lat="43.55726" lon="1.16612">
        <ele>217.6</ele>
        <time>2020-11-29T08:43:33Z</time>
      </trkpt>
      <trkpt lat="43.55722" lon="1.16607">
        <ele>217.8</ele>
        <time>2020-11-29T08:43:34Z</time>
      </trkpt>
      <trkpt lat="43.55718" lon="1.16602">
        <ele>218</ele>
        <time>2020-11-29T08:43:35Z</time>
      </trkpt>
      <trkpt lat="43.55715" lon="1.16598">
        <ele>218.2</ele>
        <time>2020-11-29T08:43:36Z</time>
      </trkpt>
      <trkpt lat="43.5571" lon="1.16593">
        <ele>218.3</ele>
        <time>2020-11-29T08:43:37Z</time>
      </trkpt>
      <trkpt lat="43.55706" lon="1.16589">
        <ele>218.5</ele>
        <time>2020-11-29T08:43:38Z</time>
      </trkpt>
      <trkpt lat="43.55701" lon="1.16586">
        <ele>218.6</ele>
        <time>2020-11-29T08:43:39Z</time>
      </trkpt>
      <trkpt lat="43.55696" lon="1.16581">
        <ele>218.8</ele>
        <time>2020-11-29T08:43:40Z</time>
      </trkpt>
      <trkpt lat="43.55692" lon="1.16576">
        <ele>218.9</ele>
        <time>2020-11-29T08:43:41Z</time>
      </trkpt>
      <trkpt lat="43.55688" lon="1.16573">
        <ele>219</ele>
        <time>2020-11-29T08:43:42Z</time>
      </trkpt>
      <trkpt lat="43.55684" lon="1.16568">
        <ele>219.1</ele>
        <time>2020-11-29T08:43:43Z</time>
      </trkpt>
      <trkpt lat="43.55679" lon="1.16565">
        <ele>219.1</ele>
        <time>2020-11-29T08:43:44Z</time>
      </trkpt>
      <trkpt lat="43.55672" lon="1.16564">
        <ele>219.2</ele>
        <time>2020-11-29T08:43:45Z</time>
      </trkpt>
      <trkpt lat="43.55667" lon="1.16563">
        <ele>219.2</ele>
        <time>2020-11-29T08:43:46Z</time>
      </trkpt>
      <trkpt lat="43.55661" lon="1.16562">
        <ele>219.2</ele>
        <time>2020-11-29T08:43:47Z</time>
      </trkpt>
      <trkpt lat="43.55655" lon="1.16562">
        <ele>219.2</ele>
        <time>2020-11-29T08:43:48Z</time>
      </trkpt>
      <trkpt lat="43.55649" lon="1.16561">
        <ele>219.2</ele>
        <time>2020-11-29T08:43:49Z</time>
      </trkpt>
      <trkpt lat="43.55642" lon="1.16561">
        <ele>219.1</ele>
        <time>2020-11-29T08:43:50Z</time>
      </trkpt>
      <trkpt lat="43.55638" lon="1.16562">
        <ele>219.1</ele>
        <time>2020-11-29T08:43:51Z</time>
      </trkpt>
      <trkpt lat="43.55632" lon="1.16562">
        <ele>219</ele>
        <time>2020-11-29T08:43:52Z</time>
      </trkpt>
      <trkpt lat="43.55626" lon="1.16562">
        <ele>219</ele>
        <time>2020-11-29T08:43:53Z</time>
      </trkpt>
      <trkpt lat="43.5562" lon="1.16561">
        <ele>218.9</ele>
        <time>2020-11-29T08:43:54Z</time>
      </trkpt>
      <trkpt lat="43.55614" lon="1.16559">
        <ele>218.8</ele>
        <time>2020-11-29T08:43:55Z</time>
      </trkpt>
      <trkpt lat="43.55608" lon="1.16558">
        <ele>218.8</ele>
        <time>2020-11-29T08:43:56Z</time>
      </trkpt>
      <trkpt lat="43.55603" lon="1.16556">
        <ele>218.7</ele>
        <time>2020-11-29T08:43:57Z</time>
      </trkpt>
      <trkpt lat="43.55598" lon="1.16555">
        <ele>218.7</ele>
        <time>2020-11-29T08:43:58Z</time>
      </trkpt>
      <trkpt lat="43.55595" lon="1.16555">
        <ele>218.6</ele>
        <time>2020-11-29T08:43:59Z</time>
      </trkpt>
      <trkpt lat="43.55589" lon="1.16554">
        <ele>218.6</ele>
        <time>2020-11-29T08:44:00Z</time>
      </trkpt>
      <trkpt lat="43.55583" lon="1.16553">
        <ele>218.5</ele>
        <time>2020-11-29T08:44:01Z</time>
      </trkpt>
      <trkpt lat="43.55577" lon="1.16552">
        <ele>218.3</ele>
        <time>2020-11-29T08:44:02Z</time>
      </trkpt>
      <trkpt lat="43.5557" lon="1.16551">
        <ele>218.2</ele>
        <time>2020-11-29T08:44:03Z</time>
      </trkpt>
      <trkpt lat="43.55565" lon="1.16549">
        <ele>218.2</ele>
        <time>2020-11-29T08:44:04Z</time>
      </trkpt>
      <trkpt lat="43.55558" lon="1.16548">
        <ele>218.1</ele>
        <time>2020-11-29T08:44:05Z</time>
      </trkpt>
      <trkpt lat="43.55552" lon="1.16546">
        <ele>218</ele>
        <time>2020-11-29T08:44:06Z</time>
      </trkpt>
      <trkpt lat="43.55546" lon="1.16545">
        <ele>217.9</ele>
        <time>2020-11-29T08:44:07Z</time>
      </trkpt>
      <trkpt lat="43.5554" lon="1.16543">
        <ele>217.8</ele>
        <time>2020-11-29T08:44:08Z</time>
      </trkpt>
      <trkpt lat="43.55534" lon="1.16541">
        <ele>217.8</ele>
        <time>2020-11-29T08:44:09Z</time>
      </trkpt>
      <trkpt lat="43.55528" lon="1.1654">
        <ele>217.7</ele>
        <time>2020-11-29T08:44:10Z</time>
      </trkpt>
      <trkpt lat="43.55522" lon="1.16539">
        <ele>217.6</ele>
        <time>2020-11-29T08:44:11Z</time>
      </trkpt>
      <trkpt lat="43.55516" lon="1.16538">
        <ele>217.6</ele>
        <time>2020-11-29T08:44:12Z</time>
      </trkpt>
      <trkpt lat="43.5551" lon="1.16537">
        <ele>217.5</ele>
        <time>2020-11-29T08:44:13Z</time>
      </trkpt>
      <trkpt lat="43.55504" lon="1.16537">
        <ele>217.5</ele>
        <time>2020-11-29T08:44:14Z</time>
      </trkpt>
      <trkpt lat="43.55498" lon="1.16537">
        <ele>217.5</ele>
        <time>2020-11-29T08:44:15Z</time>
      </trkpt>
      <trkpt lat="43.55492" lon="1.16535">
        <ele>217.4</ele>
        <time>2020-11-29T08:44:16Z</time>
      </trkpt>
      <trkpt lat="43.55486" lon="1.16534">
        <ele>217.4</ele>
        <time>2020-11-29T08:44:17Z</time>
      </trkpt>
      <trkpt lat="43.5548" lon="1.16532">
        <ele>217.4</ele>
        <time>2020-11-29T08:44:18Z</time>
      </trkpt>
      <trkpt lat="43.55475" lon="1.1653">
        <ele>217.4</ele>
        <time>2020-11-29T08:44:19Z</time>
      </trkpt>
      <trkpt lat="43.55469" lon="1.16528">
        <ele>217.3</ele>
        <time>2020-11-29T08:44:20Z</time>
      </trkpt>
      <trkpt lat="43.55464" lon="1.16525">
        <ele>217.3</ele>
        <time>2020-11-29T08:44:21Z</time>
      </trkpt>
      <trkpt lat="43.55458" lon="1.16523">
        <ele>217.3</ele>
        <time>2020-11-29T08:44:22Z</time>
      </trkpt>
      <trkpt lat="43.55452" lon="1.16521">
        <ele>217.3</ele>
        <time>2020-11-29T08:44:23Z</time>
      </trkpt>
      <trkpt lat="43.55445" lon="1.16518">
        <ele>217.3</ele>
        <time>2020-11-29T08:44:24Z</time>
      </trkpt>
      <trkpt lat="43.55439" lon="1.16514">
        <ele>217.3</ele>
        <time>2020-11-29T08:44:25Z</time>
      </trkpt>
      <trkpt lat="43.55433" lon="1.16512">
        <ele>217.4</ele>
        <time>2020-11-29T08:44:26Z</time>
      </trkpt>
      <trkpt lat="43.55428" lon="1.1651">
        <ele>217.4</ele>
        <time>2020-11-29T08:44:27Z</time>
      </trkpt>
      <trkpt lat="43.55422" lon="1.1651">
        <ele>217.4</ele>
        <time>2020-11-29T08:44:28Z</time>
      </trkpt>
      <trkpt lat="43.55416" lon="1.1651">
        <ele>217.4</ele>
        <time>2020-11-29T08:44:29Z</time>
      </trkpt>
      <trkpt lat="43.55412" lon="1.16509">
        <ele>217.4</ele>
        <time>2020-11-29T08:44:30Z</time>
      </trkpt>
      <trkpt lat="43.55409" lon="1.16506">
        <ele>217.7</ele>
        <time>2020-11-29T08:44:31Z</time>
      </trkpt>
      <trkpt lat="43.55406" lon="1.16501">
        <ele>217.8</ele>
        <time>2020-11-29T08:44:32Z</time>
      </trkpt>
      <trkpt lat="43.55404" lon="1.16498">
        <ele>217.8</ele>
        <time>2020-11-29T08:44:33Z</time>
      </trkpt>
      <trkpt lat="43.55401" lon="1.16495">
        <ele>217.9</ele>
        <time>2020-11-29T08:44:34Z</time>
      </trkpt>
      <trkpt lat="43.55397" lon="1.16492">
        <ele>218</ele>
        <time>2020-11-29T08:44:35Z</time>
      </trkpt>
      <trkpt lat="43.55395" lon="1.16487">
        <ele>218</ele>
        <time>2020-11-29T08:44:36Z</time>
      </trkpt>
      <trkpt lat="43.55395" lon="1.16481">
        <ele>218.1</ele>
        <time>2020-11-29T08:44:37Z</time>
      </trkpt>
      <trkpt lat="43.55395" lon="1.16477">
        <ele>218.2</ele>
        <time>2020-11-29T08:44:38Z</time>
      </trkpt>
      <trkpt lat="43.55397" lon="1.16472">
        <ele>218.3</ele>
        <time>2020-11-29T08:44:39Z</time>
      </trkpt>
      <trkpt lat="43.55397" lon="1.1647">
        <ele>218.3</ele>
        <time>2020-11-29T08:44:40Z</time>
      </trkpt>
      <trkpt lat="43.55398" lon="1.16466">
        <ele>218.4</ele>
        <time>2020-11-29T08:44:41Z</time>
      </trkpt>
      <trkpt lat="43.55399" lon="1.16462">
        <ele>218.5</ele>
        <time>2020-11-29T08:44:42Z</time>
      </trkpt>
      <trkpt lat="43.554" lon="1.16458">
        <ele>218.6</ele>
        <time>2020-11-29T08:44:43Z</time>
      </trkpt>
      <trkpt lat="43.554" lon="1.16454">
        <ele>218.7</ele>
        <time>2020-11-29T08:44:44Z</time>
      </trkpt>
      <trkpt lat="43.55402" lon="1.1645">
        <ele>218.9</ele>
        <time>2020-11-29T08:44:45Z</time>
      </trkpt>
      <trkpt lat="43.55404" lon="1.16445">
        <ele>219.1</ele>
        <time>2020-11-29T08:44:46Z</time>
      </trkpt>
      <trkpt lat="43.55405" lon="1.16441">
        <ele>219.2</ele>
        <time>2020-11-29T08:44:47Z</time>
      </trkpt>
      <trkpt lat="43.55407" lon="1.16435">
        <ele>219.4</ele>
        <time>2020-11-29T08:44:48Z</time>
      </trkpt>
      <trkpt lat="43.55407" lon="1.16433">
        <ele>219.5</ele>
        <time>2020-11-29T08:44:49Z</time>
      </trkpt>
      <trkpt lat="43.55408" lon="1.16428">
        <ele>219.7</ele>
        <time>2020-11-29T08:44:50Z</time>
      </trkpt>
      <trkpt lat="43.55409" lon="1.16424">
        <ele>219.9</ele>
        <time>2020-11-29T08:44:52Z</time>
      </trkpt>
      <trkpt lat="43.55411" lon="1.1642">
        <ele>220.2</ele>
        <time>2020-11-29T08:44:53Z</time>
      </trkpt>
      <trkpt lat="43.55414" lon="1.16415">
        <ele>220.5</ele>
        <time>2020-11-29T08:44:54Z</time>
      </trkpt>
      <trkpt lat="43.55416" lon="1.16411">
        <ele>220.7</ele>
        <time>2020-11-29T08:44:55Z</time>
      </trkpt>
      <trkpt lat="43.55418" lon="1.16406">
        <ele>221</ele>
        <time>2020-11-29T08:44:56Z</time>
      </trkpt>
      <trkpt lat="43.55419" lon="1.16401">
        <ele>221.3</ele>
        <time>2020-11-29T08:44:57Z</time>
      </trkpt>
      <trkpt lat="43.5542" lon="1.16396">
        <ele>221.7</ele>
        <time>2020-11-29T08:44:58Z</time>
      </trkpt>
      <trkpt lat="43.55421" lon="1.16392">
        <ele>221.9</ele>
        <time>2020-11-29T08:44:59Z</time>
      </trkpt>
      <trkpt lat="43.55423" lon="1.16389">
        <ele>222.2</ele>
        <time>2020-11-29T08:45:00Z</time>
      </trkpt>
      <trkpt lat="43.55424" lon="1.16385">
        <ele>222.5</ele>
        <time>2020-11-29T08:45:01Z</time>
      </trkpt>
      <trkpt lat="43.55426" lon="1.1638">
        <ele>222.9</ele>
        <time>2020-11-29T08:45:02Z</time>
      </trkpt>
      <trkpt lat="43.55427" lon="1.16378">
        <ele>223.1</ele>
        <time>2020-11-29T08:45:03Z</time>
      </trkpt>
      <trkpt lat="43.55428" lon="1.16373">
        <ele>223.5</ele>
        <time>2020-11-29T08:45:04Z</time>
      </trkpt>
      <trkpt lat="43.55429" lon="1.16371">
        <ele>223.7</ele>
        <time>2020-11-29T08:45:05Z</time>
      </trkpt>
      <trkpt lat="43.5543" lon="1.16366">
        <ele>224.2</ele>
        <time>2020-11-29T08:45:06Z</time>
      </trkpt>
      <trkpt lat="43.5543" lon="1.16362">
        <ele>224.6</ele>
        <time>2020-11-29T08:45:07Z</time>
      </trkpt>
      <trkpt lat="43.5543" lon="1.1636">
        <ele>224.7</ele>
        <time>2020-11-29T08:45:08Z</time>
      </trkpt>
      <trkpt lat="43.55431" lon="1.16358">
        <ele>224.9</ele>
        <time>2020-11-29T08:45:09Z</time>
      </trkpt>
      <trkpt lat="43.55432" lon="1.16356">
        <ele>225.1</ele>
        <time>2020-11-29T08:45:10Z</time>
      </trkpt>
      <trkpt lat="43.55433" lon="1.16356">
        <ele>225.2</ele>
        <time>2020-11-29T08:45:11Z</time>
      </trkpt>
      <trkpt lat="43.55435" lon="1.16355">
        <ele>225.5</ele>
        <time>2020-11-29T08:45:12Z</time>
      </trkpt>
      <trkpt lat="43.55438" lon="1.16354">
        <ele>227.1</ele>
        <time>2020-11-29T08:45:13Z</time>
      </trkpt>
      <trkpt lat="43.55439" lon="1.16353">
        <ele>227.2</ele>
        <time>2020-11-29T08:45:14Z</time>
      </trkpt>
      <trkpt lat="43.55443" lon="1.16351">
        <ele>227.5</ele>
        <time>2020-11-29T08:45:15Z</time>
      </trkpt>
      <trkpt lat="43.55445" lon="1.1635">
        <ele>227.6</ele>
        <time>2020-11-29T08:45:16Z</time>
      </trkpt>
      <trkpt lat="43.55448" lon="1.1635">
        <ele>227.7</ele>
        <time>2020-11-29T08:45:17Z</time>
      </trkpt>
      <trkpt lat="43.55452" lon="1.16348">
        <ele>227.8</ele>
        <time>2020-11-29T08:45:18Z</time>
      </trkpt>
      <trkpt lat="43.55456" lon="1.16346">
        <ele>227.9</ele>
        <time>2020-11-29T08:45:19Z</time>
      </trkpt>
      <trkpt lat="43.5546" lon="1.16345">
        <ele>227.9</ele>
        <time>2020-11-29T08:45:20Z</time>
      </trkpt>
      <trkpt lat="43.55464" lon="1.16344">
        <ele>228</ele>
        <time>2020-11-29T08:45:21Z</time>
      </trkpt>
      <trkpt lat="43.55468" lon="1.16341">
        <ele>228</ele>
        <time>2020-11-29T08:45:22Z</time>
      </trkpt>
      <trkpt lat="43.55471" lon="1.16338">
        <ele>228.1</ele>
        <time>2020-11-29T08:45:23Z</time>
      </trkpt>
      <trkpt lat="43.55476" lon="1.16334">
        <ele>228.2</ele>
        <time>2020-11-29T08:45:24Z</time>
      </trkpt>
      <trkpt lat="43.5548" lon="1.16329">
        <ele>228.3</ele>
        <time>2020-11-29T08:45:25Z</time>
      </trkpt>
      <trkpt lat="43.55483" lon="1.16325">
        <ele>228.4</ele>
        <time>2020-11-29T08:45:26Z</time>
      </trkpt>
      <trkpt lat="43.55486" lon="1.16321">
        <ele>228.6</ele>
        <time>2020-11-29T08:45:27Z</time>
      </trkpt>
      <trkpt lat="43.55489" lon="1.16317">
        <ele>228.8</ele>
        <time>2020-11-29T08:45:28Z</time>
      </trkpt>
      <trkpt lat="43.55493" lon="1.16314">
        <ele>229</ele>
        <time>2020-11-29T08:45:29Z</time>
      </trkpt>
      <trkpt lat="43.55496" lon="1.16311">
        <ele>229.2</ele>
        <time>2020-11-29T08:45:30Z</time>
      </trkpt>
      <trkpt lat="43.55501" lon="1.16308">
        <ele>229.5</ele>
        <time>2020-11-29T08:45:31Z</time>
      </trkpt>
      <trkpt lat="43.55505" lon="1.16306">
        <ele>229.7</ele>
        <time>2020-11-29T08:45:32Z</time>
      </trkpt>
      <trkpt lat="43.55508" lon="1.16304">
        <ele>229.9</ele>
        <time>2020-11-29T08:45:33Z</time>
      </trkpt>
      <trkpt lat="43.55512" lon="1.163">
        <ele>230.1</ele>
        <time>2020-11-29T08:45:34Z</time>
      </trkpt>
      <trkpt lat="43.55515" lon="1.16297">
        <ele>230.2</ele>
        <time>2020-11-29T08:45:35Z</time>
      </trkpt>
      <trkpt lat="43.55518" lon="1.16294">
        <ele>230.3</ele>
        <time>2020-11-29T08:45:36Z</time>
      </trkpt>
      <trkpt lat="43.55523" lon="1.16291">
        <ele>230.4</ele>
        <time>2020-11-29T08:45:37Z</time>
      </trkpt>
      <trkpt lat="43.55528" lon="1.16288">
        <ele>230.5</ele>
        <time>2020-11-29T08:45:38Z</time>
      </trkpt>
      <trkpt lat="43.55531" lon="1.16282">
        <ele>230.7</ele>
        <time>2020-11-29T08:45:39Z</time>
      </trkpt>
      <trkpt lat="43.55533" lon="1.16278">
        <ele>230.9</ele>
        <time>2020-11-29T08:45:40Z</time>
      </trkpt>
      <trkpt lat="43.55536" lon="1.16275">
        <ele>231.1</ele>
        <time>2020-11-29T08:45:41Z</time>
      </trkpt>
      <trkpt lat="43.55539" lon="1.16272">
        <ele>231.3</ele>
        <time>2020-11-29T08:45:42Z</time>
      </trkpt>
      <trkpt lat="43.5554" lon="1.1627">
        <ele>231.4</ele>
        <time>2020-11-29T08:45:43Z</time>
      </trkpt>
      <trkpt lat="43.55543" lon="1.16269">
        <ele>231.6</ele>
        <time>2020-11-29T08:45:44Z</time>
      </trkpt>
      <trkpt lat="43.55547" lon="1.16267">
        <ele>231.8</ele>
        <time>2020-11-29T08:45:45Z</time>
      </trkpt>
      <trkpt lat="43.5555" lon="1.16262">
        <ele>232</ele>
        <time>2020-11-29T08:45:46Z</time>
      </trkpt>
      <trkpt lat="43.55552" lon="1.16258">
        <ele>232.3</ele>
        <time>2020-11-29T08:45:47Z</time>
      </trkpt>
      <trkpt lat="43.55555" lon="1.16255">
        <ele>232.5</ele>
        <time>2020-11-29T08:45:48Z</time>
      </trkpt>
      <trkpt lat="43.55558" lon="1.1625">
        <ele>232.8</ele>
        <time>2020-11-29T08:45:49Z</time>
      </trkpt>
      <trkpt lat="43.55561" lon="1.16247">
        <ele>233.1</ele>
        <time>2020-11-29T08:45:50Z</time>
      </trkpt>
      <trkpt lat="43.55565" lon="1.16243">
        <ele>233.4</ele>
        <time>2020-11-29T08:45:51Z</time>
      </trkpt>
      <trkpt lat="43.55569" lon="1.1624">
        <ele>233.7</ele>
        <time>2020-11-29T08:45:52Z</time>
      </trkpt>
      <trkpt lat="43.55573" lon="1.16236">
        <ele>234.1</ele>
        <time>2020-11-29T08:45:53Z</time>
      </trkpt>
      <trkpt lat="43.55576" lon="1.16231">
        <ele>234.4</ele>
        <time>2020-11-29T08:45:54Z</time>
      </trkpt>
      <trkpt lat="43.55577" lon="1.16227">
        <ele>234.6</ele>
        <time>2020-11-29T08:45:55Z</time>
      </trkpt>
      <trkpt lat="43.55579" lon="1.16223">
        <ele>234.8</ele>
        <time>2020-11-29T08:45:56Z</time>
      </trkpt>
      <trkpt lat="43.55582" lon="1.16218">
        <ele>235.1</ele>
        <time>2020-11-29T08:45:57Z</time>
      </trkpt>
      <trkpt lat="43.55585" lon="1.16213">
        <ele>235.5</ele>
        <time>2020-11-29T08:45:58Z</time>
      </trkpt>
      <trkpt lat="43.55588" lon="1.16209">
        <ele>235.7</ele>
        <time>2020-11-29T08:45:59Z</time>
      </trkpt>
      <trkpt lat="43.55591" lon="1.16207">
        <ele>235.9</ele>
        <time>2020-11-29T08:46:00Z</time>
      </trkpt>
      <trkpt lat="43.55594" lon="1.16203">
        <ele>236.1</ele>
        <time>2020-11-29T08:46:01Z</time>
      </trkpt>
      <trkpt lat="43.55596" lon="1.16199">
        <ele>236.3</ele>
        <time>2020-11-29T08:46:02Z</time>
      </trkpt>
      <trkpt lat="43.556" lon="1.16196">
        <ele>236.6</ele>
        <time>2020-11-29T08:46:03Z</time>
      </trkpt>
      <trkpt lat="43.55603" lon="1.16193">
        <ele>236.8</ele>
        <time>2020-11-29T08:46:04Z</time>
      </trkpt>
      <trkpt lat="43.55606" lon="1.16189">
        <ele>237</ele>
        <time>2020-11-29T08:46:05Z</time>
      </trkpt>
      <trkpt lat="43.55609" lon="1.16186">
        <ele>237.2</ele>
        <time>2020-11-29T08:46:06Z</time>
      </trkpt>
      <trkpt lat="43.55611" lon="1.16184">
        <ele>237.4</ele>
        <time>2020-11-29T08:46:07Z</time>
      </trkpt>
      <trkpt lat="43.55614" lon="1.16181">
        <ele>237.5</ele>
        <time>2020-11-29T08:46:08Z</time>
      </trkpt>
      <trkpt lat="43.55617" lon="1.16178">
        <ele>237.7</ele>
        <time>2020-11-29T08:46:09Z</time>
      </trkpt>
      <trkpt lat="43.55621" lon="1.16176">
        <ele>237.9</ele>
        <time>2020-11-29T08:46:10Z</time>
      </trkpt>
      <trkpt lat="43.55623" lon="1.16172">
        <ele>238.1</ele>
        <time>2020-11-29T08:46:11Z</time>
      </trkpt>
      <trkpt lat="43.55627" lon="1.16166">
        <ele>238.3</ele>
        <time>2020-11-29T08:46:12Z</time>
      </trkpt>
      <trkpt lat="43.5563" lon="1.16161">
        <ele>238.6</ele>
        <time>2020-11-29T08:46:13Z</time>
      </trkpt>
      <trkpt lat="43.5563" lon="1.16157">
        <ele>238.7</ele>
        <time>2020-11-29T08:46:14Z</time>
      </trkpt>
      <trkpt lat="43.55631" lon="1.16153">
        <ele>238.9</ele>
        <time>2020-11-29T08:46:15Z</time>
      </trkpt>
      <trkpt lat="43.55633" lon="1.16149">
        <ele>239</ele>
        <time>2020-11-29T08:46:16Z</time>
      </trkpt>
      <trkpt lat="43.55635" lon="1.16146">
        <ele>239.2</ele>
        <time>2020-11-29T08:46:17Z</time>
      </trkpt>
      <trkpt lat="43.55638" lon="1.16144">
        <ele>239.3</ele>
        <time>2020-11-29T08:46:18Z</time>
      </trkpt>
      <trkpt lat="43.55641" lon="1.16142">
        <ele>239.4</ele>
        <time>2020-11-29T08:46:19Z</time>
      </trkpt>
      <trkpt lat="43.55643" lon="1.16139">
        <ele>239.5</ele>
        <time>2020-11-29T08:46:20Z</time>
      </trkpt>
      <trkpt lat="43.55646" lon="1.16137">
        <ele>239.5</ele>
        <time>2020-11-29T08:46:21Z</time>
      </trkpt>
      <trkpt lat="43.55647" lon="1.16136">
        <ele>239.5</ele>
        <time>2020-11-29T08:46:22Z</time>
      </trkpt>
      <trkpt lat="43.5565" lon="1.16132">
        <ele>239.5</ele>
        <time>2020-11-29T08:46:23Z</time>
      </trkpt>
      <trkpt lat="43.55652" lon="1.16129">
        <ele>239.5</ele>
        <time>2020-11-29T08:46:24Z</time>
      </trkpt>
      <trkpt lat="43.55655" lon="1.16126">
        <ele>239.5</ele>
        <time>2020-11-29T08:46:25Z</time>
      </trkpt>
      <trkpt lat="43.55658" lon="1.16122">
        <ele>239.5</ele>
        <time>2020-11-29T08:46:26Z</time>
      </trkpt>
      <trkpt lat="43.55661" lon="1.1612">
        <ele>239.5</ele>
        <time>2020-11-29T08:46:27Z</time>
      </trkpt>
      <trkpt lat="43.55664" lon="1.16116">
        <ele>239.4</ele>
        <time>2020-11-29T08:46:28Z</time>
      </trkpt>
      <trkpt lat="43.55667" lon="1.16113">
        <ele>239.3</ele>
        <time>2020-11-29T08:46:29Z</time>
      </trkpt>
      <trkpt lat="43.55671" lon="1.1611">
        <ele>239.2</ele>
        <time>2020-11-29T08:46:30Z</time>
      </trkpt>
      <trkpt lat="43.55674" lon="1.16106">
        <ele>239.1</ele>
        <time>2020-11-29T08:46:31Z</time>
      </trkpt>
      <trkpt lat="43.55677" lon="1.16102">
        <ele>239</ele>
        <time>2020-11-29T08:46:32Z</time>
      </trkpt>
      <trkpt lat="43.5568" lon="1.16099">
        <ele>238.9</ele>
        <time>2020-11-29T08:46:33Z</time>
      </trkpt>
      <trkpt lat="43.55684" lon="1.16097">
        <ele>238.8</ele>
        <time>2020-11-29T08:46:34Z</time>
      </trkpt>
      <trkpt lat="43.55688" lon="1.16095">
        <ele>238.6</ele>
        <time>2020-11-29T08:46:35Z</time>
      </trkpt>
      <trkpt lat="43.5569" lon="1.16092">
        <ele>238.5</ele>
        <time>2020-11-29T08:46:36Z</time>
      </trkpt>
      <trkpt lat="43.5569" lon="1.16088">
        <ele>238.5</ele>
        <time>2020-11-29T08:46:37Z</time>
      </trkpt>
      <trkpt lat="43.55689" lon="1.16085">
        <ele>238.4</ele>
        <time>2020-11-29T08:46:38Z</time>
      </trkpt>
      <trkpt lat="43.55689" lon="1.16078">
        <ele>238.3</ele>
        <time>2020-11-29T08:46:39Z</time>
      </trkpt>
      <trkpt lat="43.5569" lon="1.16071">
        <ele>238.3</ele>
        <time>2020-11-29T08:46:40Z</time>
      </trkpt>
      <trkpt lat="43.5569" lon="1.16064">
        <ele>238.3</ele>
        <time>2020-11-29T08:46:41Z</time>
      </trkpt>
      <trkpt lat="43.55689" lon="1.16059">
        <ele>238.3</ele>
        <time>2020-11-29T08:46:42Z</time>
      </trkpt>
      <trkpt lat="43.55688" lon="1.16057">
        <ele>238.3</ele>
        <time>2020-11-29T08:46:43Z</time>
      </trkpt>
      <trkpt lat="43.55688" lon="1.16052">
        <ele>238.4</ele>
        <time>2020-11-29T08:46:44Z</time>
      </trkpt>
      <trkpt lat="43.55688" lon="1.1605">
        <ele>238.4</ele>
        <time>2020-11-29T08:46:45Z</time>
      </trkpt>
      <trkpt lat="43.55688" lon="1.16045">
        <ele>238.6</ele>
        <time>2020-11-29T08:46:46Z</time>
      </trkpt>
      <trkpt lat="43.55687" lon="1.1604">
        <ele>238.7</ele>
        <time>2020-11-29T08:46:47Z</time>
      </trkpt>
      <trkpt lat="43.55687" lon="1.16039">
        <ele>238.7</ele>
        <time>2020-11-29T08:46:48Z</time>
      </trkpt>
      <trkpt lat="43.55687" lon="1.16033">
        <ele>238.9</ele>
        <time>2020-11-29T08:46:49Z</time>
      </trkpt>
      <trkpt lat="43.55686" lon="1.16031">
        <ele>239</ele>
        <time>2020-11-29T08:46:50Z</time>
      </trkpt>
      <trkpt lat="43.55687" lon="1.16027">
        <ele>239.2</ele>
        <time>2020-11-29T08:46:51Z</time>
      </trkpt>
      <trkpt lat="43.55687" lon="1.16021">
        <ele>239.4</ele>
        <time>2020-11-29T08:46:52Z</time>
      </trkpt>
      <trkpt lat="43.55686" lon="1.16015">
        <ele>239.7</ele>
        <time>2020-11-29T08:46:53Z</time>
      </trkpt>
      <trkpt lat="43.55687" lon="1.16008">
        <ele>240</ele>
        <time>2020-11-29T08:46:54Z</time>
      </trkpt>
      <trkpt lat="43.55689" lon="1.16001">
        <ele>240.3</ele>
        <time>2020-11-29T08:46:55Z</time>
      </trkpt>
      <trkpt lat="43.55689" lon="1.15994">
        <ele>240.5</ele>
        <time>2020-11-29T08:46:56Z</time>
      </trkpt>
      <trkpt lat="43.55689" lon="1.15988">
        <ele>240.8</ele>
        <time>2020-11-29T08:46:57Z</time>
      </trkpt>
      <trkpt lat="43.5569" lon="1.15982">
        <ele>241</ele>
        <time>2020-11-29T08:46:58Z</time>
      </trkpt>
      <trkpt lat="43.55691" lon="1.15978">
        <ele>241.2</ele>
        <time>2020-11-29T08:46:59Z</time>
      </trkpt>
      <trkpt lat="43.5569" lon="1.15972">
        <ele>241.4</ele>
        <time>2020-11-29T08:47:00Z</time>
      </trkpt>
      <trkpt lat="43.5569" lon="1.15966">
        <ele>241.7</ele>
        <time>2020-11-29T08:47:01Z</time>
      </trkpt>
      <trkpt lat="43.5569" lon="1.15964">
        <ele>241.8</ele>
        <time>2020-11-29T08:47:02Z</time>
      </trkpt>
      <trkpt lat="43.5569" lon="1.15958">
        <ele>242.1</ele>
        <time>2020-11-29T08:47:03Z</time>
      </trkpt>
      <trkpt lat="43.5569" lon="1.15955">
        <ele>242.3</ele>
        <time>2020-11-29T08:47:04Z</time>
      </trkpt>
      <trkpt lat="43.55689" lon="1.1595">
        <ele>242.6</ele>
        <time>2020-11-29T08:47:05Z</time>
      </trkpt>
      <trkpt lat="43.55689" lon="1.15947">
        <ele>242.8</ele>
        <time>2020-11-29T08:47:06Z</time>
      </trkpt>
      <trkpt lat="43.55689" lon="1.15946">
        <ele>242.9</ele>
        <time>2020-11-29T08:47:07Z</time>
      </trkpt>
      <trkpt lat="43.55691" lon="1.15942">
        <ele>243.1</ele>
        <time>2020-11-29T08:47:08Z</time>
      </trkpt>
      <trkpt lat="43.55692" lon="1.15941">
        <ele>243.1</ele>
        <time>2020-11-29T08:47:09Z</time>
      </trkpt>
      <trkpt lat="43.55693" lon="1.15938">
        <ele>243.3</ele>
        <time>2020-11-29T08:47:10Z</time>
      </trkpt>
      <trkpt lat="43.55695" lon="1.15934">
        <ele>243.5</ele>
        <time>2020-11-29T08:47:11Z</time>
      </trkpt>
      <trkpt lat="43.55696" lon="1.15933">
        <ele>243.6</ele>
        <time>2020-11-29T08:47:12Z</time>
      </trkpt>
      <trkpt lat="43.55697" lon="1.15929">
        <ele>243.7</ele>
        <time>2020-11-29T08:47:13Z</time>
      </trkpt>
      <trkpt lat="43.55698" lon="1.15924">
        <ele>243.8</ele>
        <time>2020-11-29T08:47:14Z</time>
      </trkpt>
      <trkpt lat="43.55697" lon="1.15919">
        <ele>243.9</ele>
        <time>2020-11-29T08:47:15Z</time>
      </trkpt>
      <trkpt lat="43.55697" lon="1.15916">
        <ele>244</ele>
        <time>2020-11-29T08:47:16Z</time>
      </trkpt>
      <trkpt lat="43.55696" lon="1.1591">
        <ele>244</ele>
        <time>2020-11-29T08:47:17Z</time>
      </trkpt>
      <trkpt lat="43.55696" lon="1.15908">
        <ele>244.1</ele>
        <time>2020-11-29T08:47:18Z</time>
      </trkpt>
      <trkpt lat="43.55697" lon="1.15904">
        <ele>244.1</ele>
        <time>2020-11-29T08:47:19Z</time>
      </trkpt>
      <trkpt lat="43.55696" lon="1.159">
        <ele>244.2</ele>
        <time>2020-11-29T08:47:20Z</time>
      </trkpt>
      <trkpt lat="43.55696" lon="1.15896">
        <ele>244.3</ele>
        <time>2020-11-29T08:47:21Z</time>
      </trkpt>
      <trkpt lat="43.55694" lon="1.15891">
        <ele>244.5</ele>
        <time>2020-11-29T08:47:22Z</time>
      </trkpt>
      <trkpt lat="43.55692" lon="1.15887">
        <ele>244.7</ele>
        <time>2020-11-29T08:47:23Z</time>
      </trkpt>
      <trkpt lat="43.5569" lon="1.15882">
        <ele>244.9</ele>
        <time>2020-11-29T08:47:24Z</time>
      </trkpt>
      <trkpt lat="43.5569" lon="1.15877">
        <ele>245.2</ele>
        <time>2020-11-29T08:47:25Z</time>
      </trkpt>
      <trkpt lat="43.5569" lon="1.15875">
        <ele>245.3</ele>
        <time>2020-11-29T08:47:26Z</time>
      </trkpt>
      <trkpt lat="43.5569" lon="1.15871">
        <ele>245.5</ele>
        <time>2020-11-29T08:47:27Z</time>
      </trkpt>
      <trkpt lat="43.55689" lon="1.15866">
        <ele>245.9</ele>
        <time>2020-11-29T08:47:28Z</time>
      </trkpt>
      <trkpt lat="43.55688" lon="1.15864">
        <ele>246</ele>
        <time>2020-11-29T08:47:29Z</time>
      </trkpt>
      <trkpt lat="43.55687" lon="1.1586">
        <ele>246.4</ele>
        <time>2020-11-29T08:47:30Z</time>
      </trkpt>
      <trkpt lat="43.55686" lon="1.15855">
        <ele>246.9</ele>
        <time>2020-11-29T08:47:31Z</time>
      </trkpt>
      <trkpt lat="43.55684" lon="1.15851">
        <ele>247.3</ele>
        <time>2020-11-29T08:47:32Z</time>
      </trkpt>
      <trkpt lat="43.55683" lon="1.15847">
        <ele>247.8</ele>
        <time>2020-11-29T08:47:33Z</time>
      </trkpt>
      <trkpt lat="43.55681" lon="1.15844">
        <ele>248.3</ele>
        <time>2020-11-29T08:47:34Z</time>
      </trkpt>
      <trkpt lat="43.55678" lon="1.15842">
        <ele>248.7</ele>
        <time>2020-11-29T08:47:35Z</time>
      </trkpt>
      <trkpt lat="43.55675" lon="1.1584">
        <ele>249.2</ele>
        <time>2020-11-29T08:47:36Z</time>
      </trkpt>
      <trkpt lat="43.55673" lon="1.15836">
        <ele>249.7</ele>
        <time>2020-11-29T08:47:37Z</time>
      </trkpt>
      <trkpt lat="43.55673" lon="1.15834">
        <ele>249.9</ele>
        <time>2020-11-29T08:47:38Z</time>
      </trkpt>
      <trkpt lat="43.55672" lon="1.15829">
        <ele>250.3</ele>
        <time>2020-11-29T08:47:39Z</time>
      </trkpt>
      <trkpt lat="43.55673" lon="1.15826">
        <ele>250.6</ele>
        <time>2020-11-29T08:47:40Z</time>
      </trkpt>
      <trkpt lat="43.55673" lon="1.15822">
        <ele>250.9</ele>
        <time>2020-11-29T08:47:41Z</time>
      </trkpt>
      <trkpt lat="43.55675" lon="1.15817">
        <ele>251.3</ele>
        <time>2020-11-29T08:47:42Z</time>
      </trkpt>
      <trkpt lat="43.55675" lon="1.15816">
        <ele>251.4</ele>
        <time>2020-11-29T08:47:43Z</time>
      </trkpt>
      <trkpt lat="43.55677" lon="1.15813">
        <ele>251.7</ele>
        <time>2020-11-29T08:47:44Z</time>
      </trkpt>
      <trkpt lat="43.55678" lon="1.15812">
        <ele>251.8</ele>
        <time>2020-11-29T08:47:45Z</time>
      </trkpt>
      <trkpt lat="43.5568" lon="1.15809">
        <ele>252.1</ele>
        <time>2020-11-29T08:47:46Z</time>
      </trkpt>
      <trkpt lat="43.55681" lon="1.15808">
        <ele>252.2</ele>
        <time>2020-11-29T08:47:47Z</time>
      </trkpt>
      <trkpt lat="43.55684" lon="1.15805">
        <ele>252.4</ele>
        <time>2020-11-29T08:47:48Z</time>
      </trkpt>
      <trkpt lat="43.55685" lon="1.15804">
        <ele>252.5</ele>
        <time>2020-11-29T08:47:49Z</time>
      </trkpt>
      <trkpt lat="43.55686" lon="1.15801">
        <ele>252.8</ele>
        <time>2020-11-29T08:47:50Z</time>
      </trkpt>
      <trkpt lat="43.55688" lon="1.15797">
        <ele>253</ele>
        <time>2020-11-29T08:47:51Z</time>
      </trkpt>
      <trkpt lat="43.5569" lon="1.15793">
        <ele>253.3</ele>
        <time>2020-11-29T08:47:52Z</time>
      </trkpt>
      <trkpt lat="43.55691" lon="1.15792">
        <ele>253.4</ele>
        <time>2020-11-29T08:47:53Z</time>
      </trkpt>
      <trkpt lat="43.55693" lon="1.15789">
        <ele>253.6</ele>
        <time>2020-11-29T08:47:54Z</time>
      </trkpt>
      <trkpt lat="43.55695" lon="1.15785">
        <ele>253.9</ele>
        <time>2020-11-29T08:47:55Z</time>
      </trkpt>
      <trkpt lat="43.55696" lon="1.15782">
        <ele>254.1</ele>
        <time>2020-11-29T08:47:56Z</time>
      </trkpt>
      <trkpt lat="43.55698" lon="1.15778">
        <ele>254.4</ele>
        <time>2020-11-29T08:47:57Z</time>
      </trkpt>
      <trkpt lat="43.557" lon="1.15774">
        <ele>254.6</ele>
        <time>2020-11-29T08:47:58Z</time>
      </trkpt>
      <trkpt lat="43.55701" lon="1.1577">
        <ele>254.8</ele>
        <time>2020-11-29T08:47:59Z</time>
      </trkpt>
      <trkpt lat="43.55703" lon="1.15766">
        <ele>255.1</ele>
        <time>2020-11-29T08:48:00Z</time>
      </trkpt>
      <trkpt lat="43.55705" lon="1.15761">
        <ele>255.4</ele>
        <time>2020-11-29T08:48:01Z</time>
      </trkpt>
      <trkpt lat="43.55707" lon="1.15759">
        <ele>255.5</ele>
        <time>2020-11-29T08:48:02Z</time>
      </trkpt>
      <trkpt lat="43.55709" lon="1.15756">
        <ele>255.8</ele>
        <time>2020-11-29T08:48:03Z</time>
      </trkpt>
      <trkpt lat="43.55712" lon="1.15752">
        <ele>256</ele>
        <time>2020-11-29T08:48:04Z</time>
      </trkpt>
      <trkpt lat="43.55713" lon="1.1575">
        <ele>256.1</ele>
        <time>2020-11-29T08:48:05Z</time>
      </trkpt>
      <trkpt lat="43.55716" lon="1.15747">
        <ele>256.3</ele>
        <time>2020-11-29T08:48:06Z</time>
      </trkpt>
      <trkpt lat="43.55717" lon="1.15746">
        <ele>256.4</ele>
        <time>2020-11-29T08:48:07Z</time>
      </trkpt>
      <trkpt lat="43.55718" lon="1.15741">
        <ele>256.6</ele>
        <time>2020-11-29T08:48:08Z</time>
      </trkpt>
      <trkpt lat="43.55718" lon="1.1574">
        <ele>256.7</ele>
        <time>2020-11-29T08:48:09Z</time>
      </trkpt>
      <trkpt lat="43.55718" lon="1.15735">
        <ele>256.9</ele>
        <time>2020-11-29T08:48:10Z</time>
      </trkpt>
      <trkpt lat="43.55718" lon="1.15733">
        <ele>257</ele>
        <time>2020-11-29T08:48:11Z</time>
      </trkpt>
      <trkpt lat="43.55719" lon="1.15728">
        <ele>257.2</ele>
        <time>2020-11-29T08:48:12Z</time>
      </trkpt>
      <trkpt lat="43.55719" lon="1.15726">
        <ele>257.3</ele>
        <time>2020-11-29T08:48:13Z</time>
      </trkpt>
      <trkpt lat="43.55719" lon="1.1572">
        <ele>257.6</ele>
        <time>2020-11-29T08:48:14Z</time>
      </trkpt>
      <trkpt lat="43.55719" lon="1.15718">
        <ele>257.7</ele>
        <time>2020-11-29T08:48:15Z</time>
      </trkpt>
      <trkpt lat="43.55719" lon="1.15714">
        <ele>258</ele>
        <time>2020-11-29T08:48:16Z</time>
      </trkpt>
      <trkpt lat="43.55717" lon="1.15708">
        <ele>258.4</ele>
        <time>2020-11-29T08:48:17Z</time>
      </trkpt>
      <trkpt lat="43.55717" lon="1.15706">
        <ele>258.6</ele>
        <time>2020-11-29T08:48:18Z</time>
      </trkpt>
      <trkpt lat="43.55716" lon="1.15702">
        <ele>259</ele>
        <time>2020-11-29T08:48:19Z</time>
      </trkpt>
      <trkpt lat="43.55716" lon="1.15697">
        <ele>259.4</ele>
        <time>2020-11-29T08:48:20Z</time>
      </trkpt>
      <trkpt lat="43.55716" lon="1.15695">
        <ele>259.6</ele>
        <time>2020-11-29T08:48:21Z</time>
      </trkpt>
      <trkpt lat="43.55715" lon="1.15691">
        <ele>259.9</ele>
        <time>2020-11-29T08:48:22Z</time>
      </trkpt>
      <trkpt lat="43.55714" lon="1.15686">
        <ele>260.4</ele>
        <time>2020-11-29T08:48:23Z</time>
      </trkpt>
      <trkpt lat="43.55714" lon="1.15685">
        <ele>260.6</ele>
        <time>2020-11-29T08:48:24Z</time>
      </trkpt>
      <trkpt lat="43.55712" lon="1.15681">
        <ele>261</ele>
        <time>2020-11-29T08:48:25Z</time>
      </trkpt>
      <trkpt lat="43.55711" lon="1.1568">
        <ele>261.1</ele>
        <time>2020-11-29T08:48:26Z</time>
      </trkpt>
      <trkpt lat="43.55709" lon="1.15677">
        <ele>261.4</ele>
        <time>2020-11-29T08:48:27Z</time>
      </trkpt>
      <trkpt lat="43.55707" lon="1.15674">
        <ele>261.7</ele>
        <time>2020-11-29T08:48:28Z</time>
      </trkpt>
      <trkpt lat="43.55706" lon="1.15668">
        <ele>262.1</ele>
        <time>2020-11-29T08:48:29Z</time>
      </trkpt>
      <trkpt lat="43.55706" lon="1.15667">
        <ele>262.2</ele>
        <time>2020-11-29T08:48:30Z</time>
      </trkpt>
      <trkpt lat="43.55703" lon="1.15664">
        <ele>262.5</ele>
        <time>2020-11-29T08:48:31Z</time>
      </trkpt>
      <trkpt lat="43.55702" lon="1.15663">
        <ele>262.6</ele>
        <time>2020-11-29T08:48:32Z</time>
      </trkpt>
      <trkpt lat="43.557" lon="1.15659">
        <ele>262.8</ele>
        <time>2020-11-29T08:48:33Z</time>
      </trkpt>
      <trkpt lat="43.55699" lon="1.15654">
        <ele>263.1</ele>
        <time>2020-11-29T08:48:34Z</time>
      </trkpt>
      <trkpt lat="43.55698" lon="1.15652">
        <ele>263.1</ele>
        <time>2020-11-29T08:48:35Z</time>
      </trkpt>
      <trkpt lat="43.55697" lon="1.15648">
        <ele>263.3</ele>
        <time>2020-11-29T08:48:36Z</time>
      </trkpt>
      <trkpt lat="43.55696" lon="1.15647">
        <ele>263.3</ele>
        <time>2020-11-29T08:48:37Z</time>
      </trkpt>
      <trkpt lat="43.55695" lon="1.15643">
        <ele>263.5</ele>
        <time>2020-11-29T08:48:38Z</time>
      </trkpt>
      <trkpt lat="43.55695" lon="1.15642">
        <ele>263.5</ele>
        <time>2020-11-29T08:48:39Z</time>
      </trkpt>
      <trkpt lat="43.55695" lon="1.1564">
        <ele>263.6</ele>
        <time>2020-11-29T08:48:40Z</time>
      </trkpt>
      <trkpt lat="43.55696" lon="1.15638">
        <ele>263.7</ele>
        <time>2020-11-29T08:48:41Z</time>
      </trkpt>
      <trkpt lat="43.55699" lon="1.15635">
        <ele>263.8</ele>
        <time>2020-11-29T08:48:42Z</time>
      </trkpt>
      <trkpt lat="43.55699" lon="1.15634">
        <ele>263.9</ele>
        <time>2020-11-29T08:48:43Z</time>
      </trkpt>
      <trkpt lat="43.55701" lon="1.1563">
        <ele>264</ele>
        <time>2020-11-29T08:48:44Z</time>
      </trkpt>
      <trkpt lat="43.55701" lon="1.15629">
        <ele>264.1</ele>
        <time>2020-11-29T08:48:45Z</time>
      </trkpt>
      <trkpt lat="43.55703" lon="1.15625">
        <ele>264.3</ele>
        <time>2020-11-29T08:48:46Z</time>
      </trkpt>
      <trkpt lat="43.55703" lon="1.15623">
        <ele>264.4</ele>
        <time>2020-11-29T08:48:47Z</time>
      </trkpt>
      <trkpt lat="43.55705" lon="1.15619">
        <ele>264.6</ele>
        <time>2020-11-29T08:48:48Z</time>
      </trkpt>
      <trkpt lat="43.55706" lon="1.15618">
        <ele>264.7</ele>
        <time>2020-11-29T08:48:49Z</time>
      </trkpt>
      <trkpt lat="43.55708" lon="1.15613">
        <ele>265.1</ele>
        <time>2020-11-29T08:48:50Z</time>
      </trkpt>
      <trkpt lat="43.55709" lon="1.15612">
        <ele>265.2</ele>
        <time>2020-11-29T08:48:51Z</time>
      </trkpt>
      <trkpt lat="43.5571" lon="1.15608">
        <ele>265.5</ele>
        <time>2020-11-29T08:48:52Z</time>
      </trkpt>
      <trkpt lat="43.55712" lon="1.15603">
        <ele>265.9</ele>
        <time>2020-11-29T08:48:53Z</time>
      </trkpt>
      <trkpt lat="43.55712" lon="1.15602">
        <ele>266.1</ele>
        <time>2020-11-29T08:48:54Z</time>
      </trkpt>
      <trkpt lat="43.55714" lon="1.15597">
        <ele>266.5</ele>
        <time>2020-11-29T08:48:55Z</time>
      </trkpt>
      <trkpt lat="43.55715" lon="1.15596">
        <ele>266.6</ele>
        <time>2020-11-29T08:48:56Z</time>
      </trkpt>
      <trkpt lat="43.55716" lon="1.15592">
        <ele>267.1</ele>
        <time>2020-11-29T08:48:57Z</time>
      </trkpt>
      <trkpt lat="43.55717" lon="1.1559">
        <ele>267.2</ele>
        <time>2020-11-29T08:48:58Z</time>
      </trkpt>
      <trkpt lat="43.55719" lon="1.15586">
        <ele>267.7</ele>
        <time>2020-11-29T08:48:59Z</time>
      </trkpt>
      <trkpt lat="43.5572" lon="1.15585">
        <ele>267.8</ele>
        <time>2020-11-29T08:49:00Z</time>
      </trkpt>
      <trkpt lat="43.55721" lon="1.1558">
        <ele>268.3</ele>
        <time>2020-11-29T08:49:01Z</time>
      </trkpt>
      <trkpt lat="43.55722" lon="1.15579">
        <ele>268.4</ele>
        <time>2020-11-29T08:49:02Z</time>
      </trkpt>
      <trkpt lat="43.55723" lon="1.15575">
        <ele>268.8</ele>
        <time>2020-11-29T08:49:03Z</time>
      </trkpt>
      <trkpt lat="43.55723" lon="1.15573">
        <ele>268.9</ele>
        <time>2020-11-29T08:49:04Z</time>
      </trkpt>
      <trkpt lat="43.55724" lon="1.15569">
        <ele>269.3</ele>
        <time>2020-11-29T08:49:05Z</time>
      </trkpt>
      <trkpt lat="43.55725" lon="1.15568">
        <ele>269.5</ele>
        <time>2020-11-29T08:49:06Z</time>
      </trkpt>
      <trkpt lat="43.55726" lon="1.15563">
        <ele>269.9</ele>
        <time>2020-11-29T08:49:07Z</time>
      </trkpt>
      <trkpt lat="43.55727" lon="1.15562">
        <ele>270</ele>
        <time>2020-11-29T08:49:08Z</time>
      </trkpt>
      <trkpt lat="43.55728" lon="1.15556">
        <ele>270.5</ele>
        <time>2020-11-29T08:49:09Z</time>
      </trkpt>
      <trkpt lat="43.55729" lon="1.15555">
        <ele>270.7</ele>
        <time>2020-11-29T08:49:10Z</time>
      </trkpt>
      <trkpt lat="43.55731" lon="1.1555">
        <ele>271.1</ele>
        <time>2020-11-29T08:49:11Z</time>
      </trkpt>
      <trkpt lat="43.55731" lon="1.15548">
        <ele>271.3</ele>
        <time>2020-11-29T08:49:12Z</time>
      </trkpt>
      <trkpt lat="43.55733" lon="1.15543">
        <ele>271.7</ele>
        <time>2020-11-29T08:49:13Z</time>
      </trkpt>
      <trkpt lat="43.55733" lon="1.15542">
        <ele>271.9</ele>
        <time>2020-11-29T08:49:14Z</time>
      </trkpt>
      <trkpt lat="43.55735" lon="1.15538">
        <ele>272.3</ele>
        <time>2020-11-29T08:49:15Z</time>
      </trkpt>
      <trkpt lat="43.55736" lon="1.15536">
        <ele>272.4</ele>
        <time>2020-11-29T08:49:16Z</time>
      </trkpt>
      <trkpt lat="43.55738" lon="1.15532">
        <ele>272.8</ele>
        <time>2020-11-29T08:49:17Z</time>
      </trkpt>
      <trkpt lat="43.55739" lon="1.15531">
        <ele>272.9</ele>
        <time>2020-11-29T08:49:18Z</time>
      </trkpt>
      <trkpt lat="43.5574" lon="1.15528">
        <ele>273.2</ele>
        <time>2020-11-29T08:49:19Z</time>
      </trkpt>
      <trkpt lat="43.5574" lon="1.15526">
        <ele>273.4</ele>
        <time>2020-11-29T08:49:20Z</time>
      </trkpt>
      <trkpt lat="43.55742" lon="1.15524">
        <ele>273.6</ele>
        <time>2020-11-29T08:49:21Z</time>
      </trkpt>
      <trkpt lat="43.55743" lon="1.15521">
        <ele>273.9</ele>
        <time>2020-11-29T08:49:22Z</time>
      </trkpt>
      <trkpt lat="43.55745" lon="1.15516">
        <ele>274.3</ele>
        <time>2020-11-29T08:49:23Z</time>
      </trkpt>
      <trkpt lat="43.55746" lon="1.15515">
        <ele>274.4</ele>
        <time>2020-11-29T08:49:24Z</time>
      </trkpt>
      <trkpt lat="43.55747" lon="1.15512">
        <ele>274.7</ele>
        <time>2020-11-29T08:49:25Z</time>
      </trkpt>
      <trkpt lat="43.55748" lon="1.15511">
        <ele>274.8</ele>
        <time>2020-11-29T08:49:26Z</time>
      </trkpt>
      <trkpt lat="43.55749" lon="1.15507">
        <ele>275.1</ele>
        <time>2020-11-29T08:49:27Z</time>
      </trkpt>
      <trkpt lat="43.5575" lon="1.15505">
        <ele>275.2</ele>
        <time>2020-11-29T08:49:28Z</time>
      </trkpt>
      <trkpt lat="43.55752" lon="1.15502">
        <ele>275.5</ele>
        <time>2020-11-29T08:49:29Z</time>
      </trkpt>
      <trkpt lat="43.55752" lon="1.155">
        <ele>275.6</ele>
        <time>2020-11-29T08:49:30Z</time>
      </trkpt>
      <trkpt lat="43.55753" lon="1.15496">
        <ele>275.9</ele>
        <time>2020-11-29T08:49:31Z</time>
      </trkpt>
      <trkpt lat="43.55753" lon="1.15491">
        <ele>276.2</ele>
        <time>2020-11-29T08:49:32Z</time>
      </trkpt>
      <trkpt lat="43.55754" lon="1.15487">
        <ele>276.4</ele>
        <time>2020-11-29T08:49:33Z</time>
      </trkpt>
      <trkpt lat="43.55755" lon="1.15484">
        <ele>276.7</ele>
        <time>2020-11-29T08:49:34Z</time>
      </trkpt>
      <trkpt lat="43.55756" lon="1.1548">
        <ele>276.9</ele>
        <time>2020-11-29T08:49:35Z</time>
      </trkpt>
      <trkpt lat="43.55758" lon="1.15475">
        <ele>277.2</ele>
        <time>2020-11-29T08:49:36Z</time>
      </trkpt>
      <trkpt lat="43.55758" lon="1.15474">
        <ele>277.3</ele>
        <time>2020-11-29T08:49:37Z</time>
      </trkpt>
      <trkpt lat="43.5576" lon="1.15469">
        <ele>277.6</ele>
        <time>2020-11-29T08:49:38Z</time>
      </trkpt>
      <trkpt lat="43.5576" lon="1.15466">
        <ele>277.7</ele>
        <time>2020-11-29T08:49:39Z</time>
      </trkpt>
      <trkpt lat="43.55761" lon="1.15463">
        <ele>278</ele>
        <time>2020-11-29T08:49:40Z</time>
      </trkpt>
      <trkpt lat="43.55762" lon="1.15459">
        <ele>278.2</ele>
        <time>2020-11-29T08:49:41Z</time>
      </trkpt>
      <trkpt lat="43.55762" lon="1.15457">
        <ele>278.3</ele>
        <time>2020-11-29T08:49:42Z</time>
      </trkpt>
      <trkpt lat="43.55763" lon="1.15456">
        <ele>278.3</ele>
        <time>2020-11-29T08:49:43Z</time>
      </trkpt>
      <trkpt lat="43.55763" lon="1.15452">
        <ele>278.5</ele>
        <time>2020-11-29T08:49:44Z</time>
      </trkpt>
      <trkpt lat="43.55763" lon="1.15448">
        <ele>278.7</ele>
        <time>2020-11-29T08:49:45Z</time>
      </trkpt>
      <trkpt lat="43.55763" lon="1.15447">
        <ele>278.8</ele>
        <time>2020-11-29T08:49:46Z</time>
      </trkpt>
      <trkpt lat="43.55764" lon="1.15442">
        <ele>279</ele>
        <time>2020-11-29T08:49:47Z</time>
      </trkpt>
      <trkpt lat="43.55764" lon="1.1544">
        <ele>279.1</ele>
        <time>2020-11-29T08:49:48Z</time>
      </trkpt>
      <trkpt lat="43.55765" lon="1.15438">
        <ele>279.2</ele>
        <time>2020-11-29T08:49:49Z</time>
      </trkpt>
      <trkpt lat="43.55765" lon="1.15437">
        <ele>279.2</ele>
        <time>2020-11-29T08:49:50Z</time>
      </trkpt>
      <trkpt lat="43.55765" lon="1.15436">
        <ele>279.3</ele>
        <time>2020-11-29T08:49:51Z</time>
      </trkpt>
      <trkpt lat="43.55765" lon="1.15435">
        <ele>279.3</ele>
        <time>2020-11-29T08:49:52Z</time>
      </trkpt>
      <trkpt lat="43.55765" lon="1.15431">
        <ele>279.5</ele>
        <time>2020-11-29T08:49:53Z</time>
      </trkpt>
      <trkpt lat="43.55765" lon="1.1543">
        <ele>279.5</ele>
        <time>2020-11-29T08:49:54Z</time>
      </trkpt>
      <trkpt lat="43.55765" lon="1.15428">
        <ele>279.5</ele>
        <time>2020-11-29T08:49:55Z</time>
      </trkpt>
      <trkpt lat="43.55766" lon="1.15427">
        <ele>279.5</ele>
        <time>2020-11-29T08:49:56Z</time>
      </trkpt>
      <trkpt lat="43.55767" lon="1.15426">
        <ele>279.4</ele>
        <time>2020-11-29T08:49:57Z</time>
      </trkpt>
      <trkpt lat="43.55768" lon="1.15427">
        <ele>279.4</ele>
        <time>2020-11-29T08:49:58Z</time>
      </trkpt>
      <trkpt lat="43.55767" lon="1.15427">
        <ele>279.4</ele>
        <time>2020-11-29T08:49:59Z</time>
      </trkpt>
      <trkpt lat="43.55767" lon="1.15427">
        <ele>279.4</ele>
        <time>2020-11-29T08:50:00Z</time>
      </trkpt>
      <trkpt lat="43.55767" lon="1.15428">
        <ele>279.3</ele>
        <time>2020-11-29T08:50:01Z</time>
      </trkpt>
      <trkpt lat="43.55768" lon="1.15429">
        <ele>279.3</ele>
        <time>2020-11-29T08:50:02Z</time>
      </trkpt>
      <trkpt lat="43.55768" lon="1.15428">
        <ele>279.2</ele>
        <time>2020-11-29T08:50:03Z</time>
      </trkpt>
      <trkpt lat="43.55768" lon="1.15428">
        <ele>279.2</ele>
        <time>2020-11-29T08:50:04Z</time>
      </trkpt>
      <trkpt lat="43.55767" lon="1.15428">
        <ele>279.2</ele>
        <time>2020-11-29T08:50:05Z</time>
      </trkpt>
      <trkpt lat="43.55766" lon="1.1543">
        <ele>279.1</ele>
        <time>2020-11-29T08:50:06Z</time>
      </trkpt>
      <trkpt lat="43.55765" lon="1.15432">
        <ele>279</ele>
        <time>2020-11-29T08:50:07Z</time>
      </trkpt>
      <trkpt lat="43.55764" lon="1.15431">
        <ele>279</ele>
        <time>2020-11-29T08:50:08Z</time>
      </trkpt>
      <trkpt lat="43.55764" lon="1.15431">
        <ele>278.9</ele>
        <time>2020-11-29T08:50:09Z</time>
      </trkpt>
      <trkpt lat="43.55764" lon="1.15431">
        <ele>278.9</ele>
        <time>2020-11-29T08:50:10Z</time>
      </trkpt>
      <trkpt lat="43.55765" lon="1.15431">
        <ele>278.9</ele>
        <time>2020-11-29T08:50:11Z</time>
      </trkpt>
      <trkpt lat="43.55765" lon="1.15431">
        <ele>278.9</ele>
        <time>2020-11-29T08:50:12Z</time>
      </trkpt>
      <trkpt lat="43.55765" lon="1.15431">
        <ele>278.9</ele>
        <time>2020-11-29T08:50:13Z</time>
      </trkpt>
      <trkpt lat="43.55765" lon="1.15431">
        <ele>278.8</ele>
        <time>2020-11-29T08:50:14Z</time>
      </trkpt>
      <trkpt lat="43.55764" lon="1.15429">
        <ele>278.8</ele>
        <time>2020-11-29T08:50:15Z</time>
      </trkpt>
      <trkpt lat="43.55764" lon="1.15429">
        <ele>278.7</ele>
        <time>2020-11-29T08:50:16Z</time>
      </trkpt>
      <trkpt lat="43.55764" lon="1.15429">
        <ele>278.7</ele>
        <time>2020-11-29T08:50:17Z</time>
      </trkpt>
      <trkpt lat="43.55763" lon="1.1543">
        <ele>278.7</ele>
        <time>2020-11-29T08:50:18Z</time>
      </trkpt>
      <trkpt lat="43.55763" lon="1.15429">
        <ele>278.7</ele>
        <time>2020-11-29T08:50:19Z</time>
      </trkpt>
      <trkpt lat="43.55763" lon="1.15429">
        <ele>278.7</ele>
        <time>2020-11-29T08:50:20Z</time>
      </trkpt>
      <trkpt lat="43.55763" lon="1.15429">
        <ele>278.7</ele>
        <time>2020-11-29T08:50:21Z</time>
      </trkpt>
      <trkpt lat="43.55763" lon="1.15429">
        <ele>278.7</ele>
        <time>2020-11-29T08:50:22Z</time>
      </trkpt>
      <trkpt lat="43.55763" lon="1.15429">
        <ele>278.7</ele>
        <time>2020-11-29T08:50:23Z</time>
      </trkpt>
      <trkpt lat="43.55763" lon="1.15429">
        <ele>278.6</ele>
        <time>2020-11-29T08:50:24Z</time>
      </trkpt>
      <trkpt lat="43.55763" lon="1.15429">
        <ele>278.6</ele>
        <time>2020-11-29T08:50:25Z</time>
      </trkpt>
      <trkpt lat="43.55763" lon="1.15429">
        <ele>278.6</ele>
        <time>2020-11-29T08:50:26Z</time>
      </trkpt>
      <trkpt lat="43.55763" lon="1.15429">
        <ele>278.6</ele>
        <time>2020-11-29T08:50:27Z</time>
      </trkpt>
      <trkpt lat="43.55763" lon="1.15429">
        <ele>278.6</ele>
        <time>2020-11-29T08:50:28Z</time>
      </trkpt>
      <trkpt lat="43.55763" lon="1.15429">
        <ele>278.6</ele>
        <time>2020-11-29T08:50:29Z</time>
      </trkpt>
      <trkpt lat="43.55762" lon="1.15429">
        <ele>278.6</ele>
        <time>2020-11-29T08:50:30Z</time>
      </trkpt>
      <trkpt lat="43.55763" lon="1.15429">
        <ele>278.6</ele>
        <time>2020-11-29T08:50:31Z</time>
      </trkpt>
      <trkpt lat="43.55763" lon="1.15429">
        <ele>278.6</ele>
        <time>2020-11-29T08:50:32Z</time>
      </trkpt>
      <trkpt lat="43.55763" lon="1.15429">
        <ele>278.6</ele>
        <time>2020-11-29T08:50:33Z</time>
      </trkpt>
      <trkpt lat="43.55763" lon="1.15429">
        <ele>278.6</ele>
        <time>2020-11-29T08:50:34Z</time>
      </trkpt>
      <trkpt lat="43.55763" lon="1.15428">
        <ele>278.6</ele>
        <time>2020-11-29T08:50:35Z</time>
      </trkpt>
      <trkpt lat="43.55763" lon="1.15428">
        <ele>278.6</ele>
        <time>2020-11-29T08:50:36Z</time>
      </trkpt>
      <trkpt lat="43.55763" lon="1.15428">
        <ele>278.6</ele>
        <time>2020-11-29T08:50:37Z</time>
      </trkpt>
      <trkpt lat="43.55763" lon="1.15429">
        <ele>278.6</ele>
        <time>2020-11-29T08:50:38Z</time>
      </trkpt>
      <trkpt lat="43.55763" lon="1.15429">
        <ele>278.5</ele>
        <time>2020-11-29T08:50:39Z</time>
      </trkpt>
      <trkpt lat="43.55763" lon="1.15429">
        <ele>278.5</ele>
        <time>2020-11-29T08:50:40Z</time>
      </trkpt>
      <trkpt lat="43.55763" lon="1.15428">
        <ele>278.4</ele>
        <time>2020-11-29T08:50:41Z</time>
      </trkpt>
      <trkpt lat="43.55764" lon="1.15427">
        <ele>278.4</ele>
        <time>2020-11-29T08:50:42Z</time>
      </trkpt>
      <trkpt lat="43.55764" lon="1.15427">
        <ele>278.3</ele>
        <time>2020-11-29T08:50:43Z</time>
      </trkpt>
      <trkpt lat="43.55764" lon="1.15427">
        <ele>278.3</ele>
        <time>2020-11-29T08:50:44Z</time>
      </trkpt>
      <trkpt lat="43.55764" lon="1.15426">
        <ele>278.3</ele>
        <time>2020-11-29T08:50:45Z</time>
      </trkpt>
      <trkpt lat="43.55764" lon="1.15426">
        <ele>278.3</ele>
        <time>2020-11-29T08:50:46Z</time>
      </trkpt>
      <trkpt lat="43.55764" lon="1.15426">
        <ele>278.2</ele>
        <time>2020-11-29T08:50:47Z</time>
      </trkpt>
      <trkpt lat="43.55764" lon="1.15426">
        <ele>278.2</ele>
        <time>2020-11-29T08:50:48Z</time>
      </trkpt>
      <trkpt lat="43.55764" lon="1.15426">
        <ele>278.2</ele>
        <time>2020-11-29T08:50:49Z</time>
      </trkpt>
      <trkpt lat="43.55764" lon="1.15426">
        <ele>278.2</ele>
        <time>2020-11-29T08:50:50Z</time>
      </trkpt>
      <trkpt lat="43.55764" lon="1.15426">
        <ele>278.2</ele>
        <time>2020-11-29T08:50:51Z</time>
      </trkpt>
      <trkpt lat="43.55764" lon="1.15425">
        <ele>278.1</ele>
        <time>2020-11-29T08:50:52Z</time>
      </trkpt>
      <trkpt lat="43.55765" lon="1.15426">
        <ele>278</ele>
        <time>2020-11-29T08:50:53Z</time>
      </trkpt>
      <trkpt lat="43.55764" lon="1.15425">
        <ele>278</ele>
        <time>2020-11-29T08:50:54Z</time>
      </trkpt>
      <trkpt lat="43.55764" lon="1.15425">
        <ele>278</ele>
        <time>2020-11-29T08:50:55Z</time>
      </trkpt>
      <trkpt lat="43.55764" lon="1.15424">
        <ele>277.9</ele>
        <time>2020-11-29T08:50:56Z</time>
      </trkpt>
      <trkpt lat="43.55765" lon="1.15424">
        <ele>277.9</ele>
        <time>2020-11-29T08:50:57Z</time>
      </trkpt>
      <trkpt lat="43.55764" lon="1.15423">
        <ele>277.8</ele>
        <time>2020-11-29T08:50:58Z</time>
      </trkpt>
      <trkpt lat="43.55764" lon="1.15423">
        <ele>277.8</ele>
        <time>2020-11-29T08:50:59Z</time>
      </trkpt>
      <trkpt lat="43.55764" lon="1.15423">
        <ele>277.8</ele>
        <time>2020-11-29T08:51:00Z</time>
      </trkpt>
      <trkpt lat="43.55764" lon="1.15423">
        <ele>277.8</ele>
        <time>2020-11-29T08:51:01Z</time>
      </trkpt>
      <trkpt lat="43.55764" lon="1.15423">
        <ele>277.8</ele>
        <time>2020-11-29T08:51:02Z</time>
      </trkpt>
      <trkpt lat="43.55764" lon="1.15423">
        <ele>277.8</ele>
        <time>2020-11-29T08:51:03Z</time>
      </trkpt>
      <trkpt lat="43.55764" lon="1.15423">
        <ele>277.7</ele>
        <time>2020-11-29T08:51:04Z</time>
      </trkpt>
      <trkpt lat="43.55764" lon="1.15423">
        <ele>277.7</ele>
        <time>2020-11-29T08:51:05Z</time>
      </trkpt>
      <trkpt lat="43.55764" lon="1.15423">
        <ele>277.7</ele>
        <time>2020-11-29T08:51:06Z</time>
      </trkpt>
      <trkpt lat="43.55764" lon="1.15423">
        <ele>277.7</ele>
        <time>2020-11-29T08:51:07Z</time>
      </trkpt>
      <trkpt lat="43.55764" lon="1.15423">
        <ele>277.7</ele>
        <time>2020-11-29T08:51:08Z</time>
      </trkpt>
      <trkpt lat="43.55764" lon="1.15423">
        <ele>277.7</ele>
        <time>2020-11-29T08:51:09Z</time>
      </trkpt>
      <trkpt lat="43.55764" lon="1.15423">
        <ele>277.7</ele>
        <time>2020-11-29T08:51:10Z</time>
      </trkpt>
      <trkpt lat="43.55764" lon="1.15423">
        <ele>277.7</ele>
        <time>2020-11-29T08:51:11Z</time>
      </trkpt>
      <trkpt lat="43.55764" lon="1.15423">
        <ele>277.7</ele>
        <time>2020-11-29T08:51:12Z</time>
      </trkpt>
      <trkpt lat="43.55764" lon="1.15423">
        <ele>277.6</ele>
        <time>2020-11-29T08:51:13Z</time>
      </trkpt>
      <trkpt lat="43.55764" lon="1.15423">
        <ele>277.6</ele>
        <time>2020-11-29T08:51:14Z</time>
      </trkpt>
      <trkpt lat="43.55764" lon="1.15423">
        <ele>277.6</ele>
        <time>2020-11-29T08:51:15Z</time>
      </trkpt>
      <trkpt lat="43.55764" lon="1.15424">
        <ele>277.5</ele>
        <time>2020-11-29T08:51:16Z</time>
      </trkpt>
      <trkpt lat="43.55765" lon="1.15426">
        <ele>277.3</ele>
        <time>2020-11-29T08:51:17Z</time>
      </trkpt>
      <trkpt lat="43.55765" lon="1.15424">
        <ele>277.2</ele>
        <time>2020-11-29T08:51:18Z</time>
      </trkpt>
      <trkpt lat="43.55766" lon="1.15423">
        <ele>277.1</ele>
        <time>2020-11-29T08:51:19Z</time>
      </trkpt>
      <trkpt lat="43.55765" lon="1.15423">
        <ele>277</ele>
        <time>2020-11-29T08:51:20Z</time>
      </trkpt>
      <trkpt lat="43.55766" lon="1.15423">
        <ele>277</ele>
        <time>2020-11-29T08:51:21Z</time>
      </trkpt>
      <trkpt lat="43.55766" lon="1.15423">
        <ele>277</ele>
        <time>2020-11-29T08:51:22Z</time>
      </trkpt>
      <trkpt lat="43.55765" lon="1.15423">
        <ele>276.9</ele>
        <time>2020-11-29T08:51:23Z</time>
      </trkpt>
      <trkpt lat="43.55765" lon="1.15423">
        <ele>276.9</ele>
        <time>2020-11-29T08:51:24Z</time>
      </trkpt>
      <trkpt lat="43.55765" lon="1.15423">
        <ele>276.9</ele>
        <time>2020-11-29T08:51:25Z</time>
      </trkpt>
      <trkpt lat="43.55765" lon="1.15423">
        <ele>276.9</ele>
        <time>2020-11-29T08:51:26Z</time>
      </trkpt>
      <trkpt lat="43.55765" lon="1.15423">
        <ele>276.9</ele>
        <time>2020-11-29T08:51:27Z</time>
      </trkpt>
      <trkpt lat="43.55765" lon="1.15423">
        <ele>276.8</ele>
        <time>2020-11-29T08:51:28Z</time>
      </trkpt>
      <trkpt lat="43.55765" lon="1.15425">
        <ele>276.6</ele>
        <time>2020-11-29T08:51:29Z</time>
      </trkpt>
      <trkpt lat="43.55765" lon="1.15425">
        <ele>276.6</ele>
        <time>2020-11-29T08:51:30Z</time>
      </trkpt>
      <trkpt lat="43.55763" lon="1.15426">
        <ele>276.5</ele>
        <time>2020-11-29T08:51:31Z</time>
      </trkpt>
      <trkpt lat="43.55763" lon="1.15426">
        <ele>276.5</ele>
        <time>2020-11-29T08:51:32Z</time>
      </trkpt>
      <trkpt lat="43.55763" lon="1.15426">
        <ele>276.5</ele>
        <time>2020-11-29T08:51:33Z</time>
      </trkpt>
      <trkpt lat="43.55763" lon="1.15425">
        <ele>276.4</ele>
        <time>2020-11-29T08:51:34Z</time>
      </trkpt>
      <trkpt lat="43.55763" lon="1.15423">
        <ele>276.2</ele>
        <time>2020-11-29T08:51:35Z</time>
      </trkpt>
      <trkpt lat="43.55762" lon="1.15422">
        <ele>276</ele>
        <time>2020-11-29T08:51:36Z</time>
      </trkpt>
      <trkpt lat="43.55761" lon="1.15417">
        <ele>275.7</ele>
        <time>2020-11-29T08:51:37Z</time>
      </trkpt>
      <trkpt lat="43.5576" lon="1.15416">
        <ele>275.5</ele>
        <time>2020-11-29T08:51:38Z</time>
      </trkpt>
      <trkpt lat="43.55758" lon="1.15413">
        <ele>275.2</ele>
        <time>2020-11-29T08:51:39Z</time>
      </trkpt>
      <trkpt lat="43.55756" lon="1.1541">
        <ele>274.8</ele>
        <time>2020-11-29T08:51:40Z</time>
      </trkpt>
      <trkpt lat="43.55755" lon="1.15408">
        <ele>274.6</ele>
        <time>2020-11-29T08:51:41Z</time>
      </trkpt>
      <trkpt lat="43.55752" lon="1.15407">
        <ele>274.3</ele>
        <time>2020-11-29T08:51:42Z</time>
      </trkpt>
      <trkpt lat="43.55748" lon="1.15406">
        <ele>273.9</ele>
        <time>2020-11-29T08:51:43Z</time>
      </trkpt>
      <trkpt lat="43.55745" lon="1.15404">
        <ele>273.4</ele>
        <time>2020-11-29T08:51:44Z</time>
      </trkpt>
      <trkpt lat="43.55742" lon="1.154">
        <ele>272.9</ele>
        <time>2020-11-29T08:51:45Z</time>
      </trkpt>
      <trkpt lat="43.55739" lon="1.15395">
        <ele>272.4</ele>
        <time>2020-11-29T08:51:46Z</time>
      </trkpt>
      <trkpt lat="43.55738" lon="1.15388">
        <ele>271.7</ele>
        <time>2020-11-29T08:51:47Z</time>
      </trkpt>
      <trkpt lat="43.55737" lon="1.15379">
        <ele>271</ele>
        <time>2020-11-29T08:51:48Z</time>
      </trkpt>
      <trkpt lat="43.55735" lon="1.15371">
        <ele>270.4</ele>
        <time>2020-11-29T08:51:49Z</time>
      </trkpt>
      <trkpt lat="43.55733" lon="1.15362">
        <ele>269.8</ele>
        <time>2020-11-29T08:51:50Z</time>
      </trkpt>
      <trkpt lat="43.5573" lon="1.15353">
        <ele>269.3</ele>
        <time>2020-11-29T08:51:51Z</time>
      </trkpt>
      <trkpt lat="43.55728" lon="1.15343">
        <ele>268.9</ele>
        <time>2020-11-29T08:51:52Z</time>
      </trkpt>
      <trkpt lat="43.55726" lon="1.15331">
        <ele>268.7</ele>
        <time>2020-11-29T08:51:53Z</time>
      </trkpt>
      <trkpt lat="43.55724" lon="1.1532">
        <ele>268.6</ele>
        <time>2020-11-29T08:51:54Z</time>
      </trkpt>
      <trkpt lat="43.55722" lon="1.1531">
        <ele>268.6</ele>
        <time>2020-11-29T08:51:55Z</time>
      </trkpt>
      <trkpt lat="43.55719" lon="1.153">
        <ele>268.7</ele>
        <time>2020-11-29T08:51:56Z</time>
      </trkpt>
      <trkpt lat="43.55717" lon="1.1529">
        <ele>268.8</ele>
        <time>2020-11-29T08:51:57Z</time>
      </trkpt>
      <trkpt lat="43.55715" lon="1.15281">
        <ele>269</ele>
        <time>2020-11-29T08:51:58Z</time>
      </trkpt>
      <trkpt lat="43.55714" lon="1.15272">
        <ele>269.3</ele>
        <time>2020-11-29T08:51:59Z</time>
      </trkpt>
      <trkpt lat="43.55712" lon="1.15263">
        <ele>269.5</ele>
        <time>2020-11-29T08:52:00Z</time>
      </trkpt>
      <trkpt lat="43.55706" lon="1.15255">
        <ele>269.7</ele>
        <time>2020-11-29T08:52:01Z</time>
      </trkpt>
      <trkpt lat="43.55704" lon="1.15248">
        <ele>269.9</ele>
        <time>2020-11-29T08:52:02Z</time>
      </trkpt>
      <trkpt lat="43.55702" lon="1.15242">
        <ele>270</ele>
        <time>2020-11-29T08:52:03Z</time>
      </trkpt>
      <trkpt lat="43.557" lon="1.15235">
        <ele>270.1</ele>
        <time>2020-11-29T08:52:04Z</time>
      </trkpt>
      <trkpt lat="43.55701" lon="1.15229">
        <ele>270.1</ele>
        <time>2020-11-29T08:52:05Z</time>
      </trkpt>
      <trkpt lat="43.55701" lon="1.15222">
        <ele>270.2</ele>
        <time>2020-11-29T08:52:06Z</time>
      </trkpt>
      <trkpt lat="43.55701" lon="1.15215">
        <ele>270.2</ele>
        <time>2020-11-29T08:52:07Z</time>
      </trkpt>
      <trkpt lat="43.55702" lon="1.15207">
        <ele>270.1</ele>
        <time>2020-11-29T08:52:08Z</time>
      </trkpt>
      <trkpt lat="43.55702" lon="1.152">
        <ele>270.1</ele>
        <time>2020-11-29T08:52:09Z</time>
      </trkpt>
      <trkpt lat="43.55702" lon="1.15192">
        <ele>269.9</ele>
        <time>2020-11-29T08:52:10Z</time>
      </trkpt>
      <trkpt lat="43.55701" lon="1.15183">
        <ele>269.8</ele>
        <time>2020-11-29T08:52:11Z</time>
      </trkpt>
      <trkpt lat="43.557" lon="1.15175">
        <ele>269.6</ele>
        <time>2020-11-29T08:52:12Z</time>
      </trkpt>
      <trkpt lat="43.55698" lon="1.15166">
        <ele>269.4</ele>
        <time>2020-11-29T08:52:13Z</time>
      </trkpt>
      <trkpt lat="43.55701" lon="1.15156">
        <ele>269.2</ele>
        <time>2020-11-29T08:52:14Z</time>
      </trkpt>
      <trkpt lat="43.55701" lon="1.15146">
        <ele>268.9</ele>
        <time>2020-11-29T08:52:15Z</time>
      </trkpt>
      <trkpt lat="43.557" lon="1.15137">
        <ele>268.7</ele>
        <time>2020-11-29T08:52:16Z</time>
      </trkpt>
      <trkpt lat="43.55699" lon="1.15128">
        <ele>268.4</ele>
        <time>2020-11-29T08:52:17Z</time>
      </trkpt>
      <trkpt lat="43.55698" lon="1.15116">
        <ele>267.9</ele>
        <time>2020-11-29T08:52:18Z</time>
      </trkpt>
      <trkpt lat="43.55697" lon="1.15105">
        <ele>267.5</ele>
        <time>2020-11-29T08:52:19Z</time>
      </trkpt>
      <trkpt lat="43.55696" lon="1.15095">
        <ele>267.2</ele>
        <time>2020-11-29T08:52:20Z</time>
      </trkpt>
      <trkpt lat="43.55695" lon="1.15086">
        <ele>266.8</ele>
        <time>2020-11-29T08:52:21Z</time>
      </trkpt>
      <trkpt lat="43.55695" lon="1.15077">
        <ele>266.4</ele>
        <time>2020-11-29T08:52:22Z</time>
      </trkpt>
      <trkpt lat="43.55694" lon="1.15069">
        <ele>266.2</ele>
        <time>2020-11-29T08:52:23Z</time>
      </trkpt>
      <trkpt lat="43.55693" lon="1.15065">
        <ele>266</ele>
        <time>2020-11-29T08:52:24Z</time>
      </trkpt>
      <trkpt lat="43.55693" lon="1.1506">
        <ele>265.4</ele>
        <time>2020-11-29T08:52:25Z</time>
      </trkpt>
      <trkpt lat="43.5569" lon="1.15057">
        <ele>265.4</ele>
        <time>2020-11-29T08:52:26Z</time>
      </trkpt>
      <trkpt lat="43.55686" lon="1.15057">
        <ele>265.4</ele>
        <time>2020-11-29T08:52:27Z</time>
      </trkpt>
      <trkpt lat="43.55682" lon="1.15058">
        <ele>265.3</ele>
        <time>2020-11-29T08:52:28Z</time>
      </trkpt>
      <trkpt lat="43.55677" lon="1.15058">
        <ele>265</ele>
        <time>2020-11-29T08:52:29Z</time>
      </trkpt>
      <trkpt lat="43.55672" lon="1.15058">
        <ele>264.7</ele>
        <time>2020-11-29T08:52:30Z</time>
      </trkpt>
      <trkpt lat="43.55666" lon="1.15059">
        <ele>264.4</ele>
        <time>2020-11-29T08:52:31Z</time>
      </trkpt>
      <trkpt lat="43.55659" lon="1.1506">
        <ele>263.9</ele>
        <time>2020-11-29T08:52:32Z</time>
      </trkpt>
      <trkpt lat="43.55653" lon="1.1506">
        <ele>263.4</ele>
        <time>2020-11-29T08:52:33Z</time>
      </trkpt>
      <trkpt lat="43.55649" lon="1.1506">
        <ele>263</ele>
        <time>2020-11-29T08:52:34Z</time>
      </trkpt>
      <trkpt lat="43.55643" lon="1.15063">
        <ele>262.5</ele>
        <time>2020-11-29T08:52:35Z</time>
      </trkpt>
      <trkpt lat="43.55636" lon="1.15064">
        <ele>261.8</ele>
        <time>2020-11-29T08:52:36Z</time>
      </trkpt>
      <trkpt lat="43.55629" lon="1.15065">
        <ele>261</ele>
        <time>2020-11-29T08:52:37Z</time>
      </trkpt>
      <trkpt lat="43.55621" lon="1.15066">
        <ele>259.9</ele>
        <time>2020-11-29T08:52:38Z</time>
      </trkpt>
      <trkpt lat="43.55612" lon="1.15068">
        <ele>258.7</ele>
        <time>2020-11-29T08:52:39Z</time>
      </trkpt>
      <trkpt lat="43.55601" lon="1.1507">
        <ele>257.4</ele>
        <time>2020-11-29T08:52:40Z</time>
      </trkpt>
      <trkpt lat="43.55591" lon="1.15073">
        <ele>256.2</ele>
        <time>2020-11-29T08:52:41Z</time>
      </trkpt>
      <trkpt lat="43.55581" lon="1.15076">
        <ele>255</ele>
        <time>2020-11-29T08:52:42Z</time>
      </trkpt>
      <trkpt lat="43.55571" lon="1.15079">
        <ele>253.8</ele>
        <time>2020-11-29T08:52:43Z</time>
      </trkpt>
      <trkpt lat="43.55561" lon="1.15081">
        <ele>252.5</ele>
        <time>2020-11-29T08:52:44Z</time>
      </trkpt>
      <trkpt lat="43.5555" lon="1.15084">
        <ele>251.1</ele>
        <time>2020-11-29T08:52:45Z</time>
      </trkpt>
      <trkpt lat="43.55539" lon="1.15089">
        <ele>249.6</ele>
        <time>2020-11-29T08:52:46Z</time>
      </trkpt>
      <trkpt lat="43.55528" lon="1.15094">
        <ele>248</ele>
        <time>2020-11-29T08:52:47Z</time>
      </trkpt>
      <trkpt lat="43.55517" lon="1.15098">
        <ele>246.6</ele>
        <time>2020-11-29T08:52:48Z</time>
      </trkpt>
      <trkpt lat="43.55505" lon="1.15102">
        <ele>245.3</ele>
        <time>2020-11-29T08:52:49Z</time>
      </trkpt>
      <trkpt lat="43.55495" lon="1.15105">
        <ele>244.3</ele>
        <time>2020-11-29T08:52:50Z</time>
      </trkpt>
      <trkpt lat="43.55483" lon="1.1511">
        <ele>243.3</ele>
        <time>2020-11-29T08:52:51Z</time>
      </trkpt>
      <trkpt lat="43.55471" lon="1.15108">
        <ele>242.5</ele>
        <time>2020-11-29T08:52:52Z</time>
      </trkpt>
      <trkpt lat="43.5546" lon="1.15111">
        <ele>241.7</ele>
        <time>2020-11-29T08:52:53Z</time>
      </trkpt>
      <trkpt lat="43.5545" lon="1.15113">
        <ele>241.1</ele>
        <time>2020-11-29T08:52:54Z</time>
      </trkpt>
      <trkpt lat="43.55439" lon="1.15118">
        <ele>240.4</ele>
        <time>2020-11-29T08:52:55Z</time>
      </trkpt>
      <trkpt lat="43.55429" lon="1.15124">
        <ele>239.7</ele>
        <time>2020-11-29T08:52:56Z</time>
      </trkpt>
      <trkpt lat="43.55419" lon="1.15128">
        <ele>239</ele>
        <time>2020-11-29T08:52:57Z</time>
      </trkpt>
      <trkpt lat="43.55408" lon="1.15131">
        <ele>238.1</ele>
        <time>2020-11-29T08:52:58Z</time>
      </trkpt>
      <trkpt lat="43.55398" lon="1.15136">
        <ele>237.2</ele>
        <time>2020-11-29T08:52:59Z</time>
      </trkpt>
      <trkpt lat="43.55387" lon="1.15138">
        <ele>236.4</ele>
        <time>2020-11-29T08:53:00Z</time>
      </trkpt>
      <trkpt lat="43.55377" lon="1.15141">
        <ele>235.5</ele>
        <time>2020-11-29T08:53:01Z</time>
      </trkpt>
      <trkpt lat="43.55366" lon="1.15144">
        <ele>234.8</ele>
        <time>2020-11-29T08:53:02Z</time>
      </trkpt>
      <trkpt lat="43.55355" lon="1.15147">
        <ele>234</ele>
        <time>2020-11-29T08:53:03Z</time>
      </trkpt>
      <trkpt lat="43.55344" lon="1.15149">
        <ele>233.2</ele>
        <time>2020-11-29T08:53:04Z</time>
      </trkpt>
      <trkpt lat="43.55334" lon="1.15153">
        <ele>232.4</ele>
        <time>2020-11-29T08:53:05Z</time>
      </trkpt>
      <trkpt lat="43.55323" lon="1.15156">
        <ele>231.6</ele>
        <time>2020-11-29T08:53:06Z</time>
      </trkpt>
      <trkpt lat="43.55313" lon="1.1516">
        <ele>230.9</ele>
        <time>2020-11-29T08:53:07Z</time>
      </trkpt>
      <trkpt lat="43.55303" lon="1.15165">
        <ele>230.1</ele>
        <time>2020-11-29T08:53:08Z</time>
      </trkpt>
      <trkpt lat="43.55293" lon="1.15167">
        <ele>229.4</ele>
        <time>2020-11-29T08:53:09Z</time>
      </trkpt>
      <trkpt lat="43.55282" lon="1.1517">
        <ele>228.7</ele>
        <time>2020-11-29T08:53:10Z</time>
      </trkpt>
      <trkpt lat="43.55272" lon="1.15174">
        <ele>228.1</ele>
        <time>2020-11-29T08:53:11Z</time>
      </trkpt>
      <trkpt lat="43.55262" lon="1.15177">
        <ele>227.5</ele>
        <time>2020-11-29T08:53:12Z</time>
      </trkpt>
      <trkpt lat="43.55253" lon="1.1518">
        <ele>227.1</ele>
        <time>2020-11-29T08:53:13Z</time>
      </trkpt>
      <trkpt lat="43.55243" lon="1.15182">
        <ele>226.6</ele>
        <time>2020-11-29T08:53:14Z</time>
      </trkpt>
      <trkpt lat="43.55234" lon="1.15185">
        <ele>226.1</ele>
        <time>2020-11-29T08:53:15Z</time>
      </trkpt>
      <trkpt lat="43.55225" lon="1.15188">
        <ele>225.6</ele>
        <time>2020-11-29T08:53:16Z</time>
      </trkpt>
      <trkpt lat="43.55216" lon="1.15191">
        <ele>225.1</ele>
        <time>2020-11-29T08:53:17Z</time>
      </trkpt>
      <trkpt lat="43.55207" lon="1.15193">
        <ele>224.6</ele>
        <time>2020-11-29T08:53:18Z</time>
      </trkpt>
      <trkpt lat="43.55199" lon="1.15196">
        <ele>224.1</ele>
        <time>2020-11-29T08:53:19Z</time>
      </trkpt>
      <trkpt lat="43.55191" lon="1.15199">
        <ele>223.5</ele>
        <time>2020-11-29T08:53:20Z</time>
      </trkpt>
      <trkpt lat="43.55182" lon="1.15202">
        <ele>223</ele>
        <time>2020-11-29T08:53:21Z</time>
      </trkpt>
      <trkpt lat="43.55174" lon="1.15203">
        <ele>222.6</ele>
        <time>2020-11-29T08:53:22Z</time>
      </trkpt>
      <trkpt lat="43.55165" lon="1.15202">
        <ele>222.2</ele>
        <time>2020-11-29T08:53:23Z</time>
      </trkpt>
      <trkpt lat="43.55157" lon="1.15197">
        <ele>222.1</ele>
        <time>2020-11-29T08:53:24Z</time>
      </trkpt>
      <trkpt lat="43.5515" lon="1.15191">
        <ele>222</ele>
        <time>2020-11-29T08:53:25Z</time>
      </trkpt>
      <trkpt lat="43.55144" lon="1.15185">
        <ele>221.9</ele>
        <time>2020-11-29T08:53:26Z</time>
      </trkpt>
      <trkpt lat="43.55137" lon="1.15179">
        <ele>221.7</ele>
        <time>2020-11-29T08:53:27Z</time>
      </trkpt>
      <trkpt lat="43.55131" lon="1.15174">
        <ele>221.6</ele>
        <time>2020-11-29T08:53:28Z</time>
      </trkpt>
      <trkpt lat="43.55126" lon="1.15169">
        <ele>221.5</ele>
        <time>2020-11-29T08:53:29Z</time>
      </trkpt>
      <trkpt lat="43.5512" lon="1.15165">
        <ele>221.4</ele>
        <time>2020-11-29T08:53:30Z</time>
      </trkpt>
      <trkpt lat="43.55114" lon="1.15161">
        <ele>221.2</ele>
        <time>2020-11-29T08:53:31Z</time>
      </trkpt>
      <trkpt lat="43.55108" lon="1.15157">
        <ele>221.1</ele>
        <time>2020-11-29T08:53:32Z</time>
      </trkpt>
      <trkpt lat="43.55102" lon="1.15152">
        <ele>220.9</ele>
        <time>2020-11-29T08:53:33Z</time>
      </trkpt>
      <trkpt lat="43.55097" lon="1.15147">
        <ele>220.8</ele>
        <time>2020-11-29T08:53:34Z</time>
      </trkpt>
      <trkpt lat="43.55091" lon="1.15142">
        <ele>220.7</ele>
        <time>2020-11-29T08:53:35Z</time>
      </trkpt>
      <trkpt lat="43.55085" lon="1.15138">
        <ele>220.6</ele>
        <time>2020-11-29T08:53:36Z</time>
      </trkpt>
      <trkpt lat="43.5508" lon="1.15134">
        <ele>220.5</ele>
        <time>2020-11-29T08:53:37Z</time>
      </trkpt>
      <trkpt lat="43.55074" lon="1.15131">
        <ele>220.4</ele>
        <time>2020-11-29T08:53:38Z</time>
      </trkpt>
      <trkpt lat="43.55069" lon="1.15125">
        <ele>220.3</ele>
        <time>2020-11-29T08:53:39Z</time>
      </trkpt>
      <trkpt lat="43.55064" lon="1.15122">
        <ele>220.3</ele>
        <time>2020-11-29T08:53:40Z</time>
      </trkpt>
      <trkpt lat="43.55059" lon="1.15118">
        <ele>220.2</ele>
        <time>2020-11-29T08:53:41Z</time>
      </trkpt>
      <trkpt lat="43.55054" lon="1.15115">
        <ele>220.1</ele>
        <time>2020-11-29T08:53:42Z</time>
      </trkpt>
      <trkpt lat="43.55049" lon="1.15111">
        <ele>220.1</ele>
        <time>2020-11-29T08:53:43Z</time>
      </trkpt>
      <trkpt lat="43.55044" lon="1.15108">
        <ele>220.1</ele>
        <time>2020-11-29T08:53:44Z</time>
      </trkpt>
      <trkpt lat="43.55039" lon="1.15104">
        <ele>220</ele>
        <time>2020-11-29T08:53:45Z</time>
      </trkpt>
      <trkpt lat="43.55034" lon="1.151">
        <ele>220</ele>
        <time>2020-11-29T08:53:46Z</time>
      </trkpt>
      <trkpt lat="43.55029" lon="1.15097">
        <ele>220</ele>
        <time>2020-11-29T08:53:47Z</time>
      </trkpt>
      <trkpt lat="43.55024" lon="1.15094">
        <ele>220</ele>
        <time>2020-11-29T08:53:48Z</time>
      </trkpt>
      <trkpt lat="43.55019" lon="1.15091">
        <ele>220</ele>
        <time>2020-11-29T08:53:49Z</time>
      </trkpt>
      <trkpt lat="43.55015" lon="1.15087">
        <ele>220</ele>
        <time>2020-11-29T08:53:50Z</time>
      </trkpt>
      <trkpt lat="43.5501" lon="1.15082">
        <ele>219.9</ele>
        <time>2020-11-29T08:53:51Z</time>
      </trkpt>
      <trkpt lat="43.55006" lon="1.15079">
        <ele>219.9</ele>
        <time>2020-11-29T08:53:52Z</time>
      </trkpt>
      <trkpt lat="43.55002" lon="1.15075">
        <ele>219.8</ele>
        <time>2020-11-29T08:53:53Z</time>
      </trkpt>
      <trkpt lat="43.54997" lon="1.15071">
        <ele>219.8</ele>
        <time>2020-11-29T08:53:54Z</time>
      </trkpt>
      <trkpt lat="43.54993" lon="1.15068">
        <ele>219.7</ele>
        <time>2020-11-29T08:53:55Z</time>
      </trkpt>
      <trkpt lat="43.54988" lon="1.15064">
        <ele>219.7</ele>
        <time>2020-11-29T08:53:56Z</time>
      </trkpt>
      <trkpt lat="43.54984" lon="1.1506">
        <ele>219.6</ele>
        <time>2020-11-29T08:53:57Z</time>
      </trkpt>
      <trkpt lat="43.54979" lon="1.15057">
        <ele>219.6</ele>
        <time>2020-11-29T08:53:58Z</time>
      </trkpt>
      <trkpt lat="43.54975" lon="1.15054">
        <ele>219.6</ele>
        <time>2020-11-29T08:53:59Z</time>
      </trkpt>
      <trkpt lat="43.5497" lon="1.15051">
        <ele>219.6</ele>
        <time>2020-11-29T08:54:00Z</time>
      </trkpt>
      <trkpt lat="43.54967" lon="1.15047">
        <ele>219.6</ele>
        <time>2020-11-29T08:54:01Z</time>
      </trkpt>
      <trkpt lat="43.54963" lon="1.15043">
        <ele>219.6</ele>
        <time>2020-11-29T08:54:02Z</time>
      </trkpt>
      <trkpt lat="43.5496" lon="1.15041">
        <ele>219.6</ele>
        <time>2020-11-29T08:54:03Z</time>
      </trkpt>
      <trkpt lat="43.54957" lon="1.15039">
        <ele>219.6</ele>
        <time>2020-11-29T08:54:04Z</time>
      </trkpt>
      <trkpt lat="43.54954" lon="1.15037">
        <ele>219.6</ele>
        <time>2020-11-29T08:54:05Z</time>
      </trkpt>
      <trkpt lat="43.54954" lon="1.15036">
        <ele>219.6</ele>
        <time>2020-11-29T08:54:06Z</time>
      </trkpt>
      <trkpt lat="43.54953" lon="1.15035">
        <ele>219.6</ele>
        <time>2020-11-29T08:54:07Z</time>
      </trkpt>
      <trkpt lat="43.54953" lon="1.15034">
        <ele>219.6</ele>
        <time>2020-11-29T08:54:08Z</time>
      </trkpt>
      <trkpt lat="43.54953" lon="1.15033">
        <ele>219.6</ele>
        <time>2020-11-29T08:54:09Z</time>
      </trkpt>
      <trkpt lat="43.54953" lon="1.15033">
        <ele>219.6</ele>
        <time>2020-11-29T08:54:10Z</time>
      </trkpt>
      <trkpt lat="43.54953" lon="1.15035">
        <ele>219.6</ele>
        <time>2020-11-29T08:54:11Z</time>
      </trkpt>
      <trkpt lat="43.54953" lon="1.15035">
        <ele>219.6</ele>
        <time>2020-11-29T08:54:12Z</time>
      </trkpt>
      <trkpt lat="43.54952" lon="1.15034">
        <ele>219.6</ele>
        <time>2020-11-29T08:54:13Z</time>
      </trkpt>
      <trkpt lat="43.54949" lon="1.15031">
        <ele>219.7</ele>
        <time>2020-11-29T08:54:14Z</time>
      </trkpt>
      <trkpt lat="43.54948" lon="1.15031">
        <ele>219.7</ele>
        <time>2020-11-29T08:54:15Z</time>
      </trkpt>
      <trkpt lat="43.54945" lon="1.15029">
        <ele>219.7</ele>
        <time>2020-11-29T08:54:16Z</time>
      </trkpt>
      <trkpt lat="43.54941" lon="1.15027">
        <ele>219.6</ele>
        <time>2020-11-29T08:54:17Z</time>
      </trkpt>
      <trkpt lat="43.54937" lon="1.15024">
        <ele>219.6</ele>
        <time>2020-11-29T08:54:18Z</time>
      </trkpt>
      <trkpt lat="43.54932" lon="1.1502">
        <ele>219.5</ele>
        <time>2020-11-29T08:54:19Z</time>
      </trkpt>
      <trkpt lat="43.54928" lon="1.15019">
        <ele>219.4</ele>
        <time>2020-11-29T08:54:20Z</time>
      </trkpt>
      <trkpt lat="43.54924" lon="1.15017">
        <ele>219.4</ele>
        <time>2020-11-29T08:54:21Z</time>
      </trkpt>
      <trkpt lat="43.5492" lon="1.15014">
        <ele>219.3</ele>
        <time>2020-11-29T08:54:22Z</time>
      </trkpt>
      <trkpt lat="43.54915" lon="1.1501">
        <ele>219.2</ele>
        <time>2020-11-29T08:54:23Z</time>
      </trkpt>
      <trkpt lat="43.54911" lon="1.15007">
        <ele>219.1</ele>
        <time>2020-11-29T08:54:24Z</time>
      </trkpt>
      <trkpt lat="43.54906" lon="1.15004">
        <ele>219.1</ele>
        <time>2020-11-29T08:54:25Z</time>
      </trkpt>
      <trkpt lat="43.54902" lon="1.15002">
        <ele>219</ele>
        <time>2020-11-29T08:54:26Z</time>
      </trkpt>
      <trkpt lat="43.54897" lon="1.15">
        <ele>219</ele>
        <time>2020-11-29T08:54:27Z</time>
      </trkpt>
      <trkpt lat="43.54891" lon="1.14999">
        <ele>219</ele>
        <time>2020-11-29T08:54:28Z</time>
      </trkpt>
      <trkpt lat="43.54886" lon="1.14998">
        <ele>219</ele>
        <time>2020-11-29T08:54:29Z</time>
      </trkpt>
      <trkpt lat="43.54881" lon="1.14995">
        <ele>219</ele>
        <time>2020-11-29T08:54:30Z</time>
      </trkpt>
      <trkpt lat="43.54876" lon="1.14991">
        <ele>219</ele>
        <time>2020-11-29T08:54:31Z</time>
      </trkpt>
      <trkpt lat="43.54872" lon="1.1499">
        <ele>219.1</ele>
        <time>2020-11-29T08:54:32Z</time>
      </trkpt>
      <trkpt lat="43.54868" lon="1.14988">
        <ele>219.1</ele>
        <time>2020-11-29T08:54:33Z</time>
      </trkpt>
      <trkpt lat="43.54863" lon="1.14986">
        <ele>219.1</ele>
        <time>2020-11-29T08:54:34Z</time>
      </trkpt>
      <trkpt lat="43.54859" lon="1.14984">
        <ele>219.1</ele>
        <time>2020-11-29T08:54:35Z</time>
      </trkpt>
      <trkpt lat="43.54854" lon="1.14981">
        <ele>219.2</ele>
        <time>2020-11-29T08:54:36Z</time>
      </trkpt>
      <trkpt lat="43.54848" lon="1.14979">
        <ele>219.1</ele>
        <time>2020-11-29T08:54:37Z</time>
      </trkpt>
      <trkpt lat="43.54843" lon="1.14975">
        <ele>219.1</ele>
        <time>2020-11-29T08:54:38Z</time>
      </trkpt>
      <trkpt lat="43.54838" lon="1.14973">
        <ele>219.1</ele>
        <time>2020-11-29T08:54:39Z</time>
      </trkpt>
      <trkpt lat="43.54834" lon="1.14972">
        <ele>219.1</ele>
        <time>2020-11-29T08:54:40Z</time>
      </trkpt>
      <trkpt lat="43.5483" lon="1.14971">
        <ele>219.1</ele>
        <time>2020-11-29T08:54:41Z</time>
      </trkpt>
      <trkpt lat="43.54826" lon="1.1497">
        <ele>219</ele>
        <time>2020-11-29T08:54:42Z</time>
      </trkpt>
      <trkpt lat="43.54822" lon="1.14969">
        <ele>219</ele>
        <time>2020-11-29T08:54:43Z</time>
      </trkpt>
      <trkpt lat="43.54819" lon="1.14967">
        <ele>219</ele>
        <time>2020-11-29T08:54:44Z</time>
      </trkpt>
      <trkpt lat="43.54816" lon="1.14966">
        <ele>219</ele>
        <time>2020-11-29T08:54:45Z</time>
      </trkpt>
      <trkpt lat="43.54812" lon="1.14963">
        <ele>219</ele>
        <time>2020-11-29T08:54:46Z</time>
      </trkpt>
      <trkpt lat="43.54808" lon="1.14961">
        <ele>219</ele>
        <time>2020-11-29T08:54:47Z</time>
      </trkpt>
      <trkpt lat="43.54804" lon="1.14958">
        <ele>219</ele>
        <time>2020-11-29T08:54:48Z</time>
      </trkpt>
      <trkpt lat="43.548" lon="1.14956">
        <ele>219</ele>
        <time>2020-11-29T08:54:49Z</time>
      </trkpt>
      <trkpt lat="43.54796" lon="1.14954">
        <ele>219.1</ele>
        <time>2020-11-29T08:54:50Z</time>
      </trkpt>
      <trkpt lat="43.54792" lon="1.14952">
        <ele>219.1</ele>
        <time>2020-11-29T08:54:51Z</time>
      </trkpt>
      <trkpt lat="43.54788" lon="1.14952">
        <ele>219.1</ele>
        <time>2020-11-29T08:54:52Z</time>
      </trkpt>
      <trkpt lat="43.54784" lon="1.14952">
        <ele>219.2</ele>
        <time>2020-11-29T08:54:53Z</time>
      </trkpt>
      <trkpt lat="43.54779" lon="1.1495">
        <ele>219.2</ele>
        <time>2020-11-29T08:54:54Z</time>
      </trkpt>
      <trkpt lat="43.54777" lon="1.1495">
        <ele>219.3</ele>
        <time>2020-11-29T08:54:55Z</time>
      </trkpt>
      <trkpt lat="43.54773" lon="1.14948">
        <ele>219.3</ele>
        <time>2020-11-29T08:54:56Z</time>
      </trkpt>
      <trkpt lat="43.54772" lon="1.14948">
        <ele>219.4</ele>
        <time>2020-11-29T08:54:57Z</time>
      </trkpt>
      <trkpt lat="43.54769" lon="1.14945">
        <ele>219.4</ele>
        <time>2020-11-29T08:54:58Z</time>
      </trkpt>
      <trkpt lat="43.54768" lon="1.14945">
        <ele>219.4</ele>
        <time>2020-11-29T08:54:59Z</time>
      </trkpt>
      <trkpt lat="43.54765" lon="1.14943">
        <ele>219.4</ele>
        <time>2020-11-29T08:55:00Z</time>
      </trkpt>
      <trkpt lat="43.54764" lon="1.14942">
        <ele>219.4</ele>
        <time>2020-11-29T08:55:01Z</time>
      </trkpt>
      <trkpt lat="43.54763" lon="1.14942">
        <ele>219.3</ele>
        <time>2020-11-29T08:55:02Z</time>
      </trkpt>
      <trkpt lat="43.54763" lon="1.14944">
        <ele>219.3</ele>
        <time>2020-11-29T08:55:03Z</time>
      </trkpt>
      <trkpt lat="43.54762" lon="1.14945">
        <ele>219.2</ele>
        <time>2020-11-29T08:55:04Z</time>
      </trkpt>
      <trkpt lat="43.54762" lon="1.14946">
        <ele>219.2</ele>
        <time>2020-11-29T08:55:05Z</time>
      </trkpt>
      <trkpt lat="43.54762" lon="1.14947">
        <ele>219.1</ele>
        <time>2020-11-29T08:55:06Z</time>
      </trkpt>
      <trkpt lat="43.54761" lon="1.14948">
        <ele>219.1</ele>
        <time>2020-11-29T08:55:07Z</time>
      </trkpt>
      <trkpt lat="43.54762" lon="1.14952">
        <ele>219</ele>
        <time>2020-11-29T08:55:08Z</time>
      </trkpt>
      <trkpt lat="43.54763" lon="1.14957">
        <ele>218.8</ele>
        <time>2020-11-29T08:55:09Z</time>
      </trkpt>
      <trkpt lat="43.54763" lon="1.14958">
        <ele>218.7</ele>
        <time>2020-11-29T08:55:10Z</time>
      </trkpt>
      <trkpt lat="43.54764" lon="1.14963">
        <ele>218.5</ele>
        <time>2020-11-29T08:55:11Z</time>
      </trkpt>
      <trkpt lat="43.54764" lon="1.14964">
        <ele>218.5</ele>
        <time>2020-11-29T08:55:12Z</time>
      </trkpt>
      <trkpt lat="43.54766" lon="1.14968">
        <ele>218.3</ele>
        <time>2020-11-29T08:55:13Z</time>
      </trkpt>
      <trkpt lat="43.54767" lon="1.14973">
        <ele>218.1</ele>
        <time>2020-11-29T08:55:14Z</time>
      </trkpt>
      <trkpt lat="43.54769" lon="1.1498">
        <ele>217.9</ele>
        <time>2020-11-29T08:55:15Z</time>
      </trkpt>
      <trkpt lat="43.5477" lon="1.14987">
        <ele>217.8</ele>
        <time>2020-11-29T08:55:16Z</time>
      </trkpt>
      <trkpt lat="43.54772" lon="1.14994">
        <ele>217.6</ele>
        <time>2020-11-29T08:55:17Z</time>
      </trkpt>
      <trkpt lat="43.54773" lon="1.15002">
        <ele>217.5</ele>
        <time>2020-11-29T08:55:18Z</time>
      </trkpt>
      <trkpt lat="43.54773" lon="1.15009">
        <ele>217.5</ele>
        <time>2020-11-29T08:55:19Z</time>
      </trkpt>
      <trkpt lat="43.54773" lon="1.15017">
        <ele>217.5</ele>
        <time>2020-11-29T08:55:20Z</time>
      </trkpt>
      <trkpt lat="43.54775" lon="1.15021">
        <ele>217.4</ele>
        <time>2020-11-29T08:55:21Z</time>
      </trkpt>
      <trkpt lat="43.54777" lon="1.15026">
        <ele>217.4</ele>
        <time>2020-11-29T08:55:22Z</time>
      </trkpt>
      <trkpt lat="43.54779" lon="1.15032">
        <ele>217.4</ele>
        <time>2020-11-29T08:55:23Z</time>
      </trkpt>
      <trkpt lat="43.5478" lon="1.1504">
        <ele>217.3</ele>
        <time>2020-11-29T08:55:24Z</time>
      </trkpt>
      <trkpt lat="43.54781" lon="1.15047">
        <ele>217.3</ele>
        <time>2020-11-29T08:55:25Z</time>
      </trkpt>
      <trkpt lat="43.54782" lon="1.15053">
        <ele>217.3</ele>
        <time>2020-11-29T08:55:26Z</time>
      </trkpt>
      <trkpt lat="43.54783" lon="1.15058">
        <ele>217.2</ele>
        <time>2020-11-29T08:55:27Z</time>
      </trkpt>
      <trkpt lat="43.54784" lon="1.15064">
        <ele>217.2</ele>
        <time>2020-11-29T08:55:28Z</time>
      </trkpt>
      <trkpt lat="43.54785" lon="1.1507">
        <ele>217.2</ele>
        <time>2020-11-29T08:55:29Z</time>
      </trkpt>
      <trkpt lat="43.54787" lon="1.15076">
        <ele>217.2</ele>
        <time>2020-11-29T08:55:30Z</time>
      </trkpt>
      <trkpt lat="43.54787" lon="1.15084">
        <ele>217.2</ele>
        <time>2020-11-29T08:55:31Z</time>
      </trkpt>
      <trkpt lat="43.54786" lon="1.15091">
        <ele>217.2</ele>
        <time>2020-11-29T08:55:32Z</time>
      </trkpt>
      <trkpt lat="43.54787" lon="1.15099">
        <ele>217.1</ele>
        <time>2020-11-29T08:55:33Z</time>
      </trkpt>
      <trkpt lat="43.54787" lon="1.15105">
        <ele>217.1</ele>
        <time>2020-11-29T08:55:34Z</time>
      </trkpt>
      <trkpt lat="43.54787" lon="1.15112">
        <ele>217.1</ele>
        <time>2020-11-29T08:55:35Z</time>
      </trkpt>
      <trkpt lat="43.54787" lon="1.15118">
        <ele>217</ele>
        <time>2020-11-29T08:55:36Z</time>
      </trkpt>
      <trkpt lat="43.54787" lon="1.15126">
        <ele>217</ele>
        <time>2020-11-29T08:55:37Z</time>
      </trkpt>
      <trkpt lat="43.54787" lon="1.15133">
        <ele>217</ele>
        <time>2020-11-29T08:55:38Z</time>
      </trkpt>
      <trkpt lat="43.54787" lon="1.15139">
        <ele>217</ele>
        <time>2020-11-29T08:55:39Z</time>
      </trkpt>
      <trkpt lat="43.54787" lon="1.15146">
        <ele>217</ele>
        <time>2020-11-29T08:55:40Z</time>
      </trkpt>
      <trkpt lat="43.54787" lon="1.15153">
        <ele>217</ele>
        <time>2020-11-29T08:55:41Z</time>
      </trkpt>
      <trkpt lat="43.54787" lon="1.15161">
        <ele>217</ele>
        <time>2020-11-29T08:55:42Z</time>
      </trkpt>
      <trkpt lat="43.54787" lon="1.15167">
        <ele>217</ele>
        <time>2020-11-29T08:55:43Z</time>
      </trkpt>
      <trkpt lat="43.54788" lon="1.15173">
        <ele>217.1</ele>
        <time>2020-11-29T08:55:44Z</time>
      </trkpt>
      <trkpt lat="43.5479" lon="1.15179">
        <ele>217.1</ele>
        <time>2020-11-29T08:55:45Z</time>
      </trkpt>
      <trkpt lat="43.54792" lon="1.15184">
        <ele>217.2</ele>
        <time>2020-11-29T08:55:46Z</time>
      </trkpt>
      <trkpt lat="43.54793" lon="1.15191">
        <ele>217.3</ele>
        <time>2020-11-29T08:55:47Z</time>
      </trkpt>
      <trkpt lat="43.54795" lon="1.15199">
        <ele>217.4</ele>
        <time>2020-11-29T08:55:48Z</time>
      </trkpt>
      <trkpt lat="43.54795" lon="1.15205">
        <ele>217.5</ele>
        <time>2020-11-29T08:55:49Z</time>
      </trkpt>
      <trkpt lat="43.54794" lon="1.15209">
        <ele>217.6</ele>
        <time>2020-11-29T08:55:50Z</time>
      </trkpt>
      <trkpt lat="43.54794" lon="1.1521">
        <ele>217.6</ele>
        <time>2020-11-29T08:55:51Z</time>
      </trkpt>
      <trkpt lat="43.54794" lon="1.15211">
        <ele>217.6</ele>
        <time>2020-11-29T08:55:52Z</time>
      </trkpt>
      <trkpt lat="43.54794" lon="1.15212">
        <ele>217.6</ele>
        <time>2020-11-29T08:55:53Z</time>
      </trkpt>
      <trkpt lat="43.54795" lon="1.15212">
        <ele>217.6</ele>
        <time>2020-11-29T08:55:54Z</time>
      </trkpt>
      <trkpt lat="43.54795" lon="1.15213">
        <ele>217.6</ele>
        <time>2020-11-29T08:55:55Z</time>
      </trkpt>
      <trkpt lat="43.54794" lon="1.15213">
        <ele>217.6</ele>
        <time>2020-11-29T08:55:56Z</time>
      </trkpt>
      <trkpt lat="43.54794" lon="1.15214">
        <ele>217.7</ele>
        <time>2020-11-29T08:55:57Z</time>
      </trkpt>
      <trkpt lat="43.54793" lon="1.15215">
        <ele>217.7</ele>
        <time>2020-11-29T08:55:58Z</time>
      </trkpt>
      <trkpt lat="43.54792" lon="1.15216">
        <ele>217.7</ele>
        <time>2020-11-29T08:55:59Z</time>
      </trkpt>
      <trkpt lat="43.54792" lon="1.15216">
        <ele>217.7</ele>
        <time>2020-11-29T08:56:00Z</time>
      </trkpt>
      <trkpt lat="43.54792" lon="1.15217">
        <ele>217.7</ele>
        <time>2020-11-29T08:56:01Z</time>
      </trkpt>
      <trkpt lat="43.54792" lon="1.15217">
        <ele>217.7</ele>
        <time>2020-11-29T08:56:02Z</time>
      </trkpt>
      <trkpt lat="43.54791" lon="1.15218">
        <ele>217.7</ele>
        <time>2020-11-29T08:56:03Z</time>
      </trkpt>
      <trkpt lat="43.54791" lon="1.15218">
        <ele>217.7</ele>
        <time>2020-11-29T08:56:04Z</time>
      </trkpt>
      <trkpt lat="43.54791" lon="1.15218">
        <ele>217.7</ele>
        <time>2020-11-29T08:56:05Z</time>
      </trkpt>
      <trkpt lat="43.54791" lon="1.15218">
        <ele>217.7</ele>
        <time>2020-11-29T08:56:06Z</time>
      </trkpt>
      <trkpt lat="43.54791" lon="1.15218">
        <ele>217.7</ele>
        <time>2020-11-29T08:56:07Z</time>
      </trkpt>
      <trkpt lat="43.54791" lon="1.15218">
        <ele>217.7</ele>
        <time>2020-11-29T08:56:08Z</time>
      </trkpt>
      <trkpt lat="43.54791" lon="1.15218">
        <ele>217.7</ele>
        <time>2020-11-29T08:56:09Z</time>
      </trkpt>
      <trkpt lat="43.54791" lon="1.15218">
        <ele>217.7</ele>
        <time>2020-11-29T08:56:10Z</time>
      </trkpt>
      <trkpt lat="43.54791" lon="1.15218">
        <ele>217.7</ele>
        <time>2020-11-29T08:56:11Z</time>
      </trkpt>
      <trkpt lat="43.54791" lon="1.15218">
        <ele>217.7</ele>
        <time>2020-11-29T08:56:12Z</time>
      </trkpt>
      <trkpt lat="43.54791" lon="1.15217">
        <ele>217.7</ele>
        <time>2020-11-29T08:56:13Z</time>
      </trkpt>
      <trkpt lat="43.5479" lon="1.15217">
        <ele>217.7</ele>
        <time>2020-11-29T08:56:14Z</time>
      </trkpt>
      <trkpt lat="43.5479" lon="1.15217">
        <ele>217.7</ele>
        <time>2020-11-29T08:56:15Z</time>
      </trkpt>
      <trkpt lat="43.5479" lon="1.15217">
        <ele>217.7</ele>
        <time>2020-11-29T08:56:16Z</time>
      </trkpt>
      <trkpt lat="43.5479" lon="1.15217">
        <ele>217.7</ele>
        <time>2020-11-29T08:56:17Z</time>
      </trkpt>
      <trkpt lat="43.5479" lon="1.15216">
        <ele>217.7</ele>
        <time>2020-11-29T08:56:18Z</time>
      </trkpt>
      <trkpt lat="43.5479" lon="1.15217">
        <ele>217.7</ele>
        <time>2020-11-29T08:56:19Z</time>
      </trkpt>
      <trkpt lat="43.5479" lon="1.15218">
        <ele>217.7</ele>
        <time>2020-11-29T08:56:20Z</time>
      </trkpt>
      <trkpt lat="43.5479" lon="1.15218">
        <ele>217.7</ele>
        <time>2020-11-29T08:56:21Z</time>
      </trkpt>
      <trkpt lat="43.5479" lon="1.15217">
        <ele>217.7</ele>
        <time>2020-11-29T08:56:22Z</time>
      </trkpt>
      <trkpt lat="43.5479" lon="1.15217">
        <ele>217.7</ele>
        <time>2020-11-29T08:56:23Z</time>
      </trkpt>
      <trkpt lat="43.54789" lon="1.15217">
        <ele>217.7</ele>
        <time>2020-11-29T08:56:24Z</time>
      </trkpt>
      <trkpt lat="43.54789" lon="1.15217">
        <ele>217.7</ele>
        <time>2020-11-29T08:56:25Z</time>
      </trkpt>
      <trkpt lat="43.54789" lon="1.15217">
        <ele>217.7</ele>
        <time>2020-11-29T08:56:26Z</time>
      </trkpt>
      <trkpt lat="43.5479" lon="1.15218">
        <ele>217.7</ele>
        <time>2020-11-29T08:56:27Z</time>
      </trkpt>
      <trkpt lat="43.5479" lon="1.15218">
        <ele>217.7</ele>
        <time>2020-11-29T08:56:28Z</time>
      </trkpt>
      <trkpt lat="43.5479" lon="1.15219">
        <ele>217.7</ele>
        <time>2020-11-29T08:56:29Z</time>
      </trkpt>
      <trkpt lat="43.54791" lon="1.1522">
        <ele>217.7</ele>
        <time>2020-11-29T08:56:30Z</time>
      </trkpt>
      <trkpt lat="43.54791" lon="1.1522">
        <ele>217.7</ele>
        <time>2020-11-29T08:56:31Z</time>
      </trkpt>
      <trkpt lat="43.54791" lon="1.15221">
        <ele>217.7</ele>
        <time>2020-11-29T08:56:32Z</time>
      </trkpt>
      <trkpt lat="43.54792" lon="1.15221">
        <ele>217.7</ele>
        <time>2020-11-29T08:56:33Z</time>
      </trkpt>
      <trkpt lat="43.54793" lon="1.15222">
        <ele>217.7</ele>
        <time>2020-11-29T08:56:34Z</time>
      </trkpt>
      <trkpt lat="43.54792" lon="1.15222">
        <ele>217.7</ele>
        <time>2020-11-29T08:56:35Z</time>
      </trkpt>
      <trkpt lat="43.54792" lon="1.15223">
        <ele>217.7</ele>
        <time>2020-11-29T08:56:36Z</time>
      </trkpt>
      <trkpt lat="43.54792" lon="1.15222">
        <ele>217.7</ele>
        <time>2020-11-29T08:56:37Z</time>
      </trkpt>
      <trkpt lat="43.54792" lon="1.15222">
        <ele>217.7</ele>
        <time>2020-11-29T08:56:38Z</time>
      </trkpt>
      <trkpt lat="43.54793" lon="1.15223">
        <ele>217.7</ele>
        <time>2020-11-29T08:56:39Z</time>
      </trkpt>
      <trkpt lat="43.54793" lon="1.15223">
        <ele>217.7</ele>
        <time>2020-11-29T08:56:40Z</time>
      </trkpt>
      <trkpt lat="43.54793" lon="1.15223">
        <ele>217.7</ele>
        <time>2020-11-29T08:56:41Z</time>
      </trkpt>
      <trkpt lat="43.54792" lon="1.15224">
        <ele>217.7</ele>
        <time>2020-11-29T08:56:42Z</time>
      </trkpt>
      <trkpt lat="43.54791" lon="1.15225">
        <ele>217.7</ele>
        <time>2020-11-29T08:56:43Z</time>
      </trkpt>
      <trkpt lat="43.54789" lon="1.15226">
        <ele>217.7</ele>
        <time>2020-11-29T08:56:44Z</time>
      </trkpt>
      <trkpt lat="43.54788" lon="1.15226">
        <ele>217.7</ele>
        <time>2020-11-29T08:56:45Z</time>
      </trkpt>
      <trkpt lat="43.54786" lon="1.15227">
        <ele>217.7</ele>
        <time>2020-11-29T08:56:46Z</time>
      </trkpt>
      <trkpt lat="43.54785" lon="1.15227">
        <ele>217.7</ele>
        <time>2020-11-29T08:56:47Z</time>
      </trkpt>
      <trkpt lat="43.54784" lon="1.15227">
        <ele>217.7</ele>
        <time>2020-11-29T08:56:48Z</time>
      </trkpt>
      <trkpt lat="43.54781" lon="1.15224">
        <ele>217.6</ele>
        <time>2020-11-29T08:56:49Z</time>
      </trkpt>
      <trkpt lat="43.5478" lon="1.15223">
        <ele>217.6</ele>
        <time>2020-11-29T08:56:50Z</time>
      </trkpt>
      <trkpt lat="43.54777" lon="1.1522">
        <ele>217.6</ele>
        <time>2020-11-29T08:56:51Z</time>
      </trkpt>
      <trkpt lat="43.54776" lon="1.15219">
        <ele>217.6</ele>
        <time>2020-11-29T08:56:52Z</time>
      </trkpt>
      <trkpt lat="43.54774" lon="1.15216">
        <ele>217.6</ele>
        <time>2020-11-29T08:56:53Z</time>
      </trkpt>
      <trkpt lat="43.54775" lon="1.15214">
        <ele>217.6</ele>
        <time>2020-11-29T08:56:54Z</time>
      </trkpt>
      <trkpt lat="43.54776" lon="1.1521">
        <ele>217.6</ele>
        <time>2020-11-29T08:56:55Z</time>
      </trkpt>
      <trkpt lat="43.54776" lon="1.15208">
        <ele>217.6</ele>
        <time>2020-11-29T08:56:56Z</time>
      </trkpt>
      <trkpt lat="43.54775" lon="1.15203">
        <ele>217.6</ele>
        <time>2020-11-29T08:56:57Z</time>
      </trkpt>
      <trkpt lat="43.54775" lon="1.15199">
        <ele>217.7</ele>
        <time>2020-11-29T08:56:58Z</time>
      </trkpt>
      <trkpt lat="43.54775" lon="1.15195">
        <ele>217.7</ele>
        <time>2020-11-29T08:56:59Z</time>
      </trkpt>
      <trkpt lat="43.54774" lon="1.1519">
        <ele>217.7</ele>
        <time>2020-11-29T08:57:00Z</time>
      </trkpt>
      <trkpt lat="43.54773" lon="1.15185">
        <ele>217.7</ele>
        <time>2020-11-29T08:57:01Z</time>
      </trkpt>
      <trkpt lat="43.54772" lon="1.15181">
        <ele>217.7</ele>
        <time>2020-11-29T08:57:02Z</time>
      </trkpt>
      <trkpt lat="43.54769" lon="1.15175">
        <ele>217.7</ele>
        <time>2020-11-29T08:57:03Z</time>
      </trkpt>
      <trkpt lat="43.54767" lon="1.15171">
        <ele>217.7</ele>
        <time>2020-11-29T08:57:04Z</time>
      </trkpt>
      <trkpt lat="43.54763" lon="1.15169">
        <ele>217.6</ele>
        <time>2020-11-29T08:57:05Z</time>
      </trkpt>
      <trkpt lat="43.5476" lon="1.15165">
        <ele>217.6</ele>
        <time>2020-11-29T08:57:06Z</time>
      </trkpt>
      <trkpt lat="43.54756" lon="1.15161">
        <ele>217.5</ele>
        <time>2020-11-29T08:57:07Z</time>
      </trkpt>
      <trkpt lat="43.54753" lon="1.15156">
        <ele>217.5</ele>
        <time>2020-11-29T08:57:08Z</time>
      </trkpt>
      <trkpt lat="43.54751" lon="1.1515">
        <ele>217.5</ele>
        <time>2020-11-29T08:57:09Z</time>
      </trkpt>
      <trkpt lat="43.54748" lon="1.15146">
        <ele>217.5</ele>
        <time>2020-11-29T08:57:10Z</time>
      </trkpt>
      <trkpt lat="43.54745" lon="1.15144">
        <ele>217.5</ele>
        <time>2020-11-29T08:57:11Z</time>
      </trkpt>
      <trkpt lat="43.54742" lon="1.15143">
        <ele>217.5</ele>
        <time>2020-11-29T08:57:12Z</time>
      </trkpt>
      <trkpt lat="43.54739" lon="1.15141">
        <ele>217.5</ele>
        <time>2020-11-29T08:57:13Z</time>
      </trkpt>
      <trkpt lat="43.54737" lon="1.15138">
        <ele>217.6</ele>
        <time>2020-11-29T08:57:14Z</time>
      </trkpt>
      <trkpt lat="43.54735" lon="1.15134">
        <ele>217.6</ele>
        <time>2020-11-29T08:57:15Z</time>
      </trkpt>
      <trkpt lat="43.54734" lon="1.1513">
        <ele>217.6</ele>
        <time>2020-11-29T08:57:16Z</time>
      </trkpt>
      <trkpt lat="43.54733" lon="1.15127">
        <ele>217.6</ele>
        <time>2020-11-29T08:57:17Z</time>
      </trkpt>
      <trkpt lat="43.54734" lon="1.15126">
        <ele>217.6</ele>
        <time>2020-11-29T08:57:18Z</time>
      </trkpt>
      <trkpt lat="43.54734" lon="1.15124">
        <ele>217.6</ele>
        <time>2020-11-29T08:57:19Z</time>
      </trkpt>
      <trkpt lat="43.54733" lon="1.15121">
        <ele>217.6</ele>
        <time>2020-11-29T08:57:20Z</time>
      </trkpt>
      <trkpt lat="43.54733" lon="1.15118">
        <ele>217.6</ele>
        <time>2020-11-29T08:57:21Z</time>
      </trkpt>
      <trkpt lat="43.54733" lon="1.15116">
        <ele>217.6</ele>
        <time>2020-11-29T08:57:22Z</time>
      </trkpt>
      <trkpt lat="43.54731" lon="1.15112">
        <ele>217.6</ele>
        <time>2020-11-29T08:57:23Z</time>
      </trkpt>
      <trkpt lat="43.5473" lon="1.1511">
        <ele>217.6</ele>
        <time>2020-11-29T08:57:24Z</time>
      </trkpt>
      <trkpt lat="43.54727" lon="1.15105">
        <ele>217.7</ele>
        <time>2020-11-29T08:57:25Z</time>
      </trkpt>
      <trkpt lat="43.54724" lon="1.15103">
        <ele>217.6</ele>
        <time>2020-11-29T08:57:26Z</time>
      </trkpt>
      <trkpt lat="43.54721" lon="1.15099">
        <ele>217.5</ele>
        <time>2020-11-29T08:57:27Z</time>
      </trkpt>
      <trkpt lat="43.54717" lon="1.15094">
        <ele>217.5</ele>
        <time>2020-11-29T08:57:28Z</time>
      </trkpt>
      <trkpt lat="43.54713" lon="1.1509">
        <ele>217.4</ele>
        <time>2020-11-29T08:57:29Z</time>
      </trkpt>
      <trkpt lat="43.54709" lon="1.15087">
        <ele>217.4</ele>
        <time>2020-11-29T08:57:30Z</time>
      </trkpt>
      <trkpt lat="43.54705" lon="1.15083">
        <ele>217.4</ele>
        <time>2020-11-29T08:57:31Z</time>
      </trkpt>
      <trkpt lat="43.54702" lon="1.15081">
        <ele>217.4</ele>
        <time>2020-11-29T08:57:32Z</time>
      </trkpt>
      <trkpt lat="43.54699" lon="1.15079">
        <ele>217.4</ele>
        <time>2020-11-29T08:57:33Z</time>
      </trkpt>
      <trkpt lat="43.54696" lon="1.15077">
        <ele>217.4</ele>
        <time>2020-11-29T08:57:34Z</time>
      </trkpt>
      <trkpt lat="43.54693" lon="1.15075">
        <ele>217.4</ele>
        <time>2020-11-29T08:57:35Z</time>
      </trkpt>
      <trkpt lat="43.5469" lon="1.15073">
        <ele>217.4</ele>
        <time>2020-11-29T08:57:36Z</time>
      </trkpt>
      <trkpt lat="43.54687" lon="1.15071">
        <ele>217.4</ele>
        <time>2020-11-29T08:57:37Z</time>
      </trkpt>
      <trkpt lat="43.54684" lon="1.15069">
        <ele>217.5</ele>
        <time>2020-11-29T08:57:38Z</time>
      </trkpt>
      <trkpt lat="43.54681" lon="1.15066">
        <ele>217.5</ele>
        <time>2020-11-29T08:57:39Z</time>
      </trkpt>
      <trkpt lat="43.54677" lon="1.15062">
        <ele>217.6</ele>
        <time>2020-11-29T08:57:40Z</time>
      </trkpt>
      <trkpt lat="43.54674" lon="1.15058">
        <ele>217.6</ele>
        <time>2020-11-29T08:57:41Z</time>
      </trkpt>
      <trkpt lat="43.54671" lon="1.15055">
        <ele>217.7</ele>
        <time>2020-11-29T08:57:42Z</time>
      </trkpt>
      <trkpt lat="43.54668" lon="1.15052">
        <ele>217.7</ele>
        <time>2020-11-29T08:57:43Z</time>
      </trkpt>
      <trkpt lat="43.54664" lon="1.15048">
        <ele>217.8</ele>
        <time>2020-11-29T08:57:44Z</time>
      </trkpt>
      <trkpt lat="43.54661" lon="1.15045">
        <ele>217.8</ele>
        <time>2020-11-29T08:57:45Z</time>
      </trkpt>
      <trkpt lat="43.54658" lon="1.15042">
        <ele>217.9</ele>
        <time>2020-11-29T08:57:46Z</time>
      </trkpt>
      <trkpt lat="43.54654" lon="1.15039">
        <ele>218</ele>
        <time>2020-11-29T08:57:47Z</time>
      </trkpt>
      <trkpt lat="43.5465" lon="1.15038">
        <ele>218</ele>
        <time>2020-11-29T08:57:48Z</time>
      </trkpt>
      <trkpt lat="43.54647" lon="1.15035">
        <ele>218.1</ele>
        <time>2020-11-29T08:57:49Z</time>
      </trkpt>
      <trkpt lat="43.54643" lon="1.15033">
        <ele>218.2</ele>
        <time>2020-11-29T08:57:50Z</time>
      </trkpt>
      <trkpt lat="43.54639" lon="1.1503">
        <ele>218.3</ele>
        <time>2020-11-29T08:57:51Z</time>
      </trkpt>
      <trkpt lat="43.54634" lon="1.15027">
        <ele>218.4</ele>
        <time>2020-11-29T08:57:52Z</time>
      </trkpt>
      <trkpt lat="43.5463" lon="1.15022">
        <ele>218.5</ele>
        <time>2020-11-29T08:57:53Z</time>
      </trkpt>
      <trkpt lat="43.54627" lon="1.1502">
        <ele>218.6</ele>
        <time>2020-11-29T08:57:54Z</time>
      </trkpt>
      <trkpt lat="43.54624" lon="1.15017">
        <ele>218.7</ele>
        <time>2020-11-29T08:57:55Z</time>
      </trkpt>
      <trkpt lat="43.54621" lon="1.15015">
        <ele>218.7</ele>
        <time>2020-11-29T08:57:56Z</time>
      </trkpt>
      <trkpt lat="43.54617" lon="1.15013">
        <ele>218.9</ele>
        <time>2020-11-29T08:57:57Z</time>
      </trkpt>
      <trkpt lat="43.54615" lon="1.15013">
        <ele>218.9</ele>
        <time>2020-11-29T08:57:58Z</time>
      </trkpt>
      <trkpt lat="43.54611" lon="1.15012">
        <ele>219.1</ele>
        <time>2020-11-29T08:57:59Z</time>
      </trkpt>
      <trkpt lat="43.54608" lon="1.15013">
        <ele>219.2</ele>
        <time>2020-11-29T08:58:00Z</time>
      </trkpt>
      <trkpt lat="43.54607" lon="1.15013">
        <ele>219.2</ele>
        <time>2020-11-29T08:58:01Z</time>
      </trkpt>
      <trkpt lat="43.54604" lon="1.15015">
        <ele>219.4</ele>
        <time>2020-11-29T08:58:02Z</time>
      </trkpt>
      <trkpt lat="43.54602" lon="1.15016">
        <ele>219.7</ele>
        <time>2020-11-29T08:58:03Z</time>
      </trkpt>
      <trkpt lat="43.546" lon="1.1502">
        <ele>219.7</ele>
        <time>2020-11-29T08:58:04Z</time>
      </trkpt>
      <trkpt lat="43.54599" lon="1.15022">
        <ele>219.7</ele>
        <time>2020-11-29T08:58:05Z</time>
      </trkpt>
      <trkpt lat="43.54597" lon="1.15026">
        <ele>219.8</ele>
        <time>2020-11-29T08:58:06Z</time>
      </trkpt>
      <trkpt lat="43.54596" lon="1.15028">
        <ele>219.8</ele>
        <time>2020-11-29T08:58:07Z</time>
      </trkpt>
      <trkpt lat="43.54595" lon="1.15032">
        <ele>219.8</ele>
        <time>2020-11-29T08:58:08Z</time>
      </trkpt>
      <trkpt lat="43.54594" lon="1.15036">
        <ele>219.8</ele>
        <time>2020-11-29T08:58:09Z</time>
      </trkpt>
      <trkpt lat="43.54595" lon="1.15043">
        <ele>219.9</ele>
        <time>2020-11-29T08:58:10Z</time>
      </trkpt>
      <trkpt lat="43.54594" lon="1.1505">
        <ele>219.9</ele>
        <time>2020-11-29T08:58:11Z</time>
      </trkpt>
      <trkpt lat="43.54594" lon="1.15055">
        <ele>219.9</ele>
        <time>2020-11-29T08:58:12Z</time>
      </trkpt>
      <trkpt lat="43.54593" lon="1.1506">
        <ele>220</ele>
        <time>2020-11-29T08:58:13Z</time>
      </trkpt>
      <trkpt lat="43.54593" lon="1.15065">
        <ele>220</ele>
        <time>2020-11-29T08:58:14Z</time>
      </trkpt>
      <trkpt lat="43.54591" lon="1.1507">
        <ele>220</ele>
        <time>2020-11-29T08:58:15Z</time>
      </trkpt>
      <trkpt lat="43.5459" lon="1.15076">
        <ele>220</ele>
        <time>2020-11-29T08:58:16Z</time>
      </trkpt>
      <trkpt lat="43.54589" lon="1.1508">
        <ele>220.1</ele>
        <time>2020-11-29T08:58:17Z</time>
      </trkpt>
      <trkpt lat="43.54587" lon="1.15084">
        <ele>220.1</ele>
        <time>2020-11-29T08:58:18Z</time>
      </trkpt>
      <trkpt lat="43.54584" lon="1.15087">
        <ele>220.1</ele>
        <time>2020-11-29T08:58:19Z</time>
      </trkpt>
      <trkpt lat="43.54581" lon="1.1509">
        <ele>220.1</ele>
        <time>2020-11-29T08:58:20Z</time>
      </trkpt>
      <trkpt lat="43.54578" lon="1.15091">
        <ele>220.1</ele>
        <time>2020-11-29T08:58:21Z</time>
      </trkpt>
      <trkpt lat="43.54576" lon="1.15092">
        <ele>220.1</ele>
        <time>2020-11-29T08:58:22Z</time>
      </trkpt>
      <trkpt lat="43.54573" lon="1.15089">
        <ele>219.7</ele>
        <time>2020-11-29T08:58:23Z</time>
      </trkpt>
      <trkpt lat="43.54572" lon="1.15085">
        <ele>219.6</ele>
        <time>2020-11-29T08:58:24Z</time>
      </trkpt>
      <trkpt lat="43.54571" lon="1.15081">
        <ele>219.5</ele>
        <time>2020-11-29T08:58:25Z</time>
      </trkpt>
      <trkpt lat="43.54568" lon="1.15075">
        <ele>219.4</ele>
        <time>2020-11-29T08:58:26Z</time>
      </trkpt>
      <trkpt lat="43.54566" lon="1.1507">
        <ele>219.4</ele>
        <time>2020-11-29T08:58:27Z</time>
      </trkpt>
      <trkpt lat="43.54562" lon="1.15064">
        <ele>219.4</ele>
        <time>2020-11-29T08:58:28Z</time>
      </trkpt>
      <trkpt lat="43.54558" lon="1.15058">
        <ele>219.4</ele>
        <time>2020-11-29T08:58:29Z</time>
      </trkpt>
      <trkpt lat="43.54555" lon="1.15054">
        <ele>219.5</ele>
        <time>2020-11-29T08:58:30Z</time>
      </trkpt>
      <trkpt lat="43.54551" lon="1.1505">
        <ele>219.5</ele>
        <time>2020-11-29T08:58:31Z</time>
      </trkpt>
      <trkpt lat="43.54547" lon="1.15047">
        <ele>219.6</ele>
        <time>2020-11-29T08:58:32Z</time>
      </trkpt>
      <trkpt lat="43.54543" lon="1.15044">
        <ele>219.7</ele>
        <time>2020-11-29T08:58:33Z</time>
      </trkpt>
      <trkpt lat="43.54541" lon="1.15041">
        <ele>219.8</ele>
        <time>2020-11-29T08:58:34Z</time>
      </trkpt>
      <trkpt lat="43.54538" lon="1.15037">
        <ele>219.9</ele>
        <time>2020-11-29T08:58:35Z</time>
      </trkpt>
      <trkpt lat="43.54534" lon="1.15032">
        <ele>220</ele>
        <time>2020-11-29T08:58:36Z</time>
      </trkpt>
      <trkpt lat="43.54531" lon="1.15027">
        <ele>220</ele>
        <time>2020-11-29T08:58:37Z</time>
      </trkpt>
      <trkpt lat="43.54528" lon="1.15023">
        <ele>220.1</ele>
        <time>2020-11-29T08:58:38Z</time>
      </trkpt>
      <trkpt lat="43.54526" lon="1.15019">
        <ele>220.2</ele>
        <time>2020-11-29T08:58:39Z</time>
      </trkpt>
      <trkpt lat="43.54523" lon="1.15015">
        <ele>220.3</ele>
        <time>2020-11-29T08:58:40Z</time>
      </trkpt>
      <trkpt lat="43.5452" lon="1.1501">
        <ele>220.4</ele>
        <time>2020-11-29T08:58:41Z</time>
      </trkpt>
      <trkpt lat="43.54517" lon="1.15006">
        <ele>220.5</ele>
        <time>2020-11-29T08:58:42Z</time>
      </trkpt>
      <trkpt lat="43.54514" lon="1.15001">
        <ele>220.6</ele>
        <time>2020-11-29T08:58:43Z</time>
      </trkpt>
      <trkpt lat="43.54512" lon="1.14997">
        <ele>220.7</ele>
        <time>2020-11-29T08:58:44Z</time>
      </trkpt>
      <trkpt lat="43.5451" lon="1.14993">
        <ele>220.8</ele>
        <time>2020-11-29T08:58:45Z</time>
      </trkpt>
      <trkpt lat="43.54508" lon="1.14989">
        <ele>220.8</ele>
        <time>2020-11-29T08:58:46Z</time>
      </trkpt>
      <trkpt lat="43.54506" lon="1.14986">
        <ele>220.9</ele>
        <time>2020-11-29T08:58:47Z</time>
      </trkpt>
      <trkpt lat="43.54503" lon="1.1498">
        <ele>221</ele>
        <time>2020-11-29T08:58:48Z</time>
      </trkpt>
      <trkpt lat="43.54501" lon="1.14975">
        <ele>221.1</ele>
        <time>2020-11-29T08:58:49Z</time>
      </trkpt>
      <trkpt lat="43.54498" lon="1.14971">
        <ele>221.2</ele>
        <time>2020-11-29T08:58:50Z</time>
      </trkpt>
      <trkpt lat="43.54496" lon="1.14964">
        <ele>221.3</ele>
        <time>2020-11-29T08:58:51Z</time>
      </trkpt>
      <trkpt lat="43.54494" lon="1.14959">
        <ele>221.4</ele>
        <time>2020-11-29T08:58:52Z</time>
      </trkpt>
      <trkpt lat="43.54493" lon="1.14955">
        <ele>221.5</ele>
        <time>2020-11-29T08:58:53Z</time>
      </trkpt>
      <trkpt lat="43.54491" lon="1.14951">
        <ele>221.6</ele>
        <time>2020-11-29T08:58:54Z</time>
      </trkpt>
      <trkpt lat="43.54488" lon="1.14945">
        <ele>221.7</ele>
        <time>2020-11-29T08:58:55Z</time>
      </trkpt>
      <trkpt lat="43.54486" lon="1.14939">
        <ele>221.8</ele>
        <time>2020-11-29T08:58:56Z</time>
      </trkpt>
      <trkpt lat="43.54484" lon="1.14933">
        <ele>221.9</ele>
        <time>2020-11-29T08:58:57Z</time>
      </trkpt>
      <trkpt lat="43.54481" lon="1.14927">
        <ele>222</ele>
        <time>2020-11-29T08:58:58Z</time>
      </trkpt>
      <trkpt lat="43.54479" lon="1.14921">
        <ele>222.1</ele>
        <time>2020-11-29T08:58:59Z</time>
      </trkpt>
      <trkpt lat="43.54477" lon="1.14916">
        <ele>222.2</ele>
        <time>2020-11-29T08:59:00Z</time>
      </trkpt>
      <trkpt lat="43.54475" lon="1.14912">
        <ele>222.3</ele>
        <time>2020-11-29T08:59:01Z</time>
      </trkpt>
      <trkpt lat="43.54472" lon="1.14906">
        <ele>222.4</ele>
        <time>2020-11-29T08:59:02Z</time>
      </trkpt>
      <trkpt lat="43.5447" lon="1.14901">
        <ele>222.5</ele>
        <time>2020-11-29T08:59:03Z</time>
      </trkpt>
      <trkpt lat="43.54468" lon="1.14896">
        <ele>222.6</ele>
        <time>2020-11-29T08:59:04Z</time>
      </trkpt>
      <trkpt lat="43.54466" lon="1.14892">
        <ele>222.6</ele>
        <time>2020-11-29T08:59:05Z</time>
      </trkpt>
      <trkpt lat="43.54464" lon="1.14887">
        <ele>222.7</ele>
        <time>2020-11-29T08:59:06Z</time>
      </trkpt>
      <trkpt lat="43.54461" lon="1.14882">
        <ele>222.8</ele>
        <time>2020-11-29T08:59:07Z</time>
      </trkpt>
      <trkpt lat="43.5446" lon="1.14878">
        <ele>222.8</ele>
        <time>2020-11-29T08:59:08Z</time>
      </trkpt>
      <trkpt lat="43.54458" lon="1.14874">
        <ele>222.9</ele>
        <time>2020-11-29T08:59:09Z</time>
      </trkpt>
      <trkpt lat="43.54455" lon="1.14869">
        <ele>223</ele>
        <time>2020-11-29T08:59:10Z</time>
      </trkpt>
      <trkpt lat="43.54453" lon="1.14862">
        <ele>223.1</ele>
        <time>2020-11-29T08:59:11Z</time>
      </trkpt>
      <trkpt lat="43.54451" lon="1.14858">
        <ele>223.2</ele>
        <time>2020-11-29T08:59:12Z</time>
      </trkpt>
      <trkpt lat="43.54449" lon="1.14854">
        <ele>223.3</ele>
        <time>2020-11-29T08:59:13Z</time>
      </trkpt>
      <trkpt lat="43.54445" lon="1.1485">
        <ele>223.3</ele>
        <time>2020-11-29T08:59:14Z</time>
      </trkpt>
      <trkpt lat="43.54442" lon="1.14846">
        <ele>223.4</ele>
        <time>2020-11-29T08:59:15Z</time>
      </trkpt>
      <trkpt lat="43.54438" lon="1.14842">
        <ele>223.6</ele>
        <time>2020-11-29T08:59:16Z</time>
      </trkpt>
      <trkpt lat="43.54436" lon="1.14838">
        <ele>223.6</ele>
        <time>2020-11-29T08:59:17Z</time>
      </trkpt>
      <trkpt lat="43.54433" lon="1.14833">
        <ele>223.7</ele>
        <time>2020-11-29T08:59:18Z</time>
      </trkpt>
      <trkpt lat="43.54431" lon="1.14828">
        <ele>223.9</ele>
        <time>2020-11-29T08:59:19Z</time>
      </trkpt>
      <trkpt lat="43.54428" lon="1.14823">
        <ele>223.9</ele>
        <time>2020-11-29T08:59:20Z</time>
      </trkpt>
      <trkpt lat="43.54425" lon="1.14818">
        <ele>224</ele>
        <time>2020-11-29T08:59:21Z</time>
      </trkpt>
      <trkpt lat="43.54422" lon="1.14813">
        <ele>224.1</ele>
        <time>2020-11-29T08:59:22Z</time>
      </trkpt>
      <trkpt lat="43.54418" lon="1.14808">
        <ele>224.1</ele>
        <time>2020-11-29T08:59:23Z</time>
      </trkpt>
      <trkpt lat="43.54415" lon="1.14804">
        <ele>224.2</ele>
        <time>2020-11-29T08:59:24Z</time>
      </trkpt>
      <trkpt lat="43.54411" lon="1.14799">
        <ele>224.2</ele>
        <time>2020-11-29T08:59:25Z</time>
      </trkpt>
      <trkpt lat="43.54408" lon="1.14795">
        <ele>224.2</ele>
        <time>2020-11-29T08:59:26Z</time>
      </trkpt>
      <trkpt lat="43.54405" lon="1.14791">
        <ele>224.2</ele>
        <time>2020-11-29T08:59:27Z</time>
      </trkpt>
      <trkpt lat="43.54402" lon="1.14787">
        <ele>224.1</ele>
        <time>2020-11-29T08:59:28Z</time>
      </trkpt>
      <trkpt lat="43.54398" lon="1.14782">
        <ele>224.1</ele>
        <time>2020-11-29T08:59:29Z</time>
      </trkpt>
      <trkpt lat="43.54396" lon="1.14778">
        <ele>224.1</ele>
        <time>2020-11-29T08:59:30Z</time>
      </trkpt>
      <trkpt lat="43.54393" lon="1.14775">
        <ele>224.1</ele>
        <time>2020-11-29T08:59:31Z</time>
      </trkpt>
      <trkpt lat="43.5439" lon="1.14771">
        <ele>224</ele>
        <time>2020-11-29T08:59:32Z</time>
      </trkpt>
      <trkpt lat="43.54386" lon="1.14766">
        <ele>224</ele>
        <time>2020-11-29T08:59:33Z</time>
      </trkpt>
      <trkpt lat="43.54382" lon="1.14762">
        <ele>223.9</ele>
        <time>2020-11-29T08:59:34Z</time>
      </trkpt>
      <trkpt lat="43.54378" lon="1.14758">
        <ele>223.9</ele>
        <time>2020-11-29T08:59:35Z</time>
      </trkpt>
      <trkpt lat="43.54373" lon="1.14754">
        <ele>223.9</ele>
        <time>2020-11-29T08:59:36Z</time>
      </trkpt>
      <trkpt lat="43.54369" lon="1.14751">
        <ele>223.9</ele>
        <time>2020-11-29T08:59:37Z</time>
      </trkpt>
      <trkpt lat="43.54366" lon="1.14747">
        <ele>223.9</ele>
        <time>2020-11-29T08:59:38Z</time>
      </trkpt>
      <trkpt lat="43.54362" lon="1.14744">
        <ele>223.9</ele>
        <time>2020-11-29T08:59:39Z</time>
      </trkpt>
      <trkpt lat="43.54359" lon="1.14741">
        <ele>223.9</ele>
        <time>2020-11-29T08:59:40Z</time>
      </trkpt>
      <trkpt lat="43.54355" lon="1.14736">
        <ele>224</ele>
        <time>2020-11-29T08:59:41Z</time>
      </trkpt>
      <trkpt lat="43.54351" lon="1.14731">
        <ele>224</ele>
        <time>2020-11-29T08:59:42Z</time>
      </trkpt>
      <trkpt lat="43.54349" lon="1.14727">
        <ele>224.1</ele>
        <time>2020-11-29T08:59:43Z</time>
      </trkpt>
      <trkpt lat="43.54346" lon="1.14723">
        <ele>224.1</ele>
        <time>2020-11-29T08:59:44Z</time>
      </trkpt>
      <trkpt lat="43.54344" lon="1.1472">
        <ele>224.2</ele>
        <time>2020-11-29T08:59:45Z</time>
      </trkpt>
      <trkpt lat="43.54341" lon="1.14717">
        <ele>224.3</ele>
        <time>2020-11-29T08:59:46Z</time>
      </trkpt>
      <trkpt lat="43.54338" lon="1.14714">
        <ele>224.3</ele>
        <time>2020-11-29T08:59:47Z</time>
      </trkpt>
      <trkpt lat="43.54336" lon="1.14711">
        <ele>224.4</ele>
        <time>2020-11-29T08:59:48Z</time>
      </trkpt>
      <trkpt lat="43.54333" lon="1.14707">
        <ele>224.5</ele>
        <time>2020-11-29T08:59:49Z</time>
      </trkpt>
      <trkpt lat="43.5433" lon="1.14703">
        <ele>224.6</ele>
        <time>2020-11-29T08:59:50Z</time>
      </trkpt>
      <trkpt lat="43.54326" lon="1.14698">
        <ele>224.7</ele>
        <time>2020-11-29T08:59:51Z</time>
      </trkpt>
      <trkpt lat="43.54321" lon="1.14695">
        <ele>224.8</ele>
        <time>2020-11-29T08:59:52Z</time>
      </trkpt>
      <trkpt lat="43.54317" lon="1.14691">
        <ele>224.9</ele>
        <time>2020-11-29T08:59:53Z</time>
      </trkpt>
      <trkpt lat="43.54312" lon="1.14687">
        <ele>225</ele>
        <time>2020-11-29T08:59:54Z</time>
      </trkpt>
      <trkpt lat="43.54307" lon="1.14683">
        <ele>225.1</ele>
        <time>2020-11-29T08:59:55Z</time>
      </trkpt>
      <trkpt lat="43.54303" lon="1.14678">
        <ele>225.2</ele>
        <time>2020-11-29T08:59:56Z</time>
      </trkpt>
      <trkpt lat="43.54299" lon="1.14675">
        <ele>225.4</ele>
        <time>2020-11-29T08:59:57Z</time>
      </trkpt>
      <trkpt lat="43.54295" lon="1.14671">
        <ele>225.5</ele>
        <time>2020-11-29T08:59:58Z</time>
      </trkpt>
      <trkpt lat="43.54292" lon="1.14667">
        <ele>225.5</ele>
        <time>2020-11-29T08:59:59Z</time>
      </trkpt>
      <trkpt lat="43.54288" lon="1.14663">
        <ele>225.6</ele>
        <time>2020-11-29T09:00:00Z</time>
      </trkpt>
      <trkpt lat="43.54284" lon="1.14659">
        <ele>225.7</ele>
        <time>2020-11-29T09:00:01Z</time>
      </trkpt>
      <trkpt lat="43.5428" lon="1.14655">
        <ele>225.8</ele>
        <time>2020-11-29T09:00:02Z</time>
      </trkpt>
      <trkpt lat="43.54278" lon="1.1465">
        <ele>225.9</ele>
        <time>2020-11-29T09:00:03Z</time>
      </trkpt>
      <trkpt lat="43.54274" lon="1.14646">
        <ele>225.9</ele>
        <time>2020-11-29T09:00:04Z</time>
      </trkpt>
      <trkpt lat="43.5427" lon="1.1464">
        <ele>226</ele>
        <time>2020-11-29T09:00:05Z</time>
      </trkpt>
      <trkpt lat="43.54267" lon="1.14635">
        <ele>226.1</ele>
        <time>2020-11-29T09:00:06Z</time>
      </trkpt>
      <trkpt lat="43.54264" lon="1.14631">
        <ele>226.2</ele>
        <time>2020-11-29T09:00:07Z</time>
      </trkpt>
      <trkpt lat="43.54262" lon="1.14627">
        <ele>226.2</ele>
        <time>2020-11-29T09:00:08Z</time>
      </trkpt>
      <trkpt lat="43.54259" lon="1.14623">
        <ele>226.3</ele>
        <time>2020-11-29T09:00:09Z</time>
      </trkpt>
      <trkpt lat="43.54257" lon="1.14619">
        <ele>226.3</ele>
        <time>2020-11-29T09:00:10Z</time>
      </trkpt>
      <trkpt lat="43.54254" lon="1.14614">
        <ele>226.4</ele>
        <time>2020-11-29T09:00:11Z</time>
      </trkpt>
      <trkpt lat="43.54251" lon="1.14608">
        <ele>226.5</ele>
        <time>2020-11-29T09:00:12Z</time>
      </trkpt>
      <trkpt lat="43.54247" lon="1.14604">
        <ele>226.6</ele>
        <time>2020-11-29T09:00:13Z</time>
      </trkpt>
      <trkpt lat="43.54244" lon="1.14599">
        <ele>226.7</ele>
        <time>2020-11-29T09:00:14Z</time>
      </trkpt>
      <trkpt lat="43.54241" lon="1.14595">
        <ele>226.8</ele>
        <time>2020-11-29T09:00:15Z</time>
      </trkpt>
      <trkpt lat="43.54238" lon="1.14594">
        <ele>226.8</ele>
        <time>2020-11-29T09:00:16Z</time>
      </trkpt>
      <trkpt lat="43.54234" lon="1.1459">
        <ele>227</ele>
        <time>2020-11-29T09:00:17Z</time>
      </trkpt>
      <trkpt lat="43.54231" lon="1.14587">
        <ele>227.1</ele>
        <time>2020-11-29T09:00:18Z</time>
      </trkpt>
      <trkpt lat="43.54228" lon="1.14583">
        <ele>227.2</ele>
        <time>2020-11-29T09:00:19Z</time>
      </trkpt>
      <trkpt lat="43.54225" lon="1.14578">
        <ele>227.4</ele>
        <time>2020-11-29T09:00:20Z</time>
      </trkpt>
      <trkpt lat="43.54221" lon="1.14575">
        <ele>227.6</ele>
        <time>2020-11-29T09:00:21Z</time>
      </trkpt>
      <trkpt lat="43.54218" lon="1.1457">
        <ele>227.8</ele>
        <time>2020-11-29T09:00:22Z</time>
      </trkpt>
      <trkpt lat="43.54215" lon="1.14565">
        <ele>227.9</ele>
        <time>2020-11-29T09:00:23Z</time>
      </trkpt>
      <trkpt lat="43.54211" lon="1.14559">
        <ele>228.2</ele>
        <time>2020-11-29T09:00:24Z</time>
      </trkpt>
      <trkpt lat="43.54208" lon="1.14555">
        <ele>228.3</ele>
        <time>2020-11-29T09:00:25Z</time>
      </trkpt>
      <trkpt lat="43.54205" lon="1.14554">
        <ele>228.5</ele>
        <time>2020-11-29T09:00:26Z</time>
      </trkpt>
      <trkpt lat="43.54202" lon="1.1455">
        <ele>228.6</ele>
        <time>2020-11-29T09:00:27Z</time>
      </trkpt>
      <trkpt lat="43.54198" lon="1.14547">
        <ele>228.8</ele>
        <time>2020-11-29T09:00:28Z</time>
      </trkpt>
      <trkpt lat="43.54195" lon="1.14543">
        <ele>229</ele>
        <time>2020-11-29T09:00:29Z</time>
      </trkpt>
      <trkpt lat="43.5419" lon="1.14538">
        <ele>229.1</ele>
        <time>2020-11-29T09:00:30Z</time>
      </trkpt>
      <trkpt lat="43.54186" lon="1.14533">
        <ele>229.3</ele>
        <time>2020-11-29T09:00:31Z</time>
      </trkpt>
      <trkpt lat="43.54182" lon="1.14529">
        <ele>229.4</ele>
        <time>2020-11-29T09:00:32Z</time>
      </trkpt>
      <trkpt lat="43.54179" lon="1.14525">
        <ele>229.5</ele>
        <time>2020-11-29T09:00:33Z</time>
      </trkpt>
      <trkpt lat="43.54176" lon="1.14521">
        <ele>229.6</ele>
        <time>2020-11-29T09:00:34Z</time>
      </trkpt>
      <trkpt lat="43.54172" lon="1.14518">
        <ele>229.7</ele>
        <time>2020-11-29T09:00:35Z</time>
      </trkpt>
      <trkpt lat="43.54169" lon="1.14514">
        <ele>229.8</ele>
        <time>2020-11-29T09:00:36Z</time>
      </trkpt>
      <trkpt lat="43.54165" lon="1.14511">
        <ele>229.9</ele>
        <time>2020-11-29T09:00:37Z</time>
      </trkpt>
      <trkpt lat="43.54162" lon="1.14508">
        <ele>230.1</ele>
        <time>2020-11-29T09:00:38Z</time>
      </trkpt>
      <trkpt lat="43.54158" lon="1.14501">
        <ele>230.2</ele>
        <time>2020-11-29T09:00:39Z</time>
      </trkpt>
      <trkpt lat="43.54154" lon="1.14496">
        <ele>230.4</ele>
        <time>2020-11-29T09:00:40Z</time>
      </trkpt>
      <trkpt lat="43.54151" lon="1.14491">
        <ele>230.6</ele>
        <time>2020-11-29T09:00:41Z</time>
      </trkpt>
      <trkpt lat="43.54147" lon="1.14488">
        <ele>230.8</ele>
        <time>2020-11-29T09:00:42Z</time>
      </trkpt>
      <trkpt lat="43.54144" lon="1.14484">
        <ele>230.9</ele>
        <time>2020-11-29T09:00:43Z</time>
      </trkpt>
      <trkpt lat="43.54141" lon="1.1448">
        <ele>231</ele>
        <time>2020-11-29T09:00:44Z</time>
      </trkpt>
      <trkpt lat="43.54138" lon="1.14476">
        <ele>231.2</ele>
        <time>2020-11-29T09:00:45Z</time>
      </trkpt>
      <trkpt lat="43.54135" lon="1.14472">
        <ele>231.3</ele>
        <time>2020-11-29T09:00:46Z</time>
      </trkpt>
      <trkpt lat="43.54133" lon="1.14468">
        <ele>231.5</ele>
        <time>2020-11-29T09:00:47Z</time>
      </trkpt>
      <trkpt lat="43.5413" lon="1.14465">
        <ele>231.6</ele>
        <time>2020-11-29T09:00:48Z</time>
      </trkpt>
      <trkpt lat="43.54127" lon="1.14463">
        <ele>231.7</ele>
        <time>2020-11-29T09:00:49Z</time>
      </trkpt>
      <trkpt lat="43.54124" lon="1.14458">
        <ele>231.8</ele>
        <time>2020-11-29T09:00:50Z</time>
      </trkpt>
      <trkpt lat="43.5412" lon="1.14454">
        <ele>232</ele>
        <time>2020-11-29T09:00:51Z</time>
      </trkpt>
      <trkpt lat="43.54116" lon="1.1445">
        <ele>232.1</ele>
        <time>2020-11-29T09:00:52Z</time>
      </trkpt>
      <trkpt lat="43.54112" lon="1.14446">
        <ele>232.3</ele>
        <time>2020-11-29T09:00:53Z</time>
      </trkpt>
      <trkpt lat="43.54109" lon="1.14441">
        <ele>232.4</ele>
        <time>2020-11-29T09:00:54Z</time>
      </trkpt>
      <trkpt lat="43.54105" lon="1.14437">
        <ele>232.5</ele>
        <time>2020-11-29T09:00:55Z</time>
      </trkpt>
      <trkpt lat="43.54102" lon="1.14432">
        <ele>232.6</ele>
        <time>2020-11-29T09:00:56Z</time>
      </trkpt>
      <trkpt lat="43.54098" lon="1.14428">
        <ele>232.7</ele>
        <time>2020-11-29T09:00:57Z</time>
      </trkpt>
      <trkpt lat="43.54094" lon="1.14423">
        <ele>232.8</ele>
        <time>2020-11-29T09:00:58Z</time>
      </trkpt>
      <trkpt lat="43.54091" lon="1.1442">
        <ele>233</ele>
        <time>2020-11-29T09:00:59Z</time>
      </trkpt>
      <trkpt lat="43.54087" lon="1.14416">
        <ele>233.2</ele>
        <time>2020-11-29T09:01:00Z</time>
      </trkpt>
      <trkpt lat="43.54083" lon="1.14413">
        <ele>233.3</ele>
        <time>2020-11-29T09:01:01Z</time>
      </trkpt>
      <trkpt lat="43.54081" lon="1.14411">
        <ele>233.5</ele>
        <time>2020-11-29T09:01:02Z</time>
      </trkpt>
      <trkpt lat="43.54077" lon="1.14407">
        <ele>233.7</ele>
        <time>2020-11-29T09:01:03Z</time>
      </trkpt>
      <trkpt lat="43.54074" lon="1.14404">
        <ele>233.9</ele>
        <time>2020-11-29T09:01:04Z</time>
      </trkpt>
      <trkpt lat="43.54071" lon="1.144">
        <ele>234.1</ele>
        <time>2020-11-29T09:01:05Z</time>
      </trkpt>
      <trkpt lat="43.54068" lon="1.14396">
        <ele>234.5</ele>
        <time>2020-11-29T09:01:06Z</time>
      </trkpt>
      <trkpt lat="43.54065" lon="1.14393">
        <ele>234.7</ele>
        <time>2020-11-29T09:01:07Z</time>
      </trkpt>
      <trkpt lat="43.54062" lon="1.14391">
        <ele>234.9</ele>
        <time>2020-11-29T09:01:08Z</time>
      </trkpt>
      <trkpt lat="43.5406" lon="1.14391">
        <ele>235</ele>
        <time>2020-11-29T09:01:09Z</time>
      </trkpt>
      <trkpt lat="43.54059" lon="1.14391">
        <ele>235.1</ele>
        <time>2020-11-29T09:01:10Z</time>
      </trkpt>
      <trkpt lat="43.54058" lon="1.14395">
        <ele>235.2</ele>
        <time>2020-11-29T09:01:11Z</time>
      </trkpt>
      <trkpt lat="43.54058" lon="1.14397">
        <ele>235.3</ele>
        <time>2020-11-29T09:01:12Z</time>
      </trkpt>
      <trkpt lat="43.54058" lon="1.14401">
        <ele>235.4</ele>
        <time>2020-11-29T09:01:13Z</time>
      </trkpt>
      <trkpt lat="43.54057" lon="1.14403">
        <ele>235.4</ele>
        <time>2020-11-29T09:01:14Z</time>
      </trkpt>
      <trkpt lat="43.54056" lon="1.14405">
        <ele>235.5</ele>
        <time>2020-11-29T09:01:15Z</time>
      </trkpt>
      <trkpt lat="43.54055" lon="1.14406">
        <ele>235.5</ele>
        <time>2020-11-29T09:01:16Z</time>
      </trkpt>
      <trkpt lat="43.54053" lon="1.14406">
        <ele>235.6</ele>
        <time>2020-11-29T09:01:17Z</time>
      </trkpt>
      <trkpt lat="43.54049" lon="1.14403">
        <ele>235.7</ele>
        <time>2020-11-29T09:01:18Z</time>
      </trkpt>
      <trkpt lat="43.54047" lon="1.14403">
        <ele>235.8</ele>
        <time>2020-11-29T09:01:19Z</time>
      </trkpt>
      <trkpt lat="43.54044" lon="1.14401">
        <ele>235.9</ele>
        <time>2020-11-29T09:01:20Z</time>
      </trkpt>
      <trkpt lat="43.5404" lon="1.144">
        <ele>236</ele>
        <time>2020-11-29T09:01:21Z</time>
      </trkpt>
      <trkpt lat="43.54037" lon="1.144">
        <ele>236.1</ele>
        <time>2020-11-29T09:01:22Z</time>
      </trkpt>
      <trkpt lat="43.54034" lon="1.14398">
        <ele>236.2</ele>
        <time>2020-11-29T09:01:23Z</time>
      </trkpt>
      <trkpt lat="43.54031" lon="1.14397">
        <ele>236.3</ele>
        <time>2020-11-29T09:01:24Z</time>
      </trkpt>
      <trkpt lat="43.54028" lon="1.14396">
        <ele>236.5</ele>
        <time>2020-11-29T09:01:25Z</time>
      </trkpt>
      <trkpt lat="43.54025" lon="1.14393">
        <ele>236.6</ele>
        <time>2020-11-29T09:01:26Z</time>
      </trkpt>
      <trkpt lat="43.54022" lon="1.14391">
        <ele>236.7</ele>
        <time>2020-11-29T09:01:27Z</time>
      </trkpt>
      <trkpt lat="43.54019" lon="1.14389">
        <ele>236.8</ele>
        <time>2020-11-29T09:01:28Z</time>
      </trkpt>
      <trkpt lat="43.54016" lon="1.14389">
        <ele>237</ele>
        <time>2020-11-29T09:01:29Z</time>
      </trkpt>
      <trkpt lat="43.54013" lon="1.14387">
        <ele>237.1</ele>
        <time>2020-11-29T09:01:30Z</time>
      </trkpt>
      <trkpt lat="43.5401" lon="1.14386">
        <ele>237.2</ele>
        <time>2020-11-29T09:01:31Z</time>
      </trkpt>
      <trkpt lat="43.54006" lon="1.14384">
        <ele>237.4</ele>
        <time>2020-11-29T09:01:32Z</time>
      </trkpt>
      <trkpt lat="43.54003" lon="1.14383">
        <ele>237.6</ele>
        <time>2020-11-29T09:01:33Z</time>
      </trkpt>
      <trkpt lat="43.54" lon="1.14381">
        <ele>237.7</ele>
        <time>2020-11-29T09:01:34Z</time>
      </trkpt>
      <trkpt lat="43.53996" lon="1.14379">
        <ele>237.9</ele>
        <time>2020-11-29T09:01:35Z</time>
      </trkpt>
      <trkpt lat="43.53994" lon="1.14379">
        <ele>238</ele>
        <time>2020-11-29T09:01:36Z</time>
      </trkpt>
      <trkpt lat="43.53992" lon="1.14377">
        <ele>238.1</ele>
        <time>2020-11-29T09:01:37Z</time>
      </trkpt>
      <trkpt lat="43.53989" lon="1.14376">
        <ele>238.3</ele>
        <time>2020-11-29T09:01:38Z</time>
      </trkpt>
      <trkpt lat="43.53985" lon="1.14375">
        <ele>238.4</ele>
        <time>2020-11-29T09:01:39Z</time>
      </trkpt>
      <trkpt lat="43.53982" lon="1.14375">
        <ele>238.6</ele>
        <time>2020-11-29T09:01:40Z</time>
      </trkpt>
      <trkpt lat="43.53979" lon="1.14375">
        <ele>238.8</ele>
        <time>2020-11-29T09:01:41Z</time>
      </trkpt>
      <trkpt lat="43.53975" lon="1.14374">
        <ele>239</ele>
        <time>2020-11-29T09:01:42Z</time>
      </trkpt>
      <trkpt lat="43.53971" lon="1.14372">
        <ele>239.2</ele>
        <time>2020-11-29T09:01:43Z</time>
      </trkpt>
      <trkpt lat="43.53967" lon="1.14371">
        <ele>239.4</ele>
        <time>2020-11-29T09:01:44Z</time>
      </trkpt>
      <trkpt lat="43.53963" lon="1.14371">
        <ele>239.7</ele>
        <time>2020-11-29T09:01:45Z</time>
      </trkpt>
      <trkpt lat="43.5396" lon="1.14371">
        <ele>239.9</ele>
        <time>2020-11-29T09:01:46Z</time>
      </trkpt>
      <trkpt lat="43.53956" lon="1.14371">
        <ele>240.1</ele>
        <time>2020-11-29T09:01:47Z</time>
      </trkpt>
      <trkpt lat="43.53952" lon="1.1437">
        <ele>240.3</ele>
        <time>2020-11-29T09:01:48Z</time>
      </trkpt>
      <trkpt lat="43.53948" lon="1.14368">
        <ele>240.5</ele>
        <time>2020-11-29T09:01:49Z</time>
      </trkpt>
      <trkpt lat="43.53945" lon="1.14368">
        <ele>240.7</ele>
        <time>2020-11-29T09:01:50Z</time>
      </trkpt>
      <trkpt lat="43.53942" lon="1.14368">
        <ele>240.9</ele>
        <time>2020-11-29T09:01:51Z</time>
      </trkpt>
      <trkpt lat="43.53938" lon="1.14367">
        <ele>241.1</ele>
        <time>2020-11-29T09:01:52Z</time>
      </trkpt>
      <trkpt lat="43.53934" lon="1.14367">
        <ele>241.3</ele>
        <time>2020-11-29T09:01:53Z</time>
      </trkpt>
      <trkpt lat="43.53931" lon="1.14368">
        <ele>241.5</ele>
        <time>2020-11-29T09:01:54Z</time>
      </trkpt>
      <trkpt lat="43.53928" lon="1.14368">
        <ele>241.7</ele>
        <time>2020-11-29T09:01:55Z</time>
      </trkpt>
      <trkpt lat="43.53925" lon="1.14369">
        <ele>241.8</ele>
        <time>2020-11-29T09:01:56Z</time>
      </trkpt>
      <trkpt lat="43.53922" lon="1.14368">
        <ele>242</ele>
        <time>2020-11-29T09:01:57Z</time>
      </trkpt>
      <trkpt lat="43.53919" lon="1.14368">
        <ele>242.2</ele>
        <time>2020-11-29T09:01:58Z</time>
      </trkpt>
      <trkpt lat="43.53916" lon="1.14368">
        <ele>242.4</ele>
        <time>2020-11-29T09:01:59Z</time>
      </trkpt>
      <trkpt lat="43.53912" lon="1.14369">
        <ele>242.6</ele>
        <time>2020-11-29T09:02:00Z</time>
      </trkpt>
      <trkpt lat="43.53911" lon="1.14369">
        <ele>242.7</ele>
        <time>2020-11-29T09:02:01Z</time>
      </trkpt>
      <trkpt lat="43.53907" lon="1.14368">
        <ele>242.9</ele>
        <time>2020-11-29T09:02:02Z</time>
      </trkpt>
      <trkpt lat="43.53906" lon="1.14368">
        <ele>243</ele>
        <time>2020-11-29T09:02:03Z</time>
      </trkpt>
      <trkpt lat="43.53902" lon="1.14367">
        <ele>243.2</ele>
        <time>2020-11-29T09:02:04Z</time>
      </trkpt>
      <trkpt lat="43.53901" lon="1.14367">
        <ele>243.3</ele>
        <time>2020-11-29T09:02:05Z</time>
      </trkpt>
      <trkpt lat="43.53898" lon="1.14366">
        <ele>243.5</ele>
        <time>2020-11-29T09:02:06Z</time>
      </trkpt>
      <trkpt lat="43.53895" lon="1.14365">
        <ele>243.7</ele>
        <time>2020-11-29T09:02:07Z</time>
      </trkpt>
      <trkpt lat="43.53892" lon="1.14365">
        <ele>244</ele>
        <time>2020-11-29T09:02:08Z</time>
      </trkpt>
      <trkpt lat="43.53889" lon="1.14364">
        <ele>244.2</ele>
        <time>2020-11-29T09:02:09Z</time>
      </trkpt>
      <trkpt lat="43.53887" lon="1.14364">
        <ele>244.3</ele>
        <time>2020-11-29T09:02:10Z</time>
      </trkpt>
      <trkpt lat="43.53885" lon="1.14363">
        <ele>244.5</ele>
        <time>2020-11-29T09:02:11Z</time>
      </trkpt>
      <trkpt lat="43.53881" lon="1.14362">
        <ele>244.8</ele>
        <time>2020-11-29T09:02:12Z</time>
      </trkpt>
      <trkpt lat="43.53877" lon="1.14362">
        <ele>245.1</ele>
        <time>2020-11-29T09:02:13Z</time>
      </trkpt>
      <trkpt lat="43.53876" lon="1.14362">
        <ele>245.3</ele>
        <time>2020-11-29T09:02:14Z</time>
      </trkpt>
      <trkpt lat="43.53873" lon="1.1436">
        <ele>245.6</ele>
        <time>2020-11-29T09:02:15Z</time>
      </trkpt>
      <trkpt lat="43.53869" lon="1.1436">
        <ele>245.9</ele>
        <time>2020-11-29T09:02:16Z</time>
      </trkpt>
      <trkpt lat="43.53867" lon="1.14361">
        <ele>246</ele>
        <time>2020-11-29T09:02:17Z</time>
      </trkpt>
      <trkpt lat="43.53864" lon="1.14361">
        <ele>246.3</ele>
        <time>2020-11-29T09:02:18Z</time>
      </trkpt>
      <trkpt lat="43.53862" lon="1.14361">
        <ele>246.4</ele>
        <time>2020-11-29T09:02:19Z</time>
      </trkpt>
      <trkpt lat="43.53859" lon="1.14358">
        <ele>246.7</ele>
        <time>2020-11-29T09:02:20Z</time>
      </trkpt>
      <trkpt lat="43.53857" lon="1.14358">
        <ele>246.8</ele>
        <time>2020-11-29T09:02:21Z</time>
      </trkpt>
      <trkpt lat="43.53855" lon="1.14357">
        <ele>247.1</ele>
        <time>2020-11-29T09:02:22Z</time>
      </trkpt>
      <trkpt lat="43.53852" lon="1.14356">
        <ele>247.3</ele>
        <time>2020-11-29T09:02:23Z</time>
      </trkpt>
      <trkpt lat="43.53851" lon="1.14356">
        <ele>247.4</ele>
        <time>2020-11-29T09:02:24Z</time>
      </trkpt>
      <trkpt lat="43.53848" lon="1.14354">
        <ele>247.6</ele>
        <time>2020-11-29T09:02:25Z</time>
      </trkpt>
      <trkpt lat="43.53844" lon="1.14353">
        <ele>248</ele>
        <time>2020-11-29T09:02:26Z</time>
      </trkpt>
      <trkpt lat="43.53841" lon="1.14352">
        <ele>248.2</ele>
        <time>2020-11-29T09:02:27Z</time>
      </trkpt>
      <trkpt lat="43.53838" lon="1.14352">
        <ele>248.6</ele>
        <time>2020-11-29T09:02:28Z</time>
      </trkpt>
      <trkpt lat="43.53835" lon="1.14353">
        <ele>248.8</ele>
        <time>2020-11-29T09:02:29Z</time>
      </trkpt>
      <trkpt lat="43.53832" lon="1.14353">
        <ele>249.1</ele>
        <time>2020-11-29T09:02:30Z</time>
      </trkpt>
      <trkpt lat="43.53829" lon="1.14353">
        <ele>249.5</ele>
        <time>2020-11-29T09:02:31Z</time>
      </trkpt>
      <trkpt lat="43.53828" lon="1.14353">
        <ele>249.6</ele>
        <time>2020-11-29T09:02:32Z</time>
      </trkpt>
      <trkpt lat="43.53823" lon="1.14353">
        <ele>250</ele>
        <time>2020-11-29T09:02:33Z</time>
      </trkpt>
      <trkpt lat="43.53822" lon="1.14353">
        <ele>250.2</ele>
        <time>2020-11-29T09:02:34Z</time>
      </trkpt>
      <trkpt lat="43.53819" lon="1.14353">
        <ele>250.6</ele>
        <time>2020-11-29T09:02:35Z</time>
      </trkpt>
      <trkpt lat="43.53818" lon="1.14352">
        <ele>250.7</ele>
        <time>2020-11-29T09:02:36Z</time>
      </trkpt>
      <trkpt lat="43.53814" lon="1.1435">
        <ele>251.2</ele>
        <time>2020-11-29T09:02:37Z</time>
      </trkpt>
      <trkpt lat="43.53814" lon="1.14349">
        <ele>251.3</ele>
        <time>2020-11-29T09:02:38Z</time>
      </trkpt>
      <trkpt lat="43.53812" lon="1.14346">
        <ele>251.6</ele>
        <time>2020-11-29T09:02:39Z</time>
      </trkpt>
      <trkpt lat="43.53809" lon="1.14342">
        <ele>252.1</ele>
        <time>2020-11-29T09:02:40Z</time>
      </trkpt>
      <trkpt lat="43.53808" lon="1.1434">
        <ele>252.3</ele>
        <time>2020-11-29T09:02:41Z</time>
      </trkpt>
      <trkpt lat="43.53806" lon="1.14337">
        <ele>252.7</ele>
        <time>2020-11-29T09:02:42Z</time>
      </trkpt>
      <trkpt lat="43.53806" lon="1.14336">
        <ele>252.7</ele>
        <time>2020-11-29T09:02:43Z</time>
      </trkpt>
      <trkpt lat="43.53807" lon="1.14333">
        <ele>253</ele>
        <time>2020-11-29T09:02:44Z</time>
      </trkpt>
      <trkpt lat="43.53807" lon="1.14331">
        <ele>253.1</ele>
        <time>2020-11-29T09:02:45Z</time>
      </trkpt>
      <trkpt lat="43.53807" lon="1.1433">
        <ele>253.3</ele>
        <time>2020-11-29T09:02:46Z</time>
      </trkpt>
      <trkpt lat="43.53807" lon="1.14324">
        <ele>253.7</ele>
        <time>2020-11-29T09:02:47Z</time>
      </trkpt>
      <trkpt lat="43.53806" lon="1.14322">
        <ele>253.8</ele>
        <time>2020-11-29T09:02:48Z</time>
      </trkpt>
      <trkpt lat="43.53807" lon="1.14317">
        <ele>254.1</ele>
        <time>2020-11-29T09:02:49Z</time>
      </trkpt>
      <trkpt lat="43.53807" lon="1.14315">
        <ele>254.2</ele>
        <time>2020-11-29T09:02:50Z</time>
      </trkpt>
      <trkpt lat="43.53807" lon="1.14311">
        <ele>254.5</ele>
        <time>2020-11-29T09:02:51Z</time>
      </trkpt>
      <trkpt lat="43.53807" lon="1.14305">
        <ele>254.8</ele>
        <time>2020-11-29T09:02:52Z</time>
      </trkpt>
      <trkpt lat="43.53808" lon="1.14303">
        <ele>254.9</ele>
        <time>2020-11-29T09:02:53Z</time>
      </trkpt>
      <trkpt lat="43.53808" lon="1.14299">
        <ele>255.2</ele>
        <time>2020-11-29T09:02:54Z</time>
      </trkpt>
      <trkpt lat="43.53809" lon="1.14294">
        <ele>255.5</ele>
        <time>2020-11-29T09:02:55Z</time>
      </trkpt>
      <trkpt lat="43.53809" lon="1.14293">
        <ele>255.6</ele>
        <time>2020-11-29T09:02:56Z</time>
      </trkpt>
      <trkpt lat="43.53809" lon="1.14287">
        <ele>256</ele>
        <time>2020-11-29T09:02:57Z</time>
      </trkpt>
      <trkpt lat="43.53809" lon="1.14285">
        <ele>256.2</ele>
        <time>2020-11-29T09:02:58Z</time>
      </trkpt>
      <trkpt lat="43.53809" lon="1.14281">
        <ele>256.5</ele>
        <time>2020-11-29T09:02:59Z</time>
      </trkpt>
      <trkpt lat="43.5381" lon="1.14276">
        <ele>256.8</ele>
        <time>2020-11-29T09:03:00Z</time>
      </trkpt>
      <trkpt lat="43.53811" lon="1.14272">
        <ele>257.1</ele>
        <time>2020-11-29T09:03:01Z</time>
      </trkpt>
      <trkpt lat="43.53812" lon="1.14267">
        <ele>257.5</ele>
        <time>2020-11-29T09:03:02Z</time>
      </trkpt>
      <trkpt lat="43.53812" lon="1.14261">
        <ele>257.9</ele>
        <time>2020-11-29T09:03:03Z</time>
      </trkpt>
      <trkpt lat="43.53812" lon="1.14259">
        <ele>258.1</ele>
        <time>2020-11-29T09:03:04Z</time>
      </trkpt>
      <trkpt lat="43.53812" lon="1.14254">
        <ele>258.4</ele>
        <time>2020-11-29T09:03:05Z</time>
      </trkpt>
      <trkpt lat="43.53813" lon="1.14253">
        <ele>258.6</ele>
        <time>2020-11-29T09:03:06Z</time>
      </trkpt>
      <trkpt lat="43.53813" lon="1.14248">
        <ele>258.9</ele>
        <time>2020-11-29T09:03:07Z</time>
      </trkpt>
      <trkpt lat="43.53814" lon="1.14247">
        <ele>259</ele>
        <time>2020-11-29T09:03:08Z</time>
      </trkpt>
      <trkpt lat="43.53814" lon="1.14243">
        <ele>259.3</ele>
        <time>2020-11-29T09:03:09Z</time>
      </trkpt>
      <trkpt lat="43.53814" lon="1.14241">
        <ele>259.4</ele>
        <time>2020-11-29T09:03:10Z</time>
      </trkpt>
      <trkpt lat="43.53815" lon="1.14237">
        <ele>259.7</ele>
        <time>2020-11-29T09:03:11Z</time>
      </trkpt>
      <trkpt lat="43.53816" lon="1.14233">
        <ele>260</ele>
        <time>2020-11-29T09:03:12Z</time>
      </trkpt>
      <trkpt lat="43.53817" lon="1.14229">
        <ele>260.2</ele>
        <time>2020-11-29T09:03:13Z</time>
      </trkpt>
      <trkpt lat="43.53818" lon="1.14226">
        <ele>260.4</ele>
        <time>2020-11-29T09:03:14Z</time>
      </trkpt>
      <trkpt lat="43.53819" lon="1.14222">
        <ele>260.7</ele>
        <time>2020-11-29T09:03:15Z</time>
      </trkpt>
      <trkpt lat="43.53819" lon="1.14218">
        <ele>260.9</ele>
        <time>2020-11-29T09:03:16Z</time>
      </trkpt>
      <trkpt lat="43.5382" lon="1.14213">
        <ele>261.2</ele>
        <time>2020-11-29T09:03:17Z</time>
      </trkpt>
      <trkpt lat="43.5382" lon="1.14208">
        <ele>261.4</ele>
        <time>2020-11-29T09:03:18Z</time>
      </trkpt>
      <trkpt lat="43.53821" lon="1.14203">
        <ele>261.7</ele>
        <time>2020-11-29T09:03:19Z</time>
      </trkpt>
      <trkpt lat="43.53821" lon="1.14199">
        <ele>261.9</ele>
        <time>2020-11-29T09:03:20Z</time>
      </trkpt>
      <trkpt lat="43.5382" lon="1.14194">
        <ele>262.1</ele>
        <time>2020-11-29T09:03:21Z</time>
      </trkpt>
      <trkpt lat="43.53819" lon="1.14192">
        <ele>262.2</ele>
        <time>2020-11-29T09:03:22Z</time>
      </trkpt>
      <trkpt lat="43.53818" lon="1.1419">
        <ele>262.4</ele>
        <time>2020-11-29T09:03:23Z</time>
      </trkpt>
      <trkpt lat="43.53817" lon="1.14189">
        <ele>262.5</ele>
        <time>2020-11-29T09:03:24Z</time>
      </trkpt>
      <trkpt lat="43.53816" lon="1.14189">
        <ele>262.6</ele>
        <time>2020-11-29T09:03:25Z</time>
      </trkpt>
      <trkpt lat="43.53814" lon="1.14189">
        <ele>262.8</ele>
        <time>2020-11-29T09:03:26Z</time>
      </trkpt>
      <trkpt lat="43.53811" lon="1.14188">
        <ele>263.1</ele>
        <time>2020-11-29T09:03:27Z</time>
      </trkpt>
      <trkpt lat="43.53808" lon="1.14188">
        <ele>263.4</ele>
        <time>2020-11-29T09:03:28Z</time>
      </trkpt>
      <trkpt lat="43.53807" lon="1.14188">
        <ele>263.5</ele>
        <time>2020-11-29T09:03:29Z</time>
      </trkpt>
      <trkpt lat="43.53803" lon="1.14188">
        <ele>264</ele>
        <time>2020-11-29T09:03:30Z</time>
      </trkpt>
      <trkpt lat="43.53802" lon="1.14187">
        <ele>264.2</ele>
        <time>2020-11-29T09:03:31Z</time>
      </trkpt>
      <trkpt lat="43.53798" lon="1.14187">
        <ele>264.6</ele>
        <time>2020-11-29T09:03:32Z</time>
      </trkpt>
      <trkpt lat="43.53796" lon="1.14187">
        <ele>264.8</ele>
        <time>2020-11-29T09:03:33Z</time>
      </trkpt>
      <trkpt lat="43.53792" lon="1.14187">
        <ele>265.2</ele>
        <time>2020-11-29T09:03:34Z</time>
      </trkpt>
      <trkpt lat="43.53791" lon="1.14188">
        <ele>265.3</ele>
        <time>2020-11-29T09:03:35Z</time>
      </trkpt>
      <trkpt lat="43.5379" lon="1.14187">
        <ele>265.5</ele>
        <time>2020-11-29T09:03:36Z</time>
      </trkpt>
      <trkpt lat="43.53788" lon="1.14188">
        <ele>265.7</ele>
        <time>2020-11-29T09:03:37Z</time>
      </trkpt>
      <trkpt lat="43.53785" lon="1.14186">
        <ele>266</ele>
        <time>2020-11-29T09:03:38Z</time>
      </trkpt>
      <trkpt lat="43.53783" lon="1.14187">
        <ele>266.3</ele>
        <time>2020-11-29T09:03:39Z</time>
      </trkpt>
      <trkpt lat="43.53782" lon="1.14187">
        <ele>266.4</ele>
        <time>2020-11-29T09:03:40Z</time>
      </trkpt>
      <trkpt lat="43.53777" lon="1.14188">
        <ele>266.9</ele>
        <time>2020-11-29T09:03:41Z</time>
      </trkpt>
      <trkpt lat="43.53775" lon="1.14188">
        <ele>267.2</ele>
        <time>2020-11-29T09:03:42Z</time>
      </trkpt>
      <trkpt lat="43.53772" lon="1.14189">
        <ele>267.6</ele>
        <time>2020-11-29T09:03:43Z</time>
      </trkpt>
      <trkpt lat="43.53771" lon="1.1419">
        <ele>267.7</ele>
        <time>2020-11-29T09:03:44Z</time>
      </trkpt>
      <trkpt lat="43.53768" lon="1.14191">
        <ele>268.1</ele>
        <time>2020-11-29T09:03:45Z</time>
      </trkpt>
      <trkpt lat="43.53767" lon="1.14191">
        <ele>268.2</ele>
        <time>2020-11-29T09:03:46Z</time>
      </trkpt>
      <trkpt lat="43.53764" lon="1.14193">
        <ele>268.5</ele>
        <time>2020-11-29T09:03:47Z</time>
      </trkpt>
      <trkpt lat="43.5376" lon="1.14192">
        <ele>269</ele>
        <time>2020-11-29T09:03:48Z</time>
      </trkpt>
      <trkpt lat="43.53759" lon="1.14192">
        <ele>269.1</ele>
        <time>2020-11-29T09:03:49Z</time>
      </trkpt>
      <trkpt lat="43.53756" lon="1.14191">
        <ele>269.5</ele>
        <time>2020-11-29T09:03:50Z</time>
      </trkpt>
      <trkpt lat="43.53753" lon="1.14191">
        <ele>269.9</ele>
        <time>2020-11-29T09:03:51Z</time>
      </trkpt>
      <trkpt lat="43.53749" lon="1.14191">
        <ele>270.2</ele>
        <time>2020-11-29T09:03:52Z</time>
      </trkpt>
      <trkpt lat="43.53746" lon="1.14191">
        <ele>270.6</ele>
        <time>2020-11-29T09:03:53Z</time>
      </trkpt>
      <trkpt lat="43.53743" lon="1.14193">
        <ele>271</ele>
        <time>2020-11-29T09:03:54Z</time>
      </trkpt>
      <trkpt lat="43.53739" lon="1.14193">
        <ele>271.5</ele>
        <time>2020-11-29T09:03:55Z</time>
      </trkpt>
      <trkpt lat="43.53735" lon="1.14194">
        <ele>271.9</ele>
        <time>2020-11-29T09:03:56Z</time>
      </trkpt>
      <trkpt lat="43.53731" lon="1.14195">
        <ele>272.4</ele>
        <time>2020-11-29T09:03:57Z</time>
      </trkpt>
      <trkpt lat="43.53729" lon="1.14195">
        <ele>272.8</ele>
        <time>2020-11-29T09:03:58Z</time>
      </trkpt>
      <trkpt lat="43.53725" lon="1.14195">
        <ele>273.2</ele>
        <time>2020-11-29T09:03:59Z</time>
      </trkpt>
      <trkpt lat="43.53724" lon="1.14194">
        <ele>273.4</ele>
        <time>2020-11-29T09:04:00Z</time>
      </trkpt>
      <trkpt lat="43.53721" lon="1.14194">
        <ele>273.9</ele>
        <time>2020-11-29T09:04:01Z</time>
      </trkpt>
      <trkpt lat="43.5372" lon="1.14194">
        <ele>274.1</ele>
        <time>2020-11-29T09:04:02Z</time>
      </trkpt>
      <trkpt lat="43.53718" lon="1.14195">
        <ele>274.4</ele>
        <time>2020-11-29T09:04:03Z</time>
      </trkpt>
      <trkpt lat="43.53716" lon="1.14195">
        <ele>274.6</ele>
        <time>2020-11-29T09:04:04Z</time>
      </trkpt>
      <trkpt lat="43.53716" lon="1.14195">
        <ele>274.7</ele>
        <time>2020-11-29T09:04:05Z</time>
      </trkpt>
      <trkpt lat="43.53715" lon="1.14195">
        <ele>274.9</ele>
        <time>2020-11-29T09:04:06Z</time>
      </trkpt>
      <trkpt lat="43.53713" lon="1.14196">
        <ele>275.2</ele>
        <time>2020-11-29T09:04:07Z</time>
      </trkpt>
      <trkpt lat="43.53711" lon="1.14196">
        <ele>275.4</ele>
        <time>2020-11-29T09:04:08Z</time>
      </trkpt>
      <trkpt lat="43.53709" lon="1.14196">
        <ele>275.8</ele>
        <time>2020-11-29T09:04:09Z</time>
      </trkpt>
      <trkpt lat="43.53706" lon="1.14197">
        <ele>276.3</ele>
        <time>2020-11-29T09:04:10Z</time>
      </trkpt>
      <trkpt lat="43.53704" lon="1.14198">
        <ele>276.6</ele>
        <time>2020-11-29T09:04:11Z</time>
      </trkpt>
      <trkpt lat="43.537" lon="1.14199">
        <ele>277.3</ele>
        <time>2020-11-29T09:04:12Z</time>
      </trkpt>
      <trkpt lat="43.53697" lon="1.14201">
        <ele>277.9</ele>
        <time>2020-11-29T09:04:13Z</time>
      </trkpt>
      <trkpt lat="43.53694" lon="1.14202">
        <ele>278.4</ele>
        <time>2020-11-29T09:04:14Z</time>
      </trkpt>
      <trkpt lat="43.53691" lon="1.14203">
        <ele>278.8</ele>
        <time>2020-11-29T09:04:15Z</time>
      </trkpt>
      <trkpt lat="43.53688" lon="1.14204">
        <ele>279.3</ele>
        <time>2020-11-29T09:04:16Z</time>
      </trkpt>
      <trkpt lat="43.53685" lon="1.14205">
        <ele>279.8</ele>
        <time>2020-11-29T09:04:17Z</time>
      </trkpt>
      <trkpt lat="43.53682" lon="1.14205">
        <ele>280.2</ele>
        <time>2020-11-29T09:04:18Z</time>
      </trkpt>
      <trkpt lat="43.5368" lon="1.14204">
        <ele>280.5</ele>
        <time>2020-11-29T09:04:19Z</time>
      </trkpt>
      <trkpt lat="43.53679" lon="1.14203">
        <ele>280.7</ele>
        <time>2020-11-29T09:04:20Z</time>
      </trkpt>
      <trkpt lat="43.53675" lon="1.14203">
        <ele>281.3</ele>
        <time>2020-11-29T09:04:21Z</time>
      </trkpt>
      <trkpt lat="43.53674" lon="1.14203">
        <ele>281.5</ele>
        <time>2020-11-29T09:04:22Z</time>
      </trkpt>
      <trkpt lat="43.53672" lon="1.14202">
        <ele>281.8</ele>
        <time>2020-11-29T09:04:23Z</time>
      </trkpt>
      <trkpt lat="43.5367" lon="1.14202">
        <ele>282.1</ele>
        <time>2020-11-29T09:04:24Z</time>
      </trkpt>
      <trkpt lat="43.53669" lon="1.14202">
        <ele>282.3</ele>
        <time>2020-11-29T09:04:25Z</time>
      </trkpt>
      <trkpt lat="43.53667" lon="1.14202">
        <ele>282.6</ele>
        <time>2020-11-29T09:04:26Z</time>
      </trkpt>
      <trkpt lat="43.53663" lon="1.14204">
        <ele>283.1</ele>
        <time>2020-11-29T09:04:27Z</time>
      </trkpt>
      <trkpt lat="43.53662" lon="1.14204">
        <ele>283.3</ele>
        <time>2020-11-29T09:04:28Z</time>
      </trkpt>
      <trkpt lat="43.53659" lon="1.14204">
        <ele>283.8</ele>
        <time>2020-11-29T09:04:29Z</time>
      </trkpt>
      <trkpt lat="43.53657" lon="1.14204">
        <ele>284</ele>
        <time>2020-11-29T09:04:30Z</time>
      </trkpt>
      <trkpt lat="43.53653" lon="1.14203">
        <ele>284.5</ele>
        <time>2020-11-29T09:04:31Z</time>
      </trkpt>
      <trkpt lat="43.53651" lon="1.14203">
        <ele>284.8</ele>
        <time>2020-11-29T09:04:32Z</time>
      </trkpt>
      <trkpt lat="43.53648" lon="1.14203">
        <ele>285.4</ele>
        <time>2020-11-29T09:04:33Z</time>
      </trkpt>
      <trkpt lat="43.53646" lon="1.14202">
        <ele>285.5</ele>
        <time>2020-11-29T09:04:34Z</time>
      </trkpt>
      <trkpt lat="43.53643" lon="1.14203">
        <ele>285.9</ele>
        <time>2020-11-29T09:04:35Z</time>
      </trkpt>
      <trkpt lat="43.5364" lon="1.14203">
        <ele>286.4</ele>
        <time>2020-11-29T09:04:36Z</time>
      </trkpt>
      <trkpt lat="43.53639" lon="1.14204">
        <ele>286.5</ele>
        <time>2020-11-29T09:04:37Z</time>
      </trkpt>
      <trkpt lat="43.53636" lon="1.14203">
        <ele>286.9</ele>
        <time>2020-11-29T09:04:38Z</time>
      </trkpt>
      <trkpt lat="43.53635" lon="1.14203">
        <ele>287</ele>
        <time>2020-11-29T09:04:39Z</time>
      </trkpt>
      <trkpt lat="43.53631" lon="1.14203">
        <ele>287.5</ele>
        <time>2020-11-29T09:04:40Z</time>
      </trkpt>
      <trkpt lat="43.5363" lon="1.14203">
        <ele>287.6</ele>
        <time>2020-11-29T09:04:41Z</time>
      </trkpt>
      <trkpt lat="43.53627" lon="1.14201">
        <ele>287.9</ele>
        <time>2020-11-29T09:04:42Z</time>
      </trkpt>
      <trkpt lat="43.53626" lon="1.142">
        <ele>288.1</ele>
        <time>2020-11-29T09:04:43Z</time>
      </trkpt>
      <trkpt lat="43.53624" lon="1.14199">
        <ele>288.4</ele>
        <time>2020-11-29T09:04:44Z</time>
      </trkpt>
      <trkpt lat="43.53623" lon="1.14199">
        <ele>288.5</ele>
        <time>2020-11-29T09:04:45Z</time>
      </trkpt>
      <trkpt lat="43.53619" lon="1.14198">
        <ele>288.9</ele>
        <time>2020-11-29T09:04:46Z</time>
      </trkpt>
      <trkpt lat="43.53618" lon="1.14198">
        <ele>289</ele>
        <time>2020-11-29T09:04:47Z</time>
      </trkpt>
      <trkpt lat="43.53615" lon="1.14198">
        <ele>289.3</ele>
        <time>2020-11-29T09:04:48Z</time>
      </trkpt>
      <trkpt lat="43.53614" lon="1.14198">
        <ele>289.4</ele>
        <time>2020-11-29T09:04:49Z</time>
      </trkpt>
      <trkpt lat="43.53611" lon="1.14199">
        <ele>289.7</ele>
        <time>2020-11-29T09:04:50Z</time>
      </trkpt>
      <trkpt lat="43.53608" lon="1.14198">
        <ele>290</ele>
        <time>2020-11-29T09:04:51Z</time>
      </trkpt>
      <trkpt lat="43.53608" lon="1.14198">
        <ele>290.1</ele>
        <time>2020-11-29T09:04:52Z</time>
      </trkpt>
      <trkpt lat="43.53606" lon="1.14196">
        <ele>290.3</ele>
        <time>2020-11-29T09:04:53Z</time>
      </trkpt>
      <trkpt lat="43.53605" lon="1.14196">
        <ele>290.4</ele>
        <time>2020-11-29T09:04:54Z</time>
      </trkpt>
      <trkpt lat="43.53604" lon="1.14196">
        <ele>290.4</ele>
        <time>2020-11-29T09:04:55Z</time>
      </trkpt>
      <trkpt lat="43.53602" lon="1.14197">
        <ele>290.6</ele>
        <time>2020-11-29T09:04:56Z</time>
      </trkpt>
      <trkpt lat="43.53601" lon="1.14197">
        <ele>290.7</ele>
        <time>2020-11-29T09:04:57Z</time>
      </trkpt>
      <trkpt lat="43.53597" lon="1.14198">
        <ele>291</ele>
        <time>2020-11-29T09:04:58Z</time>
      </trkpt>
      <trkpt lat="43.53596" lon="1.14198">
        <ele>291.1</ele>
        <time>2020-11-29T09:04:59Z</time>
      </trkpt>
      <trkpt lat="43.53592" lon="1.14197">
        <ele>291.5</ele>
        <time>2020-11-29T09:05:00Z</time>
      </trkpt>
      <trkpt lat="43.5359" lon="1.14197">
        <ele>291.6</ele>
        <time>2020-11-29T09:05:01Z</time>
      </trkpt>
      <trkpt lat="43.53587" lon="1.14197">
        <ele>291.9</ele>
        <time>2020-11-29T09:05:02Z</time>
      </trkpt>
      <trkpt lat="43.53586" lon="1.14198">
        <ele>292</ele>
        <time>2020-11-29T09:05:03Z</time>
      </trkpt>
      <trkpt lat="43.53583" lon="1.14197">
        <ele>292.2</ele>
        <time>2020-11-29T09:05:04Z</time>
      </trkpt>
      <trkpt lat="43.53582" lon="1.14197">
        <ele>292.2</ele>
        <time>2020-11-29T09:05:05Z</time>
      </trkpt>
      <trkpt lat="43.53579" lon="1.14196">
        <ele>292.5</ele>
        <time>2020-11-29T09:05:06Z</time>
      </trkpt>
      <trkpt lat="43.53576" lon="1.14196">
        <ele>292.7</ele>
        <time>2020-11-29T09:05:07Z</time>
      </trkpt>
      <trkpt lat="43.53573" lon="1.14195">
        <ele>292.9</ele>
        <time>2020-11-29T09:05:08Z</time>
      </trkpt>
      <trkpt lat="43.53571" lon="1.14194">
        <ele>293.1</ele>
        <time>2020-11-29T09:05:09Z</time>
      </trkpt>
      <trkpt lat="43.53567" lon="1.14192">
        <ele>293.4</ele>
        <time>2020-11-29T09:05:10Z</time>
      </trkpt>
      <trkpt lat="43.53565" lon="1.14191">
        <ele>293.5</ele>
        <time>2020-11-29T09:05:11Z</time>
      </trkpt>
      <trkpt lat="43.53562" lon="1.14191">
        <ele>293.7</ele>
        <time>2020-11-29T09:05:12Z</time>
      </trkpt>
      <trkpt lat="43.53561" lon="1.14192">
        <ele>293.7</ele>
        <time>2020-11-29T09:05:13Z</time>
      </trkpt>
      <trkpt lat="43.53559" lon="1.14193">
        <ele>293.9</ele>
        <time>2020-11-29T09:05:14Z</time>
      </trkpt>
      <trkpt lat="43.53555" lon="1.14194">
        <ele>294.1</ele>
        <time>2020-11-29T09:05:15Z</time>
      </trkpt>
      <trkpt lat="43.53554" lon="1.14194">
        <ele>294.2</ele>
        <time>2020-11-29T09:05:16Z</time>
      </trkpt>
      <trkpt lat="43.5355" lon="1.14195">
        <ele>294.3</ele>
        <time>2020-11-29T09:05:17Z</time>
      </trkpt>
      <trkpt lat="43.53549" lon="1.14194">
        <ele>294.4</ele>
        <time>2020-11-29T09:05:18Z</time>
      </trkpt>
      <trkpt lat="43.53546" lon="1.14195">
        <ele>294.5</ele>
        <time>2020-11-29T09:05:19Z</time>
      </trkpt>
      <trkpt lat="43.53543" lon="1.14195">
        <ele>294.6</ele>
        <time>2020-11-29T09:05:20Z</time>
      </trkpt>
      <trkpt lat="43.53541" lon="1.14195">
        <ele>294.8</ele>
        <time>2020-11-29T09:05:21Z</time>
      </trkpt>
      <trkpt lat="43.53537" lon="1.14194">
        <ele>294.9</ele>
        <time>2020-11-29T09:05:22Z</time>
      </trkpt>
      <trkpt lat="43.53534" lon="1.14194">
        <ele>295</ele>
        <time>2020-11-29T09:05:23Z</time>
      </trkpt>
      <trkpt lat="43.53532" lon="1.14195">
        <ele>295.1</ele>
        <time>2020-11-29T09:05:24Z</time>
      </trkpt>
      <trkpt lat="43.53529" lon="1.14194">
        <ele>295.2</ele>
        <time>2020-11-29T09:05:25Z</time>
      </trkpt>
      <trkpt lat="43.53524" lon="1.14193">
        <ele>295.4</ele>
        <time>2020-11-29T09:05:26Z</time>
      </trkpt>
      <trkpt lat="43.53521" lon="1.14192">
        <ele>295.5</ele>
        <time>2020-11-29T09:05:27Z</time>
      </trkpt>
      <trkpt lat="43.53517" lon="1.14192">
        <ele>295.6</ele>
        <time>2020-11-29T09:05:28Z</time>
      </trkpt>
      <trkpt lat="43.53514" lon="1.14192">
        <ele>295.7</ele>
        <time>2020-11-29T09:05:29Z</time>
      </trkpt>
      <trkpt lat="43.5351" lon="1.14192">
        <ele>295.8</ele>
        <time>2020-11-29T09:05:30Z</time>
      </trkpt>
      <trkpt lat="43.53505" lon="1.1419">
        <ele>296</ele>
        <time>2020-11-29T09:05:31Z</time>
      </trkpt>
      <trkpt lat="43.53502" lon="1.1419">
        <ele>296.1</ele>
        <time>2020-11-29T09:05:32Z</time>
      </trkpt>
      <trkpt lat="43.53499" lon="1.14189">
        <ele>296.1</ele>
        <time>2020-11-29T09:05:33Z</time>
      </trkpt>
      <trkpt lat="43.53494" lon="1.14188">
        <ele>296.2</ele>
        <time>2020-11-29T09:05:34Z</time>
      </trkpt>
      <trkpt lat="43.53489" lon="1.14188">
        <ele>296.3</ele>
        <time>2020-11-29T09:05:35Z</time>
      </trkpt>
      <trkpt lat="43.53484" lon="1.14188">
        <ele>296.4</ele>
        <time>2020-11-29T09:05:36Z</time>
      </trkpt>
      <trkpt lat="43.5348" lon="1.14187">
        <ele>296.4</ele>
        <time>2020-11-29T09:05:37Z</time>
      </trkpt>
      <trkpt lat="43.53476" lon="1.14185">
        <ele>296.3</ele>
        <time>2020-11-29T09:05:38Z</time>
      </trkpt>
      <trkpt lat="43.53476" lon="1.14179">
        <ele>296.3</ele>
        <time>2020-11-29T09:05:39Z</time>
      </trkpt>
      <trkpt lat="43.53476" lon="1.14177">
        <ele>296.3</ele>
        <time>2020-11-29T09:05:40Z</time>
      </trkpt>
      <trkpt lat="43.53475" lon="1.14171">
        <ele>296.2</ele>
        <time>2020-11-29T09:05:41Z</time>
      </trkpt>
      <trkpt lat="43.53474" lon="1.14166">
        <ele>296.2</ele>
        <time>2020-11-29T09:05:42Z</time>
      </trkpt>
      <trkpt lat="43.53473" lon="1.14159">
        <ele>296.1</ele>
        <time>2020-11-29T09:05:43Z</time>
      </trkpt>
      <trkpt lat="43.53473" lon="1.14154">
        <ele>296</ele>
        <time>2020-11-29T09:05:44Z</time>
      </trkpt>
      <trkpt lat="43.53473" lon="1.14148">
        <ele>295.9</ele>
        <time>2020-11-29T09:05:45Z</time>
      </trkpt>
      <trkpt lat="43.53474" lon="1.14145">
        <ele>295.9</ele>
        <time>2020-11-29T09:05:46Z</time>
      </trkpt>
      <trkpt lat="43.53474" lon="1.1414">
        <ele>295.8</ele>
        <time>2020-11-29T09:05:47Z</time>
      </trkpt>
      <trkpt lat="43.53474" lon="1.14134">
        <ele>295.7</ele>
        <time>2020-11-29T09:05:48Z</time>
      </trkpt>
      <trkpt lat="43.53473" lon="1.14128">
        <ele>295.6</ele>
        <time>2020-11-29T09:05:49Z</time>
      </trkpt>
      <trkpt lat="43.53472" lon="1.14121">
        <ele>295.5</ele>
        <time>2020-11-29T09:05:50Z</time>
      </trkpt>
      <trkpt lat="43.53471" lon="1.14114">
        <ele>295.4</ele>
        <time>2020-11-29T09:05:51Z</time>
      </trkpt>
      <trkpt lat="43.53472" lon="1.14103">
        <ele>295.1</ele>
        <time>2020-11-29T09:05:52Z</time>
      </trkpt>
      <trkpt lat="43.53472" lon="1.14096">
        <ele>294.9</ele>
        <time>2020-11-29T09:05:53Z</time>
      </trkpt>
      <trkpt lat="43.53473" lon="1.14089">
        <ele>294.8</ele>
        <time>2020-11-29T09:05:54Z</time>
      </trkpt>
      <trkpt lat="43.53472" lon="1.14081">
        <ele>294.6</ele>
        <time>2020-11-29T09:05:55Z</time>
      </trkpt>
      <trkpt lat="43.53472" lon="1.14074">
        <ele>294.4</ele>
        <time>2020-11-29T09:05:56Z</time>
      </trkpt>
      <trkpt lat="43.53472" lon="1.14066">
        <ele>294.1</ele>
        <time>2020-11-29T09:05:57Z</time>
      </trkpt>
      <trkpt lat="43.53472" lon="1.14059">
        <ele>293.9</ele>
        <time>2020-11-29T09:05:58Z</time>
      </trkpt>
      <trkpt lat="43.53471" lon="1.14053">
        <ele>293.7</ele>
        <time>2020-11-29T09:05:59Z</time>
      </trkpt>
      <trkpt lat="43.5347" lon="1.14047">
        <ele>293.4</ele>
        <time>2020-11-29T09:06:00Z</time>
      </trkpt>
      <trkpt lat="43.53469" lon="1.14041">
        <ele>293.2</ele>
        <time>2020-11-29T09:06:01Z</time>
      </trkpt>
      <trkpt lat="43.53467" lon="1.14034">
        <ele>292.9</ele>
        <time>2020-11-29T09:06:03Z</time>
      </trkpt>
      <trkpt lat="43.53466" lon="1.14025">
        <ele>292.6</ele>
        <time>2020-11-29T09:06:04Z</time>
      </trkpt>
      <trkpt lat="43.53464" lon="1.14017">
        <ele>292.3</ele>
        <time>2020-11-29T09:06:05Z</time>
      </trkpt>
      <trkpt lat="43.53462" lon="1.1401">
        <ele>292</ele>
        <time>2020-11-29T09:06:06Z</time>
      </trkpt>
      <trkpt lat="43.53461" lon="1.14003">
        <ele>291.8</ele>
        <time>2020-11-29T09:06:07Z</time>
      </trkpt>
      <trkpt lat="43.53459" lon="1.13998">
        <ele>291.5</ele>
        <time>2020-11-29T09:06:08Z</time>
      </trkpt>
      <trkpt lat="43.53458" lon="1.13992">
        <ele>291.3</ele>
        <time>2020-11-29T09:06:09Z</time>
      </trkpt>
      <trkpt lat="43.53457" lon="1.13986">
        <ele>291.1</ele>
        <time>2020-11-29T09:06:10Z</time>
      </trkpt>
      <trkpt lat="43.53456" lon="1.13977">
        <ele>290.7</ele>
        <time>2020-11-29T09:06:11Z</time>
      </trkpt>
      <trkpt lat="43.53455" lon="1.13969">
        <ele>290.4</ele>
        <time>2020-11-29T09:06:12Z</time>
      </trkpt>
      <trkpt lat="43.53454" lon="1.13962">
        <ele>290.1</ele>
        <time>2020-11-29T09:06:13Z</time>
      </trkpt>
      <trkpt lat="43.53454" lon="1.13955">
        <ele>289.9</ele>
        <time>2020-11-29T09:06:14Z</time>
      </trkpt>
      <trkpt lat="43.53452" lon="1.13949">
        <ele>289.7</ele>
        <time>2020-11-29T09:06:15Z</time>
      </trkpt>
      <trkpt lat="43.53451" lon="1.13943">
        <ele>289.5</ele>
        <time>2020-11-29T09:06:16Z</time>
      </trkpt>
      <trkpt lat="43.5345" lon="1.13937">
        <ele>289.3</ele>
        <time>2020-11-29T09:06:17Z</time>
      </trkpt>
      <trkpt lat="43.53448" lon="1.13928">
        <ele>289</ele>
        <time>2020-11-29T09:06:18Z</time>
      </trkpt>
      <trkpt lat="43.53447" lon="1.13921">
        <ele>288.8</ele>
        <time>2020-11-29T09:06:19Z</time>
      </trkpt>
      <trkpt lat="43.53446" lon="1.13914">
        <ele>288.6</ele>
        <time>2020-11-29T09:06:20Z</time>
      </trkpt>
      <trkpt lat="43.53444" lon="1.13905">
        <ele>288.4</ele>
        <time>2020-11-29T09:06:21Z</time>
      </trkpt>
      <trkpt lat="43.53443" lon="1.13898">
        <ele>288.3</ele>
        <time>2020-11-29T09:06:22Z</time>
      </trkpt>
      <trkpt lat="43.53442" lon="1.1389">
        <ele>288.1</ele>
        <time>2020-11-29T09:06:23Z</time>
      </trkpt>
      <trkpt lat="43.53443" lon="1.13885">
        <ele>288</ele>
        <time>2020-11-29T09:06:24Z</time>
      </trkpt>
      <trkpt lat="43.53444" lon="1.13881">
        <ele>288</ele>
        <time>2020-11-29T09:06:25Z</time>
      </trkpt>
      <trkpt lat="43.53445" lon="1.13877">
        <ele>287.9</ele>
        <time>2020-11-29T09:06:26Z</time>
      </trkpt>
      <trkpt lat="43.53445" lon="1.13873">
        <ele>287.9</ele>
        <time>2020-11-29T09:06:27Z</time>
      </trkpt>
      <trkpt lat="43.53445" lon="1.13869">
        <ele>287.9</ele>
        <time>2020-11-29T09:06:28Z</time>
      </trkpt>
      <trkpt lat="43.53444" lon="1.13865">
        <ele>287.8</ele>
        <time>2020-11-29T09:06:29Z</time>
      </trkpt>
      <trkpt lat="43.53442" lon="1.13861">
        <ele>287.8</ele>
        <time>2020-11-29T09:06:30Z</time>
      </trkpt>
      <trkpt lat="43.53441" lon="1.1386">
        <ele>287.8</ele>
        <time>2020-11-29T09:06:31Z</time>
      </trkpt>
      <trkpt lat="43.53439" lon="1.13856">
        <ele>287.7</ele>
        <time>2020-11-29T09:06:32Z</time>
      </trkpt>
      <trkpt lat="43.53439" lon="1.13855">
        <ele>287.7</ele>
        <time>2020-11-29T09:06:33Z</time>
      </trkpt>
      <trkpt lat="43.53437" lon="1.13851">
        <ele>287.7</ele>
        <time>2020-11-29T09:06:34Z</time>
      </trkpt>
      <trkpt lat="43.53434" lon="1.13846">
        <ele>287.7</ele>
        <time>2020-11-29T09:06:35Z</time>
      </trkpt>
      <trkpt lat="43.53433" lon="1.1384">
        <ele>287.7</ele>
        <time>2020-11-29T09:06:36Z</time>
      </trkpt>
      <trkpt lat="43.53432" lon="1.13837">
        <ele>287.7</ele>
        <time>2020-11-29T09:06:37Z</time>
      </trkpt>
      <trkpt lat="43.5343" lon="1.13831">
        <ele>287.7</ele>
        <time>2020-11-29T09:06:38Z</time>
      </trkpt>
      <trkpt lat="43.5343" lon="1.13827">
        <ele>287.7</ele>
        <time>2020-11-29T09:06:39Z</time>
      </trkpt>
      <trkpt lat="43.53428" lon="1.13821">
        <ele>287.7</ele>
        <time>2020-11-29T09:06:40Z</time>
      </trkpt>
      <trkpt lat="43.53428" lon="1.13816">
        <ele>287.6</ele>
        <time>2020-11-29T09:06:41Z</time>
      </trkpt>
      <trkpt lat="43.53427" lon="1.13811">
        <ele>287.6</ele>
        <time>2020-11-29T09:06:42Z</time>
      </trkpt>
      <trkpt lat="43.53427" lon="1.13805">
        <ele>287.6</ele>
        <time>2020-11-29T09:06:43Z</time>
      </trkpt>
      <trkpt lat="43.53427" lon="1.13801">
        <ele>287.6</ele>
        <time>2020-11-29T09:06:44Z</time>
      </trkpt>
      <trkpt lat="43.53426" lon="1.13797">
        <ele>287.6</ele>
        <time>2020-11-29T09:06:45Z</time>
      </trkpt>
      <trkpt lat="43.53427" lon="1.13792">
        <ele>287.5</ele>
        <time>2020-11-29T09:06:46Z</time>
      </trkpt>
      <trkpt lat="43.53427" lon="1.13788">
        <ele>287.5</ele>
        <time>2020-11-29T09:06:47Z</time>
      </trkpt>
      <trkpt lat="43.53428" lon="1.13784">
        <ele>287.5</ele>
        <time>2020-11-29T09:06:48Z</time>
      </trkpt>
      <trkpt lat="43.53427" lon="1.13777">
        <ele>287.5</ele>
        <time>2020-11-29T09:06:49Z</time>
      </trkpt>
      <trkpt lat="43.53427" lon="1.1377">
        <ele>287.5</ele>
        <time>2020-11-29T09:06:50Z</time>
      </trkpt>
      <trkpt lat="43.53426" lon="1.13763">
        <ele>287.5</ele>
        <time>2020-11-29T09:06:51Z</time>
      </trkpt>
      <trkpt lat="43.53426" lon="1.13757">
        <ele>287.5</ele>
        <time>2020-11-29T09:06:52Z</time>
      </trkpt>
      <trkpt lat="43.53425" lon="1.1375">
        <ele>287.5</ele>
        <time>2020-11-29T09:06:53Z</time>
      </trkpt>
      <trkpt lat="43.53424" lon="1.13745">
        <ele>287.5</ele>
        <time>2020-11-29T09:06:54Z</time>
      </trkpt>
      <trkpt lat="43.53422" lon="1.13741">
        <ele>287.5</ele>
        <time>2020-11-29T09:06:55Z</time>
      </trkpt>
      <trkpt lat="43.53421" lon="1.13736">
        <ele>287.5</ele>
        <time>2020-11-29T09:06:56Z</time>
      </trkpt>
      <trkpt lat="43.53419" lon="1.13732">
        <ele>287.5</ele>
        <time>2020-11-29T09:06:57Z</time>
      </trkpt>
      <trkpt lat="43.53418" lon="1.13726">
        <ele>287.5</ele>
        <time>2020-11-29T09:06:58Z</time>
      </trkpt>
      <trkpt lat="43.53417" lon="1.13721">
        <ele>287.6</ele>
        <time>2020-11-29T09:06:59Z</time>
      </trkpt>
      <trkpt lat="43.53416" lon="1.13716">
        <ele>287.6</ele>
        <time>2020-11-29T09:07:00Z</time>
      </trkpt>
      <trkpt lat="43.53416" lon="1.13711">
        <ele>287.6</ele>
        <time>2020-11-29T09:07:01Z</time>
      </trkpt>
      <trkpt lat="43.53416" lon="1.13707">
        <ele>287.6</ele>
        <time>2020-11-29T09:07:02Z</time>
      </trkpt>
      <trkpt lat="43.53417" lon="1.13704">
        <ele>287.7</ele>
        <time>2020-11-29T09:07:03Z</time>
      </trkpt>
      <trkpt lat="43.53417" lon="1.13699">
        <ele>287.7</ele>
        <time>2020-11-29T09:07:04Z</time>
      </trkpt>
      <trkpt lat="43.53416" lon="1.13694">
        <ele>287.7</ele>
        <time>2020-11-29T09:07:05Z</time>
      </trkpt>
      <trkpt lat="43.53416" lon="1.13689">
        <ele>287.8</ele>
        <time>2020-11-29T09:07:06Z</time>
      </trkpt>
      <trkpt lat="43.53416" lon="1.13684">
        <ele>287.8</ele>
        <time>2020-11-29T09:07:07Z</time>
      </trkpt>
      <trkpt lat="43.53415" lon="1.13679">
        <ele>287.8</ele>
        <time>2020-11-29T09:07:08Z</time>
      </trkpt>
      <trkpt lat="43.53416" lon="1.13675">
        <ele>287.9</ele>
        <time>2020-11-29T09:07:09Z</time>
      </trkpt>
      <trkpt lat="43.53416" lon="1.13672">
        <ele>287.9</ele>
        <time>2020-11-29T09:07:10Z</time>
      </trkpt>
      <trkpt lat="43.53415" lon="1.1367">
        <ele>287.9</ele>
        <time>2020-11-29T09:07:11Z</time>
      </trkpt>
      <trkpt lat="43.53415" lon="1.13665">
        <ele>287.9</ele>
        <time>2020-11-29T09:07:12Z</time>
      </trkpt>
      <trkpt lat="43.53415" lon="1.13664">
        <ele>288</ele>
        <time>2020-11-29T09:07:13Z</time>
      </trkpt>
      <trkpt lat="43.53414" lon="1.13657">
        <ele>288</ele>
        <time>2020-11-29T09:07:14Z</time>
      </trkpt>
      <trkpt lat="43.53414" lon="1.13652">
        <ele>288.1</ele>
        <time>2020-11-29T09:07:15Z</time>
      </trkpt>
      <trkpt lat="43.53413" lon="1.13645">
        <ele>288.1</ele>
        <time>2020-11-29T09:07:16Z</time>
      </trkpt>
      <trkpt lat="43.53412" lon="1.13639">
        <ele>288.2</ele>
        <time>2020-11-29T09:07:17Z</time>
      </trkpt>
      <trkpt lat="43.53411" lon="1.13632">
        <ele>288.2</ele>
        <time>2020-11-29T09:07:18Z</time>
      </trkpt>
      <trkpt lat="43.53411" lon="1.13627">
        <ele>288.2</ele>
        <time>2020-11-29T09:07:19Z</time>
      </trkpt>
      <trkpt lat="43.53412" lon="1.13623">
        <ele>288.3</ele>
        <time>2020-11-29T09:07:20Z</time>
      </trkpt>
      <trkpt lat="43.53413" lon="1.13619">
        <ele>288.3</ele>
        <time>2020-11-29T09:07:21Z</time>
      </trkpt>
      <trkpt lat="43.53412" lon="1.13614">
        <ele>288.3</ele>
        <time>2020-11-29T09:07:22Z</time>
      </trkpt>
      <trkpt lat="43.53412" lon="1.13607">
        <ele>288.4</ele>
        <time>2020-11-29T09:07:23Z</time>
      </trkpt>
      <trkpt lat="43.53411" lon="1.13603">
        <ele>288.4</ele>
        <time>2020-11-29T09:07:24Z</time>
      </trkpt>
      <trkpt lat="43.53411" lon="1.13599">
        <ele>288.4</ele>
        <time>2020-11-29T09:07:25Z</time>
      </trkpt>
      <trkpt lat="43.53411" lon="1.13593">
        <ele>288.4</ele>
        <time>2020-11-29T09:07:26Z</time>
      </trkpt>
      <trkpt lat="43.53412" lon="1.13589">
        <ele>288.4</ele>
        <time>2020-11-29T09:07:27Z</time>
      </trkpt>
      <trkpt lat="43.53411" lon="1.13585">
        <ele>288.4</ele>
        <time>2020-11-29T09:07:28Z</time>
      </trkpt>
      <trkpt lat="43.53411" lon="1.13579">
        <ele>288.4</ele>
        <time>2020-11-29T09:07:29Z</time>
      </trkpt>
      <trkpt lat="43.53412" lon="1.13573">
        <ele>288.5</ele>
        <time>2020-11-29T09:07:30Z</time>
      </trkpt>
      <trkpt lat="43.53412" lon="1.13567">
        <ele>288.5</ele>
        <time>2020-11-29T09:07:31Z</time>
      </trkpt>
      <trkpt lat="43.53413" lon="1.13563">
        <ele>288.5</ele>
        <time>2020-11-29T09:07:32Z</time>
      </trkpt>
      <trkpt lat="43.53413" lon="1.13557">
        <ele>288.5</ele>
        <time>2020-11-29T09:07:33Z</time>
      </trkpt>
      <trkpt lat="43.53413" lon="1.13552">
        <ele>288.6</ele>
        <time>2020-11-29T09:07:34Z</time>
      </trkpt>
      <trkpt lat="43.53413" lon="1.13546">
        <ele>288.6</ele>
        <time>2020-11-29T09:07:35Z</time>
      </trkpt>
      <trkpt lat="43.53413" lon="1.13541">
        <ele>288.6</ele>
        <time>2020-11-29T09:07:36Z</time>
      </trkpt>
      <trkpt lat="43.53413" lon="1.13536">
        <ele>288.6</ele>
        <time>2020-11-29T09:07:37Z</time>
      </trkpt>
      <trkpt lat="43.53414" lon="1.1353">
        <ele>288.7</ele>
        <time>2020-11-29T09:07:38Z</time>
      </trkpt>
      <trkpt lat="43.53414" lon="1.13528">
        <ele>288.7</ele>
        <time>2020-11-29T09:07:39Z</time>
      </trkpt>
      <trkpt lat="43.53415" lon="1.13522">
        <ele>288.7</ele>
        <time>2020-11-29T09:07:40Z</time>
      </trkpt>
      <trkpt lat="43.53415" lon="1.13518">
        <ele>288.7</ele>
        <time>2020-11-29T09:07:41Z</time>
      </trkpt>
      <trkpt lat="43.53415" lon="1.13513">
        <ele>288.7</ele>
        <time>2020-11-29T09:07:42Z</time>
      </trkpt>
      <trkpt lat="43.53416" lon="1.1351">
        <ele>288.7</ele>
        <time>2020-11-29T09:07:43Z</time>
      </trkpt>
      <trkpt lat="43.53416" lon="1.13505">
        <ele>288.8</ele>
        <time>2020-11-29T09:07:44Z</time>
      </trkpt>
      <trkpt lat="43.53416" lon="1.135">
        <ele>288.8</ele>
        <time>2020-11-29T09:07:45Z</time>
      </trkpt>
      <trkpt lat="43.53416" lon="1.13494">
        <ele>288.8</ele>
        <time>2020-11-29T09:07:46Z</time>
      </trkpt>
      <trkpt lat="43.53417" lon="1.1349">
        <ele>288.8</ele>
        <time>2020-11-29T09:07:47Z</time>
      </trkpt>
      <trkpt lat="43.53418" lon="1.13484">
        <ele>288.9</ele>
        <time>2020-11-29T09:07:48Z</time>
      </trkpt>
      <trkpt lat="43.5342" lon="1.13479">
        <ele>288.9</ele>
        <time>2020-11-29T09:07:49Z</time>
      </trkpt>
      <trkpt lat="43.53421" lon="1.13474">
        <ele>289</ele>
        <time>2020-11-29T09:07:50Z</time>
      </trkpt>
      <trkpt lat="43.5342" lon="1.13467">
        <ele>289</ele>
        <time>2020-11-29T09:07:51Z</time>
      </trkpt>
      <trkpt lat="43.53419" lon="1.1346">
        <ele>289.1</ele>
        <time>2020-11-29T09:07:52Z</time>
      </trkpt>
      <trkpt lat="43.53419" lon="1.13456">
        <ele>289.1</ele>
        <time>2020-11-29T09:07:53Z</time>
      </trkpt>
      <trkpt lat="43.53419" lon="1.13449">
        <ele>289.2</ele>
        <time>2020-11-29T09:07:54Z</time>
      </trkpt>
      <trkpt lat="43.53418" lon="1.13443">
        <ele>289.2</ele>
        <time>2020-11-29T09:07:55Z</time>
      </trkpt>
      <trkpt lat="43.53419" lon="1.13439">
        <ele>289.3</ele>
        <time>2020-11-29T09:07:56Z</time>
      </trkpt>
      <trkpt lat="43.53419" lon="1.13432">
        <ele>289.3</ele>
        <time>2020-11-29T09:07:57Z</time>
      </trkpt>
      <trkpt lat="43.53419" lon="1.1343">
        <ele>289.3</ele>
        <time>2020-11-29T09:07:58Z</time>
      </trkpt>
      <trkpt lat="43.5342" lon="1.13425">
        <ele>289.4</ele>
        <time>2020-11-29T09:07:59Z</time>
      </trkpt>
      <trkpt lat="43.53419" lon="1.13421">
        <ele>289.4</ele>
        <time>2020-11-29T09:08:00Z</time>
      </trkpt>
      <trkpt lat="43.5342" lon="1.13416">
        <ele>289.4</ele>
        <time>2020-11-29T09:08:01Z</time>
      </trkpt>
      <trkpt lat="43.5342" lon="1.13411">
        <ele>289.5</ele>
        <time>2020-11-29T09:08:02Z</time>
      </trkpt>
      <trkpt lat="43.5342" lon="1.13405">
        <ele>289.5</ele>
        <time>2020-11-29T09:08:03Z</time>
      </trkpt>
      <trkpt lat="43.5342" lon="1.134">
        <ele>289.6</ele>
        <time>2020-11-29T09:08:04Z</time>
      </trkpt>
      <trkpt lat="43.53421" lon="1.13399">
        <ele>289.6</ele>
        <time>2020-11-29T09:08:05Z</time>
      </trkpt>
      <trkpt lat="43.53421" lon="1.13395">
        <ele>289.6</ele>
        <time>2020-11-29T09:08:06Z</time>
      </trkpt>
      <trkpt lat="43.53422" lon="1.13394">
        <ele>289.6</ele>
        <time>2020-11-29T09:08:07Z</time>
      </trkpt>
      <trkpt lat="43.53424" lon="1.1339">
        <ele>289.7</ele>
        <time>2020-11-29T09:08:08Z</time>
      </trkpt>
      <trkpt lat="43.53425" lon="1.13388">
        <ele>289.7</ele>
        <time>2020-11-29T09:08:09Z</time>
      </trkpt>
      <trkpt lat="43.53428" lon="1.13386">
        <ele>289.7</ele>
        <time>2020-11-29T09:08:10Z</time>
      </trkpt>
      <trkpt lat="43.53429" lon="1.13385">
        <ele>289.5</ele>
        <time>2020-11-29T09:08:11Z</time>
      </trkpt>
      <trkpt lat="43.53432" lon="1.13384">
        <ele>289.3</ele>
        <time>2020-11-29T09:08:12Z</time>
      </trkpt>
      <trkpt lat="43.53436" lon="1.13384">
        <ele>289.2</ele>
        <time>2020-11-29T09:08:13Z</time>
      </trkpt>
      <trkpt lat="43.53437" lon="1.13383">
        <ele>289</ele>
        <time>2020-11-29T09:08:14Z</time>
      </trkpt>
      <trkpt lat="43.53438" lon="1.13381">
        <ele>289</ele>
        <time>2020-11-29T09:08:15Z</time>
      </trkpt>
      <trkpt lat="43.5344" lon="1.13382">
        <ele>288.8</ele>
        <time>2020-11-29T09:08:16Z</time>
      </trkpt>
      <trkpt lat="43.53443" lon="1.13379">
        <ele>288.6</ele>
        <time>2020-11-29T09:08:17Z</time>
      </trkpt>
      <trkpt lat="43.53444" lon="1.13378">
        <ele>288.3</ele>
        <time>2020-11-29T09:08:18Z</time>
      </trkpt>
      <trkpt lat="43.53448" lon="1.13377">
        <ele>287.9</ele>
        <time>2020-11-29T09:08:19Z</time>
      </trkpt>
      <trkpt lat="43.53449" lon="1.13377">
        <ele>287.8</ele>
        <time>2020-11-29T09:08:20Z</time>
      </trkpt>
      <trkpt lat="43.53451" lon="1.13375">
        <ele>287.4</ele>
        <time>2020-11-29T09:08:21Z</time>
      </trkpt>
      <trkpt lat="43.53452" lon="1.13374">
        <ele>287.3</ele>
        <time>2020-11-29T09:08:22Z</time>
      </trkpt>
      <trkpt lat="43.53455" lon="1.13372">
        <ele>286.9</ele>
        <time>2020-11-29T09:08:23Z</time>
      </trkpt>
      <trkpt lat="43.53456" lon="1.1337">
        <ele>286.8</ele>
        <time>2020-11-29T09:08:24Z</time>
      </trkpt>
      <trkpt lat="43.53458" lon="1.13368">
        <ele>286.4</ele>
        <time>2020-11-29T09:08:25Z</time>
      </trkpt>
      <trkpt lat="43.53461" lon="1.13365">
        <ele>286</ele>
        <time>2020-11-29T09:08:26Z</time>
      </trkpt>
      <trkpt lat="43.53464" lon="1.13361">
        <ele>285.7</ele>
        <time>2020-11-29T09:08:27Z</time>
      </trkpt>
      <trkpt lat="43.53466" lon="1.1336">
        <ele>285.4</ele>
        <time>2020-11-29T09:08:28Z</time>
      </trkpt>
      <trkpt lat="43.53469" lon="1.13357">
        <ele>285.1</ele>
        <time>2020-11-29T09:08:29Z</time>
      </trkpt>
      <trkpt lat="43.53471" lon="1.13352">
        <ele>284.7</ele>
        <time>2020-11-29T09:08:30Z</time>
      </trkpt>
      <trkpt lat="43.53473" lon="1.13348">
        <ele>284.4</ele>
        <time>2020-11-29T09:08:31Z</time>
      </trkpt>
      <trkpt lat="43.53476" lon="1.13343">
        <ele>284.1</ele>
        <time>2020-11-29T09:08:32Z</time>
      </trkpt>
      <trkpt lat="43.53478" lon="1.1334">
        <ele>283.8</ele>
        <time>2020-11-29T09:08:33Z</time>
      </trkpt>
      <trkpt lat="43.53481" lon="1.13339">
        <ele>283.6</ele>
        <time>2020-11-29T09:08:34Z</time>
      </trkpt>
      <trkpt lat="43.53484" lon="1.13339">
        <ele>283.4</ele>
        <time>2020-11-29T09:08:35Z</time>
      </trkpt>
      <trkpt lat="43.53487" lon="1.13338">
        <ele>283.1</ele>
        <time>2020-11-29T09:08:36Z</time>
      </trkpt>
      <trkpt lat="43.53492" lon="1.13338">
        <ele>282.8</ele>
        <time>2020-11-29T09:08:37Z</time>
      </trkpt>
      <trkpt lat="43.53497" lon="1.13338">
        <ele>282.4</ele>
        <time>2020-11-29T09:08:38Z</time>
      </trkpt>
      <trkpt lat="43.53501" lon="1.13337">
        <ele>282.1</ele>
        <time>2020-11-29T09:08:39Z</time>
      </trkpt>
      <trkpt lat="43.53506" lon="1.13335">
        <ele>281.7</ele>
        <time>2020-11-29T09:08:40Z</time>
      </trkpt>
      <trkpt lat="43.53512" lon="1.13334">
        <ele>281.2</ele>
        <time>2020-11-29T09:08:41Z</time>
      </trkpt>
      <trkpt lat="43.53516" lon="1.13332">
        <ele>280.9</ele>
        <time>2020-11-29T09:08:42Z</time>
      </trkpt>
      <trkpt lat="43.53521" lon="1.1333">
        <ele>280.5</ele>
        <time>2020-11-29T09:08:43Z</time>
      </trkpt>
      <trkpt lat="43.53526" lon="1.13329">
        <ele>280.1</ele>
        <time>2020-11-29T09:08:44Z</time>
      </trkpt>
      <trkpt lat="43.53532" lon="1.13329">
        <ele>279.7</ele>
        <time>2020-11-29T09:08:45Z</time>
      </trkpt>
      <trkpt lat="43.53537" lon="1.1333">
        <ele>279.5</ele>
        <time>2020-11-29T09:08:46Z</time>
      </trkpt>
      <trkpt lat="43.53542" lon="1.1333">
        <ele>279.2</ele>
        <time>2020-11-29T09:08:47Z</time>
      </trkpt>
      <trkpt lat="43.53547" lon="1.1333">
        <ele>279</ele>
        <time>2020-11-29T09:08:48Z</time>
      </trkpt>
      <trkpt lat="43.53552" lon="1.1333">
        <ele>278.6</ele>
        <time>2020-11-29T09:08:49Z</time>
      </trkpt>
      <trkpt lat="43.53555" lon="1.13328">
        <ele>278.4</ele>
        <time>2020-11-29T09:08:50Z</time>
      </trkpt>
      <trkpt lat="43.5356" lon="1.13324">
        <ele>278.1</ele>
        <time>2020-11-29T09:08:51Z</time>
      </trkpt>
      <trkpt lat="43.53564" lon="1.13321">
        <ele>277.7</ele>
        <time>2020-11-29T09:08:52Z</time>
      </trkpt>
      <trkpt lat="43.5357" lon="1.13319">
        <ele>277.3</ele>
        <time>2020-11-29T09:08:53Z</time>
      </trkpt>
      <trkpt lat="43.53576" lon="1.13316">
        <ele>276.8</ele>
        <time>2020-11-29T09:08:54Z</time>
      </trkpt>
      <trkpt lat="43.53582" lon="1.13313">
        <ele>276.4</ele>
        <time>2020-11-29T09:08:55Z</time>
      </trkpt>
      <trkpt lat="43.53587" lon="1.1331">
        <ele>276.1</ele>
        <time>2020-11-29T09:08:56Z</time>
      </trkpt>
      <trkpt lat="43.53592" lon="1.13308">
        <ele>275.7</ele>
        <time>2020-11-29T09:08:57Z</time>
      </trkpt>
      <trkpt lat="43.53596" lon="1.13307">
        <ele>275.4</ele>
        <time>2020-11-29T09:08:58Z</time>
      </trkpt>
      <trkpt lat="43.53601" lon="1.13305">
        <ele>275</ele>
        <time>2020-11-29T09:08:59Z</time>
      </trkpt>
      <trkpt lat="43.53605" lon="1.13306">
        <ele>274.6</ele>
        <time>2020-11-29T09:09:00Z</time>
      </trkpt>
      <trkpt lat="43.53609" lon="1.13308">
        <ele>274.3</ele>
        <time>2020-11-29T09:09:01Z</time>
      </trkpt>
      <trkpt lat="43.53611" lon="1.13311">
        <ele>274</ele>
        <time>2020-11-29T09:09:02Z</time>
      </trkpt>
      <trkpt lat="43.53612" lon="1.13312">
        <ele>274</ele>
        <time>2020-11-29T09:09:03Z</time>
      </trkpt>
      <trkpt lat="43.53614" lon="1.13315">
        <ele>273.7</ele>
        <time>2020-11-29T09:09:04Z</time>
      </trkpt>
      <trkpt lat="43.53615" lon="1.13318">
        <ele>273.7</ele>
        <time>2020-11-29T09:09:05Z</time>
      </trkpt>
      <trkpt lat="43.53615" lon="1.13316">
        <ele>273.7</ele>
        <time>2020-11-29T09:09:06Z</time>
      </trkpt>
      <trkpt lat="43.53615" lon="1.13319">
        <ele>273.8</ele>
        <time>2020-11-29T09:09:07Z</time>
      </trkpt>
      <trkpt lat="43.53617" lon="1.13323">
        <ele>273.4</ele>
        <time>2020-11-29T09:09:08Z</time>
      </trkpt>
      <trkpt lat="43.53618" lon="1.13324">
        <ele>273.4</ele>
        <time>2020-11-29T09:09:09Z</time>
      </trkpt>
      <trkpt lat="43.53619" lon="1.13327">
        <ele>273.4</ele>
        <time>2020-11-29T09:09:10Z</time>
      </trkpt>
      <trkpt lat="43.5362" lon="1.13329">
        <ele>273.5</ele>
        <time>2020-11-29T09:09:11Z</time>
      </trkpt>
      <trkpt lat="43.53622" lon="1.13333">
        <ele>273.1</ele>
        <time>2020-11-29T09:09:12Z</time>
      </trkpt>
      <trkpt lat="43.53622" lon="1.13334">
        <ele>273.1</ele>
        <time>2020-11-29T09:09:13Z</time>
      </trkpt>
      <trkpt lat="43.53623" lon="1.13338">
        <ele>272.7</ele>
        <time>2020-11-29T09:09:14Z</time>
      </trkpt>
      <trkpt lat="43.53625" lon="1.13342">
        <ele>272.6</ele>
        <time>2020-11-29T09:09:15Z</time>
      </trkpt>
      <trkpt lat="43.53626" lon="1.13344">
        <ele>272.6</ele>
        <time>2020-11-29T09:09:16Z</time>
      </trkpt>
      <trkpt lat="43.53627" lon="1.13348">
        <ele>272.3</ele>
        <time>2020-11-29T09:09:17Z</time>
      </trkpt>
      <trkpt lat="43.53628" lon="1.13352">
        <ele>272.2</ele>
        <time>2020-11-29T09:09:18Z</time>
      </trkpt>
      <trkpt lat="43.5363" lon="1.13356">
        <ele>271.7</ele>
        <time>2020-11-29T09:09:19Z</time>
      </trkpt>
      <trkpt lat="43.53631" lon="1.13358">
        <ele>271.6</ele>
        <time>2020-11-29T09:09:20Z</time>
      </trkpt>
      <trkpt lat="43.53634" lon="1.13363">
        <ele>271.1</ele>
        <time>2020-11-29T09:09:21Z</time>
      </trkpt>
      <trkpt lat="43.53637" lon="1.13367">
        <ele>270.5</ele>
        <time>2020-11-29T09:09:22Z</time>
      </trkpt>
      <trkpt lat="43.53641" lon="1.13373">
        <ele>269.8</ele>
        <time>2020-11-29T09:09:23Z</time>
      </trkpt>
      <trkpt lat="43.53643" lon="1.13379">
        <ele>268.9</ele>
        <time>2020-11-29T09:09:24Z</time>
      </trkpt>
      <trkpt lat="43.53647" lon="1.13386">
        <ele>268.2</ele>
        <time>2020-11-29T09:09:25Z</time>
      </trkpt>
      <trkpt lat="43.5365" lon="1.13391">
        <ele>267.1</ele>
        <time>2020-11-29T09:09:26Z</time>
      </trkpt>
      <trkpt lat="43.53654" lon="1.13397">
        <ele>266.3</ele>
        <time>2020-11-29T09:09:27Z</time>
      </trkpt>
      <trkpt lat="43.53656" lon="1.13401">
        <ele>265.5</ele>
        <time>2020-11-29T09:09:28Z</time>
      </trkpt>
      <trkpt lat="43.53658" lon="1.13403">
        <ele>265.2</ele>
        <time>2020-11-29T09:09:29Z</time>
      </trkpt>
      <trkpt lat="43.53659" lon="1.13404">
        <ele>264.7</ele>
        <time>2020-11-29T09:09:30Z</time>
      </trkpt>
      <trkpt lat="43.53661" lon="1.13405">
        <ele>264.3</ele>
        <time>2020-11-29T09:09:31Z</time>
      </trkpt>
      <trkpt lat="43.53664" lon="1.13408">
        <ele>264</ele>
        <time>2020-11-29T09:09:32Z</time>
      </trkpt>
      <trkpt lat="43.53666" lon="1.13411">
        <ele>263.5</ele>
        <time>2020-11-29T09:09:33Z</time>
      </trkpt>
      <trkpt lat="43.5367" lon="1.13414">
        <ele>262.7</ele>
        <time>2020-11-29T09:09:34Z</time>
      </trkpt>
      <trkpt lat="43.53673" lon="1.13417">
        <ele>261.6</ele>
        <time>2020-11-29T09:09:35Z</time>
      </trkpt>
      <trkpt lat="43.53677" lon="1.13419">
        <ele>261.3</ele>
        <time>2020-11-29T09:09:36Z</time>
      </trkpt>
      <trkpt lat="43.53682" lon="1.1342">
        <ele>260.9</ele>
        <time>2020-11-29T09:09:37Z</time>
      </trkpt>
      <trkpt lat="43.53688" lon="1.13421">
        <ele>260.7</ele>
        <time>2020-11-29T09:09:38Z</time>
      </trkpt>
      <trkpt lat="43.53693" lon="1.13422">
        <ele>259.9</ele>
        <time>2020-11-29T09:09:39Z</time>
      </trkpt>
      <trkpt lat="43.53696" lon="1.13421">
        <ele>259.7</ele>
        <time>2020-11-29T09:09:40Z</time>
      </trkpt>
      <trkpt lat="43.53701" lon="1.13423">
        <ele>259.5</ele>
        <time>2020-11-29T09:09:41Z</time>
      </trkpt>
      <trkpt lat="43.53705" lon="1.13423">
        <ele>259.1</ele>
        <time>2020-11-29T09:09:42Z</time>
      </trkpt>
      <trkpt lat="43.53709" lon="1.13423">
        <ele>259</ele>
        <time>2020-11-29T09:09:43Z</time>
      </trkpt>
      <trkpt lat="43.53712" lon="1.13424">
        <ele>258.9</ele>
        <time>2020-11-29T09:09:44Z</time>
      </trkpt>
      <trkpt lat="43.53716" lon="1.13425">
        <ele>258.7</ele>
        <time>2020-11-29T09:09:45Z</time>
      </trkpt>
      <trkpt lat="43.53719" lon="1.13428">
        <ele>258.3</ele>
        <time>2020-11-29T09:09:46Z</time>
      </trkpt>
      <trkpt lat="43.53724" lon="1.13435">
        <ele>257.4</ele>
        <time>2020-11-29T09:09:47Z</time>
      </trkpt>
      <trkpt lat="43.53728" lon="1.13441">
        <ele>257.1</ele>
        <time>2020-11-29T09:09:48Z</time>
      </trkpt>
      <trkpt lat="43.53732" lon="1.13447">
        <ele>256.8</ele>
        <time>2020-11-29T09:09:49Z</time>
      </trkpt>
      <trkpt lat="43.53734" lon="1.1345">
        <ele>256.6</ele>
        <time>2020-11-29T09:09:50Z</time>
      </trkpt>
      <trkpt lat="43.53735" lon="1.13452">
        <ele>256.5</ele>
        <time>2020-11-29T09:09:51Z</time>
      </trkpt>
      <trkpt lat="43.53736" lon="1.13456">
        <ele>256.3</ele>
        <time>2020-11-29T09:09:52Z</time>
      </trkpt>
      <trkpt lat="43.53737" lon="1.13457">
        <ele>256.3</ele>
        <time>2020-11-29T09:09:53Z</time>
      </trkpt>
      <trkpt lat="43.53738" lon="1.13459">
        <ele>256.2</ele>
        <time>2020-11-29T09:09:54Z</time>
      </trkpt>
      <trkpt lat="43.53738" lon="1.13463">
        <ele>256.3</ele>
        <time>2020-11-29T09:09:55Z</time>
      </trkpt>
      <trkpt lat="43.53737" lon="1.13465">
        <ele>256.2</ele>
        <time>2020-11-29T09:09:56Z</time>
      </trkpt>
      <trkpt lat="43.53736" lon="1.13467">
        <ele>256.2</ele>
        <time>2020-11-29T09:09:57Z</time>
      </trkpt>
      <trkpt lat="43.53734" lon="1.13469">
        <ele>256.3</ele>
        <time>2020-11-29T09:09:58Z</time>
      </trkpt>
      <trkpt lat="43.53732" lon="1.13473">
        <ele>256.4</ele>
        <time>2020-11-29T09:09:59Z</time>
      </trkpt>
      <trkpt lat="43.53731" lon="1.13477">
        <ele>256.5</ele>
        <time>2020-11-29T09:10:00Z</time>
      </trkpt>
      <trkpt lat="43.53729" lon="1.1348">
        <ele>256.6</ele>
        <time>2020-11-29T09:10:01Z</time>
      </trkpt>
      <trkpt lat="43.53729" lon="1.13481">
        <ele>256.7</ele>
        <time>2020-11-29T09:10:02Z</time>
      </trkpt>
      <trkpt lat="43.53728" lon="1.13483">
        <ele>256.7</ele>
        <time>2020-11-29T09:10:03Z</time>
      </trkpt>
      <trkpt lat="43.53727" lon="1.13484">
        <ele>256.8</ele>
        <time>2020-11-29T09:10:04Z</time>
      </trkpt>
      <trkpt lat="43.53725" lon="1.13486">
        <ele>256.8</ele>
        <time>2020-11-29T09:10:05Z</time>
      </trkpt>
      <trkpt lat="43.53724" lon="1.13487">
        <ele>256.9</ele>
        <time>2020-11-29T09:10:06Z</time>
      </trkpt>
      <trkpt lat="43.53721" lon="1.13489">
        <ele>257</ele>
        <time>2020-11-29T09:10:07Z</time>
      </trkpt>
      <trkpt lat="43.5372" lon="1.1349">
        <ele>257.1</ele>
        <time>2020-11-29T09:10:08Z</time>
      </trkpt>
      <trkpt lat="43.53719" lon="1.13491">
        <ele>257.1</ele>
        <time>2020-11-29T09:10:09Z</time>
      </trkpt>
      <trkpt lat="43.53717" lon="1.13492">
        <ele>257.2</ele>
        <time>2020-11-29T09:10:10Z</time>
      </trkpt>
      <trkpt lat="43.53716" lon="1.13493">
        <ele>257.3</ele>
        <time>2020-11-29T09:10:11Z</time>
      </trkpt>
      <trkpt lat="43.53714" lon="1.13493">
        <ele>257.3</ele>
        <time>2020-11-29T09:10:12Z</time>
      </trkpt>
      <trkpt lat="43.53711" lon="1.13494">
        <ele>257.4</ele>
        <time>2020-11-29T09:10:13Z</time>
      </trkpt>
      <trkpt lat="43.5371" lon="1.13494">
        <ele>257.4</ele>
        <time>2020-11-29T09:10:14Z</time>
      </trkpt>
      <trkpt lat="43.53706" lon="1.13495">
        <ele>257.5</ele>
        <time>2020-11-29T09:10:15Z</time>
      </trkpt>
      <trkpt lat="43.53705" lon="1.13496">
        <ele>257.6</ele>
        <time>2020-11-29T09:10:16Z</time>
      </trkpt>
      <trkpt lat="43.53701" lon="1.13496">
        <ele>257.7</ele>
        <time>2020-11-29T09:10:17Z</time>
      </trkpt>
      <trkpt lat="43.53699" lon="1.13496">
        <ele>257.7</ele>
        <time>2020-11-29T09:10:18Z</time>
      </trkpt>
      <trkpt lat="43.53696" lon="1.13496">
        <ele>257.7</ele>
        <time>2020-11-29T09:10:19Z</time>
      </trkpt>
      <trkpt lat="43.53693" lon="1.13497">
        <ele>257.7</ele>
        <time>2020-11-29T09:10:20Z</time>
      </trkpt>
      <trkpt lat="43.5369" lon="1.13497">
        <ele>257.8</ele>
        <time>2020-11-29T09:10:21Z</time>
      </trkpt>
      <trkpt lat="43.53686" lon="1.13498">
        <ele>257.8</ele>
        <time>2020-11-29T09:10:22Z</time>
      </trkpt>
      <trkpt lat="43.53682" lon="1.13498">
        <ele>257.8</ele>
        <time>2020-11-29T09:10:23Z</time>
      </trkpt>
      <trkpt lat="43.53678" lon="1.13498">
        <ele>257.8</ele>
        <time>2020-11-29T09:10:24Z</time>
      </trkpt>
      <trkpt lat="43.53674" lon="1.13498">
        <ele>257.8</ele>
        <time>2020-11-29T09:10:25Z</time>
      </trkpt>
      <trkpt lat="43.5367" lon="1.135">
        <ele>257.7</ele>
        <time>2020-11-29T09:10:26Z</time>
      </trkpt>
      <trkpt lat="43.53667" lon="1.13501">
        <ele>257.7</ele>
        <time>2020-11-29T09:10:27Z</time>
      </trkpt>
      <trkpt lat="43.53663" lon="1.135">
        <ele>257.6</ele>
        <time>2020-11-29T09:10:28Z</time>
      </trkpt>
      <trkpt lat="43.5366" lon="1.135">
        <ele>257.5</ele>
        <time>2020-11-29T09:10:29Z</time>
      </trkpt>
      <trkpt lat="43.53659" lon="1.13501">
        <ele>257.5</ele>
        <time>2020-11-29T09:10:30Z</time>
      </trkpt>
      <trkpt lat="43.53655" lon="1.13502">
        <ele>257.5</ele>
        <time>2020-11-29T09:10:31Z</time>
      </trkpt>
      <trkpt lat="43.53654" lon="1.13502">
        <ele>257.4</ele>
        <time>2020-11-29T09:10:32Z</time>
      </trkpt>
      <trkpt lat="43.53652" lon="1.13503">
        <ele>257.4</ele>
        <time>2020-11-29T09:10:33Z</time>
      </trkpt>
      <trkpt lat="43.5365" lon="1.13501">
        <ele>257.4</ele>
        <time>2020-11-29T09:10:34Z</time>
      </trkpt>
      <trkpt lat="43.53649" lon="1.13498">
        <ele>257.3</ele>
        <time>2020-11-29T09:10:35Z</time>
      </trkpt>
      <trkpt lat="43.53647" lon="1.13494">
        <ele>257.2</ele>
        <time>2020-11-29T09:10:36Z</time>
      </trkpt>
      <trkpt lat="43.53646" lon="1.13493">
        <ele>257.2</ele>
        <time>2020-11-29T09:10:37Z</time>
      </trkpt>
      <trkpt lat="43.53645" lon="1.13493">
        <ele>257.2</ele>
        <time>2020-11-29T09:10:38Z</time>
      </trkpt>
      <trkpt lat="43.53644" lon="1.13495">
        <ele>257.2</ele>
        <time>2020-11-29T09:10:39Z</time>
      </trkpt>
      <trkpt lat="43.53642" lon="1.13498">
        <ele>257.1</ele>
        <time>2020-11-29T09:10:40Z</time>
      </trkpt>
      <trkpt lat="43.53639" lon="1.13502">
        <ele>257.1</ele>
        <time>2020-11-29T09:10:41Z</time>
      </trkpt>
      <trkpt lat="43.53635" lon="1.13504">
        <ele>257.1</ele>
        <time>2020-11-29T09:10:42Z</time>
      </trkpt>
      <trkpt lat="43.53634" lon="1.13504">
        <ele>257.1</ele>
        <time>2020-11-29T09:10:43Z</time>
      </trkpt>
      <trkpt lat="43.5363" lon="1.13506">
        <ele>257</ele>
        <time>2020-11-29T09:10:44Z</time>
      </trkpt>
      <trkpt lat="43.53627" lon="1.13506">
        <ele>257.1</ele>
        <time>2020-11-29T09:10:45Z</time>
      </trkpt>
      <trkpt lat="43.53624" lon="1.13506">
        <ele>257.1</ele>
        <time>2020-11-29T09:10:46Z</time>
      </trkpt>
      <trkpt lat="43.5362" lon="1.13506">
        <ele>257.1</ele>
        <time>2020-11-29T09:10:47Z</time>
      </trkpt>
      <trkpt lat="43.53616" lon="1.13506">
        <ele>257.2</ele>
        <time>2020-11-29T09:10:48Z</time>
      </trkpt>
      <trkpt lat="43.53613" lon="1.13507">
        <ele>257.2</ele>
        <time>2020-11-29T09:10:49Z</time>
      </trkpt>
      <trkpt lat="43.53609" lon="1.13507">
        <ele>257.3</ele>
        <time>2020-11-29T09:10:50Z</time>
      </trkpt>
      <trkpt lat="43.53606" lon="1.13506">
        <ele>257.3</ele>
        <time>2020-11-29T09:10:51Z</time>
      </trkpt>
      <trkpt lat="43.53603" lon="1.13504">
        <ele>257.4</ele>
        <time>2020-11-29T09:10:52Z</time>
      </trkpt>
      <trkpt lat="43.536" lon="1.13503">
        <ele>257.5</ele>
        <time>2020-11-29T09:10:53Z</time>
      </trkpt>
      <trkpt lat="43.53597" lon="1.13501">
        <ele>257.6</ele>
        <time>2020-11-29T09:10:54Z</time>
      </trkpt>
      <trkpt lat="43.53593" lon="1.135">
        <ele>257.8</ele>
        <time>2020-11-29T09:10:55Z</time>
      </trkpt>
      <trkpt lat="43.53591" lon="1.13499">
        <ele>257.9</ele>
        <time>2020-11-29T09:10:56Z</time>
      </trkpt>
      <trkpt lat="43.53588" lon="1.13498">
        <ele>258.1</ele>
        <time>2020-11-29T09:10:57Z</time>
      </trkpt>
      <trkpt lat="43.53584" lon="1.13496">
        <ele>258.3</ele>
        <time>2020-11-29T09:10:58Z</time>
      </trkpt>
      <trkpt lat="43.53581" lon="1.13495">
        <ele>258.5</ele>
        <time>2020-11-29T09:10:59Z</time>
      </trkpt>
      <trkpt lat="43.53578" lon="1.13493">
        <ele>258.8</ele>
        <time>2020-11-29T09:11:00Z</time>
      </trkpt>
      <trkpt lat="43.53575" lon="1.13491">
        <ele>259</ele>
        <time>2020-11-29T09:11:01Z</time>
      </trkpt>
      <trkpt lat="43.53572" lon="1.13489">
        <ele>259.3</ele>
        <time>2020-11-29T09:11:02Z</time>
      </trkpt>
      <trkpt lat="43.53569" lon="1.13488">
        <ele>259.5</ele>
        <time>2020-11-29T09:11:03Z</time>
      </trkpt>
      <trkpt lat="43.53566" lon="1.13486">
        <ele>259.8</ele>
        <time>2020-11-29T09:11:04Z</time>
      </trkpt>
      <trkpt lat="43.53563" lon="1.13485">
        <ele>260.1</ele>
        <time>2020-11-29T09:11:05Z</time>
      </trkpt>
      <trkpt lat="43.53559" lon="1.13484">
        <ele>260.5</ele>
        <time>2020-11-29T09:11:06Z</time>
      </trkpt>
      <trkpt lat="43.53556" lon="1.13482">
        <ele>260.9</ele>
        <time>2020-11-29T09:11:07Z</time>
      </trkpt>
      <trkpt lat="43.53553" lon="1.1348">
        <ele>261.2</ele>
        <time>2020-11-29T09:11:08Z</time>
      </trkpt>
      <trkpt lat="43.5355" lon="1.13478">
        <ele>261.5</ele>
        <time>2020-11-29T09:11:09Z</time>
      </trkpt>
      <trkpt lat="43.53547" lon="1.13476">
        <ele>261.9</ele>
        <time>2020-11-29T09:11:10Z</time>
      </trkpt>
      <trkpt lat="43.53545" lon="1.13475">
        <ele>262.2</ele>
        <time>2020-11-29T09:11:11Z</time>
      </trkpt>
      <trkpt lat="43.53541" lon="1.13473">
        <ele>262.5</ele>
        <time>2020-11-29T09:11:12Z</time>
      </trkpt>
      <trkpt lat="43.53538" lon="1.13472">
        <ele>262.9</ele>
        <time>2020-11-29T09:11:13Z</time>
      </trkpt>
      <trkpt lat="43.53535" lon="1.13471">
        <ele>263.3</ele>
        <time>2020-11-29T09:11:14Z</time>
      </trkpt>
      <trkpt lat="43.53532" lon="1.1347">
        <ele>263.7</ele>
        <time>2020-11-29T09:11:15Z</time>
      </trkpt>
      <trkpt lat="43.53529" lon="1.13468">
        <ele>264</ele>
        <time>2020-11-29T09:11:16Z</time>
      </trkpt>
      <trkpt lat="43.53525" lon="1.13466">
        <ele>264.5</ele>
        <time>2020-11-29T09:11:17Z</time>
      </trkpt>
      <trkpt lat="43.53523" lon="1.13465">
        <ele>264.7</ele>
        <time>2020-11-29T09:11:18Z</time>
      </trkpt>
      <trkpt lat="43.53521" lon="1.13463">
        <ele>265.1</ele>
        <time>2020-11-29T09:11:19Z</time>
      </trkpt>
      <trkpt lat="43.53518" lon="1.13462">
        <ele>265.4</ele>
        <time>2020-11-29T09:11:20Z</time>
      </trkpt>
      <trkpt lat="43.53514" lon="1.13461">
        <ele>265.9</ele>
        <time>2020-11-29T09:11:21Z</time>
      </trkpt>
      <trkpt lat="43.53511" lon="1.1346">
        <ele>266.2</ele>
        <time>2020-11-29T09:11:22Z</time>
      </trkpt>
      <trkpt lat="43.53508" lon="1.13458">
        <ele>266.7</ele>
        <time>2020-11-29T09:11:23Z</time>
      </trkpt>
      <trkpt lat="43.53506" lon="1.13458">
        <ele>266.8</ele>
        <time>2020-11-29T09:11:24Z</time>
      </trkpt>
      <trkpt lat="43.53503" lon="1.13457">
        <ele>267.2</ele>
        <time>2020-11-29T09:11:25Z</time>
      </trkpt>
      <trkpt lat="43.53499" lon="1.13456">
        <ele>267.7</ele>
        <time>2020-11-29T09:11:26Z</time>
      </trkpt>
      <trkpt lat="43.53496" lon="1.13454">
        <ele>268.1</ele>
        <time>2020-11-29T09:11:27Z</time>
      </trkpt>
      <trkpt lat="43.53493" lon="1.13452">
        <ele>268.5</ele>
        <time>2020-11-29T09:11:28Z</time>
      </trkpt>
      <trkpt lat="43.53492" lon="1.13452">
        <ele>268.6</ele>
        <time>2020-11-29T09:11:29Z</time>
      </trkpt>
      <trkpt lat="43.53489" lon="1.1345">
        <ele>268.9</ele>
        <time>2020-11-29T09:11:30Z</time>
      </trkpt>
      <trkpt lat="43.53486" lon="1.13448">
        <ele>269.4</ele>
        <time>2020-11-29T09:11:31Z</time>
      </trkpt>
      <trkpt lat="43.53484" lon="1.13447">
        <ele>269.5</ele>
        <time>2020-11-29T09:11:32Z</time>
      </trkpt>
      <trkpt lat="43.53482" lon="1.13444">
        <ele>269.9</ele>
        <time>2020-11-29T09:11:33Z</time>
      </trkpt>
      <trkpt lat="43.53481" lon="1.13444">
        <ele>270</ele>
        <time>2020-11-29T09:11:34Z</time>
      </trkpt>
      <trkpt lat="43.53478" lon="1.13441">
        <ele>270.4</ele>
        <time>2020-11-29T09:11:35Z</time>
      </trkpt>
      <trkpt lat="43.53476" lon="1.1344">
        <ele>270.5</ele>
        <time>2020-11-29T09:11:36Z</time>
      </trkpt>
      <trkpt lat="43.53473" lon="1.13437">
        <ele>270.9</ele>
        <time>2020-11-29T09:11:37Z</time>
      </trkpt>
      <trkpt lat="43.53472" lon="1.13436">
        <ele>271.1</ele>
        <time>2020-11-29T09:11:38Z</time>
      </trkpt>
      <trkpt lat="43.53469" lon="1.13435">
        <ele>271.5</ele>
        <time>2020-11-29T09:11:39Z</time>
      </trkpt>
      <trkpt lat="43.53467" lon="1.13435">
        <ele>271.6</ele>
        <time>2020-11-29T09:11:40Z</time>
      </trkpt>
      <trkpt lat="43.53465" lon="1.13434">
        <ele>271.9</ele>
        <time>2020-11-29T09:11:41Z</time>
      </trkpt>
      <trkpt lat="43.53462" lon="1.13431">
        <ele>272.2</ele>
        <time>2020-11-29T09:11:42Z</time>
      </trkpt>
      <trkpt lat="43.53459" lon="1.13429">
        <ele>272.7</ele>
        <time>2020-11-29T09:11:43Z</time>
      </trkpt>
      <trkpt lat="43.53458" lon="1.13428">
        <ele>272.8</ele>
        <time>2020-11-29T09:11:44Z</time>
      </trkpt>
      <trkpt lat="43.53454" lon="1.13427">
        <ele>273.2</ele>
        <time>2020-11-29T09:11:45Z</time>
      </trkpt>
      <trkpt lat="43.53453" lon="1.13427">
        <ele>273.4</ele>
        <time>2020-11-29T09:11:46Z</time>
      </trkpt>
      <trkpt lat="43.5345" lon="1.13426">
        <ele>273.7</ele>
        <time>2020-11-29T09:11:47Z</time>
      </trkpt>
      <trkpt lat="43.53449" lon="1.13426">
        <ele>273.9</ele>
        <time>2020-11-29T09:11:48Z</time>
      </trkpt>
      <trkpt lat="43.53446" lon="1.13426">
        <ele>274.2</ele>
        <time>2020-11-29T09:11:49Z</time>
      </trkpt>
      <trkpt lat="43.53445" lon="1.13425">
        <ele>274.4</ele>
        <time>2020-11-29T09:11:50Z</time>
      </trkpt>
      <trkpt lat="43.53441" lon="1.13425">
        <ele>274.8</ele>
        <time>2020-11-29T09:11:51Z</time>
      </trkpt>
      <trkpt lat="43.5344" lon="1.13425">
        <ele>274.9</ele>
        <time>2020-11-29T09:11:52Z</time>
      </trkpt>
      <trkpt lat="43.53437" lon="1.13424">
        <ele>275.3</ele>
        <time>2020-11-29T09:11:53Z</time>
      </trkpt>
      <trkpt lat="43.53436" lon="1.13424">
        <ele>275.5</ele>
        <time>2020-11-29T09:11:54Z</time>
      </trkpt>
      <trkpt lat="43.53432" lon="1.13424">
        <ele>275.9</ele>
        <time>2020-11-29T09:11:55Z</time>
      </trkpt>
      <trkpt lat="43.53431" lon="1.13425">
        <ele>276.1</ele>
        <time>2020-11-29T09:11:56Z</time>
      </trkpt>
      <trkpt lat="43.53428" lon="1.13425">
        <ele>276.5</ele>
        <time>2020-11-29T09:11:57Z</time>
      </trkpt>
      <trkpt lat="43.53426" lon="1.13425">
        <ele>276.6</ele>
        <time>2020-11-29T09:11:58Z</time>
      </trkpt>
      <trkpt lat="43.53426" lon="1.13424">
        <ele>276.8</ele>
        <time>2020-11-29T09:11:59Z</time>
      </trkpt>
      <trkpt lat="43.53424" lon="1.13424">
        <ele>276.9</ele>
        <time>2020-11-29T09:12:00Z</time>
      </trkpt>
      <trkpt lat="43.53423" lon="1.13424">
        <ele>277</ele>
        <time>2020-11-29T09:12:01Z</time>
      </trkpt>
      <trkpt lat="43.53424" lon="1.13424">
        <ele>277.1</ele>
        <time>2020-11-29T09:12:02Z</time>
      </trkpt>
      <trkpt lat="43.53425" lon="1.13424">
        <ele>277.3</ele>
        <time>2020-11-29T09:12:03Z</time>
      </trkpt>
      <trkpt lat="43.53426" lon="1.13423">
        <ele>277.4</ele>
        <time>2020-11-29T09:12:04Z</time>
      </trkpt>
      <trkpt lat="43.53427" lon="1.13423">
        <ele>277.5</ele>
        <time>2020-11-29T09:12:05Z</time>
      </trkpt>
      <trkpt lat="43.53426" lon="1.13423">
        <ele>277.6</ele>
        <time>2020-11-29T09:12:06Z</time>
      </trkpt>
      <trkpt lat="43.53425" lon="1.13423">
        <ele>277.7</ele>
        <time>2020-11-29T09:12:07Z</time>
      </trkpt>
      <trkpt lat="43.53425" lon="1.13423">
        <ele>277.7</ele>
        <time>2020-11-29T09:12:08Z</time>
      </trkpt>
      <trkpt lat="43.53425" lon="1.13423">
        <ele>277.7</ele>
        <time>2020-11-29T09:12:09Z</time>
      </trkpt>
      <trkpt lat="43.53425" lon="1.13423">
        <ele>277.8</ele>
        <time>2020-11-29T09:12:10Z</time>
      </trkpt>
      <trkpt lat="43.53425" lon="1.13422">
        <ele>277.8</ele>
        <time>2020-11-29T09:12:11Z</time>
      </trkpt>
      <trkpt lat="43.53424" lon="1.13422">
        <ele>277.9</ele>
        <time>2020-11-29T09:12:12Z</time>
      </trkpt>
      <trkpt lat="43.53424" lon="1.13422">
        <ele>277.9</ele>
        <time>2020-11-29T09:12:13Z</time>
      </trkpt>
      <trkpt lat="43.53424" lon="1.13422">
        <ele>277.9</ele>
        <time>2020-11-29T09:12:14Z</time>
      </trkpt>
      <trkpt lat="43.53424" lon="1.13422">
        <ele>278</ele>
        <time>2020-11-29T09:12:15Z</time>
      </trkpt>
      <trkpt lat="43.53424" lon="1.13422">
        <ele>278</ele>
        <time>2020-11-29T09:12:16Z</time>
      </trkpt>
      <trkpt lat="43.53424" lon="1.13422">
        <ele>278</ele>
        <time>2020-11-29T09:12:17Z</time>
      </trkpt>
      <trkpt lat="43.53424" lon="1.13422">
        <ele>278</ele>
        <time>2020-11-29T09:12:18Z</time>
      </trkpt>
      <trkpt lat="43.53424" lon="1.13422">
        <ele>278</ele>
        <time>2020-11-29T09:12:19Z</time>
      </trkpt>
      <trkpt lat="43.53424" lon="1.13422">
        <ele>278</ele>
        <time>2020-11-29T09:12:20Z</time>
      </trkpt>
      <trkpt lat="43.53424" lon="1.13422">
        <ele>278</ele>
        <time>2020-11-29T09:12:21Z</time>
      </trkpt>
      <trkpt lat="43.53423" lon="1.13422">
        <ele>278</ele>
        <time>2020-11-29T09:12:22Z</time>
      </trkpt>
      <trkpt lat="43.53423" lon="1.13422">
        <ele>278</ele>
        <time>2020-11-29T09:12:23Z</time>
      </trkpt>
      <trkpt lat="43.53423" lon="1.13422">
        <ele>278</ele>
        <time>2020-11-29T09:12:24Z</time>
      </trkpt>
      <trkpt lat="43.53423" lon="1.13422">
        <ele>278</ele>
        <time>2020-11-29T09:12:25Z</time>
      </trkpt>
      <trkpt lat="43.53423" lon="1.13422">
        <ele>278</ele>
        <time>2020-11-29T09:12:26Z</time>
      </trkpt>
      <trkpt lat="43.53423" lon="1.13422">
        <ele>278.1</ele>
        <time>2020-11-29T09:12:27Z</time>
      </trkpt>
      <trkpt lat="43.53423" lon="1.13422">
        <ele>278.1</ele>
        <time>2020-11-29T09:12:28Z</time>
      </trkpt>
      <trkpt lat="43.53423" lon="1.13422">
        <ele>278.1</ele>
        <time>2020-11-29T09:12:29Z</time>
      </trkpt>
      <trkpt lat="43.53423" lon="1.13422">
        <ele>278.1</ele>
        <time>2020-11-29T09:12:30Z</time>
      </trkpt>
      <trkpt lat="43.53423" lon="1.13422">
        <ele>278.1</ele>
        <time>2020-11-29T09:12:31Z</time>
      </trkpt>
      <trkpt lat="43.53423" lon="1.13422">
        <ele>278.1</ele>
        <time>2020-11-29T09:12:32Z</time>
      </trkpt>
      <trkpt lat="43.53423" lon="1.13422">
        <ele>278.1</ele>
        <time>2020-11-29T09:12:33Z</time>
      </trkpt>
      <trkpt lat="43.53423" lon="1.13422">
        <ele>278.1</ele>
        <time>2020-11-29T09:12:34Z</time>
      </trkpt>
      <trkpt lat="43.53423" lon="1.13422">
        <ele>278.1</ele>
        <time>2020-11-29T09:12:35Z</time>
      </trkpt>
      <trkpt lat="43.53423" lon="1.13422">
        <ele>278.1</ele>
        <time>2020-11-29T09:12:36Z</time>
      </trkpt>
      <trkpt lat="43.53423" lon="1.13422">
        <ele>278.1</ele>
        <time>2020-11-29T09:12:37Z</time>
      </trkpt>
      <trkpt lat="43.53423" lon="1.13422">
        <ele>278.1</ele>
        <time>2020-11-29T09:12:38Z</time>
      </trkpt>
      <trkpt lat="43.53423" lon="1.13422">
        <ele>278.1</ele>
        <time>2020-11-29T09:12:39Z</time>
      </trkpt>
      <trkpt lat="43.53422" lon="1.13422">
        <ele>278.2</ele>
        <time>2020-11-29T09:12:40Z</time>
      </trkpt>
      <trkpt lat="43.53422" lon="1.13422">
        <ele>278.2</ele>
        <time>2020-11-29T09:12:41Z</time>
      </trkpt>
      <trkpt lat="43.53422" lon="1.13422">
        <ele>278.2</ele>
        <time>2020-11-29T09:12:42Z</time>
      </trkpt>
      <trkpt lat="43.53422" lon="1.13422">
        <ele>278.2</ele>
        <time>2020-11-29T09:12:43Z</time>
      </trkpt>
      <trkpt lat="43.53422" lon="1.13422">
        <ele>278.2</ele>
        <time>2020-11-29T09:12:44Z</time>
      </trkpt>
      <trkpt lat="43.53422" lon="1.13422">
        <ele>278.2</ele>
        <time>2020-11-29T09:12:45Z</time>
      </trkpt>
      <trkpt lat="43.53422" lon="1.13422">
        <ele>278.2</ele>
        <time>2020-11-29T09:12:46Z</time>
      </trkpt>
      <trkpt lat="43.53422" lon="1.13421">
        <ele>278.2</ele>
        <time>2020-11-29T09:12:47Z</time>
      </trkpt>
      <trkpt lat="43.53422" lon="1.13421">
        <ele>278.3</ele>
        <time>2020-11-29T09:12:48Z</time>
      </trkpt>
      <trkpt lat="43.53421" lon="1.13421">
        <ele>278.4</ele>
        <time>2020-11-29T09:12:49Z</time>
      </trkpt>
      <trkpt lat="43.53421" lon="1.13421">
        <ele>278.4</ele>
        <time>2020-11-29T09:12:50Z</time>
      </trkpt>
      <trkpt lat="43.53421" lon="1.13421">
        <ele>278.4</ele>
        <time>2020-11-29T09:12:51Z</time>
      </trkpt>
      <trkpt lat="43.53421" lon="1.13421">
        <ele>278.4</ele>
        <time>2020-11-29T09:12:52Z</time>
      </trkpt>
      <trkpt lat="43.53421" lon="1.13421">
        <ele>278.4</ele>
        <time>2020-11-29T09:12:53Z</time>
      </trkpt>
      <trkpt lat="43.53421" lon="1.13421">
        <ele>278.4</ele>
        <time>2020-11-29T09:12:54Z</time>
      </trkpt>
      <trkpt lat="43.53421" lon="1.13421">
        <ele>278.4</ele>
        <time>2020-11-29T09:12:55Z</time>
      </trkpt>
      <trkpt lat="43.53421" lon="1.13421">
        <ele>278.4</ele>
        <time>2020-11-29T09:12:56Z</time>
      </trkpt>
      <trkpt lat="43.53421" lon="1.13422">
        <ele>278.5</ele>
        <time>2020-11-29T09:12:57Z</time>
      </trkpt>
      <trkpt lat="43.53421" lon="1.13422">
        <ele>278.6</ele>
        <time>2020-11-29T09:12:58Z</time>
      </trkpt>
      <trkpt lat="43.53421" lon="1.13422">
        <ele>278.6</ele>
        <time>2020-11-29T09:12:59Z</time>
      </trkpt>
      <trkpt lat="43.53421" lon="1.13422">
        <ele>278.6</ele>
        <time>2020-11-29T09:13:00Z</time>
      </trkpt>
      <trkpt lat="43.53421" lon="1.13422">
        <ele>278.6</ele>
        <time>2020-11-29T09:13:01Z</time>
      </trkpt>
      <trkpt lat="43.53421" lon="1.13422">
        <ele>278.6</ele>
        <time>2020-11-29T09:13:02Z</time>
      </trkpt>
      <trkpt lat="43.53421" lon="1.13422">
        <ele>278.6</ele>
        <time>2020-11-29T09:13:03Z</time>
      </trkpt>
      <trkpt lat="43.53421" lon="1.13423">
        <ele>278.6</ele>
        <time>2020-11-29T09:13:04Z</time>
      </trkpt>
      <trkpt lat="43.53421" lon="1.13423">
        <ele>278.7</ele>
        <time>2020-11-29T09:13:05Z</time>
      </trkpt>
      <trkpt lat="43.53421" lon="1.13423">
        <ele>278.7</ele>
        <time>2020-11-29T09:13:06Z</time>
      </trkpt>
      <trkpt lat="43.53421" lon="1.13424">
        <ele>278.8</ele>
        <time>2020-11-29T09:13:07Z</time>
      </trkpt>
      <trkpt lat="43.53421" lon="1.13425">
        <ele>278.9</ele>
        <time>2020-11-29T09:13:08Z</time>
      </trkpt>
      <trkpt lat="43.53421" lon="1.13425">
        <ele>278.9</ele>
        <time>2020-11-29T09:13:09Z</time>
      </trkpt>
      <trkpt lat="43.53422" lon="1.13426">
        <ele>279</ele>
        <time>2020-11-29T09:13:10Z</time>
      </trkpt>
      <trkpt lat="43.53422" lon="1.13427">
        <ele>279.1</ele>
        <time>2020-11-29T09:13:11Z</time>
      </trkpt>
      <trkpt lat="43.53422" lon="1.13427">
        <ele>279.2</ele>
        <time>2020-11-29T09:13:12Z</time>
      </trkpt>
      <trkpt lat="43.53422" lon="1.13427">
        <ele>279.2</ele>
        <time>2020-11-29T09:13:13Z</time>
      </trkpt>
      <trkpt lat="43.53422" lon="1.13427">
        <ele>279.2</ele>
        <time>2020-11-29T09:13:14Z</time>
      </trkpt>
      <trkpt lat="43.53422" lon="1.13427">
        <ele>279.2</ele>
        <time>2020-11-29T09:13:15Z</time>
      </trkpt>
      <trkpt lat="43.53422" lon="1.13427">
        <ele>279.2</ele>
        <time>2020-11-29T09:13:16Z</time>
      </trkpt>
      <trkpt lat="43.53422" lon="1.13427">
        <ele>279.2</ele>
        <time>2020-11-29T09:13:17Z</time>
      </trkpt>
      <trkpt lat="43.53422" lon="1.13427">
        <ele>279.2</ele>
        <time>2020-11-29T09:13:18Z</time>
      </trkpt>
      <trkpt lat="43.53422" lon="1.13427">
        <ele>279.3</ele>
        <time>2020-11-29T09:13:19Z</time>
      </trkpt>
      <trkpt lat="43.53422" lon="1.13427">
        <ele>279.3</ele>
        <time>2020-11-29T09:13:20Z</time>
      </trkpt>
      <trkpt lat="43.53422" lon="1.13427">
        <ele>279.3</ele>
        <time>2020-11-29T09:13:21Z</time>
      </trkpt>
      <trkpt lat="43.53421" lon="1.13427">
        <ele>279.3</ele>
        <time>2020-11-29T09:13:22Z</time>
      </trkpt>
      <trkpt lat="43.53421" lon="1.13428">
        <ele>279.3</ele>
        <time>2020-11-29T09:13:23Z</time>
      </trkpt>
      <trkpt lat="43.53421" lon="1.13428">
        <ele>279.3</ele>
        <time>2020-11-29T09:13:24Z</time>
      </trkpt>
      <trkpt lat="43.53421" lon="1.13428">
        <ele>279.3</ele>
        <time>2020-11-29T09:13:25Z</time>
      </trkpt>
      <trkpt lat="43.53421" lon="1.13428">
        <ele>279.3</ele>
        <time>2020-11-29T09:13:26Z</time>
      </trkpt>
      <trkpt lat="43.53421" lon="1.13428">
        <ele>279.3</ele>
        <time>2020-11-29T09:13:27Z</time>
      </trkpt>
      <trkpt lat="43.53421" lon="1.13428">
        <ele>279.4</ele>
        <time>2020-11-29T09:13:28Z</time>
      </trkpt>
      <trkpt lat="43.53421" lon="1.13428">
        <ele>279.4</ele>
        <time>2020-11-29T09:13:29Z</time>
      </trkpt>
      <trkpt lat="43.53421" lon="1.13428">
        <ele>279.4</ele>
        <time>2020-11-29T09:13:30Z</time>
      </trkpt>
      <trkpt lat="43.53421" lon="1.13428">
        <ele>279.4</ele>
        <time>2020-11-29T09:13:31Z</time>
      </trkpt>
      <trkpt lat="43.53421" lon="1.13428">
        <ele>279.4</ele>
        <time>2020-11-29T09:13:32Z</time>
      </trkpt>
      <trkpt lat="43.53421" lon="1.13428">
        <ele>279.4</ele>
        <time>2020-11-29T09:13:33Z</time>
      </trkpt>
      <trkpt lat="43.53421" lon="1.13428">
        <ele>279.4</ele>
        <time>2020-11-29T09:13:34Z</time>
      </trkpt>
      <trkpt lat="43.53421" lon="1.13428">
        <ele>279.4</ele>
        <time>2020-11-29T09:13:35Z</time>
      </trkpt>
      <trkpt lat="43.53422" lon="1.13428">
        <ele>279.5</ele>
        <time>2020-11-29T09:13:36Z</time>
      </trkpt>
      <trkpt lat="43.53422" lon="1.1343">
        <ele>279.6</ele>
        <time>2020-11-29T09:13:37Z</time>
      </trkpt>
      <trkpt lat="43.53422" lon="1.1343">
        <ele>279.7</ele>
        <time>2020-11-29T09:13:38Z</time>
      </trkpt>
      <trkpt lat="43.53422" lon="1.13431">
        <ele>279.7</ele>
        <time>2020-11-29T09:13:39Z</time>
      </trkpt>
      <trkpt lat="43.53422" lon="1.13431">
        <ele>279.8</ele>
        <time>2020-11-29T09:13:40Z</time>
      </trkpt>
      <trkpt lat="43.53422" lon="1.13431">
        <ele>279.8</ele>
        <time>2020-11-29T09:13:41Z</time>
      </trkpt>
      <trkpt lat="43.53422" lon="1.13431">
        <ele>279.8</ele>
        <time>2020-11-29T09:13:42Z</time>
      </trkpt>
      <trkpt lat="43.53422" lon="1.13431">
        <ele>279.8</ele>
        <time>2020-11-29T09:13:43Z</time>
      </trkpt>
      <trkpt lat="43.53422" lon="1.13431">
        <ele>279.8</ele>
        <time>2020-11-29T09:13:44Z</time>
      </trkpt>
      <trkpt lat="43.53422" lon="1.13431">
        <ele>279.8</ele>
        <time>2020-11-29T09:13:45Z</time>
      </trkpt>
      <trkpt lat="43.53422" lon="1.13431">
        <ele>279.8</ele>
        <time>2020-11-29T09:13:46Z</time>
      </trkpt>
      <trkpt lat="43.53422" lon="1.13431">
        <ele>279.8</ele>
        <time>2020-11-29T09:13:47Z</time>
      </trkpt>
      <trkpt lat="43.53422" lon="1.13431">
        <ele>279.9</ele>
        <time>2020-11-29T09:13:48Z</time>
      </trkpt>
      <trkpt lat="43.53422" lon="1.13431">
        <ele>279.9</ele>
        <time>2020-11-29T09:13:49Z</time>
      </trkpt>
      <trkpt lat="43.53421" lon="1.13431">
        <ele>279.9</ele>
        <time>2020-11-29T09:13:50Z</time>
      </trkpt>
      <trkpt lat="43.53421" lon="1.13431">
        <ele>279.9</ele>
        <time>2020-11-29T09:13:51Z</time>
      </trkpt>
      <trkpt lat="43.53422" lon="1.13431">
        <ele>279.9</ele>
        <time>2020-11-29T09:13:52Z</time>
      </trkpt>
      <trkpt lat="43.53422" lon="1.13431">
        <ele>279.9</ele>
        <time>2020-11-29T09:13:53Z</time>
      </trkpt>
      <trkpt lat="43.53422" lon="1.13431">
        <ele>280</ele>
        <time>2020-11-29T09:13:54Z</time>
      </trkpt>
      <trkpt lat="43.53422" lon="1.13431">
        <ele>280</ele>
        <time>2020-11-29T09:13:55Z</time>
      </trkpt>
      <trkpt lat="43.53422" lon="1.13431">
        <ele>280</ele>
        <time>2020-11-29T09:13:56Z</time>
      </trkpt>
      <trkpt lat="43.53422" lon="1.1343">
        <ele>280.1</ele>
        <time>2020-11-29T09:13:57Z</time>
      </trkpt>
      <trkpt lat="43.53422" lon="1.1343">
        <ele>280.1</ele>
        <time>2020-11-29T09:13:58Z</time>
      </trkpt>
      <trkpt lat="43.53423" lon="1.1343">
        <ele>280.1</ele>
        <time>2020-11-29T09:13:59Z</time>
      </trkpt>
      <trkpt lat="43.53423" lon="1.1343">
        <ele>280.2</ele>
        <time>2020-11-29T09:14:00Z</time>
      </trkpt>
      <trkpt lat="43.53423" lon="1.13429">
        <ele>280.2</ele>
        <time>2020-11-29T09:14:01Z</time>
      </trkpt>
      <trkpt lat="43.53422" lon="1.13429">
        <ele>280.2</ele>
        <time>2020-11-29T09:14:02Z</time>
      </trkpt>
      <trkpt lat="43.53422" lon="1.13429">
        <ele>280.3</ele>
        <time>2020-11-29T09:14:03Z</time>
      </trkpt>
      <trkpt lat="43.53422" lon="1.13428">
        <ele>280.4</ele>
        <time>2020-11-29T09:14:04Z</time>
      </trkpt>
      <trkpt lat="43.53422" lon="1.13428">
        <ele>280.4</ele>
        <time>2020-11-29T09:14:05Z</time>
      </trkpt>
      <trkpt lat="43.53422" lon="1.13427">
        <ele>280.5</ele>
        <time>2020-11-29T09:14:06Z</time>
      </trkpt>
      <trkpt lat="43.53422" lon="1.13427">
        <ele>280.6</ele>
        <time>2020-11-29T09:14:07Z</time>
      </trkpt>
      <trkpt lat="43.53421" lon="1.13426">
        <ele>280.7</ele>
        <time>2020-11-29T09:14:08Z</time>
      </trkpt>
      <trkpt lat="43.53421" lon="1.13426">
        <ele>280.7</ele>
        <time>2020-11-29T09:14:09Z</time>
      </trkpt>
      <trkpt lat="43.53421" lon="1.13426">
        <ele>280.7</ele>
        <time>2020-11-29T09:14:10Z</time>
      </trkpt>
      <trkpt lat="43.53421" lon="1.13425">
        <ele>280.9</ele>
        <time>2020-11-29T09:14:11Z</time>
      </trkpt>
      <trkpt lat="43.53421" lon="1.13425">
        <ele>280.9</ele>
        <time>2020-11-29T09:14:12Z</time>
      </trkpt>
      <trkpt lat="43.53421" lon="1.13425">
        <ele>281</ele>
        <time>2020-11-29T09:14:13Z</time>
      </trkpt>
      <trkpt lat="43.53421" lon="1.13426">
        <ele>281.1</ele>
        <time>2020-11-29T09:14:14Z</time>
      </trkpt>
      <trkpt lat="43.53421" lon="1.13426">
        <ele>281.1</ele>
        <time>2020-11-29T09:14:15Z</time>
      </trkpt>
      <trkpt lat="43.5342" lon="1.13425">
        <ele>281.3</ele>
        <time>2020-11-29T09:14:16Z</time>
      </trkpt>
      <trkpt lat="43.5342" lon="1.13426">
        <ele>281.3</ele>
        <time>2020-11-29T09:14:17Z</time>
      </trkpt>
      <trkpt lat="43.53419" lon="1.13425">
        <ele>281.4</ele>
        <time>2020-11-29T09:14:18Z</time>
      </trkpt>
      <trkpt lat="43.53419" lon="1.13425">
        <ele>281.4</ele>
        <time>2020-11-29T09:14:19Z</time>
      </trkpt>
      <trkpt lat="43.53419" lon="1.13425">
        <ele>281.4</ele>
        <time>2020-11-29T09:14:20Z</time>
      </trkpt>
      <trkpt lat="43.53419" lon="1.13426">
        <ele>281.5</ele>
        <time>2020-11-29T09:14:21Z</time>
      </trkpt>
      <trkpt lat="43.53419" lon="1.13426">
        <ele>281.5</ele>
        <time>2020-11-29T09:14:22Z</time>
      </trkpt>
      <trkpt lat="43.53419" lon="1.13426">
        <ele>281.5</ele>
        <time>2020-11-29T09:14:23Z</time>
      </trkpt>
      <trkpt lat="43.53419" lon="1.13426">
        <ele>281.6</ele>
        <time>2020-11-29T09:14:24Z</time>
      </trkpt>
      <trkpt lat="43.53419" lon="1.13426">
        <ele>281.6</ele>
        <time>2020-11-29T09:14:25Z</time>
      </trkpt>
      <trkpt lat="43.53419" lon="1.13427">
        <ele>281.6</ele>
        <time>2020-11-29T09:14:26Z</time>
      </trkpt>
      <trkpt lat="43.53419" lon="1.13427">
        <ele>281.6</ele>
        <time>2020-11-29T09:14:27Z</time>
      </trkpt>
      <trkpt lat="43.53419" lon="1.13427">
        <ele>281.6</ele>
        <time>2020-11-29T09:14:28Z</time>
      </trkpt>
      <trkpt lat="43.53419" lon="1.13427">
        <ele>281.6</ele>
        <time>2020-11-29T09:14:29Z</time>
      </trkpt>
      <trkpt lat="43.53419" lon="1.13427">
        <ele>281.6</ele>
        <time>2020-11-29T09:14:30Z</time>
      </trkpt>
      <trkpt lat="43.53419" lon="1.13427">
        <ele>281.7</ele>
        <time>2020-11-29T09:14:31Z</time>
      </trkpt>
      <trkpt lat="43.53419" lon="1.13426">
        <ele>281.7</ele>
        <time>2020-11-29T09:14:32Z</time>
      </trkpt>
      <trkpt lat="43.53419" lon="1.13426">
        <ele>281.8</ele>
        <time>2020-11-29T09:14:33Z</time>
      </trkpt>
      <trkpt lat="43.5342" lon="1.13426">
        <ele>281.9</ele>
        <time>2020-11-29T09:14:34Z</time>
      </trkpt>
      <trkpt lat="43.53419" lon="1.13427">
        <ele>282</ele>
        <time>2020-11-29T09:14:35Z</time>
      </trkpt>
      <trkpt lat="43.53419" lon="1.13428">
        <ele>282.1</ele>
        <time>2020-11-29T09:14:36Z</time>
      </trkpt>
      <trkpt lat="43.5342" lon="1.13428">
        <ele>282.2</ele>
        <time>2020-11-29T09:14:37Z</time>
      </trkpt>
      <trkpt lat="43.5342" lon="1.13427">
        <ele>282.3</ele>
        <time>2020-11-29T09:14:38Z</time>
      </trkpt>
      <trkpt lat="43.5342" lon="1.13427">
        <ele>282.3</ele>
        <time>2020-11-29T09:14:39Z</time>
      </trkpt>
      <trkpt lat="43.5342" lon="1.13427">
        <ele>282.3</ele>
        <time>2020-11-29T09:14:40Z</time>
      </trkpt>
      <trkpt lat="43.5342" lon="1.13427">
        <ele>282.4</ele>
        <time>2020-11-29T09:14:41Z</time>
      </trkpt>
      <trkpt lat="43.53421" lon="1.13428">
        <ele>282.5</ele>
        <time>2020-11-29T09:14:42Z</time>
      </trkpt>
      <trkpt lat="43.5342" lon="1.13427">
        <ele>282.6</ele>
        <time>2020-11-29T09:14:43Z</time>
      </trkpt>
      <trkpt lat="43.5342" lon="1.13427">
        <ele>282.6</ele>
        <time>2020-11-29T09:14:44Z</time>
      </trkpt>
      <trkpt lat="43.5342" lon="1.13427">
        <ele>282.6</ele>
        <time>2020-11-29T09:14:45Z</time>
      </trkpt>
      <trkpt lat="43.5342" lon="1.13427">
        <ele>282.7</ele>
        <time>2020-11-29T09:14:46Z</time>
      </trkpt>
      <trkpt lat="43.5342" lon="1.13427">
        <ele>282.7</ele>
        <time>2020-11-29T09:14:47Z</time>
      </trkpt>
      <trkpt lat="43.53419" lon="1.13427">
        <ele>282.8</ele>
        <time>2020-11-29T09:14:48Z</time>
      </trkpt>
      <trkpt lat="43.53419" lon="1.13427">
        <ele>282.8</ele>
        <time>2020-11-29T09:14:49Z</time>
      </trkpt>
      <trkpt lat="43.53419" lon="1.13427">
        <ele>282.8</ele>
        <time>2020-11-29T09:14:50Z</time>
      </trkpt>
      <trkpt lat="43.53419" lon="1.13427">
        <ele>282.8</ele>
        <time>2020-11-29T09:14:51Z</time>
      </trkpt>
      <trkpt lat="43.53419" lon="1.13427">
        <ele>282.9</ele>
        <time>2020-11-29T09:14:52Z</time>
      </trkpt>
      <trkpt lat="43.53419" lon="1.13427">
        <ele>282.9</ele>
        <time>2020-11-29T09:14:53Z</time>
      </trkpt>
      <trkpt lat="43.53419" lon="1.13427">
        <ele>282.9</ele>
        <time>2020-11-29T09:14:54Z</time>
      </trkpt>
      <trkpt lat="43.53419" lon="1.13427">
        <ele>282.9</ele>
        <time>2020-11-29T09:14:55Z</time>
      </trkpt>
      <trkpt lat="43.53419" lon="1.13427">
        <ele>282.9</ele>
        <time>2020-11-29T09:14:56Z</time>
      </trkpt>
      <trkpt lat="43.53419" lon="1.13427">
        <ele>282.9</ele>
        <time>2020-11-29T09:14:57Z</time>
      </trkpt>
      <trkpt lat="43.53419" lon="1.13427">
        <ele>283</ele>
        <time>2020-11-29T09:14:58Z</time>
      </trkpt>
      <trkpt lat="43.53419" lon="1.13427">
        <ele>283</ele>
        <time>2020-11-29T09:14:59Z</time>
      </trkpt>
      <trkpt lat="43.53419" lon="1.13427">
        <ele>283</ele>
        <time>2020-11-29T09:15:00Z</time>
      </trkpt>
      <trkpt lat="43.53419" lon="1.13427">
        <ele>283.1</ele>
        <time>2020-11-29T09:15:01Z</time>
      </trkpt>
      <trkpt lat="43.53419" lon="1.13427">
        <ele>283.1</ele>
        <time>2020-11-29T09:15:02Z</time>
      </trkpt>
      <trkpt lat="43.53418" lon="1.13427">
        <ele>283.1</ele>
        <time>2020-11-29T09:15:03Z</time>
      </trkpt>
      <trkpt lat="43.53419" lon="1.13427">
        <ele>283.2</ele>
        <time>2020-11-29T09:15:04Z</time>
      </trkpt>
      <trkpt lat="43.53419" lon="1.13427">
        <ele>283.2</ele>
        <time>2020-11-29T09:15:05Z</time>
      </trkpt>
      <trkpt lat="43.53419" lon="1.13427">
        <ele>283.2</ele>
        <time>2020-11-29T09:15:06Z</time>
      </trkpt>
      <trkpt lat="43.53418" lon="1.13426">
        <ele>283.3</ele>
        <time>2020-11-29T09:15:07Z</time>
      </trkpt>
      <trkpt lat="43.53418" lon="1.13426">
        <ele>283.3</ele>
        <time>2020-11-29T09:15:08Z</time>
      </trkpt>
      <trkpt lat="43.53418" lon="1.13426">
        <ele>283.4</ele>
        <time>2020-11-29T09:15:09Z</time>
      </trkpt>
      <trkpt lat="43.53418" lon="1.13425">
        <ele>283.4</ele>
        <time>2020-11-29T09:15:11Z</time>
      </trkpt>
      <trkpt lat="43.53418" lon="1.13424">
        <ele>283.6</ele>
        <time>2020-11-29T09:15:12Z</time>
      </trkpt>
      <trkpt lat="43.53417" lon="1.13425">
        <ele>283.7</ele>
        <time>2020-11-29T09:15:13Z</time>
      </trkpt>
      <trkpt lat="43.53416" lon="1.13425">
        <ele>283.8</ele>
        <time>2020-11-29T09:15:14Z</time>
      </trkpt>
      <trkpt lat="43.53417" lon="1.13426">
        <ele>283.9</ele>
        <time>2020-11-29T09:15:15Z</time>
      </trkpt>
      <trkpt lat="43.53416" lon="1.13426">
        <ele>284</ele>
        <time>2020-11-29T09:15:16Z</time>
      </trkpt>
      <trkpt lat="43.53416" lon="1.13426">
        <ele>284</ele>
        <time>2020-11-29T09:15:17Z</time>
      </trkpt>
      <trkpt lat="43.53416" lon="1.13426">
        <ele>284.1</ele>
        <time>2020-11-29T09:15:18Z</time>
      </trkpt>
      <trkpt lat="43.53416" lon="1.13426">
        <ele>284.1</ele>
        <time>2020-11-29T09:15:19Z</time>
      </trkpt>
      <trkpt lat="43.53416" lon="1.13426">
        <ele>284.1</ele>
        <time>2020-11-29T09:15:20Z</time>
      </trkpt>
      <trkpt lat="43.53416" lon="1.13425">
        <ele>284.2</ele>
        <time>2020-11-29T09:15:21Z</time>
      </trkpt>
      <trkpt lat="43.53415" lon="1.13426">
        <ele>284.2</ele>
        <time>2020-11-29T09:15:22Z</time>
      </trkpt>
      <trkpt lat="43.53415" lon="1.13426">
        <ele>284.3</ele>
        <time>2020-11-29T09:15:23Z</time>
      </trkpt>
      <trkpt lat="43.53415" lon="1.13426">
        <ele>284.3</ele>
        <time>2020-11-29T09:15:24Z</time>
      </trkpt>
      <trkpt lat="43.53415" lon="1.13426">
        <ele>284.3</ele>
        <time>2020-11-29T09:15:25Z</time>
      </trkpt>
      <trkpt lat="43.53415" lon="1.13426">
        <ele>284.3</ele>
        <time>2020-11-29T09:15:26Z</time>
      </trkpt>
      <trkpt lat="43.53415" lon="1.13425">
        <ele>284.4</ele>
        <time>2020-11-29T09:15:27Z</time>
      </trkpt>
      <trkpt lat="43.53415" lon="1.13425">
        <ele>284.4</ele>
        <time>2020-11-29T09:15:28Z</time>
      </trkpt>
      <trkpt lat="43.53415" lon="1.13425">
        <ele>284.4</ele>
        <time>2020-11-29T09:15:29Z</time>
      </trkpt>
      <trkpt lat="43.53415" lon="1.13425">
        <ele>284.4</ele>
        <time>2020-11-29T09:15:30Z</time>
      </trkpt>
      <trkpt lat="43.53415" lon="1.13425">
        <ele>284.4</ele>
        <time>2020-11-29T09:15:31Z</time>
      </trkpt>
      <trkpt lat="43.53415" lon="1.13425">
        <ele>284.4</ele>
        <time>2020-11-29T09:15:32Z</time>
      </trkpt>
      <trkpt lat="43.53415" lon="1.13425">
        <ele>284.4</ele>
        <time>2020-11-29T09:15:33Z</time>
      </trkpt>
      <trkpt lat="43.53415" lon="1.13425">
        <ele>284.4</ele>
        <time>2020-11-29T09:15:34Z</time>
      </trkpt>
      <trkpt lat="43.53415" lon="1.13425">
        <ele>284.4</ele>
        <time>2020-11-29T09:15:35Z</time>
      </trkpt>
      <trkpt lat="43.53415" lon="1.13425">
        <ele>284.4</ele>
        <time>2020-11-29T09:15:36Z</time>
      </trkpt>
      <trkpt lat="43.53415" lon="1.13425">
        <ele>284.4</ele>
        <time>2020-11-29T09:15:37Z</time>
      </trkpt>
      <trkpt lat="43.53415" lon="1.13425">
        <ele>284.4</ele>
        <time>2020-11-29T09:15:38Z</time>
      </trkpt>
      <trkpt lat="43.53415" lon="1.13425">
        <ele>284.4</ele>
        <time>2020-11-29T09:15:39Z</time>
      </trkpt>
      <trkpt lat="43.53415" lon="1.13425">
        <ele>284.4</ele>
        <time>2020-11-29T09:15:40Z</time>
      </trkpt>
      <trkpt lat="43.53415" lon="1.13425">
        <ele>284.4</ele>
        <time>2020-11-29T09:15:41Z</time>
      </trkpt>
      <trkpt lat="43.53415" lon="1.13425">
        <ele>284.4</ele>
        <time>2020-11-29T09:15:42Z</time>
      </trkpt>
      <trkpt lat="43.53415" lon="1.13425">
        <ele>284.4</ele>
        <time>2020-11-29T09:15:43Z</time>
      </trkpt>
      <trkpt lat="43.53415" lon="1.13425">
        <ele>284.4</ele>
        <time>2020-11-29T09:15:44Z</time>
      </trkpt>
      <trkpt lat="43.53415" lon="1.13425">
        <ele>284.4</ele>
        <time>2020-11-29T09:15:45Z</time>
      </trkpt>
      <trkpt lat="43.53415" lon="1.13425">
        <ele>284.4</ele>
        <time>2020-11-29T09:15:46Z</time>
      </trkpt>
      <trkpt lat="43.53415" lon="1.13425">
        <ele>284.4</ele>
        <time>2020-11-29T09:15:47Z</time>
      </trkpt>
      <trkpt lat="43.53415" lon="1.13425">
        <ele>284.4</ele>
        <time>2020-11-29T09:15:48Z</time>
      </trkpt>
      <trkpt lat="43.53415" lon="1.13425">
        <ele>284.4</ele>
        <time>2020-11-29T09:15:49Z</time>
      </trkpt>
      <trkpt lat="43.53414" lon="1.13426">
        <ele>284.5</ele>
        <time>2020-11-29T09:15:50Z</time>
      </trkpt>
      <trkpt lat="43.53414" lon="1.13425">
        <ele>284.5</ele>
        <time>2020-11-29T09:15:51Z</time>
      </trkpt>
      <trkpt lat="43.53414" lon="1.13425">
        <ele>284.5</ele>
        <time>2020-11-29T09:15:52Z</time>
      </trkpt>
      <trkpt lat="43.53414" lon="1.13425">
        <ele>284.5</ele>
        <time>2020-11-29T09:15:53Z</time>
      </trkpt>
      <trkpt lat="43.53414" lon="1.13425">
        <ele>284.5</ele>
        <time>2020-11-29T09:15:54Z</time>
      </trkpt>
      <trkpt lat="43.53414" lon="1.13425">
        <ele>284.5</ele>
        <time>2020-11-29T09:15:55Z</time>
      </trkpt>
      <trkpt lat="43.53414" lon="1.13425">
        <ele>284.5</ele>
        <time>2020-11-29T09:15:56Z</time>
      </trkpt>
      <trkpt lat="43.53414" lon="1.13425">
        <ele>284.5</ele>
        <time>2020-11-29T09:15:57Z</time>
      </trkpt>
      <trkpt lat="43.53414" lon="1.13425">
        <ele>284.5</ele>
        <time>2020-11-29T09:15:58Z</time>
      </trkpt>
      <trkpt lat="43.53414" lon="1.13425">
        <ele>284.5</ele>
        <time>2020-11-29T09:15:59Z</time>
      </trkpt>
      <trkpt lat="43.53414" lon="1.13425">
        <ele>284.5</ele>
        <time>2020-11-29T09:16:00Z</time>
      </trkpt>
      <trkpt lat="43.53414" lon="1.13425">
        <ele>284.5</ele>
        <time>2020-11-29T09:16:01Z</time>
      </trkpt>
      <trkpt lat="43.53414" lon="1.13425">
        <ele>284.6</ele>
        <time>2020-11-29T09:16:02Z</time>
      </trkpt>
      <trkpt lat="43.53414" lon="1.13425">
        <ele>284.6</ele>
        <time>2020-11-29T09:16:03Z</time>
      </trkpt>
      <trkpt lat="43.53414" lon="1.13426">
        <ele>284.6</ele>
        <time>2020-11-29T09:16:04Z</time>
      </trkpt>
      <trkpt lat="43.53414" lon="1.13426">
        <ele>284.7</ele>
        <time>2020-11-29T09:16:05Z</time>
      </trkpt>
      <trkpt lat="43.53414" lon="1.13426">
        <ele>284.7</ele>
        <time>2020-11-29T09:16:06Z</time>
      </trkpt>
      <trkpt lat="43.53414" lon="1.13426">
        <ele>284.7</ele>
        <time>2020-11-29T09:16:07Z</time>
      </trkpt>
      <trkpt lat="43.53414" lon="1.13426">
        <ele>284.8</ele>
        <time>2020-11-29T09:16:08Z</time>
      </trkpt>
      <trkpt lat="43.53414" lon="1.13428">
        <ele>284.9</ele>
        <time>2020-11-29T09:16:09Z</time>
      </trkpt>
      <trkpt lat="43.53414" lon="1.13428">
        <ele>285</ele>
        <time>2020-11-29T09:16:10Z</time>
      </trkpt>
      <trkpt lat="43.53414" lon="1.13428">
        <ele>285</ele>
        <time>2020-11-29T09:16:11Z</time>
      </trkpt>
      <trkpt lat="43.53414" lon="1.13428">
        <ele>285.1</ele>
        <time>2020-11-29T09:16:12Z</time>
      </trkpt>
      <trkpt lat="43.53415" lon="1.13428">
        <ele>285.2</ele>
        <time>2020-11-29T09:16:13Z</time>
      </trkpt>
      <trkpt lat="43.53416" lon="1.13427">
        <ele>285.4</ele>
        <time>2020-11-29T09:16:14Z</time>
      </trkpt>
      <trkpt lat="43.53416" lon="1.13427">
        <ele>285.4</ele>
        <time>2020-11-29T09:16:15Z</time>
      </trkpt>
      <trkpt lat="43.53416" lon="1.13427">
        <ele>285.5</ele>
        <time>2020-11-29T09:16:16Z</time>
      </trkpt>
      <trkpt lat="43.53416" lon="1.13427">
        <ele>285.5</ele>
        <time>2020-11-29T09:16:17Z</time>
      </trkpt>
      <trkpt lat="43.53416" lon="1.13427">
        <ele>285.5</ele>
        <time>2020-11-29T09:16:18Z</time>
      </trkpt>
      <trkpt lat="43.53416" lon="1.13427">
        <ele>285.5</ele>
        <time>2020-11-29T09:16:19Z</time>
      </trkpt>
      <trkpt lat="43.53416" lon="1.13427">
        <ele>285.5</ele>
        <time>2020-11-29T09:16:20Z</time>
      </trkpt>
      <trkpt lat="43.53416" lon="1.13427">
        <ele>285.5</ele>
        <time>2020-11-29T09:16:21Z</time>
      </trkpt>
      <trkpt lat="43.53416" lon="1.13427">
        <ele>285.5</ele>
        <time>2020-11-29T09:16:22Z</time>
      </trkpt>
      <trkpt lat="43.53416" lon="1.13427">
        <ele>285.5</ele>
        <time>2020-11-29T09:16:23Z</time>
      </trkpt>
      <trkpt lat="43.53416" lon="1.13427">
        <ele>285.6</ele>
        <time>2020-11-29T09:16:24Z</time>
      </trkpt>
      <trkpt lat="43.53416" lon="1.13426">
        <ele>285.7</ele>
        <time>2020-11-29T09:16:25Z</time>
      </trkpt>
      <trkpt lat="43.53415" lon="1.13426">
        <ele>285.7</ele>
        <time>2020-11-29T09:16:26Z</time>
      </trkpt>
      <trkpt lat="43.53415" lon="1.13425">
        <ele>285.8</ele>
        <time>2020-11-29T09:16:27Z</time>
      </trkpt>
      <trkpt lat="43.53415" lon="1.13425">
        <ele>285.8</ele>
        <time>2020-11-29T09:16:28Z</time>
      </trkpt>
      <trkpt lat="43.53415" lon="1.13425">
        <ele>285.9</ele>
        <time>2020-11-29T09:16:29Z</time>
      </trkpt>
      <trkpt lat="43.53415" lon="1.13425">
        <ele>285.9</ele>
        <time>2020-11-29T09:16:30Z</time>
      </trkpt>
      <trkpt lat="43.53415" lon="1.13425">
        <ele>286</ele>
        <time>2020-11-29T09:16:31Z</time>
      </trkpt>
      <trkpt lat="43.53415" lon="1.13425">
        <ele>286</ele>
        <time>2020-11-29T09:16:32Z</time>
      </trkpt>
      <trkpt lat="43.53415" lon="1.13423">
        <ele>286.2</ele>
        <time>2020-11-29T09:16:33Z</time>
      </trkpt>
      <trkpt lat="43.53414" lon="1.13423">
        <ele>286.3</ele>
        <time>2020-11-29T09:16:34Z</time>
      </trkpt>
      <trkpt lat="43.53415" lon="1.13424">
        <ele>286.5</ele>
        <time>2020-11-29T09:16:35Z</time>
      </trkpt>
      <trkpt lat="43.53415" lon="1.13424">
        <ele>286.5</ele>
        <time>2020-11-29T09:16:36Z</time>
      </trkpt>
      <trkpt lat="43.53415" lon="1.13424">
        <ele>286.5</ele>
        <time>2020-11-29T09:16:37Z</time>
      </trkpt>
      <trkpt lat="43.53415" lon="1.13424">
        <ele>286.6</ele>
        <time>2020-11-29T09:16:38Z</time>
      </trkpt>
      <trkpt lat="43.53415" lon="1.13424">
        <ele>286.6</ele>
        <time>2020-11-29T09:16:39Z</time>
      </trkpt>
      <trkpt lat="43.53415" lon="1.13423">
        <ele>286.6</ele>
        <time>2020-11-29T09:16:40Z</time>
      </trkpt>
      <trkpt lat="43.53415" lon="1.13422">
        <ele>286.7</ele>
        <time>2020-11-29T09:16:41Z</time>
      </trkpt>
      <trkpt lat="43.53416" lon="1.13422">
        <ele>286.9</ele>
        <time>2020-11-29T09:16:42Z</time>
      </trkpt>
      <trkpt lat="43.53417" lon="1.13422">
        <ele>287</ele>
        <time>2020-11-29T09:16:43Z</time>
      </trkpt>
      <trkpt lat="43.53417" lon="1.13422">
        <ele>287</ele>
        <time>2020-11-29T09:16:44Z</time>
      </trkpt>
      <trkpt lat="43.53417" lon="1.13422">
        <ele>287.1</ele>
        <time>2020-11-29T09:16:45Z</time>
      </trkpt>
      <trkpt lat="43.53417" lon="1.13422">
        <ele>287.1</ele>
        <time>2020-11-29T09:16:46Z</time>
      </trkpt>
      <trkpt lat="43.53417" lon="1.13422">
        <ele>287.1</ele>
        <time>2020-11-29T09:16:47Z</time>
      </trkpt>
      <trkpt lat="43.53417" lon="1.13422">
        <ele>287.1</ele>
        <time>2020-11-29T09:16:48Z</time>
      </trkpt>
      <trkpt lat="43.53417" lon="1.13422">
        <ele>287.1</ele>
        <time>2020-11-29T09:16:49Z</time>
      </trkpt>
      <trkpt lat="43.53417" lon="1.13422">
        <ele>287.1</ele>
        <time>2020-11-29T09:16:50Z</time>
      </trkpt>
      <trkpt lat="43.53418" lon="1.13423">
        <ele>287.3</ele>
        <time>2020-11-29T09:16:51Z</time>
      </trkpt>
      <trkpt lat="43.53419" lon="1.13424">
        <ele>287.4</ele>
        <time>2020-11-29T09:16:52Z</time>
      </trkpt>
      <trkpt lat="43.5342" lon="1.13424">
        <ele>287.5</ele>
        <time>2020-11-29T09:16:53Z</time>
      </trkpt>
      <trkpt lat="43.5342" lon="1.13424">
        <ele>287.5</ele>
        <time>2020-11-29T09:16:54Z</time>
      </trkpt>
      <trkpt lat="43.5342" lon="1.13424">
        <ele>287.5</ele>
        <time>2020-11-29T09:16:55Z</time>
      </trkpt>
      <trkpt lat="43.5342" lon="1.13424">
        <ele>287.5</ele>
        <time>2020-11-29T09:16:56Z</time>
      </trkpt>
      <trkpt lat="43.5342" lon="1.13424">
        <ele>287.5</ele>
        <time>2020-11-29T09:16:57Z</time>
      </trkpt>
      <trkpt lat="43.53419" lon="1.13424">
        <ele>287.5</ele>
        <time>2020-11-29T09:16:58Z</time>
      </trkpt>
      <trkpt lat="43.53419" lon="1.13424">
        <ele>287.5</ele>
        <time>2020-11-29T09:16:59Z</time>
      </trkpt>
      <trkpt lat="43.5342" lon="1.13424">
        <ele>287.6</ele>
        <time>2020-11-29T09:17:00Z</time>
      </trkpt>
      <trkpt lat="43.5342" lon="1.13424">
        <ele>287.6</ele>
        <time>2020-11-29T09:17:01Z</time>
      </trkpt>
      <trkpt lat="43.5342" lon="1.13424">
        <ele>287.6</ele>
        <time>2020-11-29T09:17:02Z</time>
      </trkpt>
      <trkpt lat="43.53422" lon="1.13424">
        <ele>287.8</ele>
        <time>2020-11-29T09:17:03Z</time>
      </trkpt>
      <trkpt lat="43.53422" lon="1.13424">
        <ele>287.8</ele>
        <time>2020-11-29T09:17:04Z</time>
      </trkpt>
      <trkpt lat="43.53423" lon="1.13423">
        <ele>288</ele>
        <time>2020-11-29T09:17:05Z</time>
      </trkpt>
      <trkpt lat="43.53423" lon="1.13423">
        <ele>288</ele>
        <time>2020-11-29T09:17:06Z</time>
      </trkpt>
      <trkpt lat="43.53424" lon="1.13421">
        <ele>288.1</ele>
        <time>2020-11-29T09:17:07Z</time>
      </trkpt>
      <trkpt lat="43.53425" lon="1.13421">
        <ele>288.1</ele>
        <time>2020-11-29T09:17:08Z</time>
      </trkpt>
      <trkpt lat="43.53425" lon="1.13421">
        <ele>288.2</ele>
        <time>2020-11-29T09:17:09Z</time>
      </trkpt>
      <trkpt lat="43.53425" lon="1.1342">
        <ele>288.2</ele>
        <time>2020-11-29T09:17:10Z</time>
      </trkpt>
      <trkpt lat="43.53425" lon="1.1342">
        <ele>288.2</ele>
        <time>2020-11-29T09:17:11Z</time>
      </trkpt>
      <trkpt lat="43.53426" lon="1.13419">
        <ele>288.4</ele>
        <time>2020-11-29T09:17:12Z</time>
      </trkpt>
      <trkpt lat="43.53426" lon="1.13419">
        <ele>288.4</ele>
        <time>2020-11-29T09:17:13Z</time>
      </trkpt>
      <trkpt lat="43.53426" lon="1.13419">
        <ele>288.4</ele>
        <time>2020-11-29T09:17:14Z</time>
      </trkpt>
      <trkpt lat="43.53426" lon="1.13419">
        <ele>288.4</ele>
        <time>2020-11-29T09:17:15Z</time>
      </trkpt>
      <trkpt lat="43.53426" lon="1.13419">
        <ele>288.4</ele>
        <time>2020-11-29T09:17:16Z</time>
      </trkpt>
      <trkpt lat="43.53427" lon="1.13418">
        <ele>288.5</ele>
        <time>2020-11-29T09:17:17Z</time>
      </trkpt>
      <trkpt lat="43.53427" lon="1.13418">
        <ele>288.5</ele>
        <time>2020-11-29T09:17:18Z</time>
      </trkpt>
      <trkpt lat="43.53427" lon="1.13418">
        <ele>288.5</ele>
        <time>2020-11-29T09:17:19Z</time>
      </trkpt>
      <trkpt lat="43.53427" lon="1.13418">
        <ele>288.5</ele>
        <time>2020-11-29T09:17:20Z</time>
      </trkpt>
      <trkpt lat="43.53427" lon="1.13418">
        <ele>288.5</ele>
        <time>2020-11-29T09:17:21Z</time>
      </trkpt>
      <trkpt lat="43.53427" lon="1.13418">
        <ele>288.6</ele>
        <time>2020-11-29T09:17:22Z</time>
      </trkpt>
      <trkpt lat="43.53426" lon="1.13418">
        <ele>288.6</ele>
        <time>2020-11-29T09:17:23Z</time>
      </trkpt>
      <trkpt lat="43.53425" lon="1.13418">
        <ele>288.7</ele>
        <time>2020-11-29T09:17:24Z</time>
      </trkpt>
      <trkpt lat="43.53425" lon="1.13418">
        <ele>288.7</ele>
        <time>2020-11-29T09:17:25Z</time>
      </trkpt>
      <trkpt lat="43.53425" lon="1.13417">
        <ele>288.7</ele>
        <time>2020-11-29T09:17:26Z</time>
      </trkpt>
      <trkpt lat="43.53425" lon="1.13417">
        <ele>288.8</ele>
        <time>2020-11-29T09:17:27Z</time>
      </trkpt>
      <trkpt lat="43.53425" lon="1.13417">
        <ele>288.8</ele>
        <time>2020-11-29T09:17:28Z</time>
      </trkpt>
      <trkpt lat="43.53426" lon="1.13417">
        <ele>288.8</ele>
        <time>2020-11-29T09:17:29Z</time>
      </trkpt>
      <trkpt lat="43.53426" lon="1.13416">
        <ele>288.8</ele>
        <time>2020-11-29T09:17:30Z</time>
      </trkpt>
      <trkpt lat="43.53426" lon="1.13417">
        <ele>288.9</ele>
        <time>2020-11-29T09:17:31Z</time>
      </trkpt>
      <trkpt lat="43.53426" lon="1.13417">
        <ele>288.9</ele>
        <time>2020-11-29T09:17:32Z</time>
      </trkpt>
      <trkpt lat="43.53426" lon="1.13416">
        <ele>288.9</ele>
        <time>2020-11-29T09:17:33Z</time>
      </trkpt>
      <trkpt lat="43.53426" lon="1.13416">
        <ele>288.9</ele>
        <time>2020-11-29T09:17:34Z</time>
      </trkpt>
      <trkpt lat="43.53426" lon="1.13416">
        <ele>288.9</ele>
        <time>2020-11-29T09:17:35Z</time>
      </trkpt>
      <trkpt lat="43.53426" lon="1.13416">
        <ele>288.9</ele>
        <time>2020-11-29T09:17:36Z</time>
      </trkpt>
      <trkpt lat="43.53426" lon="1.13416">
        <ele>288.9</ele>
        <time>2020-11-29T09:17:37Z</time>
      </trkpt>
      <trkpt lat="43.53426" lon="1.13417">
        <ele>289</ele>
        <time>2020-11-29T09:17:38Z</time>
      </trkpt>
      <trkpt lat="43.53425" lon="1.13417">
        <ele>289</ele>
        <time>2020-11-29T09:17:39Z</time>
      </trkpt>
      <trkpt lat="43.53424" lon="1.13417">
        <ele>289</ele>
        <time>2020-11-29T09:17:40Z</time>
      </trkpt>
      <trkpt lat="43.53424" lon="1.13416">
        <ele>289.1</ele>
        <time>2020-11-29T09:17:41Z</time>
      </trkpt>
      <trkpt lat="43.53424" lon="1.13417">
        <ele>289.1</ele>
        <time>2020-11-29T09:17:42Z</time>
      </trkpt>
      <trkpt lat="43.53424" lon="1.13417">
        <ele>289.1</ele>
        <time>2020-11-29T09:17:43Z</time>
      </trkpt>
      <trkpt lat="43.53424" lon="1.13417">
        <ele>289.1</ele>
        <time>2020-11-29T09:17:44Z</time>
      </trkpt>
      <trkpt lat="43.53425" lon="1.13418">
        <ele>289.2</ele>
        <time>2020-11-29T09:17:45Z</time>
      </trkpt>
      <trkpt lat="43.53425" lon="1.13418">
        <ele>289.2</ele>
        <time>2020-11-29T09:17:46Z</time>
      </trkpt>
      <trkpt lat="43.53425" lon="1.13418">
        <ele>289.2</ele>
        <time>2020-11-29T09:17:47Z</time>
      </trkpt>
      <trkpt lat="43.53425" lon="1.13419">
        <ele>289.2</ele>
        <time>2020-11-29T09:17:48Z</time>
      </trkpt>
      <trkpt lat="43.53425" lon="1.13419">
        <ele>289.2</ele>
        <time>2020-11-29T09:17:49Z</time>
      </trkpt>
      <trkpt lat="43.53426" lon="1.1342">
        <ele>289.2</ele>
        <time>2020-11-29T09:17:50Z</time>
      </trkpt>
      <trkpt lat="43.53425" lon="1.1342">
        <ele>289.2</ele>
        <time>2020-11-29T09:17:51Z</time>
      </trkpt>
      <trkpt lat="43.53425" lon="1.1342">
        <ele>289.2</ele>
        <time>2020-11-29T09:17:52Z</time>
      </trkpt>
      <trkpt lat="43.53425" lon="1.1342">
        <ele>289.2</ele>
        <time>2020-11-29T09:17:53Z</time>
      </trkpt>
      <trkpt lat="43.53425" lon="1.1342">
        <ele>289.3</ele>
        <time>2020-11-29T09:17:54Z</time>
      </trkpt>
      <trkpt lat="43.53424" lon="1.13419">
        <ele>289.3</ele>
        <time>2020-11-29T09:17:55Z</time>
      </trkpt>
      <trkpt lat="43.53424" lon="1.1342">
        <ele>289.3</ele>
        <time>2020-11-29T09:17:56Z</time>
      </trkpt>
      <trkpt lat="43.53424" lon="1.1342">
        <ele>289.3</ele>
        <time>2020-11-29T09:17:57Z</time>
      </trkpt>
      <trkpt lat="43.53423" lon="1.13421">
        <ele>289.3</ele>
        <time>2020-11-29T09:17:58Z</time>
      </trkpt>
      <trkpt lat="43.53422" lon="1.13422">
        <ele>289.3</ele>
        <time>2020-11-29T09:17:59Z</time>
      </trkpt>
      <trkpt lat="43.53422" lon="1.13422">
        <ele>289.3</ele>
        <time>2020-11-29T09:18:00Z</time>
      </trkpt>
      <trkpt lat="43.53421" lon="1.13422">
        <ele>289.3</ele>
        <time>2020-11-29T09:18:01Z</time>
      </trkpt>
      <trkpt lat="43.53421" lon="1.13423">
        <ele>289.3</ele>
        <time>2020-11-29T09:18:02Z</time>
      </trkpt>
      <trkpt lat="43.5342" lon="1.13423">
        <ele>289.3</ele>
        <time>2020-11-29T09:18:03Z</time>
      </trkpt>
      <trkpt lat="43.5342" lon="1.13423">
        <ele>289.3</ele>
        <time>2020-11-29T09:18:04Z</time>
      </trkpt>
      <trkpt lat="43.5342" lon="1.13423">
        <ele>289.3</ele>
        <time>2020-11-29T09:18:05Z</time>
      </trkpt>
      <trkpt lat="43.5342" lon="1.13423">
        <ele>289.4</ele>
        <time>2020-11-29T09:18:06Z</time>
      </trkpt>
      <trkpt lat="43.5342" lon="1.13423">
        <ele>289.4</ele>
        <time>2020-11-29T09:18:07Z</time>
      </trkpt>
      <trkpt lat="43.53419" lon="1.13423">
        <ele>289.4</ele>
        <time>2020-11-29T09:18:08Z</time>
      </trkpt>
      <trkpt lat="43.53419" lon="1.13422">
        <ele>289.4</ele>
        <time>2020-11-29T09:18:09Z</time>
      </trkpt>
      <trkpt lat="43.53419" lon="1.13423">
        <ele>289.4</ele>
        <time>2020-11-29T09:18:10Z</time>
      </trkpt>
      <trkpt lat="43.53419" lon="1.13423">
        <ele>289.4</ele>
        <time>2020-11-29T09:18:11Z</time>
      </trkpt>
      <trkpt lat="43.53419" lon="1.13422">
        <ele>289.4</ele>
        <time>2020-11-29T09:18:12Z</time>
      </trkpt>
      <trkpt lat="43.53419" lon="1.13423">
        <ele>289.4</ele>
        <time>2020-11-29T09:18:13Z</time>
      </trkpt>
      <trkpt lat="43.53418" lon="1.13422">
        <ele>289.4</ele>
        <time>2020-11-29T09:18:14Z</time>
      </trkpt>
      <trkpt lat="43.53418" lon="1.13422">
        <ele>289.4</ele>
        <time>2020-11-29T09:18:15Z</time>
      </trkpt>
      <trkpt lat="43.53418" lon="1.13422">
        <ele>289.4</ele>
        <time>2020-11-29T09:18:16Z</time>
      </trkpt>
      <trkpt lat="43.53417" lon="1.13422">
        <ele>289.4</ele>
        <time>2020-11-29T09:18:17Z</time>
      </trkpt>
      <trkpt lat="43.53416" lon="1.13422">
        <ele>289.4</ele>
        <time>2020-11-29T09:18:18Z</time>
      </trkpt>
      <trkpt lat="43.53417" lon="1.13422">
        <ele>289.4</ele>
        <time>2020-11-29T09:18:19Z</time>
      </trkpt>
      <trkpt lat="43.53416" lon="1.13422">
        <ele>289.4</ele>
        <time>2020-11-29T09:18:20Z</time>
      </trkpt>
      <trkpt lat="43.53416" lon="1.13422">
        <ele>289.4</ele>
        <time>2020-11-29T09:18:21Z</time>
      </trkpt>
      <trkpt lat="43.53417" lon="1.13423">
        <ele>289.4</ele>
        <time>2020-11-29T09:18:22Z</time>
      </trkpt>
      <trkpt lat="43.53417" lon="1.13421">
        <ele>289.4</ele>
        <time>2020-11-29T09:18:23Z</time>
      </trkpt>
      <trkpt lat="43.53417" lon="1.13421">
        <ele>289.4</ele>
        <time>2020-11-29T09:18:24Z</time>
      </trkpt>
      <trkpt lat="43.53417" lon="1.13421">
        <ele>289.4</ele>
        <time>2020-11-29T09:18:25Z</time>
      </trkpt>
      <trkpt lat="43.53417" lon="1.13421">
        <ele>289.4</ele>
        <time>2020-11-29T09:18:26Z</time>
      </trkpt>
      <trkpt lat="43.53417" lon="1.13421">
        <ele>289.4</ele>
        <time>2020-11-29T09:18:27Z</time>
      </trkpt>
      <trkpt lat="43.53417" lon="1.13422">
        <ele>289.4</ele>
        <time>2020-11-29T09:18:28Z</time>
      </trkpt>
      <trkpt lat="43.53417" lon="1.13421">
        <ele>289.4</ele>
        <time>2020-11-29T09:18:29Z</time>
      </trkpt>
      <trkpt lat="43.53417" lon="1.13421">
        <ele>289.4</ele>
        <time>2020-11-29T09:18:30Z</time>
      </trkpt>
      <trkpt lat="43.53417" lon="1.1342">
        <ele>289.4</ele>
        <time>2020-11-29T09:18:31Z</time>
      </trkpt>
      <trkpt lat="43.53417" lon="1.1342">
        <ele>289.4</ele>
        <time>2020-11-29T09:18:32Z</time>
      </trkpt>
      <trkpt lat="43.53417" lon="1.1342">
        <ele>289.4</ele>
        <time>2020-11-29T09:18:33Z</time>
      </trkpt>
      <trkpt lat="43.53417" lon="1.1342">
        <ele>289.4</ele>
        <time>2020-11-29T09:18:34Z</time>
      </trkpt>
      <trkpt lat="43.53417" lon="1.1342">
        <ele>289.4</ele>
        <time>2020-11-29T09:18:35Z</time>
      </trkpt>
      <trkpt lat="43.53417" lon="1.1342">
        <ele>289.4</ele>
        <time>2020-11-29T09:18:36Z</time>
      </trkpt>
      <trkpt lat="43.53417" lon="1.1342">
        <ele>289.4</ele>
        <time>2020-11-29T09:18:37Z</time>
      </trkpt>
      <trkpt lat="43.53417" lon="1.1342">
        <ele>289.4</ele>
        <time>2020-11-29T09:18:38Z</time>
      </trkpt>
      <trkpt lat="43.53416" lon="1.1342">
        <ele>289.4</ele>
        <time>2020-11-29T09:18:39Z</time>
      </trkpt>
      <trkpt lat="43.53415" lon="1.1342">
        <ele>289.4</ele>
        <time>2020-11-29T09:18:40Z</time>
      </trkpt>
      <trkpt lat="43.53415" lon="1.1342">
        <ele>289.4</ele>
        <time>2020-11-29T09:18:41Z</time>
      </trkpt>
      <trkpt lat="43.53415" lon="1.1342">
        <ele>289.4</ele>
        <time>2020-11-29T09:18:42Z</time>
      </trkpt>
      <trkpt lat="43.53415" lon="1.1342">
        <ele>289.4</ele>
        <time>2020-11-29T09:18:43Z</time>
      </trkpt>
      <trkpt lat="43.53414" lon="1.13419">
        <ele>289.5</ele>
        <time>2020-11-29T09:18:44Z</time>
      </trkpt>
      <trkpt lat="43.53415" lon="1.1342">
        <ele>289.5</ele>
        <time>2020-11-29T09:18:45Z</time>
      </trkpt>
      <trkpt lat="43.53416" lon="1.1342">
        <ele>289.5</ele>
        <time>2020-11-29T09:18:46Z</time>
      </trkpt>
      <trkpt lat="43.53416" lon="1.13421">
        <ele>289.5</ele>
        <time>2020-11-29T09:18:47Z</time>
      </trkpt>
      <trkpt lat="43.53417" lon="1.13422">
        <ele>289.5</ele>
        <time>2020-11-29T09:18:48Z</time>
      </trkpt>
      <trkpt lat="43.53417" lon="1.13422">
        <ele>289.5</ele>
        <time>2020-11-29T09:18:49Z</time>
      </trkpt>
      <trkpt lat="43.53418" lon="1.13423">
        <ele>289.5</ele>
        <time>2020-11-29T09:18:50Z</time>
      </trkpt>
      <trkpt lat="43.53419" lon="1.13424">
        <ele>289.5</ele>
        <time>2020-11-29T09:18:51Z</time>
      </trkpt>
      <trkpt lat="43.5342" lon="1.13424">
        <ele>289.5</ele>
        <time>2020-11-29T09:18:52Z</time>
      </trkpt>
      <trkpt lat="43.5342" lon="1.13424">
        <ele>289.5</ele>
        <time>2020-11-29T09:18:53Z</time>
      </trkpt>
      <trkpt lat="43.53421" lon="1.13424">
        <ele>289.5</ele>
        <time>2020-11-29T09:18:54Z</time>
      </trkpt>
      <trkpt lat="43.53422" lon="1.13423">
        <ele>289.5</ele>
        <time>2020-11-29T09:18:55Z</time>
      </trkpt>
      <trkpt lat="43.53422" lon="1.13424">
        <ele>289.5</ele>
        <time>2020-11-29T09:18:56Z</time>
      </trkpt>
      <trkpt lat="43.53422" lon="1.13424">
        <ele>289.5</ele>
        <time>2020-11-29T09:18:57Z</time>
      </trkpt>
      <trkpt lat="43.53423" lon="1.13425">
        <ele>289.5</ele>
        <time>2020-11-29T09:18:58Z</time>
      </trkpt>
      <trkpt lat="43.53424" lon="1.13425">
        <ele>289.5</ele>
        <time>2020-11-29T09:18:59Z</time>
      </trkpt>
      <trkpt lat="43.53423" lon="1.13425">
        <ele>289.5</ele>
        <time>2020-11-29T09:19:00Z</time>
      </trkpt>
      <trkpt lat="43.53423" lon="1.13425">
        <ele>289.5</ele>
        <time>2020-11-29T09:19:01Z</time>
      </trkpt>
      <trkpt lat="43.53423" lon="1.13425">
        <ele>289.5</ele>
        <time>2020-11-29T09:19:02Z</time>
      </trkpt>
      <trkpt lat="43.53423" lon="1.13425">
        <ele>289.5</ele>
        <time>2020-11-29T09:19:03Z</time>
      </trkpt>
      <trkpt lat="43.53423" lon="1.13425">
        <ele>289.5</ele>
        <time>2020-11-29T09:19:04Z</time>
      </trkpt>
      <trkpt lat="43.53423" lon="1.13425">
        <ele>289.5</ele>
        <time>2020-11-29T09:19:05Z</time>
      </trkpt>
      <trkpt lat="43.53423" lon="1.13425">
        <ele>289.5</ele>
        <time>2020-11-29T09:19:06Z</time>
      </trkpt>
      <trkpt lat="43.53423" lon="1.13425">
        <ele>289.5</ele>
        <time>2020-11-29T09:19:07Z</time>
      </trkpt>
      <trkpt lat="43.53423" lon="1.13424">
        <ele>289.5</ele>
        <time>2020-11-29T09:19:08Z</time>
      </trkpt>
      <trkpt lat="43.53423" lon="1.13424">
        <ele>289.6</ele>
        <time>2020-11-29T09:19:09Z</time>
      </trkpt>
      <trkpt lat="43.53422" lon="1.13424">
        <ele>289.6</ele>
        <time>2020-11-29T09:19:10Z</time>
      </trkpt>
      <trkpt lat="43.53422" lon="1.13424">
        <ele>289.6</ele>
        <time>2020-11-29T09:19:11Z</time>
      </trkpt>
      <trkpt lat="43.53422" lon="1.13424">
        <ele>289.6</ele>
        <time>2020-11-29T09:19:12Z</time>
      </trkpt>
      <trkpt lat="43.53422" lon="1.13424">
        <ele>289.6</ele>
        <time>2020-11-29T09:19:13Z</time>
      </trkpt>
      <trkpt lat="43.53422" lon="1.13424">
        <ele>289.6</ele>
        <time>2020-11-29T09:19:14Z</time>
      </trkpt>
      <trkpt lat="43.53422" lon="1.13424">
        <ele>289.6</ele>
        <time>2020-11-29T09:19:15Z</time>
      </trkpt>
      <trkpt lat="43.53422" lon="1.13424">
        <ele>289.6</ele>
        <time>2020-11-29T09:19:16Z</time>
      </trkpt>
      <trkpt lat="43.53422" lon="1.13424">
        <ele>289.6</ele>
        <time>2020-11-29T09:19:17Z</time>
      </trkpt>
      <trkpt lat="43.53422" lon="1.13424">
        <ele>289.6</ele>
        <time>2020-11-29T09:19:18Z</time>
      </trkpt>
      <trkpt lat="43.53422" lon="1.13423">
        <ele>289.6</ele>
        <time>2020-11-29T09:19:19Z</time>
      </trkpt>
      <trkpt lat="43.53421" lon="1.13423">
        <ele>289.6</ele>
        <time>2020-11-29T09:19:20Z</time>
      </trkpt>
      <trkpt lat="43.53421" lon="1.13423">
        <ele>289.6</ele>
        <time>2020-11-29T09:19:21Z</time>
      </trkpt>
      <trkpt lat="43.53421" lon="1.13423">
        <ele>289.6</ele>
        <time>2020-11-29T09:19:22Z</time>
      </trkpt>
      <trkpt lat="43.53421" lon="1.13423">
        <ele>289.6</ele>
        <time>2020-11-29T09:19:23Z</time>
      </trkpt>
      <trkpt lat="43.53421" lon="1.13423">
        <ele>289.6</ele>
        <time>2020-11-29T09:19:24Z</time>
      </trkpt>
      <trkpt lat="43.53421" lon="1.13423">
        <ele>289.6</ele>
        <time>2020-11-29T09:19:25Z</time>
      </trkpt>
      <trkpt lat="43.53421" lon="1.13423">
        <ele>289.6</ele>
        <time>2020-11-29T09:19:26Z</time>
      </trkpt>
      <trkpt lat="43.53421" lon="1.13423">
        <ele>289.6</ele>
        <time>2020-11-29T09:19:27Z</time>
      </trkpt>
      <trkpt lat="43.53421" lon="1.13423">
        <ele>289.6</ele>
        <time>2020-11-29T09:19:28Z</time>
      </trkpt>
      <trkpt lat="43.53421" lon="1.13423">
        <ele>289.6</ele>
        <time>2020-11-29T09:19:29Z</time>
      </trkpt>
      <trkpt lat="43.5342" lon="1.13422">
        <ele>289.6</ele>
        <time>2020-11-29T09:19:30Z</time>
      </trkpt>
      <trkpt lat="43.5342" lon="1.13422">
        <ele>289.6</ele>
        <time>2020-11-29T09:19:31Z</time>
      </trkpt>
      <trkpt lat="43.5342" lon="1.13422">
        <ele>289.6</ele>
        <time>2020-11-29T09:19:32Z</time>
      </trkpt>
      <trkpt lat="43.5342" lon="1.13422">
        <ele>289.6</ele>
        <time>2020-11-29T09:19:33Z</time>
      </trkpt>
      <trkpt lat="43.5342" lon="1.13422">
        <ele>289.6</ele>
        <time>2020-11-29T09:19:34Z</time>
      </trkpt>
      <trkpt lat="43.5342" lon="1.13422">
        <ele>289.6</ele>
        <time>2020-11-29T09:19:35Z</time>
      </trkpt>
      <trkpt lat="43.5342" lon="1.13422">
        <ele>289.6</ele>
        <time>2020-11-29T09:19:36Z</time>
      </trkpt>
      <trkpt lat="43.53419" lon="1.1342">
        <ele>289.6</ele>
        <time>2020-11-29T09:19:37Z</time>
      </trkpt>
      <trkpt lat="43.53419" lon="1.13419">
        <ele>289.6</ele>
        <time>2020-11-29T09:19:38Z</time>
      </trkpt>
      <trkpt lat="43.53419" lon="1.13418">
        <ele>289.6</ele>
        <time>2020-11-29T09:19:39Z</time>
      </trkpt>
      <trkpt lat="43.53418" lon="1.13414">
        <ele>289.6</ele>
        <time>2020-11-29T09:19:40Z</time>
      </trkpt>
      <trkpt lat="43.53417" lon="1.13413">
        <ele>289.6</ele>
        <time>2020-11-29T09:19:41Z</time>
      </trkpt>
      <trkpt lat="43.53417" lon="1.13411">
        <ele>289.6</ele>
        <time>2020-11-29T09:19:42Z</time>
      </trkpt>
      <trkpt lat="43.53417" lon="1.13407">
        <ele>289.7</ele>
        <time>2020-11-29T09:19:43Z</time>
      </trkpt>
      <trkpt lat="43.53417" lon="1.13406">
        <ele>289.7</ele>
        <time>2020-11-29T09:19:44Z</time>
      </trkpt>
      <trkpt lat="43.53416" lon="1.13402">
        <ele>289.7</ele>
        <time>2020-11-29T09:19:45Z</time>
      </trkpt>
      <trkpt lat="43.53416" lon="1.134">
        <ele>289.7</ele>
        <time>2020-11-29T09:19:46Z</time>
      </trkpt>
      <trkpt lat="43.53416" lon="1.13398">
        <ele>289.7</ele>
        <time>2020-11-29T09:19:47Z</time>
      </trkpt>
      <trkpt lat="43.53416" lon="1.13396">
        <ele>289.8</ele>
        <time>2020-11-29T09:19:48Z</time>
      </trkpt>
      <trkpt lat="43.53417" lon="1.13394">
        <ele>289.8</ele>
        <time>2020-11-29T09:19:49Z</time>
      </trkpt>
      <trkpt lat="43.53417" lon="1.13392">
        <ele>289.8</ele>
        <time>2020-11-29T09:19:50Z</time>
      </trkpt>
      <trkpt lat="43.53418" lon="1.13391">
        <ele>289.8</ele>
        <time>2020-11-29T09:19:51Z</time>
      </trkpt>
      <trkpt lat="43.53418" lon="1.1339">
        <ele>289.8</ele>
        <time>2020-11-29T09:19:52Z</time>
      </trkpt>
      <trkpt lat="43.53419" lon="1.13388">
        <ele>289.8</ele>
        <time>2020-11-29T09:19:53Z</time>
      </trkpt>
      <trkpt lat="43.53418" lon="1.13387">
        <ele>289.8</ele>
        <time>2020-11-29T09:19:54Z</time>
      </trkpt>
      <trkpt lat="43.53417" lon="1.13386">
        <ele>289.8</ele>
        <time>2020-11-29T09:19:55Z</time>
      </trkpt>
      <trkpt lat="43.53417" lon="1.13385">
        <ele>289.8</ele>
        <time>2020-11-29T09:19:56Z</time>
      </trkpt>
      <trkpt lat="43.53418" lon="1.13383">
        <ele>289.9</ele>
        <time>2020-11-29T09:19:57Z</time>
      </trkpt>
      <trkpt lat="43.53418" lon="1.13381">
        <ele>289.9</ele>
        <time>2020-11-29T09:19:58Z</time>
      </trkpt>
      <trkpt lat="43.53417" lon="1.13376">
        <ele>289.9</ele>
        <time>2020-11-29T09:19:59Z</time>
      </trkpt>
      <trkpt lat="43.53417" lon="1.13375">
        <ele>289.9</ele>
        <time>2020-11-29T09:20:00Z</time>
      </trkpt>
      <trkpt lat="43.53417" lon="1.13371">
        <ele>289.9</ele>
        <time>2020-11-29T09:20:01Z</time>
      </trkpt>
      <trkpt lat="43.53418" lon="1.13369">
        <ele>290</ele>
        <time>2020-11-29T09:20:02Z</time>
      </trkpt>
      <trkpt lat="43.53418" lon="1.13365">
        <ele>290</ele>
        <time>2020-11-29T09:20:03Z</time>
      </trkpt>
      <trkpt lat="43.53418" lon="1.13364">
        <ele>290</ele>
        <time>2020-11-29T09:20:04Z</time>
      </trkpt>
      <trkpt lat="43.53418" lon="1.1336">
        <ele>290</ele>
        <time>2020-11-29T09:20:05Z</time>
      </trkpt>
      <trkpt lat="43.53418" lon="1.13359">
        <ele>290.1</ele>
        <time>2020-11-29T09:20:06Z</time>
      </trkpt>
      <trkpt lat="43.53418" lon="1.13355">
        <ele>290.1</ele>
        <time>2020-11-29T09:20:07Z</time>
      </trkpt>
      <trkpt lat="43.53418" lon="1.13353">
        <ele>290.1</ele>
        <time>2020-11-29T09:20:08Z</time>
      </trkpt>
      <trkpt lat="43.53416" lon="1.13349">
        <ele>290.1</ele>
        <time>2020-11-29T09:20:09Z</time>
      </trkpt>
      <trkpt lat="43.53416" lon="1.13347">
        <ele>290.2</ele>
        <time>2020-11-29T09:20:10Z</time>
      </trkpt>
      <trkpt lat="43.53415" lon="1.13345">
        <ele>290.2</ele>
        <time>2020-11-29T09:20:11Z</time>
      </trkpt>
      <trkpt lat="43.53415" lon="1.13343">
        <ele>290.2</ele>
        <time>2020-11-29T09:20:12Z</time>
      </trkpt>
      <trkpt lat="43.53414" lon="1.13338">
        <ele>290.3</ele>
        <time>2020-11-29T09:20:13Z</time>
      </trkpt>
      <trkpt lat="43.53414" lon="1.13337">
        <ele>290.3</ele>
        <time>2020-11-29T09:20:14Z</time>
      </trkpt>
      <trkpt lat="43.53413" lon="1.13332">
        <ele>290.3</ele>
        <time>2020-11-29T09:20:15Z</time>
      </trkpt>
      <trkpt lat="43.53412" lon="1.13331">
        <ele>290.3</ele>
        <time>2020-11-29T09:20:16Z</time>
      </trkpt>
      <trkpt lat="43.53412" lon="1.13327">
        <ele>290.4</ele>
        <time>2020-11-29T09:20:17Z</time>
      </trkpt>
      <trkpt lat="43.53412" lon="1.13325">
        <ele>290.5</ele>
        <time>2020-11-29T09:20:18Z</time>
      </trkpt>
      <trkpt lat="43.53411" lon="1.13321">
        <ele>290.5</ele>
        <time>2020-11-29T09:20:19Z</time>
      </trkpt>
      <trkpt lat="43.5341" lon="1.13319">
        <ele>290.5</ele>
        <time>2020-11-29T09:20:20Z</time>
      </trkpt>
      <trkpt lat="43.5341" lon="1.13317">
        <ele>290.6</ele>
        <time>2020-11-29T09:20:21Z</time>
      </trkpt>
      <trkpt lat="43.5341" lon="1.13316">
        <ele>290.6</ele>
        <time>2020-11-29T09:20:22Z</time>
      </trkpt>
      <trkpt lat="43.5341" lon="1.13312">
        <ele>290.7</ele>
        <time>2020-11-29T09:20:23Z</time>
      </trkpt>
      <trkpt lat="43.53411" lon="1.1331">
        <ele>290.7</ele>
        <time>2020-11-29T09:20:24Z</time>
      </trkpt>
      <trkpt lat="43.53411" lon="1.13306">
        <ele>290.8</ele>
        <time>2020-11-29T09:20:25Z</time>
      </trkpt>
      <trkpt lat="43.53411" lon="1.13304">
        <ele>290.8</ele>
        <time>2020-11-29T09:20:26Z</time>
      </trkpt>
      <trkpt lat="43.5341" lon="1.13301">
        <ele>290.9</ele>
        <time>2020-11-29T09:20:27Z</time>
      </trkpt>
      <trkpt lat="43.53409" lon="1.133">
        <ele>290.9</ele>
        <time>2020-11-29T09:20:28Z</time>
      </trkpt>
      <trkpt lat="43.53409" lon="1.13296">
        <ele>291</ele>
        <time>2020-11-29T09:20:29Z</time>
      </trkpt>
      <trkpt lat="43.53408" lon="1.13291">
        <ele>291.1</ele>
        <time>2020-11-29T09:20:30Z</time>
      </trkpt>
      <trkpt lat="43.53407" lon="1.13287">
        <ele>291.2</ele>
        <time>2020-11-29T09:20:31Z</time>
      </trkpt>
      <trkpt lat="43.53407" lon="1.13286">
        <ele>291.2</ele>
        <time>2020-11-29T09:20:32Z</time>
      </trkpt>
      <trkpt lat="43.53406" lon="1.13282">
        <ele>291.3</ele>
        <time>2020-11-29T09:20:33Z</time>
      </trkpt>
      <trkpt lat="43.53405" lon="1.13277">
        <ele>291.5</ele>
        <time>2020-11-29T09:20:34Z</time>
      </trkpt>
      <trkpt lat="43.53404" lon="1.13273">
        <ele>291.7</ele>
        <time>2020-11-29T09:20:35Z</time>
      </trkpt>
      <trkpt lat="43.53403" lon="1.13268">
        <ele>291.9</ele>
        <time>2020-11-29T09:20:36Z</time>
      </trkpt>
      <trkpt lat="43.53401" lon="1.13264">
        <ele>292</ele>
        <time>2020-11-29T09:20:37Z</time>
      </trkpt>
      <trkpt lat="43.534" lon="1.13261">
        <ele>292.2</ele>
        <time>2020-11-29T09:20:38Z</time>
      </trkpt>
      <trkpt lat="43.53399" lon="1.1326">
        <ele>292.2</ele>
        <time>2020-11-29T09:20:39Z</time>
      </trkpt>
      <trkpt lat="43.53399" lon="1.13254">
        <ele>292.4</ele>
        <time>2020-11-29T09:20:40Z</time>
      </trkpt>
      <trkpt lat="43.53399" lon="1.13251">
        <ele>292.6</ele>
        <time>2020-11-29T09:20:41Z</time>
      </trkpt>
      <trkpt lat="43.53399" lon="1.13243">
        <ele>292.9</ele>
        <time>2020-11-29T09:20:42Z</time>
      </trkpt>
      <trkpt lat="43.534" lon="1.13237">
        <ele>293.2</ele>
        <time>2020-11-29T09:20:43Z</time>
      </trkpt>
      <trkpt lat="43.534" lon="1.13233">
        <ele>293.4</ele>
        <time>2020-11-29T09:20:44Z</time>
      </trkpt>
      <trkpt lat="43.53401" lon="1.13229">
        <ele>293.6</ele>
        <time>2020-11-29T09:20:45Z</time>
      </trkpt>
      <trkpt lat="43.534" lon="1.13223">
        <ele>293.8</ele>
        <time>2020-11-29T09:20:46Z</time>
      </trkpt>
      <trkpt lat="43.534" lon="1.13221">
        <ele>293.9</ele>
        <time>2020-11-29T09:20:47Z</time>
      </trkpt>
      <trkpt lat="43.534" lon="1.13217">
        <ele>294.1</ele>
        <time>2020-11-29T09:20:48Z</time>
      </trkpt>
      <trkpt lat="43.53399" lon="1.13213">
        <ele>294.3</ele>
        <time>2020-11-29T09:20:49Z</time>
      </trkpt>
      <trkpt lat="43.53398" lon="1.13209">
        <ele>294.5</ele>
        <time>2020-11-29T09:20:50Z</time>
      </trkpt>
      <trkpt lat="43.53397" lon="1.13204">
        <ele>294.7</ele>
        <time>2020-11-29T09:20:51Z</time>
      </trkpt>
      <trkpt lat="43.53397" lon="1.13198">
        <ele>294.9</ele>
        <time>2020-11-29T09:20:52Z</time>
      </trkpt>
      <trkpt lat="43.53397" lon="1.13193">
        <ele>295.1</ele>
        <time>2020-11-29T09:20:53Z</time>
      </trkpt>
      <trkpt lat="43.53397" lon="1.13188">
        <ele>295.2</ele>
        <time>2020-11-29T09:20:54Z</time>
      </trkpt>
      <trkpt lat="43.53397" lon="1.13186">
        <ele>295.3</ele>
        <time>2020-11-29T09:20:55Z</time>
      </trkpt>
      <trkpt lat="43.53398" lon="1.13182">
        <ele>295.4</ele>
        <time>2020-11-29T09:20:56Z</time>
      </trkpt>
      <trkpt lat="43.53398" lon="1.1318">
        <ele>295.4</ele>
        <time>2020-11-29T09:20:57Z</time>
      </trkpt>
      <trkpt lat="43.53397" lon="1.13175">
        <ele>295.6</ele>
        <time>2020-11-29T09:20:58Z</time>
      </trkpt>
      <trkpt lat="43.53397" lon="1.13173">
        <ele>295.7</ele>
        <time>2020-11-29T09:20:59Z</time>
      </trkpt>
      <trkpt lat="43.53396" lon="1.13169">
        <ele>295.7</ele>
        <time>2020-11-29T09:21:00Z</time>
      </trkpt>
      <trkpt lat="43.53395" lon="1.13164">
        <ele>295.9</ele>
        <time>2020-11-29T09:21:01Z</time>
      </trkpt>
      <trkpt lat="43.53394" lon="1.13157">
        <ele>296</ele>
        <time>2020-11-29T09:21:02Z</time>
      </trkpt>
      <trkpt lat="43.53394" lon="1.13153">
        <ele>296.1</ele>
        <time>2020-11-29T09:21:03Z</time>
      </trkpt>
      <trkpt lat="43.53393" lon="1.13148">
        <ele>296.2</ele>
        <time>2020-11-29T09:21:04Z</time>
      </trkpt>
      <trkpt lat="43.53392" lon="1.13142">
        <ele>296.3</ele>
        <time>2020-11-29T09:21:05Z</time>
      </trkpt>
      <trkpt lat="43.53392" lon="1.13136">
        <ele>296.4</ele>
        <time>2020-11-29T09:21:06Z</time>
      </trkpt>
      <trkpt lat="43.5339" lon="1.1313">
        <ele>296.5</ele>
        <time>2020-11-29T09:21:07Z</time>
      </trkpt>
      <trkpt lat="43.53389" lon="1.13124">
        <ele>296.5</ele>
        <time>2020-11-29T09:21:08Z</time>
      </trkpt>
      <trkpt lat="43.53388" lon="1.13117">
        <ele>296.6</ele>
        <time>2020-11-29T09:21:09Z</time>
      </trkpt>
      <trkpt lat="43.53386" lon="1.1311">
        <ele>296.6</ele>
        <time>2020-11-29T09:21:10Z</time>
      </trkpt>
      <trkpt lat="43.53386" lon="1.13106">
        <ele>296.6</ele>
        <time>2020-11-29T09:21:11Z</time>
      </trkpt>
      <trkpt lat="43.53385" lon="1.13101">
        <ele>296.5</ele>
        <time>2020-11-29T09:21:12Z</time>
      </trkpt>
      <trkpt lat="43.53384" lon="1.13096">
        <ele>296.5</ele>
        <time>2020-11-29T09:21:13Z</time>
      </trkpt>
      <trkpt lat="43.53384" lon="1.13095">
        <ele>296.5</ele>
        <time>2020-11-29T09:21:14Z</time>
      </trkpt>
      <trkpt lat="43.53383" lon="1.1309">
        <ele>296.4</ele>
        <time>2020-11-29T09:21:15Z</time>
      </trkpt>
      <trkpt lat="43.53382" lon="1.13085">
        <ele>296.4</ele>
        <time>2020-11-29T09:21:16Z</time>
      </trkpt>
      <trkpt lat="43.53382" lon="1.13082">
        <ele>296.3</ele>
        <time>2020-11-29T09:21:17Z</time>
      </trkpt>
      <trkpt lat="43.53382" lon="1.13081">
        <ele>296.3</ele>
        <time>2020-11-29T09:21:18Z</time>
      </trkpt>
      <trkpt lat="43.53382" lon="1.13082">
        <ele>296.2</ele>
        <time>2020-11-29T09:21:19Z</time>
      </trkpt>
      <trkpt lat="43.53381" lon="1.13081">
        <ele>296.2</ele>
        <time>2020-11-29T09:21:20Z</time>
      </trkpt>
      <trkpt lat="43.53381" lon="1.13081">
        <ele>296.2</ele>
        <time>2020-11-29T09:21:21Z</time>
      </trkpt>
      <trkpt lat="43.53381" lon="1.1308">
        <ele>296.2</ele>
        <time>2020-11-29T09:21:22Z</time>
      </trkpt>
      <trkpt lat="43.53381" lon="1.13079">
        <ele>296.2</ele>
        <time>2020-11-29T09:21:23Z</time>
      </trkpt>
      <trkpt lat="43.5338" lon="1.13079">
        <ele>296.1</ele>
        <time>2020-11-29T09:21:24Z</time>
      </trkpt>
      <trkpt lat="43.5338" lon="1.13078">
        <ele>296.1</ele>
        <time>2020-11-29T09:21:25Z</time>
      </trkpt>
      <trkpt lat="43.5338" lon="1.13077">
        <ele>296.1</ele>
        <time>2020-11-29T09:21:26Z</time>
      </trkpt>
      <trkpt lat="43.53379" lon="1.13073">
        <ele>296</ele>
        <time>2020-11-29T09:21:27Z</time>
      </trkpt>
      <trkpt lat="43.53378" lon="1.13068">
        <ele>295.8</ele>
        <time>2020-11-29T09:21:28Z</time>
      </trkpt>
      <trkpt lat="43.53378" lon="1.13062">
        <ele>295.7</ele>
        <time>2020-11-29T09:21:29Z</time>
      </trkpt>
      <trkpt lat="43.53378" lon="1.13055">
        <ele>295.5</ele>
        <time>2020-11-29T09:21:30Z</time>
      </trkpt>
      <trkpt lat="43.53379" lon="1.13051">
        <ele>295.3</ele>
        <time>2020-11-29T09:21:31Z</time>
      </trkpt>
      <trkpt lat="43.53378" lon="1.13044">
        <ele>295.2</ele>
        <time>2020-11-29T09:21:32Z</time>
      </trkpt>
      <trkpt lat="43.53377" lon="1.13038">
        <ele>295</ele>
        <time>2020-11-29T09:21:33Z</time>
      </trkpt>
      <trkpt lat="43.53375" lon="1.1303">
        <ele>294.9</ele>
        <time>2020-11-29T09:21:34Z</time>
      </trkpt>
      <trkpt lat="43.53373" lon="1.13023">
        <ele>294.7</ele>
        <time>2020-11-29T09:21:35Z</time>
      </trkpt>
      <trkpt lat="43.53371" lon="1.13016">
        <ele>294.6</ele>
        <time>2020-11-29T09:21:36Z</time>
      </trkpt>
      <trkpt lat="43.5337" lon="1.13009">
        <ele>294.5</ele>
        <time>2020-11-29T09:21:37Z</time>
      </trkpt>
      <trkpt lat="43.53369" lon="1.13002">
        <ele>294.4</ele>
        <time>2020-11-29T09:21:38Z</time>
      </trkpt>
      <trkpt lat="43.53368" lon="1.12995">
        <ele>294.3</ele>
        <time>2020-11-29T09:21:39Z</time>
      </trkpt>
      <trkpt lat="43.53366" lon="1.12989">
        <ele>294.2</ele>
        <time>2020-11-29T09:21:40Z</time>
      </trkpt>
      <trkpt lat="43.53364" lon="1.12983">
        <ele>294.2</ele>
        <time>2020-11-29T09:21:41Z</time>
      </trkpt>
      <trkpt lat="43.53363" lon="1.12976">
        <ele>294.1</ele>
        <time>2020-11-29T09:21:42Z</time>
      </trkpt>
      <trkpt lat="43.53361" lon="1.1297">
        <ele>294.1</ele>
        <time>2020-11-29T09:21:43Z</time>
      </trkpt>
      <trkpt lat="43.53361" lon="1.12963">
        <ele>294</ele>
        <time>2020-11-29T09:21:44Z</time>
      </trkpt>
      <trkpt lat="43.5336" lon="1.12957">
        <ele>294</ele>
        <time>2020-11-29T09:21:45Z</time>
      </trkpt>
      <trkpt lat="43.53361" lon="1.12949">
        <ele>294</ele>
        <time>2020-11-29T09:21:46Z</time>
      </trkpt>
      <trkpt lat="43.53361" lon="1.12941">
        <ele>294</ele>
        <time>2020-11-29T09:21:47Z</time>
      </trkpt>
      <trkpt lat="43.5336" lon="1.12935">
        <ele>294</ele>
        <time>2020-11-29T09:21:48Z</time>
      </trkpt>
      <trkpt lat="43.53359" lon="1.12929">
        <ele>294</ele>
        <time>2020-11-29T09:21:49Z</time>
      </trkpt>
      <trkpt lat="43.53358" lon="1.12923">
        <ele>294.1</ele>
        <time>2020-11-29T09:21:50Z</time>
      </trkpt>
      <trkpt lat="43.53357" lon="1.12916">
        <ele>294.1</ele>
        <time>2020-11-29T09:21:51Z</time>
      </trkpt>
      <trkpt lat="43.53357" lon="1.12909">
        <ele>294.2</ele>
        <time>2020-11-29T09:21:52Z</time>
      </trkpt>
      <trkpt lat="43.53356" lon="1.12904">
        <ele>294.2</ele>
        <time>2020-11-29T09:21:53Z</time>
      </trkpt>
      <trkpt lat="43.53355" lon="1.12898">
        <ele>294.3</ele>
        <time>2020-11-29T09:21:54Z</time>
      </trkpt>
      <trkpt lat="43.53353" lon="1.12891">
        <ele>294.4</ele>
        <time>2020-11-29T09:21:55Z</time>
      </trkpt>
      <trkpt lat="43.53353" lon="1.12886">
        <ele>294.4</ele>
        <time>2020-11-29T09:21:56Z</time>
      </trkpt>
      <trkpt lat="43.53351" lon="1.1288">
        <ele>294.5</ele>
        <time>2020-11-29T09:21:57Z</time>
      </trkpt>
      <trkpt lat="43.53351" lon="1.12874">
        <ele>294.5</ele>
        <time>2020-11-29T09:21:58Z</time>
      </trkpt>
      <trkpt lat="43.5335" lon="1.12869">
        <ele>294.6</ele>
        <time>2020-11-29T09:21:59Z</time>
      </trkpt>
      <trkpt lat="43.5335" lon="1.12863">
        <ele>294.6</ele>
        <time>2020-11-29T09:22:00Z</time>
      </trkpt>
      <trkpt lat="43.53349" lon="1.12856">
        <ele>294.7</ele>
        <time>2020-11-29T09:22:01Z</time>
      </trkpt>
      <trkpt lat="43.53347" lon="1.1285">
        <ele>294.7</ele>
        <time>2020-11-29T09:22:02Z</time>
      </trkpt>
      <trkpt lat="43.53346" lon="1.12844">
        <ele>294.8</ele>
        <time>2020-11-29T09:22:03Z</time>
      </trkpt>
      <trkpt lat="43.53345" lon="1.12838">
        <ele>294.8</ele>
        <time>2020-11-29T09:22:04Z</time>
      </trkpt>
      <trkpt lat="43.53343" lon="1.12829">
        <ele>295</ele>
        <time>2020-11-29T09:22:05Z</time>
      </trkpt>
      <trkpt lat="43.53342" lon="1.12822">
        <ele>295.1</ele>
        <time>2020-11-29T09:22:06Z</time>
      </trkpt>
      <trkpt lat="43.53341" lon="1.12817">
        <ele>295.1</ele>
        <time>2020-11-29T09:22:07Z</time>
      </trkpt>
      <trkpt lat="43.53341" lon="1.1281">
        <ele>295.3</ele>
        <time>2020-11-29T09:22:08Z</time>
      </trkpt>
      <trkpt lat="43.5334" lon="1.12802">
        <ele>295.4</ele>
        <time>2020-11-29T09:22:09Z</time>
      </trkpt>
      <trkpt lat="43.53339" lon="1.12797">
        <ele>295.5</ele>
        <time>2020-11-29T09:22:10Z</time>
      </trkpt>
      <trkpt lat="43.53337" lon="1.1279">
        <ele>295.6</ele>
        <time>2020-11-29T09:22:11Z</time>
      </trkpt>
      <trkpt lat="43.53337" lon="1.12783">
        <ele>295.8</ele>
        <time>2020-11-29T09:22:12Z</time>
      </trkpt>
      <trkpt lat="43.53335" lon="1.12774">
        <ele>296</ele>
        <time>2020-11-29T09:22:13Z</time>
      </trkpt>
      <trkpt lat="43.53334" lon="1.12764">
        <ele>296.1</ele>
        <time>2020-11-29T09:22:14Z</time>
      </trkpt>
      <trkpt lat="43.53334" lon="1.12757">
        <ele>296.3</ele>
        <time>2020-11-29T09:22:15Z</time>
      </trkpt>
      <trkpt lat="43.53333" lon="1.1275">
        <ele>296.5</ele>
        <time>2020-11-29T09:22:16Z</time>
      </trkpt>
      <trkpt lat="43.53332" lon="1.12743">
        <ele>296.7</ele>
        <time>2020-11-29T09:22:17Z</time>
      </trkpt>
      <trkpt lat="43.53331" lon="1.12736">
        <ele>297</ele>
        <time>2020-11-29T09:22:18Z</time>
      </trkpt>
      <trkpt lat="43.5333" lon="1.12729">
        <ele>297.2</ele>
        <time>2020-11-29T09:22:19Z</time>
      </trkpt>
      <trkpt lat="43.5333" lon="1.12723">
        <ele>297.5</ele>
        <time>2020-11-29T09:22:20Z</time>
      </trkpt>
      <trkpt lat="43.53329" lon="1.12718">
        <ele>297.7</ele>
        <time>2020-11-29T09:22:21Z</time>
      </trkpt>
      <trkpt lat="43.53329" lon="1.12713">
        <ele>297.9</ele>
        <time>2020-11-29T09:22:22Z</time>
      </trkpt>
      <trkpt lat="43.53328" lon="1.12707">
        <ele>298.2</ele>
        <time>2020-11-29T09:22:23Z</time>
      </trkpt>
      <trkpt lat="43.53327" lon="1.12702">
        <ele>298.5</ele>
        <time>2020-11-29T09:22:24Z</time>
      </trkpt>
      <trkpt lat="43.53327" lon="1.12696">
        <ele>298.8</ele>
        <time>2020-11-29T09:22:25Z</time>
      </trkpt>
      <trkpt lat="43.53326" lon="1.12691">
        <ele>299.1</ele>
        <time>2020-11-29T09:22:26Z</time>
      </trkpt>
      <trkpt lat="43.53325" lon="1.12685">
        <ele>299.4</ele>
        <time>2020-11-29T09:22:27Z</time>
      </trkpt>
      <trkpt lat="43.53324" lon="1.1268">
        <ele>299.6</ele>
        <time>2020-11-29T09:22:28Z</time>
      </trkpt>
      <trkpt lat="43.53323" lon="1.12674">
        <ele>299.9</ele>
        <time>2020-11-29T09:22:29Z</time>
      </trkpt>
      <trkpt lat="43.53322" lon="1.12669">
        <ele>300.2</ele>
        <time>2020-11-29T09:22:30Z</time>
      </trkpt>
      <trkpt lat="43.53321" lon="1.12663">
        <ele>300.5</ele>
        <time>2020-11-29T09:22:31Z</time>
      </trkpt>
      <trkpt lat="43.5332" lon="1.12656">
        <ele>300.8</ele>
        <time>2020-11-29T09:22:32Z</time>
      </trkpt>
      <trkpt lat="43.5332" lon="1.12651">
        <ele>301</ele>
        <time>2020-11-29T09:22:33Z</time>
      </trkpt>
      <trkpt lat="43.53319" lon="1.12645">
        <ele>301.2</ele>
        <time>2020-11-29T09:22:34Z</time>
      </trkpt>
      <trkpt lat="43.53318" lon="1.12639">
        <ele>301.4</ele>
        <time>2020-11-29T09:22:35Z</time>
      </trkpt>
      <trkpt lat="43.53317" lon="1.12633">
        <ele>301.6</ele>
        <time>2020-11-29T09:22:36Z</time>
      </trkpt>
      <trkpt lat="43.53316" lon="1.12628">
        <ele>301.8</ele>
        <time>2020-11-29T09:22:37Z</time>
      </trkpt>
      <trkpt lat="43.53315" lon="1.12622">
        <ele>302</ele>
        <time>2020-11-29T09:22:38Z</time>
      </trkpt>
      <trkpt lat="43.53314" lon="1.12618">
        <ele>302.1</ele>
        <time>2020-11-29T09:22:39Z</time>
      </trkpt>
      <trkpt lat="43.53313" lon="1.12612">
        <ele>302.3</ele>
        <time>2020-11-29T09:22:40Z</time>
      </trkpt>
      <trkpt lat="43.53313" lon="1.12606">
        <ele>302.4</ele>
        <time>2020-11-29T09:22:41Z</time>
      </trkpt>
      <trkpt lat="43.53312" lon="1.126">
        <ele>302.6</ele>
        <time>2020-11-29T09:22:42Z</time>
      </trkpt>
      <trkpt lat="43.53312" lon="1.12595">
        <ele>302.7</ele>
        <time>2020-11-29T09:22:43Z</time>
      </trkpt>
      <trkpt lat="43.53311" lon="1.12589">
        <ele>302.8</ele>
        <time>2020-11-29T09:22:44Z</time>
      </trkpt>
      <trkpt lat="43.53311" lon="1.12584">
        <ele>302.9</ele>
        <time>2020-11-29T09:22:45Z</time>
      </trkpt>
      <trkpt lat="43.5331" lon="1.12579">
        <ele>303</ele>
        <time>2020-11-29T09:22:46Z</time>
      </trkpt>
      <trkpt lat="43.53309" lon="1.12572">
        <ele>303.1</ele>
        <time>2020-11-29T09:22:47Z</time>
      </trkpt>
      <trkpt lat="43.53309" lon="1.12565">
        <ele>303.2</ele>
        <time>2020-11-29T09:22:48Z</time>
      </trkpt>
      <trkpt lat="43.53308" lon="1.1256">
        <ele>303.3</ele>
        <time>2020-11-29T09:22:49Z</time>
      </trkpt>
      <trkpt lat="43.53308" lon="1.12554">
        <ele>303.4</ele>
        <time>2020-11-29T09:22:50Z</time>
      </trkpt>
      <trkpt lat="43.53307" lon="1.12548">
        <ele>303.5</ele>
        <time>2020-11-29T09:22:51Z</time>
      </trkpt>
      <trkpt lat="43.53307" lon="1.12542">
        <ele>303.6</ele>
        <time>2020-11-29T09:22:52Z</time>
      </trkpt>
      <trkpt lat="43.53307" lon="1.12536">
        <ele>303.6</ele>
        <time>2020-11-29T09:22:53Z</time>
      </trkpt>
      <trkpt lat="43.53307" lon="1.1253">
        <ele>303.7</ele>
        <time>2020-11-29T09:22:54Z</time>
      </trkpt>
      <trkpt lat="43.53306" lon="1.12524">
        <ele>303.7</ele>
        <time>2020-11-29T09:22:55Z</time>
      </trkpt>
      <trkpt lat="43.53305" lon="1.12518">
        <ele>303.8</ele>
        <time>2020-11-29T09:22:56Z</time>
      </trkpt>
      <trkpt lat="43.53304" lon="1.12513">
        <ele>303.8</ele>
        <time>2020-11-29T09:22:57Z</time>
      </trkpt>
      <trkpt lat="43.53303" lon="1.12509">
        <ele>303.8</ele>
        <time>2020-11-29T09:22:58Z</time>
      </trkpt>
      <trkpt lat="43.53302" lon="1.12505">
        <ele>303.8</ele>
        <time>2020-11-29T09:22:59Z</time>
      </trkpt>
      <trkpt lat="43.53301" lon="1.125">
        <ele>303.8</ele>
        <time>2020-11-29T09:23:00Z</time>
      </trkpt>
      <trkpt lat="43.53301" lon="1.12499">
        <ele>303.8</ele>
        <time>2020-11-29T09:23:01Z</time>
      </trkpt>
      <trkpt lat="43.53302" lon="1.12493">
        <ele>303.8</ele>
        <time>2020-11-29T09:23:02Z</time>
      </trkpt>
      <trkpt lat="43.53302" lon="1.1249">
        <ele>303.8</ele>
        <time>2020-11-29T09:23:03Z</time>
      </trkpt>
      <trkpt lat="43.53303" lon="1.12485">
        <ele>303.7</ele>
        <time>2020-11-29T09:23:04Z</time>
      </trkpt>
      <trkpt lat="43.53303" lon="1.12484">
        <ele>303.7</ele>
        <time>2020-11-29T09:23:05Z</time>
      </trkpt>
      <trkpt lat="43.53302" lon="1.1248">
        <ele>303.7</ele>
        <time>2020-11-29T09:23:06Z</time>
      </trkpt>
      <trkpt lat="43.53302" lon="1.12475">
        <ele>303.7</ele>
        <time>2020-11-29T09:23:07Z</time>
      </trkpt>
      <trkpt lat="43.53302" lon="1.12474">
        <ele>303.7</ele>
        <time>2020-11-29T09:23:08Z</time>
      </trkpt>
      <trkpt lat="43.53302" lon="1.12468">
        <ele>303.7</ele>
        <time>2020-11-29T09:23:09Z</time>
      </trkpt>
      <trkpt lat="43.53301" lon="1.12466">
        <ele>303.7</ele>
        <time>2020-11-29T09:23:10Z</time>
      </trkpt>
      <trkpt lat="43.53301" lon="1.12462">
        <ele>303.6</ele>
        <time>2020-11-29T09:23:11Z</time>
      </trkpt>
      <trkpt lat="43.53299" lon="1.12456">
        <ele>303.6</ele>
        <time>2020-11-29T09:23:12Z</time>
      </trkpt>
      <trkpt lat="43.53298" lon="1.12452">
        <ele>303.6</ele>
        <time>2020-11-29T09:23:13Z</time>
      </trkpt>
      <trkpt lat="43.53296" lon="1.12447">
        <ele>303.5</ele>
        <time>2020-11-29T09:23:14Z</time>
      </trkpt>
      <trkpt lat="43.53296" lon="1.12442">
        <ele>303.5</ele>
        <time>2020-11-29T09:23:15Z</time>
      </trkpt>
      <trkpt lat="43.53296" lon="1.12436">
        <ele>303.4</ele>
        <time>2020-11-29T09:23:16Z</time>
      </trkpt>
      <trkpt lat="43.53294" lon="1.12431">
        <ele>303.4</ele>
        <time>2020-11-29T09:23:17Z</time>
      </trkpt>
      <trkpt lat="43.53294" lon="1.12429">
        <ele>303.4</ele>
        <time>2020-11-29T09:23:18Z</time>
      </trkpt>
      <trkpt lat="43.53293" lon="1.12422">
        <ele>303.3</ele>
        <time>2020-11-29T09:23:19Z</time>
      </trkpt>
      <trkpt lat="43.53293" lon="1.12415">
        <ele>303.2</ele>
        <time>2020-11-29T09:23:20Z</time>
      </trkpt>
      <trkpt lat="43.53292" lon="1.12408">
        <ele>303.2</ele>
        <time>2020-11-29T09:23:21Z</time>
      </trkpt>
      <trkpt lat="43.53292" lon="1.12402">
        <ele>303.1</ele>
        <time>2020-11-29T09:23:22Z</time>
      </trkpt>
      <trkpt lat="43.53292" lon="1.12395">
        <ele>303.1</ele>
        <time>2020-11-29T09:23:23Z</time>
      </trkpt>
      <trkpt lat="43.53292" lon="1.12389">
        <ele>303.1</ele>
        <time>2020-11-29T09:23:24Z</time>
      </trkpt>
      <trkpt lat="43.53292" lon="1.12384">
        <ele>303</ele>
        <time>2020-11-29T09:23:25Z</time>
      </trkpt>
      <trkpt lat="43.53292" lon="1.12377">
        <ele>303</ele>
        <time>2020-11-29T09:23:26Z</time>
      </trkpt>
      <trkpt lat="43.53292" lon="1.12371">
        <ele>302.9</ele>
        <time>2020-11-29T09:23:27Z</time>
      </trkpt>
      <trkpt lat="43.53291" lon="1.12367">
        <ele>302.9</ele>
        <time>2020-11-29T09:23:28Z</time>
      </trkpt>
      <trkpt lat="43.5329" lon="1.12362">
        <ele>302.9</ele>
        <time>2020-11-29T09:23:29Z</time>
      </trkpt>
      <trkpt lat="43.53289" lon="1.12358">
        <ele>302.9</ele>
        <time>2020-11-29T09:23:30Z</time>
      </trkpt>
      <trkpt lat="43.53289" lon="1.12353">
        <ele>302.8</ele>
        <time>2020-11-29T09:23:31Z</time>
      </trkpt>
      <trkpt lat="43.53288" lon="1.12349">
        <ele>302.8</ele>
        <time>2020-11-29T09:23:32Z</time>
      </trkpt>
      <trkpt lat="43.53288" lon="1.12342">
        <ele>302.7</ele>
        <time>2020-11-29T09:23:33Z</time>
      </trkpt>
      <trkpt lat="43.53288" lon="1.12336">
        <ele>302.7</ele>
        <time>2020-11-29T09:23:34Z</time>
      </trkpt>
      <trkpt lat="43.53288" lon="1.1233">
        <ele>302.7</ele>
        <time>2020-11-29T09:23:35Z</time>
      </trkpt>
      <trkpt lat="43.53287" lon="1.12325">
        <ele>302.7</ele>
        <time>2020-11-29T09:23:36Z</time>
      </trkpt>
      <trkpt lat="43.53289" lon="1.1232">
        <ele>302.6</ele>
        <time>2020-11-29T09:23:37Z</time>
      </trkpt>
      <trkpt lat="43.53289" lon="1.12315">
        <ele>302.6</ele>
        <time>2020-11-29T09:23:38Z</time>
      </trkpt>
      <trkpt lat="43.53289" lon="1.12313">
        <ele>302.6</ele>
        <time>2020-11-29T09:23:39Z</time>
      </trkpt>
      <trkpt lat="43.5329" lon="1.12306">
        <ele>302.6</ele>
        <time>2020-11-29T09:23:40Z</time>
      </trkpt>
      <trkpt lat="43.5329" lon="1.12301">
        <ele>302.5</ele>
        <time>2020-11-29T09:23:41Z</time>
      </trkpt>
      <trkpt lat="43.53291" lon="1.12293">
        <ele>302.5</ele>
        <time>2020-11-29T09:23:42Z</time>
      </trkpt>
      <trkpt lat="43.53292" lon="1.12285">
        <ele>302.5</ele>
        <time>2020-11-29T09:23:43Z</time>
      </trkpt>
      <trkpt lat="43.53291" lon="1.12277">
        <ele>302.4</ele>
        <time>2020-11-29T09:23:44Z</time>
      </trkpt>
      <trkpt lat="43.5329" lon="1.12267">
        <ele>302.4</ele>
        <time>2020-11-29T09:23:45Z</time>
      </trkpt>
      <trkpt lat="43.53289" lon="1.1226">
        <ele>302.3</ele>
        <time>2020-11-29T09:23:46Z</time>
      </trkpt>
      <trkpt lat="43.53287" lon="1.12251">
        <ele>302.3</ele>
        <time>2020-11-29T09:23:47Z</time>
      </trkpt>
      <trkpt lat="43.53287" lon="1.12241">
        <ele>302.2</ele>
        <time>2020-11-29T09:23:48Z</time>
      </trkpt>
      <trkpt lat="43.53286" lon="1.12234">
        <ele>302.2</ele>
        <time>2020-11-29T09:23:49Z</time>
      </trkpt>
      <trkpt lat="43.53287" lon="1.12227">
        <ele>302.1</ele>
        <time>2020-11-29T09:23:50Z</time>
      </trkpt>
      <trkpt lat="43.53286" lon="1.12221">
        <ele>302.1</ele>
        <time>2020-11-29T09:23:51Z</time>
      </trkpt>
      <trkpt lat="43.53286" lon="1.12213">
        <ele>302</ele>
        <time>2020-11-29T09:23:52Z</time>
      </trkpt>
      <trkpt lat="43.53286" lon="1.12206">
        <ele>302</ele>
        <time>2020-11-29T09:23:53Z</time>
      </trkpt>
      <trkpt lat="43.53286" lon="1.122">
        <ele>301.9</ele>
        <time>2020-11-29T09:23:54Z</time>
      </trkpt>
      <trkpt lat="43.53285" lon="1.12193">
        <ele>301.9</ele>
        <time>2020-11-29T09:23:55Z</time>
      </trkpt>
      <trkpt lat="43.53285" lon="1.12187">
        <ele>301.9</ele>
        <time>2020-11-29T09:23:56Z</time>
      </trkpt>
      <trkpt lat="43.53284" lon="1.1218">
        <ele>301.8</ele>
        <time>2020-11-29T09:23:57Z</time>
      </trkpt>
      <trkpt lat="43.53284" lon="1.12171">
        <ele>301.8</ele>
        <time>2020-11-29T09:23:58Z</time>
      </trkpt>
      <trkpt lat="43.53284" lon="1.12164">
        <ele>301.7</ele>
        <time>2020-11-29T09:23:59Z</time>
      </trkpt>
      <trkpt lat="43.53284" lon="1.12157">
        <ele>301.7</ele>
        <time>2020-11-29T09:24:00Z</time>
      </trkpt>
      <trkpt lat="43.53283" lon="1.12149">
        <ele>301.6</ele>
        <time>2020-11-29T09:24:01Z</time>
      </trkpt>
      <trkpt lat="43.53281" lon="1.12144">
        <ele>301.5</ele>
        <time>2020-11-29T09:24:02Z</time>
      </trkpt>
      <trkpt lat="43.53281" lon="1.12138">
        <ele>301.5</ele>
        <time>2020-11-29T09:24:03Z</time>
      </trkpt>
      <trkpt lat="43.5328" lon="1.12131">
        <ele>301.4</ele>
        <time>2020-11-29T09:24:04Z</time>
      </trkpt>
      <trkpt lat="43.53281" lon="1.12123">
        <ele>301.3</ele>
        <time>2020-11-29T09:24:05Z</time>
      </trkpt>
      <trkpt lat="43.5328" lon="1.12118">
        <ele>301.3</ele>
        <time>2020-11-29T09:24:06Z</time>
      </trkpt>
      <trkpt lat="43.53279" lon="1.1211">
        <ele>301.2</ele>
        <time>2020-11-29T09:24:07Z</time>
      </trkpt>
      <trkpt lat="43.53278" lon="1.12102">
        <ele>301.2</ele>
        <time>2020-11-29T09:24:08Z</time>
      </trkpt>
      <trkpt lat="43.53277" lon="1.12094">
        <ele>301.1</ele>
        <time>2020-11-29T09:24:09Z</time>
      </trkpt>
      <trkpt lat="43.53276" lon="1.12087">
        <ele>301.1</ele>
        <time>2020-11-29T09:24:10Z</time>
      </trkpt>
      <trkpt lat="43.53275" lon="1.12079">
        <ele>301</ele>
        <time>2020-11-29T09:24:11Z</time>
      </trkpt>
      <trkpt lat="43.53274" lon="1.12072">
        <ele>301</ele>
        <time>2020-11-29T09:24:12Z</time>
      </trkpt>
      <trkpt lat="43.53274" lon="1.12066">
        <ele>300.9</ele>
        <time>2020-11-29T09:24:13Z</time>
      </trkpt>
      <trkpt lat="43.53273" lon="1.1206">
        <ele>300.9</ele>
        <time>2020-11-29T09:24:14Z</time>
      </trkpt>
      <trkpt lat="43.53272" lon="1.12053">
        <ele>300.9</ele>
        <time>2020-11-29T09:24:15Z</time>
      </trkpt>
      <trkpt lat="43.53271" lon="1.12048">
        <ele>300.8</ele>
        <time>2020-11-29T09:24:16Z</time>
      </trkpt>
      <trkpt lat="43.53269" lon="1.12044">
        <ele>300.8</ele>
        <time>2020-11-29T09:24:17Z</time>
      </trkpt>
      <trkpt lat="43.53268" lon="1.12038">
        <ele>300.8</ele>
        <time>2020-11-29T09:24:18Z</time>
      </trkpt>
      <trkpt lat="43.53268" lon="1.12034">
        <ele>300.8</ele>
        <time>2020-11-29T09:24:19Z</time>
      </trkpt>
      <trkpt lat="43.53267" lon="1.12028">
        <ele>300.7</ele>
        <time>2020-11-29T09:24:20Z</time>
      </trkpt>
      <trkpt lat="43.53266" lon="1.12021">
        <ele>300.7</ele>
        <time>2020-11-29T09:24:21Z</time>
      </trkpt>
      <trkpt lat="43.53264" lon="1.12015">
        <ele>300.7</ele>
        <time>2020-11-29T09:24:22Z</time>
      </trkpt>
      <trkpt lat="43.53263" lon="1.1201">
        <ele>300.7</ele>
        <time>2020-11-29T09:24:23Z</time>
      </trkpt>
      <trkpt lat="43.53262" lon="1.12006">
        <ele>300.7</ele>
        <time>2020-11-29T09:24:24Z</time>
      </trkpt>
      <trkpt lat="43.53262" lon="1.12003">
        <ele>300.7</ele>
        <time>2020-11-29T09:24:25Z</time>
      </trkpt>
      <trkpt lat="43.53261" lon="1.11998">
        <ele>300.7</ele>
        <time>2020-11-29T09:24:26Z</time>
      </trkpt>
      <trkpt lat="43.53261" lon="1.11992">
        <ele>300.7</ele>
        <time>2020-11-29T09:24:27Z</time>
      </trkpt>
      <trkpt lat="43.53261" lon="1.11985">
        <ele>300.7</ele>
        <time>2020-11-29T09:24:28Z</time>
      </trkpt>
      <trkpt lat="43.5326" lon="1.1198">
        <ele>300.7</ele>
        <time>2020-11-29T09:24:29Z</time>
      </trkpt>
      <trkpt lat="43.53259" lon="1.11973">
        <ele>300.7</ele>
        <time>2020-11-29T09:24:30Z</time>
      </trkpt>
      <trkpt lat="43.53258" lon="1.11967">
        <ele>300.7</ele>
        <time>2020-11-29T09:24:31Z</time>
      </trkpt>
      <trkpt lat="43.53257" lon="1.11961">
        <ele>300.7</ele>
        <time>2020-11-29T09:24:32Z</time>
      </trkpt>
      <trkpt lat="43.53256" lon="1.11954">
        <ele>300.7</ele>
        <time>2020-11-29T09:24:33Z</time>
      </trkpt>
      <trkpt lat="43.53255" lon="1.11949">
        <ele>300.7</ele>
        <time>2020-11-29T09:24:34Z</time>
      </trkpt>
      <trkpt lat="43.53254" lon="1.11944">
        <ele>300.7</ele>
        <time>2020-11-29T09:24:35Z</time>
      </trkpt>
      <trkpt lat="43.53252" lon="1.11936">
        <ele>300.7</ele>
        <time>2020-11-29T09:24:36Z</time>
      </trkpt>
      <trkpt lat="43.5325" lon="1.11929">
        <ele>300.8</ele>
        <time>2020-11-29T09:24:37Z</time>
      </trkpt>
      <trkpt lat="43.5325" lon="1.11925">
        <ele>300.8</ele>
        <time>2020-11-29T09:24:38Z</time>
      </trkpt>
      <trkpt lat="43.53249" lon="1.11919">
        <ele>300.8</ele>
        <time>2020-11-29T09:24:39Z</time>
      </trkpt>
      <trkpt lat="43.53248" lon="1.11916">
        <ele>300.8</ele>
        <time>2020-11-29T09:24:40Z</time>
      </trkpt>
      <trkpt lat="43.53247" lon="1.11911">
        <ele>300.9</ele>
        <time>2020-11-29T09:24:41Z</time>
      </trkpt>
      <trkpt lat="43.53246" lon="1.11906">
        <ele>300.9</ele>
        <time>2020-11-29T09:24:42Z</time>
      </trkpt>
      <trkpt lat="43.53245" lon="1.11901">
        <ele>300.9</ele>
        <time>2020-11-29T09:24:43Z</time>
      </trkpt>
      <trkpt lat="43.53244" lon="1.11896">
        <ele>301</ele>
        <time>2020-11-29T09:24:44Z</time>
      </trkpt>
      <trkpt lat="43.53243" lon="1.11892">
        <ele>301</ele>
        <time>2020-11-29T09:24:45Z</time>
      </trkpt>
      <trkpt lat="43.53242" lon="1.11884">
        <ele>301</ele>
        <time>2020-11-29T09:24:46Z</time>
      </trkpt>
      <trkpt lat="43.53241" lon="1.11877">
        <ele>301</ele>
        <time>2020-11-29T09:24:47Z</time>
      </trkpt>
      <trkpt lat="43.53241" lon="1.11871">
        <ele>301</ele>
        <time>2020-11-29T09:24:48Z</time>
      </trkpt>
      <trkpt lat="43.5324" lon="1.11863">
        <ele>300.9</ele>
        <time>2020-11-29T09:24:49Z</time>
      </trkpt>
      <trkpt lat="43.53238" lon="1.11858">
        <ele>300.9</ele>
        <time>2020-11-29T09:24:50Z</time>
      </trkpt>
      <trkpt lat="43.53236" lon="1.11853">
        <ele>300.8</ele>
        <time>2020-11-29T09:24:51Z</time>
      </trkpt>
      <trkpt lat="43.53235" lon="1.11847">
        <ele>300.8</ele>
        <time>2020-11-29T09:24:52Z</time>
      </trkpt>
      <trkpt lat="43.53232" lon="1.1184">
        <ele>300.7</ele>
        <time>2020-11-29T09:24:53Z</time>
      </trkpt>
      <trkpt lat="43.5323" lon="1.11834">
        <ele>300.7</ele>
        <time>2020-11-29T09:24:54Z</time>
      </trkpt>
      <trkpt lat="43.53228" lon="1.11828">
        <ele>300.7</ele>
        <time>2020-11-29T09:24:55Z</time>
      </trkpt>
      <trkpt lat="43.53226" lon="1.11823">
        <ele>300.6</ele>
        <time>2020-11-29T09:24:56Z</time>
      </trkpt>
      <trkpt lat="43.53224" lon="1.11817">
        <ele>300.6</ele>
        <time>2020-11-29T09:24:57Z</time>
      </trkpt>
      <trkpt lat="43.53221" lon="1.1181">
        <ele>300.6</ele>
        <time>2020-11-29T09:24:58Z</time>
      </trkpt>
      <trkpt lat="43.53218" lon="1.11805">
        <ele>300.5</ele>
        <time>2020-11-29T09:24:59Z</time>
      </trkpt>
      <trkpt lat="43.53216" lon="1.118">
        <ele>300.5</ele>
        <time>2020-11-29T09:25:00Z</time>
      </trkpt>
      <trkpt lat="43.53214" lon="1.11795">
        <ele>300.5</ele>
        <time>2020-11-29T09:25:01Z</time>
      </trkpt>
      <trkpt lat="43.53212" lon="1.1179">
        <ele>300.5</ele>
        <time>2020-11-29T09:25:02Z</time>
      </trkpt>
      <trkpt lat="43.53209" lon="1.11786">
        <ele>300.5</ele>
        <time>2020-11-29T09:25:03Z</time>
      </trkpt>
      <trkpt lat="43.53206" lon="1.11783">
        <ele>300.5</ele>
        <time>2020-11-29T09:25:04Z</time>
      </trkpt>
      <trkpt lat="43.53204" lon="1.11777">
        <ele>300.5</ele>
        <time>2020-11-29T09:25:05Z</time>
      </trkpt>
      <trkpt lat="43.53201" lon="1.11771">
        <ele>300.5</ele>
        <time>2020-11-29T09:25:06Z</time>
      </trkpt>
      <trkpt lat="43.53199" lon="1.11767">
        <ele>300.5</ele>
        <time>2020-11-29T09:25:07Z</time>
      </trkpt>
      <trkpt lat="43.53196" lon="1.11763">
        <ele>300.5</ele>
        <time>2020-11-29T09:25:08Z</time>
      </trkpt>
      <trkpt lat="43.53193" lon="1.11759">
        <ele>300.5</ele>
        <time>2020-11-29T09:25:09Z</time>
      </trkpt>
      <trkpt lat="43.53189" lon="1.11754">
        <ele>300.5</ele>
        <time>2020-11-29T09:25:10Z</time>
      </trkpt>
      <trkpt lat="43.53187" lon="1.11749">
        <ele>300.5</ele>
        <time>2020-11-29T09:25:11Z</time>
      </trkpt>
      <trkpt lat="43.53183" lon="1.11742">
        <ele>300.6</ele>
        <time>2020-11-29T09:25:12Z</time>
      </trkpt>
      <trkpt lat="43.53179" lon="1.11736">
        <ele>300.6</ele>
        <time>2020-11-29T09:25:13Z</time>
      </trkpt>
      <trkpt lat="43.53175" lon="1.1173">
        <ele>300.6</ele>
        <time>2020-11-29T09:25:14Z</time>
      </trkpt>
      <trkpt lat="43.53172" lon="1.11725">
        <ele>300.6</ele>
        <time>2020-11-29T09:25:15Z</time>
      </trkpt>
      <trkpt lat="43.53169" lon="1.1172">
        <ele>300.6</ele>
        <time>2020-11-29T09:25:16Z</time>
      </trkpt>
      <trkpt lat="43.53166" lon="1.11714">
        <ele>300.7</ele>
        <time>2020-11-29T09:25:17Z</time>
      </trkpt>
      <trkpt lat="43.53163" lon="1.11709">
        <ele>300.7</ele>
        <time>2020-11-29T09:25:18Z</time>
      </trkpt>
      <trkpt lat="43.5316" lon="1.11703">
        <ele>300.7</ele>
        <time>2020-11-29T09:25:19Z</time>
      </trkpt>
      <trkpt lat="43.53157" lon="1.11698">
        <ele>300.8</ele>
        <time>2020-11-29T09:25:20Z</time>
      </trkpt>
      <trkpt lat="43.53154" lon="1.11693">
        <ele>300.8</ele>
        <time>2020-11-29T09:25:21Z</time>
      </trkpt>
      <trkpt lat="43.53151" lon="1.11686">
        <ele>300.9</ele>
        <time>2020-11-29T09:25:22Z</time>
      </trkpt>
      <trkpt lat="43.53148" lon="1.11682">
        <ele>301</ele>
        <time>2020-11-29T09:25:23Z</time>
      </trkpt>
      <trkpt lat="43.53146" lon="1.11677">
        <ele>301.1</ele>
        <time>2020-11-29T09:25:24Z</time>
      </trkpt>
      <trkpt lat="43.53142" lon="1.11672">
        <ele>301.2</ele>
        <time>2020-11-29T09:25:25Z</time>
      </trkpt>
      <trkpt lat="43.53138" lon="1.11667">
        <ele>301.3</ele>
        <time>2020-11-29T09:25:26Z</time>
      </trkpt>
      <trkpt lat="43.53135" lon="1.11663">
        <ele>301.4</ele>
        <time>2020-11-29T09:25:27Z</time>
      </trkpt>
      <trkpt lat="43.53132" lon="1.11659">
        <ele>301.5</ele>
        <time>2020-11-29T09:25:28Z</time>
      </trkpt>
      <trkpt lat="43.53129" lon="1.11657">
        <ele>301.6</ele>
        <time>2020-11-29T09:25:29Z</time>
      </trkpt>
      <trkpt lat="43.53127" lon="1.11654">
        <ele>301.6</ele>
        <time>2020-11-29T09:25:30Z</time>
      </trkpt>
      <trkpt lat="43.53124" lon="1.11649">
        <ele>301.7</ele>
        <time>2020-11-29T09:25:31Z</time>
      </trkpt>
      <trkpt lat="43.5312" lon="1.11646">
        <ele>301.8</ele>
        <time>2020-11-29T09:25:32Z</time>
      </trkpt>
      <trkpt lat="43.53116" lon="1.11642">
        <ele>302</ele>
        <time>2020-11-29T09:25:33Z</time>
      </trkpt>
      <trkpt lat="43.53113" lon="1.11638">
        <ele>302</ele>
        <time>2020-11-29T09:25:34Z</time>
      </trkpt>
      <trkpt lat="43.5311" lon="1.11634">
        <ele>302.1</ele>
        <time>2020-11-29T09:25:35Z</time>
      </trkpt>
      <trkpt lat="43.53107" lon="1.1163">
        <ele>302.2</ele>
        <time>2020-11-29T09:25:36Z</time>
      </trkpt>
      <trkpt lat="43.53104" lon="1.11626">
        <ele>302.3</ele>
        <time>2020-11-29T09:25:37Z</time>
      </trkpt>
      <trkpt lat="43.53102" lon="1.11623">
        <ele>302.4</ele>
        <time>2020-11-29T09:25:38Z</time>
      </trkpt>
      <trkpt lat="43.53099" lon="1.11617">
        <ele>302.5</ele>
        <time>2020-11-29T09:25:39Z</time>
      </trkpt>
      <trkpt lat="43.53096" lon="1.11612">
        <ele>302.5</ele>
        <time>2020-11-29T09:25:40Z</time>
      </trkpt>
      <trkpt lat="43.53094" lon="1.11607">
        <ele>302.6</ele>
        <time>2020-11-29T09:25:41Z</time>
      </trkpt>
      <trkpt lat="43.53091" lon="1.11602">
        <ele>302.7</ele>
        <time>2020-11-29T09:25:42Z</time>
      </trkpt>
      <trkpt lat="43.53089" lon="1.11596">
        <ele>302.7</ele>
        <time>2020-11-29T09:25:43Z</time>
      </trkpt>
      <trkpt lat="43.53086" lon="1.11591">
        <ele>302.8</ele>
        <time>2020-11-29T09:25:44Z</time>
      </trkpt>
      <trkpt lat="43.53082" lon="1.11586">
        <ele>302.9</ele>
        <time>2020-11-29T09:25:45Z</time>
      </trkpt>
      <trkpt lat="43.53078" lon="1.11579">
        <ele>302.9</ele>
        <time>2020-11-29T09:25:46Z</time>
      </trkpt>
      <trkpt lat="43.53076" lon="1.11575">
        <ele>303</ele>
        <time>2020-11-29T09:25:47Z</time>
      </trkpt>
      <trkpt lat="43.53073" lon="1.11569">
        <ele>303</ele>
        <time>2020-11-29T09:25:48Z</time>
      </trkpt>
      <trkpt lat="43.53071" lon="1.11561">
        <ele>303.1</ele>
        <time>2020-11-29T09:25:49Z</time>
      </trkpt>
      <trkpt lat="43.5307" lon="1.11555">
        <ele>303.1</ele>
        <time>2020-11-29T09:25:50Z</time>
      </trkpt>
      <trkpt lat="43.53069" lon="1.11549">
        <ele>303.1</ele>
        <time>2020-11-29T09:25:51Z</time>
      </trkpt>
      <trkpt lat="43.53068" lon="1.11544">
        <ele>303.2</ele>
        <time>2020-11-29T09:25:52Z</time>
      </trkpt>
      <trkpt lat="43.53067" lon="1.1154">
        <ele>303.2</ele>
        <time>2020-11-29T09:25:53Z</time>
      </trkpt>
      <trkpt lat="43.53066" lon="1.11535">
        <ele>303.2</ele>
        <time>2020-11-29T09:25:54Z</time>
      </trkpt>
      <trkpt lat="43.53064" lon="1.1153">
        <ele>303.2</ele>
        <time>2020-11-29T09:25:55Z</time>
      </trkpt>
      <trkpt lat="43.5306" lon="1.11525">
        <ele>303.2</ele>
        <time>2020-11-29T09:25:56Z</time>
      </trkpt>
      <trkpt lat="43.53057" lon="1.11518">
        <ele>303.3</ele>
        <time>2020-11-29T09:25:57Z</time>
      </trkpt>
      <trkpt lat="43.53055" lon="1.11512">
        <ele>303.3</ele>
        <time>2020-11-29T09:25:58Z</time>
      </trkpt>
      <trkpt lat="43.53053" lon="1.11507">
        <ele>303.3</ele>
        <time>2020-11-29T09:25:59Z</time>
      </trkpt>
      <trkpt lat="43.5305" lon="1.11499">
        <ele>303.3</ele>
        <time>2020-11-29T09:26:00Z</time>
      </trkpt>
      <trkpt lat="43.53047" lon="1.11492">
        <ele>303.3</ele>
        <time>2020-11-29T09:26:01Z</time>
      </trkpt>
      <trkpt lat="43.53044" lon="1.11487">
        <ele>303.3</ele>
        <time>2020-11-29T09:26:02Z</time>
      </trkpt>
      <trkpt lat="43.5304" lon="1.11482">
        <ele>303.3</ele>
        <time>2020-11-29T09:26:03Z</time>
      </trkpt>
      <trkpt lat="43.53037" lon="1.11477">
        <ele>303.4</ele>
        <time>2020-11-29T09:26:04Z</time>
      </trkpt>
      <trkpt lat="43.53036" lon="1.11473">
        <ele>303.4</ele>
        <time>2020-11-29T09:26:05Z</time>
      </trkpt>
      <trkpt lat="43.53033" lon="1.11467">
        <ele>303.4</ele>
        <time>2020-11-29T09:26:06Z</time>
      </trkpt>
      <trkpt lat="43.5303" lon="1.11461">
        <ele>303.4</ele>
        <time>2020-11-29T09:26:07Z</time>
      </trkpt>
      <trkpt lat="43.53028" lon="1.11458">
        <ele>303.5</ele>
        <time>2020-11-29T09:26:08Z</time>
      </trkpt>
      <trkpt lat="43.53025" lon="1.11451">
        <ele>303.5</ele>
        <time>2020-11-29T09:26:09Z</time>
      </trkpt>
      <trkpt lat="43.53023" lon="1.11444">
        <ele>303.6</ele>
        <time>2020-11-29T09:26:10Z</time>
      </trkpt>
      <trkpt lat="43.53021" lon="1.11439">
        <ele>303.6</ele>
        <time>2020-11-29T09:26:11Z</time>
      </trkpt>
      <trkpt lat="43.5302" lon="1.11435">
        <ele>303.7</ele>
        <time>2020-11-29T09:26:12Z</time>
      </trkpt>
      <trkpt lat="43.53019" lon="1.11429">
        <ele>303.8</ele>
        <time>2020-11-29T09:26:13Z</time>
      </trkpt>
      <trkpt lat="43.53017" lon="1.11423">
        <ele>303.8</ele>
        <time>2020-11-29T09:26:14Z</time>
      </trkpt>
      <trkpt lat="43.53015" lon="1.11417">
        <ele>303.9</ele>
        <time>2020-11-29T09:26:15Z</time>
      </trkpt>
      <trkpt lat="43.53012" lon="1.11413">
        <ele>303.9</ele>
        <time>2020-11-29T09:26:16Z</time>
      </trkpt>
      <trkpt lat="43.5301" lon="1.11409">
        <ele>304</ele>
        <time>2020-11-29T09:26:17Z</time>
      </trkpt>
      <trkpt lat="43.53009" lon="1.11404">
        <ele>304</ele>
        <time>2020-11-29T09:26:18Z</time>
      </trkpt>
      <trkpt lat="43.53008" lon="1.11399">
        <ele>304.1</ele>
        <time>2020-11-29T09:26:19Z</time>
      </trkpt>
      <trkpt lat="43.53007" lon="1.11395">
        <ele>304.1</ele>
        <time>2020-11-29T09:26:20Z</time>
      </trkpt>
      <trkpt lat="43.53005" lon="1.1139">
        <ele>304.2</ele>
        <time>2020-11-29T09:26:21Z</time>
      </trkpt>
      <trkpt lat="43.53003" lon="1.11386">
        <ele>304.2</ele>
        <time>2020-11-29T09:26:22Z</time>
      </trkpt>
      <trkpt lat="43.53001" lon="1.11382">
        <ele>304.3</ele>
        <time>2020-11-29T09:26:23Z</time>
      </trkpt>
      <trkpt lat="43.53" lon="1.11377">
        <ele>304.3</ele>
        <time>2020-11-29T09:26:24Z</time>
      </trkpt>
      <trkpt lat="43.52997" lon="1.1137">
        <ele>304.4</ele>
        <time>2020-11-29T09:26:25Z</time>
      </trkpt>
      <trkpt lat="43.52996" lon="1.11365">
        <ele>304.5</ele>
        <time>2020-11-29T09:26:26Z</time>
      </trkpt>
      <trkpt lat="43.52995" lon="1.1136">
        <ele>304.5</ele>
        <time>2020-11-29T09:26:27Z</time>
      </trkpt>
      <trkpt lat="43.52993" lon="1.11356">
        <ele>304.6</ele>
        <time>2020-11-29T09:26:28Z</time>
      </trkpt>
      <trkpt lat="43.52991" lon="1.1135">
        <ele>304.6</ele>
        <time>2020-11-29T09:26:29Z</time>
      </trkpt>
      <trkpt lat="43.52989" lon="1.11344">
        <ele>304.7</ele>
        <time>2020-11-29T09:26:30Z</time>
      </trkpt>
      <trkpt lat="43.52987" lon="1.11338">
        <ele>304.7</ele>
        <time>2020-11-29T09:26:31Z</time>
      </trkpt>
      <trkpt lat="43.52985" lon="1.11332">
        <ele>304.8</ele>
        <time>2020-11-29T09:26:32Z</time>
      </trkpt>
      <trkpt lat="43.52983" lon="1.11327">
        <ele>304.8</ele>
        <time>2020-11-29T09:26:33Z</time>
      </trkpt>
      <trkpt lat="43.52982" lon="1.11323">
        <ele>304.9</ele>
        <time>2020-11-29T09:26:34Z</time>
      </trkpt>
      <trkpt lat="43.52979" lon="1.11317">
        <ele>304.9</ele>
        <time>2020-11-29T09:26:35Z</time>
      </trkpt>
      <trkpt lat="43.52977" lon="1.11312">
        <ele>305</ele>
        <time>2020-11-29T09:26:36Z</time>
      </trkpt>
      <trkpt lat="43.52975" lon="1.11307">
        <ele>305.1</ele>
        <time>2020-11-29T09:26:37Z</time>
      </trkpt>
      <trkpt lat="43.52972" lon="1.11303">
        <ele>305.1</ele>
        <time>2020-11-29T09:26:38Z</time>
      </trkpt>
      <trkpt lat="43.5297" lon="1.11298">
        <ele>305.2</ele>
        <time>2020-11-29T09:26:39Z</time>
      </trkpt>
      <trkpt lat="43.52968" lon="1.11293">
        <ele>305.3</ele>
        <time>2020-11-29T09:26:40Z</time>
      </trkpt>
      <trkpt lat="43.52965" lon="1.11288">
        <ele>305.4</ele>
        <time>2020-11-29T09:26:41Z</time>
      </trkpt>
      <trkpt lat="43.52963" lon="1.11283">
        <ele>305.5</ele>
        <time>2020-11-29T09:26:42Z</time>
      </trkpt>
      <trkpt lat="43.52962" lon="1.11279">
        <ele>305.6</ele>
        <time>2020-11-29T09:26:43Z</time>
      </trkpt>
      <trkpt lat="43.52961" lon="1.11274">
        <ele>305.8</ele>
        <time>2020-11-29T09:26:44Z</time>
      </trkpt>
      <trkpt lat="43.52959" lon="1.11268">
        <ele>305.9</ele>
        <time>2020-11-29T09:26:45Z</time>
      </trkpt>
      <trkpt lat="43.52957" lon="1.11262">
        <ele>306.1</ele>
        <time>2020-11-29T09:26:46Z</time>
      </trkpt>
      <trkpt lat="43.52955" lon="1.11255">
        <ele>306.3</ele>
        <time>2020-11-29T09:26:47Z</time>
      </trkpt>
      <trkpt lat="43.52953" lon="1.11249">
        <ele>306.6</ele>
        <time>2020-11-29T09:26:48Z</time>
      </trkpt>
      <trkpt lat="43.5295" lon="1.11244">
        <ele>306.7</ele>
        <time>2020-11-29T09:26:49Z</time>
      </trkpt>
      <trkpt lat="43.52949" lon="1.11241">
        <ele>306.7</ele>
        <time>2020-11-29T09:26:50Z</time>
      </trkpt>
      <trkpt lat="43.52946" lon="1.11234">
        <ele>306.8</ele>
        <time>2020-11-29T09:26:51Z</time>
      </trkpt>
      <trkpt lat="43.52944" lon="1.11228">
        <ele>306.9</ele>
        <time>2020-11-29T09:26:52Z</time>
      </trkpt>
      <trkpt lat="43.52942" lon="1.11222">
        <ele>307</ele>
        <time>2020-11-29T09:26:53Z</time>
      </trkpt>
      <trkpt lat="43.5294" lon="1.11217">
        <ele>307</ele>
        <time>2020-11-29T09:26:54Z</time>
      </trkpt>
      <trkpt lat="43.52938" lon="1.11209">
        <ele>307.1</ele>
        <time>2020-11-29T09:26:55Z</time>
      </trkpt>
      <trkpt lat="43.52936" lon="1.11203">
        <ele>307.2</ele>
        <time>2020-11-29T09:26:56Z</time>
      </trkpt>
      <trkpt lat="43.52933" lon="1.11197">
        <ele>307.2</ele>
        <time>2020-11-29T09:26:57Z</time>
      </trkpt>
      <trkpt lat="43.5293" lon="1.1119">
        <ele>307.3</ele>
        <time>2020-11-29T09:26:58Z</time>
      </trkpt>
      <trkpt lat="43.52927" lon="1.11184">
        <ele>307.3</ele>
        <time>2020-11-29T09:26:59Z</time>
      </trkpt>
      <trkpt lat="43.52925" lon="1.1118">
        <ele>307.3</ele>
        <time>2020-11-29T09:27:00Z</time>
      </trkpt>
      <trkpt lat="43.52922" lon="1.11172">
        <ele>307.3</ele>
        <time>2020-11-29T09:27:01Z</time>
      </trkpt>
      <trkpt lat="43.52919" lon="1.11167">
        <ele>307.3</ele>
        <time>2020-11-29T09:27:02Z</time>
      </trkpt>
      <trkpt lat="43.52916" lon="1.11162">
        <ele>307.3</ele>
        <time>2020-11-29T09:27:03Z</time>
      </trkpt>
      <trkpt lat="43.52913" lon="1.11156">
        <ele>307.3</ele>
        <time>2020-11-29T09:27:04Z</time>
      </trkpt>
      <trkpt lat="43.5291" lon="1.1115">
        <ele>307.4</ele>
        <time>2020-11-29T09:27:05Z</time>
      </trkpt>
      <trkpt lat="43.52908" lon="1.11142">
        <ele>307.4</ele>
        <time>2020-11-29T09:27:06Z</time>
      </trkpt>
      <trkpt lat="43.52905" lon="1.11136">
        <ele>307.4</ele>
        <time>2020-11-29T09:27:07Z</time>
      </trkpt>
      <trkpt lat="43.52902" lon="1.11131">
        <ele>307.4</ele>
        <time>2020-11-29T09:27:08Z</time>
      </trkpt>
      <trkpt lat="43.529" lon="1.11124">
        <ele>307.4</ele>
        <time>2020-11-29T09:27:09Z</time>
      </trkpt>
      <trkpt lat="43.52895" lon="1.11112">
        <ele>307.5</ele>
        <time>2020-11-29T09:27:10Z</time>
      </trkpt>
      <trkpt lat="43.52893" lon="1.11107">
        <ele>307.5</ele>
        <time>2020-11-29T09:27:11Z</time>
      </trkpt>
      <trkpt lat="43.52891" lon="1.11101">
        <ele>307.5</ele>
        <time>2020-11-29T09:27:12Z</time>
      </trkpt>
      <trkpt lat="43.52888" lon="1.11095">
        <ele>307.5</ele>
        <time>2020-11-29T09:27:13Z</time>
      </trkpt>
      <trkpt lat="43.52885" lon="1.1109">
        <ele>307.5</ele>
        <time>2020-11-29T09:27:14Z</time>
      </trkpt>
      <trkpt lat="43.52882" lon="1.11085">
        <ele>307.6</ele>
        <time>2020-11-29T09:27:15Z</time>
      </trkpt>
      <trkpt lat="43.52879" lon="1.11078">
        <ele>307.6</ele>
        <time>2020-11-29T09:27:16Z</time>
      </trkpt>
      <trkpt lat="43.52877" lon="1.11073">
        <ele>307.6</ele>
        <time>2020-11-29T09:27:17Z</time>
      </trkpt>
      <trkpt lat="43.52874" lon="1.11066">
        <ele>307.6</ele>
        <time>2020-11-29T09:27:18Z</time>
      </trkpt>
      <trkpt lat="43.52871" lon="1.11061">
        <ele>307.7</ele>
        <time>2020-11-29T09:27:19Z</time>
      </trkpt>
      <trkpt lat="43.52869" lon="1.11055">
        <ele>307.7</ele>
        <time>2020-11-29T09:27:20Z</time>
      </trkpt>
      <trkpt lat="43.52866" lon="1.1105">
        <ele>307.7</ele>
        <time>2020-11-29T09:27:21Z</time>
      </trkpt>
      <trkpt lat="43.52864" lon="1.11043">
        <ele>307.7</ele>
        <time>2020-11-29T09:27:22Z</time>
      </trkpt>
      <trkpt lat="43.52862" lon="1.11037">
        <ele>307.7</ele>
        <time>2020-11-29T09:27:23Z</time>
      </trkpt>
      <trkpt lat="43.5286" lon="1.11033">
        <ele>307.8</ele>
        <time>2020-11-29T09:27:24Z</time>
      </trkpt>
      <trkpt lat="43.52858" lon="1.11027">
        <ele>307.8</ele>
        <time>2020-11-29T09:27:25Z</time>
      </trkpt>
      <trkpt lat="43.52856" lon="1.11021">
        <ele>307.8</ele>
        <time>2020-11-29T09:27:26Z</time>
      </trkpt>
      <trkpt lat="43.52854" lon="1.11016">
        <ele>307.8</ele>
        <time>2020-11-29T09:27:27Z</time>
      </trkpt>
      <trkpt lat="43.52853" lon="1.11011">
        <ele>307.8</ele>
        <time>2020-11-29T09:27:28Z</time>
      </trkpt>
      <trkpt lat="43.52851" lon="1.11003">
        <ele>307.8</ele>
        <time>2020-11-29T09:27:29Z</time>
      </trkpt>
      <trkpt lat="43.52849" lon="1.10999">
        <ele>307.8</ele>
        <time>2020-11-29T09:27:30Z</time>
      </trkpt>
      <trkpt lat="43.52846" lon="1.10993">
        <ele>307.9</ele>
        <time>2020-11-29T09:27:31Z</time>
      </trkpt>
      <trkpt lat="43.52844" lon="1.10989">
        <ele>307.9</ele>
        <time>2020-11-29T09:27:32Z</time>
      </trkpt>
      <trkpt lat="43.52841" lon="1.10984">
        <ele>307.9</ele>
        <time>2020-11-29T09:27:33Z</time>
      </trkpt>
      <trkpt lat="43.52838" lon="1.10979">
        <ele>308</ele>
        <time>2020-11-29T09:27:34Z</time>
      </trkpt>
      <trkpt lat="43.52836" lon="1.10976">
        <ele>308</ele>
        <time>2020-11-29T09:27:35Z</time>
      </trkpt>
      <trkpt lat="43.52834" lon="1.10971">
        <ele>308</ele>
        <time>2020-11-29T09:27:36Z</time>
      </trkpt>
      <trkpt lat="43.52831" lon="1.10967">
        <ele>307.9</ele>
        <time>2020-11-29T09:27:37Z</time>
      </trkpt>
      <trkpt lat="43.52828" lon="1.10962">
        <ele>307.9</ele>
        <time>2020-11-29T09:27:38Z</time>
      </trkpt>
      <trkpt lat="43.52825" lon="1.10958">
        <ele>307.8</ele>
        <time>2020-11-29T09:27:39Z</time>
      </trkpt>
      <trkpt lat="43.52822" lon="1.10955">
        <ele>307.7</ele>
        <time>2020-11-29T09:27:40Z</time>
      </trkpt>
      <trkpt lat="43.52821" lon="1.10952">
        <ele>307.7</ele>
        <time>2020-11-29T09:27:41Z</time>
      </trkpt>
      <trkpt lat="43.52818" lon="1.10951">
        <ele>307.6</ele>
        <time>2020-11-29T09:27:42Z</time>
      </trkpt>
      <trkpt lat="43.52815" lon="1.10952">
        <ele>307.5</ele>
        <time>2020-11-29T09:27:43Z</time>
      </trkpt>
      <trkpt lat="43.52811" lon="1.10952">
        <ele>307.5</ele>
        <time>2020-11-29T09:27:44Z</time>
      </trkpt>
      <trkpt lat="43.52807" lon="1.10952">
        <ele>307.3</ele>
        <time>2020-11-29T09:27:45Z</time>
      </trkpt>
      <trkpt lat="43.52804" lon="1.10952">
        <ele>307.3</ele>
        <time>2020-11-29T09:27:46Z</time>
      </trkpt>
      <trkpt lat="43.528" lon="1.10953">
        <ele>307.2</ele>
        <time>2020-11-29T09:27:47Z</time>
      </trkpt>
      <trkpt lat="43.52796" lon="1.10954">
        <ele>307.1</ele>
        <time>2020-11-29T09:27:48Z</time>
      </trkpt>
      <trkpt lat="43.52792" lon="1.10956">
        <ele>306.8</ele>
        <time>2020-11-29T09:27:49Z</time>
      </trkpt>
      <trkpt lat="43.5279" lon="1.10958">
        <ele>306.8</ele>
        <time>2020-11-29T09:27:50Z</time>
      </trkpt>
      <trkpt lat="43.52786" lon="1.1096">
        <ele>306.8</ele>
        <time>2020-11-29T09:27:51Z</time>
      </trkpt>
      <trkpt lat="43.52782" lon="1.10962">
        <ele>306.8</ele>
        <time>2020-11-29T09:27:52Z</time>
      </trkpt>
      <trkpt lat="43.52778" lon="1.10964">
        <ele>306.8</ele>
        <time>2020-11-29T09:27:53Z</time>
      </trkpt>
      <trkpt lat="43.52773" lon="1.10966">
        <ele>306.8</ele>
        <time>2020-11-29T09:27:54Z</time>
      </trkpt>
      <trkpt lat="43.52768" lon="1.10968">
        <ele>306.8</ele>
        <time>2020-11-29T09:27:55Z</time>
      </trkpt>
      <trkpt lat="43.52762" lon="1.10969">
        <ele>306.7</ele>
        <time>2020-11-29T09:27:56Z</time>
      </trkpt>
      <trkpt lat="43.52757" lon="1.10971">
        <ele>306.7</ele>
        <time>2020-11-29T09:27:57Z</time>
      </trkpt>
      <trkpt lat="43.52752" lon="1.10972">
        <ele>306.7</ele>
        <time>2020-11-29T09:27:58Z</time>
      </trkpt>
      <trkpt lat="43.52746" lon="1.10973">
        <ele>306.7</ele>
        <time>2020-11-29T09:27:59Z</time>
      </trkpt>
      <trkpt lat="43.52741" lon="1.10976">
        <ele>306.7</ele>
        <time>2020-11-29T09:28:00Z</time>
      </trkpt>
      <trkpt lat="43.52735" lon="1.10978">
        <ele>306.7</ele>
        <time>2020-11-29T09:28:01Z</time>
      </trkpt>
      <trkpt lat="43.5273" lon="1.10979">
        <ele>306.8</ele>
        <time>2020-11-29T09:28:02Z</time>
      </trkpt>
      <trkpt lat="43.52725" lon="1.10981">
        <ele>306.8</ele>
        <time>2020-11-29T09:28:03Z</time>
      </trkpt>
      <trkpt lat="43.5272" lon="1.10982">
        <ele>306.9</ele>
        <time>2020-11-29T09:28:04Z</time>
      </trkpt>
      <trkpt lat="43.52715" lon="1.10983">
        <ele>306.9</ele>
        <time>2020-11-29T09:28:05Z</time>
      </trkpt>
      <trkpt lat="43.52711" lon="1.10985">
        <ele>306.9</ele>
        <time>2020-11-29T09:28:06Z</time>
      </trkpt>
      <trkpt lat="43.52706" lon="1.10987">
        <ele>307</ele>
        <time>2020-11-29T09:28:07Z</time>
      </trkpt>
      <trkpt lat="43.52701" lon="1.10989">
        <ele>307</ele>
        <time>2020-11-29T09:28:08Z</time>
      </trkpt>
      <trkpt lat="43.52696" lon="1.10991">
        <ele>307.1</ele>
        <time>2020-11-29T09:28:09Z</time>
      </trkpt>
      <trkpt lat="43.52692" lon="1.10993">
        <ele>307.1</ele>
        <time>2020-11-29T09:28:10Z</time>
      </trkpt>
      <trkpt lat="43.52687" lon="1.10994">
        <ele>307.2</ele>
        <time>2020-11-29T09:28:11Z</time>
      </trkpt>
      <trkpt lat="43.52682" lon="1.10996">
        <ele>307.3</ele>
        <time>2020-11-29T09:28:12Z</time>
      </trkpt>
      <trkpt lat="43.52678" lon="1.10998">
        <ele>307.3</ele>
        <time>2020-11-29T09:28:13Z</time>
      </trkpt>
      <trkpt lat="43.52675" lon="1.10999">
        <ele>307.3</ele>
        <time>2020-11-29T09:28:14Z</time>
      </trkpt>
      <trkpt lat="43.52671" lon="1.10999">
        <ele>307.4</ele>
        <time>2020-11-29T09:28:15Z</time>
      </trkpt>
      <trkpt lat="43.52667" lon="1.11">
        <ele>307.4</ele>
        <time>2020-11-29T09:28:16Z</time>
      </trkpt>
      <trkpt lat="43.52665" lon="1.11002">
        <ele>307.5</ele>
        <time>2020-11-29T09:28:17Z</time>
      </trkpt>
      <trkpt lat="43.52662" lon="1.11003">
        <ele>307.5</ele>
        <time>2020-11-29T09:28:18Z</time>
      </trkpt>
      <trkpt lat="43.52657" lon="1.11004">
        <ele>307.5</ele>
        <time>2020-11-29T09:28:19Z</time>
      </trkpt>
      <trkpt lat="43.52653" lon="1.11005">
        <ele>307.5</ele>
        <time>2020-11-29T09:28:20Z</time>
      </trkpt>
      <trkpt lat="43.52648" lon="1.11007">
        <ele>307.4</ele>
        <time>2020-11-29T09:28:21Z</time>
      </trkpt>
      <trkpt lat="43.52643" lon="1.11009">
        <ele>307.4</ele>
        <time>2020-11-29T09:28:22Z</time>
      </trkpt>
      <trkpt lat="43.52639" lon="1.1101">
        <ele>307.4</ele>
        <time>2020-11-29T09:28:23Z</time>
      </trkpt>
      <trkpt lat="43.52635" lon="1.11012">
        <ele>307.5</ele>
        <time>2020-11-29T09:28:24Z</time>
      </trkpt>
      <trkpt lat="43.52632" lon="1.11014">
        <ele>307.5</ele>
        <time>2020-11-29T09:28:25Z</time>
      </trkpt>
      <trkpt lat="43.5263" lon="1.11016">
        <ele>307.5</ele>
        <time>2020-11-29T09:28:26Z</time>
      </trkpt>
      <trkpt lat="43.52629" lon="1.11017">
        <ele>307.5</ele>
        <time>2020-11-29T09:28:27Z</time>
      </trkpt>
      <trkpt lat="43.52626" lon="1.1102">
        <ele>307.5</ele>
        <time>2020-11-29T09:28:28Z</time>
      </trkpt>
      <trkpt lat="43.52625" lon="1.11022">
        <ele>307.6</ele>
        <time>2020-11-29T09:28:29Z</time>
      </trkpt>
      <trkpt lat="43.52623" lon="1.11027">
        <ele>307.6</ele>
        <time>2020-11-29T09:28:30Z</time>
      </trkpt>
      <trkpt lat="43.52623" lon="1.11028">
        <ele>307.6</ele>
        <time>2020-11-29T09:28:31Z</time>
      </trkpt>
      <trkpt lat="43.52621" lon="1.11031">
        <ele>307.6</ele>
        <time>2020-11-29T09:28:32Z</time>
      </trkpt>
      <trkpt lat="43.52619" lon="1.11034">
        <ele>307.6</ele>
        <time>2020-11-29T09:28:33Z</time>
      </trkpt>
      <trkpt lat="43.52616" lon="1.11038">
        <ele>307.6</ele>
        <time>2020-11-29T09:28:35Z</time>
      </trkpt>
      <trkpt lat="43.52615" lon="1.11039">
        <ele>307.6</ele>
        <time>2020-11-29T09:28:36Z</time>
      </trkpt>
      <trkpt lat="43.52614" lon="1.11041">
        <ele>307.6</ele>
        <time>2020-11-29T09:28:37Z</time>
      </trkpt>
      <trkpt lat="43.5261" lon="1.11044">
        <ele>307.6</ele>
        <time>2020-11-29T09:28:38Z</time>
      </trkpt>
      <trkpt lat="43.52609" lon="1.11045">
        <ele>307.6</ele>
        <time>2020-11-29T09:28:39Z</time>
      </trkpt>
      <trkpt lat="43.52607" lon="1.11049">
        <ele>307.6</ele>
        <time>2020-11-29T09:28:40Z</time>
      </trkpt>
      <trkpt lat="43.52606" lon="1.11051">
        <ele>307.6</ele>
        <time>2020-11-29T09:28:41Z</time>
      </trkpt>
      <trkpt lat="43.52604" lon="1.11056">
        <ele>307.6</ele>
        <time>2020-11-29T09:28:42Z</time>
      </trkpt>
      <trkpt lat="43.52603" lon="1.11057">
        <ele>307.6</ele>
        <time>2020-11-29T09:28:43Z</time>
      </trkpt>
      <trkpt lat="43.526" lon="1.11059">
        <ele>307.6</ele>
        <time>2020-11-29T09:28:44Z</time>
      </trkpt>
      <trkpt lat="43.52598" lon="1.11062">
        <ele>307.5</ele>
        <time>2020-11-29T09:28:45Z</time>
      </trkpt>
      <trkpt lat="43.52596" lon="1.11066">
        <ele>307.5</ele>
        <time>2020-11-29T09:28:46Z</time>
      </trkpt>
      <trkpt lat="43.52594" lon="1.11071">
        <ele>307.5</ele>
        <time>2020-11-29T09:28:47Z</time>
      </trkpt>
      <trkpt lat="43.52592" lon="1.11076">
        <ele>307.4</ele>
        <time>2020-11-29T09:28:48Z</time>
      </trkpt>
      <trkpt lat="43.52589" lon="1.11082">
        <ele>307.4</ele>
        <time>2020-11-29T09:28:49Z</time>
      </trkpt>
      <trkpt lat="43.52587" lon="1.11087">
        <ele>307.3</ele>
        <time>2020-11-29T09:28:50Z</time>
      </trkpt>
      <trkpt lat="43.52584" lon="1.11091">
        <ele>307.2</ele>
        <time>2020-11-29T09:28:51Z</time>
      </trkpt>
      <trkpt lat="43.52582" lon="1.11095">
        <ele>307.2</ele>
        <time>2020-11-29T09:28:52Z</time>
      </trkpt>
      <trkpt lat="43.52579" lon="1.111">
        <ele>307.1</ele>
        <time>2020-11-29T09:28:53Z</time>
      </trkpt>
      <trkpt lat="43.52576" lon="1.11106">
        <ele>307.1</ele>
        <time>2020-11-29T09:28:54Z</time>
      </trkpt>
      <trkpt lat="43.52572" lon="1.11111">
        <ele>307</ele>
        <time>2020-11-29T09:28:55Z</time>
      </trkpt>
      <trkpt lat="43.52569" lon="1.11117">
        <ele>306.9</ele>
        <time>2020-11-29T09:28:56Z</time>
      </trkpt>
      <trkpt lat="43.52564" lon="1.11123">
        <ele>306.8</ele>
        <time>2020-11-29T09:28:57Z</time>
      </trkpt>
      <trkpt lat="43.52561" lon="1.11129">
        <ele>306.8</ele>
        <time>2020-11-29T09:28:58Z</time>
      </trkpt>
      <trkpt lat="43.52557" lon="1.11137">
        <ele>306.7</ele>
        <time>2020-11-29T09:28:59Z</time>
      </trkpt>
      <trkpt lat="43.52552" lon="1.11147">
        <ele>306.6</ele>
        <time>2020-11-29T09:29:00Z</time>
      </trkpt>
      <trkpt lat="43.52549" lon="1.11153">
        <ele>306.4</ele>
        <time>2020-11-29T09:29:01Z</time>
      </trkpt>
      <trkpt lat="43.52545" lon="1.1116">
        <ele>306.3</ele>
        <time>2020-11-29T09:29:02Z</time>
      </trkpt>
      <trkpt lat="43.52542" lon="1.11165">
        <ele>306.2</ele>
        <time>2020-11-29T09:29:03Z</time>
      </trkpt>
      <trkpt lat="43.52539" lon="1.11168">
        <ele>306.1</ele>
        <time>2020-11-29T09:29:04Z</time>
      </trkpt>
      <trkpt lat="43.52535" lon="1.11168">
        <ele>306</ele>
        <time>2020-11-29T09:29:05Z</time>
      </trkpt>
      <trkpt lat="43.5253" lon="1.11169">
        <ele>305.8</ele>
        <time>2020-11-29T09:29:06Z</time>
      </trkpt>
      <trkpt lat="43.52523" lon="1.11168">
        <ele>305.6</ele>
        <time>2020-11-29T09:29:07Z</time>
      </trkpt>
      <trkpt lat="43.52517" lon="1.1117">
        <ele>305.5</ele>
        <time>2020-11-29T09:29:08Z</time>
      </trkpt>
      <trkpt lat="43.5251" lon="1.11171">
        <ele>305.3</ele>
        <time>2020-11-29T09:29:09Z</time>
      </trkpt>
      <trkpt lat="43.52503" lon="1.11173">
        <ele>304.8</ele>
        <time>2020-11-29T09:29:10Z</time>
      </trkpt>
      <trkpt lat="43.52495" lon="1.11175">
        <ele>304.1</ele>
        <time>2020-11-29T09:29:11Z</time>
      </trkpt>
      <trkpt lat="43.52486" lon="1.11179">
        <ele>303.1</ele>
        <time>2020-11-29T09:29:12Z</time>
      </trkpt>
      <trkpt lat="43.52478" lon="1.11182">
        <ele>302.3</ele>
        <time>2020-11-29T09:29:13Z</time>
      </trkpt>
      <trkpt lat="43.52471" lon="1.11182">
        <ele>301.1</ele>
        <time>2020-11-29T09:29:14Z</time>
      </trkpt>
      <trkpt lat="43.52464" lon="1.11184">
        <ele>299.9</ele>
        <time>2020-11-29T09:29:15Z</time>
      </trkpt>
      <trkpt lat="43.52458" lon="1.11184">
        <ele>299.1</ele>
        <time>2020-11-29T09:29:16Z</time>
      </trkpt>
      <trkpt lat="43.52454" lon="1.11185">
        <ele>298.6</ele>
        <time>2020-11-29T09:29:17Z</time>
      </trkpt>
      <trkpt lat="43.5245" lon="1.11187">
        <ele>297.8</ele>
        <time>2020-11-29T09:29:18Z</time>
      </trkpt>
      <trkpt lat="43.52447" lon="1.11192">
        <ele>297.6</ele>
        <time>2020-11-29T09:29:19Z</time>
      </trkpt>
      <trkpt lat="43.52446" lon="1.11195">
        <ele>297.1</ele>
        <time>2020-11-29T09:29:20Z</time>
      </trkpt>
      <trkpt lat="43.52445" lon="1.11203">
        <ele>296.8</ele>
        <time>2020-11-29T09:29:21Z</time>
      </trkpt>
      <trkpt lat="43.52444" lon="1.11211">
        <ele>296.1</ele>
        <time>2020-11-29T09:29:22Z</time>
      </trkpt>
      <trkpt lat="43.52442" lon="1.11218">
        <ele>295.9</ele>
        <time>2020-11-29T09:29:23Z</time>
      </trkpt>
      <trkpt lat="43.52441" lon="1.11228">
        <ele>295.3</ele>
        <time>2020-11-29T09:29:24Z</time>
      </trkpt>
      <trkpt lat="43.52439" lon="1.11235">
        <ele>295.1</ele>
        <time>2020-11-29T09:29:25Z</time>
      </trkpt>
      <trkpt lat="43.52437" lon="1.11241">
        <ele>294.6</ele>
        <time>2020-11-29T09:29:26Z</time>
      </trkpt>
      <trkpt lat="43.52438" lon="1.11245">
        <ele>294.8</ele>
        <time>2020-11-29T09:29:27Z</time>
      </trkpt>
      <trkpt lat="43.5244" lon="1.1125">
        <ele>294.7</ele>
        <time>2020-11-29T09:29:28Z</time>
      </trkpt>
      <trkpt lat="43.5244" lon="1.11252">
        <ele>294.6</ele>
        <time>2020-11-29T09:29:29Z</time>
      </trkpt>
      <trkpt lat="43.52443" lon="1.11255">
        <ele>294.9</ele>
        <time>2020-11-29T09:29:30Z</time>
      </trkpt>
      <trkpt lat="43.52445" lon="1.11257">
        <ele>295.2</ele>
        <time>2020-11-29T09:29:31Z</time>
      </trkpt>
      <trkpt lat="43.52448" lon="1.11261">
        <ele>295.6</ele>
        <time>2020-11-29T09:29:32Z</time>
      </trkpt>
      <trkpt lat="43.52449" lon="1.11266">
        <ele>295.5</ele>
        <time>2020-11-29T09:29:33Z</time>
      </trkpt>
      <trkpt lat="43.52449" lon="1.11269">
        <ele>295.4</ele>
        <time>2020-11-29T09:29:34Z</time>
      </trkpt>
      <trkpt lat="43.52449" lon="1.11275">
        <ele>295.4</ele>
        <time>2020-11-29T09:29:35Z</time>
      </trkpt>
      <trkpt lat="43.5245" lon="1.11277">
        <ele>295.3</ele>
        <time>2020-11-29T09:29:36Z</time>
      </trkpt>
      <trkpt lat="43.5245" lon="1.11279">
        <ele>295.2</ele>
        <time>2020-11-29T09:29:37Z</time>
      </trkpt>
      <trkpt lat="43.5245" lon="1.11281">
        <ele>295.5</ele>
        <time>2020-11-29T09:29:38Z</time>
      </trkpt>
      <trkpt lat="43.52451" lon="1.11284">
        <ele>295.4</ele>
        <time>2020-11-29T09:29:39Z</time>
      </trkpt>
      <trkpt lat="43.52451" lon="1.11286">
        <ele>295.3</ele>
        <time>2020-11-29T09:29:40Z</time>
      </trkpt>
      <trkpt lat="43.5245" lon="1.11291">
        <ele>295.2</ele>
        <time>2020-11-29T09:29:41Z</time>
      </trkpt>
      <trkpt lat="43.5245" lon="1.11293">
        <ele>295.1</ele>
        <time>2020-11-29T09:29:42Z</time>
      </trkpt>
      <trkpt lat="43.5245" lon="1.11295">
        <ele>294.7</ele>
        <time>2020-11-29T09:29:43Z</time>
      </trkpt>
      <trkpt lat="43.52449" lon="1.11297">
        <ele>294.5</ele>
        <time>2020-11-29T09:29:44Z</time>
      </trkpt>
      <trkpt lat="43.5245" lon="1.11301">
        <ele>294.4</ele>
        <time>2020-11-29T09:29:45Z</time>
      </trkpt>
      <trkpt lat="43.5245" lon="1.11305">
        <ele>294.3</ele>
        <time>2020-11-29T09:29:46Z</time>
      </trkpt>
      <trkpt lat="43.5245" lon="1.11305">
        <ele>294.2</ele>
        <time>2020-11-29T09:29:47Z</time>
      </trkpt>
      <trkpt lat="43.5245" lon="1.11305">
        <ele>294.1</ele>
        <time>2020-11-29T09:29:48Z</time>
      </trkpt>
      <trkpt lat="43.5245" lon="1.11305">
        <ele>294.3</ele>
        <time>2020-11-29T09:29:49Z</time>
      </trkpt>
      <trkpt lat="43.52451" lon="1.11305">
        <ele>294.2</ele>
        <time>2020-11-29T09:29:50Z</time>
      </trkpt>
      <trkpt lat="43.52451" lon="1.11305">
        <ele>294</ele>
        <time>2020-11-29T09:29:51Z</time>
      </trkpt>
      <trkpt lat="43.52451" lon="1.11305">
        <ele>294.1</ele>
        <time>2020-11-29T09:29:52Z</time>
      </trkpt>
      <trkpt lat="43.52451" lon="1.11305">
        <ele>293.9</ele>
        <time>2020-11-29T09:29:53Z</time>
      </trkpt>
      <trkpt lat="43.52451" lon="1.11305">
        <ele>293.9</ele>
        <time>2020-11-29T09:29:54Z</time>
      </trkpt>
      <trkpt lat="43.5245" lon="1.11305">
        <ele>293.8</ele>
        <time>2020-11-29T09:29:55Z</time>
      </trkpt>
      <trkpt lat="43.5245" lon="1.11305">
        <ele>293.7</ele>
        <time>2020-11-29T09:29:56Z</time>
      </trkpt>
      <trkpt lat="43.5245" lon="1.11305">
        <ele>293.6</ele>
        <time>2020-11-29T09:29:57Z</time>
      </trkpt>
      <trkpt lat="43.5245" lon="1.11305">
        <ele>293.5</ele>
        <time>2020-11-29T09:29:58Z</time>
      </trkpt>
      <trkpt lat="43.5245" lon="1.11304">
        <ele>293.1</ele>
        <time>2020-11-29T09:29:59Z</time>
      </trkpt>
      <trkpt lat="43.52449" lon="1.11304">
        <ele>293.1</ele>
        <time>2020-11-29T09:30:00Z</time>
      </trkpt>
      <trkpt lat="43.52448" lon="1.11305">
        <ele>293</ele>
        <time>2020-11-29T09:30:01Z</time>
      </trkpt>
      <trkpt lat="43.52447" lon="1.11305">
        <ele>292.8</ele>
        <time>2020-11-29T09:30:02Z</time>
      </trkpt>
      <trkpt lat="43.52448" lon="1.11306">
        <ele>292.7</ele>
        <time>2020-11-29T09:30:03Z</time>
      </trkpt>
      <trkpt lat="43.52448" lon="1.11306">
        <ele>292.6</ele>
        <time>2020-11-29T09:30:04Z</time>
      </trkpt>
      <trkpt lat="43.52448" lon="1.11306">
        <ele>292.5</ele>
        <time>2020-11-29T09:30:05Z</time>
      </trkpt>
      <trkpt lat="43.52448" lon="1.11306">
        <ele>292.4</ele>
        <time>2020-11-29T09:30:06Z</time>
      </trkpt>
      <trkpt lat="43.52448" lon="1.11306">
        <ele>292.4</ele>
        <time>2020-11-29T09:30:07Z</time>
      </trkpt>
      <trkpt lat="43.52448" lon="1.11306">
        <ele>292.3</ele>
        <time>2020-11-29T09:30:08Z</time>
      </trkpt>
      <trkpt lat="43.52448" lon="1.11307">
        <ele>292.2</ele>
        <time>2020-11-29T09:30:09Z</time>
      </trkpt>
      <trkpt lat="43.52449" lon="1.11307">
        <ele>292.1</ele>
        <time>2020-11-29T09:30:10Z</time>
      </trkpt>
      <trkpt lat="43.52449" lon="1.11307">
        <ele>292</ele>
        <time>2020-11-29T09:30:11Z</time>
      </trkpt>
      <trkpt lat="43.52449" lon="1.11308">
        <ele>291.9</ele>
        <time>2020-11-29T09:30:12Z</time>
      </trkpt>
      <trkpt lat="43.52449" lon="1.11308">
        <ele>291.8</ele>
        <time>2020-11-29T09:30:13Z</time>
      </trkpt>
      <trkpt lat="43.52449" lon="1.11308">
        <ele>291.7</ele>
        <time>2020-11-29T09:30:14Z</time>
      </trkpt>
      <trkpt lat="43.52449" lon="1.11308">
        <ele>291.7</ele>
        <time>2020-11-29T09:30:15Z</time>
      </trkpt>
      <trkpt lat="43.52449" lon="1.11308">
        <ele>291.6</ele>
        <time>2020-11-29T09:30:16Z</time>
      </trkpt>
      <trkpt lat="43.52449" lon="1.11308">
        <ele>291.5</ele>
        <time>2020-11-29T09:30:17Z</time>
      </trkpt>
      <trkpt lat="43.52449" lon="1.11309">
        <ele>291.4</ele>
        <time>2020-11-29T09:30:18Z</time>
      </trkpt>
      <trkpt lat="43.52449" lon="1.1131">
        <ele>291.2</ele>
        <time>2020-11-29T09:30:19Z</time>
      </trkpt>
      <trkpt lat="43.52448" lon="1.11311">
        <ele>291.1</ele>
        <time>2020-11-29T09:30:20Z</time>
      </trkpt>
      <trkpt lat="43.52448" lon="1.11312">
        <ele>291</ele>
        <time>2020-11-29T09:30:21Z</time>
      </trkpt>
      <trkpt lat="43.52446" lon="1.11313">
        <ele>290.6</ele>
        <time>2020-11-29T09:30:22Z</time>
      </trkpt>
      <trkpt lat="43.52447" lon="1.11314">
        <ele>290.5</ele>
        <time>2020-11-29T09:30:23Z</time>
      </trkpt>
      <trkpt lat="43.52446" lon="1.11315">
        <ele>290.3</ele>
        <time>2020-11-29T09:30:24Z</time>
      </trkpt>
      <trkpt lat="43.52445" lon="1.11317">
        <ele>290.2</ele>
        <time>2020-11-29T09:30:25Z</time>
      </trkpt>
      <trkpt lat="43.52445" lon="1.11317">
        <ele>290.2</ele>
        <time>2020-11-29T09:30:26Z</time>
      </trkpt>
      <trkpt lat="43.52445" lon="1.11317">
        <ele>290.1</ele>
        <time>2020-11-29T09:30:27Z</time>
      </trkpt>
      <trkpt lat="43.52445" lon="1.11317">
        <ele>290</ele>
        <time>2020-11-29T09:30:28Z</time>
      </trkpt>
      <trkpt lat="43.52445" lon="1.11318">
        <ele>289.9</ele>
        <time>2020-11-29T09:30:29Z</time>
      </trkpt>
      <trkpt lat="43.52445" lon="1.11318">
        <ele>289.8</ele>
        <time>2020-11-29T09:30:30Z</time>
      </trkpt>
      <trkpt lat="43.52445" lon="1.11318">
        <ele>289.7</ele>
        <time>2020-11-29T09:30:31Z</time>
      </trkpt>
      <trkpt lat="43.52445" lon="1.11318">
        <ele>289.5</ele>
        <time>2020-11-29T09:30:32Z</time>
      </trkpt>
      <trkpt lat="43.52445" lon="1.11319">
        <ele>289.4</ele>
        <time>2020-11-29T09:30:33Z</time>
      </trkpt>
      <trkpt lat="43.52445" lon="1.1132">
        <ele>289.3</ele>
        <time>2020-11-29T09:30:34Z</time>
      </trkpt>
      <trkpt lat="43.52444" lon="1.1132">
        <ele>289.2</ele>
        <time>2020-11-29T09:30:35Z</time>
      </trkpt>
      <trkpt lat="43.52445" lon="1.11321">
        <ele>289.1</ele>
        <time>2020-11-29T09:30:36Z</time>
      </trkpt>
      <trkpt lat="43.52445" lon="1.11321">
        <ele>289.1</ele>
        <time>2020-11-29T09:30:37Z</time>
      </trkpt>
      <trkpt lat="43.52445" lon="1.11322">
        <ele>289</ele>
        <time>2020-11-29T09:30:38Z</time>
      </trkpt>
      <trkpt lat="43.52445" lon="1.11322">
        <ele>288.9</ele>
        <time>2020-11-29T09:30:39Z</time>
      </trkpt>
      <trkpt lat="43.52445" lon="1.11322">
        <ele>288.8</ele>
        <time>2020-11-29T09:30:40Z</time>
      </trkpt>
      <trkpt lat="43.52445" lon="1.11323">
        <ele>288.6</ele>
        <time>2020-11-29T09:30:41Z</time>
      </trkpt>
      <trkpt lat="43.52445" lon="1.11323">
        <ele>288.5</ele>
        <time>2020-11-29T09:30:42Z</time>
      </trkpt>
      <trkpt lat="43.52445" lon="1.11323">
        <ele>288.4</ele>
        <time>2020-11-29T09:30:43Z</time>
      </trkpt>
      <trkpt lat="43.52445" lon="1.11323">
        <ele>288.3</ele>
        <time>2020-11-29T09:30:44Z</time>
      </trkpt>
      <trkpt lat="43.52445" lon="1.11323">
        <ele>288.2</ele>
        <time>2020-11-29T09:30:45Z</time>
      </trkpt>
      <trkpt lat="43.52445" lon="1.11324">
        <ele>288.1</ele>
        <time>2020-11-29T09:30:46Z</time>
      </trkpt>
      <trkpt lat="43.52445" lon="1.11324">
        <ele>288</ele>
        <time>2020-11-29T09:30:47Z</time>
      </trkpt>
      <trkpt lat="43.52445" lon="1.11324">
        <ele>287.9</ele>
        <time>2020-11-29T09:30:48Z</time>
      </trkpt>
      <trkpt lat="43.52445" lon="1.11326">
        <ele>287.9</ele>
        <time>2020-11-29T09:30:49Z</time>
      </trkpt>
      <trkpt lat="43.52445" lon="1.11327">
        <ele>287.6</ele>
        <time>2020-11-29T09:30:50Z</time>
      </trkpt>
      <trkpt lat="43.52444" lon="1.11328">
        <ele>287.5</ele>
        <time>2020-11-29T09:30:51Z</time>
      </trkpt>
      <trkpt lat="43.52444" lon="1.1133">
        <ele>287.4</ele>
        <time>2020-11-29T09:30:52Z</time>
      </trkpt>
      <trkpt lat="43.52444" lon="1.1133">
        <ele>287.4</ele>
        <time>2020-11-29T09:30:53Z</time>
      </trkpt>
      <trkpt lat="43.52444" lon="1.1133">
        <ele>287.4</ele>
        <time>2020-11-29T09:30:54Z</time>
      </trkpt>
      <trkpt lat="43.52444" lon="1.1133">
        <ele>287.4</ele>
        <time>2020-11-29T09:30:55Z</time>
      </trkpt>
      <trkpt lat="43.52443" lon="1.11331">
        <ele>287.4</ele>
        <time>2020-11-29T09:30:56Z</time>
      </trkpt>
      <trkpt lat="43.52443" lon="1.11331">
        <ele>287.4</ele>
        <time>2020-11-29T09:30:57Z</time>
      </trkpt>
      <trkpt lat="43.52443" lon="1.11331">
        <ele>287.4</ele>
        <time>2020-11-29T09:30:58Z</time>
      </trkpt>
      <trkpt lat="43.52443" lon="1.11331">
        <ele>287.4</ele>
        <time>2020-11-29T09:30:59Z</time>
      </trkpt>
      <trkpt lat="43.52443" lon="1.11331">
        <ele>287.4</ele>
        <time>2020-11-29T09:31:00Z</time>
      </trkpt>
      <trkpt lat="43.52443" lon="1.11332">
        <ele>287.4</ele>
        <time>2020-11-29T09:31:01Z</time>
      </trkpt>
      <trkpt lat="43.52443" lon="1.11332">
        <ele>287.4</ele>
        <time>2020-11-29T09:31:02Z</time>
      </trkpt>
      <trkpt lat="43.52443" lon="1.11332">
        <ele>287.4</ele>
        <time>2020-11-29T09:31:03Z</time>
      </trkpt>
      <trkpt lat="43.52443" lon="1.11332">
        <ele>287.4</ele>
        <time>2020-11-29T09:31:04Z</time>
      </trkpt>
      <trkpt lat="43.52443" lon="1.11333">
        <ele>287.4</ele>
        <time>2020-11-29T09:31:05Z</time>
      </trkpt>
      <trkpt lat="43.52443" lon="1.11333">
        <ele>287.4</ele>
        <time>2020-11-29T09:31:06Z</time>
      </trkpt>
      <trkpt lat="43.52442" lon="1.11333">
        <ele>287.4</ele>
        <time>2020-11-29T09:31:07Z</time>
      </trkpt>
      <trkpt lat="43.52442" lon="1.11333">
        <ele>287.4</ele>
        <time>2020-11-29T09:31:08Z</time>
      </trkpt>
      <trkpt lat="43.52442" lon="1.11333">
        <ele>287.4</ele>
        <time>2020-11-29T09:31:09Z</time>
      </trkpt>
      <trkpt lat="43.52442" lon="1.11334">
        <ele>287.4</ele>
        <time>2020-11-29T09:31:10Z</time>
      </trkpt>
      <trkpt lat="43.52442" lon="1.11334">
        <ele>287.4</ele>
        <time>2020-11-29T09:31:11Z</time>
      </trkpt>
      <trkpt lat="43.52442" lon="1.11334">
        <ele>287.4</ele>
        <time>2020-11-29T09:31:12Z</time>
      </trkpt>
      <trkpt lat="43.52442" lon="1.11334">
        <ele>287.4</ele>
        <time>2020-11-29T09:31:13Z</time>
      </trkpt>
      <trkpt lat="43.52441" lon="1.11335">
        <ele>287.4</ele>
        <time>2020-11-29T09:31:14Z</time>
      </trkpt>
      <trkpt lat="43.52441" lon="1.11336">
        <ele>287.4</ele>
        <time>2020-11-29T09:31:15Z</time>
      </trkpt>
      <trkpt lat="43.52443" lon="1.11339">
        <ele>287.3</ele>
        <time>2020-11-29T09:31:16Z</time>
      </trkpt>
      <trkpt lat="43.52443" lon="1.11344">
        <ele>287.3</ele>
        <time>2020-11-29T09:31:17Z</time>
      </trkpt>
      <trkpt lat="43.52443" lon="1.11345">
        <ele>287.3</ele>
        <time>2020-11-29T09:31:18Z</time>
      </trkpt>
      <trkpt lat="43.52443" lon="1.11351">
        <ele>287.3</ele>
        <time>2020-11-29T09:31:19Z</time>
      </trkpt>
      <trkpt lat="43.52443" lon="1.11353">
        <ele>287.3</ele>
        <time>2020-11-29T09:31:20Z</time>
      </trkpt>
      <trkpt lat="43.52443" lon="1.11358">
        <ele>287.3</ele>
        <time>2020-11-29T09:31:21Z</time>
      </trkpt>
      <trkpt lat="43.52442" lon="1.11363">
        <ele>287.3</ele>
        <time>2020-11-29T09:31:22Z</time>
      </trkpt>
      <trkpt lat="43.52442" lon="1.11367">
        <ele>287.3</ele>
        <time>2020-11-29T09:31:23Z</time>
      </trkpt>
      <trkpt lat="43.52442" lon="1.11369">
        <ele>287.3</ele>
        <time>2020-11-29T09:31:24Z</time>
      </trkpt>
      <trkpt lat="43.52443" lon="1.11374">
        <ele>287.3</ele>
        <time>2020-11-29T09:31:25Z</time>
      </trkpt>
      <trkpt lat="43.52443" lon="1.11378">
        <ele>287.2</ele>
        <time>2020-11-29T09:31:26Z</time>
      </trkpt>
      <trkpt lat="43.52445" lon="1.11383">
        <ele>287.2</ele>
        <time>2020-11-29T09:31:27Z</time>
      </trkpt>
      <trkpt lat="43.52445" lon="1.11385">
        <ele>287.1</ele>
        <time>2020-11-29T09:31:28Z</time>
      </trkpt>
      <trkpt lat="43.52445" lon="1.11391">
        <ele>287</ele>
        <time>2020-11-29T09:31:29Z</time>
      </trkpt>
      <trkpt lat="43.52445" lon="1.11392">
        <ele>287</ele>
        <time>2020-11-29T09:31:30Z</time>
      </trkpt>
      <trkpt lat="43.52445" lon="1.11397">
        <ele>286.8</ele>
        <time>2020-11-29T09:31:31Z</time>
      </trkpt>
      <trkpt lat="43.52444" lon="1.11404">
        <ele>286.5</ele>
        <time>2020-11-29T09:31:32Z</time>
      </trkpt>
      <trkpt lat="43.52444" lon="1.11409">
        <ele>286.2</ele>
        <time>2020-11-29T09:31:33Z</time>
      </trkpt>
      <trkpt lat="43.52444" lon="1.11413">
        <ele>286</ele>
        <time>2020-11-29T09:31:34Z</time>
      </trkpt>
      <trkpt lat="43.52445" lon="1.11414">
        <ele>285.9</ele>
        <time>2020-11-29T09:31:35Z</time>
      </trkpt>
      <trkpt lat="43.52445" lon="1.11418">
        <ele>285.6</ele>
        <time>2020-11-29T09:31:36Z</time>
      </trkpt>
      <trkpt lat="43.52446" lon="1.1142">
        <ele>285.5</ele>
        <time>2020-11-29T09:31:37Z</time>
      </trkpt>
      <trkpt lat="43.52446" lon="1.11425">
        <ele>284.9</ele>
        <time>2020-11-29T09:31:38Z</time>
      </trkpt>
      <trkpt lat="43.52446" lon="1.1143">
        <ele>284.4</ele>
        <time>2020-11-29T09:31:39Z</time>
      </trkpt>
      <trkpt lat="43.52447" lon="1.11436">
        <ele>283.7</ele>
        <time>2020-11-29T09:31:40Z</time>
      </trkpt>
      <trkpt lat="43.52448" lon="1.11442">
        <ele>283</ele>
        <time>2020-11-29T09:31:41Z</time>
      </trkpt>
      <trkpt lat="43.5245" lon="1.11449">
        <ele>281.9</ele>
        <time>2020-11-29T09:31:42Z</time>
      </trkpt>
      <trkpt lat="43.52451" lon="1.11455">
        <ele>281</ele>
        <time>2020-11-29T09:31:43Z</time>
      </trkpt>
      <trkpt lat="43.52453" lon="1.11463">
        <ele>279.9</ele>
        <time>2020-11-29T09:31:44Z</time>
      </trkpt>
      <trkpt lat="43.52455" lon="1.11473">
        <ele>278.5</ele>
        <time>2020-11-29T09:31:45Z</time>
      </trkpt>
      <trkpt lat="43.52457" lon="1.11482">
        <ele>277.1</ele>
        <time>2020-11-29T09:31:46Z</time>
      </trkpt>
      <trkpt lat="43.5246" lon="1.11498">
        <ele>275.1</ele>
        <time>2020-11-29T09:31:47Z</time>
      </trkpt>
      <trkpt lat="43.52463" lon="1.11508">
        <ele>274</ele>
        <time>2020-11-29T09:31:48Z</time>
      </trkpt>
      <trkpt lat="43.52463" lon="1.11517">
        <ele>273.1</ele>
        <time>2020-11-29T09:31:49Z</time>
      </trkpt>
      <trkpt lat="43.52462" lon="1.11526">
        <ele>272.2</ele>
        <time>2020-11-29T09:31:50Z</time>
      </trkpt>
      <trkpt lat="43.5246" lon="1.11534">
        <ele>271.4</ele>
        <time>2020-11-29T09:31:51Z</time>
      </trkpt>
      <trkpt lat="43.52458" lon="1.11539">
        <ele>270.8</ele>
        <time>2020-11-29T09:31:52Z</time>
      </trkpt>
      <trkpt lat="43.52457" lon="1.11548">
        <ele>269.9</ele>
        <time>2020-11-29T09:31:53Z</time>
      </trkpt>
      <trkpt lat="43.52456" lon="1.11556">
        <ele>269.2</ele>
        <time>2020-11-29T09:31:54Z</time>
      </trkpt>
      <trkpt lat="43.52453" lon="1.11563">
        <ele>268.5</ele>
        <time>2020-11-29T09:31:55Z</time>
      </trkpt>
      <trkpt lat="43.52451" lon="1.1157">
        <ele>267.9</ele>
        <time>2020-11-29T09:31:56Z</time>
      </trkpt>
      <trkpt lat="43.52448" lon="1.11581">
        <ele>267</ele>
        <time>2020-11-29T09:31:57Z</time>
      </trkpt>
      <trkpt lat="43.52446" lon="1.11592">
        <ele>266.3</ele>
        <time>2020-11-29T09:31:58Z</time>
      </trkpt>
      <trkpt lat="43.52446" lon="1.11598">
        <ele>265.9</ele>
        <time>2020-11-29T09:31:59Z</time>
      </trkpt>
      <trkpt lat="43.52446" lon="1.11608">
        <ele>265.4</ele>
        <time>2020-11-29T09:32:00Z</time>
      </trkpt>
      <trkpt lat="43.52448" lon="1.11614">
        <ele>265.1</ele>
        <time>2020-11-29T09:32:01Z</time>
      </trkpt>
      <trkpt lat="43.52449" lon="1.1162">
        <ele>264.8</ele>
        <time>2020-11-29T09:32:02Z</time>
      </trkpt>
      <trkpt lat="43.52448" lon="1.11626">
        <ele>264.6</ele>
        <time>2020-11-29T09:32:03Z</time>
      </trkpt>
      <trkpt lat="43.52445" lon="1.11635">
        <ele>264.1</ele>
        <time>2020-11-29T09:32:04Z</time>
      </trkpt>
      <trkpt lat="43.52443" lon="1.11642">
        <ele>263.8</ele>
        <time>2020-11-29T09:32:05Z</time>
      </trkpt>
      <trkpt lat="43.52441" lon="1.11646">
        <ele>263.5</ele>
        <time>2020-11-29T09:32:06Z</time>
      </trkpt>
      <trkpt lat="43.52436" lon="1.11651">
        <ele>263</ele>
        <time>2020-11-29T09:32:07Z</time>
      </trkpt>
      <trkpt lat="43.52431" lon="1.11655">
        <ele>262.5</ele>
        <time>2020-11-29T09:32:08Z</time>
      </trkpt>
      <trkpt lat="43.52426" lon="1.11658">
        <ele>262.2</ele>
        <time>2020-11-29T09:32:09Z</time>
      </trkpt>
      <trkpt lat="43.52421" lon="1.11662">
        <ele>261.9</ele>
        <time>2020-11-29T09:32:10Z</time>
      </trkpt>
      <trkpt lat="43.52417" lon="1.11664">
        <ele>261.7</ele>
        <time>2020-11-29T09:32:11Z</time>
      </trkpt>
      <trkpt lat="43.52413" lon="1.11664">
        <ele>261.6</ele>
        <time>2020-11-29T09:32:12Z</time>
      </trkpt>
      <trkpt lat="43.5241" lon="1.11665">
        <ele>261.4</ele>
        <time>2020-11-29T09:32:13Z</time>
      </trkpt>
      <trkpt lat="43.52406" lon="1.11667">
        <ele>261.3</ele>
        <time>2020-11-29T09:32:14Z</time>
      </trkpt>
      <trkpt lat="43.52402" lon="1.11671">
        <ele>261</ele>
        <time>2020-11-29T09:32:15Z</time>
      </trkpt>
      <trkpt lat="43.52397" lon="1.11676">
        <ele>260.7</ele>
        <time>2020-11-29T09:32:16Z</time>
      </trkpt>
      <trkpt lat="43.52392" lon="1.11684">
        <ele>260.2</ele>
        <time>2020-11-29T09:32:17Z</time>
      </trkpt>
      <trkpt lat="43.52389" lon="1.1169">
        <ele>259.9</ele>
        <time>2020-11-29T09:32:18Z</time>
      </trkpt>
      <trkpt lat="43.52385" lon="1.11697">
        <ele>259.5</ele>
        <time>2020-11-29T09:32:19Z</time>
      </trkpt>
      <trkpt lat="43.52381" lon="1.11703">
        <ele>259.2</ele>
        <time>2020-11-29T09:32:20Z</time>
      </trkpt>
      <trkpt lat="43.52378" lon="1.11706">
        <ele>259</ele>
        <time>2020-11-29T09:32:21Z</time>
      </trkpt>
      <trkpt lat="43.52375" lon="1.11717">
        <ele>258.5</ele>
        <time>2020-11-29T09:32:22Z</time>
      </trkpt>
      <trkpt lat="43.52372" lon="1.11728">
        <ele>258.1</ele>
        <time>2020-11-29T09:32:23Z</time>
      </trkpt>
      <trkpt lat="43.52369" lon="1.11734">
        <ele>257.8</ele>
        <time>2020-11-29T09:32:24Z</time>
      </trkpt>
      <trkpt lat="43.52367" lon="1.11736">
        <ele>257.7</ele>
        <time>2020-11-29T09:32:25Z</time>
      </trkpt>
      <trkpt lat="43.52362" lon="1.11737">
        <ele>257.5</ele>
        <time>2020-11-29T09:32:26Z</time>
      </trkpt>
      <trkpt lat="43.52361" lon="1.11738">
        <ele>257.4</ele>
        <time>2020-11-29T09:32:27Z</time>
      </trkpt>
      <trkpt lat="43.52359" lon="1.11739">
        <ele>257.3</ele>
        <time>2020-11-29T09:32:28Z</time>
      </trkpt>
      <trkpt lat="43.52359" lon="1.11739">
        <ele>257.3</ele>
        <time>2020-11-29T09:32:29Z</time>
      </trkpt>
      <trkpt lat="43.52358" lon="1.1174">
        <ele>257.2</ele>
        <time>2020-11-29T09:32:30Z</time>
      </trkpt>
      <trkpt lat="43.52358" lon="1.1174">
        <ele>257.2</ele>
        <time>2020-11-29T09:32:31Z</time>
      </trkpt>
      <trkpt lat="43.52358" lon="1.11745">
        <ele>257</ele>
        <time>2020-11-29T09:32:32Z</time>
      </trkpt>
      <trkpt lat="43.52359" lon="1.11745">
        <ele>257</ele>
        <time>2020-11-29T09:32:33Z</time>
      </trkpt>
      <trkpt lat="43.52358" lon="1.11747">
        <ele>257</ele>
        <time>2020-11-29T09:32:34Z</time>
      </trkpt>
      <trkpt lat="43.52358" lon="1.11748">
        <ele>257</ele>
        <time>2020-11-29T09:32:35Z</time>
      </trkpt>
      <trkpt lat="43.52357" lon="1.11752">
        <ele>257</ele>
        <time>2020-11-29T09:32:36Z</time>
      </trkpt>
      <trkpt lat="43.52356" lon="1.11753">
        <ele>257</ele>
        <time>2020-11-29T09:32:37Z</time>
      </trkpt>
      <trkpt lat="43.52355" lon="1.11755">
        <ele>257</ele>
        <time>2020-11-29T09:32:38Z</time>
      </trkpt>
      <trkpt lat="43.52356" lon="1.11757">
        <ele>257.1</ele>
        <time>2020-11-29T09:32:39Z</time>
      </trkpt>
      <trkpt lat="43.52356" lon="1.11759">
        <ele>257.1</ele>
        <time>2020-11-29T09:32:40Z</time>
      </trkpt>
      <trkpt lat="43.52356" lon="1.11761">
        <ele>257.1</ele>
        <time>2020-11-29T09:32:41Z</time>
      </trkpt>
      <trkpt lat="43.52356" lon="1.11762">
        <ele>257.1</ele>
        <time>2020-11-29T09:32:42Z</time>
      </trkpt>
      <trkpt lat="43.52356" lon="1.11762">
        <ele>257.1</ele>
        <time>2020-11-29T09:32:43Z</time>
      </trkpt>
      <trkpt lat="43.52357" lon="1.11761">
        <ele>257.1</ele>
        <time>2020-11-29T09:32:44Z</time>
      </trkpt>
      <trkpt lat="43.52358" lon="1.11759">
        <ele>257.2</ele>
        <time>2020-11-29T09:32:45Z</time>
      </trkpt>
      <trkpt lat="43.52359" lon="1.11758">
        <ele>257.2</ele>
        <time>2020-11-29T09:32:46Z</time>
      </trkpt>
      <trkpt lat="43.52359" lon="1.11758">
        <ele>257.2</ele>
        <time>2020-11-29T09:32:47Z</time>
      </trkpt>
      <trkpt lat="43.52359" lon="1.11758">
        <ele>257.2</ele>
        <time>2020-11-29T09:32:48Z</time>
      </trkpt>
      <trkpt lat="43.52359" lon="1.11758">
        <ele>257.2</ele>
        <time>2020-11-29T09:32:49Z</time>
      </trkpt>
      <trkpt lat="43.5236" lon="1.11758">
        <ele>257.2</ele>
        <time>2020-11-29T09:32:50Z</time>
      </trkpt>
      <trkpt lat="43.5236" lon="1.11758">
        <ele>257.2</ele>
        <time>2020-11-29T09:32:51Z</time>
      </trkpt>
      <trkpt lat="43.5236" lon="1.11758">
        <ele>257.2</ele>
        <time>2020-11-29T09:32:52Z</time>
      </trkpt>
      <trkpt lat="43.5236" lon="1.11759">
        <ele>257.2</ele>
        <time>2020-11-29T09:32:53Z</time>
      </trkpt>
      <trkpt lat="43.52359" lon="1.11761">
        <ele>257.3</ele>
        <time>2020-11-29T09:32:54Z</time>
      </trkpt>
      <trkpt lat="43.52359" lon="1.11762">
        <ele>257.3</ele>
        <time>2020-11-29T09:32:55Z</time>
      </trkpt>
      <trkpt lat="43.52358" lon="1.11763">
        <ele>257.3</ele>
        <time>2020-11-29T09:32:56Z</time>
      </trkpt>
      <trkpt lat="43.52358" lon="1.11763">
        <ele>257.3</ele>
        <time>2020-11-29T09:32:57Z</time>
      </trkpt>
      <trkpt lat="43.52358" lon="1.11763">
        <ele>257.3</ele>
        <time>2020-11-29T09:32:58Z</time>
      </trkpt>
      <trkpt lat="43.52358" lon="1.11763">
        <ele>257.3</ele>
        <time>2020-11-29T09:32:59Z</time>
      </trkpt>
      <trkpt lat="43.52358" lon="1.11763">
        <ele>257.3</ele>
        <time>2020-11-29T09:33:00Z</time>
      </trkpt>
      <trkpt lat="43.52358" lon="1.11763">
        <ele>257.3</ele>
        <time>2020-11-29T09:33:01Z</time>
      </trkpt>
      <trkpt lat="43.52358" lon="1.11763">
        <ele>257.3</ele>
        <time>2020-11-29T09:33:02Z</time>
      </trkpt>
      <trkpt lat="43.52358" lon="1.11763">
        <ele>257.3</ele>
        <time>2020-11-29T09:33:03Z</time>
      </trkpt>
      <trkpt lat="43.52358" lon="1.11764">
        <ele>257.3</ele>
        <time>2020-11-29T09:33:04Z</time>
      </trkpt>
      <trkpt lat="43.52358" lon="1.11764">
        <ele>257.3</ele>
        <time>2020-11-29T09:33:05Z</time>
      </trkpt>
      <trkpt lat="43.52356" lon="1.11764">
        <ele>257.4</ele>
        <time>2020-11-29T09:33:06Z</time>
      </trkpt>
      <trkpt lat="43.52356" lon="1.11764">
        <ele>257.4</ele>
        <time>2020-11-29T09:33:07Z</time>
      </trkpt>
      <trkpt lat="43.52356" lon="1.11764">
        <ele>257.4</ele>
        <time>2020-11-29T09:33:08Z</time>
      </trkpt>
      <trkpt lat="43.52356" lon="1.11765">
        <ele>257.4</ele>
        <time>2020-11-29T09:33:09Z</time>
      </trkpt>
      <trkpt lat="43.52356" lon="1.11765">
        <ele>257.4</ele>
        <time>2020-11-29T09:33:10Z</time>
      </trkpt>
      <trkpt lat="43.52356" lon="1.11765">
        <ele>257.4</ele>
        <time>2020-11-29T09:33:11Z</time>
      </trkpt>
      <trkpt lat="43.52356" lon="1.11765">
        <ele>257.4</ele>
        <time>2020-11-29T09:33:12Z</time>
      </trkpt>
      <trkpt lat="43.52356" lon="1.11765">
        <ele>257.4</ele>
        <time>2020-11-29T09:33:13Z</time>
      </trkpt>
      <trkpt lat="43.52356" lon="1.11765">
        <ele>257.4</ele>
        <time>2020-11-29T09:33:14Z</time>
      </trkpt>
      <trkpt lat="43.52356" lon="1.11765">
        <ele>257.4</ele>
        <time>2020-11-29T09:33:15Z</time>
      </trkpt>
      <trkpt lat="43.52356" lon="1.11764">
        <ele>257.4</ele>
        <time>2020-11-29T09:33:16Z</time>
      </trkpt>
      <trkpt lat="43.52357" lon="1.11765">
        <ele>257.4</ele>
        <time>2020-11-29T09:33:17Z</time>
      </trkpt>
      <trkpt lat="43.52357" lon="1.11765">
        <ele>257.4</ele>
        <time>2020-11-29T09:33:18Z</time>
      </trkpt>
      <trkpt lat="43.52357" lon="1.11765">
        <ele>257.4</ele>
        <time>2020-11-29T09:33:19Z</time>
      </trkpt>
      <trkpt lat="43.52357" lon="1.11765">
        <ele>257.4</ele>
        <time>2020-11-29T09:33:20Z</time>
      </trkpt>
      <trkpt lat="43.52357" lon="1.11765">
        <ele>257.4</ele>
        <time>2020-11-29T09:33:21Z</time>
      </trkpt>
      <trkpt lat="43.52357" lon="1.11765">
        <ele>257.4</ele>
        <time>2020-11-29T09:33:22Z</time>
      </trkpt>
      <trkpt lat="43.52357" lon="1.11765">
        <ele>257.4</ele>
        <time>2020-11-29T09:33:23Z</time>
      </trkpt>
      <trkpt lat="43.52357" lon="1.11767">
        <ele>257.4</ele>
        <time>2020-11-29T09:33:24Z</time>
      </trkpt>
      <trkpt lat="43.52357" lon="1.11767">
        <ele>257.4</ele>
        <time>2020-11-29T09:33:25Z</time>
      </trkpt>
      <trkpt lat="43.52358" lon="1.11769">
        <ele>257.5</ele>
        <time>2020-11-29T09:33:26Z</time>
      </trkpt>
      <trkpt lat="43.52358" lon="1.11769">
        <ele>257.5</ele>
        <time>2020-11-29T09:33:27Z</time>
      </trkpt>
      <trkpt lat="43.52358" lon="1.11769">
        <ele>257.5</ele>
        <time>2020-11-29T09:33:28Z</time>
      </trkpt>
      <trkpt lat="43.52358" lon="1.11769">
        <ele>257.5</ele>
        <time>2020-11-29T09:33:29Z</time>
      </trkpt>
      <trkpt lat="43.52358" lon="1.1177">
        <ele>257.5</ele>
        <time>2020-11-29T09:33:30Z</time>
      </trkpt>
      <trkpt lat="43.52359" lon="1.1177">
        <ele>257.5</ele>
        <time>2020-11-29T09:33:31Z</time>
      </trkpt>
      <trkpt lat="43.52359" lon="1.11772">
        <ele>257.5</ele>
        <time>2020-11-29T09:33:32Z</time>
      </trkpt>
      <trkpt lat="43.5236" lon="1.11774">
        <ele>257.6</ele>
        <time>2020-11-29T09:33:33Z</time>
      </trkpt>
      <trkpt lat="43.52361" lon="1.11774">
        <ele>257.6</ele>
        <time>2020-11-29T09:33:34Z</time>
      </trkpt>
      <trkpt lat="43.52361" lon="1.11773">
        <ele>257.6</ele>
        <time>2020-11-29T09:33:35Z</time>
      </trkpt>
      <trkpt lat="43.52361" lon="1.11773">
        <ele>257.6</ele>
        <time>2020-11-29T09:33:36Z</time>
      </trkpt>
      <trkpt lat="43.52362" lon="1.11772">
        <ele>257.6</ele>
        <time>2020-11-29T09:33:37Z</time>
      </trkpt>
      <trkpt lat="43.52362" lon="1.11772">
        <ele>257.6</ele>
        <time>2020-11-29T09:33:38Z</time>
      </trkpt>
      <trkpt lat="43.52362" lon="1.11772">
        <ele>257.6</ele>
        <time>2020-11-29T09:33:39Z</time>
      </trkpt>
      <trkpt lat="43.52362" lon="1.11771">
        <ele>257.6</ele>
        <time>2020-11-29T09:33:40Z</time>
      </trkpt>
      <trkpt lat="43.52362" lon="1.11771">
        <ele>257.6</ele>
        <time>2020-11-29T09:33:41Z</time>
      </trkpt>
      <trkpt lat="43.52361" lon="1.1177">
        <ele>257.7</ele>
        <time>2020-11-29T09:33:42Z</time>
      </trkpt>
      <trkpt lat="43.52361" lon="1.1177">
        <ele>257.7</ele>
        <time>2020-11-29T09:33:43Z</time>
      </trkpt>
      <trkpt lat="43.52361" lon="1.11769">
        <ele>257.7</ele>
        <time>2020-11-29T09:33:44Z</time>
      </trkpt>
      <trkpt lat="43.52361" lon="1.11769">
        <ele>257.7</ele>
        <time>2020-11-29T09:33:45Z</time>
      </trkpt>
      <trkpt lat="43.52361" lon="1.11768">
        <ele>257.7</ele>
        <time>2020-11-29T09:33:46Z</time>
      </trkpt>
      <trkpt lat="43.5236" lon="1.11768">
        <ele>257.7</ele>
        <time>2020-11-29T09:33:47Z</time>
      </trkpt>
      <trkpt lat="43.52361" lon="1.11768">
        <ele>257.7</ele>
        <time>2020-11-29T09:33:48Z</time>
      </trkpt>
      <trkpt lat="43.52359" lon="1.11768">
        <ele>257.7</ele>
        <time>2020-11-29T09:33:49Z</time>
      </trkpt>
      <trkpt lat="43.52359" lon="1.11768">
        <ele>257.7</ele>
        <time>2020-11-29T09:33:50Z</time>
      </trkpt>
      <trkpt lat="43.52359" lon="1.11768">
        <ele>257.8</ele>
        <time>2020-11-29T09:33:51Z</time>
      </trkpt>
      <trkpt lat="43.52359" lon="1.11769">
        <ele>257.8</ele>
        <time>2020-11-29T09:33:52Z</time>
      </trkpt>
      <trkpt lat="43.52359" lon="1.11769">
        <ele>257.8</ele>
        <time>2020-11-29T09:33:53Z</time>
      </trkpt>
      <trkpt lat="43.5236" lon="1.11769">
        <ele>257.8</ele>
        <time>2020-11-29T09:33:54Z</time>
      </trkpt>
      <trkpt lat="43.5236" lon="1.11769">
        <ele>257.8</ele>
        <time>2020-11-29T09:33:55Z</time>
      </trkpt>
      <trkpt lat="43.5236" lon="1.11769">
        <ele>257.8</ele>
        <time>2020-11-29T09:33:56Z</time>
      </trkpt>
      <trkpt lat="43.5236" lon="1.11769">
        <ele>257.8</ele>
        <time>2020-11-29T09:33:57Z</time>
      </trkpt>
      <trkpt lat="43.5236" lon="1.11769">
        <ele>257.8</ele>
        <time>2020-11-29T09:33:58Z</time>
      </trkpt>
      <trkpt lat="43.5236" lon="1.11769">
        <ele>257.8</ele>
        <time>2020-11-29T09:33:59Z</time>
      </trkpt>
      <trkpt lat="43.5236" lon="1.11769">
        <ele>257.8</ele>
        <time>2020-11-29T09:34:00Z</time>
      </trkpt>
      <trkpt lat="43.52359" lon="1.11768">
        <ele>257.8</ele>
        <time>2020-11-29T09:34:01Z</time>
      </trkpt>
      <trkpt lat="43.5236" lon="1.1177">
        <ele>257.9</ele>
        <time>2020-11-29T09:34:02Z</time>
      </trkpt>
      <trkpt lat="43.52361" lon="1.1177">
        <ele>257.9</ele>
        <time>2020-11-29T09:34:03Z</time>
      </trkpt>
      <trkpt lat="43.52362" lon="1.11771">
        <ele>257.9</ele>
        <time>2020-11-29T09:34:04Z</time>
      </trkpt>
      <trkpt lat="43.52364" lon="1.11775">
        <ele>258</ele>
        <time>2020-11-29T09:34:05Z</time>
      </trkpt>
      <trkpt lat="43.52365" lon="1.11776">
        <ele>258</ele>
        <time>2020-11-29T09:34:06Z</time>
      </trkpt>
      <trkpt lat="43.52366" lon="1.1178">
        <ele>258.1</ele>
        <time>2020-11-29T09:34:07Z</time>
      </trkpt>
      <trkpt lat="43.52367" lon="1.11781">
        <ele>258.2</ele>
        <time>2020-11-29T09:34:08Z</time>
      </trkpt>
      <trkpt lat="43.52367" lon="1.11783">
        <ele>258.2</ele>
        <time>2020-11-29T09:34:09Z</time>
      </trkpt>
      <trkpt lat="43.52368" lon="1.11785">
        <ele>258.3</ele>
        <time>2020-11-29T09:34:10Z</time>
      </trkpt>
      <trkpt lat="43.5237" lon="1.11787">
        <ele>258.3</ele>
        <time>2020-11-29T09:34:11Z</time>
      </trkpt>
      <trkpt lat="43.52371" lon="1.11789">
        <ele>258.4</ele>
        <time>2020-11-29T09:34:12Z</time>
      </trkpt>
      <trkpt lat="43.52373" lon="1.11792">
        <ele>258.5</ele>
        <time>2020-11-29T09:34:13Z</time>
      </trkpt>
      <trkpt lat="43.52374" lon="1.11792">
        <ele>258.5</ele>
        <time>2020-11-29T09:34:14Z</time>
      </trkpt>
      <trkpt lat="43.52375" lon="1.11794">
        <ele>258.5</ele>
        <time>2020-11-29T09:34:15Z</time>
      </trkpt>
      <trkpt lat="43.52377" lon="1.11794">
        <ele>258.6</ele>
        <time>2020-11-29T09:34:16Z</time>
      </trkpt>
      <trkpt lat="43.5238" lon="1.11796">
        <ele>258.7</ele>
        <time>2020-11-29T09:34:17Z</time>
      </trkpt>
      <trkpt lat="43.52381" lon="1.11797">
        <ele>258.8</ele>
        <time>2020-11-29T09:34:18Z</time>
      </trkpt>
      <trkpt lat="43.52382" lon="1.11797">
        <ele>258.8</ele>
        <time>2020-11-29T09:34:19Z</time>
      </trkpt>
      <trkpt lat="43.52382" lon="1.11797">
        <ele>258.8</ele>
        <time>2020-11-29T09:34:20Z</time>
      </trkpt>
      <trkpt lat="43.52381" lon="1.11796">
        <ele>258.9</ele>
        <time>2020-11-29T09:34:21Z</time>
      </trkpt>
      <trkpt lat="43.5238" lon="1.11797">
        <ele>258.9</ele>
        <time>2020-11-29T09:34:22Z</time>
      </trkpt>
      <trkpt lat="43.52381" lon="1.11797">
        <ele>258.9</ele>
        <time>2020-11-29T09:34:23Z</time>
      </trkpt>
      <trkpt lat="43.52381" lon="1.11797">
        <ele>258.9</ele>
        <time>2020-11-29T09:34:24Z</time>
      </trkpt>
      <trkpt lat="43.52381" lon="1.11798">
        <ele>258.9</ele>
        <time>2020-11-29T09:34:25Z</time>
      </trkpt>
      <trkpt lat="43.52382" lon="1.11797">
        <ele>259</ele>
        <time>2020-11-29T09:34:26Z</time>
      </trkpt>
      <trkpt lat="43.52381" lon="1.11797">
        <ele>259</ele>
        <time>2020-11-29T09:34:27Z</time>
      </trkpt>
      <trkpt lat="43.52381" lon="1.11797">
        <ele>259</ele>
        <time>2020-11-29T09:34:28Z</time>
      </trkpt>
      <trkpt lat="43.52382" lon="1.11798">
        <ele>259</ele>
        <time>2020-11-29T09:34:29Z</time>
      </trkpt>
      <trkpt lat="43.52383" lon="1.11798">
        <ele>259.1</ele>
        <time>2020-11-29T09:34:30Z</time>
      </trkpt>
      <trkpt lat="43.52384" lon="1.118">
        <ele>259.1</ele>
        <time>2020-11-29T09:34:31Z</time>
      </trkpt>
      <trkpt lat="43.52385" lon="1.118">
        <ele>259.2</ele>
        <time>2020-11-29T09:34:32Z</time>
      </trkpt>
      <trkpt lat="43.52386" lon="1.11802">
        <ele>259.3</ele>
        <time>2020-11-29T09:34:33Z</time>
      </trkpt>
      <trkpt lat="43.52387" lon="1.11803">
        <ele>259.3</ele>
        <time>2020-11-29T09:34:34Z</time>
      </trkpt>
      <trkpt lat="43.52387" lon="1.11804">
        <ele>259.3</ele>
        <time>2020-11-29T09:34:35Z</time>
      </trkpt>
      <trkpt lat="43.52387" lon="1.11805">
        <ele>259.3</ele>
        <time>2020-11-29T09:34:36Z</time>
      </trkpt>
      <trkpt lat="43.52387" lon="1.11805">
        <ele>259.3</ele>
        <time>2020-11-29T09:34:37Z</time>
      </trkpt>
      <trkpt lat="43.52388" lon="1.11803">
        <ele>259.4</ele>
        <time>2020-11-29T09:34:38Z</time>
      </trkpt>
      <trkpt lat="43.52388" lon="1.11804">
        <ele>259.4</ele>
        <time>2020-11-29T09:34:39Z</time>
      </trkpt>
      <trkpt lat="43.5239" lon="1.11806">
        <ele>259.5</ele>
        <time>2020-11-29T09:34:40Z</time>
      </trkpt>
      <trkpt lat="43.52391" lon="1.11809">
        <ele>259.6</ele>
        <time>2020-11-29T09:34:41Z</time>
      </trkpt>
      <trkpt lat="43.52391" lon="1.1181">
        <ele>259.6</ele>
        <time>2020-11-29T09:34:42Z</time>
      </trkpt>
      <trkpt lat="43.52392" lon="1.11812">
        <ele>259.7</ele>
        <time>2020-11-29T09:34:43Z</time>
      </trkpt>
      <trkpt lat="43.52395" lon="1.11815">
        <ele>259.8</ele>
        <time>2020-11-29T09:34:44Z</time>
      </trkpt>
      <trkpt lat="43.52397" lon="1.11816">
        <ele>259.9</ele>
        <time>2020-11-29T09:34:45Z</time>
      </trkpt>
      <trkpt lat="43.52398" lon="1.11817">
        <ele>259.9</ele>
        <time>2020-11-29T09:34:46Z</time>
      </trkpt>
      <trkpt lat="43.52398" lon="1.11819">
        <ele>260</ele>
        <time>2020-11-29T09:34:47Z</time>
      </trkpt>
      <trkpt lat="43.52398" lon="1.11819">
        <ele>260</ele>
        <time>2020-11-29T09:34:48Z</time>
      </trkpt>
      <trkpt lat="43.52398" lon="1.11821">
        <ele>260.1</ele>
        <time>2020-11-29T09:34:49Z</time>
      </trkpt>
      <trkpt lat="43.52398" lon="1.11821">
        <ele>260.1</ele>
        <time>2020-11-29T09:34:50Z</time>
      </trkpt>
      <trkpt lat="43.52398" lon="1.11823">
        <ele>260.1</ele>
        <time>2020-11-29T09:34:51Z</time>
      </trkpt>
      <trkpt lat="43.52398" lon="1.11826">
        <ele>260.2</ele>
        <time>2020-11-29T09:34:52Z</time>
      </trkpt>
      <trkpt lat="43.52399" lon="1.11828">
        <ele>260.2</ele>
        <time>2020-11-29T09:34:53Z</time>
      </trkpt>
      <trkpt lat="43.524" lon="1.11828">
        <ele>260.3</ele>
        <time>2020-11-29T09:34:54Z</time>
      </trkpt>
      <trkpt lat="43.524" lon="1.11829">
        <ele>260.3</ele>
        <time>2020-11-29T09:34:55Z</time>
      </trkpt>
      <trkpt lat="43.524" lon="1.11829">
        <ele>260.3</ele>
        <time>2020-11-29T09:34:56Z</time>
      </trkpt>
      <trkpt lat="43.524" lon="1.1183">
        <ele>260.3</ele>
        <time>2020-11-29T09:34:57Z</time>
      </trkpt>
      <trkpt lat="43.52401" lon="1.11831">
        <ele>260.3</ele>
        <time>2020-11-29T09:34:58Z</time>
      </trkpt>
      <trkpt lat="43.52403" lon="1.11832">
        <ele>260.4</ele>
        <time>2020-11-29T09:34:59Z</time>
      </trkpt>
      <trkpt lat="43.52406" lon="1.11836">
        <ele>260.5</ele>
        <time>2020-11-29T09:35:00Z</time>
      </trkpt>
      <trkpt lat="43.52408" lon="1.1184">
        <ele>260.6</ele>
        <time>2020-11-29T09:35:01Z</time>
      </trkpt>
      <trkpt lat="43.52411" lon="1.11844">
        <ele>260.7</ele>
        <time>2020-11-29T09:35:02Z</time>
      </trkpt>
      <trkpt lat="43.52415" lon="1.11847">
        <ele>260.7</ele>
        <time>2020-11-29T09:35:03Z</time>
      </trkpt>
      <trkpt lat="43.5242" lon="1.1185">
        <ele>260.8</ele>
        <time>2020-11-29T09:35:04Z</time>
      </trkpt>
      <trkpt lat="43.52425" lon="1.11854">
        <ele>259.9</ele>
        <time>2020-11-29T09:35:05Z</time>
      </trkpt>
      <trkpt lat="43.52431" lon="1.11858">
        <ele>258.9</ele>
        <time>2020-11-29T09:35:06Z</time>
      </trkpt>
      <trkpt lat="43.52436" lon="1.11862">
        <ele>258</ele>
        <time>2020-11-29T09:35:07Z</time>
      </trkpt>
      <trkpt lat="43.52441" lon="1.11867">
        <ele>257.1</ele>
        <time>2020-11-29T09:35:08Z</time>
      </trkpt>
      <trkpt lat="43.52448" lon="1.11873">
        <ele>257</ele>
        <time>2020-11-29T09:35:09Z</time>
      </trkpt>
      <trkpt lat="43.52452" lon="1.11877">
        <ele>256.9</ele>
        <time>2020-11-29T09:35:10Z</time>
      </trkpt>
      <trkpt lat="43.52458" lon="1.1188">
        <ele>256.9</ele>
        <time>2020-11-29T09:35:11Z</time>
      </trkpt>
      <trkpt lat="43.52462" lon="1.11883">
        <ele>256.8</ele>
        <time>2020-11-29T09:35:12Z</time>
      </trkpt>
      <trkpt lat="43.52466" lon="1.11887">
        <ele>256.8</ele>
        <time>2020-11-29T09:35:13Z</time>
      </trkpt>
      <trkpt lat="43.5247" lon="1.11891">
        <ele>256.7</ele>
        <time>2020-11-29T09:35:14Z</time>
      </trkpt>
      <trkpt lat="43.52475" lon="1.11895">
        <ele>256.7</ele>
        <time>2020-11-29T09:35:15Z</time>
      </trkpt>
      <trkpt lat="43.52479" lon="1.119">
        <ele>256.6</ele>
        <time>2020-11-29T09:35:16Z</time>
      </trkpt>
      <trkpt lat="43.52484" lon="1.11904">
        <ele>256.5</ele>
        <time>2020-11-29T09:35:17Z</time>
      </trkpt>
      <trkpt lat="43.52489" lon="1.11908">
        <ele>256.4</ele>
        <time>2020-11-29T09:35:18Z</time>
      </trkpt>
      <trkpt lat="43.52494" lon="1.11912">
        <ele>256.3</ele>
        <time>2020-11-29T09:35:19Z</time>
      </trkpt>
      <trkpt lat="43.52499" lon="1.11916">
        <ele>256.3</ele>
        <time>2020-11-29T09:35:20Z</time>
      </trkpt>
      <trkpt lat="43.52504" lon="1.11921">
        <ele>256.2</ele>
        <time>2020-11-29T09:35:21Z</time>
      </trkpt>
      <trkpt lat="43.52509" lon="1.11925">
        <ele>256.2</ele>
        <time>2020-11-29T09:35:22Z</time>
      </trkpt>
      <trkpt lat="43.52515" lon="1.11929">
        <ele>256.2</ele>
        <time>2020-11-29T09:35:23Z</time>
      </trkpt>
      <trkpt lat="43.52519" lon="1.11933">
        <ele>256.2</ele>
        <time>2020-11-29T09:35:24Z</time>
      </trkpt>
      <trkpt lat="43.52523" lon="1.11936">
        <ele>256.2</ele>
        <time>2020-11-29T09:35:25Z</time>
      </trkpt>
      <trkpt lat="43.52526" lon="1.1194">
        <ele>256.2</ele>
        <time>2020-11-29T09:35:26Z</time>
      </trkpt>
      <trkpt lat="43.5253" lon="1.11944">
        <ele>256.2</ele>
        <time>2020-11-29T09:35:27Z</time>
      </trkpt>
      <trkpt lat="43.52534" lon="1.11948">
        <ele>256.3</ele>
        <time>2020-11-29T09:35:28Z</time>
      </trkpt>
      <trkpt lat="43.52537" lon="1.11952">
        <ele>256.4</ele>
        <time>2020-11-29T09:35:29Z</time>
      </trkpt>
      <trkpt lat="43.52541" lon="1.11955">
        <ele>256.5</ele>
        <time>2020-11-29T09:35:30Z</time>
      </trkpt>
      <trkpt lat="43.52545" lon="1.11959">
        <ele>256.8</ele>
        <time>2020-11-29T09:35:31Z</time>
      </trkpt>
      <trkpt lat="43.52549" lon="1.11963">
        <ele>257</ele>
        <time>2020-11-29T09:35:32Z</time>
      </trkpt>
      <trkpt lat="43.52552" lon="1.11966">
        <ele>257.2</ele>
        <time>2020-11-29T09:35:33Z</time>
      </trkpt>
      <trkpt lat="43.52556" lon="1.11969">
        <ele>257.5</ele>
        <time>2020-11-29T09:35:34Z</time>
      </trkpt>
      <trkpt lat="43.52561" lon="1.11973">
        <ele>257.8</ele>
        <time>2020-11-29T09:35:35Z</time>
      </trkpt>
      <trkpt lat="43.52564" lon="1.11975">
        <ele>258.1</ele>
        <time>2020-11-29T09:35:36Z</time>
      </trkpt>
      <trkpt lat="43.52567" lon="1.11976">
        <ele>258.3</ele>
        <time>2020-11-29T09:35:37Z</time>
      </trkpt>
      <trkpt lat="43.52571" lon="1.11978">
        <ele>258.5</ele>
        <time>2020-11-29T09:35:38Z</time>
      </trkpt>
      <trkpt lat="43.52574" lon="1.1198">
        <ele>258.8</ele>
        <time>2020-11-29T09:35:39Z</time>
      </trkpt>
      <trkpt lat="43.52576" lon="1.11982">
        <ele>259</ele>
        <time>2020-11-29T09:35:40Z</time>
      </trkpt>
      <trkpt lat="43.52579" lon="1.11984">
        <ele>259.2</ele>
        <time>2020-11-29T09:35:41Z</time>
      </trkpt>
      <trkpt lat="43.52581" lon="1.11986">
        <ele>259.4</ele>
        <time>2020-11-29T09:35:42Z</time>
      </trkpt>
      <trkpt lat="43.52584" lon="1.11989">
        <ele>259.6</ele>
        <time>2020-11-29T09:35:43Z</time>
      </trkpt>
      <trkpt lat="43.52587" lon="1.1199">
        <ele>259.8</ele>
        <time>2020-11-29T09:35:44Z</time>
      </trkpt>
      <trkpt lat="43.52591" lon="1.11992">
        <ele>260</ele>
        <time>2020-11-29T09:35:45Z</time>
      </trkpt>
      <trkpt lat="43.52593" lon="1.11994">
        <ele>260.2</ele>
        <time>2020-11-29T09:35:46Z</time>
      </trkpt>
      <trkpt lat="43.52597" lon="1.11995">
        <ele>260.4</ele>
        <time>2020-11-29T09:35:47Z</time>
      </trkpt>
      <trkpt lat="43.526" lon="1.11995">
        <ele>260.5</ele>
        <time>2020-11-29T09:35:48Z</time>
      </trkpt>
      <trkpt lat="43.52601" lon="1.11994">
        <ele>260.6</ele>
        <time>2020-11-29T09:35:49Z</time>
      </trkpt>
      <trkpt lat="43.52604" lon="1.11991">
        <ele>260.8</ele>
        <time>2020-11-29T09:35:50Z</time>
      </trkpt>
      <trkpt lat="43.52605" lon="1.1199">
        <ele>260.8</ele>
        <time>2020-11-29T09:35:51Z</time>
      </trkpt>
      <trkpt lat="43.52608" lon="1.11991">
        <ele>260.9</ele>
        <time>2020-11-29T09:35:52Z</time>
      </trkpt>
      <trkpt lat="43.52609" lon="1.11988">
        <ele>261.2</ele>
        <time>2020-11-29T09:35:53Z</time>
      </trkpt>
      <trkpt lat="43.52608" lon="1.11982">
        <ele>261.1</ele>
        <time>2020-11-29T09:35:54Z</time>
      </trkpt>
      <trkpt lat="43.52608" lon="1.11976">
        <ele>261.1</ele>
        <time>2020-11-29T09:35:55Z</time>
      </trkpt>
      <trkpt lat="43.52605" lon="1.11971">
        <ele>261.1</ele>
        <time>2020-11-29T09:35:56Z</time>
      </trkpt>
      <trkpt lat="43.52601" lon="1.11967">
        <ele>261.1</ele>
        <time>2020-11-29T09:35:57Z</time>
      </trkpt>
      <trkpt lat="43.52598" lon="1.11962">
        <ele>261.1</ele>
        <time>2020-11-29T09:35:58Z</time>
      </trkpt>
      <trkpt lat="43.52594" lon="1.11957">
        <ele>261.1</ele>
        <time>2020-11-29T09:35:59Z</time>
      </trkpt>
      <trkpt lat="43.52593" lon="1.11952">
        <ele>261.2</ele>
        <time>2020-11-29T09:36:00Z</time>
      </trkpt>
      <trkpt lat="43.52591" lon="1.11947">
        <ele>261.2</ele>
        <time>2020-11-29T09:36:01Z</time>
      </trkpt>
      <trkpt lat="43.52592" lon="1.11941">
        <ele>261.2</ele>
        <time>2020-11-29T09:36:02Z</time>
      </trkpt>
      <trkpt lat="43.52593" lon="1.11934">
        <ele>261.2</ele>
        <time>2020-11-29T09:36:03Z</time>
      </trkpt>
      <trkpt lat="43.52593" lon="1.11928">
        <ele>261.2</ele>
        <time>2020-11-29T09:36:04Z</time>
      </trkpt>
      <trkpt lat="43.52593" lon="1.11922">
        <ele>261.3</ele>
        <time>2020-11-29T09:36:05Z</time>
      </trkpt>
      <trkpt lat="43.52593" lon="1.11916">
        <ele>261.3</ele>
        <time>2020-11-29T09:36:06Z</time>
      </trkpt>
      <trkpt lat="43.52594" lon="1.1191">
        <ele>261.3</ele>
        <time>2020-11-29T09:36:07Z</time>
      </trkpt>
      <trkpt lat="43.52594" lon="1.11905">
        <ele>261.3</ele>
        <time>2020-11-29T09:36:08Z</time>
      </trkpt>
      <trkpt lat="43.52594" lon="1.11899">
        <ele>261.4</ele>
        <time>2020-11-29T09:36:09Z</time>
      </trkpt>
      <trkpt lat="43.52595" lon="1.11894">
        <ele>261.4</ele>
        <time>2020-11-29T09:36:10Z</time>
      </trkpt>
      <trkpt lat="43.52596" lon="1.11888">
        <ele>261.5</ele>
        <time>2020-11-29T09:36:11Z</time>
      </trkpt>
      <trkpt lat="43.52596" lon="1.11882">
        <ele>261.5</ele>
        <time>2020-11-29T09:36:12Z</time>
      </trkpt>
      <trkpt lat="43.52596" lon="1.11876">
        <ele>261.6</ele>
        <time>2020-11-29T09:36:13Z</time>
      </trkpt>
      <trkpt lat="43.52597" lon="1.11871">
        <ele>261.6</ele>
        <time>2020-11-29T09:36:14Z</time>
      </trkpt>
      <trkpt lat="43.52598" lon="1.11866">
        <ele>261.7</ele>
        <time>2020-11-29T09:36:15Z</time>
      </trkpt>
      <trkpt lat="43.52599" lon="1.11859">
        <ele>261.7</ele>
        <time>2020-11-29T09:36:16Z</time>
      </trkpt>
      <trkpt lat="43.526" lon="1.11854">
        <ele>261.8</ele>
        <time>2020-11-29T09:36:17Z</time>
      </trkpt>
      <trkpt lat="43.526" lon="1.11848">
        <ele>261.8</ele>
        <time>2020-11-29T09:36:18Z</time>
      </trkpt>
      <trkpt lat="43.52602" lon="1.11841">
        <ele>261.9</ele>
        <time>2020-11-29T09:36:19Z</time>
      </trkpt>
      <trkpt lat="43.52603" lon="1.11836">
        <ele>261.9</ele>
        <time>2020-11-29T09:36:20Z</time>
      </trkpt>
      <trkpt lat="43.52604" lon="1.11831">
        <ele>262</ele>
        <time>2020-11-29T09:36:21Z</time>
      </trkpt>
      <trkpt lat="43.52605" lon="1.11825">
        <ele>262</ele>
        <time>2020-11-29T09:36:22Z</time>
      </trkpt>
      <trkpt lat="43.52605" lon="1.1182">
        <ele>262.1</ele>
        <time>2020-11-29T09:36:23Z</time>
      </trkpt>
      <trkpt lat="43.52606" lon="1.11813">
        <ele>262.2</ele>
        <time>2020-11-29T09:36:24Z</time>
      </trkpt>
      <trkpt lat="43.52606" lon="1.11809">
        <ele>262.3</ele>
        <time>2020-11-29T09:36:25Z</time>
      </trkpt>
      <trkpt lat="43.52607" lon="1.11803">
        <ele>262.3</ele>
        <time>2020-11-29T09:36:26Z</time>
      </trkpt>
      <trkpt lat="43.52608" lon="1.11797">
        <ele>262.4</ele>
        <time>2020-11-29T09:36:27Z</time>
      </trkpt>
      <trkpt lat="43.52609" lon="1.11792">
        <ele>262.5</ele>
        <time>2020-11-29T09:36:28Z</time>
      </trkpt>
      <trkpt lat="43.52609" lon="1.11788">
        <ele>262.5</ele>
        <time>2020-11-29T09:36:29Z</time>
      </trkpt>
      <trkpt lat="43.5261" lon="1.11783">
        <ele>262.6</ele>
        <time>2020-11-29T09:36:30Z</time>
      </trkpt>
      <trkpt lat="43.52612" lon="1.11779">
        <ele>262.7</ele>
        <time>2020-11-29T09:36:31Z</time>
      </trkpt>
      <trkpt lat="43.52613" lon="1.11774">
        <ele>262.7</ele>
        <time>2020-11-29T09:36:32Z</time>
      </trkpt>
      <trkpt lat="43.52614" lon="1.11769">
        <ele>262.8</ele>
        <time>2020-11-29T09:36:33Z</time>
      </trkpt>
      <trkpt lat="43.52615" lon="1.11764">
        <ele>262.9</ele>
        <time>2020-11-29T09:36:34Z</time>
      </trkpt>
      <trkpt lat="43.52616" lon="1.11759">
        <ele>262.9</ele>
        <time>2020-11-29T09:36:35Z</time>
      </trkpt>
      <trkpt lat="43.52617" lon="1.11754">
        <ele>263</ele>
        <time>2020-11-29T09:36:36Z</time>
      </trkpt>
      <trkpt lat="43.52618" lon="1.11748">
        <ele>263</ele>
        <time>2020-11-29T09:36:37Z</time>
      </trkpt>
      <trkpt lat="43.5262" lon="1.11741">
        <ele>263.1</ele>
        <time>2020-11-29T09:36:38Z</time>
      </trkpt>
      <trkpt lat="43.52621" lon="1.11736">
        <ele>263.2</ele>
        <time>2020-11-29T09:36:39Z</time>
      </trkpt>
      <trkpt lat="43.52623" lon="1.11729">
        <ele>263.3</ele>
        <time>2020-11-29T09:36:40Z</time>
      </trkpt>
      <trkpt lat="43.52624" lon="1.11723">
        <ele>263.4</ele>
        <time>2020-11-29T09:36:41Z</time>
      </trkpt>
      <trkpt lat="43.52624" lon="1.11717">
        <ele>263.4</ele>
        <time>2020-11-29T09:36:42Z</time>
      </trkpt>
      <trkpt lat="43.52624" lon="1.11711">
        <ele>263.5</ele>
        <time>2020-11-29T09:36:43Z</time>
      </trkpt>
      <trkpt lat="43.52625" lon="1.11705">
        <ele>263.6</ele>
        <time>2020-11-29T09:36:44Z</time>
      </trkpt>
      <trkpt lat="43.52625" lon="1.11699">
        <ele>263.7</ele>
        <time>2020-11-29T09:36:45Z</time>
      </trkpt>
      <trkpt lat="43.52627" lon="1.11693">
        <ele>263.8</ele>
        <time>2020-11-29T09:36:46Z</time>
      </trkpt>
      <trkpt lat="43.52628" lon="1.11688">
        <ele>263.9</ele>
        <time>2020-11-29T09:36:47Z</time>
      </trkpt>
      <trkpt lat="43.5263" lon="1.11682">
        <ele>264.1</ele>
        <time>2020-11-29T09:36:48Z</time>
      </trkpt>
      <trkpt lat="43.52632" lon="1.11675">
        <ele>264.2</ele>
        <time>2020-11-29T09:36:49Z</time>
      </trkpt>
      <trkpt lat="43.52632" lon="1.11669">
        <ele>264.3</ele>
        <time>2020-11-29T09:36:50Z</time>
      </trkpt>
      <trkpt lat="43.52634" lon="1.11665">
        <ele>264.4</ele>
        <time>2020-11-29T09:36:51Z</time>
      </trkpt>
      <trkpt lat="43.52634" lon="1.1166">
        <ele>264.5</ele>
        <time>2020-11-29T09:36:52Z</time>
      </trkpt>
      <trkpt lat="43.52635" lon="1.11654">
        <ele>264.7</ele>
        <time>2020-11-29T09:36:53Z</time>
      </trkpt>
      <trkpt lat="43.52636" lon="1.11649">
        <ele>264.8</ele>
        <time>2020-11-29T09:36:54Z</time>
      </trkpt>
      <trkpt lat="43.52637" lon="1.11643">
        <ele>264.9</ele>
        <time>2020-11-29T09:36:55Z</time>
      </trkpt>
      <trkpt lat="43.52639" lon="1.11639">
        <ele>265.1</ele>
        <time>2020-11-29T09:36:56Z</time>
      </trkpt>
      <trkpt lat="43.5264" lon="1.11634">
        <ele>265.2</ele>
        <time>2020-11-29T09:36:57Z</time>
      </trkpt>
      <trkpt lat="43.52641" lon="1.11629">
        <ele>265.3</ele>
        <time>2020-11-29T09:36:58Z</time>
      </trkpt>
      <trkpt lat="43.52642" lon="1.11625">
        <ele>265.4</ele>
        <time>2020-11-29T09:36:59Z</time>
      </trkpt>
      <trkpt lat="43.52643" lon="1.1162">
        <ele>265.6</ele>
        <time>2020-11-29T09:37:00Z</time>
      </trkpt>
      <trkpt lat="43.52644" lon="1.11615">
        <ele>265.8</ele>
        <time>2020-11-29T09:37:01Z</time>
      </trkpt>
      <trkpt lat="43.52646" lon="1.11611">
        <ele>265.9</ele>
        <time>2020-11-29T09:37:02Z</time>
      </trkpt>
      <trkpt lat="43.52648" lon="1.11607">
        <ele>266</ele>
        <time>2020-11-29T09:37:03Z</time>
      </trkpt>
      <trkpt lat="43.52647" lon="1.11605">
        <ele>266.1</ele>
        <time>2020-11-29T09:37:04Z</time>
      </trkpt>
      <trkpt lat="43.52647" lon="1.11603">
        <ele>266.2</ele>
        <time>2020-11-29T09:37:05Z</time>
      </trkpt>
      <trkpt lat="43.52647" lon="1.11601">
        <ele>266.3</ele>
        <time>2020-11-29T09:37:06Z</time>
      </trkpt>
      <trkpt lat="43.52649" lon="1.11599">
        <ele>266.4</ele>
        <time>2020-11-29T09:37:07Z</time>
      </trkpt>
      <trkpt lat="43.52649" lon="1.11599">
        <ele>266.4</ele>
        <time>2020-11-29T09:37:08Z</time>
      </trkpt>
      <trkpt lat="43.52648" lon="1.116">
        <ele>266.5</ele>
        <time>2020-11-29T09:37:09Z</time>
      </trkpt>
      <trkpt lat="43.52648" lon="1.11602">
        <ele>266.5</ele>
        <time>2020-11-29T09:37:10Z</time>
      </trkpt>
      <trkpt lat="43.52647" lon="1.11604">
        <ele>266.6</ele>
        <time>2020-11-29T09:37:11Z</time>
      </trkpt>
      <trkpt lat="43.52646" lon="1.11608">
        <ele>266.8</ele>
        <time>2020-11-29T09:37:12Z</time>
      </trkpt>
      <trkpt lat="43.52644" lon="1.11612">
        <ele>266.9</ele>
        <time>2020-11-29T09:37:13Z</time>
      </trkpt>
      <trkpt lat="43.52644" lon="1.11613">
        <ele>266.9</ele>
        <time>2020-11-29T09:37:14Z</time>
      </trkpt>
      <trkpt lat="43.52643" lon="1.11618">
        <ele>266.4</ele>
        <time>2020-11-29T09:37:15Z</time>
      </trkpt>
      <trkpt lat="43.52643" lon="1.11619">
        <ele>266.1</ele>
        <time>2020-11-29T09:37:16Z</time>
      </trkpt>
      <trkpt lat="43.52643" lon="1.11621">
        <ele>266.3</ele>
        <time>2020-11-29T09:37:17Z</time>
      </trkpt>
      <trkpt lat="43.52644" lon="1.11623">
        <ele>266.3</ele>
        <time>2020-11-29T09:37:18Z</time>
      </trkpt>
      <trkpt lat="43.52645" lon="1.11623">
        <ele>266.3</ele>
        <time>2020-11-29T09:37:19Z</time>
      </trkpt>
      <trkpt lat="43.52645" lon="1.11622">
        <ele>266.3</ele>
        <time>2020-11-29T09:37:20Z</time>
      </trkpt>
      <trkpt lat="43.52647" lon="1.11621">
        <ele>266.5</ele>
        <time>2020-11-29T09:37:21Z</time>
      </trkpt>
      <trkpt lat="43.52649" lon="1.11621">
        <ele>266.6</ele>
        <time>2020-11-29T09:37:22Z</time>
      </trkpt>
      <trkpt lat="43.5265" lon="1.1162">
        <ele>266.9</ele>
        <time>2020-11-29T09:37:23Z</time>
      </trkpt>
      <trkpt lat="43.52651" lon="1.11619">
        <ele>266.9</ele>
        <time>2020-11-29T09:37:24Z</time>
      </trkpt>
      <trkpt lat="43.52653" lon="1.11619">
        <ele>267.1</ele>
        <time>2020-11-29T09:37:25Z</time>
      </trkpt>
      <trkpt lat="43.52655" lon="1.11618">
        <ele>267.4</ele>
        <time>2020-11-29T09:37:26Z</time>
      </trkpt>
      <trkpt lat="43.52656" lon="1.11619">
        <ele>267.4</ele>
        <time>2020-11-29T09:37:27Z</time>
      </trkpt>
      <trkpt lat="43.52658" lon="1.11618">
        <ele>267.7</ele>
        <time>2020-11-29T09:37:28Z</time>
      </trkpt>
      <trkpt lat="43.52659" lon="1.11619">
        <ele>267.8</ele>
        <time>2020-11-29T09:37:29Z</time>
      </trkpt>
      <trkpt lat="43.52661" lon="1.11617">
        <ele>268.1</ele>
        <time>2020-11-29T09:37:30Z</time>
      </trkpt>
      <trkpt lat="43.52662" lon="1.11617">
        <ele>268.6</ele>
        <time>2020-11-29T09:37:31Z</time>
      </trkpt>
      <trkpt lat="43.52663" lon="1.11617">
        <ele>268.6</ele>
        <time>2020-11-29T09:37:32Z</time>
      </trkpt>
      <trkpt lat="43.52665" lon="1.11616">
        <ele>269</ele>
        <time>2020-11-29T09:37:33Z</time>
      </trkpt>
      <trkpt lat="43.52666" lon="1.11616">
        <ele>269</ele>
        <time>2020-11-29T09:37:34Z</time>
      </trkpt>
      <trkpt lat="43.52667" lon="1.11615">
        <ele>269.1</ele>
        <time>2020-11-29T09:37:35Z</time>
      </trkpt>
      <trkpt lat="43.52668" lon="1.11614">
        <ele>269.6</ele>
        <time>2020-11-29T09:37:36Z</time>
      </trkpt>
      <trkpt lat="43.52669" lon="1.11613">
        <ele>270</ele>
        <time>2020-11-29T09:37:37Z</time>
      </trkpt>
      <trkpt lat="43.52672" lon="1.11613">
        <ele>270.5</ele>
        <time>2020-11-29T09:37:38Z</time>
      </trkpt>
      <trkpt lat="43.52677" lon="1.11612">
        <ele>271.4</ele>
        <time>2020-11-29T09:37:39Z</time>
      </trkpt>
      <trkpt lat="43.52682" lon="1.11611">
        <ele>272</ele>
        <time>2020-11-29T09:37:40Z</time>
      </trkpt>
      <trkpt lat="43.52685" lon="1.1161">
        <ele>272.7</ele>
        <time>2020-11-29T09:37:41Z</time>
      </trkpt>
      <trkpt lat="43.5269" lon="1.11608">
        <ele>274.3</ele>
        <time>2020-11-29T09:37:42Z</time>
      </trkpt>
      <trkpt lat="43.52694" lon="1.11605">
        <ele>275.3</ele>
        <time>2020-11-29T09:37:43Z</time>
      </trkpt>
      <trkpt lat="43.52698" lon="1.11602">
        <ele>276</ele>
        <time>2020-11-29T09:37:44Z</time>
      </trkpt>
      <trkpt lat="43.52703" lon="1.11599">
        <ele>277.5</ele>
        <time>2020-11-29T09:37:45Z</time>
      </trkpt>
      <trkpt lat="43.52706" lon="1.11596">
        <ele>278.4</ele>
        <time>2020-11-29T09:37:46Z</time>
      </trkpt>
      <trkpt lat="43.52708" lon="1.11594">
        <ele>279</ele>
        <time>2020-11-29T09:37:47Z</time>
      </trkpt>
      <trkpt lat="43.52712" lon="1.11592">
        <ele>279.9</ele>
        <time>2020-11-29T09:37:48Z</time>
      </trkpt>
      <trkpt lat="43.52714" lon="1.11591">
        <ele>279.9</ele>
        <time>2020-11-29T09:37:49Z</time>
      </trkpt>
      <trkpt lat="43.52716" lon="1.11589">
        <ele>280.5</ele>
        <time>2020-11-29T09:37:50Z</time>
      </trkpt>
      <trkpt lat="43.52719" lon="1.11588">
        <ele>281.3</ele>
        <time>2020-11-29T09:37:51Z</time>
      </trkpt>
      <trkpt lat="43.52723" lon="1.11587">
        <ele>281.9</ele>
        <time>2020-11-29T09:37:52Z</time>
      </trkpt>
      <trkpt lat="43.52724" lon="1.11586">
        <ele>281.9</ele>
        <time>2020-11-29T09:37:53Z</time>
      </trkpt>
      <trkpt lat="43.52726" lon="1.11585">
        <ele>282.5</ele>
        <time>2020-11-29T09:37:54Z</time>
      </trkpt>
      <trkpt lat="43.52729" lon="1.11584">
        <ele>283.4</ele>
        <time>2020-11-29T09:37:55Z</time>
      </trkpt>
      <trkpt lat="43.52732" lon="1.11581">
        <ele>283.9</ele>
        <time>2020-11-29T09:37:56Z</time>
      </trkpt>
      <trkpt lat="43.52733" lon="1.1158">
        <ele>284</ele>
        <time>2020-11-29T09:37:57Z</time>
      </trkpt>
      <trkpt lat="43.52736" lon="1.11578">
        <ele>284.8</ele>
        <time>2020-11-29T09:37:58Z</time>
      </trkpt>
      <trkpt lat="43.52737" lon="1.11577">
        <ele>285.4</ele>
        <time>2020-11-29T09:37:59Z</time>
      </trkpt>
      <trkpt lat="43.52739" lon="1.11573">
        <ele>285.7</ele>
        <time>2020-11-29T09:38:00Z</time>
      </trkpt>
      <trkpt lat="43.5274" lon="1.11572">
        <ele>286.2</ele>
        <time>2020-11-29T09:38:01Z</time>
      </trkpt>
      <trkpt lat="43.52742" lon="1.11569">
        <ele>286.6</ele>
        <time>2020-11-29T09:38:02Z</time>
      </trkpt>
      <trkpt lat="43.52742" lon="1.11567">
        <ele>286.6</ele>
        <time>2020-11-29T09:38:03Z</time>
      </trkpt>
      <trkpt lat="43.52745" lon="1.11565">
        <ele>287.4</ele>
        <time>2020-11-29T09:38:04Z</time>
      </trkpt>
      <trkpt lat="43.52746" lon="1.11564">
        <ele>288</ele>
        <time>2020-11-29T09:38:05Z</time>
      </trkpt>
      <trkpt lat="43.52748" lon="1.1156">
        <ele>288.3</ele>
        <time>2020-11-29T09:38:06Z</time>
      </trkpt>
      <trkpt lat="43.52749" lon="1.11558">
        <ele>289.1</ele>
        <time>2020-11-29T09:38:07Z</time>
      </trkpt>
      <trkpt lat="43.5275" lon="1.11554">
        <ele>289.1</ele>
        <time>2020-11-29T09:38:08Z</time>
      </trkpt>
      <trkpt lat="43.52752" lon="1.1155">
        <ele>289.4</ele>
        <time>2020-11-29T09:38:09Z</time>
      </trkpt>
      <trkpt lat="43.52752" lon="1.11545">
        <ele>290</ele>
        <time>2020-11-29T09:38:10Z</time>
      </trkpt>
      <trkpt lat="43.52751" lon="1.11543">
        <ele>290</ele>
        <time>2020-11-29T09:38:11Z</time>
      </trkpt>
      <trkpt lat="43.52752" lon="1.11539">
        <ele>290.3</ele>
        <time>2020-11-29T09:38:12Z</time>
      </trkpt>
      <trkpt lat="43.52752" lon="1.11535">
        <ele>291</ele>
        <time>2020-11-29T09:38:13Z</time>
      </trkpt>
      <trkpt lat="43.52753" lon="1.11532">
        <ele>291.3</ele>
        <time>2020-11-29T09:38:14Z</time>
      </trkpt>
      <trkpt lat="43.52754" lon="1.11528">
        <ele>291.6</ele>
        <time>2020-11-29T09:38:15Z</time>
      </trkpt>
      <trkpt lat="43.52755" lon="1.11527">
        <ele>292</ele>
        <time>2020-11-29T09:38:16Z</time>
      </trkpt>
      <trkpt lat="43.52756" lon="1.11523">
        <ele>292.2</ele>
        <time>2020-11-29T09:38:17Z</time>
      </trkpt>
      <trkpt lat="43.52757" lon="1.11519">
        <ele>292.4</ele>
        <time>2020-11-29T09:38:18Z</time>
      </trkpt>
      <trkpt lat="43.52758" lon="1.11517">
        <ele>292.4</ele>
        <time>2020-11-29T09:38:19Z</time>
      </trkpt>
      <trkpt lat="43.52758" lon="1.11513">
        <ele>293</ele>
        <time>2020-11-29T09:38:20Z</time>
      </trkpt>
      <trkpt lat="43.52758" lon="1.11511">
        <ele>293</ele>
        <time>2020-11-29T09:38:21Z</time>
      </trkpt>
      <trkpt lat="43.52759" lon="1.11509">
        <ele>293.1</ele>
        <time>2020-11-29T09:38:22Z</time>
      </trkpt>
      <trkpt lat="43.5276" lon="1.11507">
        <ele>293.2</ele>
        <time>2020-11-29T09:38:23Z</time>
      </trkpt>
      <trkpt lat="43.52761" lon="1.11506">
        <ele>293.5</ele>
        <time>2020-11-29T09:38:24Z</time>
      </trkpt>
      <trkpt lat="43.52762" lon="1.11505">
        <ele>293.5</ele>
        <time>2020-11-29T09:38:25Z</time>
      </trkpt>
      <trkpt lat="43.52764" lon="1.11504">
        <ele>293.6</ele>
        <time>2020-11-29T09:38:26Z</time>
      </trkpt>
      <trkpt lat="43.52766" lon="1.11501">
        <ele>293.9</ele>
        <time>2020-11-29T09:38:27Z</time>
      </trkpt>
      <trkpt lat="43.52768" lon="1.11498">
        <ele>294</ele>
        <time>2020-11-29T09:38:28Z</time>
      </trkpt>
      <trkpt lat="43.52769" lon="1.11494">
        <ele>294</ele>
        <time>2020-11-29T09:38:29Z</time>
      </trkpt>
      <trkpt lat="43.52769" lon="1.11492">
        <ele>294</ele>
        <time>2020-11-29T09:38:30Z</time>
      </trkpt>
      <trkpt lat="43.5277" lon="1.11488">
        <ele>294.1</ele>
        <time>2020-11-29T09:38:31Z</time>
      </trkpt>
      <trkpt lat="43.5277" lon="1.11486">
        <ele>294.1</ele>
        <time>2020-11-29T09:38:32Z</time>
      </trkpt>
      <trkpt lat="43.52769" lon="1.11481">
        <ele>293.9</ele>
        <time>2020-11-29T09:38:33Z</time>
      </trkpt>
      <trkpt lat="43.52768" lon="1.11479">
        <ele>294</ele>
        <time>2020-11-29T09:38:34Z</time>
      </trkpt>
      <trkpt lat="43.52767" lon="1.11476">
        <ele>293.8</ele>
        <time>2020-11-29T09:38:35Z</time>
      </trkpt>
      <trkpt lat="43.52765" lon="1.11472">
        <ele>293.7</ele>
        <time>2020-11-29T09:38:36Z</time>
      </trkpt>
      <trkpt lat="43.52763" lon="1.11469">
        <ele>293.5</ele>
        <time>2020-11-29T09:38:37Z</time>
      </trkpt>
      <trkpt lat="43.52761" lon="1.11466">
        <ele>293.1</ele>
        <time>2020-11-29T09:38:38Z</time>
      </trkpt>
      <trkpt lat="43.5276" lon="1.11465">
        <ele>293.3</ele>
        <time>2020-11-29T09:38:39Z</time>
      </trkpt>
      <trkpt lat="43.52757" lon="1.11463">
        <ele>292.8</ele>
        <time>2020-11-29T09:38:40Z</time>
      </trkpt>
      <trkpt lat="43.52755" lon="1.11463">
        <ele>292.8</ele>
        <time>2020-11-29T09:38:41Z</time>
      </trkpt>
      <trkpt lat="43.52752" lon="1.11462">
        <ele>292.2</ele>
        <time>2020-11-29T09:38:42Z</time>
      </trkpt>
      <trkpt lat="43.52748" lon="1.11462">
        <ele>291.9</ele>
        <time>2020-11-29T09:38:43Z</time>
      </trkpt>
      <trkpt lat="43.52744" lon="1.1146">
        <ele>291.5</ele>
        <time>2020-11-29T09:38:44Z</time>
      </trkpt>
      <trkpt lat="43.52739" lon="1.11459">
        <ele>290.7</ele>
        <time>2020-11-29T09:38:45Z</time>
      </trkpt>
      <trkpt lat="43.52734" lon="1.11458">
        <ele>290.4</ele>
        <time>2020-11-29T09:38:46Z</time>
      </trkpt>
      <trkpt lat="43.52732" lon="1.11459">
        <ele>290</ele>
        <time>2020-11-29T09:38:47Z</time>
      </trkpt>
      <trkpt lat="43.52729" lon="1.11461">
        <ele>289.7</ele>
        <time>2020-11-29T09:38:48Z</time>
      </trkpt>
      <trkpt lat="43.52727" lon="1.11464">
        <ele>289.3</ele>
        <time>2020-11-29T09:38:49Z</time>
      </trkpt>
      <trkpt lat="43.52724" lon="1.11466">
        <ele>289.4</ele>
        <time>2020-11-29T09:38:50Z</time>
      </trkpt>
      <trkpt lat="43.5272" lon="1.11468">
        <ele>288.6</ele>
        <time>2020-11-29T09:38:51Z</time>
      </trkpt>
      <trkpt lat="43.52716" lon="1.11471">
        <ele>288.3</ele>
        <time>2020-11-29T09:38:52Z</time>
      </trkpt>
      <trkpt lat="43.52715" lon="1.11475">
        <ele>288.4</ele>
        <time>2020-11-29T09:38:53Z</time>
      </trkpt>
      <trkpt lat="43.52713" lon="1.11479">
        <ele>288</ele>
        <time>2020-11-29T09:38:54Z</time>
      </trkpt>
      <trkpt lat="43.52712" lon="1.11481">
        <ele>288.1</ele>
        <time>2020-11-29T09:38:55Z</time>
      </trkpt>
      <trkpt lat="43.5271" lon="1.11486">
        <ele>287.7</ele>
        <time>2020-11-29T09:38:56Z</time>
      </trkpt>
      <trkpt lat="43.5271" lon="1.11488">
        <ele>287.7</ele>
        <time>2020-11-29T09:38:57Z</time>
      </trkpt>
      <trkpt lat="43.52709" lon="1.11493">
        <ele>287.7</ele>
        <time>2020-11-29T09:38:58Z</time>
      </trkpt>
      <trkpt lat="43.52709" lon="1.11495">
        <ele>287.7</ele>
        <time>2020-11-29T09:38:59Z</time>
      </trkpt>
      <trkpt lat="43.52712" lon="1.11495">
        <ele>288.1</ele>
        <time>2020-11-29T09:39:00Z</time>
      </trkpt>
      <trkpt lat="43.52712" lon="1.11495">
        <ele>288.1</ele>
        <time>2020-11-29T09:39:01Z</time>
      </trkpt>
      <trkpt lat="43.52713" lon="1.11494">
        <ele>288.2</ele>
        <time>2020-11-29T09:39:02Z</time>
      </trkpt>
      <trkpt lat="43.52714" lon="1.11493">
        <ele>288.3</ele>
        <time>2020-11-29T09:39:03Z</time>
      </trkpt>
      <trkpt lat="43.52715" lon="1.11493">
        <ele>288.7</ele>
        <time>2020-11-29T09:39:04Z</time>
      </trkpt>
      <trkpt lat="43.52718" lon="1.11492">
        <ele>289.2</ele>
        <time>2020-11-29T09:39:05Z</time>
      </trkpt>
      <trkpt lat="43.52718" lon="1.11492">
        <ele>289.2</ele>
        <time>2020-11-29T09:39:06Z</time>
      </trkpt>
      <trkpt lat="43.5272" lon="1.11491">
        <ele>289.3</ele>
        <time>2020-11-29T09:39:07Z</time>
      </trkpt>
      <trkpt lat="43.52722" lon="1.1149">
        <ele>289.8</ele>
        <time>2020-11-29T09:39:08Z</time>
      </trkpt>
      <trkpt lat="43.52724" lon="1.11487">
        <ele>289.8</ele>
        <time>2020-11-29T09:39:09Z</time>
      </trkpt>
      <trkpt lat="43.52725" lon="1.11487">
        <ele>290.3</ele>
        <time>2020-11-29T09:39:10Z</time>
      </trkpt>
      <trkpt lat="43.52727" lon="1.11485">
        <ele>290.3</ele>
        <time>2020-11-29T09:39:11Z</time>
      </trkpt>
      <trkpt lat="43.52729" lon="1.11481">
        <ele>290.8</ele>
        <time>2020-11-29T09:39:12Z</time>
      </trkpt>
      <trkpt lat="43.5273" lon="1.1148">
        <ele>290.9</ele>
        <time>2020-11-29T09:39:13Z</time>
      </trkpt>
      <trkpt lat="43.52733" lon="1.11476">
        <ele>291.3</ele>
        <time>2020-11-29T09:39:14Z</time>
      </trkpt>
      <trkpt lat="43.52734" lon="1.11475">
        <ele>291.8</ele>
        <time>2020-11-29T09:39:15Z</time>
      </trkpt>
      <trkpt lat="43.52737" lon="1.11473">
        <ele>292.3</ele>
        <time>2020-11-29T09:39:16Z</time>
      </trkpt>
      <trkpt lat="43.52737" lon="1.11472">
        <ele>292.3</ele>
        <time>2020-11-29T09:39:17Z</time>
      </trkpt>
      <trkpt lat="43.52739" lon="1.11471">
        <ele>292.3</ele>
        <time>2020-11-29T09:39:18Z</time>
      </trkpt>
      <trkpt lat="43.5274" lon="1.1147">
        <ele>292.8</ele>
        <time>2020-11-29T09:39:19Z</time>
      </trkpt>
      <trkpt lat="43.52743" lon="1.11469">
        <ele>293.2</ele>
        <time>2020-11-29T09:39:20Z</time>
      </trkpt>
      <trkpt lat="43.52744" lon="1.11469">
        <ele>293.3</ele>
        <time>2020-11-29T09:39:21Z</time>
      </trkpt>
      <trkpt lat="43.52745" lon="1.11469">
        <ele>293.3</ele>
        <time>2020-11-29T09:39:22Z</time>
      </trkpt>
      <trkpt lat="43.52746" lon="1.11468">
        <ele>293.6</ele>
        <time>2020-11-29T09:39:23Z</time>
      </trkpt>
      <trkpt lat="43.52747" lon="1.11467">
        <ele>293.7</ele>
        <time>2020-11-29T09:39:24Z</time>
      </trkpt>
      <trkpt lat="43.52748" lon="1.11466">
        <ele>293.7</ele>
        <time>2020-11-29T09:39:25Z</time>
      </trkpt>
      <trkpt lat="43.52748" lon="1.11465">
        <ele>293.7</ele>
        <time>2020-11-29T09:39:26Z</time>
      </trkpt>
      <trkpt lat="43.52751" lon="1.11468">
        <ele>294.2</ele>
        <time>2020-11-29T09:39:27Z</time>
      </trkpt>
      <trkpt lat="43.52752" lon="1.1147">
        <ele>294.8</ele>
        <time>2020-11-29T09:39:28Z</time>
      </trkpt>
      <trkpt lat="43.52753" lon="1.11471">
        <ele>294.8</ele>
        <time>2020-11-29T09:39:29Z</time>
      </trkpt>
      <trkpt lat="43.52754" lon="1.11472">
        <ele>294.9</ele>
        <time>2020-11-29T09:39:30Z</time>
      </trkpt>
      <trkpt lat="43.52755" lon="1.11472">
        <ele>295.3</ele>
        <time>2020-11-29T09:39:31Z</time>
      </trkpt>
      <trkpt lat="43.52756" lon="1.11473">
        <ele>295.4</ele>
        <time>2020-11-29T09:39:32Z</time>
      </trkpt>
      <trkpt lat="43.52756" lon="1.11474">
        <ele>295.5</ele>
        <time>2020-11-29T09:39:33Z</time>
      </trkpt>
      <trkpt lat="43.52758" lon="1.11474">
        <ele>295.5</ele>
        <time>2020-11-29T09:39:34Z</time>
      </trkpt>
      <trkpt lat="43.52758" lon="1.11475">
        <ele>295.6</ele>
        <time>2020-11-29T09:39:35Z</time>
      </trkpt>
      <trkpt lat="43.52759" lon="1.11474">
        <ele>295.9</ele>
        <time>2020-11-29T09:39:36Z</time>
      </trkpt>
      <trkpt lat="43.5276" lon="1.11476">
        <ele>296</ele>
        <time>2020-11-29T09:39:37Z</time>
      </trkpt>
      <trkpt lat="43.5276" lon="1.11477">
        <ele>296.1</ele>
        <time>2020-11-29T09:39:38Z</time>
      </trkpt>
      <trkpt lat="43.52761" lon="1.11478">
        <ele>296.2</ele>
        <time>2020-11-29T09:39:39Z</time>
      </trkpt>
      <trkpt lat="43.52762" lon="1.11478">
        <ele>296.5</ele>
        <time>2020-11-29T09:39:40Z</time>
      </trkpt>
      <trkpt lat="43.52764" lon="1.11479">
        <ele>296.5</ele>
        <time>2020-11-29T09:39:41Z</time>
      </trkpt>
      <trkpt lat="43.52766" lon="1.11478">
        <ele>296.8</ele>
        <time>2020-11-29T09:39:42Z</time>
      </trkpt>
      <trkpt lat="43.52767" lon="1.11479">
        <ele>296.8</ele>
        <time>2020-11-29T09:39:43Z</time>
      </trkpt>
      <trkpt lat="43.52767" lon="1.1148">
        <ele>296.8</ele>
        <time>2020-11-29T09:39:44Z</time>
      </trkpt>
      <trkpt lat="43.52768" lon="1.11479">
        <ele>297</ele>
        <time>2020-11-29T09:39:45Z</time>
      </trkpt>
      <trkpt lat="43.52768" lon="1.1148">
        <ele>297.1</ele>
        <time>2020-11-29T09:39:46Z</time>
      </trkpt>
      <trkpt lat="43.52769" lon="1.11479">
        <ele>297.1</ele>
        <time>2020-11-29T09:39:47Z</time>
      </trkpt>
      <trkpt lat="43.5277" lon="1.1148">
        <ele>297.2</ele>
        <time>2020-11-29T09:39:48Z</time>
      </trkpt>
      <trkpt lat="43.52772" lon="1.11483">
        <ele>297.5</ele>
        <time>2020-11-29T09:39:49Z</time>
      </trkpt>
      <trkpt lat="43.52773" lon="1.11483">
        <ele>297.5</ele>
        <time>2020-11-29T09:39:50Z</time>
      </trkpt>
      <trkpt lat="43.52772" lon="1.11483">
        <ele>297.5</ele>
        <time>2020-11-29T09:39:51Z</time>
      </trkpt>
      <trkpt lat="43.52772" lon="1.11483">
        <ele>297.6</ele>
        <time>2020-11-29T09:39:52Z</time>
      </trkpt>
      <trkpt lat="43.52772" lon="1.11483">
        <ele>297.6</ele>
        <time>2020-11-29T09:39:53Z</time>
      </trkpt>
      <trkpt lat="43.52772" lon="1.11483">
        <ele>297.7</ele>
        <time>2020-11-29T09:39:54Z</time>
      </trkpt>
      <trkpt lat="43.52772" lon="1.11483">
        <ele>297.7</ele>
        <time>2020-11-29T09:39:55Z</time>
      </trkpt>
      <trkpt lat="43.52772" lon="1.11483">
        <ele>297.7</ele>
        <time>2020-11-29T09:39:56Z</time>
      </trkpt>
      <trkpt lat="43.52772" lon="1.11483">
        <ele>297.8</ele>
        <time>2020-11-29T09:39:57Z</time>
      </trkpt>
      <trkpt lat="43.52772" lon="1.11483">
        <ele>297.8</ele>
        <time>2020-11-29T09:39:58Z</time>
      </trkpt>
      <trkpt lat="43.52772" lon="1.11483">
        <ele>297.8</ele>
        <time>2020-11-29T09:39:59Z</time>
      </trkpt>
      <trkpt lat="43.52771" lon="1.11483">
        <ele>297.9</ele>
        <time>2020-11-29T09:40:00Z</time>
      </trkpt>
      <trkpt lat="43.52771" lon="1.11483">
        <ele>297.9</ele>
        <time>2020-11-29T09:40:01Z</time>
      </trkpt>
      <trkpt lat="43.52771" lon="1.11483">
        <ele>298</ele>
        <time>2020-11-29T09:40:02Z</time>
      </trkpt>
      <trkpt lat="43.52771" lon="1.11483">
        <ele>298</ele>
        <time>2020-11-29T09:40:03Z</time>
      </trkpt>
      <trkpt lat="43.52771" lon="1.11483">
        <ele>298</ele>
        <time>2020-11-29T09:40:04Z</time>
      </trkpt>
      <trkpt lat="43.52771" lon="1.11483">
        <ele>298.1</ele>
        <time>2020-11-29T09:40:05Z</time>
      </trkpt>
      <trkpt lat="43.52771" lon="1.11483">
        <ele>298.1</ele>
        <time>2020-11-29T09:40:06Z</time>
      </trkpt>
      <trkpt lat="43.52771" lon="1.11483">
        <ele>298.2</ele>
        <time>2020-11-29T09:40:07Z</time>
      </trkpt>
      <trkpt lat="43.52771" lon="1.11483">
        <ele>298.2</ele>
        <time>2020-11-29T09:40:08Z</time>
      </trkpt>
      <trkpt lat="43.52771" lon="1.11483">
        <ele>298.2</ele>
        <time>2020-11-29T09:40:09Z</time>
      </trkpt>
      <trkpt lat="43.52771" lon="1.11483">
        <ele>298.3</ele>
        <time>2020-11-29T09:40:10Z</time>
      </trkpt>
      <trkpt lat="43.5277" lon="1.11483">
        <ele>298.2</ele>
        <time>2020-11-29T09:40:11Z</time>
      </trkpt>
      <trkpt lat="43.5277" lon="1.11483">
        <ele>298.2</ele>
        <time>2020-11-29T09:40:12Z</time>
      </trkpt>
      <trkpt lat="43.5277" lon="1.11483">
        <ele>298.2</ele>
        <time>2020-11-29T09:40:13Z</time>
      </trkpt>
      <trkpt lat="43.5277" lon="1.11483">
        <ele>298.3</ele>
        <time>2020-11-29T09:40:14Z</time>
      </trkpt>
      <trkpt lat="43.5277" lon="1.11483">
        <ele>298.3</ele>
        <time>2020-11-29T09:40:15Z</time>
      </trkpt>
      <trkpt lat="43.5277" lon="1.11483">
        <ele>298.3</ele>
        <time>2020-11-29T09:40:16Z</time>
      </trkpt>
      <trkpt lat="43.5277" lon="1.11483">
        <ele>298.4</ele>
        <time>2020-11-29T09:40:17Z</time>
      </trkpt>
      <trkpt lat="43.5277" lon="1.11482">
        <ele>298.4</ele>
        <time>2020-11-29T09:40:18Z</time>
      </trkpt>
      <trkpt lat="43.5277" lon="1.11482">
        <ele>298.5</ele>
        <time>2020-11-29T09:40:19Z</time>
      </trkpt>
      <trkpt lat="43.5277" lon="1.11482">
        <ele>298.5</ele>
        <time>2020-11-29T09:40:20Z</time>
      </trkpt>
      <trkpt lat="43.52769" lon="1.11482">
        <ele>298.5</ele>
        <time>2020-11-29T09:40:21Z</time>
      </trkpt>
      <trkpt lat="43.52769" lon="1.11482">
        <ele>298.6</ele>
        <time>2020-11-29T09:40:22Z</time>
      </trkpt>
      <trkpt lat="43.52769" lon="1.11482">
        <ele>298.6</ele>
        <time>2020-11-29T09:40:23Z</time>
      </trkpt>
      <trkpt lat="43.52769" lon="1.11482">
        <ele>298.6</ele>
        <time>2020-11-29T09:40:24Z</time>
      </trkpt>
      <trkpt lat="43.52769" lon="1.11482">
        <ele>298.7</ele>
        <time>2020-11-29T09:40:25Z</time>
      </trkpt>
      <trkpt lat="43.52769" lon="1.11482">
        <ele>298.7</ele>
        <time>2020-11-29T09:40:26Z</time>
      </trkpt>
      <trkpt lat="43.52769" lon="1.11482">
        <ele>298.8</ele>
        <time>2020-11-29T09:40:27Z</time>
      </trkpt>
      <trkpt lat="43.52769" lon="1.11482">
        <ele>298.8</ele>
        <time>2020-11-29T09:40:28Z</time>
      </trkpt>
      <trkpt lat="43.52769" lon="1.11482">
        <ele>298.8</ele>
        <time>2020-11-29T09:40:29Z</time>
      </trkpt>
      <trkpt lat="43.52768" lon="1.11482">
        <ele>298.9</ele>
        <time>2020-11-29T09:40:30Z</time>
      </trkpt>
      <trkpt lat="43.52766" lon="1.1148">
        <ele>298.6</ele>
        <time>2020-11-29T09:40:31Z</time>
      </trkpt>
      <trkpt lat="43.52765" lon="1.1148">
        <ele>298.6</ele>
        <time>2020-11-29T09:40:32Z</time>
      </trkpt>
      <trkpt lat="43.52765" lon="1.1148">
        <ele>298.7</ele>
        <time>2020-11-29T09:40:33Z</time>
      </trkpt>
      <trkpt lat="43.52765" lon="1.1148">
        <ele>298.7</ele>
        <time>2020-11-29T09:40:34Z</time>
      </trkpt>
      <trkpt lat="43.52764" lon="1.11481">
        <ele>298.5</ele>
        <time>2020-11-29T09:40:35Z</time>
      </trkpt>
      <trkpt lat="43.52763" lon="1.1148">
        <ele>298.6</ele>
        <time>2020-11-29T09:40:36Z</time>
      </trkpt>
      <trkpt lat="43.52763" lon="1.11479">
        <ele>298.6</ele>
        <time>2020-11-29T09:40:37Z</time>
      </trkpt>
      <trkpt lat="43.52764" lon="1.11478">
        <ele>298.7</ele>
        <time>2020-11-29T09:40:38Z</time>
      </trkpt>
      <trkpt lat="43.52764" lon="1.11477">
        <ele>298.8</ele>
        <time>2020-11-29T09:40:39Z</time>
      </trkpt>
      <trkpt lat="43.52765" lon="1.11475">
        <ele>298.8</ele>
        <time>2020-11-29T09:40:40Z</time>
      </trkpt>
      <trkpt lat="43.52766" lon="1.11472">
        <ele>298.7</ele>
        <time>2020-11-29T09:40:41Z</time>
      </trkpt>
      <trkpt lat="43.52767" lon="1.11471">
        <ele>298.7</ele>
        <time>2020-11-29T09:40:42Z</time>
      </trkpt>
      <trkpt lat="43.52767" lon="1.1147">
        <ele>298.8</ele>
        <time>2020-11-29T09:40:43Z</time>
      </trkpt>
      <trkpt lat="43.52767" lon="1.1147">
        <ele>298.8</ele>
        <time>2020-11-29T09:40:44Z</time>
      </trkpt>
      <trkpt lat="43.52768" lon="1.11471">
        <ele>299</ele>
        <time>2020-11-29T09:40:45Z</time>
      </trkpt>
      <trkpt lat="43.52767" lon="1.11472">
        <ele>299.1</ele>
        <time>2020-11-29T09:40:46Z</time>
      </trkpt>
      <trkpt lat="43.52768" lon="1.11472">
        <ele>299.1</ele>
        <time>2020-11-29T09:40:47Z</time>
      </trkpt>
      <trkpt lat="43.52768" lon="1.11474">
        <ele>299.3</ele>
        <time>2020-11-29T09:40:48Z</time>
      </trkpt>
      <trkpt lat="43.52768" lon="1.11475">
        <ele>299.3</ele>
        <time>2020-11-29T09:40:49Z</time>
      </trkpt>
      <trkpt lat="43.52769" lon="1.11476">
        <ele>299.4</ele>
        <time>2020-11-29T09:40:50Z</time>
      </trkpt>
      <trkpt lat="43.52769" lon="1.11477">
        <ele>299.5</ele>
        <time>2020-11-29T09:40:51Z</time>
      </trkpt>
      <trkpt lat="43.52769" lon="1.11478">
        <ele>299.6</ele>
        <time>2020-11-29T09:40:52Z</time>
      </trkpt>
      <trkpt lat="43.5277" lon="1.11479">
        <ele>299.6</ele>
        <time>2020-11-29T09:40:53Z</time>
      </trkpt>
      <trkpt lat="43.5277" lon="1.11479">
        <ele>299.7</ele>
        <time>2020-11-29T09:40:54Z</time>
      </trkpt>
      <trkpt lat="43.5277" lon="1.11481">
        <ele>299.7</ele>
        <time>2020-11-29T09:40:55Z</time>
      </trkpt>
      <trkpt lat="43.52769" lon="1.11483">
        <ele>299.9</ele>
        <time>2020-11-29T09:40:56Z</time>
      </trkpt>
      <trkpt lat="43.52769" lon="1.11484">
        <ele>299.9</ele>
        <time>2020-11-29T09:40:57Z</time>
      </trkpt>
      <trkpt lat="43.52769" lon="1.11486">
        <ele>300</ele>
        <time>2020-11-29T09:40:58Z</time>
      </trkpt>
      <trkpt lat="43.52769" lon="1.11487">
        <ele>300.1</ele>
        <time>2020-11-29T09:40:59Z</time>
      </trkpt>
      <trkpt lat="43.52769" lon="1.11488">
        <ele>300.1</ele>
        <time>2020-11-29T09:41:00Z</time>
      </trkpt>
      <trkpt lat="43.52769" lon="1.11488">
        <ele>300.2</ele>
        <time>2020-11-29T09:41:01Z</time>
      </trkpt>
      <trkpt lat="43.5277" lon="1.11488">
        <ele>300.2</ele>
        <time>2020-11-29T09:41:02Z</time>
      </trkpt>
      <trkpt lat="43.5277" lon="1.11489">
        <ele>300.2</ele>
        <time>2020-11-29T09:41:03Z</time>
      </trkpt>
      <trkpt lat="43.52771" lon="1.1149">
        <ele>300.5</ele>
        <time>2020-11-29T09:41:04Z</time>
      </trkpt>
      <trkpt lat="43.52772" lon="1.1149">
        <ele>300.5</ele>
        <time>2020-11-29T09:41:05Z</time>
      </trkpt>
      <trkpt lat="43.52773" lon="1.11491">
        <ele>300.6</ele>
        <time>2020-11-29T09:41:06Z</time>
      </trkpt>
      <trkpt lat="43.52773" lon="1.11491">
        <ele>300.6</ele>
        <time>2020-11-29T09:41:07Z</time>
      </trkpt>
      <trkpt lat="43.52773" lon="1.11493">
        <ele>300.7</ele>
        <time>2020-11-29T09:41:08Z</time>
      </trkpt>
      <trkpt lat="43.52775" lon="1.11497">
        <ele>300.9</ele>
        <time>2020-11-29T09:41:09Z</time>
      </trkpt>
      <trkpt lat="43.52776" lon="1.11499">
        <ele>301</ele>
        <time>2020-11-29T09:41:10Z</time>
      </trkpt>
      <trkpt lat="43.52778" lon="1.11502">
        <ele>301.1</ele>
        <time>2020-11-29T09:41:11Z</time>
      </trkpt>
      <trkpt lat="43.52779" lon="1.11503">
        <ele>301.1</ele>
        <time>2020-11-29T09:41:12Z</time>
      </trkpt>
      <trkpt lat="43.52781" lon="1.11508">
        <ele>301.2</ele>
        <time>2020-11-29T09:41:13Z</time>
      </trkpt>
      <trkpt lat="43.52783" lon="1.11509">
        <ele>301.3</ele>
        <time>2020-11-29T09:41:14Z</time>
      </trkpt>
      <trkpt lat="43.52783" lon="1.1151">
        <ele>301.3</ele>
        <time>2020-11-29T09:41:15Z</time>
      </trkpt>
      <trkpt lat="43.52785" lon="1.11512">
        <ele>301.3</ele>
        <time>2020-11-29T09:41:16Z</time>
      </trkpt>
      <trkpt lat="43.52786" lon="1.11514">
        <ele>301.4</ele>
        <time>2020-11-29T09:41:17Z</time>
      </trkpt>
      <trkpt lat="43.52786" lon="1.11516">
        <ele>301.4</ele>
        <time>2020-11-29T09:41:18Z</time>
      </trkpt>
      <trkpt lat="43.52787" lon="1.11517">
        <ele>301.4</ele>
        <time>2020-11-29T09:41:19Z</time>
      </trkpt>
      <trkpt lat="43.52787" lon="1.11519">
        <ele>301.4</ele>
        <time>2020-11-29T09:41:20Z</time>
      </trkpt>
      <trkpt lat="43.52788" lon="1.1152">
        <ele>301.5</ele>
        <time>2020-11-29T09:41:21Z</time>
      </trkpt>
      <trkpt lat="43.52788" lon="1.11521">
        <ele>301.5</ele>
        <time>2020-11-29T09:41:22Z</time>
      </trkpt>
      <trkpt lat="43.52788" lon="1.11521">
        <ele>301.5</ele>
        <time>2020-11-29T09:41:23Z</time>
      </trkpt>
      <trkpt lat="43.52789" lon="1.11523">
        <ele>301.6</ele>
        <time>2020-11-29T09:41:24Z</time>
      </trkpt>
      <trkpt lat="43.5279" lon="1.11523">
        <ele>301.6</ele>
        <time>2020-11-29T09:41:25Z</time>
      </trkpt>
      <trkpt lat="43.52791" lon="1.11523">
        <ele>301.6</ele>
        <time>2020-11-29T09:41:26Z</time>
      </trkpt>
      <trkpt lat="43.52792" lon="1.11523">
        <ele>301.7</ele>
        <time>2020-11-29T09:41:27Z</time>
      </trkpt>
      <trkpt lat="43.52793" lon="1.11523">
        <ele>301.7</ele>
        <time>2020-11-29T09:41:28Z</time>
      </trkpt>
      <trkpt lat="43.52792" lon="1.11524">
        <ele>301.7</ele>
        <time>2020-11-29T09:41:29Z</time>
      </trkpt>
      <trkpt lat="43.52792" lon="1.11524">
        <ele>301.8</ele>
        <time>2020-11-29T09:41:30Z</time>
      </trkpt>
      <trkpt lat="43.52793" lon="1.11527">
        <ele>301.8</ele>
        <time>2020-11-29T09:41:31Z</time>
      </trkpt>
      <trkpt lat="43.52792" lon="1.11527">
        <ele>301.9</ele>
        <time>2020-11-29T09:41:32Z</time>
      </trkpt>
      <trkpt lat="43.52792" lon="1.11528">
        <ele>301.9</ele>
        <time>2020-11-29T09:41:33Z</time>
      </trkpt>
      <trkpt lat="43.52794" lon="1.11524">
        <ele>301.9</ele>
        <time>2020-11-29T09:41:34Z</time>
      </trkpt>
      <trkpt lat="43.52796" lon="1.11522">
        <ele>301.9</ele>
        <time>2020-11-29T09:41:35Z</time>
      </trkpt>
      <trkpt lat="43.52796" lon="1.11522">
        <ele>302</ele>
        <time>2020-11-29T09:41:36Z</time>
      </trkpt>
      <trkpt lat="43.52796" lon="1.11522">
        <ele>302</ele>
        <time>2020-11-29T09:41:37Z</time>
      </trkpt>
      <trkpt lat="43.52797" lon="1.11523">
        <ele>302.1</ele>
        <time>2020-11-29T09:41:38Z</time>
      </trkpt>
      <trkpt lat="43.52797" lon="1.11525">
        <ele>302.1</ele>
        <time>2020-11-29T09:41:39Z</time>
      </trkpt>
      <trkpt lat="43.52798" lon="1.11526">
        <ele>302.1</ele>
        <time>2020-11-29T09:41:40Z</time>
      </trkpt>
      <trkpt lat="43.52799" lon="1.11528">
        <ele>302.2</ele>
        <time>2020-11-29T09:41:41Z</time>
      </trkpt>
      <trkpt lat="43.528" lon="1.11532">
        <ele>302.2</ele>
        <time>2020-11-29T09:41:42Z</time>
      </trkpt>
      <trkpt lat="43.52802" lon="1.11536">
        <ele>302.3</ele>
        <time>2020-11-29T09:41:43Z</time>
      </trkpt>
      <trkpt lat="43.52806" lon="1.1154">
        <ele>302.4</ele>
        <time>2020-11-29T09:41:44Z</time>
      </trkpt>
      <trkpt lat="43.52809" lon="1.11542">
        <ele>302.4</ele>
        <time>2020-11-29T09:41:45Z</time>
      </trkpt>
      <trkpt lat="43.52812" lon="1.11546">
        <ele>302.4</ele>
        <time>2020-11-29T09:41:46Z</time>
      </trkpt>
      <trkpt lat="43.52813" lon="1.11548">
        <ele>302.4</ele>
        <time>2020-11-29T09:41:47Z</time>
      </trkpt>
      <trkpt lat="43.52815" lon="1.1155">
        <ele>302.4</ele>
        <time>2020-11-29T09:41:48Z</time>
      </trkpt>
      <trkpt lat="43.52818" lon="1.11553">
        <ele>302.4</ele>
        <time>2020-11-29T09:41:49Z</time>
      </trkpt>
      <trkpt lat="43.52821" lon="1.11557">
        <ele>302.4</ele>
        <time>2020-11-29T09:41:50Z</time>
      </trkpt>
      <trkpt lat="43.52823" lon="1.11559">
        <ele>302.4</ele>
        <time>2020-11-29T09:41:51Z</time>
      </trkpt>
      <trkpt lat="43.52826" lon="1.11562">
        <ele>302.4</ele>
        <time>2020-11-29T09:41:52Z</time>
      </trkpt>
      <trkpt lat="43.52829" lon="1.11565">
        <ele>302.3</ele>
        <time>2020-11-29T09:41:53Z</time>
      </trkpt>
      <trkpt lat="43.52831" lon="1.11568">
        <ele>302.2</ele>
        <time>2020-11-29T09:41:54Z</time>
      </trkpt>
      <trkpt lat="43.52833" lon="1.11571">
        <ele>302.2</ele>
        <time>2020-11-29T09:41:55Z</time>
      </trkpt>
      <trkpt lat="43.52835" lon="1.11574">
        <ele>302.2</ele>
        <time>2020-11-29T09:41:56Z</time>
      </trkpt>
      <trkpt lat="43.52837" lon="1.11577">
        <ele>302.1</ele>
        <time>2020-11-29T09:41:57Z</time>
      </trkpt>
      <trkpt lat="43.5284" lon="1.11579">
        <ele>302.1</ele>
        <time>2020-11-29T09:41:58Z</time>
      </trkpt>
      <trkpt lat="43.52843" lon="1.11583">
        <ele>302</ele>
        <time>2020-11-29T09:41:59Z</time>
      </trkpt>
      <trkpt lat="43.52844" lon="1.11584">
        <ele>302</ele>
        <time>2020-11-29T09:42:00Z</time>
      </trkpt>
      <trkpt lat="43.52847" lon="1.11586">
        <ele>301.9</ele>
        <time>2020-11-29T09:42:01Z</time>
      </trkpt>
      <trkpt lat="43.52848" lon="1.11587">
        <ele>302</ele>
        <time>2020-11-29T09:42:02Z</time>
      </trkpt>
      <trkpt lat="43.5285" lon="1.11588">
        <ele>302</ele>
        <time>2020-11-29T09:42:03Z</time>
      </trkpt>
      <trkpt lat="43.52851" lon="1.11589">
        <ele>302</ele>
        <time>2020-11-29T09:42:04Z</time>
      </trkpt>
      <trkpt lat="43.52854" lon="1.11589">
        <ele>301.9</ele>
        <time>2020-11-29T09:42:05Z</time>
      </trkpt>
      <trkpt lat="43.52857" lon="1.11589">
        <ele>301.9</ele>
        <time>2020-11-29T09:42:06Z</time>
      </trkpt>
      <trkpt lat="43.52859" lon="1.1159">
        <ele>302</ele>
        <time>2020-11-29T09:42:07Z</time>
      </trkpt>
      <trkpt lat="43.52862" lon="1.11589">
        <ele>302</ele>
        <time>2020-11-29T09:42:08Z</time>
      </trkpt>
      <trkpt lat="43.52863" lon="1.11589">
        <ele>302</ele>
        <time>2020-11-29T09:42:09Z</time>
      </trkpt>
      <trkpt lat="43.52866" lon="1.11588">
        <ele>302.1</ele>
        <time>2020-11-29T09:42:10Z</time>
      </trkpt>
      <trkpt lat="43.52867" lon="1.11587">
        <ele>302.1</ele>
        <time>2020-11-29T09:42:11Z</time>
      </trkpt>
      <trkpt lat="43.5287" lon="1.11585">
        <ele>302.2</ele>
        <time>2020-11-29T09:42:12Z</time>
      </trkpt>
      <trkpt lat="43.5287" lon="1.11585">
        <ele>302.2</ele>
        <time>2020-11-29T09:42:13Z</time>
      </trkpt>
      <trkpt lat="43.52873" lon="1.11584">
        <ele>302.3</ele>
        <time>2020-11-29T09:42:14Z</time>
      </trkpt>
      <trkpt lat="43.52874" lon="1.11584">
        <ele>302.4</ele>
        <time>2020-11-29T09:42:15Z</time>
      </trkpt>
      <trkpt lat="43.52877" lon="1.11582">
        <ele>302.4</ele>
        <time>2020-11-29T09:42:16Z</time>
      </trkpt>
      <trkpt lat="43.52878" lon="1.11581">
        <ele>302.5</ele>
        <time>2020-11-29T09:42:17Z</time>
      </trkpt>
      <trkpt lat="43.52881" lon="1.11579">
        <ele>302.6</ele>
        <time>2020-11-29T09:42:18Z</time>
      </trkpt>
      <trkpt lat="43.52881" lon="1.11579">
        <ele>302.6</ele>
        <time>2020-11-29T09:42:19Z</time>
      </trkpt>
      <trkpt lat="43.52884" lon="1.11577">
        <ele>302.7</ele>
        <time>2020-11-29T09:42:20Z</time>
      </trkpt>
      <trkpt lat="43.52885" lon="1.11576">
        <ele>302.7</ele>
        <time>2020-11-29T09:42:21Z</time>
      </trkpt>
      <trkpt lat="43.52888" lon="1.11574">
        <ele>302.8</ele>
        <time>2020-11-29T09:42:22Z</time>
      </trkpt>
      <trkpt lat="43.52889" lon="1.11573">
        <ele>302.9</ele>
        <time>2020-11-29T09:42:23Z</time>
      </trkpt>
      <trkpt lat="43.52893" lon="1.11572">
        <ele>303</ele>
        <time>2020-11-29T09:42:24Z</time>
      </trkpt>
      <trkpt lat="43.52894" lon="1.11572">
        <ele>303</ele>
        <time>2020-11-29T09:42:25Z</time>
      </trkpt>
      <trkpt lat="43.52897" lon="1.11571">
        <ele>303.1</ele>
        <time>2020-11-29T09:42:26Z</time>
      </trkpt>
      <trkpt lat="43.52898" lon="1.11571">
        <ele>303.2</ele>
        <time>2020-11-29T09:42:27Z</time>
      </trkpt>
      <trkpt lat="43.52902" lon="1.11569">
        <ele>303.3</ele>
        <time>2020-11-29T09:42:28Z</time>
      </trkpt>
      <trkpt lat="43.52903" lon="1.11569">
        <ele>303.3</ele>
        <time>2020-11-29T09:42:29Z</time>
      </trkpt>
      <trkpt lat="43.52906" lon="1.11567">
        <ele>303.4</ele>
        <time>2020-11-29T09:42:30Z</time>
      </trkpt>
      <trkpt lat="43.52908" lon="1.11565">
        <ele>303.5</ele>
        <time>2020-11-29T09:42:31Z</time>
      </trkpt>
      <trkpt lat="43.52909" lon="1.11563">
        <ele>303.5</ele>
        <time>2020-11-29T09:42:32Z</time>
      </trkpt>
      <trkpt lat="43.52909" lon="1.1156">
        <ele>303.5</ele>
        <time>2020-11-29T09:42:33Z</time>
      </trkpt>
      <trkpt lat="43.5291" lon="1.11555">
        <ele>303.6</ele>
        <time>2020-11-29T09:42:34Z</time>
      </trkpt>
      <trkpt lat="43.5291" lon="1.11549">
        <ele>303.6</ele>
        <time>2020-11-29T09:42:35Z</time>
      </trkpt>
      <trkpt lat="43.5291" lon="1.11542">
        <ele>303.6</ele>
        <time>2020-11-29T09:42:36Z</time>
      </trkpt>
      <trkpt lat="43.52911" lon="1.11536">
        <ele>303.7</ele>
        <time>2020-11-29T09:42:37Z</time>
      </trkpt>
      <trkpt lat="43.52912" lon="1.11529">
        <ele>303.7</ele>
        <time>2020-11-29T09:42:38Z</time>
      </trkpt>
      <trkpt lat="43.52914" lon="1.11524">
        <ele>303.7</ele>
        <time>2020-11-29T09:42:39Z</time>
      </trkpt>
      <trkpt lat="43.52916" lon="1.11517">
        <ele>303.7</ele>
        <time>2020-11-29T09:42:40Z</time>
      </trkpt>
      <trkpt lat="43.52917" lon="1.1151">
        <ele>303.8</ele>
        <time>2020-11-29T09:42:41Z</time>
      </trkpt>
      <trkpt lat="43.52919" lon="1.11505">
        <ele>303.8</ele>
        <time>2020-11-29T09:42:42Z</time>
      </trkpt>
      <trkpt lat="43.5292" lon="1.11499">
        <ele>303.9</ele>
        <time>2020-11-29T09:42:43Z</time>
      </trkpt>
      <trkpt lat="43.52921" lon="1.11494">
        <ele>304</ele>
        <time>2020-11-29T09:42:44Z</time>
      </trkpt>
      <trkpt lat="43.52922" lon="1.11488">
        <ele>304</ele>
        <time>2020-11-29T09:42:45Z</time>
      </trkpt>
      <trkpt lat="43.52922" lon="1.11483">
        <ele>304.1</ele>
        <time>2020-11-29T09:42:46Z</time>
      </trkpt>
      <trkpt lat="43.52922" lon="1.11478">
        <ele>304.2</ele>
        <time>2020-11-29T09:42:47Z</time>
      </trkpt>
      <trkpt lat="43.52923" lon="1.11474">
        <ele>304.2</ele>
        <time>2020-11-29T09:42:48Z</time>
      </trkpt>
      <trkpt lat="43.52924" lon="1.11469">
        <ele>304.3</ele>
        <time>2020-11-29T09:42:49Z</time>
      </trkpt>
      <trkpt lat="43.52925" lon="1.11467">
        <ele>304.3</ele>
        <time>2020-11-29T09:42:50Z</time>
      </trkpt>
      <trkpt lat="43.52926" lon="1.11462">
        <ele>304.4</ele>
        <time>2020-11-29T09:42:51Z</time>
      </trkpt>
      <trkpt lat="43.52927" lon="1.1146">
        <ele>304.4</ele>
        <time>2020-11-29T09:42:52Z</time>
      </trkpt>
      <trkpt lat="43.52927" lon="1.11455">
        <ele>304.5</ele>
        <time>2020-11-29T09:42:53Z</time>
      </trkpt>
      <trkpt lat="43.52927" lon="1.11453">
        <ele>304.5</ele>
        <time>2020-11-29T09:42:54Z</time>
      </trkpt>
      <trkpt lat="43.52926" lon="1.11448">
        <ele>304.6</ele>
        <time>2020-11-29T09:42:55Z</time>
      </trkpt>
      <trkpt lat="43.52926" lon="1.11444">
        <ele>304.7</ele>
        <time>2020-11-29T09:42:56Z</time>
      </trkpt>
      <trkpt lat="43.52925" lon="1.11439">
        <ele>304.7</ele>
        <time>2020-11-29T09:42:57Z</time>
      </trkpt>
      <trkpt lat="43.52926" lon="1.11434">
        <ele>304.8</ele>
        <time>2020-11-29T09:42:58Z</time>
      </trkpt>
      <trkpt lat="43.52926" lon="1.1143">
        <ele>304.9</ele>
        <time>2020-11-29T09:42:59Z</time>
      </trkpt>
      <trkpt lat="43.52927" lon="1.11425">
        <ele>305</ele>
        <time>2020-11-29T09:43:01Z</time>
      </trkpt>
      <trkpt lat="43.52927" lon="1.11421">
        <ele>305</ele>
        <time>2020-11-29T09:43:02Z</time>
      </trkpt>
      <trkpt lat="43.52927" lon="1.11416">
        <ele>305.1</ele>
        <time>2020-11-29T09:43:03Z</time>
      </trkpt>
      <trkpt lat="43.52927" lon="1.1141">
        <ele>305.2</ele>
        <time>2020-11-29T09:43:04Z</time>
      </trkpt>
      <trkpt lat="43.52927" lon="1.11406">
        <ele>305.2</ele>
        <time>2020-11-29T09:43:05Z</time>
      </trkpt>
      <trkpt lat="43.52926" lon="1.11403">
        <ele>305.3</ele>
        <time>2020-11-29T09:43:06Z</time>
      </trkpt>
      <trkpt lat="43.52926" lon="1.114">
        <ele>305.3</ele>
        <time>2020-11-29T09:43:07Z</time>
      </trkpt>
      <trkpt lat="43.52926" lon="1.11398">
        <ele>305.4</ele>
        <time>2020-11-29T09:43:08Z</time>
      </trkpt>
      <trkpt lat="43.52925" lon="1.11392">
        <ele>305.4</ele>
        <time>2020-11-29T09:43:09Z</time>
      </trkpt>
      <trkpt lat="43.52925" lon="1.1139">
        <ele>305.5</ele>
        <time>2020-11-29T09:43:10Z</time>
      </trkpt>
      <trkpt lat="43.52925" lon="1.11386">
        <ele>305.5</ele>
        <time>2020-11-29T09:43:11Z</time>
      </trkpt>
      <trkpt lat="43.52924" lon="1.11382">
        <ele>305.6</ele>
        <time>2020-11-29T09:43:12Z</time>
      </trkpt>
      <trkpt lat="43.52925" lon="1.11377">
        <ele>305.6</ele>
        <time>2020-11-29T09:43:13Z</time>
      </trkpt>
      <trkpt lat="43.52924" lon="1.11373">
        <ele>305.7</ele>
        <time>2020-11-29T09:43:14Z</time>
      </trkpt>
      <trkpt lat="43.52923" lon="1.11371">
        <ele>305.7</ele>
        <time>2020-11-29T09:43:15Z</time>
      </trkpt>
      <trkpt lat="43.52923" lon="1.11366">
        <ele>305.8</ele>
        <time>2020-11-29T09:43:16Z</time>
      </trkpt>
      <trkpt lat="43.52923" lon="1.11364">
        <ele>305.8</ele>
        <time>2020-11-29T09:43:17Z</time>
      </trkpt>
      <trkpt lat="43.52924" lon="1.11358">
        <ele>305.9</ele>
        <time>2020-11-29T09:43:18Z</time>
      </trkpt>
      <trkpt lat="43.52924" lon="1.11352">
        <ele>306</ele>
        <time>2020-11-29T09:43:19Z</time>
      </trkpt>
      <trkpt lat="43.52923" lon="1.11348">
        <ele>306</ele>
        <time>2020-11-29T09:43:20Z</time>
      </trkpt>
      <trkpt lat="43.52923" lon="1.11342">
        <ele>306.1</ele>
        <time>2020-11-29T09:43:21Z</time>
      </trkpt>
      <trkpt lat="43.52922" lon="1.11337">
        <ele>306.2</ele>
        <time>2020-11-29T09:43:22Z</time>
      </trkpt>
      <trkpt lat="43.52922" lon="1.11333">
        <ele>306.2</ele>
        <time>2020-11-29T09:43:23Z</time>
      </trkpt>
      <trkpt lat="43.52923" lon="1.11328">
        <ele>306.3</ele>
        <time>2020-11-29T09:43:24Z</time>
      </trkpt>
      <trkpt lat="43.52923" lon="1.11326">
        <ele>306.3</ele>
        <time>2020-11-29T09:43:25Z</time>
      </trkpt>
      <trkpt lat="43.52926" lon="1.11319">
        <ele>306.4</ele>
        <time>2020-11-29T09:43:26Z</time>
      </trkpt>
      <trkpt lat="43.52927" lon="1.11313">
        <ele>306.5</ele>
        <time>2020-11-29T09:43:27Z</time>
      </trkpt>
      <trkpt lat="43.52928" lon="1.11308">
        <ele>306.5</ele>
        <time>2020-11-29T09:43:28Z</time>
      </trkpt>
      <trkpt lat="43.52931" lon="1.11301">
        <ele>306.5</ele>
        <time>2020-11-29T09:43:29Z</time>
      </trkpt>
      <trkpt lat="43.52933" lon="1.11295">
        <ele>306.5</ele>
        <time>2020-11-29T09:43:30Z</time>
      </trkpt>
      <trkpt lat="43.52936" lon="1.11289">
        <ele>306.5</ele>
        <time>2020-11-29T09:43:31Z</time>
      </trkpt>
      <trkpt lat="43.52938" lon="1.11284">
        <ele>306.5</ele>
        <time>2020-11-29T09:43:32Z</time>
      </trkpt>
      <trkpt lat="43.52939" lon="1.1128">
        <ele>306.5</ele>
        <time>2020-11-29T09:43:33Z</time>
      </trkpt>
      <trkpt lat="43.52941" lon="1.11275">
        <ele>306.5</ele>
        <time>2020-11-29T09:43:34Z</time>
      </trkpt>
      <trkpt lat="43.52943" lon="1.11272">
        <ele>306.5</ele>
        <time>2020-11-29T09:43:35Z</time>
      </trkpt>
      <trkpt lat="43.52943" lon="1.11266">
        <ele>306.5</ele>
        <time>2020-11-29T09:43:36Z</time>
      </trkpt>
      <trkpt lat="43.52943" lon="1.1126">
        <ele>306.5</ele>
        <time>2020-11-29T09:43:37Z</time>
      </trkpt>
      <trkpt lat="43.52941" lon="1.11255">
        <ele>306.6</ele>
        <time>2020-11-29T09:43:38Z</time>
      </trkpt>
      <trkpt lat="43.5294" lon="1.1125">
        <ele>306.6</ele>
        <time>2020-11-29T09:43:39Z</time>
      </trkpt>
      <trkpt lat="43.52938" lon="1.11247">
        <ele>306.7</ele>
        <time>2020-11-29T09:43:40Z</time>
      </trkpt>
      <trkpt lat="43.52936" lon="1.11242">
        <ele>306.8</ele>
        <time>2020-11-29T09:43:41Z</time>
      </trkpt>
      <trkpt lat="43.52934" lon="1.11238">
        <ele>306.8</ele>
        <time>2020-11-29T09:43:42Z</time>
      </trkpt>
      <trkpt lat="43.52933" lon="1.11234">
        <ele>306.9</ele>
        <time>2020-11-29T09:43:43Z</time>
      </trkpt>
      <trkpt lat="43.52931" lon="1.11229">
        <ele>306.9</ele>
        <time>2020-11-29T09:43:44Z</time>
      </trkpt>
      <trkpt lat="43.52929" lon="1.11224">
        <ele>307</ele>
        <time>2020-11-29T09:43:45Z</time>
      </trkpt>
      <trkpt lat="43.52926" lon="1.11218">
        <ele>307</ele>
        <time>2020-11-29T09:43:46Z</time>
      </trkpt>
      <trkpt lat="43.52924" lon="1.11213">
        <ele>307.1</ele>
        <time>2020-11-29T09:43:47Z</time>
      </trkpt>
      <trkpt lat="43.52923" lon="1.11209">
        <ele>307.1</ele>
        <time>2020-11-29T09:43:48Z</time>
      </trkpt>
      <trkpt lat="43.5292" lon="1.11202">
        <ele>307.2</ele>
        <time>2020-11-29T09:43:49Z</time>
      </trkpt>
      <trkpt lat="43.52919" lon="1.11199">
        <ele>307.2</ele>
        <time>2020-11-29T09:43:50Z</time>
      </trkpt>
      <trkpt lat="43.52917" lon="1.11193">
        <ele>307.3</ele>
        <time>2020-11-29T09:43:51Z</time>
      </trkpt>
      <trkpt lat="43.52915" lon="1.11187">
        <ele>307.3</ele>
        <time>2020-11-29T09:43:52Z</time>
      </trkpt>
      <trkpt lat="43.52913" lon="1.1118">
        <ele>307.3</ele>
        <time>2020-11-29T09:43:53Z</time>
      </trkpt>
      <trkpt lat="43.52911" lon="1.11175">
        <ele>307.3</ele>
        <time>2020-11-29T09:43:54Z</time>
      </trkpt>
      <trkpt lat="43.52909" lon="1.11169">
        <ele>307.3</ele>
        <time>2020-11-29T09:43:55Z</time>
      </trkpt>
      <trkpt lat="43.52907" lon="1.11161">
        <ele>307.3</ele>
        <time>2020-11-29T09:43:56Z</time>
      </trkpt>
      <trkpt lat="43.52906" lon="1.11155">
        <ele>307.3</ele>
        <time>2020-11-29T09:43:57Z</time>
      </trkpt>
      <trkpt lat="43.52904" lon="1.11149">
        <ele>307.4</ele>
        <time>2020-11-29T09:43:58Z</time>
      </trkpt>
      <trkpt lat="43.52902" lon="1.11143">
        <ele>307.4</ele>
        <time>2020-11-29T09:43:59Z</time>
      </trkpt>
      <trkpt lat="43.52901" lon="1.11137">
        <ele>307.4</ele>
        <time>2020-11-29T09:44:00Z</time>
      </trkpt>
      <trkpt lat="43.52899" lon="1.11131">
        <ele>307.4</ele>
        <time>2020-11-29T09:44:01Z</time>
      </trkpt>
      <trkpt lat="43.52898" lon="1.11125">
        <ele>307.4</ele>
        <time>2020-11-29T09:44:02Z</time>
      </trkpt>
      <trkpt lat="43.52897" lon="1.11119">
        <ele>307.4</ele>
        <time>2020-11-29T09:44:03Z</time>
      </trkpt>
      <trkpt lat="43.52896" lon="1.11113">
        <ele>307.5</ele>
        <time>2020-11-29T09:44:04Z</time>
      </trkpt>
      <trkpt lat="43.52894" lon="1.11108">
        <ele>307.5</ele>
        <time>2020-11-29T09:44:05Z</time>
      </trkpt>
      <trkpt lat="43.52892" lon="1.11104">
        <ele>307.5</ele>
        <time>2020-11-29T09:44:06Z</time>
      </trkpt>
      <trkpt lat="43.52891" lon="1.11099">
        <ele>307.5</ele>
        <time>2020-11-29T09:44:07Z</time>
      </trkpt>
      <trkpt lat="43.52889" lon="1.11093">
        <ele>307.5</ele>
        <time>2020-11-29T09:44:08Z</time>
      </trkpt>
      <trkpt lat="43.52888" lon="1.11088">
        <ele>307.5</ele>
        <time>2020-11-29T09:44:09Z</time>
      </trkpt>
      <trkpt lat="43.52887" lon="1.11084">
        <ele>307.5</ele>
        <time>2020-11-29T09:44:10Z</time>
      </trkpt>
      <trkpt lat="43.52885" lon="1.1108">
        <ele>307.6</ele>
        <time>2020-11-29T09:44:11Z</time>
      </trkpt>
      <trkpt lat="43.52883" lon="1.11074">
        <ele>307.6</ele>
        <time>2020-11-29T09:44:12Z</time>
      </trkpt>
      <trkpt lat="43.52882" lon="1.1107">
        <ele>307.6</ele>
        <time>2020-11-29T09:44:13Z</time>
      </trkpt>
      <trkpt lat="43.5288" lon="1.11065">
        <ele>307.6</ele>
        <time>2020-11-29T09:44:14Z</time>
      </trkpt>
      <trkpt lat="43.52877" lon="1.11057">
        <ele>307.7</ele>
        <time>2020-11-29T09:44:15Z</time>
      </trkpt>
      <trkpt lat="43.52875" lon="1.11053">
        <ele>307.7</ele>
        <time>2020-11-29T09:44:16Z</time>
      </trkpt>
      <trkpt lat="43.52871" lon="1.11047">
        <ele>307.7</ele>
        <time>2020-11-29T09:44:17Z</time>
      </trkpt>
      <trkpt lat="43.52868" lon="1.11043">
        <ele>307.7</ele>
        <time>2020-11-29T09:44:18Z</time>
      </trkpt>
      <trkpt lat="43.52866" lon="1.1104">
        <ele>307.7</ele>
        <time>2020-11-29T09:44:19Z</time>
      </trkpt>
      <trkpt lat="43.52863" lon="1.11035">
        <ele>307.7</ele>
        <time>2020-11-29T09:44:20Z</time>
      </trkpt>
      <trkpt lat="43.5286" lon="1.11031">
        <ele>307.8</ele>
        <time>2020-11-29T09:44:21Z</time>
      </trkpt>
      <trkpt lat="43.52858" lon="1.11026">
        <ele>307.8</ele>
        <time>2020-11-29T09:44:22Z</time>
      </trkpt>
      <trkpt lat="43.52856" lon="1.11019">
        <ele>307.8</ele>
        <time>2020-11-29T09:44:23Z</time>
      </trkpt>
      <trkpt lat="43.52853" lon="1.11012">
        <ele>307.8</ele>
        <time>2020-11-29T09:44:24Z</time>
      </trkpt>
      <trkpt lat="43.52851" lon="1.11005">
        <ele>307.8</ele>
        <time>2020-11-29T09:44:25Z</time>
      </trkpt>
      <trkpt lat="43.52849" lon="1.10999">
        <ele>307.8</ele>
        <time>2020-11-29T09:44:26Z</time>
      </trkpt>
      <trkpt lat="43.52848" lon="1.10995">
        <ele>307.8</ele>
        <time>2020-11-29T09:44:27Z</time>
      </trkpt>
      <trkpt lat="43.52849" lon="1.10991">
        <ele>307.9</ele>
        <time>2020-11-29T09:44:28Z</time>
      </trkpt>
      <trkpt lat="43.5285" lon="1.10988">
        <ele>307.8</ele>
        <time>2020-11-29T09:44:29Z</time>
      </trkpt>
      <trkpt lat="43.52851" lon="1.10987">
        <ele>307.7</ele>
        <time>2020-11-29T09:44:30Z</time>
      </trkpt>
      <trkpt lat="43.52853" lon="1.10986">
        <ele>307.7</ele>
        <time>2020-11-29T09:44:31Z</time>
      </trkpt>
      <trkpt lat="43.52857" lon="1.10985">
        <ele>307.5</ele>
        <time>2020-11-29T09:44:32Z</time>
      </trkpt>
      <trkpt lat="43.52859" lon="1.10984">
        <ele>307.5</ele>
        <time>2020-11-29T09:44:33Z</time>
      </trkpt>
      <trkpt lat="43.52863" lon="1.10983">
        <ele>307.3</ele>
        <time>2020-11-29T09:44:34Z</time>
      </trkpt>
      <trkpt lat="43.52867" lon="1.10982">
        <ele>307.1</ele>
        <time>2020-11-29T09:44:35Z</time>
      </trkpt>
      <trkpt lat="43.52872" lon="1.10981">
        <ele>306.9</ele>
        <time>2020-11-29T09:44:36Z</time>
      </trkpt>
      <trkpt lat="43.52879" lon="1.10982">
        <ele>306.5</ele>
        <time>2020-11-29T09:44:37Z</time>
      </trkpt>
      <trkpt lat="43.52885" lon="1.10982">
        <ele>306</ele>
        <time>2020-11-29T09:44:38Z</time>
      </trkpt>
      <trkpt lat="43.52891" lon="1.10983">
        <ele>305.6</ele>
        <time>2020-11-29T09:44:39Z</time>
      </trkpt>
      <trkpt lat="43.52897" lon="1.10983">
        <ele>305.1</ele>
        <time>2020-11-29T09:44:40Z</time>
      </trkpt>
      <trkpt lat="43.52903" lon="1.10983">
        <ele>304.5</ele>
        <time>2020-11-29T09:44:41Z</time>
      </trkpt>
      <trkpt lat="43.5291" lon="1.10983">
        <ele>303.6</ele>
        <time>2020-11-29T09:44:42Z</time>
      </trkpt>
      <trkpt lat="43.52918" lon="1.10983">
        <ele>302.6</ele>
        <time>2020-11-29T09:44:43Z</time>
      </trkpt>
      <trkpt lat="43.52925" lon="1.10982">
        <ele>301.6</ele>
        <time>2020-11-29T09:44:44Z</time>
      </trkpt>
      <trkpt lat="43.52932" lon="1.1098">
        <ele>300.6</ele>
        <time>2020-11-29T09:44:45Z</time>
      </trkpt>
      <trkpt lat="43.52939" lon="1.10978">
        <ele>299.5</ele>
        <time>2020-11-29T09:44:46Z</time>
      </trkpt>
      <trkpt lat="43.52946" lon="1.10977">
        <ele>298.6</ele>
        <time>2020-11-29T09:44:47Z</time>
      </trkpt>
      <trkpt lat="43.52953" lon="1.10976">
        <ele>297.5</ele>
        <time>2020-11-29T09:44:48Z</time>
      </trkpt>
      <trkpt lat="43.52959" lon="1.10976">
        <ele>296.5</ele>
        <time>2020-11-29T09:44:49Z</time>
      </trkpt>
      <trkpt lat="43.52965" lon="1.10974">
        <ele>295.8</ele>
        <time>2020-11-29T09:44:50Z</time>
      </trkpt>
      <trkpt lat="43.52971" lon="1.10972">
        <ele>294.9</ele>
        <time>2020-11-29T09:44:51Z</time>
      </trkpt>
      <trkpt lat="43.52978" lon="1.10971">
        <ele>293.8</ele>
        <time>2020-11-29T09:44:52Z</time>
      </trkpt>
      <trkpt lat="43.52985" lon="1.10971">
        <ele>292.7</ele>
        <time>2020-11-29T09:44:53Z</time>
      </trkpt>
      <trkpt lat="43.52992" lon="1.10969">
        <ele>291.6</ele>
        <time>2020-11-29T09:44:54Z</time>
      </trkpt>
      <trkpt lat="43.52997" lon="1.10967">
        <ele>290.6</ele>
        <time>2020-11-29T09:44:55Z</time>
      </trkpt>
      <trkpt lat="43.53001" lon="1.10965">
        <ele>290</ele>
        <time>2020-11-29T09:44:56Z</time>
      </trkpt>
      <trkpt lat="43.53003" lon="1.10963">
        <ele>289.4</ele>
        <time>2020-11-29T09:44:57Z</time>
      </trkpt>
      <trkpt lat="43.53007" lon="1.10961">
        <ele>288.5</ele>
        <time>2020-11-29T09:44:58Z</time>
      </trkpt>
      <trkpt lat="43.53011" lon="1.10959">
        <ele>287.7</ele>
        <time>2020-11-29T09:44:59Z</time>
      </trkpt>
      <trkpt lat="43.53012" lon="1.10958">
        <ele>287.5</ele>
        <time>2020-11-29T09:45:00Z</time>
      </trkpt>
      <trkpt lat="43.53015" lon="1.10955">
        <ele>286.7</ele>
        <time>2020-11-29T09:45:01Z</time>
      </trkpt>
      <trkpt lat="43.53016" lon="1.10951">
        <ele>286</ele>
        <time>2020-11-29T09:45:02Z</time>
      </trkpt>
      <trkpt lat="43.5302" lon="1.10949">
        <ele>285.2</ele>
        <time>2020-11-29T09:45:03Z</time>
      </trkpt>
      <trkpt lat="43.53023" lon="1.10945">
        <ele>284.5</ele>
        <time>2020-11-29T09:45:04Z</time>
      </trkpt>
      <trkpt lat="43.53024" lon="1.10943">
        <ele>284.2</ele>
        <time>2020-11-29T09:45:05Z</time>
      </trkpt>
      <trkpt lat="43.53025" lon="1.10941">
        <ele>283.7</ele>
        <time>2020-11-29T09:45:06Z</time>
      </trkpt>
      <trkpt lat="43.53027" lon="1.1094">
        <ele>283.5</ele>
        <time>2020-11-29T09:45:07Z</time>
      </trkpt>
      <trkpt lat="43.53033" lon="1.1094">
        <ele>282.5</ele>
        <time>2020-11-29T09:45:08Z</time>
      </trkpt>
      <trkpt lat="43.53041" lon="1.10941">
        <ele>281.1</ele>
        <time>2020-11-29T09:45:09Z</time>
      </trkpt>
      <trkpt lat="43.53047" lon="1.1094">
        <ele>280.2</ele>
        <time>2020-11-29T09:45:10Z</time>
      </trkpt>
      <trkpt lat="43.53051" lon="1.10938">
        <ele>279.5</ele>
        <time>2020-11-29T09:45:11Z</time>
      </trkpt>
      <trkpt lat="43.53058" lon="1.10937">
        <ele>278.6</ele>
        <time>2020-11-29T09:45:12Z</time>
      </trkpt>
      <trkpt lat="43.53062" lon="1.10935">
        <ele>278</ele>
        <time>2020-11-29T09:45:13Z</time>
      </trkpt>
      <trkpt lat="43.53065" lon="1.10932">
        <ele>277.7</ele>
        <time>2020-11-29T09:45:14Z</time>
      </trkpt>
      <trkpt lat="43.53072" lon="1.10931">
        <ele>277.2</ele>
        <time>2020-11-29T09:45:15Z</time>
      </trkpt>
      <trkpt lat="43.53079" lon="1.10927">
        <ele>276.9</ele>
        <time>2020-11-29T09:45:16Z</time>
      </trkpt>
      <trkpt lat="43.53085" lon="1.10924">
        <ele>276.6</ele>
        <time>2020-11-29T09:45:17Z</time>
      </trkpt>
      <trkpt lat="43.53092" lon="1.10922">
        <ele>276.2</ele>
        <time>2020-11-29T09:45:18Z</time>
      </trkpt>
      <trkpt lat="43.53098" lon="1.1092">
        <ele>275.9</ele>
        <time>2020-11-29T09:45:19Z</time>
      </trkpt>
      <trkpt lat="43.53106" lon="1.10919">
        <ele>275.6</ele>
        <time>2020-11-29T09:45:20Z</time>
      </trkpt>
      <trkpt lat="43.53111" lon="1.10915">
        <ele>275.4</ele>
        <time>2020-11-29T09:45:21Z</time>
      </trkpt>
      <trkpt lat="43.53116" lon="1.10914">
        <ele>275.2</ele>
        <time>2020-11-29T09:45:22Z</time>
      </trkpt>
      <trkpt lat="43.53119" lon="1.10913">
        <ele>275.2</ele>
        <time>2020-11-29T09:45:23Z</time>
      </trkpt>
      <trkpt lat="43.53123" lon="1.10912">
        <ele>275.1</ele>
        <time>2020-11-29T09:45:24Z</time>
      </trkpt>
      <trkpt lat="43.53129" lon="1.10909">
        <ele>275</ele>
        <time>2020-11-29T09:45:25Z</time>
      </trkpt>
      <trkpt lat="43.53135" lon="1.10906">
        <ele>275</ele>
        <time>2020-11-29T09:45:26Z</time>
      </trkpt>
      <trkpt lat="43.53141" lon="1.10901">
        <ele>275</ele>
        <time>2020-11-29T09:45:27Z</time>
      </trkpt>
      <trkpt lat="43.53144" lon="1.10898">
        <ele>275</ele>
        <time>2020-11-29T09:45:28Z</time>
      </trkpt>
      <trkpt lat="43.53146" lon="1.10899">
        <ele>274.6</ele>
        <time>2020-11-29T09:45:29Z</time>
      </trkpt>
      <trkpt lat="43.53144" lon="1.10895">
        <ele>274.3</ele>
        <time>2020-11-29T09:45:30Z</time>
      </trkpt>
      <trkpt lat="43.53144" lon="1.10893">
        <ele>274.3</ele>
        <time>2020-11-29T09:45:31Z</time>
      </trkpt>
      <trkpt lat="43.53143" lon="1.10892">
        <ele>274.6</ele>
        <time>2020-11-29T09:45:32Z</time>
      </trkpt>
      <trkpt lat="43.53141" lon="1.1089">
        <ele>274.6</ele>
        <time>2020-11-29T09:45:33Z</time>
      </trkpt>
      <trkpt lat="43.53139" lon="1.10887">
        <ele>274.9</ele>
        <time>2020-11-29T09:45:34Z</time>
      </trkpt>
      <trkpt lat="43.53138" lon="1.10882">
        <ele>274.7</ele>
        <time>2020-11-29T09:45:35Z</time>
      </trkpt>
      <trkpt lat="43.53137" lon="1.10877">
        <ele>275.1</ele>
        <time>2020-11-29T09:45:36Z</time>
      </trkpt>
      <trkpt lat="43.53138" lon="1.10875">
        <ele>274.5</ele>
        <time>2020-11-29T09:45:37Z</time>
      </trkpt>
      <trkpt lat="43.53137" lon="1.10871">
        <ele>274.9</ele>
        <time>2020-11-29T09:45:38Z</time>
      </trkpt>
      <trkpt lat="43.53137" lon="1.1087">
        <ele>274.9</ele>
        <time>2020-11-29T09:45:39Z</time>
      </trkpt>
      <trkpt lat="43.53138" lon="1.10868">
        <ele>274.4</ele>
        <time>2020-11-29T09:45:40Z</time>
      </trkpt>
      <trkpt lat="43.53139" lon="1.10867">
        <ele>274.3</ele>
        <time>2020-11-29T09:45:41Z</time>
      </trkpt>
      <trkpt lat="43.53139" lon="1.10866">
        <ele>274.3</ele>
        <time>2020-11-29T09:45:42Z</time>
      </trkpt>
      <trkpt lat="43.5314" lon="1.10864">
        <ele>274.3</ele>
        <time>2020-11-29T09:45:43Z</time>
      </trkpt>
      <trkpt lat="43.53141" lon="1.10864">
        <ele>274.3</ele>
        <time>2020-11-29T09:45:44Z</time>
      </trkpt>
      <trkpt lat="43.53141" lon="1.10862">
        <ele>273.7</ele>
        <time>2020-11-29T09:45:45Z</time>
      </trkpt>
      <trkpt lat="43.53142" lon="1.10862">
        <ele>273.7</ele>
        <time>2020-11-29T09:45:46Z</time>
      </trkpt>
      <trkpt lat="43.53143" lon="1.10861">
        <ele>273.7</ele>
        <time>2020-11-29T09:45:47Z</time>
      </trkpt>
      <trkpt lat="43.53144" lon="1.10861">
        <ele>273.8</ele>
        <time>2020-11-29T09:45:48Z</time>
      </trkpt>
      <trkpt lat="43.53145" lon="1.10861">
        <ele>273.3</ele>
        <time>2020-11-29T09:45:49Z</time>
      </trkpt>
      <trkpt lat="43.53147" lon="1.10861">
        <ele>272.9</ele>
        <time>2020-11-29T09:45:50Z</time>
      </trkpt>
      <trkpt lat="43.53148" lon="1.1086">
        <ele>273</ele>
        <time>2020-11-29T09:45:51Z</time>
      </trkpt>
      <trkpt lat="43.5315" lon="1.10859">
        <ele>272.9</ele>
        <time>2020-11-29T09:45:52Z</time>
      </trkpt>
      <trkpt lat="43.53152" lon="1.10858">
        <ele>272.5</ele>
        <time>2020-11-29T09:45:53Z</time>
      </trkpt>
      <trkpt lat="43.53153" lon="1.10858">
        <ele>272.5</ele>
        <time>2020-11-29T09:45:54Z</time>
      </trkpt>
      <trkpt lat="43.53154" lon="1.10857">
        <ele>272.2</ele>
        <time>2020-11-29T09:45:55Z</time>
      </trkpt>
      <trkpt lat="43.53156" lon="1.10855">
        <ele>272.2</ele>
        <time>2020-11-29T09:45:56Z</time>
      </trkpt>
      <trkpt lat="43.53157" lon="1.10854">
        <ele>271.8</ele>
        <time>2020-11-29T09:45:57Z</time>
      </trkpt>
      <trkpt lat="43.53157" lon="1.10854">
        <ele>271.8</ele>
        <time>2020-11-29T09:45:58Z</time>
      </trkpt>
      <trkpt lat="43.53157" lon="1.10853">
        <ele>271.9</ele>
        <time>2020-11-29T09:45:59Z</time>
      </trkpt>
      <trkpt lat="43.53158" lon="1.10852">
        <ele>271.9</ele>
        <time>2020-11-29T09:46:00Z</time>
      </trkpt>
      <trkpt lat="43.53158" lon="1.10852">
        <ele>271.9</ele>
        <time>2020-11-29T09:46:01Z</time>
      </trkpt>
      <trkpt lat="43.53158" lon="1.10851">
        <ele>271.9</ele>
        <time>2020-11-29T09:46:02Z</time>
      </trkpt>
      <trkpt lat="43.53158" lon="1.10851">
        <ele>271.9</ele>
        <time>2020-11-29T09:46:03Z</time>
      </trkpt>
      <trkpt lat="43.53159" lon="1.10847">
        <ele>271.8</ele>
        <time>2020-11-29T09:46:04Z</time>
      </trkpt>
      <trkpt lat="43.5316" lon="1.10845">
        <ele>271.5</ele>
        <time>2020-11-29T09:46:05Z</time>
      </trkpt>
      <trkpt lat="43.53159" lon="1.10842">
        <ele>271.5</ele>
        <time>2020-11-29T09:46:06Z</time>
      </trkpt>
      <trkpt lat="43.53159" lon="1.10837">
        <ele>271.7</ele>
        <time>2020-11-29T09:46:07Z</time>
      </trkpt>
      <trkpt lat="43.53159" lon="1.10836">
        <ele>271.7</ele>
        <time>2020-11-29T09:46:08Z</time>
      </trkpt>
      <trkpt lat="43.5316" lon="1.10831">
        <ele>271.4</ele>
        <time>2020-11-29T09:46:09Z</time>
      </trkpt>
      <trkpt lat="43.53161" lon="1.10827">
        <ele>271.5</ele>
        <time>2020-11-29T09:46:10Z</time>
      </trkpt>
      <trkpt lat="43.53161" lon="1.10825">
        <ele>271.5</ele>
        <time>2020-11-29T09:46:11Z</time>
      </trkpt>
      <trkpt lat="43.53161" lon="1.10821">
        <ele>271.5</ele>
        <time>2020-11-29T09:46:12Z</time>
      </trkpt>
      <trkpt lat="43.53161" lon="1.10816">
        <ele>271.6</ele>
        <time>2020-11-29T09:46:13Z</time>
      </trkpt>
      <trkpt lat="43.53161" lon="1.10812">
        <ele>271.6</ele>
        <time>2020-11-29T09:46:14Z</time>
      </trkpt>
      <trkpt lat="43.53161" lon="1.10807">
        <ele>271.8</ele>
        <time>2020-11-29T09:46:15Z</time>
      </trkpt>
      <trkpt lat="43.5316" lon="1.10802">
        <ele>271.8</ele>
        <time>2020-11-29T09:46:16Z</time>
      </trkpt>
      <trkpt lat="43.5316" lon="1.10796">
        <ele>271.8</ele>
        <time>2020-11-29T09:46:17Z</time>
      </trkpt>
      <trkpt lat="43.5316" lon="1.10789">
        <ele>271.6</ele>
        <time>2020-11-29T09:46:18Z</time>
      </trkpt>
      <trkpt lat="43.5316" lon="1.10783">
        <ele>271.4</ele>
        <time>2020-11-29T09:46:19Z</time>
      </trkpt>
      <trkpt lat="43.5316" lon="1.10777">
        <ele>270.9</ele>
        <time>2020-11-29T09:46:20Z</time>
      </trkpt>
      <trkpt lat="43.5316" lon="1.1077">
        <ele>270.6</ele>
        <time>2020-11-29T09:46:21Z</time>
      </trkpt>
      <trkpt lat="43.5316" lon="1.10764">
        <ele>270.2</ele>
        <time>2020-11-29T09:46:22Z</time>
      </trkpt>
      <trkpt lat="43.53158" lon="1.10758">
        <ele>270.3</ele>
        <time>2020-11-29T09:46:23Z</time>
      </trkpt>
      <trkpt lat="43.53157" lon="1.10753">
        <ele>270.2</ele>
        <time>2020-11-29T09:46:24Z</time>
      </trkpt>
      <trkpt lat="43.53156" lon="1.10748">
        <ele>270.5</ele>
        <time>2020-11-29T09:46:25Z</time>
      </trkpt>
      <trkpt lat="43.53155" lon="1.10742">
        <ele>270.4</ele>
        <time>2020-11-29T09:46:26Z</time>
      </trkpt>
      <trkpt lat="43.53154" lon="1.10737">
        <ele>270.3</ele>
        <time>2020-11-29T09:46:27Z</time>
      </trkpt>
      <trkpt lat="43.53153" lon="1.10731">
        <ele>270.3</ele>
        <time>2020-11-29T09:46:28Z</time>
      </trkpt>
      <trkpt lat="43.53152" lon="1.10726">
        <ele>270.6</ele>
        <time>2020-11-29T09:46:29Z</time>
      </trkpt>
      <trkpt lat="43.53151" lon="1.10721">
        <ele>270.5</ele>
        <time>2020-11-29T09:46:30Z</time>
      </trkpt>
      <trkpt lat="43.5315" lon="1.10715">
        <ele>270.7</ele>
        <time>2020-11-29T09:46:31Z</time>
      </trkpt>
      <trkpt lat="43.53149" lon="1.10709">
        <ele>270.7</ele>
        <time>2020-11-29T09:46:32Z</time>
      </trkpt>
      <trkpt lat="43.53148" lon="1.10703">
        <ele>270.7</ele>
        <time>2020-11-29T09:46:33Z</time>
      </trkpt>
      <trkpt lat="43.53146" lon="1.10697">
        <ele>270.9</ele>
        <time>2020-11-29T09:46:34Z</time>
      </trkpt>
      <trkpt lat="43.53145" lon="1.1069">
        <ele>270.8</ele>
        <time>2020-11-29T09:46:35Z</time>
      </trkpt>
      <trkpt lat="43.53144" lon="1.10684">
        <ele>271</ele>
        <time>2020-11-29T09:46:36Z</time>
      </trkpt>
      <trkpt lat="43.53143" lon="1.10679">
        <ele>271</ele>
        <time>2020-11-29T09:46:37Z</time>
      </trkpt>
      <trkpt lat="43.53141" lon="1.10674">
        <ele>270.9</ele>
        <time>2020-11-29T09:46:38Z</time>
      </trkpt>
      <trkpt lat="43.5314" lon="1.10669">
        <ele>271.1</ele>
        <time>2020-11-29T09:46:39Z</time>
      </trkpt>
      <trkpt lat="43.53138" lon="1.10663">
        <ele>271.1</ele>
        <time>2020-11-29T09:46:40Z</time>
      </trkpt>
      <trkpt lat="43.53137" lon="1.10658">
        <ele>271.5</ele>
        <time>2020-11-29T09:46:41Z</time>
      </trkpt>
      <trkpt lat="43.53136" lon="1.10653">
        <ele>271.7</ele>
        <time>2020-11-29T09:46:42Z</time>
      </trkpt>
      <trkpt lat="43.53134" lon="1.10648">
        <ele>272</ele>
        <time>2020-11-29T09:46:43Z</time>
      </trkpt>
      <trkpt lat="43.53133" lon="1.10643">
        <ele>272.2</ele>
        <time>2020-11-29T09:46:44Z</time>
      </trkpt>
      <trkpt lat="43.53132" lon="1.10639">
        <ele>272.3</ele>
        <time>2020-11-29T09:46:45Z</time>
      </trkpt>
      <trkpt lat="43.53132" lon="1.10635">
        <ele>272.5</ele>
        <time>2020-11-29T09:46:46Z</time>
      </trkpt>
      <trkpt lat="43.53135" lon="1.10631">
        <ele>272.5</ele>
        <time>2020-11-29T09:46:47Z</time>
      </trkpt>
      <trkpt lat="43.53137" lon="1.10629">
        <ele>272.6</ele>
        <time>2020-11-29T09:46:48Z</time>
      </trkpt>
      <trkpt lat="43.5314" lon="1.10627">
        <ele>272.5</ele>
        <time>2020-11-29T09:46:49Z</time>
      </trkpt>
      <trkpt lat="43.53143" lon="1.10626">
        <ele>272.7</ele>
        <time>2020-11-29T09:46:50Z</time>
      </trkpt>
      <trkpt lat="43.53146" lon="1.10626">
        <ele>272.7</ele>
        <time>2020-11-29T09:46:51Z</time>
      </trkpt>
      <trkpt lat="43.5315" lon="1.10625">
        <ele>272.7</ele>
        <time>2020-11-29T09:46:52Z</time>
      </trkpt>
      <trkpt lat="43.53154" lon="1.10623">
        <ele>272.7</ele>
        <time>2020-11-29T09:46:53Z</time>
      </trkpt>
      <trkpt lat="43.53159" lon="1.10621">
        <ele>272.8</ele>
        <time>2020-11-29T09:46:54Z</time>
      </trkpt>
      <trkpt lat="43.53163" lon="1.10619">
        <ele>272.9</ele>
        <time>2020-11-29T09:46:55Z</time>
      </trkpt>
      <trkpt lat="43.53167" lon="1.10618">
        <ele>273</ele>
        <time>2020-11-29T09:46:56Z</time>
      </trkpt>
      <trkpt lat="43.53171" lon="1.10615">
        <ele>273</ele>
        <time>2020-11-29T09:46:57Z</time>
      </trkpt>
      <trkpt lat="43.53174" lon="1.10613">
        <ele>273.1</ele>
        <time>2020-11-29T09:46:58Z</time>
      </trkpt>
      <trkpt lat="43.53177" lon="1.1061">
        <ele>273.2</ele>
        <time>2020-11-29T09:46:59Z</time>
      </trkpt>
      <trkpt lat="43.53178" lon="1.10609">
        <ele>273.2</ele>
        <time>2020-11-29T09:47:00Z</time>
      </trkpt>
      <trkpt lat="43.53182" lon="1.10607">
        <ele>273.3</ele>
        <time>2020-11-29T09:47:01Z</time>
      </trkpt>
      <trkpt lat="43.53187" lon="1.10605">
        <ele>273.4</ele>
        <time>2020-11-29T09:47:02Z</time>
      </trkpt>
      <trkpt lat="43.53189" lon="1.10603">
        <ele>273.4</ele>
        <time>2020-11-29T09:47:03Z</time>
      </trkpt>
      <trkpt lat="43.53192" lon="1.106">
        <ele>273.5</ele>
        <time>2020-11-29T09:47:04Z</time>
      </trkpt>
      <trkpt lat="43.53194" lon="1.10599">
        <ele>273.5</ele>
        <time>2020-11-29T09:47:05Z</time>
      </trkpt>
      <trkpt lat="43.53195" lon="1.10599">
        <ele>273.5</ele>
        <time>2020-11-29T09:47:06Z</time>
      </trkpt>
      <trkpt lat="43.53195" lon="1.10599">
        <ele>273.6</ele>
        <time>2020-11-29T09:47:07Z</time>
      </trkpt>
      <trkpt lat="43.53195" lon="1.10599">
        <ele>273.6</ele>
        <time>2020-11-29T09:47:08Z</time>
      </trkpt>
      <trkpt lat="43.53193" lon="1.106">
        <ele>273.5</ele>
        <time>2020-11-29T09:47:09Z</time>
      </trkpt>
      <trkpt lat="43.53192" lon="1.10601">
        <ele>273.6</ele>
        <time>2020-11-29T09:47:10Z</time>
      </trkpt>
      <trkpt lat="43.53189" lon="1.10602">
        <ele>273.5</ele>
        <time>2020-11-29T09:47:11Z</time>
      </trkpt>
      <trkpt lat="43.53185" lon="1.10605">
        <ele>273.5</ele>
        <time>2020-11-29T09:47:12Z</time>
      </trkpt>
      <trkpt lat="43.53183" lon="1.10609">
        <ele>273.5</ele>
        <time>2020-11-29T09:47:13Z</time>
      </trkpt>
      <trkpt lat="43.5318" lon="1.10613">
        <ele>273.5</ele>
        <time>2020-11-29T09:47:14Z</time>
      </trkpt>
      <trkpt lat="43.53178" lon="1.10615">
        <ele>273.4</ele>
        <time>2020-11-29T09:47:15Z</time>
      </trkpt>
      <trkpt lat="43.53175" lon="1.1062">
        <ele>273.4</ele>
        <time>2020-11-29T09:47:16Z</time>
      </trkpt>
      <trkpt lat="43.53172" lon="1.10623">
        <ele>273.2</ele>
        <time>2020-11-29T09:47:17Z</time>
      </trkpt>
      <trkpt lat="43.53171" lon="1.10625">
        <ele>273.2</ele>
        <time>2020-11-29T09:47:18Z</time>
      </trkpt>
      <trkpt lat="43.53168" lon="1.10629">
        <ele>273.1</ele>
        <time>2020-11-29T09:47:19Z</time>
      </trkpt>
      <trkpt lat="43.53167" lon="1.10634">
        <ele>272.9</ele>
        <time>2020-11-29T09:47:20Z</time>
      </trkpt>
      <trkpt lat="43.53167" lon="1.10639">
        <ele>272.8</ele>
        <time>2020-11-29T09:47:21Z</time>
      </trkpt>
      <trkpt lat="43.53168" lon="1.10644">
        <ele>272.6</ele>
        <time>2020-11-29T09:47:22Z</time>
      </trkpt>
      <trkpt lat="43.5317" lon="1.1065">
        <ele>272.5</ele>
        <time>2020-11-29T09:47:23Z</time>
      </trkpt>
      <trkpt lat="43.53171" lon="1.10655">
        <ele>272.5</ele>
        <time>2020-11-29T09:47:24Z</time>
      </trkpt>
      <trkpt lat="43.53173" lon="1.10658">
        <ele>272.7</ele>
        <time>2020-11-29T09:47:25Z</time>
      </trkpt>
      <trkpt lat="43.53173" lon="1.10663">
        <ele>272.6</ele>
        <time>2020-11-29T09:47:26Z</time>
      </trkpt>
      <trkpt lat="43.53175" lon="1.10667">
        <ele>272.6</ele>
        <time>2020-11-29T09:47:27Z</time>
      </trkpt>
      <trkpt lat="43.53176" lon="1.10672">
        <ele>272.8</ele>
        <time>2020-11-29T09:47:28Z</time>
      </trkpt>
      <trkpt lat="43.53176" lon="1.10677">
        <ele>272.8</ele>
        <time>2020-11-29T09:47:29Z</time>
      </trkpt>
      <trkpt lat="43.53178" lon="1.10684">
        <ele>272.6</ele>
        <time>2020-11-29T09:47:30Z</time>
      </trkpt>
      <trkpt lat="43.53178" lon="1.10688">
        <ele>272.5</ele>
        <time>2020-11-29T09:47:31Z</time>
      </trkpt>
      <trkpt lat="43.5318" lon="1.10695">
        <ele>272.6</ele>
        <time>2020-11-29T09:47:32Z</time>
      </trkpt>
      <trkpt lat="43.53182" lon="1.10702">
        <ele>272.5</ele>
        <time>2020-11-29T09:47:33Z</time>
      </trkpt>
      <trkpt lat="43.53183" lon="1.10708">
        <ele>272.3</ele>
        <time>2020-11-29T09:47:34Z</time>
      </trkpt>
      <trkpt lat="43.53185" lon="1.10715">
        <ele>272.1</ele>
        <time>2020-11-29T09:47:35Z</time>
      </trkpt>
      <trkpt lat="43.53188" lon="1.10721">
        <ele>272.1</ele>
        <time>2020-11-29T09:47:36Z</time>
      </trkpt>
      <trkpt lat="43.53191" lon="1.10725">
        <ele>272.1</ele>
        <time>2020-11-29T09:47:37Z</time>
      </trkpt>
      <trkpt lat="43.53194" lon="1.1073">
        <ele>271.7</ele>
        <time>2020-11-29T09:47:38Z</time>
      </trkpt>
      <trkpt lat="43.53196" lon="1.10735">
        <ele>271.5</ele>
        <time>2020-11-29T09:47:39Z</time>
      </trkpt>
      <trkpt lat="43.53199" lon="1.1074">
        <ele>271.3</ele>
        <time>2020-11-29T09:47:40Z</time>
      </trkpt>
      <trkpt lat="43.532" lon="1.10746">
        <ele>271.2</ele>
        <time>2020-11-29T09:47:41Z</time>
      </trkpt>
      <trkpt lat="43.53202" lon="1.10753">
        <ele>270.5</ele>
        <time>2020-11-29T09:47:42Z</time>
      </trkpt>
      <trkpt lat="43.53205" lon="1.10758">
        <ele>270.4</ele>
        <time>2020-11-29T09:47:43Z</time>
      </trkpt>
      <trkpt lat="43.53208" lon="1.10763">
        <ele>270.3</ele>
        <time>2020-11-29T09:47:44Z</time>
      </trkpt>
      <trkpt lat="43.53212" lon="1.10769">
        <ele>270</ele>
        <time>2020-11-29T09:47:45Z</time>
      </trkpt>
      <trkpt lat="43.53214" lon="1.10775">
        <ele>270</ele>
        <time>2020-11-29T09:47:46Z</time>
      </trkpt>
      <trkpt lat="43.53214" lon="1.10782">
        <ele>270</ele>
        <time>2020-11-29T09:47:47Z</time>
      </trkpt>
      <trkpt lat="43.53214" lon="1.10788">
        <ele>270.1</ele>
        <time>2020-11-29T09:47:48Z</time>
      </trkpt>
      <trkpt lat="43.53215" lon="1.10792">
        <ele>270.2</ele>
        <time>2020-11-29T09:47:49Z</time>
      </trkpt>
      <trkpt lat="43.53217" lon="1.10798">
        <ele>270.1</ele>
        <time>2020-11-29T09:47:50Z</time>
      </trkpt>
      <trkpt lat="43.53219" lon="1.10804">
        <ele>270</ele>
        <time>2020-11-29T09:47:51Z</time>
      </trkpt>
      <trkpt lat="43.53221" lon="1.1081">
        <ele>270</ele>
        <time>2020-11-29T09:47:52Z</time>
      </trkpt>
      <trkpt lat="43.53222" lon="1.10816">
        <ele>269.8</ele>
        <time>2020-11-29T09:47:53Z</time>
      </trkpt>
      <trkpt lat="43.53224" lon="1.10821">
        <ele>269.8</ele>
        <time>2020-11-29T09:47:54Z</time>
      </trkpt>
      <trkpt lat="43.53226" lon="1.10826">
        <ele>269.6</ele>
        <time>2020-11-29T09:47:55Z</time>
      </trkpt>
      <trkpt lat="43.53228" lon="1.10832">
        <ele>269.4</ele>
        <time>2020-11-29T09:47:56Z</time>
      </trkpt>
      <trkpt lat="43.53231" lon="1.10837">
        <ele>269.2</ele>
        <time>2020-11-29T09:47:57Z</time>
      </trkpt>
      <trkpt lat="43.53232" lon="1.10842">
        <ele>269.1</ele>
        <time>2020-11-29T09:47:58Z</time>
      </trkpt>
      <trkpt lat="43.53233" lon="1.10847">
        <ele>269.1</ele>
        <time>2020-11-29T09:47:59Z</time>
      </trkpt>
      <trkpt lat="43.53235" lon="1.10852">
        <ele>269.1</ele>
        <time>2020-11-29T09:48:00Z</time>
      </trkpt>
      <trkpt lat="43.53237" lon="1.10858">
        <ele>269.2</ele>
        <time>2020-11-29T09:48:01Z</time>
      </trkpt>
      <trkpt lat="43.53239" lon="1.10864">
        <ele>269.3</ele>
        <time>2020-11-29T09:48:02Z</time>
      </trkpt>
      <trkpt lat="43.53241" lon="1.1087">
        <ele>269.4</ele>
        <time>2020-11-29T09:48:03Z</time>
      </trkpt>
      <trkpt lat="43.53243" lon="1.10874">
        <ele>269.5</ele>
        <time>2020-11-29T09:48:04Z</time>
      </trkpt>
      <trkpt lat="43.53244" lon="1.10879">
        <ele>269.7</ele>
        <time>2020-11-29T09:48:05Z</time>
      </trkpt>
      <trkpt lat="43.53245" lon="1.10884">
        <ele>269.8</ele>
        <time>2020-11-29T09:48:06Z</time>
      </trkpt>
      <trkpt lat="43.53247" lon="1.10889">
        <ele>270</ele>
        <time>2020-11-29T09:48:07Z</time>
      </trkpt>
      <trkpt lat="43.53249" lon="1.10894">
        <ele>270.1</ele>
        <time>2020-11-29T09:48:08Z</time>
      </trkpt>
      <trkpt lat="43.53252" lon="1.109">
        <ele>269.9</ele>
        <time>2020-11-29T09:48:09Z</time>
      </trkpt>
      <trkpt lat="43.53255" lon="1.10905">
        <ele>269.7</ele>
        <time>2020-11-29T09:48:10Z</time>
      </trkpt>
      <trkpt lat="43.53257" lon="1.1091">
        <ele>269.6</ele>
        <time>2020-11-29T09:48:11Z</time>
      </trkpt>
      <trkpt lat="43.53258" lon="1.10915">
        <ele>269.5</ele>
        <time>2020-11-29T09:48:12Z</time>
      </trkpt>
      <trkpt lat="43.53259" lon="1.10921">
        <ele>269.4</ele>
        <time>2020-11-29T09:48:13Z</time>
      </trkpt>
      <trkpt lat="43.53262" lon="1.10926">
        <ele>269.2</ele>
        <time>2020-11-29T09:48:14Z</time>
      </trkpt>
      <trkpt lat="43.53264" lon="1.10931">
        <ele>269.1</ele>
        <time>2020-11-29T09:48:15Z</time>
      </trkpt>
      <trkpt lat="43.53266" lon="1.10934">
        <ele>268.9</ele>
        <time>2020-11-29T09:48:16Z</time>
      </trkpt>
      <trkpt lat="43.53269" lon="1.10938">
        <ele>268.8</ele>
        <time>2020-11-29T09:48:17Z</time>
      </trkpt>
      <trkpt lat="43.53271" lon="1.10943">
        <ele>268.7</ele>
        <time>2020-11-29T09:48:18Z</time>
      </trkpt>
      <trkpt lat="43.53273" lon="1.10948">
        <ele>268.6</ele>
        <time>2020-11-29T09:48:19Z</time>
      </trkpt>
      <trkpt lat="43.53275" lon="1.10954">
        <ele>268.4</ele>
        <time>2020-11-29T09:48:20Z</time>
      </trkpt>
      <trkpt lat="43.53276" lon="1.10959">
        <ele>268.3</ele>
        <time>2020-11-29T09:48:21Z</time>
      </trkpt>
      <trkpt lat="43.53279" lon="1.10964">
        <ele>268.1</ele>
        <time>2020-11-29T09:48:22Z</time>
      </trkpt>
      <trkpt lat="43.53281" lon="1.1097">
        <ele>268</ele>
        <time>2020-11-29T09:48:23Z</time>
      </trkpt>
      <trkpt lat="43.53282" lon="1.10975">
        <ele>267.9</ele>
        <time>2020-11-29T09:48:24Z</time>
      </trkpt>
      <trkpt lat="43.53283" lon="1.1098">
        <ele>267.9</ele>
        <time>2020-11-29T09:48:25Z</time>
      </trkpt>
      <trkpt lat="43.53283" lon="1.10985">
        <ele>267.8</ele>
        <time>2020-11-29T09:48:26Z</time>
      </trkpt>
      <trkpt lat="43.53285" lon="1.10991">
        <ele>267.8</ele>
        <time>2020-11-29T09:48:27Z</time>
      </trkpt>
      <trkpt lat="43.53285" lon="1.10994">
        <ele>267.8</ele>
        <time>2020-11-29T09:48:28Z</time>
      </trkpt>
      <trkpt lat="43.53286" lon="1.11">
        <ele>267.8</ele>
        <time>2020-11-29T09:48:29Z</time>
      </trkpt>
      <trkpt lat="43.53287" lon="1.11005">
        <ele>267.8</ele>
        <time>2020-11-29T09:48:30Z</time>
      </trkpt>
      <trkpt lat="43.53289" lon="1.11012">
        <ele>267.7</ele>
        <time>2020-11-29T09:48:31Z</time>
      </trkpt>
      <trkpt lat="43.53291" lon="1.11017">
        <ele>267.7</ele>
        <time>2020-11-29T09:48:32Z</time>
      </trkpt>
      <trkpt lat="43.53294" lon="1.11024">
        <ele>267.6</ele>
        <time>2020-11-29T09:48:33Z</time>
      </trkpt>
      <trkpt lat="43.53295" lon="1.1103">
        <ele>267.5</ele>
        <time>2020-11-29T09:48:34Z</time>
      </trkpt>
      <trkpt lat="43.53297" lon="1.11037">
        <ele>267.4</ele>
        <time>2020-11-29T09:48:35Z</time>
      </trkpt>
      <trkpt lat="43.53298" lon="1.11043">
        <ele>267.3</ele>
        <time>2020-11-29T09:48:36Z</time>
      </trkpt>
      <trkpt lat="43.533" lon="1.1105">
        <ele>267.2</ele>
        <time>2020-11-29T09:48:37Z</time>
      </trkpt>
      <trkpt lat="43.53303" lon="1.11057">
        <ele>267</ele>
        <time>2020-11-29T09:48:38Z</time>
      </trkpt>
      <trkpt lat="43.53304" lon="1.11061">
        <ele>266.9</ele>
        <time>2020-11-29T09:48:39Z</time>
      </trkpt>
      <trkpt lat="43.53305" lon="1.11065">
        <ele>266.8</ele>
        <time>2020-11-29T09:48:40Z</time>
      </trkpt>
      <trkpt lat="43.53307" lon="1.11069">
        <ele>266.7</ele>
        <time>2020-11-29T09:48:41Z</time>
      </trkpt>
      <trkpt lat="43.53308" lon="1.11074">
        <ele>266.6</ele>
        <time>2020-11-29T09:48:42Z</time>
      </trkpt>
      <trkpt lat="43.53309" lon="1.11075">
        <ele>266.5</ele>
        <time>2020-11-29T09:48:43Z</time>
      </trkpt>
      <trkpt lat="43.5331" lon="1.11076">
        <ele>266.5</ele>
        <time>2020-11-29T09:48:44Z</time>
      </trkpt>
      <trkpt lat="43.5331" lon="1.11077">
        <ele>266.4</ele>
        <time>2020-11-29T09:48:45Z</time>
      </trkpt>
      <trkpt lat="43.5331" lon="1.11078">
        <ele>266.4</ele>
        <time>2020-11-29T09:48:46Z</time>
      </trkpt>
      <trkpt lat="43.53311" lon="1.11077">
        <ele>266.4</ele>
        <time>2020-11-29T09:48:47Z</time>
      </trkpt>
      <trkpt lat="43.53311" lon="1.11077">
        <ele>266.3</ele>
        <time>2020-11-29T09:48:48Z</time>
      </trkpt>
      <trkpt lat="43.53311" lon="1.11076">
        <ele>266.3</ele>
        <time>2020-11-29T09:48:49Z</time>
      </trkpt>
      <trkpt lat="43.53313" lon="1.11076">
        <ele>266.2</ele>
        <time>2020-11-29T09:48:50Z</time>
      </trkpt>
      <trkpt lat="43.53317" lon="1.11082">
        <ele>265.9</ele>
        <time>2020-11-29T09:48:51Z</time>
      </trkpt>
      <trkpt lat="43.5332" lon="1.11084">
        <ele>265.8</ele>
        <time>2020-11-29T09:48:52Z</time>
      </trkpt>
      <trkpt lat="43.53322" lon="1.11088">
        <ele>265.6</ele>
        <time>2020-11-29T09:48:53Z</time>
      </trkpt>
      <trkpt lat="43.53322" lon="1.1109">
        <ele>265.6</ele>
        <time>2020-11-29T09:48:54Z</time>
      </trkpt>
      <trkpt lat="43.53323" lon="1.11092">
        <ele>265.5</ele>
        <time>2020-11-29T09:48:55Z</time>
      </trkpt>
      <trkpt lat="43.53323" lon="1.11094">
        <ele>265.4</ele>
        <time>2020-11-29T09:48:56Z</time>
      </trkpt>
      <trkpt lat="43.53325" lon="1.11099">
        <ele>265.3</ele>
        <time>2020-11-29T09:48:57Z</time>
      </trkpt>
      <trkpt lat="43.53325" lon="1.11101">
        <ele>265.3</ele>
        <time>2020-11-29T09:48:58Z</time>
      </trkpt>
      <trkpt lat="43.53326" lon="1.11105">
        <ele>265.2</ele>
        <time>2020-11-29T09:48:59Z</time>
      </trkpt>
      <trkpt lat="43.53326" lon="1.11107">
        <ele>265.1</ele>
        <time>2020-11-29T09:49:00Z</time>
      </trkpt>
      <trkpt lat="43.53327" lon="1.11112">
        <ele>265.1</ele>
        <time>2020-11-29T09:49:01Z</time>
      </trkpt>
      <trkpt lat="43.53328" lon="1.11116">
        <ele>265</ele>
        <time>2020-11-29T09:49:02Z</time>
      </trkpt>
      <trkpt lat="43.53328" lon="1.11119">
        <ele>264.9</ele>
        <time>2020-11-29T09:49:03Z</time>
      </trkpt>
      <trkpt lat="43.5333" lon="1.11123">
        <ele>264.9</ele>
        <time>2020-11-29T09:49:04Z</time>
      </trkpt>
      <trkpt lat="43.53331" lon="1.11126">
        <ele>264.7</ele>
        <time>2020-11-29T09:49:05Z</time>
      </trkpt>
      <trkpt lat="43.53333" lon="1.1113">
        <ele>264.6</ele>
        <time>2020-11-29T09:49:06Z</time>
      </trkpt>
      <trkpt lat="43.53333" lon="1.11131">
        <ele>264.6</ele>
        <time>2020-11-29T09:49:07Z</time>
      </trkpt>
      <trkpt lat="43.53333" lon="1.11136">
        <ele>264.4</ele>
        <time>2020-11-29T09:49:08Z</time>
      </trkpt>
      <trkpt lat="43.53334" lon="1.1114">
        <ele>264.2</ele>
        <time>2020-11-29T09:49:09Z</time>
      </trkpt>
      <trkpt lat="43.53335" lon="1.11145">
        <ele>264.1</ele>
        <time>2020-11-29T09:49:10Z</time>
      </trkpt>
      <trkpt lat="43.53336" lon="1.11147">
        <ele>264</ele>
        <time>2020-11-29T09:49:11Z</time>
      </trkpt>
      <trkpt lat="43.53338" lon="1.1115">
        <ele>263.9</ele>
        <time>2020-11-29T09:49:12Z</time>
      </trkpt>
      <trkpt lat="43.53338" lon="1.11151">
        <ele>263.8</ele>
        <time>2020-11-29T09:49:13Z</time>
      </trkpt>
      <trkpt lat="43.5334" lon="1.11155">
        <ele>263.7</ele>
        <time>2020-11-29T09:49:14Z</time>
      </trkpt>
      <trkpt lat="43.53341" lon="1.11159">
        <ele>263.6</ele>
        <time>2020-11-29T09:49:15Z</time>
      </trkpt>
      <trkpt lat="43.53342" lon="1.11161">
        <ele>263.6</ele>
        <time>2020-11-29T09:49:16Z</time>
      </trkpt>
      <trkpt lat="43.53342" lon="1.11163">
        <ele>263.5</ele>
        <time>2020-11-29T09:49:17Z</time>
      </trkpt>
      <trkpt lat="43.53344" lon="1.11168">
        <ele>263.4</ele>
        <time>2020-11-29T09:49:18Z</time>
      </trkpt>
      <trkpt lat="43.53345" lon="1.1117">
        <ele>263.4</ele>
        <time>2020-11-29T09:49:19Z</time>
      </trkpt>
      <trkpt lat="43.53345" lon="1.11175">
        <ele>263.3</ele>
        <time>2020-11-29T09:49:20Z</time>
      </trkpt>
      <trkpt lat="43.53345" lon="1.11176">
        <ele>263.3</ele>
        <time>2020-11-29T09:49:21Z</time>
      </trkpt>
      <trkpt lat="43.53346" lon="1.1118">
        <ele>263.2</ele>
        <time>2020-11-29T09:49:22Z</time>
      </trkpt>
      <trkpt lat="43.53347" lon="1.11184">
        <ele>263.2</ele>
        <time>2020-11-29T09:49:23Z</time>
      </trkpt>
      <trkpt lat="43.53347" lon="1.11186">
        <ele>263.2</ele>
        <time>2020-11-29T09:49:24Z</time>
      </trkpt>
      <trkpt lat="43.53347" lon="1.11188">
        <ele>263.1</ele>
        <time>2020-11-29T09:49:25Z</time>
      </trkpt>
      <trkpt lat="43.53349" lon="1.1119">
        <ele>263.1</ele>
        <time>2020-11-29T09:49:26Z</time>
      </trkpt>
      <trkpt lat="43.53349" lon="1.11191">
        <ele>263.1</ele>
        <time>2020-11-29T09:49:27Z</time>
      </trkpt>
      <trkpt lat="43.53349" lon="1.11192">
        <ele>263.1</ele>
        <time>2020-11-29T09:49:28Z</time>
      </trkpt>
      <trkpt lat="43.5335" lon="1.11194">
        <ele>263</ele>
        <time>2020-11-29T09:49:29Z</time>
      </trkpt>
      <trkpt lat="43.5335" lon="1.11196">
        <ele>263</ele>
        <time>2020-11-29T09:49:30Z</time>
      </trkpt>
      <trkpt lat="43.53351" lon="1.11198">
        <ele>263</ele>
        <time>2020-11-29T09:49:31Z</time>
      </trkpt>
      <trkpt lat="43.53351" lon="1.11203">
        <ele>262.9</ele>
        <time>2020-11-29T09:49:32Z</time>
      </trkpt>
      <trkpt lat="43.53352" lon="1.11207">
        <ele>262.8</ele>
        <time>2020-11-29T09:49:33Z</time>
      </trkpt>
      <trkpt lat="43.53353" lon="1.11211">
        <ele>262.7</ele>
        <time>2020-11-29T09:49:34Z</time>
      </trkpt>
      <trkpt lat="43.53353" lon="1.11213">
        <ele>262.7</ele>
        <time>2020-11-29T09:49:35Z</time>
      </trkpt>
      <trkpt lat="43.53354" lon="1.11216">
        <ele>262.6</ele>
        <time>2020-11-29T09:49:36Z</time>
      </trkpt>
      <trkpt lat="43.53355" lon="1.11219">
        <ele>262.6</ele>
        <time>2020-11-29T09:49:37Z</time>
      </trkpt>
      <trkpt lat="43.53356" lon="1.1122">
        <ele>262.6</ele>
        <time>2020-11-29T09:49:38Z</time>
      </trkpt>
      <trkpt lat="43.53356" lon="1.11221">
        <ele>262.6</ele>
        <time>2020-11-29T09:49:39Z</time>
      </trkpt>
      <trkpt lat="43.53357" lon="1.11222">
        <ele>262.6</ele>
        <time>2020-11-29T09:49:40Z</time>
      </trkpt>
      <trkpt lat="43.53358" lon="1.11221">
        <ele>262.6</ele>
        <time>2020-11-29T09:49:41Z</time>
      </trkpt>
      <trkpt lat="43.53359" lon="1.11224">
        <ele>262.7</ele>
        <time>2020-11-29T09:49:42Z</time>
      </trkpt>
      <trkpt lat="43.53359" lon="1.11224">
        <ele>262.7</ele>
        <time>2020-11-29T09:49:43Z</time>
      </trkpt>
      <trkpt lat="43.5336" lon="1.11228">
        <ele>262.7</ele>
        <time>2020-11-29T09:49:44Z</time>
      </trkpt>
      <trkpt lat="43.53359" lon="1.1123">
        <ele>262.7</ele>
        <time>2020-11-29T09:49:45Z</time>
      </trkpt>
      <trkpt lat="43.53359" lon="1.11232">
        <ele>262.7</ele>
        <time>2020-11-29T09:49:46Z</time>
      </trkpt>
      <trkpt lat="43.53359" lon="1.11235">
        <ele>262.7</ele>
        <time>2020-11-29T09:49:47Z</time>
      </trkpt>
      <trkpt lat="43.53362" lon="1.11235">
        <ele>262.8</ele>
        <time>2020-11-29T09:49:48Z</time>
      </trkpt>
      <trkpt lat="43.53363" lon="1.11236">
        <ele>262.8</ele>
        <time>2020-11-29T09:49:49Z</time>
      </trkpt>
      <trkpt lat="43.53365" lon="1.11236">
        <ele>262.8</ele>
        <time>2020-11-29T09:49:50Z</time>
      </trkpt>
      <trkpt lat="43.53367" lon="1.11238">
        <ele>262.9</ele>
        <time>2020-11-29T09:49:51Z</time>
      </trkpt>
      <trkpt lat="43.53369" lon="1.11236">
        <ele>263</ele>
        <time>2020-11-29T09:49:52Z</time>
      </trkpt>
      <trkpt lat="43.5337" lon="1.11235">
        <ele>263</ele>
        <time>2020-11-29T09:49:53Z</time>
      </trkpt>
      <trkpt lat="43.53371" lon="1.11234">
        <ele>263.1</ele>
        <time>2020-11-29T09:49:54Z</time>
      </trkpt>
      <trkpt lat="43.53373" lon="1.11231">
        <ele>263.3</ele>
        <time>2020-11-29T09:49:55Z</time>
      </trkpt>
      <trkpt lat="43.53374" lon="1.11231">
        <ele>263.4</ele>
        <time>2020-11-29T09:49:56Z</time>
      </trkpt>
      <trkpt lat="43.53376" lon="1.11228">
        <ele>263.6</ele>
        <time>2020-11-29T09:49:57Z</time>
      </trkpt>
      <trkpt lat="43.53377" lon="1.11226">
        <ele>263.8</ele>
        <time>2020-11-29T09:49:58Z</time>
      </trkpt>
      <trkpt lat="43.53379" lon="1.11224">
        <ele>264.1</ele>
        <time>2020-11-29T09:49:59Z</time>
      </trkpt>
      <trkpt lat="43.53381" lon="1.11223">
        <ele>264.3</ele>
        <time>2020-11-29T09:50:00Z</time>
      </trkpt>
      <trkpt lat="43.53384" lon="1.11221">
        <ele>264.7</ele>
        <time>2020-11-29T09:50:01Z</time>
      </trkpt>
      <trkpt lat="43.53387" lon="1.11219">
        <ele>265.1</ele>
        <time>2020-11-29T09:50:02Z</time>
      </trkpt>
      <trkpt lat="43.53391" lon="1.11218">
        <ele>265.8</ele>
        <time>2020-11-29T09:50:03Z</time>
      </trkpt>
      <trkpt lat="43.53393" lon="1.11218">
        <ele>266</ele>
        <time>2020-11-29T09:50:04Z</time>
      </trkpt>
      <trkpt lat="43.53396" lon="1.11216">
        <ele>266.5</ele>
        <time>2020-11-29T09:50:05Z</time>
      </trkpt>
      <trkpt lat="43.53397" lon="1.11215">
        <ele>266.7</ele>
        <time>2020-11-29T09:50:06Z</time>
      </trkpt>
      <trkpt lat="43.53398" lon="1.11212">
        <ele>267</ele>
        <time>2020-11-29T09:50:07Z</time>
      </trkpt>
      <trkpt lat="43.53401" lon="1.11209">
        <ele>267.5</ele>
        <time>2020-11-29T09:50:08Z</time>
      </trkpt>
      <trkpt lat="43.53401" lon="1.11207">
        <ele>267.7</ele>
        <time>2020-11-29T09:50:09Z</time>
      </trkpt>
      <trkpt lat="43.53404" lon="1.11204">
        <ele>268.2</ele>
        <time>2020-11-29T09:50:10Z</time>
      </trkpt>
      <trkpt lat="43.53406" lon="1.11201">
        <ele>268.5</ele>
        <time>2020-11-29T09:50:11Z</time>
      </trkpt>
      <trkpt lat="43.53409" lon="1.11199">
        <ele>268.9</ele>
        <time>2020-11-29T09:50:12Z</time>
      </trkpt>
      <trkpt lat="43.5341" lon="1.11197">
        <ele>269.1</ele>
        <time>2020-11-29T09:50:13Z</time>
      </trkpt>
      <trkpt lat="43.53411" lon="1.11194">
        <ele>269.5</ele>
        <time>2020-11-29T09:50:14Z</time>
      </trkpt>
      <trkpt lat="43.53412" lon="1.11193">
        <ele>269.6</ele>
        <time>2020-11-29T09:50:15Z</time>
      </trkpt>
      <trkpt lat="43.53413" lon="1.11191">
        <ele>269.8</ele>
        <time>2020-11-29T09:50:16Z</time>
      </trkpt>
      <trkpt lat="43.53414" lon="1.11191">
        <ele>269.9</ele>
        <time>2020-11-29T09:50:17Z</time>
      </trkpt>
      <trkpt lat="43.53414" lon="1.11191">
        <ele>270</ele>
        <time>2020-11-29T09:50:18Z</time>
      </trkpt>
      <trkpt lat="43.53415" lon="1.1119">
        <ele>270.1</ele>
        <time>2020-11-29T09:50:19Z</time>
      </trkpt>
      <trkpt lat="43.53417" lon="1.11189">
        <ele>270.3</ele>
        <time>2020-11-29T09:50:20Z</time>
      </trkpt>
      <trkpt lat="43.53417" lon="1.11188">
        <ele>270.3</ele>
        <time>2020-11-29T09:50:21Z</time>
      </trkpt>
      <trkpt lat="43.53418" lon="1.11188">
        <ele>270.5</ele>
        <time>2020-11-29T09:50:22Z</time>
      </trkpt>
      <trkpt lat="43.53421" lon="1.11185">
        <ele>270.8</ele>
        <time>2020-11-29T09:50:23Z</time>
      </trkpt>
      <trkpt lat="43.53421" lon="1.11185">
        <ele>270.9</ele>
        <time>2020-11-29T09:50:24Z</time>
      </trkpt>
      <trkpt lat="43.53423" lon="1.11184">
        <ele>271.1</ele>
        <time>2020-11-29T09:50:25Z</time>
      </trkpt>
      <trkpt lat="43.53424" lon="1.11183">
        <ele>271.2</ele>
        <time>2020-11-29T09:50:26Z</time>
      </trkpt>
      <trkpt lat="43.53426" lon="1.11182">
        <ele>271.4</ele>
        <time>2020-11-29T09:50:27Z</time>
      </trkpt>
      <trkpt lat="43.53428" lon="1.11182">
        <ele>271.5</ele>
        <time>2020-11-29T09:50:28Z</time>
      </trkpt>
      <trkpt lat="43.53429" lon="1.11181">
        <ele>271.6</ele>
        <time>2020-11-29T09:50:29Z</time>
      </trkpt>
      <trkpt lat="43.5343" lon="1.11179">
        <ele>271.7</ele>
        <time>2020-11-29T09:50:30Z</time>
      </trkpt>
      <trkpt lat="43.53433" lon="1.11177">
        <ele>271.9</ele>
        <time>2020-11-29T09:50:31Z</time>
      </trkpt>
      <trkpt lat="43.53434" lon="1.11176">
        <ele>272</ele>
        <time>2020-11-29T09:50:32Z</time>
      </trkpt>
      <trkpt lat="43.53437" lon="1.11174">
        <ele>272.1</ele>
        <time>2020-11-29T09:50:33Z</time>
      </trkpt>
      <trkpt lat="43.53438" lon="1.11174">
        <ele>272.1</ele>
        <time>2020-11-29T09:50:34Z</time>
      </trkpt>
      <trkpt lat="43.5344" lon="1.1117">
        <ele>272.2</ele>
        <time>2020-11-29T09:50:35Z</time>
      </trkpt>
      <trkpt lat="43.53442" lon="1.11168">
        <ele>272.3</ele>
        <time>2020-11-29T09:50:36Z</time>
      </trkpt>
      <trkpt lat="43.53446" lon="1.11166">
        <ele>272.4</ele>
        <time>2020-11-29T09:50:37Z</time>
      </trkpt>
      <trkpt lat="43.53447" lon="1.11164">
        <ele>272.4</ele>
        <time>2020-11-29T09:50:38Z</time>
      </trkpt>
      <trkpt lat="43.53449" lon="1.11161">
        <ele>272.5</ele>
        <time>2020-11-29T09:50:39Z</time>
      </trkpt>
      <trkpt lat="43.5345" lon="1.11161">
        <ele>272.5</ele>
        <time>2020-11-29T09:50:40Z</time>
      </trkpt>
      <trkpt lat="43.53452" lon="1.1116">
        <ele>272.6</ele>
        <time>2020-11-29T09:50:41Z</time>
      </trkpt>
      <trkpt lat="43.53452" lon="1.11157">
        <ele>272.6</ele>
        <time>2020-11-29T09:50:42Z</time>
      </trkpt>
      <trkpt lat="43.53454" lon="1.11157">
        <ele>272.7</ele>
        <time>2020-11-29T09:50:43Z</time>
      </trkpt>
      <trkpt lat="43.53454" lon="1.11158">
        <ele>272.7</ele>
        <time>2020-11-29T09:50:44Z</time>
      </trkpt>
      <trkpt lat="43.53453" lon="1.1116">
        <ele>272.7</ele>
        <time>2020-11-29T09:50:45Z</time>
      </trkpt>
      <trkpt lat="43.53453" lon="1.1116">
        <ele>272.7</ele>
        <time>2020-11-29T09:50:46Z</time>
      </trkpt>
      <trkpt lat="43.53453" lon="1.11161">
        <ele>272.7</ele>
        <time>2020-11-29T09:50:47Z</time>
      </trkpt>
      <trkpt lat="43.53453" lon="1.11163">
        <ele>272.8</ele>
        <time>2020-11-29T09:50:48Z</time>
      </trkpt>
      <trkpt lat="43.53455" lon="1.11167">
        <ele>272.8</ele>
        <time>2020-11-29T09:50:49Z</time>
      </trkpt>
      <trkpt lat="43.53457" lon="1.11171">
        <ele>272.9</ele>
        <time>2020-11-29T09:50:50Z</time>
      </trkpt>
      <trkpt lat="43.53459" lon="1.11174">
        <ele>272.9</ele>
        <time>2020-11-29T09:50:51Z</time>
      </trkpt>
      <trkpt lat="43.53462" lon="1.11179">
        <ele>272.9</ele>
        <time>2020-11-29T09:50:52Z</time>
      </trkpt>
      <trkpt lat="43.53463" lon="1.11183">
        <ele>272.8</ele>
        <time>2020-11-29T09:50:53Z</time>
      </trkpt>
      <trkpt lat="43.53466" lon="1.11188">
        <ele>272.7</ele>
        <time>2020-11-29T09:50:54Z</time>
      </trkpt>
      <trkpt lat="43.53469" lon="1.11193">
        <ele>272.5</ele>
        <time>2020-11-29T09:50:55Z</time>
      </trkpt>
      <trkpt lat="43.53472" lon="1.11197">
        <ele>272.3</ele>
        <time>2020-11-29T09:50:56Z</time>
      </trkpt>
      <trkpt lat="43.53476" lon="1.112">
        <ele>272.1</ele>
        <time>2020-11-29T09:50:57Z</time>
      </trkpt>
      <trkpt lat="43.5348" lon="1.11205">
        <ele>272</ele>
        <time>2020-11-29T09:50:58Z</time>
      </trkpt>
      <trkpt lat="43.53483" lon="1.11205">
        <ele>272</ele>
        <time>2020-11-29T09:50:59Z</time>
      </trkpt>
      <trkpt lat="43.53486" lon="1.11206">
        <ele>272</ele>
        <time>2020-11-29T09:51:00Z</time>
      </trkpt>
      <trkpt lat="43.53487" lon="1.11205">
        <ele>272</ele>
        <time>2020-11-29T09:51:01Z</time>
      </trkpt>
      <trkpt lat="43.5349" lon="1.11204">
        <ele>272</ele>
        <time>2020-11-29T09:51:02Z</time>
      </trkpt>
      <trkpt lat="43.53492" lon="1.11203">
        <ele>272.1</ele>
        <time>2020-11-29T09:51:03Z</time>
      </trkpt>
      <trkpt lat="43.53497" lon="1.11205">
        <ele>272.2</ele>
        <time>2020-11-29T09:51:04Z</time>
      </trkpt>
      <trkpt lat="43.535" lon="1.11208">
        <ele>272.4</ele>
        <time>2020-11-29T09:51:05Z</time>
      </trkpt>
      <trkpt lat="43.53502" lon="1.11209">
        <ele>272.5</ele>
        <time>2020-11-29T09:51:06Z</time>
      </trkpt>
      <trkpt lat="43.53503" lon="1.11211">
        <ele>272.6</ele>
        <time>2020-11-29T09:51:07Z</time>
      </trkpt>
      <trkpt lat="43.53503" lon="1.11212">
        <ele>272.6</ele>
        <time>2020-11-29T09:51:08Z</time>
      </trkpt>
      <trkpt lat="43.53503" lon="1.11213">
        <ele>272.6</ele>
        <time>2020-11-29T09:51:09Z</time>
      </trkpt>
      <trkpt lat="43.53503" lon="1.11214">
        <ele>272.7</ele>
        <time>2020-11-29T09:51:10Z</time>
      </trkpt>
      <trkpt lat="43.53503" lon="1.11215">
        <ele>272.7</ele>
        <time>2020-11-29T09:51:11Z</time>
      </trkpt>
      <trkpt lat="43.53504" lon="1.11219">
        <ele>272.8</ele>
        <time>2020-11-29T09:51:12Z</time>
      </trkpt>
      <trkpt lat="43.53505" lon="1.11223">
        <ele>273</ele>
        <time>2020-11-29T09:51:13Z</time>
      </trkpt>
      <trkpt lat="43.53506" lon="1.11227">
        <ele>273.1</ele>
        <time>2020-11-29T09:51:14Z</time>
      </trkpt>
      <trkpt lat="43.53507" lon="1.11234">
        <ele>273.3</ele>
        <time>2020-11-29T09:51:15Z</time>
      </trkpt>
      <trkpt lat="43.53506" lon="1.11238">
        <ele>273.3</ele>
        <time>2020-11-29T09:51:16Z</time>
      </trkpt>
      <trkpt lat="43.53506" lon="1.11241">
        <ele>273.4</ele>
        <time>2020-11-29T09:51:17Z</time>
      </trkpt>
      <trkpt lat="43.53507" lon="1.11245">
        <ele>273.4</ele>
        <time>2020-11-29T09:51:18Z</time>
      </trkpt>
      <trkpt lat="43.53508" lon="1.11251">
        <ele>273.5</ele>
        <time>2020-11-29T09:51:19Z</time>
      </trkpt>
      <trkpt lat="43.5351" lon="1.11254">
        <ele>273.6</ele>
        <time>2020-11-29T09:51:20Z</time>
      </trkpt>
      <trkpt lat="43.53513" lon="1.11257">
        <ele>273.6</ele>
        <time>2020-11-29T09:51:21Z</time>
      </trkpt>
      <trkpt lat="43.53515" lon="1.1126">
        <ele>273.7</ele>
        <time>2020-11-29T09:51:22Z</time>
      </trkpt>
      <trkpt lat="43.53518" lon="1.11263">
        <ele>273.8</ele>
        <time>2020-11-29T09:51:23Z</time>
      </trkpt>
      <trkpt lat="43.53521" lon="1.11267">
        <ele>274</ele>
        <time>2020-11-29T09:51:24Z</time>
      </trkpt>
      <trkpt lat="43.53522" lon="1.1127">
        <ele>274.1</ele>
        <time>2020-11-29T09:51:25Z</time>
      </trkpt>
      <trkpt lat="43.53524" lon="1.11273">
        <ele>274.2</ele>
        <time>2020-11-29T09:51:26Z</time>
      </trkpt>
      <trkpt lat="43.53526" lon="1.11276">
        <ele>274.4</ele>
        <time>2020-11-29T09:51:27Z</time>
      </trkpt>
      <trkpt lat="43.53529" lon="1.11277">
        <ele>274.6</ele>
        <time>2020-11-29T09:51:28Z</time>
      </trkpt>
      <trkpt lat="43.53534" lon="1.11277">
        <ele>274.9</ele>
        <time>2020-11-29T09:51:29Z</time>
      </trkpt>
      <trkpt lat="43.53537" lon="1.11276">
        <ele>275.1</ele>
        <time>2020-11-29T09:51:30Z</time>
      </trkpt>
      <trkpt lat="43.53541" lon="1.11274">
        <ele>275.4</ele>
        <time>2020-11-29T09:51:31Z</time>
      </trkpt>
      <trkpt lat="43.53544" lon="1.11272">
        <ele>275.6</ele>
        <time>2020-11-29T09:51:32Z</time>
      </trkpt>
      <trkpt lat="43.53547" lon="1.1127">
        <ele>275.9</ele>
        <time>2020-11-29T09:51:33Z</time>
      </trkpt>
      <trkpt lat="43.53552" lon="1.11269">
        <ele>276.3</ele>
        <time>2020-11-29T09:51:34Z</time>
      </trkpt>
      <trkpt lat="43.53557" lon="1.11267">
        <ele>276.7</ele>
        <time>2020-11-29T09:51:35Z</time>
      </trkpt>
      <trkpt lat="43.53562" lon="1.11266">
        <ele>277.1</ele>
        <time>2020-11-29T09:51:36Z</time>
      </trkpt>
      <trkpt lat="43.53567" lon="1.11265">
        <ele>277.6</ele>
        <time>2020-11-29T09:51:37Z</time>
      </trkpt>
      <trkpt lat="43.53571" lon="1.11263">
        <ele>278</ele>
        <time>2020-11-29T09:51:38Z</time>
      </trkpt>
      <trkpt lat="43.53575" lon="1.11267">
        <ele>278.4</ele>
        <time>2020-11-29T09:51:39Z</time>
      </trkpt>
      <trkpt lat="43.53576" lon="1.11268">
        <ele>278.6</ele>
        <time>2020-11-29T09:51:40Z</time>
      </trkpt>
      <trkpt lat="43.5358" lon="1.11269">
        <ele>279</ele>
        <time>2020-11-29T09:51:41Z</time>
      </trkpt>
      <trkpt lat="43.53581" lon="1.1127">
        <ele>279.1</ele>
        <time>2020-11-29T09:51:42Z</time>
      </trkpt>
      <trkpt lat="43.53583" lon="1.11272">
        <ele>279.4</ele>
        <time>2020-11-29T09:51:43Z</time>
      </trkpt>
      <trkpt lat="43.53586" lon="1.11274">
        <ele>279.7</ele>
        <time>2020-11-29T09:51:44Z</time>
      </trkpt>
      <trkpt lat="43.53586" lon="1.11275">
        <ele>279.8</ele>
        <time>2020-11-29T09:51:45Z</time>
      </trkpt>
      <trkpt lat="43.5359" lon="1.11278">
        <ele>280.2</ele>
        <time>2020-11-29T09:51:46Z</time>
      </trkpt>
      <trkpt lat="43.53593" lon="1.1128">
        <ele>280.6</ele>
        <time>2020-11-29T09:51:47Z</time>
      </trkpt>
      <trkpt lat="43.53597" lon="1.11279">
        <ele>280.9</ele>
        <time>2020-11-29T09:51:48Z</time>
      </trkpt>
      <trkpt lat="43.53599" lon="1.1128">
        <ele>281.1</ele>
        <time>2020-11-29T09:51:49Z</time>
      </trkpt>
      <trkpt lat="43.53604" lon="1.11278">
        <ele>281.5</ele>
        <time>2020-11-29T09:51:50Z</time>
      </trkpt>
      <trkpt lat="43.53608" lon="1.11276">
        <ele>281.9</ele>
        <time>2020-11-29T09:51:51Z</time>
      </trkpt>
      <trkpt lat="43.53612" lon="1.11274">
        <ele>282.4</ele>
        <time>2020-11-29T09:51:52Z</time>
      </trkpt>
      <trkpt lat="43.53616" lon="1.11272">
        <ele>282.8</ele>
        <time>2020-11-29T09:51:53Z</time>
      </trkpt>
      <trkpt lat="43.53621" lon="1.11269">
        <ele>283.3</ele>
        <time>2020-11-29T09:51:54Z</time>
      </trkpt>
      <trkpt lat="43.53627" lon="1.11266">
        <ele>283.8</ele>
        <time>2020-11-29T09:51:55Z</time>
      </trkpt>
      <trkpt lat="43.5363" lon="1.11264">
        <ele>284.2</ele>
        <time>2020-11-29T09:51:56Z</time>
      </trkpt>
      <trkpt lat="43.53634" lon="1.11262">
        <ele>284.5</ele>
        <time>2020-11-29T09:51:57Z</time>
      </trkpt>
      <trkpt lat="43.53635" lon="1.11262">
        <ele>284.6</ele>
        <time>2020-11-29T09:51:58Z</time>
      </trkpt>
      <trkpt lat="43.5364" lon="1.11259">
        <ele>285</ele>
        <time>2020-11-29T09:51:59Z</time>
      </trkpt>
      <trkpt lat="43.53641" lon="1.11257">
        <ele>285.2</ele>
        <time>2020-11-29T09:52:00Z</time>
      </trkpt>
      <trkpt lat="43.53645" lon="1.11255">
        <ele>285.5</ele>
        <time>2020-11-29T09:52:01Z</time>
      </trkpt>
      <trkpt lat="43.53648" lon="1.11252">
        <ele>285.8</ele>
        <time>2020-11-29T09:52:02Z</time>
      </trkpt>
      <trkpt lat="43.53652" lon="1.1125">
        <ele>286</ele>
        <time>2020-11-29T09:52:03Z</time>
      </trkpt>
      <trkpt lat="43.53654" lon="1.11247">
        <ele>286.2</ele>
        <time>2020-11-29T09:52:04Z</time>
      </trkpt>
      <trkpt lat="43.53656" lon="1.11244">
        <ele>286.3</ele>
        <time>2020-11-29T09:52:05Z</time>
      </trkpt>
      <trkpt lat="43.53657" lon="1.1124">
        <ele>286.5</ele>
        <time>2020-11-29T09:52:06Z</time>
      </trkpt>
      <trkpt lat="43.53659" lon="1.11236">
        <ele>286.7</ele>
        <time>2020-11-29T09:52:07Z</time>
      </trkpt>
      <trkpt lat="43.53661" lon="1.11234">
        <ele>286.9</ele>
        <time>2020-11-29T09:52:08Z</time>
      </trkpt>
      <trkpt lat="43.53662" lon="1.11229">
        <ele>287.1</ele>
        <time>2020-11-29T09:52:09Z</time>
      </trkpt>
      <trkpt lat="43.53663" lon="1.11227">
        <ele>287.2</ele>
        <time>2020-11-29T09:52:10Z</time>
      </trkpt>
      <trkpt lat="43.53664" lon="1.11223">
        <ele>287.3</ele>
        <time>2020-11-29T09:52:11Z</time>
      </trkpt>
      <trkpt lat="43.53665" lon="1.11218">
        <ele>287.4</ele>
        <time>2020-11-29T09:52:12Z</time>
      </trkpt>
      <trkpt lat="43.53665" lon="1.11215">
        <ele>287.6</ele>
        <time>2020-11-29T09:52:13Z</time>
      </trkpt>
      <trkpt lat="43.53664" lon="1.11209">
        <ele>287.7</ele>
        <time>2020-11-29T09:52:14Z</time>
      </trkpt>
      <trkpt lat="43.53663" lon="1.11205">
        <ele>287.8</ele>
        <time>2020-11-29T09:52:15Z</time>
      </trkpt>
      <trkpt lat="43.53663" lon="1.11201">
        <ele>287.9</ele>
        <time>2020-11-29T09:52:16Z</time>
      </trkpt>
      <trkpt lat="43.53662" lon="1.11197">
        <ele>288</ele>
        <time>2020-11-29T09:52:17Z</time>
      </trkpt>
      <trkpt lat="43.53661" lon="1.11193">
        <ele>288.1</ele>
        <time>2020-11-29T09:52:18Z</time>
      </trkpt>
      <trkpt lat="43.53659" lon="1.11187">
        <ele>288.3</ele>
        <time>2020-11-29T09:52:19Z</time>
      </trkpt>
      <trkpt lat="43.53657" lon="1.11182">
        <ele>288.4</ele>
        <time>2020-11-29T09:52:20Z</time>
      </trkpt>
      <trkpt lat="43.53657" lon="1.11177">
        <ele>288.5</ele>
        <time>2020-11-29T09:52:21Z</time>
      </trkpt>
      <trkpt lat="43.53656" lon="1.11174">
        <ele>288.6</ele>
        <time>2020-11-29T09:52:22Z</time>
      </trkpt>
      <trkpt lat="43.53657" lon="1.11169">
        <ele>288.7</ele>
        <time>2020-11-29T09:52:23Z</time>
      </trkpt>
      <trkpt lat="43.53657" lon="1.11167">
        <ele>288.7</ele>
        <time>2020-11-29T09:52:24Z</time>
      </trkpt>
      <trkpt lat="43.53659" lon="1.11163">
        <ele>288.8</ele>
        <time>2020-11-29T09:52:25Z</time>
      </trkpt>
      <trkpt lat="43.5366" lon="1.11162">
        <ele>288.9</ele>
        <time>2020-11-29T09:52:26Z</time>
      </trkpt>
      <trkpt lat="43.53662" lon="1.11158">
        <ele>289</ele>
        <time>2020-11-29T09:52:27Z</time>
      </trkpt>
      <trkpt lat="43.53663" lon="1.11154">
        <ele>289.1</ele>
        <time>2020-11-29T09:52:28Z</time>
      </trkpt>
      <trkpt lat="43.53665" lon="1.1115">
        <ele>289.2</ele>
        <time>2020-11-29T09:52:29Z</time>
      </trkpt>
      <trkpt lat="43.53666" lon="1.11147">
        <ele>289.4</ele>
        <time>2020-11-29T09:52:30Z</time>
      </trkpt>
      <trkpt lat="43.53668" lon="1.11144">
        <ele>289.5</ele>
        <time>2020-11-29T09:52:31Z</time>
      </trkpt>
      <trkpt lat="43.53669" lon="1.11139">
        <ele>289.7</ele>
        <time>2020-11-29T09:52:32Z</time>
      </trkpt>
      <trkpt lat="43.53671" lon="1.11135">
        <ele>289.8</ele>
        <time>2020-11-29T09:52:33Z</time>
      </trkpt>
      <trkpt lat="43.53672" lon="1.11131">
        <ele>290</ele>
        <time>2020-11-29T09:52:34Z</time>
      </trkpt>
      <trkpt lat="43.53673" lon="1.11126">
        <ele>290.2</ele>
        <time>2020-11-29T09:52:35Z</time>
      </trkpt>
      <trkpt lat="43.53673" lon="1.11122">
        <ele>290.4</ele>
        <time>2020-11-29T09:52:36Z</time>
      </trkpt>
      <trkpt lat="43.53673" lon="1.11117">
        <ele>290.6</ele>
        <time>2020-11-29T09:52:37Z</time>
      </trkpt>
      <trkpt lat="43.53673" lon="1.11113">
        <ele>290.8</ele>
        <time>2020-11-29T09:52:38Z</time>
      </trkpt>
      <trkpt lat="43.53673" lon="1.11109">
        <ele>290.9</ele>
        <time>2020-11-29T09:52:39Z</time>
      </trkpt>
      <trkpt lat="43.53673" lon="1.11105">
        <ele>291.1</ele>
        <time>2020-11-29T09:52:40Z</time>
      </trkpt>
      <trkpt lat="43.53673" lon="1.11104">
        <ele>291.1</ele>
        <time>2020-11-29T09:52:41Z</time>
      </trkpt>
      <trkpt lat="43.53674" lon="1.11103">
        <ele>291.2</ele>
        <time>2020-11-29T09:52:42Z</time>
      </trkpt>
      <trkpt lat="43.53674" lon="1.111">
        <ele>291.3</ele>
        <time>2020-11-29T09:52:43Z</time>
      </trkpt>
      <trkpt lat="43.53675" lon="1.11096">
        <ele>291.4</ele>
        <time>2020-11-29T09:52:44Z</time>
      </trkpt>
      <trkpt lat="43.53675" lon="1.11096">
        <ele>291.4</ele>
        <time>2020-11-29T09:52:45Z</time>
      </trkpt>
      <trkpt lat="43.53676" lon="1.11095">
        <ele>291.4</ele>
        <time>2020-11-29T09:52:46Z</time>
      </trkpt>
      <trkpt lat="43.53676" lon="1.11094">
        <ele>291.5</ele>
        <time>2020-11-29T09:52:47Z</time>
      </trkpt>
      <trkpt lat="43.53676" lon="1.11094">
        <ele>291.5</ele>
        <time>2020-11-29T09:52:48Z</time>
      </trkpt>
      <trkpt lat="43.53677" lon="1.11093">
        <ele>291.5</ele>
        <time>2020-11-29T09:52:49Z</time>
      </trkpt>
      <trkpt lat="43.53677" lon="1.11091">
        <ele>291.6</ele>
        <time>2020-11-29T09:52:50Z</time>
      </trkpt>
      <trkpt lat="43.53679" lon="1.11091">
        <ele>291.6</ele>
        <time>2020-11-29T09:52:51Z</time>
      </trkpt>
      <trkpt lat="43.5368" lon="1.11091">
        <ele>291.6</ele>
        <time>2020-11-29T09:52:52Z</time>
      </trkpt>
      <trkpt lat="43.53681" lon="1.11092">
        <ele>291.6</ele>
        <time>2020-11-29T09:52:53Z</time>
      </trkpt>
      <trkpt lat="43.53682" lon="1.11095">
        <ele>291.6</ele>
        <time>2020-11-29T09:52:54Z</time>
      </trkpt>
      <trkpt lat="43.53682" lon="1.11097">
        <ele>291.6</ele>
        <time>2020-11-29T09:52:55Z</time>
      </trkpt>
      <trkpt lat="43.53682" lon="1.11099">
        <ele>291.6</ele>
        <time>2020-11-29T09:52:56Z</time>
      </trkpt>
      <trkpt lat="43.53682" lon="1.11101">
        <ele>291.6</ele>
        <time>2020-11-29T09:52:57Z</time>
      </trkpt>
      <trkpt lat="43.53681" lon="1.11106">
        <ele>291.5</ele>
        <time>2020-11-29T09:52:58Z</time>
      </trkpt>
      <trkpt lat="43.5368" lon="1.1111">
        <ele>291.4</ele>
        <time>2020-11-29T09:52:59Z</time>
      </trkpt>
      <trkpt lat="43.53681" lon="1.11114">
        <ele>291.3</ele>
        <time>2020-11-29T09:53:00Z</time>
      </trkpt>
      <trkpt lat="43.5368" lon="1.11119">
        <ele>291.2</ele>
        <time>2020-11-29T09:53:01Z</time>
      </trkpt>
      <trkpt lat="43.5368" lon="1.11124">
        <ele>291</ele>
        <time>2020-11-29T09:53:02Z</time>
      </trkpt>
      <trkpt lat="43.53679" lon="1.11129">
        <ele>290.9</ele>
        <time>2020-11-29T09:53:03Z</time>
      </trkpt>
      <trkpt lat="43.53679" lon="1.11134">
        <ele>290.7</ele>
        <time>2020-11-29T09:53:04Z</time>
      </trkpt>
      <trkpt lat="43.53679" lon="1.11139">
        <ele>290.6</ele>
        <time>2020-11-29T09:53:05Z</time>
      </trkpt>
      <trkpt lat="43.53679" lon="1.11144">
        <ele>290.5</ele>
        <time>2020-11-29T09:53:06Z</time>
      </trkpt>
      <trkpt lat="43.53679" lon="1.1115">
        <ele>290.3</ele>
        <time>2020-11-29T09:53:07Z</time>
      </trkpt>
      <trkpt lat="43.53681" lon="1.11155">
        <ele>290.1</ele>
        <time>2020-11-29T09:53:08Z</time>
      </trkpt>
      <trkpt lat="43.53681" lon="1.11161">
        <ele>289.9</ele>
        <time>2020-11-29T09:53:09Z</time>
      </trkpt>
      <trkpt lat="43.53681" lon="1.11166">
        <ele>289.7</ele>
        <time>2020-11-29T09:53:10Z</time>
      </trkpt>
      <trkpt lat="43.53681" lon="1.11172">
        <ele>289.5</ele>
        <time>2020-11-29T09:53:11Z</time>
      </trkpt>
      <trkpt lat="43.5368" lon="1.11178">
        <ele>289.3</ele>
        <time>2020-11-29T09:53:12Z</time>
      </trkpt>
      <trkpt lat="43.5368" lon="1.11183">
        <ele>289.1</ele>
        <time>2020-11-29T09:53:13Z</time>
      </trkpt>
      <trkpt lat="43.5368" lon="1.11188">
        <ele>288.9</ele>
        <time>2020-11-29T09:53:14Z</time>
      </trkpt>
      <trkpt lat="43.5368" lon="1.11192">
        <ele>288.7</ele>
        <time>2020-11-29T09:53:15Z</time>
      </trkpt>
      <trkpt lat="43.53682" lon="1.11197">
        <ele>288.4</ele>
        <time>2020-11-29T09:53:16Z</time>
      </trkpt>
      <trkpt lat="43.53683" lon="1.11199">
        <ele>288.2</ele>
        <time>2020-11-29T09:53:17Z</time>
      </trkpt>
      <trkpt lat="43.53685" lon="1.11205">
        <ele>287.8</ele>
        <time>2020-11-29T09:53:18Z</time>
      </trkpt>
      <trkpt lat="43.53685" lon="1.11209">
        <ele>287.4</ele>
        <time>2020-11-29T09:53:19Z</time>
      </trkpt>
      <trkpt lat="43.53685" lon="1.1121">
        <ele>287.2</ele>
        <time>2020-11-29T09:53:20Z</time>
      </trkpt>
      <trkpt lat="43.53687" lon="1.11215">
        <ele>286.8</ele>
        <time>2020-11-29T09:53:21Z</time>
      </trkpt>
      <trkpt lat="43.53687" lon="1.11216">
        <ele>286.4</ele>
        <time>2020-11-29T09:53:22Z</time>
      </trkpt>
      <trkpt lat="43.53688" lon="1.11218">
        <ele>285.9</ele>
        <time>2020-11-29T09:53:23Z</time>
      </trkpt>
      <trkpt lat="43.53689" lon="1.11217">
        <ele>285.7</ele>
        <time>2020-11-29T09:53:24Z</time>
      </trkpt>
      <trkpt lat="43.5369" lon="1.11216">
        <ele>285.4</ele>
        <time>2020-11-29T09:53:25Z</time>
      </trkpt>
      <trkpt lat="43.5369" lon="1.11214">
        <ele>285.3</ele>
        <time>2020-11-29T09:53:26Z</time>
      </trkpt>
      <trkpt lat="43.53691" lon="1.1121">
        <ele>285.2</ele>
        <time>2020-11-29T09:53:27Z</time>
      </trkpt>
      <trkpt lat="43.53693" lon="1.11204">
        <ele>284.8</ele>
        <time>2020-11-29T09:53:28Z</time>
      </trkpt>
      <trkpt lat="43.53694" lon="1.11199">
        <ele>284.6</ele>
        <time>2020-11-29T09:53:29Z</time>
      </trkpt>
      <trkpt lat="43.53696" lon="1.11195">
        <ele>284.2</ele>
        <time>2020-11-29T09:53:30Z</time>
      </trkpt>
      <trkpt lat="43.53698" lon="1.1119">
        <ele>284.1</ele>
        <time>2020-11-29T09:53:31Z</time>
      </trkpt>
      <trkpt lat="43.53698" lon="1.11188">
        <ele>283.7</ele>
        <time>2020-11-29T09:53:32Z</time>
      </trkpt>
      <trkpt lat="43.53701" lon="1.11181">
        <ele>283.4</ele>
        <time>2020-11-29T09:53:33Z</time>
      </trkpt>
      <trkpt lat="43.53705" lon="1.11176">
        <ele>283.2</ele>
        <time>2020-11-29T09:53:34Z</time>
      </trkpt>
      <trkpt lat="43.53708" lon="1.11174">
        <ele>282.7</ele>
        <time>2020-11-29T09:53:35Z</time>
      </trkpt>
      <trkpt lat="43.53711" lon="1.11173">
        <ele>282.3</ele>
        <time>2020-11-29T09:53:36Z</time>
      </trkpt>
      <trkpt lat="43.53716" lon="1.11175">
        <ele>281.9</ele>
        <time>2020-11-29T09:53:37Z</time>
      </trkpt>
      <trkpt lat="43.5372" lon="1.11179">
        <ele>281.2</ele>
        <time>2020-11-29T09:53:38Z</time>
      </trkpt>
      <trkpt lat="43.53723" lon="1.11187">
        <ele>280.5</ele>
        <time>2020-11-29T09:53:39Z</time>
      </trkpt>
      <trkpt lat="43.53726" lon="1.11191">
        <ele>280</ele>
        <time>2020-11-29T09:53:40Z</time>
      </trkpt>
      <trkpt lat="43.53731" lon="1.11196">
        <ele>279.5</ele>
        <time>2020-11-29T09:53:41Z</time>
      </trkpt>
      <trkpt lat="43.53734" lon="1.11198">
        <ele>279</ele>
        <time>2020-11-29T09:53:42Z</time>
      </trkpt>
      <trkpt lat="43.53736" lon="1.11201">
        <ele>278.7</ele>
        <time>2020-11-29T09:53:43Z</time>
      </trkpt>
      <trkpt lat="43.53738" lon="1.11204">
        <ele>278.2</ele>
        <time>2020-11-29T09:53:44Z</time>
      </trkpt>
      <trkpt lat="43.5374" lon="1.11206">
        <ele>277.9</ele>
        <time>2020-11-29T09:53:45Z</time>
      </trkpt>
      <trkpt lat="43.53743" lon="1.1121">
        <ele>277.4</ele>
        <time>2020-11-29T09:53:46Z</time>
      </trkpt>
      <trkpt lat="43.53746" lon="1.11209">
        <ele>277.1</ele>
        <time>2020-11-29T09:53:47Z</time>
      </trkpt>
      <trkpt lat="43.5375" lon="1.11207">
        <ele>276.9</ele>
        <time>2020-11-29T09:53:48Z</time>
      </trkpt>
      <trkpt lat="43.53753" lon="1.11206">
        <ele>276.8</ele>
        <time>2020-11-29T09:53:49Z</time>
      </trkpt>
      <trkpt lat="43.53756" lon="1.11205">
        <ele>276.5</ele>
        <time>2020-11-29T09:53:50Z</time>
      </trkpt>
      <trkpt lat="43.53759" lon="1.11205">
        <ele>276.2</ele>
        <time>2020-11-29T09:53:51Z</time>
      </trkpt>
      <trkpt lat="43.53762" lon="1.11206">
        <ele>276</ele>
        <time>2020-11-29T09:53:52Z</time>
      </trkpt>
      <trkpt lat="43.53766" lon="1.11207">
        <ele>275.6</ele>
        <time>2020-11-29T09:53:53Z</time>
      </trkpt>
      <trkpt lat="43.53771" lon="1.11208">
        <ele>275.6</ele>
        <time>2020-11-29T09:53:54Z</time>
      </trkpt>
      <trkpt lat="43.53776" lon="1.11213">
        <ele>275.6</ele>
        <time>2020-11-29T09:53:55Z</time>
      </trkpt>
      <trkpt lat="43.53782" lon="1.11217">
        <ele>275.6</ele>
        <time>2020-11-29T09:53:56Z</time>
      </trkpt>
      <trkpt lat="43.53785" lon="1.11219">
        <ele>275.6</ele>
        <time>2020-11-29T09:53:57Z</time>
      </trkpt>
      <trkpt lat="43.53789" lon="1.11221">
        <ele>275.7</ele>
        <time>2020-11-29T09:53:58Z</time>
      </trkpt>
      <trkpt lat="43.53792" lon="1.11222">
        <ele>275.7</ele>
        <time>2020-11-29T09:53:59Z</time>
      </trkpt>
      <trkpt lat="43.53795" lon="1.11223">
        <ele>275.8</ele>
        <time>2020-11-29T09:54:00Z</time>
      </trkpt>
      <trkpt lat="43.53799" lon="1.11224">
        <ele>275.8</ele>
        <time>2020-11-29T09:54:01Z</time>
      </trkpt>
      <trkpt lat="43.53803" lon="1.11224">
        <ele>275.9</ele>
        <time>2020-11-29T09:54:02Z</time>
      </trkpt>
      <trkpt lat="43.53807" lon="1.11222">
        <ele>276</ele>
        <time>2020-11-29T09:54:03Z</time>
      </trkpt>
      <trkpt lat="43.53809" lon="1.11222">
        <ele>276.1</ele>
        <time>2020-11-29T09:54:04Z</time>
      </trkpt>
      <trkpt lat="43.53812" lon="1.11222">
        <ele>276.2</ele>
        <time>2020-11-29T09:54:05Z</time>
      </trkpt>
      <trkpt lat="43.53815" lon="1.11223">
        <ele>276.4</ele>
        <time>2020-11-29T09:54:06Z</time>
      </trkpt>
      <trkpt lat="43.53816" lon="1.11224">
        <ele>276.5</ele>
        <time>2020-11-29T09:54:07Z</time>
      </trkpt>
      <trkpt lat="43.53819" lon="1.11222">
        <ele>276.7</ele>
        <time>2020-11-29T09:54:08Z</time>
      </trkpt>
      <trkpt lat="43.5382" lon="1.11222">
        <ele>276.7</ele>
        <time>2020-11-29T09:54:09Z</time>
      </trkpt>
      <trkpt lat="43.53824" lon="1.11219">
        <ele>277</ele>
        <time>2020-11-29T09:54:10Z</time>
      </trkpt>
      <trkpt lat="43.53828" lon="1.11218">
        <ele>277.2</ele>
        <time>2020-11-29T09:54:11Z</time>
      </trkpt>
      <trkpt lat="43.53829" lon="1.11218">
        <ele>277.3</ele>
        <time>2020-11-29T09:54:12Z</time>
      </trkpt>
      <trkpt lat="43.53832" lon="1.11219">
        <ele>277.5</ele>
        <time>2020-11-29T09:54:13Z</time>
      </trkpt>
      <trkpt lat="43.53835" lon="1.11218">
        <ele>277.8</ele>
        <time>2020-11-29T09:54:14Z</time>
      </trkpt>
      <trkpt lat="43.53838" lon="1.11217">
        <ele>278</ele>
        <time>2020-11-29T09:54:15Z</time>
      </trkpt>
      <trkpt lat="43.53842" lon="1.11214">
        <ele>278.3</ele>
        <time>2020-11-29T09:54:16Z</time>
      </trkpt>
      <trkpt lat="43.53845" lon="1.11212">
        <ele>278.6</ele>
        <time>2020-11-29T09:54:17Z</time>
      </trkpt>
      <trkpt lat="43.53849" lon="1.1121">
        <ele>279</ele>
        <time>2020-11-29T09:54:18Z</time>
      </trkpt>
      <trkpt lat="43.53853" lon="1.11208">
        <ele>279.3</ele>
        <time>2020-11-29T09:54:19Z</time>
      </trkpt>
      <trkpt lat="43.53854" lon="1.11207">
        <ele>279.5</ele>
        <time>2020-11-29T09:54:20Z</time>
      </trkpt>
      <trkpt lat="43.53856" lon="1.11208">
        <ele>279.6</ele>
        <time>2020-11-29T09:54:21Z</time>
      </trkpt>
      <trkpt lat="43.53857" lon="1.1121">
        <ele>279.8</ele>
        <time>2020-11-29T09:54:22Z</time>
      </trkpt>
      <trkpt lat="43.53858" lon="1.11211">
        <ele>279.9</ele>
        <time>2020-11-29T09:54:23Z</time>
      </trkpt>
      <trkpt lat="43.53861" lon="1.11215">
        <ele>280.3</ele>
        <time>2020-11-29T09:54:24Z</time>
      </trkpt>
      <trkpt lat="43.53862" lon="1.11216">
        <ele>280.5</ele>
        <time>2020-11-29T09:54:25Z</time>
      </trkpt>
      <trkpt lat="43.53865" lon="1.11219">
        <ele>280.8</ele>
        <time>2020-11-29T09:54:26Z</time>
      </trkpt>
      <trkpt lat="43.53867" lon="1.11221">
        <ele>281</ele>
        <time>2020-11-29T09:54:27Z</time>
      </trkpt>
      <trkpt lat="43.53867" lon="1.11221">
        <ele>281.1</ele>
        <time>2020-11-29T09:54:28Z</time>
      </trkpt>
      <trkpt lat="43.5387" lon="1.11222">
        <ele>281.4</ele>
        <time>2020-11-29T09:54:29Z</time>
      </trkpt>
      <trkpt lat="43.5387" lon="1.11222">
        <ele>281.4</ele>
        <time>2020-11-29T09:54:30Z</time>
      </trkpt>
      <trkpt lat="43.53873" lon="1.11223">
        <ele>281.8</ele>
        <time>2020-11-29T09:54:31Z</time>
      </trkpt>
      <trkpt lat="43.53876" lon="1.11223">
        <ele>282.2</ele>
        <time>2020-11-29T09:54:32Z</time>
      </trkpt>
      <trkpt lat="43.53879" lon="1.11224">
        <ele>282.6</ele>
        <time>2020-11-29T09:54:33Z</time>
      </trkpt>
      <trkpt lat="43.53881" lon="1.11224">
        <ele>282.8</ele>
        <time>2020-11-29T09:54:34Z</time>
      </trkpt>
      <trkpt lat="43.53884" lon="1.11224">
        <ele>283.3</ele>
        <time>2020-11-29T09:54:35Z</time>
      </trkpt>
      <trkpt lat="43.53885" lon="1.11224">
        <ele>283.4</ele>
        <time>2020-11-29T09:54:36Z</time>
      </trkpt>
      <trkpt lat="43.53887" lon="1.11223">
        <ele>283.8</ele>
        <time>2020-11-29T09:54:37Z</time>
      </trkpt>
      <trkpt lat="43.53891" lon="1.11222">
        <ele>284.3</ele>
        <time>2020-11-29T09:54:38Z</time>
      </trkpt>
      <trkpt lat="43.53894" lon="1.11222">
        <ele>284.8</ele>
        <time>2020-11-29T09:54:39Z</time>
      </trkpt>
      <trkpt lat="43.53898" lon="1.11221">
        <ele>285.3</ele>
        <time>2020-11-29T09:54:40Z</time>
      </trkpt>
      <trkpt lat="43.53899" lon="1.11221">
        <ele>285.5</ele>
        <time>2020-11-29T09:54:41Z</time>
      </trkpt>
      <trkpt lat="43.53902" lon="1.11218">
        <ele>286</ele>
        <time>2020-11-29T09:54:42Z</time>
      </trkpt>
      <trkpt lat="43.53906" lon="1.11215">
        <ele>286.5</ele>
        <time>2020-11-29T09:54:43Z</time>
      </trkpt>
      <trkpt lat="43.53909" lon="1.11212">
        <ele>286.9</ele>
        <time>2020-11-29T09:54:44Z</time>
      </trkpt>
      <trkpt lat="43.53912" lon="1.11209">
        <ele>287.4</ele>
        <time>2020-11-29T09:54:45Z</time>
      </trkpt>
      <trkpt lat="43.53913" lon="1.11207">
        <ele>287.5</ele>
        <time>2020-11-29T09:54:46Z</time>
      </trkpt>
      <trkpt lat="43.53916" lon="1.11203">
        <ele>287.9</ele>
        <time>2020-11-29T09:54:47Z</time>
      </trkpt>
      <trkpt lat="43.53917" lon="1.11201">
        <ele>288.1</ele>
        <time>2020-11-29T09:54:48Z</time>
      </trkpt>
      <trkpt lat="43.53918" lon="1.11199">
        <ele>288.2</ele>
        <time>2020-11-29T09:54:49Z</time>
      </trkpt>
      <trkpt lat="43.5392" lon="1.11198">
        <ele>288.3</ele>
        <time>2020-11-29T09:54:50Z</time>
      </trkpt>
      <trkpt lat="43.5392" lon="1.11198">
        <ele>288.3</ele>
        <time>2020-11-29T09:54:51Z</time>
      </trkpt>
      <trkpt lat="43.53921" lon="1.11196">
        <ele>288.5</ele>
        <time>2020-11-29T09:54:52Z</time>
      </trkpt>
      <trkpt lat="43.53923" lon="1.11195">
        <ele>288.6</ele>
        <time>2020-11-29T09:54:53Z</time>
      </trkpt>
      <trkpt lat="43.53924" lon="1.11195">
        <ele>288.6</ele>
        <time>2020-11-29T09:54:54Z</time>
      </trkpt>
      <trkpt lat="43.53925" lon="1.11194">
        <ele>288.7</ele>
        <time>2020-11-29T09:54:55Z</time>
      </trkpt>
      <trkpt lat="43.53925" lon="1.11192">
        <ele>288.8</ele>
        <time>2020-11-29T09:54:56Z</time>
      </trkpt>
      <trkpt lat="43.53928" lon="1.11189">
        <ele>289</ele>
        <time>2020-11-29T09:54:57Z</time>
      </trkpt>
      <trkpt lat="43.53929" lon="1.11188">
        <ele>289</ele>
        <time>2020-11-29T09:54:58Z</time>
      </trkpt>
      <trkpt lat="43.5393" lon="1.11185">
        <ele>289.1</ele>
        <time>2020-11-29T09:54:59Z</time>
      </trkpt>
      <trkpt lat="43.53931" lon="1.11184">
        <ele>289.2</ele>
        <time>2020-11-29T09:55:00Z</time>
      </trkpt>
      <trkpt lat="43.53932" lon="1.11183">
        <ele>289.2</ele>
        <time>2020-11-29T09:55:01Z</time>
      </trkpt>
      <trkpt lat="43.53932" lon="1.11182">
        <ele>289.2</ele>
        <time>2020-11-29T09:55:02Z</time>
      </trkpt>
      <trkpt lat="43.53933" lon="1.11181">
        <ele>289.2</ele>
        <time>2020-11-29T09:55:03Z</time>
      </trkpt>
      <trkpt lat="43.53933" lon="1.1118">
        <ele>289.2</ele>
        <time>2020-11-29T09:55:04Z</time>
      </trkpt>
      <trkpt lat="43.53936" lon="1.11176">
        <ele>289.3</ele>
        <time>2020-11-29T09:55:05Z</time>
      </trkpt>
      <trkpt lat="43.53938" lon="1.11175">
        <ele>289.3</ele>
        <time>2020-11-29T09:55:06Z</time>
      </trkpt>
      <trkpt lat="43.53941" lon="1.11171">
        <ele>289.2</ele>
        <time>2020-11-29T09:55:07Z</time>
      </trkpt>
      <trkpt lat="43.53942" lon="1.11165">
        <ele>289.2</ele>
        <time>2020-11-29T09:55:08Z</time>
      </trkpt>
      <trkpt lat="43.53944" lon="1.11162">
        <ele>289.1</ele>
        <time>2020-11-29T09:55:09Z</time>
      </trkpt>
      <trkpt lat="43.53947" lon="1.11159">
        <ele>289</ele>
        <time>2020-11-29T09:55:10Z</time>
      </trkpt>
      <trkpt lat="43.53949" lon="1.11156">
        <ele>289</ele>
        <time>2020-11-29T09:55:11Z</time>
      </trkpt>
      <trkpt lat="43.53951" lon="1.11154">
        <ele>288.9</ele>
        <time>2020-11-29T09:55:12Z</time>
      </trkpt>
      <trkpt lat="43.53951" lon="1.11152">
        <ele>288.9</ele>
        <time>2020-11-29T09:55:13Z</time>
      </trkpt>
      <trkpt lat="43.53952" lon="1.1115">
        <ele>288.9</ele>
        <time>2020-11-29T09:55:14Z</time>
      </trkpt>
      <trkpt lat="43.53953" lon="1.11149">
        <ele>288.9</ele>
        <time>2020-11-29T09:55:15Z</time>
      </trkpt>
      <trkpt lat="43.53953" lon="1.11148">
        <ele>288.9</ele>
        <time>2020-11-29T09:55:16Z</time>
      </trkpt>
      <trkpt lat="43.53955" lon="1.11144">
        <ele>288.8</ele>
        <time>2020-11-29T09:55:17Z</time>
      </trkpt>
      <trkpt lat="43.53955" lon="1.11142">
        <ele>288.8</ele>
        <time>2020-11-29T09:55:18Z</time>
      </trkpt>
      <trkpt lat="43.53957" lon="1.11138">
        <ele>288.8</ele>
        <time>2020-11-29T09:55:19Z</time>
      </trkpt>
      <trkpt lat="43.53959" lon="1.11134">
        <ele>288.8</ele>
        <time>2020-11-29T09:55:20Z</time>
      </trkpt>
      <trkpt lat="43.53961" lon="1.1113">
        <ele>288.8</ele>
        <time>2020-11-29T09:55:21Z</time>
      </trkpt>
      <trkpt lat="43.53962" lon="1.11127">
        <ele>288.9</ele>
        <time>2020-11-29T09:55:22Z</time>
      </trkpt>
      <trkpt lat="43.53964" lon="1.11123">
        <ele>289</ele>
        <time>2020-11-29T09:55:23Z</time>
      </trkpt>
      <trkpt lat="43.53968" lon="1.11118">
        <ele>289.2</ele>
        <time>2020-11-29T09:55:24Z</time>
      </trkpt>
      <trkpt lat="43.53971" lon="1.11115">
        <ele>289.4</ele>
        <time>2020-11-29T09:55:25Z</time>
      </trkpt>
      <trkpt lat="43.53974" lon="1.11113">
        <ele>289.6</ele>
        <time>2020-11-29T09:55:26Z</time>
      </trkpt>
      <trkpt lat="43.53974" lon="1.11112">
        <ele>289.7</ele>
        <time>2020-11-29T09:55:27Z</time>
      </trkpt>
      <trkpt lat="43.53977" lon="1.11113">
        <ele>290</ele>
        <time>2020-11-29T09:55:28Z</time>
      </trkpt>
      <trkpt lat="43.53979" lon="1.11113">
        <ele>290.2</ele>
        <time>2020-11-29T09:55:29Z</time>
      </trkpt>
      <trkpt lat="43.5398" lon="1.11114">
        <ele>290.4</ele>
        <time>2020-11-29T09:55:30Z</time>
      </trkpt>
      <trkpt lat="43.53983" lon="1.11117">
        <ele>290.5</ele>
        <time>2020-11-29T09:55:31Z</time>
      </trkpt>
      <trkpt lat="43.53986" lon="1.11118">
        <ele>290.7</ele>
        <time>2020-11-29T09:55:32Z</time>
      </trkpt>
      <trkpt lat="43.53987" lon="1.11118">
        <ele>291</ele>
        <time>2020-11-29T09:55:33Z</time>
      </trkpt>
      <trkpt lat="43.5399" lon="1.1112">
        <ele>291</ele>
        <time>2020-11-29T09:55:34Z</time>
      </trkpt>
      <trkpt lat="43.53991" lon="1.1112">
        <ele>291.2</ele>
        <time>2020-11-29T09:55:35Z</time>
      </trkpt>
      <trkpt lat="43.53992" lon="1.11121">
        <ele>291.1</ele>
        <time>2020-11-29T09:55:36Z</time>
      </trkpt>
      <trkpt lat="43.53993" lon="1.11122">
        <ele>291.1</ele>
        <time>2020-11-29T09:55:37Z</time>
      </trkpt>
      <trkpt lat="43.53996" lon="1.11123">
        <ele>291.4</ele>
        <time>2020-11-29T09:55:38Z</time>
      </trkpt>
      <trkpt lat="43.53998" lon="1.11125">
        <ele>291.6</ele>
        <time>2020-11-29T09:55:39Z</time>
      </trkpt>
      <trkpt lat="43.53999" lon="1.11126">
        <ele>291.9</ele>
        <time>2020-11-29T09:55:40Z</time>
      </trkpt>
      <trkpt lat="43.54" lon="1.11128">
        <ele>291.9</ele>
        <time>2020-11-29T09:55:41Z</time>
      </trkpt>
      <trkpt lat="43.54001" lon="1.11128">
        <ele>291.9</ele>
        <time>2020-11-29T09:55:42Z</time>
      </trkpt>
      <trkpt lat="43.54002" lon="1.11129">
        <ele>291.9</ele>
        <time>2020-11-29T09:55:43Z</time>
      </trkpt>
      <trkpt lat="43.54005" lon="1.11131">
        <ele>292.1</ele>
        <time>2020-11-29T09:55:44Z</time>
      </trkpt>
      <trkpt lat="43.54005" lon="1.11132">
        <ele>292.1</ele>
        <time>2020-11-29T09:55:45Z</time>
      </trkpt>
      <trkpt lat="43.54006" lon="1.11135">
        <ele>292.4</ele>
        <time>2020-11-29T09:55:46Z</time>
      </trkpt>
      <trkpt lat="43.54007" lon="1.11136">
        <ele>292.4</ele>
        <time>2020-11-29T09:55:47Z</time>
      </trkpt>
      <trkpt lat="43.54007" lon="1.11136">
        <ele>292.4</ele>
        <time>2020-11-29T09:55:48Z</time>
      </trkpt>
      <trkpt lat="43.54008" lon="1.11137">
        <ele>292.4</ele>
        <time>2020-11-29T09:55:49Z</time>
      </trkpt>
      <trkpt lat="43.54008" lon="1.11137">
        <ele>292.4</ele>
        <time>2020-11-29T09:55:50Z</time>
      </trkpt>
      <trkpt lat="43.54009" lon="1.11138">
        <ele>292.6</ele>
        <time>2020-11-29T09:55:51Z</time>
      </trkpt>
      <trkpt lat="43.5401" lon="1.11138">
        <ele>292.7</ele>
        <time>2020-11-29T09:55:52Z</time>
      </trkpt>
      <trkpt lat="43.54012" lon="1.11141">
        <ele>292.9</ele>
        <time>2020-11-29T09:55:53Z</time>
      </trkpt>
      <trkpt lat="43.54013" lon="1.11141">
        <ele>292.9</ele>
        <time>2020-11-29T09:55:54Z</time>
      </trkpt>
      <trkpt lat="43.54014" lon="1.11142">
        <ele>292.9</ele>
        <time>2020-11-29T09:55:55Z</time>
      </trkpt>
      <trkpt lat="43.54015" lon="1.11143">
        <ele>292.9</ele>
        <time>2020-11-29T09:55:56Z</time>
      </trkpt>
      <trkpt lat="43.54016" lon="1.11142">
        <ele>293.1</ele>
        <time>2020-11-29T09:55:57Z</time>
      </trkpt>
      <trkpt lat="43.54018" lon="1.11142">
        <ele>293.1</ele>
        <time>2020-11-29T09:55:58Z</time>
      </trkpt>
      <trkpt lat="43.54019" lon="1.11142">
        <ele>293.3</ele>
        <time>2020-11-29T09:55:59Z</time>
      </trkpt>
      <trkpt lat="43.54021" lon="1.11143">
        <ele>293.3</ele>
        <time>2020-11-29T09:56:00Z</time>
      </trkpt>
      <trkpt lat="43.54021" lon="1.11142">
        <ele>293.4</ele>
        <time>2020-11-29T09:56:01Z</time>
      </trkpt>
      <trkpt lat="43.54022" lon="1.11142">
        <ele>293.4</ele>
        <time>2020-11-29T09:56:02Z</time>
      </trkpt>
      <trkpt lat="43.54021" lon="1.1114">
        <ele>293.3</ele>
        <time>2020-11-29T09:56:03Z</time>
      </trkpt>
      <trkpt lat="43.54021" lon="1.1114">
        <ele>293.3</ele>
        <time>2020-11-29T09:56:04Z</time>
      </trkpt>
      <trkpt lat="43.54021" lon="1.11139">
        <ele>293.3</ele>
        <time>2020-11-29T09:56:05Z</time>
      </trkpt>
      <trkpt lat="43.54022" lon="1.11139">
        <ele>293.4</ele>
        <time>2020-11-29T09:56:06Z</time>
      </trkpt>
      <trkpt lat="43.54022" lon="1.11139">
        <ele>293.4</ele>
        <time>2020-11-29T09:56:07Z</time>
      </trkpt>
      <trkpt lat="43.54022" lon="1.11138">
        <ele>293.4</ele>
        <time>2020-11-29T09:56:08Z</time>
      </trkpt>
      <trkpt lat="43.54022" lon="1.11139">
        <ele>293.4</ele>
        <time>2020-11-29T09:56:09Z</time>
      </trkpt>
      <trkpt lat="43.54021" lon="1.11136">
        <ele>293.2</ele>
        <time>2020-11-29T09:56:10Z</time>
      </trkpt>
      <trkpt lat="43.54021" lon="1.11136">
        <ele>293.2</ele>
        <time>2020-11-29T09:56:11Z</time>
      </trkpt>
      <trkpt lat="43.54021" lon="1.11136">
        <ele>293.2</ele>
        <time>2020-11-29T09:56:12Z</time>
      </trkpt>
      <trkpt lat="43.54021" lon="1.11136">
        <ele>293.2</ele>
        <time>2020-11-29T09:56:13Z</time>
      </trkpt>
      <trkpt lat="43.54021" lon="1.11137">
        <ele>293.4</ele>
        <time>2020-11-29T09:56:14Z</time>
      </trkpt>
      <trkpt lat="43.54021" lon="1.11137">
        <ele>293.4</ele>
        <time>2020-11-29T09:56:15Z</time>
      </trkpt>
      <trkpt lat="43.54021" lon="1.11137">
        <ele>293.4</ele>
        <time>2020-11-29T09:56:16Z</time>
      </trkpt>
      <trkpt lat="43.54021" lon="1.11137">
        <ele>293.4</ele>
        <time>2020-11-29T09:56:17Z</time>
      </trkpt>
      <trkpt lat="43.54022" lon="1.11137">
        <ele>293.4</ele>
        <time>2020-11-29T09:56:18Z</time>
      </trkpt>
      <trkpt lat="43.54022" lon="1.11137">
        <ele>293.4</ele>
        <time>2020-11-29T09:56:19Z</time>
      </trkpt>
      <trkpt lat="43.54022" lon="1.11137">
        <ele>293.4</ele>
        <time>2020-11-29T09:56:20Z</time>
      </trkpt>
      <trkpt lat="43.54022" lon="1.11137">
        <ele>293.4</ele>
        <time>2020-11-29T09:56:21Z</time>
      </trkpt>
      <trkpt lat="43.54022" lon="1.11137">
        <ele>293.4</ele>
        <time>2020-11-29T09:56:22Z</time>
      </trkpt>
      <trkpt lat="43.54023" lon="1.11137">
        <ele>293.4</ele>
        <time>2020-11-29T09:56:23Z</time>
      </trkpt>
      <trkpt lat="43.54023" lon="1.11137">
        <ele>293.4</ele>
        <time>2020-11-29T09:56:24Z</time>
      </trkpt>
      <trkpt lat="43.54023" lon="1.11137">
        <ele>293.4</ele>
        <time>2020-11-29T09:56:25Z</time>
      </trkpt>
      <trkpt lat="43.54023" lon="1.11137">
        <ele>293.4</ele>
        <time>2020-11-29T09:56:26Z</time>
      </trkpt>
      <trkpt lat="43.54023" lon="1.11137">
        <ele>293.4</ele>
        <time>2020-11-29T09:56:27Z</time>
      </trkpt>
      <trkpt lat="43.54024" lon="1.11137">
        <ele>293.4</ele>
        <time>2020-11-29T09:56:28Z</time>
      </trkpt>
      <trkpt lat="43.54024" lon="1.11138">
        <ele>293.4</ele>
        <time>2020-11-29T09:56:29Z</time>
      </trkpt>
      <trkpt lat="43.54024" lon="1.11138">
        <ele>293.6</ele>
        <time>2020-11-29T09:56:30Z</time>
      </trkpt>
      <trkpt lat="43.54025" lon="1.11138">
        <ele>293.6</ele>
        <time>2020-11-29T09:56:31Z</time>
      </trkpt>
      <trkpt lat="43.54025" lon="1.11138">
        <ele>293.6</ele>
        <time>2020-11-29T09:56:32Z</time>
      </trkpt>
      <trkpt lat="43.54025" lon="1.11138">
        <ele>293.6</ele>
        <time>2020-11-29T09:56:33Z</time>
      </trkpt>
      <trkpt lat="43.54025" lon="1.11138">
        <ele>293.6</ele>
        <time>2020-11-29T09:56:34Z</time>
      </trkpt>
      <trkpt lat="43.54025" lon="1.11138">
        <ele>293.6</ele>
        <time>2020-11-29T09:56:35Z</time>
      </trkpt>
      <trkpt lat="43.54025" lon="1.11137">
        <ele>293.6</ele>
        <time>2020-11-29T09:56:36Z</time>
      </trkpt>
      <trkpt lat="43.54025" lon="1.11138">
        <ele>293.6</ele>
        <time>2020-11-29T09:56:37Z</time>
      </trkpt>
      <trkpt lat="43.54025" lon="1.11138">
        <ele>293.6</ele>
        <time>2020-11-29T09:56:38Z</time>
      </trkpt>
      <trkpt lat="43.54026" lon="1.11138">
        <ele>293.6</ele>
        <time>2020-11-29T09:56:39Z</time>
      </trkpt>
      <trkpt lat="43.54026" lon="1.11138">
        <ele>293.6</ele>
        <time>2020-11-29T09:56:40Z</time>
      </trkpt>
      <trkpt lat="43.54026" lon="1.11138">
        <ele>293.6</ele>
        <time>2020-11-29T09:56:41Z</time>
      </trkpt>
      <trkpt lat="43.54026" lon="1.11138">
        <ele>293.6</ele>
        <time>2020-11-29T09:56:42Z</time>
      </trkpt>
      <trkpt lat="43.54026" lon="1.11137">
        <ele>293.6</ele>
        <time>2020-11-29T09:56:43Z</time>
      </trkpt>
      <trkpt lat="43.54025" lon="1.11137">
        <ele>293.6</ele>
        <time>2020-11-29T09:56:44Z</time>
      </trkpt>
      <trkpt lat="43.54025" lon="1.11136">
        <ele>293.6</ele>
        <time>2020-11-29T09:56:45Z</time>
      </trkpt>
      <trkpt lat="43.54025" lon="1.11136">
        <ele>293.6</ele>
        <time>2020-11-29T09:56:46Z</time>
      </trkpt>
      <trkpt lat="43.54025" lon="1.11136">
        <ele>293.6</ele>
        <time>2020-11-29T09:56:47Z</time>
      </trkpt>
      <trkpt lat="43.54025" lon="1.11136">
        <ele>293.6</ele>
        <time>2020-11-29T09:56:48Z</time>
      </trkpt>
      <trkpt lat="43.54025" lon="1.11136">
        <ele>293.6</ele>
        <time>2020-11-29T09:56:49Z</time>
      </trkpt>
      <trkpt lat="43.54025" lon="1.11136">
        <ele>293.6</ele>
        <time>2020-11-29T09:56:50Z</time>
      </trkpt>
      <trkpt lat="43.54025" lon="1.11136">
        <ele>293.6</ele>
        <time>2020-11-29T09:56:51Z</time>
      </trkpt>
      <trkpt lat="43.54025" lon="1.11136">
        <ele>293.6</ele>
        <time>2020-11-29T09:56:52Z</time>
      </trkpt>
      <trkpt lat="43.54025" lon="1.11136">
        <ele>293.6</ele>
        <time>2020-11-29T09:56:53Z</time>
      </trkpt>
      <trkpt lat="43.54025" lon="1.11136">
        <ele>293.6</ele>
        <time>2020-11-29T09:56:54Z</time>
      </trkpt>
      <trkpt lat="43.54025" lon="1.11136">
        <ele>293.6</ele>
        <time>2020-11-29T09:56:55Z</time>
      </trkpt>
      <trkpt lat="43.54025" lon="1.11136">
        <ele>293.6</ele>
        <time>2020-11-29T09:56:56Z</time>
      </trkpt>
      <trkpt lat="43.54025" lon="1.11136">
        <ele>293.7</ele>
        <time>2020-11-29T09:56:57Z</time>
      </trkpt>
      <trkpt lat="43.54025" lon="1.11136">
        <ele>293.8</ele>
        <time>2020-11-29T09:56:58Z</time>
      </trkpt>
      <trkpt lat="43.54025" lon="1.11136">
        <ele>293.8</ele>
        <time>2020-11-29T09:56:59Z</time>
      </trkpt>
      <trkpt lat="43.54025" lon="1.11137">
        <ele>293.9</ele>
        <time>2020-11-29T09:57:00Z</time>
      </trkpt>
      <trkpt lat="43.54025" lon="1.11137">
        <ele>294</ele>
        <time>2020-11-29T09:57:01Z</time>
      </trkpt>
      <trkpt lat="43.54025" lon="1.11137">
        <ele>294.1</ele>
        <time>2020-11-29T09:57:02Z</time>
      </trkpt>
      <trkpt lat="43.54026" lon="1.11138">
        <ele>294.2</ele>
        <time>2020-11-29T09:57:03Z</time>
      </trkpt>
      <trkpt lat="43.54026" lon="1.11137">
        <ele>294.2</ele>
        <time>2020-11-29T09:57:04Z</time>
      </trkpt>
      <trkpt lat="43.54026" lon="1.11138">
        <ele>294.3</ele>
        <time>2020-11-29T09:57:05Z</time>
      </trkpt>
      <trkpt lat="43.54026" lon="1.11138">
        <ele>294.4</ele>
        <time>2020-11-29T09:57:06Z</time>
      </trkpt>
      <trkpt lat="43.54026" lon="1.11138">
        <ele>294.5</ele>
        <time>2020-11-29T09:57:07Z</time>
      </trkpt>
      <trkpt lat="43.54026" lon="1.11138">
        <ele>294.6</ele>
        <time>2020-11-29T09:57:08Z</time>
      </trkpt>
      <trkpt lat="43.54026" lon="1.11138">
        <ele>294.7</ele>
        <time>2020-11-29T09:57:09Z</time>
      </trkpt>
      <trkpt lat="43.54026" lon="1.11139">
        <ele>294.8</ele>
        <time>2020-11-29T09:57:10Z</time>
      </trkpt>
      <trkpt lat="43.54026" lon="1.1114">
        <ele>294.9</ele>
        <time>2020-11-29T09:57:11Z</time>
      </trkpt>
      <trkpt lat="43.54026" lon="1.11141">
        <ele>295</ele>
        <time>2020-11-29T09:57:12Z</time>
      </trkpt>
      <trkpt lat="43.54026" lon="1.11141">
        <ele>295.1</ele>
        <time>2020-11-29T09:57:13Z</time>
      </trkpt>
      <trkpt lat="43.54026" lon="1.11141">
        <ele>295.2</ele>
        <time>2020-11-29T09:57:14Z</time>
      </trkpt>
      <trkpt lat="43.54026" lon="1.11142">
        <ele>295.3</ele>
        <time>2020-11-29T09:57:15Z</time>
      </trkpt>
      <trkpt lat="43.54026" lon="1.11142">
        <ele>295.4</ele>
        <time>2020-11-29T09:57:16Z</time>
      </trkpt>
      <trkpt lat="43.54026" lon="1.11143">
        <ele>295.5</ele>
        <time>2020-11-29T09:57:17Z</time>
      </trkpt>
      <trkpt lat="43.54026" lon="1.11143">
        <ele>295.6</ele>
        <time>2020-11-29T09:57:18Z</time>
      </trkpt>
      <trkpt lat="43.54026" lon="1.11143">
        <ele>295.7</ele>
        <time>2020-11-29T09:57:19Z</time>
      </trkpt>
      <trkpt lat="43.54026" lon="1.11143">
        <ele>295.9</ele>
        <time>2020-11-29T09:57:20Z</time>
      </trkpt>
      <trkpt lat="43.54026" lon="1.11143">
        <ele>296</ele>
        <time>2020-11-29T09:57:21Z</time>
      </trkpt>
      <trkpt lat="43.54025" lon="1.11144">
        <ele>296.1</ele>
        <time>2020-11-29T09:57:22Z</time>
      </trkpt>
      <trkpt lat="43.54025" lon="1.11145">
        <ele>296.2</ele>
        <time>2020-11-29T09:57:23Z</time>
      </trkpt>
      <trkpt lat="43.54024" lon="1.11145">
        <ele>296.1</ele>
        <time>2020-11-29T09:57:24Z</time>
      </trkpt>
      <trkpt lat="43.54024" lon="1.11145">
        <ele>296.3</ele>
        <time>2020-11-29T09:57:25Z</time>
      </trkpt>
      <trkpt lat="43.54024" lon="1.11145">
        <ele>296.4</ele>
        <time>2020-11-29T09:57:26Z</time>
      </trkpt>
      <trkpt lat="43.54024" lon="1.11145">
        <ele>296.5</ele>
        <time>2020-11-29T09:57:27Z</time>
      </trkpt>
      <trkpt lat="43.54024" lon="1.11145">
        <ele>296.6</ele>
        <time>2020-11-29T09:57:28Z</time>
      </trkpt>
      <trkpt lat="43.54024" lon="1.11145">
        <ele>296.8</ele>
        <time>2020-11-29T09:57:29Z</time>
      </trkpt>
      <trkpt lat="43.54023" lon="1.11145">
        <ele>296.9</ele>
        <time>2020-11-29T09:57:30Z</time>
      </trkpt>
      <trkpt lat="43.54023" lon="1.11144">
        <ele>297</ele>
        <time>2020-11-29T09:57:31Z</time>
      </trkpt>
      <trkpt lat="43.54023" lon="1.11144">
        <ele>297.2</ele>
        <time>2020-11-29T09:57:32Z</time>
      </trkpt>
      <trkpt lat="43.54023" lon="1.11144">
        <ele>297.3</ele>
        <time>2020-11-29T09:57:33Z</time>
      </trkpt>
      <trkpt lat="43.54023" lon="1.11144">
        <ele>297.5</ele>
        <time>2020-11-29T09:57:34Z</time>
      </trkpt>
      <trkpt lat="43.54023" lon="1.11145">
        <ele>297.6</ele>
        <time>2020-11-29T09:57:35Z</time>
      </trkpt>
      <trkpt lat="43.54023" lon="1.11145">
        <ele>297.7</ele>
        <time>2020-11-29T09:57:36Z</time>
      </trkpt>
      <trkpt lat="43.54023" lon="1.11145">
        <ele>297.9</ele>
        <time>2020-11-29T09:57:37Z</time>
      </trkpt>
      <trkpt lat="43.54022" lon="1.11145">
        <ele>298</ele>
        <time>2020-11-29T09:57:38Z</time>
      </trkpt>
      <trkpt lat="43.54022" lon="1.11145">
        <ele>298.2</ele>
        <time>2020-11-29T09:57:39Z</time>
      </trkpt>
      <trkpt lat="43.54022" lon="1.11145">
        <ele>298.3</ele>
        <time>2020-11-29T09:57:40Z</time>
      </trkpt>
      <trkpt lat="43.54022" lon="1.11145">
        <ele>298.5</ele>
        <time>2020-11-29T09:57:41Z</time>
      </trkpt>
      <trkpt lat="43.54022" lon="1.11145">
        <ele>298.6</ele>
        <time>2020-11-29T09:57:42Z</time>
      </trkpt>
      <trkpt lat="43.54022" lon="1.11145">
        <ele>298.8</ele>
        <time>2020-11-29T09:57:43Z</time>
      </trkpt>
      <trkpt lat="43.54022" lon="1.11144">
        <ele>298.9</ele>
        <time>2020-11-29T09:57:44Z</time>
      </trkpt>
      <trkpt lat="43.54022" lon="1.11144">
        <ele>299.1</ele>
        <time>2020-11-29T09:57:45Z</time>
      </trkpt>
      <trkpt lat="43.54021" lon="1.11144">
        <ele>299.3</ele>
        <time>2020-11-29T09:57:46Z</time>
      </trkpt>
      <trkpt lat="43.54021" lon="1.11144">
        <ele>299.4</ele>
        <time>2020-11-29T09:57:47Z</time>
      </trkpt>
      <trkpt lat="43.54021" lon="1.11144">
        <ele>299.6</ele>
        <time>2020-11-29T09:57:48Z</time>
      </trkpt>
      <trkpt lat="43.54021" lon="1.11144">
        <ele>299.7</ele>
        <time>2020-11-29T09:57:49Z</time>
      </trkpt>
      <trkpt lat="43.54021" lon="1.11143">
        <ele>299.9</ele>
        <time>2020-11-29T09:57:50Z</time>
      </trkpt>
      <trkpt lat="43.54021" lon="1.11143">
        <ele>300.1</ele>
        <time>2020-11-29T09:57:51Z</time>
      </trkpt>
      <trkpt lat="43.54021" lon="1.11143">
        <ele>300.2</ele>
        <time>2020-11-29T09:57:52Z</time>
      </trkpt>
      <trkpt lat="43.54021" lon="1.11143">
        <ele>300.3</ele>
        <time>2020-11-29T09:57:53Z</time>
      </trkpt>
      <trkpt lat="43.54021" lon="1.11143">
        <ele>300.4</ele>
        <time>2020-11-29T09:57:54Z</time>
      </trkpt>
      <trkpt lat="43.54021" lon="1.11143">
        <ele>300.6</ele>
        <time>2020-11-29T09:57:55Z</time>
      </trkpt>
      <trkpt lat="43.54021" lon="1.11143">
        <ele>300.8</ele>
        <time>2020-11-29T09:57:56Z</time>
      </trkpt>
      <trkpt lat="43.5402" lon="1.11143">
        <ele>301</ele>
        <time>2020-11-29T09:57:57Z</time>
      </trkpt>
      <trkpt lat="43.5402" lon="1.11143">
        <ele>301.1</ele>
        <time>2020-11-29T09:57:58Z</time>
      </trkpt>
      <trkpt lat="43.5402" lon="1.11143">
        <ele>301.3</ele>
        <time>2020-11-29T09:57:59Z</time>
      </trkpt>
      <trkpt lat="43.5402" lon="1.11143">
        <ele>301.5</ele>
        <time>2020-11-29T09:58:00Z</time>
      </trkpt>
      <trkpt lat="43.5402" lon="1.11143">
        <ele>301.7</ele>
        <time>2020-11-29T09:58:01Z</time>
      </trkpt>
      <trkpt lat="43.5402" lon="1.11143">
        <ele>301.9</ele>
        <time>2020-11-29T09:58:02Z</time>
      </trkpt>
      <trkpt lat="43.5402" lon="1.11143">
        <ele>302.1</ele>
        <time>2020-11-29T09:58:03Z</time>
      </trkpt>
      <trkpt lat="43.5402" lon="1.11143">
        <ele>302.3</ele>
        <time>2020-11-29T09:58:04Z</time>
      </trkpt>
      <trkpt lat="43.5402" lon="1.11143">
        <ele>302.4</ele>
        <time>2020-11-29T09:58:05Z</time>
      </trkpt>
      <trkpt lat="43.5402" lon="1.11143">
        <ele>302.6</ele>
        <time>2020-11-29T09:58:06Z</time>
      </trkpt>
      <trkpt lat="43.5402" lon="1.11143">
        <ele>302.8</ele>
        <time>2020-11-29T09:58:07Z</time>
      </trkpt>
      <trkpt lat="43.5402" lon="1.11143">
        <ele>303</ele>
        <time>2020-11-29T09:58:08Z</time>
      </trkpt>
      <trkpt lat="43.5402" lon="1.11143">
        <ele>303.2</ele>
        <time>2020-11-29T09:58:09Z</time>
      </trkpt>
      <trkpt lat="43.5402" lon="1.11143">
        <ele>303.4</ele>
        <time>2020-11-29T09:58:10Z</time>
      </trkpt>
      <trkpt lat="43.5402" lon="1.11143">
        <ele>303.7</ele>
        <time>2020-11-29T09:58:11Z</time>
      </trkpt>
      <trkpt lat="43.5402" lon="1.11143">
        <ele>303.8</ele>
        <time>2020-11-29T09:58:12Z</time>
      </trkpt>
      <trkpt lat="43.5402" lon="1.11144">
        <ele>304</ele>
        <time>2020-11-29T09:58:13Z</time>
      </trkpt>
      <trkpt lat="43.5402" lon="1.11143">
        <ele>304.2</ele>
        <time>2020-11-29T09:58:14Z</time>
      </trkpt>
      <trkpt lat="43.54021" lon="1.11143">
        <ele>304.4</ele>
        <time>2020-11-29T09:58:15Z</time>
      </trkpt>
      <trkpt lat="43.54021" lon="1.11142">
        <ele>304.7</ele>
        <time>2020-11-29T09:58:16Z</time>
      </trkpt>
      <trkpt lat="43.54021" lon="1.11141">
        <ele>304.9</ele>
        <time>2020-11-29T09:58:17Z</time>
      </trkpt>
      <trkpt lat="43.54021" lon="1.11141">
        <ele>305</ele>
        <time>2020-11-29T09:58:18Z</time>
      </trkpt>
      <trkpt lat="43.54021" lon="1.11141">
        <ele>305.3</ele>
        <time>2020-11-29T09:58:19Z</time>
      </trkpt>
      <trkpt lat="43.54021" lon="1.11141">
        <ele>305.5</ele>
        <time>2020-11-29T09:58:20Z</time>
      </trkpt>
      <trkpt lat="43.54021" lon="1.11141">
        <ele>305.7</ele>
        <time>2020-11-29T09:58:21Z</time>
      </trkpt>
      <trkpt lat="43.54021" lon="1.11141">
        <ele>305.9</ele>
        <time>2020-11-29T09:58:22Z</time>
      </trkpt>
      <trkpt lat="43.54021" lon="1.11141">
        <ele>306.2</ele>
        <time>2020-11-29T09:58:23Z</time>
      </trkpt>
      <trkpt lat="43.54021" lon="1.11141">
        <ele>306.4</ele>
        <time>2020-11-29T09:58:24Z</time>
      </trkpt>
      <trkpt lat="43.54021" lon="1.11141">
        <ele>306.6</ele>
        <time>2020-11-29T09:58:25Z</time>
      </trkpt>
      <trkpt lat="43.54021" lon="1.11141">
        <ele>306.8</ele>
        <time>2020-11-29T09:58:26Z</time>
      </trkpt>
      <trkpt lat="43.54021" lon="1.11142">
        <ele>307.2</ele>
        <time>2020-11-29T09:58:27Z</time>
      </trkpt>
      <trkpt lat="43.54021" lon="1.11142">
        <ele>307.5</ele>
        <time>2020-11-29T09:58:28Z</time>
      </trkpt>
      <trkpt lat="43.54021" lon="1.11143">
        <ele>307.7</ele>
        <time>2020-11-29T09:58:29Z</time>
      </trkpt>
      <trkpt lat="43.54021" lon="1.11143">
        <ele>307.9</ele>
        <time>2020-11-29T09:58:30Z</time>
      </trkpt>
      <trkpt lat="43.54022" lon="1.11143">
        <ele>308.1</ele>
        <time>2020-11-29T09:58:31Z</time>
      </trkpt>
      <trkpt lat="43.54022" lon="1.11143">
        <ele>308.4</ele>
        <time>2020-11-29T09:58:32Z</time>
      </trkpt>
      <trkpt lat="43.54022" lon="1.11143">
        <ele>308.6</ele>
        <time>2020-11-29T09:58:33Z</time>
      </trkpt>
      <trkpt lat="43.54022" lon="1.11143">
        <ele>308.9</ele>
        <time>2020-11-29T09:58:34Z</time>
      </trkpt>
      <trkpt lat="43.54022" lon="1.11143">
        <ele>309.1</ele>
        <time>2020-11-29T09:58:35Z</time>
      </trkpt>
      <trkpt lat="43.54022" lon="1.11143">
        <ele>309.4</ele>
        <time>2020-11-29T09:58:36Z</time>
      </trkpt>
      <trkpt lat="43.54022" lon="1.11143">
        <ele>309.4</ele>
        <time>2020-11-29T09:58:37Z</time>
      </trkpt>
      <trkpt lat="43.54021" lon="1.11143">
        <ele>309.5</ele>
        <time>2020-11-29T09:58:38Z</time>
      </trkpt>
      <trkpt lat="43.54022" lon="1.11143">
        <ele>309.6</ele>
        <time>2020-11-29T09:58:39Z</time>
      </trkpt>
      <trkpt lat="43.54022" lon="1.11144">
        <ele>309.7</ele>
        <time>2020-11-29T09:58:40Z</time>
      </trkpt>
      <trkpt lat="43.54023" lon="1.11145">
        <ele>309.8</ele>
        <time>2020-11-29T09:58:41Z</time>
      </trkpt>
      <trkpt lat="43.54023" lon="1.11146">
        <ele>309.9</ele>
        <time>2020-11-29T09:58:42Z</time>
      </trkpt>
      <trkpt lat="43.54023" lon="1.11146">
        <ele>310</ele>
        <time>2020-11-29T09:58:43Z</time>
      </trkpt>
      <trkpt lat="43.54023" lon="1.11146">
        <ele>310</ele>
        <time>2020-11-29T09:58:44Z</time>
      </trkpt>
      <trkpt lat="43.54023" lon="1.11146">
        <ele>310.1</ele>
        <time>2020-11-29T09:58:45Z</time>
      </trkpt>
      <trkpt lat="43.54023" lon="1.11146">
        <ele>310.2</ele>
        <time>2020-11-29T09:58:46Z</time>
      </trkpt>
      <trkpt lat="43.54023" lon="1.11146">
        <ele>310.3</ele>
        <time>2020-11-29T09:58:47Z</time>
      </trkpt>
      <trkpt lat="43.54023" lon="1.11145">
        <ele>310.4</ele>
        <time>2020-11-29T09:58:48Z</time>
      </trkpt>
      <trkpt lat="43.54023" lon="1.11146">
        <ele>310.5</ele>
        <time>2020-11-29T09:58:49Z</time>
      </trkpt>
      <trkpt lat="43.54024" lon="1.11147">
        <ele>310.5</ele>
        <time>2020-11-29T09:58:50Z</time>
      </trkpt>
      <trkpt lat="43.54024" lon="1.11147">
        <ele>310.6</ele>
        <time>2020-11-29T09:58:51Z</time>
      </trkpt>
      <trkpt lat="43.54023" lon="1.11147">
        <ele>310.7</ele>
        <time>2020-11-29T09:58:52Z</time>
      </trkpt>
      <trkpt lat="43.54024" lon="1.11147">
        <ele>310.8</ele>
        <time>2020-11-29T09:58:53Z</time>
      </trkpt>
      <trkpt lat="43.54024" lon="1.11147">
        <ele>310.9</ele>
        <time>2020-11-29T09:58:54Z</time>
      </trkpt>
      <trkpt lat="43.54025" lon="1.11148">
        <ele>311.1</ele>
        <time>2020-11-29T09:58:55Z</time>
      </trkpt>
      <trkpt lat="43.54025" lon="1.11149">
        <ele>311.2</ele>
        <time>2020-11-29T09:58:56Z</time>
      </trkpt>
      <trkpt lat="43.54025" lon="1.11149">
        <ele>311.3</ele>
        <time>2020-11-29T09:58:57Z</time>
      </trkpt>
      <trkpt lat="43.54025" lon="1.11148">
        <ele>311.4</ele>
        <time>2020-11-29T09:58:58Z</time>
      </trkpt>
      <trkpt lat="43.54025" lon="1.11148">
        <ele>311.4</ele>
        <time>2020-11-29T09:58:59Z</time>
      </trkpt>
      <trkpt lat="43.54025" lon="1.11148">
        <ele>311.5</ele>
        <time>2020-11-29T09:59:00Z</time>
      </trkpt>
      <trkpt lat="43.54025" lon="1.11149">
        <ele>311.6</ele>
        <time>2020-11-29T09:59:01Z</time>
      </trkpt>
      <trkpt lat="43.54025" lon="1.11149">
        <ele>311.7</ele>
        <time>2020-11-29T09:59:02Z</time>
      </trkpt>
      <trkpt lat="43.54025" lon="1.11149">
        <ele>311.8</ele>
        <time>2020-11-29T09:59:03Z</time>
      </trkpt>
      <trkpt lat="43.54025" lon="1.11149">
        <ele>311.9</ele>
        <time>2020-11-29T09:59:04Z</time>
      </trkpt>
      <trkpt lat="43.54025" lon="1.11149">
        <ele>312</ele>
        <time>2020-11-29T09:59:05Z</time>
      </trkpt>
      <trkpt lat="43.54025" lon="1.11149">
        <ele>312</ele>
        <time>2020-11-29T09:59:06Z</time>
      </trkpt>
      <trkpt lat="43.54027" lon="1.11151">
        <ele>312.2</ele>
        <time>2020-11-29T09:59:07Z</time>
      </trkpt>
      <trkpt lat="43.54029" lon="1.11152">
        <ele>312.3</ele>
        <time>2020-11-29T09:59:08Z</time>
      </trkpt>
      <trkpt lat="43.5403" lon="1.11153">
        <ele>312.3</ele>
        <time>2020-11-29T09:59:09Z</time>
      </trkpt>
      <trkpt lat="43.5403" lon="1.11155">
        <ele>312.4</ele>
        <time>2020-11-29T09:59:10Z</time>
      </trkpt>
      <trkpt lat="43.54032" lon="1.1116">
        <ele>312.3</ele>
        <time>2020-11-29T09:59:11Z</time>
      </trkpt>
      <trkpt lat="43.54033" lon="1.11162">
        <ele>312.4</ele>
        <time>2020-11-29T09:59:12Z</time>
      </trkpt>
      <trkpt lat="43.54035" lon="1.11166">
        <ele>312.3</ele>
        <time>2020-11-29T09:59:13Z</time>
      </trkpt>
      <trkpt lat="43.54035" lon="1.11167">
        <ele>312.4</ele>
        <time>2020-11-29T09:59:14Z</time>
      </trkpt>
      <trkpt lat="43.54038" lon="1.1117">
        <ele>312.2</ele>
        <time>2020-11-29T09:59:15Z</time>
      </trkpt>
      <trkpt lat="43.54038" lon="1.1117">
        <ele>312.3</ele>
        <time>2020-11-29T09:59:16Z</time>
      </trkpt>
      <trkpt lat="43.5404" lon="1.11175">
        <ele>312</ele>
        <time>2020-11-29T09:59:17Z</time>
      </trkpt>
      <trkpt lat="43.54041" lon="1.11176">
        <ele>312.1</ele>
        <time>2020-11-29T09:59:18Z</time>
      </trkpt>
      <trkpt lat="43.54043" lon="1.1118">
        <ele>311.8</ele>
        <time>2020-11-29T09:59:19Z</time>
      </trkpt>
      <trkpt lat="43.54044" lon="1.11181">
        <ele>311.7</ele>
        <time>2020-11-29T09:59:20Z</time>
      </trkpt>
      <trkpt lat="43.54044" lon="1.11184">
        <ele>311.7</ele>
        <time>2020-11-29T09:59:21Z</time>
      </trkpt>
      <trkpt lat="43.54045" lon="1.11186">
        <ele>311.6</ele>
        <time>2020-11-29T09:59:22Z</time>
      </trkpt>
      <trkpt lat="43.54046" lon="1.11188">
        <ele>311.7</ele>
        <time>2020-11-29T09:59:23Z</time>
      </trkpt>
      <trkpt lat="43.54048" lon="1.11191">
        <ele>311.4</ele>
        <time>2020-11-29T09:59:24Z</time>
      </trkpt>
      <trkpt lat="43.5405" lon="1.11194">
        <ele>311.1</ele>
        <time>2020-11-29T09:59:25Z</time>
      </trkpt>
      <trkpt lat="43.54051" lon="1.11195">
        <ele>311.2</ele>
        <time>2020-11-29T09:59:26Z</time>
      </trkpt>
      <trkpt lat="43.54054" lon="1.11198">
        <ele>310.9</ele>
        <time>2020-11-29T09:59:27Z</time>
      </trkpt>
      <trkpt lat="43.54055" lon="1.11199">
        <ele>311</ele>
        <time>2020-11-29T09:59:28Z</time>
      </trkpt>
      <trkpt lat="43.54058" lon="1.11203">
        <ele>310.8</ele>
        <time>2020-11-29T09:59:29Z</time>
      </trkpt>
      <trkpt lat="43.54059" lon="1.11203">
        <ele>310.6</ele>
        <time>2020-11-29T09:59:30Z</time>
      </trkpt>
      <trkpt lat="43.54061" lon="1.11205">
        <ele>310.7</ele>
        <time>2020-11-29T09:59:31Z</time>
      </trkpt>
      <trkpt lat="43.54063" lon="1.11206">
        <ele>310.6</ele>
        <time>2020-11-29T09:59:32Z</time>
      </trkpt>
      <trkpt lat="43.54066" lon="1.11208">
        <ele>310.5</ele>
        <time>2020-11-29T09:59:33Z</time>
      </trkpt>
      <trkpt lat="43.54069" lon="1.11212">
        <ele>310.3</ele>
        <time>2020-11-29T09:59:34Z</time>
      </trkpt>
      <trkpt lat="43.54071" lon="1.11215">
        <ele>310.4</ele>
        <time>2020-11-29T09:59:35Z</time>
      </trkpt>
      <trkpt lat="43.54072" lon="1.11219">
        <ele>310.2</ele>
        <time>2020-11-29T09:59:36Z</time>
      </trkpt>
      <trkpt lat="43.54076" lon="1.11221">
        <ele>310.1</ele>
        <time>2020-11-29T09:59:37Z</time>
      </trkpt>
      <trkpt lat="43.54077" lon="1.11222">
        <ele>310.1</ele>
        <time>2020-11-29T09:59:38Z</time>
      </trkpt>
      <trkpt lat="43.5408" lon="1.11225">
        <ele>310</ele>
        <time>2020-11-29T09:59:39Z</time>
      </trkpt>
      <trkpt lat="43.54083" lon="1.11229">
        <ele>309.8</ele>
        <time>2020-11-29T09:59:40Z</time>
      </trkpt>
      <trkpt lat="43.54086" lon="1.11233">
        <ele>309.7</ele>
        <time>2020-11-29T09:59:41Z</time>
      </trkpt>
      <trkpt lat="43.54088" lon="1.11236">
        <ele>309.8</ele>
        <time>2020-11-29T09:59:42Z</time>
      </trkpt>
      <trkpt lat="43.54097" lon="1.11245">
        <ele>309.3</ele>
        <time>2020-11-29T09:59:43Z</time>
      </trkpt>
      <trkpt lat="43.54099" lon="1.11249">
        <ele>309.1</ele>
        <time>2020-11-29T09:59:44Z</time>
      </trkpt>
      <trkpt lat="43.54104" lon="1.11254">
        <ele>308.9</ele>
        <time>2020-11-29T09:59:45Z</time>
      </trkpt>
      <trkpt lat="43.54107" lon="1.11258">
        <ele>308.4</ele>
        <time>2020-11-29T09:59:46Z</time>
      </trkpt>
      <trkpt lat="43.54109" lon="1.11262">
        <ele>308.5</ele>
        <time>2020-11-29T09:59:47Z</time>
      </trkpt>
      <trkpt lat="43.54111" lon="1.11265">
        <ele>308.3</ele>
        <time>2020-11-29T09:59:48Z</time>
      </trkpt>
      <trkpt lat="43.54113" lon="1.11268">
        <ele>308.1</ele>
        <time>2020-11-29T09:59:49Z</time>
      </trkpt>
      <trkpt lat="43.54117" lon="1.11273">
        <ele>307.9</ele>
        <time>2020-11-29T09:59:50Z</time>
      </trkpt>
      <trkpt lat="43.54122" lon="1.11279">
        <ele>307.6</ele>
        <time>2020-11-29T09:59:51Z</time>
      </trkpt>
      <trkpt lat="43.54127" lon="1.11287">
        <ele>306.9</ele>
        <time>2020-11-29T09:59:52Z</time>
      </trkpt>
      <trkpt lat="43.5413" lon="1.11296">
        <ele>306</ele>
        <time>2020-11-29T09:59:53Z</time>
      </trkpt>
      <trkpt lat="43.54133" lon="1.11303">
        <ele>304.8</ele>
        <time>2020-11-29T09:59:54Z</time>
      </trkpt>
      <trkpt lat="43.54138" lon="1.11311">
        <ele>303</ele>
        <time>2020-11-29T09:59:55Z</time>
      </trkpt>
      <trkpt lat="43.5414" lon="1.11319">
        <ele>301.8</ele>
        <time>2020-11-29T09:59:56Z</time>
      </trkpt>
      <trkpt lat="43.54143" lon="1.11326">
        <ele>301.2</ele>
        <time>2020-11-29T09:59:57Z</time>
      </trkpt>
      <trkpt lat="43.5415" lon="1.11334">
        <ele>299.9</ele>
        <time>2020-11-29T09:59:58Z</time>
      </trkpt>
      <trkpt lat="43.54153" lon="1.11341">
        <ele>298.9</ele>
        <time>2020-11-29T09:59:59Z</time>
      </trkpt>
      <trkpt lat="43.54156" lon="1.11349">
        <ele>297.8</ele>
        <time>2020-11-29T10:00:00Z</time>
      </trkpt>
      <trkpt lat="43.5416" lon="1.11355">
        <ele>297.2</ele>
        <time>2020-11-29T10:00:01Z</time>
      </trkpt>
      <trkpt lat="43.54166" lon="1.11362">
        <ele>296</ele>
        <time>2020-11-29T10:00:02Z</time>
      </trkpt>
      <trkpt lat="43.54171" lon="1.11368">
        <ele>295.4</ele>
        <time>2020-11-29T10:00:03Z</time>
      </trkpt>
      <trkpt lat="43.54175" lon="1.11375">
        <ele>294.3</ele>
        <time>2020-11-29T10:00:04Z</time>
      </trkpt>
      <trkpt lat="43.54179" lon="1.11383">
        <ele>293.1</ele>
        <time>2020-11-29T10:00:05Z</time>
      </trkpt>
      <trkpt lat="43.54186" lon="1.11391">
        <ele>292.3</ele>
        <time>2020-11-29T10:00:06Z</time>
      </trkpt>
      <trkpt lat="43.54191" lon="1.11398">
        <ele>290.9</ele>
        <time>2020-11-29T10:00:07Z</time>
      </trkpt>
      <trkpt lat="43.54195" lon="1.11404">
        <ele>289.5</ele>
        <time>2020-11-29T10:00:08Z</time>
      </trkpt>
      <trkpt lat="43.54202" lon="1.11412">
        <ele>288.7</ele>
        <time>2020-11-29T10:00:09Z</time>
      </trkpt>
      <trkpt lat="43.54207" lon="1.11418">
        <ele>287.7</ele>
        <time>2020-11-29T10:00:10Z</time>
      </trkpt>
      <trkpt lat="43.54212" lon="1.11425">
        <ele>287.3</ele>
        <time>2020-11-29T10:00:11Z</time>
      </trkpt>
      <trkpt lat="43.54214" lon="1.11431">
        <ele>286.5</ele>
        <time>2020-11-29T10:00:12Z</time>
      </trkpt>
      <trkpt lat="43.54216" lon="1.11439">
        <ele>285.9</ele>
        <time>2020-11-29T10:00:13Z</time>
      </trkpt>
      <trkpt lat="43.54219" lon="1.11447">
        <ele>285.4</ele>
        <time>2020-11-29T10:00:14Z</time>
      </trkpt>
      <trkpt lat="43.54221" lon="1.11455">
        <ele>285.3</ele>
        <time>2020-11-29T10:00:15Z</time>
      </trkpt>
      <trkpt lat="43.54223" lon="1.11461">
        <ele>284.8</ele>
        <time>2020-11-29T10:00:16Z</time>
      </trkpt>
      <trkpt lat="43.54225" lon="1.11466">
        <ele>284.8</ele>
        <time>2020-11-29T10:00:17Z</time>
      </trkpt>
      <trkpt lat="43.54228" lon="1.11472">
        <ele>284.8</ele>
        <time>2020-11-29T10:00:18Z</time>
      </trkpt>
      <trkpt lat="43.54232" lon="1.11479">
        <ele>284.4</ele>
        <time>2020-11-29T10:00:19Z</time>
      </trkpt>
      <trkpt lat="43.54236" lon="1.11485">
        <ele>284.6</ele>
        <time>2020-11-29T10:00:20Z</time>
      </trkpt>
      <trkpt lat="43.5424" lon="1.11491">
        <ele>284.1</ele>
        <time>2020-11-29T10:00:21Z</time>
      </trkpt>
      <trkpt lat="43.54244" lon="1.11497">
        <ele>284.1</ele>
        <time>2020-11-29T10:00:22Z</time>
      </trkpt>
      <trkpt lat="43.54247" lon="1.11504">
        <ele>283.8</ele>
        <time>2020-11-29T10:00:23Z</time>
      </trkpt>
      <trkpt lat="43.54252" lon="1.11513">
        <ele>284</ele>
        <time>2020-11-29T10:00:24Z</time>
      </trkpt>
      <trkpt lat="43.54258" lon="1.11521">
        <ele>283.8</ele>
        <time>2020-11-29T10:00:25Z</time>
      </trkpt>
      <trkpt lat="43.54263" lon="1.1153">
        <ele>283.9</ele>
        <time>2020-11-29T10:00:26Z</time>
      </trkpt>
      <trkpt lat="43.54267" lon="1.11535">
        <ele>284.3</ele>
        <time>2020-11-29T10:00:27Z</time>
      </trkpt>
      <trkpt lat="43.54272" lon="1.11543">
        <ele>284</ele>
        <time>2020-11-29T10:00:28Z</time>
      </trkpt>
      <trkpt lat="43.54275" lon="1.11552">
        <ele>283.8</ele>
        <time>2020-11-29T10:00:29Z</time>
      </trkpt>
      <trkpt lat="43.54279" lon="1.11559">
        <ele>283.5</ele>
        <time>2020-11-29T10:00:30Z</time>
      </trkpt>
      <trkpt lat="43.54284" lon="1.11564">
        <ele>283.8</ele>
        <time>2020-11-29T10:00:31Z</time>
      </trkpt>
      <trkpt lat="43.54287" lon="1.1157">
        <ele>283.7</ele>
        <time>2020-11-29T10:00:32Z</time>
      </trkpt>
      <trkpt lat="43.5429" lon="1.11574">
        <ele>283.5</ele>
        <time>2020-11-29T10:00:33Z</time>
      </trkpt>
      <trkpt lat="43.54294" lon="1.11578">
        <ele>283.3</ele>
        <time>2020-11-29T10:00:34Z</time>
      </trkpt>
      <trkpt lat="43.54299" lon="1.11584">
        <ele>283</ele>
        <time>2020-11-29T10:00:35Z</time>
      </trkpt>
      <trkpt lat="43.54305" lon="1.11589">
        <ele>282.3</ele>
        <time>2020-11-29T10:00:36Z</time>
      </trkpt>
      <trkpt lat="43.5431" lon="1.11595">
        <ele>282.1</ele>
        <time>2020-11-29T10:00:37Z</time>
      </trkpt>
      <trkpt lat="43.54314" lon="1.116">
        <ele>281.9</ele>
        <time>2020-11-29T10:00:38Z</time>
      </trkpt>
      <trkpt lat="43.54319" lon="1.11604">
        <ele>281.6</ele>
        <time>2020-11-29T10:00:39Z</time>
      </trkpt>
      <trkpt lat="43.54324" lon="1.11609">
        <ele>281.3</ele>
        <time>2020-11-29T10:00:40Z</time>
      </trkpt>
      <trkpt lat="43.5433" lon="1.11617">
        <ele>280.5</ele>
        <time>2020-11-29T10:00:41Z</time>
      </trkpt>
      <trkpt lat="43.54334" lon="1.11622">
        <ele>280.1</ele>
        <time>2020-11-29T10:00:42Z</time>
      </trkpt>
      <trkpt lat="43.5434" lon="1.11627">
        <ele>279.6</ele>
        <time>2020-11-29T10:00:43Z</time>
      </trkpt>
      <trkpt lat="43.54345" lon="1.11631">
        <ele>279.2</ele>
        <time>2020-11-29T10:00:44Z</time>
      </trkpt>
      <trkpt lat="43.54347" lon="1.11635">
        <ele>278.7</ele>
        <time>2020-11-29T10:00:45Z</time>
      </trkpt>
      <trkpt lat="43.54348" lon="1.11639">
        <ele>278.3</ele>
        <time>2020-11-29T10:00:46Z</time>
      </trkpt>
      <trkpt lat="43.54348" lon="1.11642">
        <ele>278</ele>
        <time>2020-11-29T10:00:47Z</time>
      </trkpt>
      <trkpt lat="43.54349" lon="1.11648">
        <ele>277.7</ele>
        <time>2020-11-29T10:00:48Z</time>
      </trkpt>
      <trkpt lat="43.54353" lon="1.11652">
        <ele>277.3</ele>
        <time>2020-11-29T10:00:49Z</time>
      </trkpt>
      <trkpt lat="43.54355" lon="1.11656">
        <ele>277</ele>
        <time>2020-11-29T10:00:50Z</time>
      </trkpt>
      <trkpt lat="43.54359" lon="1.11661">
        <ele>276.7</ele>
        <time>2020-11-29T10:00:51Z</time>
      </trkpt>
      <trkpt lat="43.54363" lon="1.11666">
        <ele>276.4</ele>
        <time>2020-11-29T10:00:52Z</time>
      </trkpt>
      <trkpt lat="43.54365" lon="1.1167">
        <ele>275.8</ele>
        <time>2020-11-29T10:00:53Z</time>
      </trkpt>
      <trkpt lat="43.54369" lon="1.11675">
        <ele>275.6</ele>
        <time>2020-11-29T10:00:54Z</time>
      </trkpt>
      <trkpt lat="43.54374" lon="1.1168">
        <ele>275.4</ele>
        <time>2020-11-29T10:00:55Z</time>
      </trkpt>
      <trkpt lat="43.54378" lon="1.11685">
        <ele>275.3</ele>
        <time>2020-11-29T10:00:56Z</time>
      </trkpt>
      <trkpt lat="43.54383" lon="1.11689">
        <ele>275.2</ele>
        <time>2020-11-29T10:00:57Z</time>
      </trkpt>
      <trkpt lat="43.54386" lon="1.11694">
        <ele>275.1</ele>
        <time>2020-11-29T10:00:58Z</time>
      </trkpt>
      <trkpt lat="43.5439" lon="1.11699">
        <ele>274.9</ele>
        <time>2020-11-29T10:00:59Z</time>
      </trkpt>
      <trkpt lat="43.54395" lon="1.11705">
        <ele>274.3</ele>
        <time>2020-11-29T10:01:00Z</time>
      </trkpt>
      <trkpt lat="43.54398" lon="1.1171">
        <ele>274</ele>
        <time>2020-11-29T10:01:01Z</time>
      </trkpt>
      <trkpt lat="43.54401" lon="1.11714">
        <ele>273.6</ele>
        <time>2020-11-29T10:01:02Z</time>
      </trkpt>
      <trkpt lat="43.54405" lon="1.11716">
        <ele>273.6</ele>
        <time>2020-11-29T10:01:03Z</time>
      </trkpt>
      <trkpt lat="43.54406" lon="1.11718">
        <ele>273.3</ele>
        <time>2020-11-29T10:01:04Z</time>
      </trkpt>
      <trkpt lat="43.54408" lon="1.11719">
        <ele>273.3</ele>
        <time>2020-11-29T10:01:05Z</time>
      </trkpt>
      <trkpt lat="43.54409" lon="1.1172">
        <ele>273.4</ele>
        <time>2020-11-29T10:01:06Z</time>
      </trkpt>
      <trkpt lat="43.54411" lon="1.11718">
        <ele>273.4</ele>
        <time>2020-11-29T10:01:07Z</time>
      </trkpt>
      <trkpt lat="43.54411" lon="1.11717">
        <ele>273.3</ele>
        <time>2020-11-29T10:01:08Z</time>
      </trkpt>
      <trkpt lat="43.54412" lon="1.11717">
        <ele>273.3</ele>
        <time>2020-11-29T10:01:09Z</time>
      </trkpt>
      <trkpt lat="43.54416" lon="1.11716">
        <ele>273.1</ele>
        <time>2020-11-29T10:01:10Z</time>
      </trkpt>
      <trkpt lat="43.54417" lon="1.11716">
        <ele>273.1</ele>
        <time>2020-11-29T10:01:11Z</time>
      </trkpt>
      <trkpt lat="43.54422" lon="1.11713">
        <ele>272.9</ele>
        <time>2020-11-29T10:01:12Z</time>
      </trkpt>
      <trkpt lat="43.54424" lon="1.11712">
        <ele>272.8</ele>
        <time>2020-11-29T10:01:13Z</time>
      </trkpt>
      <trkpt lat="43.54428" lon="1.1171">
        <ele>272.6</ele>
        <time>2020-11-29T10:01:14Z</time>
      </trkpt>
      <trkpt lat="43.54433" lon="1.11706">
        <ele>272.4</ele>
        <time>2020-11-29T10:01:15Z</time>
      </trkpt>
      <trkpt lat="43.54436" lon="1.11703">
        <ele>272.2</ele>
        <time>2020-11-29T10:01:16Z</time>
      </trkpt>
      <trkpt lat="43.54437" lon="1.11702">
        <ele>272.2</ele>
        <time>2020-11-29T10:01:17Z</time>
      </trkpt>
      <trkpt lat="43.54439" lon="1.11698">
        <ele>272</ele>
        <time>2020-11-29T10:01:18Z</time>
      </trkpt>
      <trkpt lat="43.54441" lon="1.11694">
        <ele>271.9</ele>
        <time>2020-11-29T10:01:19Z</time>
      </trkpt>
      <trkpt lat="43.54444" lon="1.1169">
        <ele>271.7</ele>
        <time>2020-11-29T10:01:20Z</time>
      </trkpt>
      <trkpt lat="43.54445" lon="1.11686">
        <ele>271.6</ele>
        <time>2020-11-29T10:01:21Z</time>
      </trkpt>
      <trkpt lat="43.54445" lon="1.11681">
        <ele>271.4</ele>
        <time>2020-11-29T10:01:22Z</time>
      </trkpt>
      <trkpt lat="43.54445" lon="1.1168">
        <ele>271.4</ele>
        <time>2020-11-29T10:01:23Z</time>
      </trkpt>
      <trkpt lat="43.54447" lon="1.11677">
        <ele>271.2</ele>
        <time>2020-11-29T10:01:24Z</time>
      </trkpt>
      <trkpt lat="43.54448" lon="1.11676">
        <ele>271.2</ele>
        <time>2020-11-29T10:01:25Z</time>
      </trkpt>
      <trkpt lat="43.54449" lon="1.11673">
        <ele>271.1</ele>
        <time>2020-11-29T10:01:26Z</time>
      </trkpt>
      <trkpt lat="43.54451" lon="1.11669">
        <ele>271</ele>
        <time>2020-11-29T10:01:27Z</time>
      </trkpt>
      <trkpt lat="43.54453" lon="1.11665">
        <ele>270.8</ele>
        <time>2020-11-29T10:01:28Z</time>
      </trkpt>
      <trkpt lat="43.54455" lon="1.1166">
        <ele>270.6</ele>
        <time>2020-11-29T10:01:29Z</time>
      </trkpt>
      <trkpt lat="43.54455" lon="1.11657">
        <ele>270.6</ele>
        <time>2020-11-29T10:01:30Z</time>
      </trkpt>
      <trkpt lat="43.54456" lon="1.11652">
        <ele>270.4</ele>
        <time>2020-11-29T10:01:31Z</time>
      </trkpt>
      <trkpt lat="43.54459" lon="1.11647">
        <ele>270.2</ele>
        <time>2020-11-29T10:01:32Z</time>
      </trkpt>
      <trkpt lat="43.54461" lon="1.11642">
        <ele>270</ele>
        <time>2020-11-29T10:01:33Z</time>
      </trkpt>
      <trkpt lat="43.54463" lon="1.11639">
        <ele>269.9</ele>
        <time>2020-11-29T10:01:34Z</time>
      </trkpt>
      <trkpt lat="43.54466" lon="1.11634">
        <ele>269.7</ele>
        <time>2020-11-29T10:01:35Z</time>
      </trkpt>
      <trkpt lat="43.54467" lon="1.11633">
        <ele>269.7</ele>
        <time>2020-11-29T10:01:36Z</time>
      </trkpt>
      <trkpt lat="43.54468" lon="1.11629">
        <ele>269.5</ele>
        <time>2020-11-29T10:01:37Z</time>
      </trkpt>
      <trkpt lat="43.54469" lon="1.11627">
        <ele>269.5</ele>
        <time>2020-11-29T10:01:38Z</time>
      </trkpt>
      <trkpt lat="43.5447" lon="1.11623">
        <ele>269.3</ele>
        <time>2020-11-29T10:01:39Z</time>
      </trkpt>
      <trkpt lat="43.54472" lon="1.11619">
        <ele>269.2</ele>
        <time>2020-11-29T10:01:40Z</time>
      </trkpt>
      <trkpt lat="43.54474" lon="1.11615">
        <ele>269</ele>
        <time>2020-11-29T10:01:41Z</time>
      </trkpt>
      <trkpt lat="43.54477" lon="1.11611">
        <ele>268.9</ele>
        <time>2020-11-29T10:01:42Z</time>
      </trkpt>
      <trkpt lat="43.54477" lon="1.11609">
        <ele>268.8</ele>
        <time>2020-11-29T10:01:43Z</time>
      </trkpt>
      <trkpt lat="43.54477" lon="1.11608">
        <ele>268.8</ele>
        <time>2020-11-29T10:01:44Z</time>
      </trkpt>
      <trkpt lat="43.54477" lon="1.11605">
        <ele>268.7</ele>
        <time>2020-11-29T10:01:45Z</time>
      </trkpt>
      <trkpt lat="43.5448" lon="1.11602">
        <ele>268.6</ele>
        <time>2020-11-29T10:01:46Z</time>
      </trkpt>
      <trkpt lat="43.54482" lon="1.11599">
        <ele>268.4</ele>
        <time>2020-11-29T10:01:47Z</time>
      </trkpt>
      <trkpt lat="43.54485" lon="1.11596">
        <ele>268.3</ele>
        <time>2020-11-29T10:01:48Z</time>
      </trkpt>
      <trkpt lat="43.54488" lon="1.11592">
        <ele>268.1</ele>
        <time>2020-11-29T10:01:49Z</time>
      </trkpt>
      <trkpt lat="43.54491" lon="1.1159">
        <ele>269.6</ele>
        <time>2020-11-29T10:01:50Z</time>
      </trkpt>
      <trkpt lat="43.54494" lon="1.11588">
        <ele>270</ele>
        <time>2020-11-29T10:01:51Z</time>
      </trkpt>
      <trkpt lat="43.54497" lon="1.11586">
        <ele>270.3</ele>
        <time>2020-11-29T10:01:52Z</time>
      </trkpt>
      <trkpt lat="43.54499" lon="1.11581">
        <ele>270.8</ele>
        <time>2020-11-29T10:01:53Z</time>
      </trkpt>
      <trkpt lat="43.54505" lon="1.11577">
        <ele>271.5</ele>
        <time>2020-11-29T10:01:54Z</time>
      </trkpt>
      <trkpt lat="43.54508" lon="1.11575">
        <ele>271.9</ele>
        <time>2020-11-29T10:01:55Z</time>
      </trkpt>
      <trkpt lat="43.54512" lon="1.11573">
        <ele>272.2</ele>
        <time>2020-11-29T10:01:56Z</time>
      </trkpt>
      <trkpt lat="43.54513" lon="1.11572">
        <ele>272.3</ele>
        <time>2020-11-29T10:01:57Z</time>
      </trkpt>
      <trkpt lat="43.54516" lon="1.1157">
        <ele>272.5</ele>
        <time>2020-11-29T10:01:58Z</time>
      </trkpt>
      <trkpt lat="43.5452" lon="1.11567">
        <ele>272.7</ele>
        <time>2020-11-29T10:01:59Z</time>
      </trkpt>
      <trkpt lat="43.54527" lon="1.11561">
        <ele>272.7</ele>
        <time>2020-11-29T10:02:00Z</time>
      </trkpt>
      <trkpt lat="43.54531" lon="1.11557">
        <ele>272.6</ele>
        <time>2020-11-29T10:02:01Z</time>
      </trkpt>
      <trkpt lat="43.54533" lon="1.11552">
        <ele>272.5</ele>
        <time>2020-11-29T10:02:02Z</time>
      </trkpt>
      <trkpt lat="43.54536" lon="1.11549">
        <ele>272.3</ele>
        <time>2020-11-29T10:02:03Z</time>
      </trkpt>
      <trkpt lat="43.54539" lon="1.11546">
        <ele>272</ele>
        <time>2020-11-29T10:02:04Z</time>
      </trkpt>
      <trkpt lat="43.54541" lon="1.11542">
        <ele>271.8</ele>
        <time>2020-11-29T10:02:05Z</time>
      </trkpt>
      <trkpt lat="43.54545" lon="1.11538">
        <ele>271.5</ele>
        <time>2020-11-29T10:02:06Z</time>
      </trkpt>
      <trkpt lat="43.54547" lon="1.11537">
        <ele>271.4</ele>
        <time>2020-11-29T10:02:07Z</time>
      </trkpt>
      <trkpt lat="43.54551" lon="1.11531">
        <ele>271</ele>
        <time>2020-11-29T10:02:08Z</time>
      </trkpt>
      <trkpt lat="43.54553" lon="1.11527">
        <ele>270.7</ele>
        <time>2020-11-29T10:02:09Z</time>
      </trkpt>
      <trkpt lat="43.54554" lon="1.11518">
        <ele>270.2</ele>
        <time>2020-11-29T10:02:10Z</time>
      </trkpt>
      <trkpt lat="43.54557" lon="1.11517">
        <ele>270</ele>
        <time>2020-11-29T10:02:11Z</time>
      </trkpt>
      <trkpt lat="43.54562" lon="1.11516">
        <ele>269.7</ele>
        <time>2020-11-29T10:02:12Z</time>
      </trkpt>
      <trkpt lat="43.54563" lon="1.11515">
        <ele>269.5</ele>
        <time>2020-11-29T10:02:13Z</time>
      </trkpt>
      <trkpt lat="43.54566" lon="1.11515">
        <ele>269.3</ele>
        <time>2020-11-29T10:02:14Z</time>
      </trkpt>
      <trkpt lat="43.54569" lon="1.11512">
        <ele>269.1</ele>
        <time>2020-11-29T10:02:15Z</time>
      </trkpt>
      <trkpt lat="43.54571" lon="1.11506">
        <ele>268.8</ele>
        <time>2020-11-29T10:02:16Z</time>
      </trkpt>
      <trkpt lat="43.54572" lon="1.11502">
        <ele>268.6</ele>
        <time>2020-11-29T10:02:17Z</time>
      </trkpt>
      <trkpt lat="43.54574" lon="1.11496">
        <ele>268.3</ele>
        <time>2020-11-29T10:02:18Z</time>
      </trkpt>
      <trkpt lat="43.54576" lon="1.11492">
        <ele>268</ele>
        <time>2020-11-29T10:02:19Z</time>
      </trkpt>
      <trkpt lat="43.54576" lon="1.11487">
        <ele>267.8</ele>
        <time>2020-11-29T10:02:20Z</time>
      </trkpt>
      <trkpt lat="43.54577" lon="1.1148">
        <ele>267.5</ele>
        <time>2020-11-29T10:02:21Z</time>
      </trkpt>
      <trkpt lat="43.54578" lon="1.11475">
        <ele>267.2</ele>
        <time>2020-11-29T10:02:22Z</time>
      </trkpt>
      <trkpt lat="43.5458" lon="1.11469">
        <ele>266.9</ele>
        <time>2020-11-29T10:02:23Z</time>
      </trkpt>
      <trkpt lat="43.54583" lon="1.11461">
        <ele>266.4</ele>
        <time>2020-11-29T10:02:24Z</time>
      </trkpt>
      <trkpt lat="43.54586" lon="1.11456">
        <ele>266.1</ele>
        <time>2020-11-29T10:02:25Z</time>
      </trkpt>
      <trkpt lat="43.54589" lon="1.1145">
        <ele>265.6</ele>
        <time>2020-11-29T10:02:26Z</time>
      </trkpt>
      <trkpt lat="43.54592" lon="1.11445">
        <ele>265.2</ele>
        <time>2020-11-29T10:02:27Z</time>
      </trkpt>
      <trkpt lat="43.54597" lon="1.11441">
        <ele>264.8</ele>
        <time>2020-11-29T10:02:28Z</time>
      </trkpt>
      <trkpt lat="43.54601" lon="1.11437">
        <ele>264.3</ele>
        <time>2020-11-29T10:02:29Z</time>
      </trkpt>
      <trkpt lat="43.54604" lon="1.11434">
        <ele>264.1</ele>
        <time>2020-11-29T10:02:30Z</time>
      </trkpt>
      <trkpt lat="43.54608" lon="1.1143">
        <ele>263.7</ele>
        <time>2020-11-29T10:02:31Z</time>
      </trkpt>
      <trkpt lat="43.54612" lon="1.11426">
        <ele>263.3</ele>
        <time>2020-11-29T10:02:32Z</time>
      </trkpt>
      <trkpt lat="43.54614" lon="1.11422">
        <ele>263</ele>
        <time>2020-11-29T10:02:33Z</time>
      </trkpt>
      <trkpt lat="43.54619" lon="1.11422">
        <ele>262.7</ele>
        <time>2020-11-29T10:02:34Z</time>
      </trkpt>
      <trkpt lat="43.54621" lon="1.11423">
        <ele>262.5</ele>
        <time>2020-11-29T10:02:35Z</time>
      </trkpt>
      <trkpt lat="43.54624" lon="1.11425">
        <ele>262.3</ele>
        <time>2020-11-29T10:02:36Z</time>
      </trkpt>
      <trkpt lat="43.54627" lon="1.11423">
        <ele>262.1</ele>
        <time>2020-11-29T10:02:37Z</time>
      </trkpt>
      <trkpt lat="43.54629" lon="1.11422">
        <ele>261.9</ele>
        <time>2020-11-29T10:02:38Z</time>
      </trkpt>
      <trkpt lat="43.54637" lon="1.11416">
        <ele>261.2</ele>
        <time>2020-11-29T10:02:39Z</time>
      </trkpt>
      <trkpt lat="43.54641" lon="1.11414">
        <ele>260.9</ele>
        <time>2020-11-29T10:02:40Z</time>
      </trkpt>
      <trkpt lat="43.54646" lon="1.11415">
        <ele>260.6</ele>
        <time>2020-11-29T10:02:41Z</time>
      </trkpt>
      <trkpt lat="43.54652" lon="1.11414">
        <ele>260.1</ele>
        <time>2020-11-29T10:02:42Z</time>
      </trkpt>
      <trkpt lat="43.54662" lon="1.11412">
        <ele>259.4</ele>
        <time>2020-11-29T10:02:43Z</time>
      </trkpt>
      <trkpt lat="43.54668" lon="1.11413">
        <ele>258.9</ele>
        <time>2020-11-29T10:02:44Z</time>
      </trkpt>
      <trkpt lat="43.54674" lon="1.11411">
        <ele>258.5</ele>
        <time>2020-11-29T10:02:45Z</time>
      </trkpt>
      <trkpt lat="43.54677" lon="1.1141">
        <ele>258.2</ele>
        <time>2020-11-29T10:02:46Z</time>
      </trkpt>
      <trkpt lat="43.54682" lon="1.11407">
        <ele>257.7</ele>
        <time>2020-11-29T10:02:47Z</time>
      </trkpt>
      <trkpt lat="43.54688" lon="1.11404">
        <ele>257.1</ele>
        <time>2020-11-29T10:02:48Z</time>
      </trkpt>
      <trkpt lat="43.54692" lon="1.11402">
        <ele>256.6</ele>
        <time>2020-11-29T10:02:49Z</time>
      </trkpt>
      <trkpt lat="43.54697" lon="1.114">
        <ele>256.1</ele>
        <time>2020-11-29T10:02:50Z</time>
      </trkpt>
      <trkpt lat="43.54701" lon="1.11399">
        <ele>255.6</ele>
        <time>2020-11-29T10:02:51Z</time>
      </trkpt>
      <trkpt lat="43.54707" lon="1.114">
        <ele>255</ele>
        <time>2020-11-29T10:02:52Z</time>
      </trkpt>
      <trkpt lat="43.54713" lon="1.11402">
        <ele>254.3</ele>
        <time>2020-11-29T10:02:53Z</time>
      </trkpt>
      <trkpt lat="43.54716" lon="1.11404">
        <ele>254</ele>
        <time>2020-11-29T10:02:54Z</time>
      </trkpt>
      <trkpt lat="43.54719" lon="1.11406">
        <ele>253.6</ele>
        <time>2020-11-29T10:02:55Z</time>
      </trkpt>
      <trkpt lat="43.54723" lon="1.11408">
        <ele>253.2</ele>
        <time>2020-11-29T10:02:56Z</time>
      </trkpt>
      <trkpt lat="43.54728" lon="1.11405">
        <ele>252.6</ele>
        <time>2020-11-29T10:02:57Z</time>
      </trkpt>
      <trkpt lat="43.54731" lon="1.11403">
        <ele>252.3</ele>
        <time>2020-11-29T10:02:58Z</time>
      </trkpt>
      <trkpt lat="43.54734" lon="1.11402">
        <ele>251.9</ele>
        <time>2020-11-29T10:02:59Z</time>
      </trkpt>
      <trkpt lat="43.54738" lon="1.11405">
        <ele>251.4</ele>
        <time>2020-11-29T10:03:00Z</time>
      </trkpt>
      <trkpt lat="43.54742" lon="1.11406">
        <ele>251</ele>
        <time>2020-11-29T10:03:01Z</time>
      </trkpt>
      <trkpt lat="43.54743" lon="1.11407">
        <ele>250.9</ele>
        <time>2020-11-29T10:03:02Z</time>
      </trkpt>
      <trkpt lat="43.54748" lon="1.11408">
        <ele>250.2</ele>
        <time>2020-11-29T10:03:03Z</time>
      </trkpt>
      <trkpt lat="43.54754" lon="1.11407">
        <ele>249.5</ele>
        <time>2020-11-29T10:03:04Z</time>
      </trkpt>
      <trkpt lat="43.54758" lon="1.11406">
        <ele>248.9</ele>
        <time>2020-11-29T10:03:05Z</time>
      </trkpt>
      <trkpt lat="43.54761" lon="1.11408">
        <ele>248.4</ele>
        <time>2020-11-29T10:03:06Z</time>
      </trkpt>
      <trkpt lat="43.54764" lon="1.11413">
        <ele>247.8</ele>
        <time>2020-11-29T10:03:07Z</time>
      </trkpt>
      <trkpt lat="43.54766" lon="1.11417">
        <ele>247.2</ele>
        <time>2020-11-29T10:03:08Z</time>
      </trkpt>
      <trkpt lat="43.54769" lon="1.1142">
        <ele>246.7</ele>
        <time>2020-11-29T10:03:09Z</time>
      </trkpt>
      <trkpt lat="43.54769" lon="1.11421">
        <ele>246.6</ele>
        <time>2020-11-29T10:03:10Z</time>
      </trkpt>
      <trkpt lat="43.54771" lon="1.11424">
        <ele>246.2</ele>
        <time>2020-11-29T10:03:11Z</time>
      </trkpt>
      <trkpt lat="43.54771" lon="1.11425">
        <ele>246.1</ele>
        <time>2020-11-29T10:03:12Z</time>
      </trkpt>
      <trkpt lat="43.54771" lon="1.11425">
        <ele>246.1</ele>
        <time>2020-11-29T10:03:13Z</time>
      </trkpt>
      <trkpt lat="43.54774" lon="1.11428">
        <ele>245.6</ele>
        <time>2020-11-29T10:03:14Z</time>
      </trkpt>
      <trkpt lat="43.54775" lon="1.11428">
        <ele>245.5</ele>
        <time>2020-11-29T10:03:15Z</time>
      </trkpt>
      <trkpt lat="43.54776" lon="1.11428">
        <ele>245.3</ele>
        <time>2020-11-29T10:03:16Z</time>
      </trkpt>
      <trkpt lat="43.54776" lon="1.11428">
        <ele>245.3</ele>
        <time>2020-11-29T10:03:17Z</time>
      </trkpt>
      <trkpt lat="43.54777" lon="1.11428">
        <ele>245.1</ele>
        <time>2020-11-29T10:03:18Z</time>
      </trkpt>
      <trkpt lat="43.54777" lon="1.11429">
        <ele>245</ele>
        <time>2020-11-29T10:03:19Z</time>
      </trkpt>
      <trkpt lat="43.54778" lon="1.1143">
        <ele>244.8</ele>
        <time>2020-11-29T10:03:20Z</time>
      </trkpt>
      <trkpt lat="43.54779" lon="1.11431">
        <ele>244.7</ele>
        <time>2020-11-29T10:03:21Z</time>
      </trkpt>
      <trkpt lat="43.54779" lon="1.1143">
        <ele>244.6</ele>
        <time>2020-11-29T10:03:22Z</time>
      </trkpt>
      <trkpt lat="43.5478" lon="1.11429">
        <ele>244.5</ele>
        <time>2020-11-29T10:03:23Z</time>
      </trkpt>
      <trkpt lat="43.5478" lon="1.11428">
        <ele>244.3</ele>
        <time>2020-11-29T10:03:24Z</time>
      </trkpt>
      <trkpt lat="43.54782" lon="1.11425">
        <ele>244</ele>
        <time>2020-11-29T10:03:25Z</time>
      </trkpt>
      <trkpt lat="43.54782" lon="1.11424">
        <ele>243.9</ele>
        <time>2020-11-29T10:03:26Z</time>
      </trkpt>
      <trkpt lat="43.54782" lon="1.11423">
        <ele>243.7</ele>
        <time>2020-11-29T10:03:27Z</time>
      </trkpt>
      <trkpt lat="43.54783" lon="1.11422">
        <ele>243.6</ele>
        <time>2020-11-29T10:03:28Z</time>
      </trkpt>
      <trkpt lat="43.54783" lon="1.11422">
        <ele>243.5</ele>
        <time>2020-11-29T10:03:29Z</time>
      </trkpt>
      <trkpt lat="43.54783" lon="1.11421">
        <ele>243.4</ele>
        <time>2020-11-29T10:03:30Z</time>
      </trkpt>
      <trkpt lat="43.54784" lon="1.1142">
        <ele>243.4</ele>
        <time>2020-11-29T10:03:31Z</time>
      </trkpt>
      <trkpt lat="43.54784" lon="1.1142">
        <ele>243.3</ele>
        <time>2020-11-29T10:03:32Z</time>
      </trkpt>
      <trkpt lat="43.54784" lon="1.1142">
        <ele>243.3</ele>
        <time>2020-11-29T10:03:33Z</time>
      </trkpt>
      <trkpt lat="43.54784" lon="1.1142">
        <ele>243.3</ele>
        <time>2020-11-29T10:03:34Z</time>
      </trkpt>
      <trkpt lat="43.54784" lon="1.1142">
        <ele>243.3</ele>
        <time>2020-11-29T10:03:35Z</time>
      </trkpt>
      <trkpt lat="43.54784" lon="1.11421">
        <ele>243.3</ele>
        <time>2020-11-29T10:03:36Z</time>
      </trkpt>
      <trkpt lat="43.54784" lon="1.11421">
        <ele>243.2</ele>
        <time>2020-11-29T10:03:37Z</time>
      </trkpt>
      <trkpt lat="43.54783" lon="1.11422">
        <ele>243.1</ele>
        <time>2020-11-29T10:03:38Z</time>
      </trkpt>
      <trkpt lat="43.54783" lon="1.11423">
        <ele>243</ele>
        <time>2020-11-29T10:03:39Z</time>
      </trkpt>
      <trkpt lat="43.54783" lon="1.11423">
        <ele>242.9</ele>
        <time>2020-11-29T10:03:40Z</time>
      </trkpt>
      <trkpt lat="43.54784" lon="1.11425">
        <ele>242.7</ele>
        <time>2020-11-29T10:03:41Z</time>
      </trkpt>
      <trkpt lat="43.54785" lon="1.11426">
        <ele>242.5</ele>
        <time>2020-11-29T10:03:42Z</time>
      </trkpt>
      <trkpt lat="43.54786" lon="1.11427">
        <ele>242.3</ele>
        <time>2020-11-29T10:03:43Z</time>
      </trkpt>
      <trkpt lat="43.54787" lon="1.11428">
        <ele>242.1</ele>
        <time>2020-11-29T10:03:44Z</time>
      </trkpt>
      <trkpt lat="43.54789" lon="1.11428">
        <ele>241.8</ele>
        <time>2020-11-29T10:03:45Z</time>
      </trkpt>
      <trkpt lat="43.5479" lon="1.11428">
        <ele>241.7</ele>
        <time>2020-11-29T10:03:46Z</time>
      </trkpt>
      <trkpt lat="43.5479" lon="1.11428">
        <ele>241.7</ele>
        <time>2020-11-29T10:03:47Z</time>
      </trkpt>
      <trkpt lat="43.5479" lon="1.11428">
        <ele>241.7</ele>
        <time>2020-11-29T10:03:48Z</time>
      </trkpt>
      <trkpt lat="43.54791" lon="1.11428">
        <ele>241.5</ele>
        <time>2020-11-29T10:03:49Z</time>
      </trkpt>
      <trkpt lat="43.54792" lon="1.11427">
        <ele>241.3</ele>
        <time>2020-11-29T10:03:50Z</time>
      </trkpt>
      <trkpt lat="43.54793" lon="1.11427">
        <ele>241.2</ele>
        <time>2020-11-29T10:03:51Z</time>
      </trkpt>
      <trkpt lat="43.54793" lon="1.11427">
        <ele>241.2</ele>
        <time>2020-11-29T10:03:52Z</time>
      </trkpt>
      <trkpt lat="43.54793" lon="1.11427">
        <ele>241.2</ele>
        <time>2020-11-29T10:03:53Z</time>
      </trkpt>
      <trkpt lat="43.54793" lon="1.11427">
        <ele>241.2</ele>
        <time>2020-11-29T10:03:54Z</time>
      </trkpt>
      <trkpt lat="43.54793" lon="1.11427">
        <ele>241.2</ele>
        <time>2020-11-29T10:03:55Z</time>
      </trkpt>
      <trkpt lat="43.54793" lon="1.11427">
        <ele>241.2</ele>
        <time>2020-11-29T10:03:56Z</time>
      </trkpt>
      <trkpt lat="43.54793" lon="1.11427">
        <ele>241.2</ele>
        <time>2020-11-29T10:03:57Z</time>
      </trkpt>
      <trkpt lat="43.54793" lon="1.11427">
        <ele>241.2</ele>
        <time>2020-11-29T10:03:58Z</time>
      </trkpt>
      <trkpt lat="43.54793" lon="1.11427">
        <ele>241.2</ele>
        <time>2020-11-29T10:03:59Z</time>
      </trkpt>
      <trkpt lat="43.54793" lon="1.11427">
        <ele>241.2</ele>
        <time>2020-11-29T10:04:00Z</time>
      </trkpt>
      <trkpt lat="43.54793" lon="1.11427">
        <ele>241.2</ele>
        <time>2020-11-29T10:04:01Z</time>
      </trkpt>
      <trkpt lat="43.54793" lon="1.11427">
        <ele>241.1</ele>
        <time>2020-11-29T10:04:02Z</time>
      </trkpt>
      <trkpt lat="43.54793" lon="1.11427">
        <ele>241.1</ele>
        <time>2020-11-29T10:04:03Z</time>
      </trkpt>
      <trkpt lat="43.54793" lon="1.11427">
        <ele>241.1</ele>
        <time>2020-11-29T10:04:04Z</time>
      </trkpt>
      <trkpt lat="43.54793" lon="1.11427">
        <ele>241.1</ele>
        <time>2020-11-29T10:04:05Z</time>
      </trkpt>
      <trkpt lat="43.54794" lon="1.11427">
        <ele>241.1</ele>
        <time>2020-11-29T10:04:06Z</time>
      </trkpt>
      <trkpt lat="43.54794" lon="1.11427">
        <ele>241.1</ele>
        <time>2020-11-29T10:04:07Z</time>
      </trkpt>
      <trkpt lat="43.54794" lon="1.11427">
        <ele>241</ele>
        <time>2020-11-29T10:04:08Z</time>
      </trkpt>
      <trkpt lat="43.54794" lon="1.11428">
        <ele>241</ele>
        <time>2020-11-29T10:04:09Z</time>
      </trkpt>
      <trkpt lat="43.54794" lon="1.11428">
        <ele>241</ele>
        <time>2020-11-29T10:04:10Z</time>
      </trkpt>
      <trkpt lat="43.54794" lon="1.11428">
        <ele>241</ele>
        <time>2020-11-29T10:04:11Z</time>
      </trkpt>
      <trkpt lat="43.54794" lon="1.11428">
        <ele>241</ele>
        <time>2020-11-29T10:04:12Z</time>
      </trkpt>
      <trkpt lat="43.54794" lon="1.11428">
        <ele>241</ele>
        <time>2020-11-29T10:04:13Z</time>
      </trkpt>
      <trkpt lat="43.54794" lon="1.11428">
        <ele>241</ele>
        <time>2020-11-29T10:04:14Z</time>
      </trkpt>
      <trkpt lat="43.54794" lon="1.11428">
        <ele>241</ele>
        <time>2020-11-29T10:04:15Z</time>
      </trkpt>
      <trkpt lat="43.54794" lon="1.11428">
        <ele>241</ele>
        <time>2020-11-29T10:04:17Z</time>
      </trkpt>
      <trkpt lat="43.54794" lon="1.11428">
        <ele>241</ele>
        <time>2020-11-29T10:04:18Z</time>
      </trkpt>
      <trkpt lat="43.54794" lon="1.11428">
        <ele>240.9</ele>
        <time>2020-11-29T10:04:19Z</time>
      </trkpt>
      <trkpt lat="43.54794" lon="1.11428">
        <ele>240.9</ele>
        <time>2020-11-29T10:04:20Z</time>
      </trkpt>
      <trkpt lat="43.54794" lon="1.11428">
        <ele>240.9</ele>
        <time>2020-11-29T10:04:21Z</time>
      </trkpt>
      <trkpt lat="43.54795" lon="1.11428">
        <ele>240.9</ele>
        <time>2020-11-29T10:04:22Z</time>
      </trkpt>
      <trkpt lat="43.54795" lon="1.11428">
        <ele>240.9</ele>
        <time>2020-11-29T10:04:23Z</time>
      </trkpt>
      <trkpt lat="43.54795" lon="1.11428">
        <ele>240.9</ele>
        <time>2020-11-29T10:04:24Z</time>
      </trkpt>
      <trkpt lat="43.54795" lon="1.11428">
        <ele>240.9</ele>
        <time>2020-11-29T10:04:25Z</time>
      </trkpt>
      <trkpt lat="43.54795" lon="1.11428">
        <ele>240.9</ele>
        <time>2020-11-29T10:04:26Z</time>
      </trkpt>
      <trkpt lat="43.54795" lon="1.11428">
        <ele>240.9</ele>
        <time>2020-11-29T10:04:27Z</time>
      </trkpt>
      <trkpt lat="43.54795" lon="1.11428">
        <ele>240.8</ele>
        <time>2020-11-29T10:04:28Z</time>
      </trkpt>
      <trkpt lat="43.54795" lon="1.11427">
        <ele>240.7</ele>
        <time>2020-11-29T10:04:29Z</time>
      </trkpt>
      <trkpt lat="43.54796" lon="1.11426">
        <ele>240.6</ele>
        <time>2020-11-29T10:04:30Z</time>
      </trkpt>
      <trkpt lat="43.54797" lon="1.11426">
        <ele>240.5</ele>
        <time>2020-11-29T10:04:31Z</time>
      </trkpt>
      <trkpt lat="43.54797" lon="1.11427">
        <ele>240.4</ele>
        <time>2020-11-29T10:04:32Z</time>
      </trkpt>
      <trkpt lat="43.54797" lon="1.11427">
        <ele>240.4</ele>
        <time>2020-11-29T10:04:33Z</time>
      </trkpt>
      <trkpt lat="43.54798" lon="1.11427">
        <ele>240.3</ele>
        <time>2020-11-29T10:04:34Z</time>
      </trkpt>
      <trkpt lat="43.54798" lon="1.11427">
        <ele>240.3</ele>
        <time>2020-11-29T10:04:35Z</time>
      </trkpt>
      <trkpt lat="43.54798" lon="1.11427">
        <ele>240.3</ele>
        <time>2020-11-29T10:04:36Z</time>
      </trkpt>
      <trkpt lat="43.54798" lon="1.11427">
        <ele>240.3</ele>
        <time>2020-11-29T10:04:37Z</time>
      </trkpt>
      <trkpt lat="43.54798" lon="1.11427">
        <ele>240.3</ele>
        <time>2020-11-29T10:04:38Z</time>
      </trkpt>
      <trkpt lat="43.54798" lon="1.11427">
        <ele>240.3</ele>
        <time>2020-11-29T10:04:39Z</time>
      </trkpt>
      <trkpt lat="43.54798" lon="1.11427">
        <ele>240.3</ele>
        <time>2020-11-29T10:04:40Z</time>
      </trkpt>
      <trkpt lat="43.54798" lon="1.11427">
        <ele>240.3</ele>
        <time>2020-11-29T10:04:41Z</time>
      </trkpt>
      <trkpt lat="43.54798" lon="1.11427">
        <ele>240.2</ele>
        <time>2020-11-29T10:04:42Z</time>
      </trkpt>
      <trkpt lat="43.54798" lon="1.11427">
        <ele>240.2</ele>
        <time>2020-11-29T10:04:43Z</time>
      </trkpt>
      <trkpt lat="43.54798" lon="1.11427">
        <ele>240.2</ele>
        <time>2020-11-29T10:04:44Z</time>
      </trkpt>
      <trkpt lat="43.54798" lon="1.11427">
        <ele>240.2</ele>
        <time>2020-11-29T10:04:45Z</time>
      </trkpt>
      <trkpt lat="43.54798" lon="1.11427">
        <ele>240.2</ele>
        <time>2020-11-29T10:04:46Z</time>
      </trkpt>
      <trkpt lat="43.54798" lon="1.11427">
        <ele>240.2</ele>
        <time>2020-11-29T10:04:47Z</time>
      </trkpt>
      <trkpt lat="43.54798" lon="1.11427">
        <ele>240.1</ele>
        <time>2020-11-29T10:04:48Z</time>
      </trkpt>
      <trkpt lat="43.54799" lon="1.11427">
        <ele>240.1</ele>
        <time>2020-11-29T10:04:49Z</time>
      </trkpt>
      <trkpt lat="43.54799" lon="1.11428">
        <ele>240.1</ele>
        <time>2020-11-29T10:04:50Z</time>
      </trkpt>
      <trkpt lat="43.54799" lon="1.11428">
        <ele>240.1</ele>
        <time>2020-11-29T10:04:51Z</time>
      </trkpt>
      <trkpt lat="43.54799" lon="1.11428">
        <ele>240.1</ele>
        <time>2020-11-29T10:04:52Z</time>
      </trkpt>
      <trkpt lat="43.54799" lon="1.11428">
        <ele>240</ele>
        <time>2020-11-29T10:04:53Z</time>
      </trkpt>
      <trkpt lat="43.548" lon="1.11427">
        <ele>239.9</ele>
        <time>2020-11-29T10:04:54Z</time>
      </trkpt>
      <trkpt lat="43.54801" lon="1.11427">
        <ele>239.8</ele>
        <time>2020-11-29T10:04:55Z</time>
      </trkpt>
      <trkpt lat="43.54801" lon="1.11427">
        <ele>239.7</ele>
        <time>2020-11-29T10:04:56Z</time>
      </trkpt>
      <trkpt lat="43.54802" lon="1.11427">
        <ele>239.6</ele>
        <time>2020-11-29T10:04:57Z</time>
      </trkpt>
      <trkpt lat="43.54803" lon="1.11426">
        <ele>239.4</ele>
        <time>2020-11-29T10:04:58Z</time>
      </trkpt>
      <trkpt lat="43.54804" lon="1.11426">
        <ele>239.3</ele>
        <time>2020-11-29T10:04:59Z</time>
      </trkpt>
      <trkpt lat="43.54805" lon="1.11426">
        <ele>239.2</ele>
        <time>2020-11-29T10:05:00Z</time>
      </trkpt>
      <trkpt lat="43.54805" lon="1.11426">
        <ele>239.1</ele>
        <time>2020-11-29T10:05:01Z</time>
      </trkpt>
      <trkpt lat="43.54806" lon="1.11426">
        <ele>238.9</ele>
        <time>2020-11-29T10:05:02Z</time>
      </trkpt>
      <trkpt lat="43.54807" lon="1.11426">
        <ele>238.8</ele>
        <time>2020-11-29T10:05:03Z</time>
      </trkpt>
      <trkpt lat="43.54808" lon="1.11425">
        <ele>238.6</ele>
        <time>2020-11-29T10:05:04Z</time>
      </trkpt>
      <trkpt lat="43.54809" lon="1.11425">
        <ele>238.6</ele>
        <time>2020-11-29T10:05:05Z</time>
      </trkpt>
      <trkpt lat="43.54809" lon="1.11425">
        <ele>238.6</ele>
        <time>2020-11-29T10:05:06Z</time>
      </trkpt>
      <trkpt lat="43.54809" lon="1.11425">
        <ele>238.6</ele>
        <time>2020-11-29T10:05:07Z</time>
      </trkpt>
      <trkpt lat="43.54809" lon="1.11425">
        <ele>238.6</ele>
        <time>2020-11-29T10:05:08Z</time>
      </trkpt>
      <trkpt lat="43.54809" lon="1.11425">
        <ele>238.5</ele>
        <time>2020-11-29T10:05:09Z</time>
      </trkpt>
      <trkpt lat="43.54809" lon="1.11425">
        <ele>238.5</ele>
        <time>2020-11-29T10:05:10Z</time>
      </trkpt>
      <trkpt lat="43.54809" lon="1.11426">
        <ele>238.5</ele>
        <time>2020-11-29T10:05:11Z</time>
      </trkpt>
      <trkpt lat="43.54809" lon="1.11426">
        <ele>238.5</ele>
        <time>2020-11-29T10:05:12Z</time>
      </trkpt>
      <trkpt lat="43.54809" lon="1.11426">
        <ele>238.4</ele>
        <time>2020-11-29T10:05:13Z</time>
      </trkpt>
      <trkpt lat="43.54809" lon="1.11426">
        <ele>238.4</ele>
        <time>2020-11-29T10:05:14Z</time>
      </trkpt>
      <trkpt lat="43.5481" lon="1.11426">
        <ele>238.4</ele>
        <time>2020-11-29T10:05:15Z</time>
      </trkpt>
      <trkpt lat="43.54809" lon="1.11426">
        <ele>238.3</ele>
        <time>2020-11-29T10:05:16Z</time>
      </trkpt>
      <trkpt lat="43.5481" lon="1.11426">
        <ele>238.2</ele>
        <time>2020-11-29T10:05:17Z</time>
      </trkpt>
      <trkpt lat="43.54811" lon="1.11426">
        <ele>238</ele>
        <time>2020-11-29T10:05:18Z</time>
      </trkpt>
      <trkpt lat="43.54812" lon="1.11426">
        <ele>237.9</ele>
        <time>2020-11-29T10:05:19Z</time>
      </trkpt>
      <trkpt lat="43.54812" lon="1.11426">
        <ele>237.9</ele>
        <time>2020-11-29T10:05:20Z</time>
      </trkpt>
      <trkpt lat="43.54812" lon="1.11426">
        <ele>237.9</ele>
        <time>2020-11-29T10:05:21Z</time>
      </trkpt>
      <trkpt lat="43.54812" lon="1.11426">
        <ele>237.8</ele>
        <time>2020-11-29T10:05:22Z</time>
      </trkpt>
      <trkpt lat="43.54813" lon="1.11426">
        <ele>237.8</ele>
        <time>2020-11-29T10:05:23Z</time>
      </trkpt>
      <trkpt lat="43.54813" lon="1.11426">
        <ele>237.8</ele>
        <time>2020-11-29T10:05:24Z</time>
      </trkpt>
      <trkpt lat="43.54813" lon="1.11426">
        <ele>237.7</ele>
        <time>2020-11-29T10:05:25Z</time>
      </trkpt>
      <trkpt lat="43.54813" lon="1.11426">
        <ele>237.7</ele>
        <time>2020-11-29T10:05:26Z</time>
      </trkpt>
      <trkpt lat="43.54814" lon="1.11426">
        <ele>237.6</ele>
        <time>2020-11-29T10:05:27Z</time>
      </trkpt>
      <trkpt lat="43.54814" lon="1.11426">
        <ele>237.6</ele>
        <time>2020-11-29T10:05:28Z</time>
      </trkpt>
      <trkpt lat="43.54814" lon="1.11426">
        <ele>237.6</ele>
        <time>2020-11-29T10:05:29Z</time>
      </trkpt>
      <trkpt lat="43.54814" lon="1.11426">
        <ele>237.5</ele>
        <time>2020-11-29T10:05:30Z</time>
      </trkpt>
      <trkpt lat="43.54817" lon="1.11426">
        <ele>237.1</ele>
        <time>2020-11-29T10:05:31Z</time>
      </trkpt>
      <trkpt lat="43.54818" lon="1.11426">
        <ele>236.9</ele>
        <time>2020-11-29T10:05:32Z</time>
      </trkpt>
      <trkpt lat="43.54819" lon="1.11426">
        <ele>236.9</ele>
        <time>2020-11-29T10:05:33Z</time>
      </trkpt>
      <trkpt lat="43.54819" lon="1.11426">
        <ele>236.8</ele>
        <time>2020-11-29T10:05:34Z</time>
      </trkpt>
      <trkpt lat="43.54819" lon="1.11425">
        <ele>236.8</ele>
        <time>2020-11-29T10:05:35Z</time>
      </trkpt>
      <trkpt lat="43.54819" lon="1.11425">
        <ele>236.8</ele>
        <time>2020-11-29T10:05:36Z</time>
      </trkpt>
      <trkpt lat="43.5482" lon="1.11425">
        <ele>236.7</ele>
        <time>2020-11-29T10:05:37Z</time>
      </trkpt>
      <trkpt lat="43.5482" lon="1.11425">
        <ele>236.7</ele>
        <time>2020-11-29T10:05:38Z</time>
      </trkpt>
      <trkpt lat="43.5482" lon="1.11425">
        <ele>236.6</ele>
        <time>2020-11-29T10:05:39Z</time>
      </trkpt>
      <trkpt lat="43.5482" lon="1.11425">
        <ele>236.6</ele>
        <time>2020-11-29T10:05:40Z</time>
      </trkpt>
      <trkpt lat="43.5482" lon="1.11425">
        <ele>236.6</ele>
        <time>2020-11-29T10:05:41Z</time>
      </trkpt>
      <trkpt lat="43.54821" lon="1.11425">
        <ele>236.6</ele>
        <time>2020-11-29T10:05:42Z</time>
      </trkpt>
      <trkpt lat="43.54821" lon="1.11425">
        <ele>236.5</ele>
        <time>2020-11-29T10:05:43Z</time>
      </trkpt>
      <trkpt lat="43.54821" lon="1.11425">
        <ele>236.5</ele>
        <time>2020-11-29T10:05:44Z</time>
      </trkpt>
      <trkpt lat="43.54821" lon="1.11425">
        <ele>236.5</ele>
        <time>2020-11-29T10:05:45Z</time>
      </trkpt>
      <trkpt lat="43.54821" lon="1.11425">
        <ele>236.4</ele>
        <time>2020-11-29T10:05:46Z</time>
      </trkpt>
      <trkpt lat="43.54822" lon="1.11425">
        <ele>236.4</ele>
        <time>2020-11-29T10:05:47Z</time>
      </trkpt>
      <trkpt lat="43.54822" lon="1.11425">
        <ele>236.3</ele>
        <time>2020-11-29T10:05:48Z</time>
      </trkpt>
      <trkpt lat="43.54822" lon="1.11425">
        <ele>236.3</ele>
        <time>2020-11-29T10:05:49Z</time>
      </trkpt>
      <trkpt lat="43.54822" lon="1.11425">
        <ele>236.3</ele>
        <time>2020-11-29T10:05:50Z</time>
      </trkpt>
      <trkpt lat="43.54823" lon="1.11424">
        <ele>236.2</ele>
        <time>2020-11-29T10:05:51Z</time>
      </trkpt>
      <trkpt lat="43.54823" lon="1.11424">
        <ele>236.2</ele>
        <time>2020-11-29T10:05:52Z</time>
      </trkpt>
      <trkpt lat="43.54823" lon="1.11424">
        <ele>236.2</ele>
        <time>2020-11-29T10:05:53Z</time>
      </trkpt>
      <trkpt lat="43.54824" lon="1.11424">
        <ele>236</ele>
        <time>2020-11-29T10:05:54Z</time>
      </trkpt>
      <trkpt lat="43.54824" lon="1.11424">
        <ele>236</ele>
        <time>2020-11-29T10:05:55Z</time>
      </trkpt>
      <trkpt lat="43.54825" lon="1.11424">
        <ele>235.9</ele>
        <time>2020-11-29T10:05:56Z</time>
      </trkpt>
      <trkpt lat="43.54825" lon="1.11424">
        <ele>235.8</ele>
        <time>2020-11-29T10:05:57Z</time>
      </trkpt>
      <trkpt lat="43.54826" lon="1.11424">
        <ele>235.7</ele>
        <time>2020-11-29T10:05:58Z</time>
      </trkpt>
      <trkpt lat="43.54826" lon="1.11424">
        <ele>235.7</ele>
        <time>2020-11-29T10:05:59Z</time>
      </trkpt>
      <trkpt lat="43.54827" lon="1.11424">
        <ele>235.6</ele>
        <time>2020-11-29T10:06:00Z</time>
      </trkpt>
      <trkpt lat="43.5483" lon="1.11425">
        <ele>235.2</ele>
        <time>2020-11-29T10:06:01Z</time>
      </trkpt>
      <trkpt lat="43.54831" lon="1.11426">
        <ele>234.7</ele>
        <time>2020-11-29T10:06:02Z</time>
      </trkpt>
      <trkpt lat="43.54832" lon="1.11429">
        <ele>234.7</ele>
        <time>2020-11-29T10:06:03Z</time>
      </trkpt>
      <trkpt lat="43.54832" lon="1.11433">
        <ele>234.6</ele>
        <time>2020-11-29T10:06:04Z</time>
      </trkpt>
      <trkpt lat="43.54832" lon="1.11439">
        <ele>234.6</ele>
        <time>2020-11-29T10:06:05Z</time>
      </trkpt>
      <trkpt lat="43.54832" lon="1.11441">
        <ele>234.5</ele>
        <time>2020-11-29T10:06:06Z</time>
      </trkpt>
      <trkpt lat="43.54832" lon="1.11445">
        <ele>234.5</ele>
        <time>2020-11-29T10:06:07Z</time>
      </trkpt>
      <trkpt lat="43.54833" lon="1.1145">
        <ele>234.4</ele>
        <time>2020-11-29T10:06:08Z</time>
      </trkpt>
      <trkpt lat="43.54833" lon="1.11452">
        <ele>234.4</ele>
        <time>2020-11-29T10:06:09Z</time>
      </trkpt>
      <trkpt lat="43.54833" lon="1.11459">
        <ele>234.3</ele>
        <time>2020-11-29T10:06:10Z</time>
      </trkpt>
      <trkpt lat="43.54833" lon="1.11464">
        <ele>234.2</ele>
        <time>2020-11-29T10:06:11Z</time>
      </trkpt>
      <trkpt lat="43.54833" lon="1.11471">
        <ele>234.2</ele>
        <time>2020-11-29T10:06:12Z</time>
      </trkpt>
      <trkpt lat="43.54834" lon="1.11476">
        <ele>234.1</ele>
        <time>2020-11-29T10:06:13Z</time>
      </trkpt>
      <trkpt lat="43.54833" lon="1.11482">
        <ele>234.1</ele>
        <time>2020-11-29T10:06:14Z</time>
      </trkpt>
      <trkpt lat="43.54833" lon="1.11489">
        <ele>234.1</ele>
        <time>2020-11-29T10:06:15Z</time>
      </trkpt>
      <trkpt lat="43.54833" lon="1.11495">
        <ele>234.1</ele>
        <time>2020-11-29T10:06:16Z</time>
      </trkpt>
      <trkpt lat="43.54833" lon="1.115">
        <ele>234.1</ele>
        <time>2020-11-29T10:06:17Z</time>
      </trkpt>
      <trkpt lat="43.54833" lon="1.11505">
        <ele>234.1</ele>
        <time>2020-11-29T10:06:18Z</time>
      </trkpt>
      <trkpt lat="43.54833" lon="1.11511">
        <ele>234.2</ele>
        <time>2020-11-29T10:06:19Z</time>
      </trkpt>
      <trkpt lat="43.54835" lon="1.11517">
        <ele>234.2</ele>
        <time>2020-11-29T10:06:20Z</time>
      </trkpt>
      <trkpt lat="43.54837" lon="1.11522">
        <ele>234.3</ele>
        <time>2020-11-29T10:06:21Z</time>
      </trkpt>
      <trkpt lat="43.5484" lon="1.11529">
        <ele>234.3</ele>
        <time>2020-11-29T10:06:22Z</time>
      </trkpt>
      <trkpt lat="43.54841" lon="1.11535">
        <ele>234.4</ele>
        <time>2020-11-29T10:06:23Z</time>
      </trkpt>
      <trkpt lat="43.54842" lon="1.11541">
        <ele>234.5</ele>
        <time>2020-11-29T10:06:24Z</time>
      </trkpt>
      <trkpt lat="43.54841" lon="1.11548">
        <ele>234.6</ele>
        <time>2020-11-29T10:06:25Z</time>
      </trkpt>
      <trkpt lat="43.54841" lon="1.11555">
        <ele>234.7</ele>
        <time>2020-11-29T10:06:26Z</time>
      </trkpt>
      <trkpt lat="43.5484" lon="1.11563">
        <ele>234.8</ele>
        <time>2020-11-29T10:06:27Z</time>
      </trkpt>
      <trkpt lat="43.5484" lon="1.1157">
        <ele>234.9</ele>
        <time>2020-11-29T10:06:28Z</time>
      </trkpt>
      <trkpt lat="43.54838" lon="1.11577">
        <ele>235</ele>
        <time>2020-11-29T10:06:29Z</time>
      </trkpt>
      <trkpt lat="43.54838" lon="1.11584">
        <ele>235.1</ele>
        <time>2020-11-29T10:06:30Z</time>
      </trkpt>
      <trkpt lat="43.54837" lon="1.11591">
        <ele>235.2</ele>
        <time>2020-11-29T10:06:31Z</time>
      </trkpt>
      <trkpt lat="43.54836" lon="1.11597">
        <ele>235.3</ele>
        <time>2020-11-29T10:06:32Z</time>
      </trkpt>
      <trkpt lat="43.54835" lon="1.11604">
        <ele>235.4</ele>
        <time>2020-11-29T10:06:33Z</time>
      </trkpt>
      <trkpt lat="43.54834" lon="1.11609">
        <ele>235.5</ele>
        <time>2020-11-29T10:06:34Z</time>
      </trkpt>
      <trkpt lat="43.54833" lon="1.11617">
        <ele>235.7</ele>
        <time>2020-11-29T10:06:35Z</time>
      </trkpt>
      <trkpt lat="43.54832" lon="1.11624">
        <ele>235.8</ele>
        <time>2020-11-29T10:06:36Z</time>
      </trkpt>
      <trkpt lat="43.54832" lon="1.1163">
        <ele>235.9</ele>
        <time>2020-11-29T10:06:37Z</time>
      </trkpt>
      <trkpt lat="43.5483" lon="1.11634">
        <ele>235.9</ele>
        <time>2020-11-29T10:06:38Z</time>
      </trkpt>
      <trkpt lat="43.5483" lon="1.11639">
        <ele>236</ele>
        <time>2020-11-29T10:06:39Z</time>
      </trkpt>
      <trkpt lat="43.54829" lon="1.11644">
        <ele>236.1</ele>
        <time>2020-11-29T10:06:40Z</time>
      </trkpt>
      <trkpt lat="43.54828" lon="1.1165">
        <ele>236.2</ele>
        <time>2020-11-29T10:06:41Z</time>
      </trkpt>
      <trkpt lat="43.54828" lon="1.11653">
        <ele>236.2</ele>
        <time>2020-11-29T10:06:42Z</time>
      </trkpt>
      <trkpt lat="43.54827" lon="1.11659">
        <ele>236.3</ele>
        <time>2020-11-29T10:06:43Z</time>
      </trkpt>
      <trkpt lat="43.54826" lon="1.11664">
        <ele>236.4</ele>
        <time>2020-11-29T10:06:44Z</time>
      </trkpt>
      <trkpt lat="43.54825" lon="1.11669">
        <ele>236.6</ele>
        <time>2020-11-29T10:06:45Z</time>
      </trkpt>
      <trkpt lat="43.54824" lon="1.11675">
        <ele>236.7</ele>
        <time>2020-11-29T10:06:46Z</time>
      </trkpt>
      <trkpt lat="43.54822" lon="1.11682">
        <ele>236.8</ele>
        <time>2020-11-29T10:06:47Z</time>
      </trkpt>
      <trkpt lat="43.5482" lon="1.11687">
        <ele>236.9</ele>
        <time>2020-11-29T10:06:48Z</time>
      </trkpt>
      <trkpt lat="43.54819" lon="1.11692">
        <ele>237</ele>
        <time>2020-11-29T10:06:49Z</time>
      </trkpt>
      <trkpt lat="43.54818" lon="1.11698">
        <ele>237.1</ele>
        <time>2020-11-29T10:06:50Z</time>
      </trkpt>
      <trkpt lat="43.54817" lon="1.11704">
        <ele>237.1</ele>
        <time>2020-11-29T10:06:51Z</time>
      </trkpt>
      <trkpt lat="43.54817" lon="1.1171">
        <ele>237.2</ele>
        <time>2020-11-29T10:06:52Z</time>
      </trkpt>
      <trkpt lat="43.54816" lon="1.11716">
        <ele>237.3</ele>
        <time>2020-11-29T10:06:53Z</time>
      </trkpt>
      <trkpt lat="43.54817" lon="1.1172">
        <ele>237.3</ele>
        <time>2020-11-29T10:06:54Z</time>
      </trkpt>
      <trkpt lat="43.54816" lon="1.11726">
        <ele>237.4</ele>
        <time>2020-11-29T10:06:55Z</time>
      </trkpt>
      <trkpt lat="43.54816" lon="1.11733">
        <ele>237.5</ele>
        <time>2020-11-29T10:06:56Z</time>
      </trkpt>
      <trkpt lat="43.54815" lon="1.11737">
        <ele>237.5</ele>
        <time>2020-11-29T10:06:57Z</time>
      </trkpt>
      <trkpt lat="43.54816" lon="1.11741">
        <ele>237.5</ele>
        <time>2020-11-29T10:06:58Z</time>
      </trkpt>
      <trkpt lat="43.54816" lon="1.11749">
        <ele>237.5</ele>
        <time>2020-11-29T10:06:59Z</time>
      </trkpt>
      <trkpt lat="43.54817" lon="1.11753">
        <ele>237.5</ele>
        <time>2020-11-29T10:07:00Z</time>
      </trkpt>
      <trkpt lat="43.54818" lon="1.11759">
        <ele>237.5</ele>
        <time>2020-11-29T10:07:01Z</time>
      </trkpt>
      <trkpt lat="43.54819" lon="1.11766">
        <ele>237.4</ele>
        <time>2020-11-29T10:07:02Z</time>
      </trkpt>
      <trkpt lat="43.5482" lon="1.11773">
        <ele>237.3</ele>
        <time>2020-11-29T10:07:03Z</time>
      </trkpt>
      <trkpt lat="43.54822" lon="1.11781">
        <ele>237.2</ele>
        <time>2020-11-29T10:07:04Z</time>
      </trkpt>
      <trkpt lat="43.54822" lon="1.11792">
        <ele>237</ele>
        <time>2020-11-29T10:07:05Z</time>
      </trkpt>
      <trkpt lat="43.54823" lon="1.118">
        <ele>236.9</ele>
        <time>2020-11-29T10:07:06Z</time>
      </trkpt>
      <trkpt lat="43.54824" lon="1.11807">
        <ele>236.7</ele>
        <time>2020-11-29T10:07:07Z</time>
      </trkpt>
      <trkpt lat="43.54826" lon="1.11814">
        <ele>236.6</ele>
        <time>2020-11-29T10:07:08Z</time>
      </trkpt>
      <trkpt lat="43.54828" lon="1.11821">
        <ele>236.5</ele>
        <time>2020-11-29T10:07:09Z</time>
      </trkpt>
      <trkpt lat="43.54831" lon="1.1183">
        <ele>236.3</ele>
        <time>2020-11-29T10:07:10Z</time>
      </trkpt>
      <trkpt lat="43.54832" lon="1.11837">
        <ele>236.3</ele>
        <time>2020-11-29T10:07:11Z</time>
      </trkpt>
      <trkpt lat="43.54834" lon="1.11846">
        <ele>236.2</ele>
        <time>2020-11-29T10:07:12Z</time>
      </trkpt>
      <trkpt lat="43.54834" lon="1.11854">
        <ele>236.1</ele>
        <time>2020-11-29T10:07:13Z</time>
      </trkpt>
      <trkpt lat="43.54835" lon="1.11861">
        <ele>236</ele>
        <time>2020-11-29T10:07:14Z</time>
      </trkpt>
      <trkpt lat="43.54836" lon="1.11871">
        <ele>236</ele>
        <time>2020-11-29T10:07:15Z</time>
      </trkpt>
      <trkpt lat="43.54839" lon="1.11878">
        <ele>235.9</ele>
        <time>2020-11-29T10:07:16Z</time>
      </trkpt>
      <trkpt lat="43.54841" lon="1.11885">
        <ele>235.8</ele>
        <time>2020-11-29T10:07:17Z</time>
      </trkpt>
      <trkpt lat="43.54844" lon="1.1189">
        <ele>235.8</ele>
        <time>2020-11-29T10:07:18Z</time>
      </trkpt>
      <trkpt lat="43.54847" lon="1.11896">
        <ele>235.7</ele>
        <time>2020-11-29T10:07:19Z</time>
      </trkpt>
      <trkpt lat="43.54851" lon="1.11905">
        <ele>235.5</ele>
        <time>2020-11-29T10:07:20Z</time>
      </trkpt>
      <trkpt lat="43.54853" lon="1.11915">
        <ele>235.4</ele>
        <time>2020-11-29T10:07:21Z</time>
      </trkpt>
      <trkpt lat="43.54856" lon="1.11925">
        <ele>235.2</ele>
        <time>2020-11-29T10:07:22Z</time>
      </trkpt>
      <trkpt lat="43.54859" lon="1.11932">
        <ele>235.1</ele>
        <time>2020-11-29T10:07:23Z</time>
      </trkpt>
      <trkpt lat="43.54861" lon="1.11937">
        <ele>235.1</ele>
        <time>2020-11-29T10:07:24Z</time>
      </trkpt>
      <trkpt lat="43.54862" lon="1.11943">
        <ele>235</ele>
        <time>2020-11-29T10:07:25Z</time>
      </trkpt>
      <trkpt lat="43.54864" lon="1.1195">
        <ele>234.9</ele>
        <time>2020-11-29T10:07:26Z</time>
      </trkpt>
      <trkpt lat="43.54865" lon="1.11959">
        <ele>234.8</ele>
        <time>2020-11-29T10:07:27Z</time>
      </trkpt>
      <trkpt lat="43.54866" lon="1.1197">
        <ele>234.7</ele>
        <time>2020-11-29T10:07:28Z</time>
      </trkpt>
      <trkpt lat="43.54866" lon="1.11975">
        <ele>234.7</ele>
        <time>2020-11-29T10:07:29Z</time>
      </trkpt>
      <trkpt lat="43.54867" lon="1.11985">
        <ele>234.6</ele>
        <time>2020-11-29T10:07:30Z</time>
      </trkpt>
      <trkpt lat="43.54867" lon="1.11992">
        <ele>234.5</ele>
        <time>2020-11-29T10:07:31Z</time>
      </trkpt>
      <trkpt lat="43.54867" lon="1.12">
        <ele>234.5</ele>
        <time>2020-11-29T10:07:32Z</time>
      </trkpt>
      <trkpt lat="43.54866" lon="1.12006">
        <ele>234.4</ele>
        <time>2020-11-29T10:07:33Z</time>
      </trkpt>
      <trkpt lat="43.54867" lon="1.12012">
        <ele>234.3</ele>
        <time>2020-11-29T10:07:34Z</time>
      </trkpt>
      <trkpt lat="43.54867" lon="1.12015">
        <ele>234.3</ele>
        <time>2020-11-29T10:07:35Z</time>
      </trkpt>
      <trkpt lat="43.54867" lon="1.12022">
        <ele>234.1</ele>
        <time>2020-11-29T10:07:36Z</time>
      </trkpt>
      <trkpt lat="43.54868" lon="1.12028">
        <ele>233.9</ele>
        <time>2020-11-29T10:07:37Z</time>
      </trkpt>
      <trkpt lat="43.54867" lon="1.12033">
        <ele>233.8</ele>
        <time>2020-11-29T10:07:38Z</time>
      </trkpt>
      <trkpt lat="43.54868" lon="1.1204">
        <ele>233.7</ele>
        <time>2020-11-29T10:07:39Z</time>
      </trkpt>
      <trkpt lat="43.54867" lon="1.12047">
        <ele>233.6</ele>
        <time>2020-11-29T10:07:40Z</time>
      </trkpt>
      <trkpt lat="43.54867" lon="1.12055">
        <ele>233.6</ele>
        <time>2020-11-29T10:07:41Z</time>
      </trkpt>
      <trkpt lat="43.54866" lon="1.12062">
        <ele>233.5</ele>
        <time>2020-11-29T10:07:42Z</time>
      </trkpt>
      <trkpt lat="43.54865" lon="1.12068">
        <ele>233.5</ele>
        <time>2020-11-29T10:07:43Z</time>
      </trkpt>
      <trkpt lat="43.54865" lon="1.12074">
        <ele>233.5</ele>
        <time>2020-11-29T10:07:44Z</time>
      </trkpt>
      <trkpt lat="43.54864" lon="1.12081">
        <ele>233.5</ele>
        <time>2020-11-29T10:07:45Z</time>
      </trkpt>
      <trkpt lat="43.54864" lon="1.12088">
        <ele>233.4</ele>
        <time>2020-11-29T10:07:46Z</time>
      </trkpt>
      <trkpt lat="43.54863" lon="1.12096">
        <ele>233.4</ele>
        <time>2020-11-29T10:07:47Z</time>
      </trkpt>
      <trkpt lat="43.54863" lon="1.12104">
        <ele>233.4</ele>
        <time>2020-11-29T10:07:48Z</time>
      </trkpt>
      <trkpt lat="43.54862" lon="1.1211">
        <ele>233.4</ele>
        <time>2020-11-29T10:07:49Z</time>
      </trkpt>
      <trkpt lat="43.54861" lon="1.12119">
        <ele>233.4</ele>
        <time>2020-11-29T10:07:50Z</time>
      </trkpt>
      <trkpt lat="43.5486" lon="1.12128">
        <ele>233.4</ele>
        <time>2020-11-29T10:07:51Z</time>
      </trkpt>
      <trkpt lat="43.54859" lon="1.12133">
        <ele>233.4</ele>
        <time>2020-11-29T10:07:52Z</time>
      </trkpt>
      <trkpt lat="43.54859" lon="1.12141">
        <ele>233.4</ele>
        <time>2020-11-29T10:07:53Z</time>
      </trkpt>
      <trkpt lat="43.54857" lon="1.1215">
        <ele>233.4</ele>
        <time>2020-11-29T10:07:54Z</time>
      </trkpt>
      <trkpt lat="43.54855" lon="1.1216">
        <ele>233.4</ele>
        <time>2020-11-29T10:07:55Z</time>
      </trkpt>
      <trkpt lat="43.54854" lon="1.12169">
        <ele>233.4</ele>
        <time>2020-11-29T10:07:56Z</time>
      </trkpt>
      <trkpt lat="43.54854" lon="1.12176">
        <ele>233.4</ele>
        <time>2020-11-29T10:07:57Z</time>
      </trkpt>
      <trkpt lat="43.54853" lon="1.12185">
        <ele>233.3</ele>
        <time>2020-11-29T10:07:58Z</time>
      </trkpt>
      <trkpt lat="43.54852" lon="1.12193">
        <ele>233.3</ele>
        <time>2020-11-29T10:07:59Z</time>
      </trkpt>
      <trkpt lat="43.5485" lon="1.12201">
        <ele>233.3</ele>
        <time>2020-11-29T10:08:00Z</time>
      </trkpt>
      <trkpt lat="43.54849" lon="1.12208">
        <ele>233.3</ele>
        <time>2020-11-29T10:08:01Z</time>
      </trkpt>
      <trkpt lat="43.54848" lon="1.12217">
        <ele>233.3</ele>
        <time>2020-11-29T10:08:02Z</time>
      </trkpt>
      <trkpt lat="43.54848" lon="1.12225">
        <ele>233.2</ele>
        <time>2020-11-29T10:08:03Z</time>
      </trkpt>
      <trkpt lat="43.54846" lon="1.12233">
        <ele>233.2</ele>
        <time>2020-11-29T10:08:04Z</time>
      </trkpt>
      <trkpt lat="43.54844" lon="1.1224">
        <ele>233.2</ele>
        <time>2020-11-29T10:08:05Z</time>
      </trkpt>
      <trkpt lat="43.54842" lon="1.12244">
        <ele>233.2</ele>
        <time>2020-11-29T10:08:06Z</time>
      </trkpt>
      <trkpt lat="43.54842" lon="1.1225">
        <ele>233.2</ele>
        <time>2020-11-29T10:08:07Z</time>
      </trkpt>
      <trkpt lat="43.54842" lon="1.12255">
        <ele>233.2</ele>
        <time>2020-11-29T10:08:08Z</time>
      </trkpt>
      <trkpt lat="43.54841" lon="1.12261">
        <ele>233.2</ele>
        <time>2020-11-29T10:08:09Z</time>
      </trkpt>
      <trkpt lat="43.54842" lon="1.12266">
        <ele>233.2</ele>
        <time>2020-11-29T10:08:10Z</time>
      </trkpt>
      <trkpt lat="43.54843" lon="1.12273">
        <ele>233</ele>
        <time>2020-11-29T10:08:11Z</time>
      </trkpt>
      <trkpt lat="43.54847" lon="1.1228">
        <ele>232.7</ele>
        <time>2020-11-29T10:08:12Z</time>
      </trkpt>
      <trkpt lat="43.54851" lon="1.12282">
        <ele>232.5</ele>
        <time>2020-11-29T10:08:13Z</time>
      </trkpt>
      <trkpt lat="43.54854" lon="1.12283">
        <ele>232.4</ele>
        <time>2020-11-29T10:08:14Z</time>
      </trkpt>
      <trkpt lat="43.54859" lon="1.12285">
        <ele>232.2</ele>
        <time>2020-11-29T10:08:15Z</time>
      </trkpt>
      <trkpt lat="43.54864" lon="1.12285">
        <ele>232</ele>
        <time>2020-11-29T10:08:16Z</time>
      </trkpt>
      <trkpt lat="43.54868" lon="1.12286">
        <ele>231.8</ele>
        <time>2020-11-29T10:08:17Z</time>
      </trkpt>
      <trkpt lat="43.54873" lon="1.12286">
        <ele>231.7</ele>
        <time>2020-11-29T10:08:18Z</time>
      </trkpt>
      <trkpt lat="43.54878" lon="1.12287">
        <ele>231.6</ele>
        <time>2020-11-29T10:08:19Z</time>
      </trkpt>
      <trkpt lat="43.54883" lon="1.12287">
        <ele>231.5</ele>
        <time>2020-11-29T10:08:20Z</time>
      </trkpt>
      <trkpt lat="43.54887" lon="1.12287">
        <ele>231.4</ele>
        <time>2020-11-29T10:08:21Z</time>
      </trkpt>
      <trkpt lat="43.5489" lon="1.12287">
        <ele>231.3</ele>
        <time>2020-11-29T10:08:22Z</time>
      </trkpt>
      <trkpt lat="43.54894" lon="1.12287">
        <ele>231.3</ele>
        <time>2020-11-29T10:08:23Z</time>
      </trkpt>
      <trkpt lat="43.54897" lon="1.12287">
        <ele>231.2</ele>
        <time>2020-11-29T10:08:24Z</time>
      </trkpt>
      <trkpt lat="43.54901" lon="1.12289">
        <ele>231.2</ele>
        <time>2020-11-29T10:08:25Z</time>
      </trkpt>
      <trkpt lat="43.54905" lon="1.1229">
        <ele>231.1</ele>
        <time>2020-11-29T10:08:26Z</time>
      </trkpt>
      <trkpt lat="43.54909" lon="1.12291">
        <ele>231.1</ele>
        <time>2020-11-29T10:08:27Z</time>
      </trkpt>
      <trkpt lat="43.54912" lon="1.12293">
        <ele>231.1</ele>
        <time>2020-11-29T10:08:28Z</time>
      </trkpt>
      <trkpt lat="43.54917" lon="1.12293">
        <ele>231</ele>
        <time>2020-11-29T10:08:29Z</time>
      </trkpt>
      <trkpt lat="43.54922" lon="1.12294">
        <ele>231</ele>
        <time>2020-11-29T10:08:30Z</time>
      </trkpt>
      <trkpt lat="43.54927" lon="1.12296">
        <ele>230.9</ele>
        <time>2020-11-29T10:08:31Z</time>
      </trkpt>
      <trkpt lat="43.54931" lon="1.12297">
        <ele>230.9</ele>
        <time>2020-11-29T10:08:32Z</time>
      </trkpt>
      <trkpt lat="43.54936" lon="1.12297">
        <ele>230.8</ele>
        <time>2020-11-29T10:08:33Z</time>
      </trkpt>
      <trkpt lat="43.54941" lon="1.12298">
        <ele>230.8</ele>
        <time>2020-11-29T10:08:34Z</time>
      </trkpt>
      <trkpt lat="43.54946" lon="1.123">
        <ele>230.8</ele>
        <time>2020-11-29T10:08:35Z</time>
      </trkpt>
      <trkpt lat="43.5495" lon="1.12301">
        <ele>230.8</ele>
        <time>2020-11-29T10:08:36Z</time>
      </trkpt>
      <trkpt lat="43.54955" lon="1.12301">
        <ele>230.8</ele>
        <time>2020-11-29T10:08:37Z</time>
      </trkpt>
      <trkpt lat="43.5496" lon="1.12301">
        <ele>230.8</ele>
        <time>2020-11-29T10:08:38Z</time>
      </trkpt>
      <trkpt lat="43.54965" lon="1.12302">
        <ele>230.8</ele>
        <time>2020-11-29T10:08:39Z</time>
      </trkpt>
      <trkpt lat="43.54969" lon="1.12303">
        <ele>230.8</ele>
        <time>2020-11-29T10:08:40Z</time>
      </trkpt>
      <trkpt lat="43.54974" lon="1.12304">
        <ele>230.9</ele>
        <time>2020-11-29T10:08:41Z</time>
      </trkpt>
      <trkpt lat="43.54979" lon="1.12305">
        <ele>231</ele>
        <time>2020-11-29T10:08:42Z</time>
      </trkpt>
      <trkpt lat="43.54984" lon="1.12306">
        <ele>231</ele>
        <time>2020-11-29T10:08:43Z</time>
      </trkpt>
      <trkpt lat="43.5499" lon="1.12308">
        <ele>231</ele>
        <time>2020-11-29T10:08:44Z</time>
      </trkpt>
      <trkpt lat="43.54995" lon="1.12309">
        <ele>231</ele>
        <time>2020-11-29T10:08:45Z</time>
      </trkpt>
      <trkpt lat="43.55" lon="1.1231">
        <ele>231</ele>
        <time>2020-11-29T10:08:46Z</time>
      </trkpt>
      <trkpt lat="43.55006" lon="1.12311">
        <ele>231</ele>
        <time>2020-11-29T10:08:47Z</time>
      </trkpt>
      <trkpt lat="43.55011" lon="1.12314">
        <ele>231</ele>
        <time>2020-11-29T10:08:48Z</time>
      </trkpt>
      <trkpt lat="43.55016" lon="1.12314">
        <ele>231</ele>
        <time>2020-11-29T10:08:49Z</time>
      </trkpt>
      <trkpt lat="43.55022" lon="1.12314">
        <ele>231</ele>
        <time>2020-11-29T10:08:50Z</time>
      </trkpt>
      <trkpt lat="43.55029" lon="1.12315">
        <ele>231</ele>
        <time>2020-11-29T10:08:51Z</time>
      </trkpt>
      <trkpt lat="43.55034" lon="1.12315">
        <ele>231.1</ele>
        <time>2020-11-29T10:08:52Z</time>
      </trkpt>
      <trkpt lat="43.5504" lon="1.12317">
        <ele>231.2</ele>
        <time>2020-11-29T10:08:53Z</time>
      </trkpt>
      <trkpt lat="43.55045" lon="1.12319">
        <ele>231.3</ele>
        <time>2020-11-29T10:08:54Z</time>
      </trkpt>
      <trkpt lat="43.55049" lon="1.12321">
        <ele>231.5</ele>
        <time>2020-11-29T10:08:55Z</time>
      </trkpt>
      <trkpt lat="43.55054" lon="1.12322">
        <ele>231.6</ele>
        <time>2020-11-29T10:08:56Z</time>
      </trkpt>
      <trkpt lat="43.55059" lon="1.12322">
        <ele>231.8</ele>
        <time>2020-11-29T10:08:57Z</time>
      </trkpt>
      <trkpt lat="43.55063" lon="1.12322">
        <ele>231.9</ele>
        <time>2020-11-29T10:08:58Z</time>
      </trkpt>
      <trkpt lat="43.55066" lon="1.12323">
        <ele>232.1</ele>
        <time>2020-11-29T10:08:59Z</time>
      </trkpt>
      <trkpt lat="43.55069" lon="1.12325">
        <ele>232.2</ele>
        <time>2020-11-29T10:09:00Z</time>
      </trkpt>
      <trkpt lat="43.55072" lon="1.12327">
        <ele>232.4</ele>
        <time>2020-11-29T10:09:01Z</time>
      </trkpt>
      <trkpt lat="43.55075" lon="1.12329">
        <ele>232.6</ele>
        <time>2020-11-29T10:09:02Z</time>
      </trkpt>
      <trkpt lat="43.55078" lon="1.1233">
        <ele>232.8</ele>
        <time>2020-11-29T10:09:03Z</time>
      </trkpt>
      <trkpt lat="43.55081" lon="1.12331">
        <ele>233</ele>
        <time>2020-11-29T10:09:04Z</time>
      </trkpt>
      <trkpt lat="43.55085" lon="1.12332">
        <ele>233.3</ele>
        <time>2020-11-29T10:09:05Z</time>
      </trkpt>
      <trkpt lat="43.55089" lon="1.12334">
        <ele>233.6</ele>
        <time>2020-11-29T10:09:06Z</time>
      </trkpt>
      <trkpt lat="43.55092" lon="1.12334">
        <ele>233.8</ele>
        <time>2020-11-29T10:09:07Z</time>
      </trkpt>
      <trkpt lat="43.55095" lon="1.12335">
        <ele>234.1</ele>
        <time>2020-11-29T10:09:08Z</time>
      </trkpt>
      <trkpt lat="43.55098" lon="1.12337">
        <ele>234.4</ele>
        <time>2020-11-29T10:09:09Z</time>
      </trkpt>
      <trkpt lat="43.55101" lon="1.12339">
        <ele>234.7</ele>
        <time>2020-11-29T10:09:10Z</time>
      </trkpt>
      <trkpt lat="43.55105" lon="1.12339">
        <ele>235</ele>
        <time>2020-11-29T10:09:11Z</time>
      </trkpt>
      <trkpt lat="43.55109" lon="1.1234">
        <ele>235.3</ele>
        <time>2020-11-29T10:09:12Z</time>
      </trkpt>
      <trkpt lat="43.55112" lon="1.12341">
        <ele>235.7</ele>
        <time>2020-11-29T10:09:13Z</time>
      </trkpt>
      <trkpt lat="43.55115" lon="1.12343">
        <ele>236.1</ele>
        <time>2020-11-29T10:09:14Z</time>
      </trkpt>
      <trkpt lat="43.55119" lon="1.12344">
        <ele>236.5</ele>
        <time>2020-11-29T10:09:15Z</time>
      </trkpt>
      <trkpt lat="43.55122" lon="1.12346">
        <ele>236.9</ele>
        <time>2020-11-29T10:09:16Z</time>
      </trkpt>
      <trkpt lat="43.55127" lon="1.12349">
        <ele>237.4</ele>
        <time>2020-11-29T10:09:17Z</time>
      </trkpt>
      <trkpt lat="43.55131" lon="1.12351">
        <ele>238</ele>
        <time>2020-11-29T10:09:18Z</time>
      </trkpt>
      <trkpt lat="43.55134" lon="1.12353">
        <ele>238.4</ele>
        <time>2020-11-29T10:09:19Z</time>
      </trkpt>
      <trkpt lat="43.55137" lon="1.12352">
        <ele>238.8</ele>
        <time>2020-11-29T10:09:20Z</time>
      </trkpt>
      <trkpt lat="43.55142" lon="1.12347">
        <ele>240.3</ele>
        <time>2020-11-29T10:09:21Z</time>
      </trkpt>
      <trkpt lat="43.55144" lon="1.12341">
        <ele>240.2</ele>
        <time>2020-11-29T10:09:22Z</time>
      </trkpt>
      <trkpt lat="43.55147" lon="1.12334">
        <ele>240.1</ele>
        <time>2020-11-29T10:09:23Z</time>
      </trkpt>
      <trkpt lat="43.55149" lon="1.12328">
        <ele>240</ele>
        <time>2020-11-29T10:09:24Z</time>
      </trkpt>
      <trkpt lat="43.55151" lon="1.12321">
        <ele>239.9</ele>
        <time>2020-11-29T10:09:25Z</time>
      </trkpt>
      <trkpt lat="43.55154" lon="1.12313">
        <ele>239.8</ele>
        <time>2020-11-29T10:09:26Z</time>
      </trkpt>
      <trkpt lat="43.55155" lon="1.12306">
        <ele>239.6</ele>
        <time>2020-11-29T10:09:27Z</time>
      </trkpt>
      <trkpt lat="43.55156" lon="1.12299">
        <ele>239.5</ele>
        <time>2020-11-29T10:09:28Z</time>
      </trkpt>
      <trkpt lat="43.55157" lon="1.12291">
        <ele>239.4</ele>
        <time>2020-11-29T10:09:29Z</time>
      </trkpt>
      <trkpt lat="43.55158" lon="1.12285">
        <ele>239.3</ele>
        <time>2020-11-29T10:09:30Z</time>
      </trkpt>
      <trkpt lat="43.55159" lon="1.12278">
        <ele>239.2</ele>
        <time>2020-11-29T10:09:31Z</time>
      </trkpt>
      <trkpt lat="43.5516" lon="1.12271">
        <ele>239.1</ele>
        <time>2020-11-29T10:09:32Z</time>
      </trkpt>
      <trkpt lat="43.55161" lon="1.12263">
        <ele>239</ele>
        <time>2020-11-29T10:09:33Z</time>
      </trkpt>
      <trkpt lat="43.55163" lon="1.12255">
        <ele>238.9</ele>
        <time>2020-11-29T10:09:34Z</time>
      </trkpt>
      <trkpt lat="43.55164" lon="1.12248">
        <ele>238.8</ele>
        <time>2020-11-29T10:09:35Z</time>
      </trkpt>
      <trkpt lat="43.55164" lon="1.12243">
        <ele>238.8</ele>
        <time>2020-11-29T10:09:36Z</time>
      </trkpt>
      <trkpt lat="43.55165" lon="1.12236">
        <ele>238.7</ele>
        <time>2020-11-29T10:09:37Z</time>
      </trkpt>
      <trkpt lat="43.55166" lon="1.12228">
        <ele>238.7</ele>
        <time>2020-11-29T10:09:38Z</time>
      </trkpt>
      <trkpt lat="43.55168" lon="1.12219">
        <ele>238.6</ele>
        <time>2020-11-29T10:09:39Z</time>
      </trkpt>
      <trkpt lat="43.55169" lon="1.1221">
        <ele>238.5</ele>
        <time>2020-11-29T10:09:40Z</time>
      </trkpt>
      <trkpt lat="43.55171" lon="1.12201">
        <ele>238.4</ele>
        <time>2020-11-29T10:09:41Z</time>
      </trkpt>
      <trkpt lat="43.55171" lon="1.12193">
        <ele>238.4</ele>
        <time>2020-11-29T10:09:42Z</time>
      </trkpt>
      <trkpt lat="43.55173" lon="1.12185">
        <ele>238.3</ele>
        <time>2020-11-29T10:09:43Z</time>
      </trkpt>
      <trkpt lat="43.55174" lon="1.12178">
        <ele>238.3</ele>
        <time>2020-11-29T10:09:44Z</time>
      </trkpt>
      <trkpt lat="43.55174" lon="1.12171">
        <ele>238.2</ele>
        <time>2020-11-29T10:09:45Z</time>
      </trkpt>
      <trkpt lat="43.55175" lon="1.12164">
        <ele>238.2</ele>
        <time>2020-11-29T10:09:46Z</time>
      </trkpt>
      <trkpt lat="43.55177" lon="1.12156">
        <ele>238.1</ele>
        <time>2020-11-29T10:09:47Z</time>
      </trkpt>
      <trkpt lat="43.55178" lon="1.1215">
        <ele>238.1</ele>
        <time>2020-11-29T10:09:48Z</time>
      </trkpt>
      <trkpt lat="43.55178" lon="1.12145">
        <ele>238.1</ele>
        <time>2020-11-29T10:09:49Z</time>
      </trkpt>
      <trkpt lat="43.55179" lon="1.12139">
        <ele>238</ele>
        <time>2020-11-29T10:09:50Z</time>
      </trkpt>
      <trkpt lat="43.5518" lon="1.12133">
        <ele>238</ele>
        <time>2020-11-29T10:09:51Z</time>
      </trkpt>
      <trkpt lat="43.55181" lon="1.12128">
        <ele>238</ele>
        <time>2020-11-29T10:09:52Z</time>
      </trkpt>
      <trkpt lat="43.55182" lon="1.12123">
        <ele>237.9</ele>
        <time>2020-11-29T10:09:53Z</time>
      </trkpt>
      <trkpt lat="43.55182" lon="1.12121">
        <ele>237.9</ele>
        <time>2020-11-29T10:09:54Z</time>
      </trkpt>
      <trkpt lat="43.55183" lon="1.12119">
        <ele>237.9</ele>
        <time>2020-11-29T10:09:55Z</time>
      </trkpt>
      <trkpt lat="43.55184" lon="1.12118">
        <ele>237.9</ele>
        <time>2020-11-29T10:09:56Z</time>
      </trkpt>
      <trkpt lat="43.55186" lon="1.12118">
        <ele>238.4</ele>
        <time>2020-11-29T10:09:57Z</time>
      </trkpt>
      <trkpt lat="43.55188" lon="1.12119">
        <ele>238.5</ele>
        <time>2020-11-29T10:09:58Z</time>
      </trkpt>
      <trkpt lat="43.55189" lon="1.1212">
        <ele>239</ele>
        <time>2020-11-29T10:09:59Z</time>
      </trkpt>
      <trkpt lat="43.55193" lon="1.12122">
        <ele>239.7</ele>
        <time>2020-11-29T10:10:00Z</time>
      </trkpt>
      <trkpt lat="43.55197" lon="1.12123">
        <ele>240.2</ele>
        <time>2020-11-29T10:10:01Z</time>
      </trkpt>
      <trkpt lat="43.55201" lon="1.12123">
        <ele>241.2</ele>
        <time>2020-11-29T10:10:02Z</time>
      </trkpt>
      <trkpt lat="43.55205" lon="1.12125">
        <ele>241.6</ele>
        <time>2020-11-29T10:10:03Z</time>
      </trkpt>
      <trkpt lat="43.55206" lon="1.12125">
        <ele>241.8</ele>
        <time>2020-11-29T10:10:04Z</time>
      </trkpt>
      <trkpt lat="43.5521" lon="1.12126">
        <ele>242.6</ele>
        <time>2020-11-29T10:10:05Z</time>
      </trkpt>
      <trkpt lat="43.55213" lon="1.12127">
        <ele>243</ele>
        <time>2020-11-29T10:10:06Z</time>
      </trkpt>
      <trkpt lat="43.55216" lon="1.12127">
        <ele>243.4</ele>
        <time>2020-11-29T10:10:07Z</time>
      </trkpt>
      <trkpt lat="43.5522" lon="1.12127">
        <ele>243.8</ele>
        <time>2020-11-29T10:10:08Z</time>
      </trkpt>
      <trkpt lat="43.55223" lon="1.12129">
        <ele>244.2</ele>
        <time>2020-11-29T10:10:09Z</time>
      </trkpt>
      <trkpt lat="43.55227" lon="1.12132">
        <ele>244.7</ele>
        <time>2020-11-29T10:10:10Z</time>
      </trkpt>
      <trkpt lat="43.55231" lon="1.12134">
        <ele>245.1</ele>
        <time>2020-11-29T10:10:11Z</time>
      </trkpt>
      <trkpt lat="43.55234" lon="1.12135">
        <ele>245.5</ele>
        <time>2020-11-29T10:10:12Z</time>
      </trkpt>
      <trkpt lat="43.55237" lon="1.12136">
        <ele>245.8</ele>
        <time>2020-11-29T10:10:13Z</time>
      </trkpt>
      <trkpt lat="43.5524" lon="1.12136">
        <ele>246.2</ele>
        <time>2020-11-29T10:10:14Z</time>
      </trkpt>
      <trkpt lat="43.55244" lon="1.12137">
        <ele>246.8</ele>
        <time>2020-11-29T10:10:15Z</time>
      </trkpt>
      <trkpt lat="43.55248" lon="1.12138">
        <ele>247.3</ele>
        <time>2020-11-29T10:10:16Z</time>
      </trkpt>
      <trkpt lat="43.55251" lon="1.12137">
        <ele>247.6</ele>
        <time>2020-11-29T10:10:17Z</time>
      </trkpt>
      <trkpt lat="43.55252" lon="1.12137">
        <ele>247.7</ele>
        <time>2020-11-29T10:10:18Z</time>
      </trkpt>
      <trkpt lat="43.55256" lon="1.12139">
        <ele>248.5</ele>
        <time>2020-11-29T10:10:19Z</time>
      </trkpt>
      <trkpt lat="43.55259" lon="1.12139">
        <ele>248.5</ele>
        <time>2020-11-29T10:10:20Z</time>
      </trkpt>
      <trkpt lat="43.55262" lon="1.12141">
        <ele>248.9</ele>
        <time>2020-11-29T10:10:21Z</time>
      </trkpt>
      <trkpt lat="43.55266" lon="1.12142">
        <ele>249.5</ele>
        <time>2020-11-29T10:10:22Z</time>
      </trkpt>
      <trkpt lat="43.55267" lon="1.12143">
        <ele>249.6</ele>
        <time>2020-11-29T10:10:23Z</time>
      </trkpt>
      <trkpt lat="43.55269" lon="1.12146">
        <ele>249.9</ele>
        <time>2020-11-29T10:10:24Z</time>
      </trkpt>
      <trkpt lat="43.55272" lon="1.12148">
        <ele>250.4</ele>
        <time>2020-11-29T10:10:25Z</time>
      </trkpt>
      <trkpt lat="43.55275" lon="1.12151">
        <ele>250.9</ele>
        <time>2020-11-29T10:10:26Z</time>
      </trkpt>
      <trkpt lat="43.55276" lon="1.12152">
        <ele>251</ele>
        <time>2020-11-29T10:10:27Z</time>
      </trkpt>
      <trkpt lat="43.55279" lon="1.12153">
        <ele>251.5</ele>
        <time>2020-11-29T10:10:28Z</time>
      </trkpt>
      <trkpt lat="43.5528" lon="1.12153">
        <ele>251.5</ele>
        <time>2020-11-29T10:10:29Z</time>
      </trkpt>
      <trkpt lat="43.55284" lon="1.12153">
        <ele>252</ele>
        <time>2020-11-29T10:10:30Z</time>
      </trkpt>
      <trkpt lat="43.55285" lon="1.12153">
        <ele>252.4</ele>
        <time>2020-11-29T10:10:31Z</time>
      </trkpt>
      <trkpt lat="43.55288" lon="1.12151">
        <ele>252.9</ele>
        <time>2020-11-29T10:10:32Z</time>
      </trkpt>
      <trkpt lat="43.55289" lon="1.1215">
        <ele>252.7</ele>
        <time>2020-11-29T10:10:33Z</time>
      </trkpt>
      <trkpt lat="43.55292" lon="1.12147">
        <ele>253.2</ele>
        <time>2020-11-29T10:10:34Z</time>
      </trkpt>
      <trkpt lat="43.55292" lon="1.12145">
        <ele>253</ele>
        <time>2020-11-29T10:10:35Z</time>
      </trkpt>
      <trkpt lat="43.55295" lon="1.12142">
        <ele>253.3</ele>
        <time>2020-11-29T10:10:36Z</time>
      </trkpt>
      <trkpt lat="43.55295" lon="1.12141">
        <ele>253.4</ele>
        <time>2020-11-29T10:10:37Z</time>
      </trkpt>
      <trkpt lat="43.55297" lon="1.12137">
        <ele>253.7</ele>
        <time>2020-11-29T10:10:38Z</time>
      </trkpt>
      <trkpt lat="43.55298" lon="1.12136">
        <ele>253.8</ele>
        <time>2020-11-29T10:10:39Z</time>
      </trkpt>
      <trkpt lat="43.55299" lon="1.12133">
        <ele>253.7</ele>
        <time>2020-11-29T10:10:40Z</time>
      </trkpt>
      <trkpt lat="43.55299" lon="1.12132">
        <ele>253.7</ele>
        <time>2020-11-29T10:10:41Z</time>
      </trkpt>
      <trkpt lat="43.55301" lon="1.12129">
        <ele>254.2</ele>
        <time>2020-11-29T10:10:42Z</time>
      </trkpt>
      <trkpt lat="43.55302" lon="1.12127">
        <ele>254.2</ele>
        <time>2020-11-29T10:10:43Z</time>
      </trkpt>
      <trkpt lat="43.55303" lon="1.12124">
        <ele>254.7</ele>
        <time>2020-11-29T10:10:44Z</time>
      </trkpt>
      <trkpt lat="43.55306" lon="1.12119">
        <ele>254.6</ele>
        <time>2020-11-29T10:10:45Z</time>
      </trkpt>
      <trkpt lat="43.55307" lon="1.12117">
        <ele>255.3</ele>
        <time>2020-11-29T10:10:46Z</time>
      </trkpt>
      <trkpt lat="43.55308" lon="1.12114">
        <ele>255.2</ele>
        <time>2020-11-29T10:10:47Z</time>
      </trkpt>
      <trkpt lat="43.5531" lon="1.1211">
        <ele>255.7</ele>
        <time>2020-11-29T10:10:48Z</time>
      </trkpt>
      <trkpt lat="43.55311" lon="1.12106">
        <ele>255.6</ele>
        <time>2020-11-29T10:10:49Z</time>
      </trkpt>
      <trkpt lat="43.55312" lon="1.12104">
        <ele>256.2</ele>
        <time>2020-11-29T10:10:50Z</time>
      </trkpt>
      <trkpt lat="43.55313" lon="1.12102">
        <ele>256.1</ele>
        <time>2020-11-29T10:10:51Z</time>
      </trkpt>
      <trkpt lat="43.55313" lon="1.121">
        <ele>256.1</ele>
        <time>2020-11-29T10:10:52Z</time>
      </trkpt>
      <trkpt lat="43.55313" lon="1.12097">
        <ele>256</ele>
        <time>2020-11-29T10:10:53Z</time>
      </trkpt>
      <trkpt lat="43.55312" lon="1.12092">
        <ele>255.9</ele>
        <time>2020-11-29T10:10:54Z</time>
      </trkpt>
      <trkpt lat="43.55312" lon="1.1209">
        <ele>255.4</ele>
        <time>2020-11-29T10:10:55Z</time>
      </trkpt>
      <trkpt lat="43.55312" lon="1.12085">
        <ele>255.8</ele>
        <time>2020-11-29T10:10:56Z</time>
      </trkpt>
      <trkpt lat="43.55312" lon="1.12084">
        <ele>255.8</ele>
        <time>2020-11-29T10:10:57Z</time>
      </trkpt>
      <trkpt lat="43.55313" lon="1.12079">
        <ele>255.7</ele>
        <time>2020-11-29T10:10:58Z</time>
      </trkpt>
      <trkpt lat="43.55314" lon="1.12075">
        <ele>255.6</ele>
        <time>2020-11-29T10:10:59Z</time>
      </trkpt>
      <trkpt lat="43.55315" lon="1.12072">
        <ele>256</ele>
        <time>2020-11-29T10:11:00Z</time>
      </trkpt>
      <trkpt lat="43.55317" lon="1.12069">
        <ele>255.9</ele>
        <time>2020-11-29T10:11:01Z</time>
      </trkpt>
      <trkpt lat="43.55318" lon="1.12065">
        <ele>256.4</ele>
        <time>2020-11-29T10:11:02Z</time>
      </trkpt>
      <trkpt lat="43.55319" lon="1.12061">
        <ele>256.3</ele>
        <time>2020-11-29T10:11:03Z</time>
      </trkpt>
      <trkpt lat="43.55321" lon="1.12057">
        <ele>256.1</ele>
        <time>2020-11-29T10:11:04Z</time>
      </trkpt>
      <trkpt lat="43.55321" lon="1.12056">
        <ele>256</ele>
        <time>2020-11-29T10:11:05Z</time>
      </trkpt>
      <trkpt lat="43.55322" lon="1.12053">
        <ele>256.5</ele>
        <time>2020-11-29T10:11:06Z</time>
      </trkpt>
      <trkpt lat="43.55322" lon="1.12052">
        <ele>256.4</ele>
        <time>2020-11-29T10:11:07Z</time>
      </trkpt>
      <trkpt lat="43.55322" lon="1.1205">
        <ele>256.4</ele>
        <time>2020-11-29T10:11:08Z</time>
      </trkpt>
      <trkpt lat="43.55322" lon="1.12048">
        <ele>256.5</ele>
        <time>2020-11-29T10:11:09Z</time>
      </trkpt>
      <trkpt lat="43.55324" lon="1.12045">
        <ele>256.4</ele>
        <time>2020-11-29T10:11:10Z</time>
      </trkpt>
      <trkpt lat="43.55324" lon="1.12042">
        <ele>256.2</ele>
        <time>2020-11-29T10:11:11Z</time>
      </trkpt>
      <trkpt lat="43.55324" lon="1.1204">
        <ele>256.3</ele>
        <time>2020-11-29T10:11:12Z</time>
      </trkpt>
      <trkpt lat="43.55324" lon="1.12036">
        <ele>256.1</ele>
        <time>2020-11-29T10:11:13Z</time>
      </trkpt>
      <trkpt lat="43.55324" lon="1.12034">
        <ele>255.9</ele>
        <time>2020-11-29T10:11:14Z</time>
      </trkpt>
      <trkpt lat="43.55324" lon="1.1203">
        <ele>255.7</ele>
        <time>2020-11-29T10:11:15Z</time>
      </trkpt>
      <trkpt lat="43.55324" lon="1.12028">
        <ele>255.8</ele>
        <time>2020-11-29T10:11:16Z</time>
      </trkpt>
      <trkpt lat="43.55325" lon="1.12023">
        <ele>256</ele>
        <time>2020-11-29T10:11:17Z</time>
      </trkpt>
      <trkpt lat="43.55326" lon="1.12019">
        <ele>255.8</ele>
        <time>2020-11-29T10:11:18Z</time>
      </trkpt>
      <trkpt lat="43.55327" lon="1.12018">
        <ele>255.9</ele>
        <time>2020-11-29T10:11:19Z</time>
      </trkpt>
      <trkpt lat="43.55328" lon="1.12014">
        <ele>256.2</ele>
        <time>2020-11-29T10:11:20Z</time>
      </trkpt>
      <trkpt lat="43.55329" lon="1.12012">
        <ele>256</ele>
        <time>2020-11-29T10:11:21Z</time>
      </trkpt>
      <trkpt lat="43.5533" lon="1.12007">
        <ele>255.9</ele>
        <time>2020-11-29T10:11:22Z</time>
      </trkpt>
      <trkpt lat="43.5533" lon="1.12006">
        <ele>255.9</ele>
        <time>2020-11-29T10:11:23Z</time>
      </trkpt>
      <trkpt lat="43.55332" lon="1.12003">
        <ele>256.3</ele>
        <time>2020-11-29T10:11:24Z</time>
      </trkpt>
      <trkpt lat="43.55333" lon="1.11999">
        <ele>256.2</ele>
        <time>2020-11-29T10:11:25Z</time>
      </trkpt>
      <trkpt lat="43.55334" lon="1.11995">
        <ele>256.7</ele>
        <time>2020-11-29T10:11:26Z</time>
      </trkpt>
      <trkpt lat="43.55335" lon="1.11991">
        <ele>256.6</ele>
        <time>2020-11-29T10:11:27Z</time>
      </trkpt>
      <trkpt lat="43.55336" lon="1.11987">
        <ele>256.6</ele>
        <time>2020-11-29T10:11:28Z</time>
      </trkpt>
      <trkpt lat="43.55338" lon="1.11983">
        <ele>257</ele>
        <time>2020-11-29T10:11:29Z</time>
      </trkpt>
      <trkpt lat="43.55339" lon="1.11978">
        <ele>256.9</ele>
        <time>2020-11-29T10:11:30Z</time>
      </trkpt>
      <trkpt lat="43.55341" lon="1.11972">
        <ele>257.4</ele>
        <time>2020-11-29T10:11:31Z</time>
      </trkpt>
      <trkpt lat="43.55342" lon="1.11967">
        <ele>257.3</ele>
        <time>2020-11-29T10:11:32Z</time>
      </trkpt>
      <trkpt lat="43.55343" lon="1.11962">
        <ele>257.2</ele>
        <time>2020-11-29T10:11:33Z</time>
      </trkpt>
      <trkpt lat="43.55344" lon="1.11958">
        <ele>257.6</ele>
        <time>2020-11-29T10:11:34Z</time>
      </trkpt>
      <trkpt lat="43.55344" lon="1.11953">
        <ele>257.5</ele>
        <time>2020-11-29T10:11:35Z</time>
      </trkpt>
      <trkpt lat="43.55346" lon="1.11949">
        <ele>257.4</ele>
        <time>2020-11-29T10:11:36Z</time>
      </trkpt>
      <trkpt lat="43.55347" lon="1.11943">
        <ele>257.9</ele>
        <time>2020-11-29T10:11:37Z</time>
      </trkpt>
      <trkpt lat="43.55348" lon="1.11941">
        <ele>257.9</ele>
        <time>2020-11-29T10:11:38Z</time>
      </trkpt>
      <trkpt lat="43.55349" lon="1.11937">
        <ele>257.9</ele>
        <time>2020-11-29T10:11:39Z</time>
      </trkpt>
      <trkpt lat="43.55349" lon="1.11933">
        <ele>257.9</ele>
        <time>2020-11-29T10:11:40Z</time>
      </trkpt>
      <trkpt lat="43.55349" lon="1.11929">
        <ele>257.9</ele>
        <time>2020-11-29T10:11:41Z</time>
      </trkpt>
      <trkpt lat="43.55348" lon="1.11928">
        <ele>258</ele>
        <time>2020-11-29T10:11:42Z</time>
      </trkpt>
      <trkpt lat="43.55348" lon="1.11924">
        <ele>258</ele>
        <time>2020-11-29T10:11:43Z</time>
      </trkpt>
      <trkpt lat="43.55348" lon="1.1192">
        <ele>258</ele>
        <time>2020-11-29T10:11:44Z</time>
      </trkpt>
      <trkpt lat="43.55348" lon="1.11915">
        <ele>258.1</ele>
        <time>2020-11-29T10:11:45Z</time>
      </trkpt>
      <trkpt lat="43.55348" lon="1.11911">
        <ele>258.1</ele>
        <time>2020-11-29T10:11:46Z</time>
      </trkpt>
      <trkpt lat="43.55349" lon="1.11906">
        <ele>258.3</ele>
        <time>2020-11-29T10:11:47Z</time>
      </trkpt>
      <trkpt lat="43.55349" lon="1.11905">
        <ele>258.3</ele>
        <time>2020-11-29T10:11:48Z</time>
      </trkpt>
      <trkpt lat="43.55349" lon="1.11902">
        <ele>258.4</ele>
        <time>2020-11-29T10:11:49Z</time>
      </trkpt>
      <trkpt lat="43.55349" lon="1.119">
        <ele>258.5</ele>
        <time>2020-11-29T10:11:50Z</time>
      </trkpt>
      <trkpt lat="43.5535" lon="1.11897">
        <ele>259</ele>
        <time>2020-11-29T10:11:51Z</time>
      </trkpt>
      <trkpt lat="43.55351" lon="1.11896">
        <ele>259.1</ele>
        <time>2020-11-29T10:11:52Z</time>
      </trkpt>
      <trkpt lat="43.55353" lon="1.11893">
        <ele>259.6</ele>
        <time>2020-11-29T10:11:53Z</time>
      </trkpt>
      <trkpt lat="43.55354" lon="1.11892">
        <ele>259.7</ele>
        <time>2020-11-29T10:11:54Z</time>
      </trkpt>
      <trkpt lat="43.55355" lon="1.11892">
        <ele>259.7</ele>
        <time>2020-11-29T10:11:55Z</time>
      </trkpt>
      <trkpt lat="43.55357" lon="1.11892">
        <ele>260.3</ele>
        <time>2020-11-29T10:11:56Z</time>
      </trkpt>
      <trkpt lat="43.55359" lon="1.11889">
        <ele>260.9</ele>
        <time>2020-11-29T10:11:57Z</time>
      </trkpt>
      <trkpt lat="43.5536" lon="1.11888">
        <ele>261</ele>
        <time>2020-11-29T10:11:58Z</time>
      </trkpt>
      <trkpt lat="43.55363" lon="1.11887">
        <ele>261.6</ele>
        <time>2020-11-29T10:11:59Z</time>
      </trkpt>
      <trkpt lat="43.55366" lon="1.11884">
        <ele>262.2</ele>
        <time>2020-11-29T10:12:00Z</time>
      </trkpt>
      <trkpt lat="43.55367" lon="1.11884">
        <ele>262.3</ele>
        <time>2020-11-29T10:12:01Z</time>
      </trkpt>
      <trkpt lat="43.5537" lon="1.11882">
        <ele>262.9</ele>
        <time>2020-11-29T10:12:02Z</time>
      </trkpt>
      <trkpt lat="43.55373" lon="1.11882">
        <ele>263.5</ele>
        <time>2020-11-29T10:12:03Z</time>
      </trkpt>
      <trkpt lat="43.55374" lon="1.11882">
        <ele>263.5</ele>
        <time>2020-11-29T10:12:04Z</time>
      </trkpt>
      <trkpt lat="43.55377" lon="1.11884">
        <ele>264.1</ele>
        <time>2020-11-29T10:12:05Z</time>
      </trkpt>
      <trkpt lat="43.55378" lon="1.11884">
        <ele>264.7</ele>
        <time>2020-11-29T10:12:06Z</time>
      </trkpt>
      <trkpt lat="43.55381" lon="1.11885">
        <ele>265.2</ele>
        <time>2020-11-29T10:12:07Z</time>
      </trkpt>
      <trkpt lat="43.55384" lon="1.11886">
        <ele>265.8</ele>
        <time>2020-11-29T10:12:08Z</time>
      </trkpt>
      <trkpt lat="43.55385" lon="1.11887">
        <ele>265.9</ele>
        <time>2020-11-29T10:12:09Z</time>
      </trkpt>
      <trkpt lat="43.55388" lon="1.11887">
        <ele>266.5</ele>
        <time>2020-11-29T10:12:10Z</time>
      </trkpt>
      <trkpt lat="43.55389" lon="1.11888">
        <ele>266.6</ele>
        <time>2020-11-29T10:12:11Z</time>
      </trkpt>
      <trkpt lat="43.55392" lon="1.11889">
        <ele>267.2</ele>
        <time>2020-11-29T10:12:12Z</time>
      </trkpt>
      <trkpt lat="43.55393" lon="1.11889">
        <ele>267.8</ele>
        <time>2020-11-29T10:12:13Z</time>
      </trkpt>
      <trkpt lat="43.55396" lon="1.11888">
        <ele>267.8</ele>
        <time>2020-11-29T10:12:14Z</time>
      </trkpt>
      <trkpt lat="43.55397" lon="1.11887">
        <ele>268.4</ele>
        <time>2020-11-29T10:12:15Z</time>
      </trkpt>
      <trkpt lat="43.554" lon="1.11887">
        <ele>268.9</ele>
        <time>2020-11-29T10:12:16Z</time>
      </trkpt>
      <trkpt lat="43.55401" lon="1.11887">
        <ele>268.9</ele>
        <time>2020-11-29T10:12:17Z</time>
      </trkpt>
      <trkpt lat="43.55405" lon="1.11887">
        <ele>269.4</ele>
        <time>2020-11-29T10:12:18Z</time>
      </trkpt>
      <trkpt lat="43.55406" lon="1.11887">
        <ele>269.8</ele>
        <time>2020-11-29T10:12:19Z</time>
      </trkpt>
      <trkpt lat="43.55409" lon="1.11887">
        <ele>270.3</ele>
        <time>2020-11-29T10:12:20Z</time>
      </trkpt>
      <trkpt lat="43.55409" lon="1.11886">
        <ele>270.3</ele>
        <time>2020-11-29T10:12:21Z</time>
      </trkpt>
      <trkpt lat="43.55412" lon="1.11883">
        <ele>270.7</ele>
        <time>2020-11-29T10:12:22Z</time>
      </trkpt>
      <trkpt lat="43.55415" lon="1.11881">
        <ele>271.2</ele>
        <time>2020-11-29T10:12:23Z</time>
      </trkpt>
      <trkpt lat="43.55418" lon="1.1188">
        <ele>271.6</ele>
        <time>2020-11-29T10:12:24Z</time>
      </trkpt>
      <trkpt lat="43.5542" lon="1.11881">
        <ele>271.7</ele>
        <time>2020-11-29T10:12:25Z</time>
      </trkpt>
      <trkpt lat="43.55423" lon="1.11881">
        <ele>272.1</ele>
        <time>2020-11-29T10:12:26Z</time>
      </trkpt>
      <trkpt lat="43.55425" lon="1.11881">
        <ele>272.5</ele>
        <time>2020-11-29T10:12:27Z</time>
      </trkpt>
      <trkpt lat="43.55427" lon="1.11881">
        <ele>272.5</ele>
        <time>2020-11-29T10:12:28Z</time>
      </trkpt>
      <trkpt lat="43.55429" lon="1.11879">
        <ele>272.8</ele>
        <time>2020-11-29T10:12:29Z</time>
      </trkpt>
      <trkpt lat="43.55433" lon="1.1188">
        <ele>273.1</ele>
        <time>2020-11-29T10:12:30Z</time>
      </trkpt>
      <trkpt lat="43.55434" lon="1.1188">
        <ele>273.4</ele>
        <time>2020-11-29T10:12:31Z</time>
      </trkpt>
      <trkpt lat="43.55437" lon="1.11882">
        <ele>273.8</ele>
        <time>2020-11-29T10:12:32Z</time>
      </trkpt>
      <trkpt lat="43.5544" lon="1.11883">
        <ele>274.1</ele>
        <time>2020-11-29T10:12:33Z</time>
      </trkpt>
      <trkpt lat="43.55441" lon="1.11883">
        <ele>274.1</ele>
        <time>2020-11-29T10:12:34Z</time>
      </trkpt>
      <trkpt lat="43.55444" lon="1.11885">
        <ele>274.4</ele>
        <time>2020-11-29T10:12:35Z</time>
      </trkpt>
      <trkpt lat="43.55445" lon="1.11885">
        <ele>274.5</ele>
        <time>2020-11-29T10:12:36Z</time>
      </trkpt>
      <trkpt lat="43.55448" lon="1.11885">
        <ele>274.8</ele>
        <time>2020-11-29T10:12:37Z</time>
      </trkpt>
      <trkpt lat="43.55449" lon="1.11885">
        <ele>274.9</ele>
        <time>2020-11-29T10:12:38Z</time>
      </trkpt>
      <trkpt lat="43.55452" lon="1.11884">
        <ele>275.1</ele>
        <time>2020-11-29T10:12:39Z</time>
      </trkpt>
      <trkpt lat="43.55453" lon="1.11884">
        <ele>275.4</ele>
        <time>2020-11-29T10:12:40Z</time>
      </trkpt>
      <trkpt lat="43.55454" lon="1.11883">
        <ele>275.4</ele>
        <time>2020-11-29T10:12:41Z</time>
      </trkpt>
      <trkpt lat="43.55455" lon="1.11883">
        <ele>275.5</ele>
        <time>2020-11-29T10:12:42Z</time>
      </trkpt>
      <trkpt lat="43.55456" lon="1.11883">
        <ele>275.7</ele>
        <time>2020-11-29T10:12:43Z</time>
      </trkpt>
      <trkpt lat="43.55457" lon="1.11882">
        <ele>275.8</ele>
        <time>2020-11-29T10:12:44Z</time>
      </trkpt>
      <trkpt lat="43.55459" lon="1.11881">
        <ele>276.1</ele>
        <time>2020-11-29T10:12:45Z</time>
      </trkpt>
      <trkpt lat="43.55462" lon="1.11879">
        <ele>276.3</ele>
        <time>2020-11-29T10:12:46Z</time>
      </trkpt>
      <trkpt lat="43.55463" lon="1.11878">
        <ele>276.3</ele>
        <time>2020-11-29T10:12:47Z</time>
      </trkpt>
      <trkpt lat="43.55466" lon="1.11875">
        <ele>276.6</ele>
        <time>2020-11-29T10:12:48Z</time>
      </trkpt>
      <trkpt lat="43.55466" lon="1.11874">
        <ele>276.6</ele>
        <time>2020-11-29T10:12:49Z</time>
      </trkpt>
      <trkpt lat="43.55467" lon="1.11872">
        <ele>276.7</ele>
        <time>2020-11-29T10:12:50Z</time>
      </trkpt>
      <trkpt lat="43.55469" lon="1.11872">
        <ele>276.9</ele>
        <time>2020-11-29T10:12:51Z</time>
      </trkpt>
      <trkpt lat="43.55471" lon="1.11872">
        <ele>277.2</ele>
        <time>2020-11-29T10:12:52Z</time>
      </trkpt>
      <trkpt lat="43.55472" lon="1.11872">
        <ele>277.3</ele>
        <time>2020-11-29T10:12:53Z</time>
      </trkpt>
      <trkpt lat="43.55475" lon="1.11871">
        <ele>277.6</ele>
        <time>2020-11-29T10:12:54Z</time>
      </trkpt>
      <trkpt lat="43.55476" lon="1.1187">
        <ele>277.6</ele>
        <time>2020-11-29T10:12:55Z</time>
      </trkpt>
      <trkpt lat="43.55479" lon="1.11868">
        <ele>277.9</ele>
        <time>2020-11-29T10:12:56Z</time>
      </trkpt>
      <trkpt lat="43.55481" lon="1.11867">
        <ele>278.1</ele>
        <time>2020-11-29T10:12:57Z</time>
      </trkpt>
      <trkpt lat="43.55482" lon="1.11866">
        <ele>278.1</ele>
        <time>2020-11-29T10:12:58Z</time>
      </trkpt>
      <trkpt lat="43.55485" lon="1.11863">
        <ele>278.4</ele>
        <time>2020-11-29T10:12:59Z</time>
      </trkpt>
      <trkpt lat="43.55487" lon="1.11859">
        <ele>278.5</ele>
        <time>2020-11-29T10:13:00Z</time>
      </trkpt>
      <trkpt lat="43.55489" lon="1.11855">
        <ele>278.6</ele>
        <time>2020-11-29T10:13:01Z</time>
      </trkpt>
      <trkpt lat="43.5549" lon="1.11851">
        <ele>278.7</ele>
        <time>2020-11-29T10:13:02Z</time>
      </trkpt>
      <trkpt lat="43.55491" lon="1.11847">
        <ele>278.8</ele>
        <time>2020-11-29T10:13:03Z</time>
      </trkpt>
      <trkpt lat="43.55493" lon="1.11844">
        <ele>278.8</ele>
        <time>2020-11-29T10:13:04Z</time>
      </trkpt>
      <trkpt lat="43.55494" lon="1.11838">
        <ele>278.9</ele>
        <time>2020-11-29T10:13:05Z</time>
      </trkpt>
      <trkpt lat="43.55495" lon="1.11833">
        <ele>278.9</ele>
        <time>2020-11-29T10:13:06Z</time>
      </trkpt>
      <trkpt lat="43.55496" lon="1.11829">
        <ele>278.9</ele>
        <time>2020-11-29T10:13:07Z</time>
      </trkpt>
      <trkpt lat="43.55498" lon="1.11822">
        <ele>278.9</ele>
        <time>2020-11-29T10:13:08Z</time>
      </trkpt>
      <trkpt lat="43.55499" lon="1.11817">
        <ele>278.8</ele>
        <time>2020-11-29T10:13:09Z</time>
      </trkpt>
      <trkpt lat="43.555" lon="1.11812">
        <ele>278.8</ele>
        <time>2020-11-29T10:13:10Z</time>
      </trkpt>
      <trkpt lat="43.55501" lon="1.11807">
        <ele>278.7</ele>
        <time>2020-11-29T10:13:11Z</time>
      </trkpt>
      <trkpt lat="43.55503" lon="1.11803">
        <ele>278.7</ele>
        <time>2020-11-29T10:13:12Z</time>
      </trkpt>
      <trkpt lat="43.55507" lon="1.11802">
        <ele>278.6</ele>
        <time>2020-11-29T10:13:13Z</time>
      </trkpt>
      <trkpt lat="43.55509" lon="1.11802">
        <ele>278.5</ele>
        <time>2020-11-29T10:13:14Z</time>
      </trkpt>
      <trkpt lat="43.55513" lon="1.11806">
        <ele>278.4</ele>
        <time>2020-11-29T10:13:15Z</time>
      </trkpt>
      <trkpt lat="43.55516" lon="1.11807">
        <ele>278.3</ele>
        <time>2020-11-29T10:13:16Z</time>
      </trkpt>
      <trkpt lat="43.55521" lon="1.1181">
        <ele>278.1</ele>
        <time>2020-11-29T10:13:17Z</time>
      </trkpt>
      <trkpt lat="43.55526" lon="1.11812">
        <ele>277.8</ele>
        <time>2020-11-29T10:13:18Z</time>
      </trkpt>
      <trkpt lat="43.55533" lon="1.11815">
        <ele>277.4</ele>
        <time>2020-11-29T10:13:19Z</time>
      </trkpt>
      <trkpt lat="43.55538" lon="1.11818">
        <ele>277.1</ele>
        <time>2020-11-29T10:13:20Z</time>
      </trkpt>
      <trkpt lat="43.55544" lon="1.11821">
        <ele>276.8</ele>
        <time>2020-11-29T10:13:21Z</time>
      </trkpt>
      <trkpt lat="43.55551" lon="1.11824">
        <ele>276.4</ele>
        <time>2020-11-29T10:13:22Z</time>
      </trkpt>
      <trkpt lat="43.55558" lon="1.11827">
        <ele>276.1</ele>
        <time>2020-11-29T10:13:23Z</time>
      </trkpt>
      <trkpt lat="43.55565" lon="1.11829">
        <ele>275.9</ele>
        <time>2020-11-29T10:13:24Z</time>
      </trkpt>
      <trkpt lat="43.55572" lon="1.11831">
        <ele>275.8</ele>
        <time>2020-11-29T10:13:25Z</time>
      </trkpt>
      <trkpt lat="43.55575" lon="1.11832">
        <ele>275.8</ele>
        <time>2020-11-29T10:13:26Z</time>
      </trkpt>
      <trkpt lat="43.55578" lon="1.11834">
        <ele>275.8</ele>
        <time>2020-11-29T10:13:27Z</time>
      </trkpt>
      <trkpt lat="43.55581" lon="1.11835">
        <ele>275.9</ele>
        <time>2020-11-29T10:13:28Z</time>
      </trkpt>
      <trkpt lat="43.55586" lon="1.11837">
        <ele>276</ele>
        <time>2020-11-29T10:13:29Z</time>
      </trkpt>
      <trkpt lat="43.5559" lon="1.11837">
        <ele>276.1</ele>
        <time>2020-11-29T10:13:30Z</time>
      </trkpt>
      <trkpt lat="43.55594" lon="1.11838">
        <ele>276.3</ele>
        <time>2020-11-29T10:13:31Z</time>
      </trkpt>
      <trkpt lat="43.55597" lon="1.11838">
        <ele>276.5</ele>
        <time>2020-11-29T10:13:32Z</time>
      </trkpt>
      <trkpt lat="43.55601" lon="1.11839">
        <ele>276.6</ele>
        <time>2020-11-29T10:13:33Z</time>
      </trkpt>
      <trkpt lat="43.55603" lon="1.11838">
        <ele>276.8</ele>
        <time>2020-11-29T10:13:34Z</time>
      </trkpt>
      <trkpt lat="43.55606" lon="1.11839">
        <ele>276.9</ele>
        <time>2020-11-29T10:13:35Z</time>
      </trkpt>
      <trkpt lat="43.5561" lon="1.11839">
        <ele>277.1</ele>
        <time>2020-11-29T10:13:36Z</time>
      </trkpt>
      <trkpt lat="43.55612" lon="1.11839">
        <ele>277.1</ele>
        <time>2020-11-29T10:13:37Z</time>
      </trkpt>
      <trkpt lat="43.55615" lon="1.11839">
        <ele>277.3</ele>
        <time>2020-11-29T10:13:38Z</time>
      </trkpt>
      <trkpt lat="43.5562" lon="1.1184">
        <ele>277.4</ele>
        <time>2020-11-29T10:13:39Z</time>
      </trkpt>
      <trkpt lat="43.55626" lon="1.11842">
        <ele>277.6</ele>
        <time>2020-11-29T10:13:40Z</time>
      </trkpt>
      <trkpt lat="43.5563" lon="1.11844">
        <ele>277.8</ele>
        <time>2020-11-29T10:13:41Z</time>
      </trkpt>
      <trkpt lat="43.55634" lon="1.11845">
        <ele>277.9</ele>
        <time>2020-11-29T10:13:42Z</time>
      </trkpt>
      <trkpt lat="43.55639" lon="1.11846">
        <ele>278.1</ele>
        <time>2020-11-29T10:13:43Z</time>
      </trkpt>
      <trkpt lat="43.55645" lon="1.11847">
        <ele>278.3</ele>
        <time>2020-11-29T10:13:44Z</time>
      </trkpt>
      <trkpt lat="43.55651" lon="1.11849">
        <ele>278.5</ele>
        <time>2020-11-29T10:13:45Z</time>
      </trkpt>
      <trkpt lat="43.55655" lon="1.11849">
        <ele>278.7</ele>
        <time>2020-11-29T10:13:46Z</time>
      </trkpt>
      <trkpt lat="43.55658" lon="1.11849">
        <ele>278.8</ele>
        <time>2020-11-29T10:13:47Z</time>
      </trkpt>
      <trkpt lat="43.55661" lon="1.11849">
        <ele>279</ele>
        <time>2020-11-29T10:13:48Z</time>
      </trkpt>
      <trkpt lat="43.55665" lon="1.11849">
        <ele>279.2</ele>
        <time>2020-11-29T10:13:49Z</time>
      </trkpt>
      <trkpt lat="43.5567" lon="1.1185">
        <ele>279.5</ele>
        <time>2020-11-29T10:13:50Z</time>
      </trkpt>
      <trkpt lat="43.55674" lon="1.11851">
        <ele>279.6</ele>
        <time>2020-11-29T10:13:51Z</time>
      </trkpt>
      <trkpt lat="43.55677" lon="1.11852">
        <ele>279.8</ele>
        <time>2020-11-29T10:13:52Z</time>
      </trkpt>
      <trkpt lat="43.55681" lon="1.11853">
        <ele>280</ele>
        <time>2020-11-29T10:13:53Z</time>
      </trkpt>
      <trkpt lat="43.55683" lon="1.11853">
        <ele>280.1</ele>
        <time>2020-11-29T10:13:54Z</time>
      </trkpt>
      <trkpt lat="43.55687" lon="1.11853">
        <ele>280.3</ele>
        <time>2020-11-29T10:13:55Z</time>
      </trkpt>
      <trkpt lat="43.55692" lon="1.11853">
        <ele>280.5</ele>
        <time>2020-11-29T10:13:56Z</time>
      </trkpt>
      <trkpt lat="43.55695" lon="1.11856">
        <ele>280.6</ele>
        <time>2020-11-29T10:13:57Z</time>
      </trkpt>
      <trkpt lat="43.55698" lon="1.11858">
        <ele>280.8</ele>
        <time>2020-11-29T10:13:58Z</time>
      </trkpt>
      <trkpt lat="43.55701" lon="1.1186">
        <ele>280.9</ele>
        <time>2020-11-29T10:13:59Z</time>
      </trkpt>
      <trkpt lat="43.55704" lon="1.11862">
        <ele>281.1</ele>
        <time>2020-11-29T10:14:00Z</time>
      </trkpt>
      <trkpt lat="43.55708" lon="1.11864">
        <ele>281.3</ele>
        <time>2020-11-29T10:14:01Z</time>
      </trkpt>
      <trkpt lat="43.55711" lon="1.11864">
        <ele>281.5</ele>
        <time>2020-11-29T10:14:02Z</time>
      </trkpt>
      <trkpt lat="43.55715" lon="1.11866">
        <ele>281.8</ele>
        <time>2020-11-29T10:14:03Z</time>
      </trkpt>
      <trkpt lat="43.55719" lon="1.11868">
        <ele>282.2</ele>
        <time>2020-11-29T10:14:04Z</time>
      </trkpt>
      <trkpt lat="43.55723" lon="1.1187">
        <ele>282.5</ele>
        <time>2020-11-29T10:14:05Z</time>
      </trkpt>
      <trkpt lat="43.55726" lon="1.11871">
        <ele>282.7</ele>
        <time>2020-11-29T10:14:06Z</time>
      </trkpt>
      <trkpt lat="43.55729" lon="1.11874">
        <ele>282.9</ele>
        <time>2020-11-29T10:14:07Z</time>
      </trkpt>
      <trkpt lat="43.55731" lon="1.11876">
        <ele>283.1</ele>
        <time>2020-11-29T10:14:08Z</time>
      </trkpt>
      <trkpt lat="43.55735" lon="1.11878">
        <ele>283.4</ele>
        <time>2020-11-29T10:14:09Z</time>
      </trkpt>
      <trkpt lat="43.55738" lon="1.11881">
        <ele>283.6</ele>
        <time>2020-11-29T10:14:10Z</time>
      </trkpt>
      <trkpt lat="43.55738" lon="1.11882">
        <ele>283.7</ele>
        <time>2020-11-29T10:14:11Z</time>
      </trkpt>
      <trkpt lat="43.55739" lon="1.11884">
        <ele>283.8</ele>
        <time>2020-11-29T10:14:12Z</time>
      </trkpt>
      <trkpt lat="43.5574" lon="1.11886">
        <ele>284</ele>
        <time>2020-11-29T10:14:13Z</time>
      </trkpt>
      <trkpt lat="43.55742" lon="1.11886">
        <ele>284.1</ele>
        <time>2020-11-29T10:14:14Z</time>
      </trkpt>
      <trkpt lat="43.55743" lon="1.11887">
        <ele>284.2</ele>
        <time>2020-11-29T10:14:15Z</time>
      </trkpt>
      <trkpt lat="43.55746" lon="1.11889">
        <ele>284.5</ele>
        <time>2020-11-29T10:14:16Z</time>
      </trkpt>
      <trkpt lat="43.55747" lon="1.1189">
        <ele>284.6</ele>
        <time>2020-11-29T10:14:17Z</time>
      </trkpt>
      <trkpt lat="43.5575" lon="1.11892">
        <ele>284.9</ele>
        <time>2020-11-29T10:14:18Z</time>
      </trkpt>
      <trkpt lat="43.55751" lon="1.11892">
        <ele>285</ele>
        <time>2020-11-29T10:14:19Z</time>
      </trkpt>
      <trkpt lat="43.55753" lon="1.11895">
        <ele>285.3</ele>
        <time>2020-11-29T10:14:20Z</time>
      </trkpt>
      <trkpt lat="43.55754" lon="1.11896">
        <ele>285.4</ele>
        <time>2020-11-29T10:14:21Z</time>
      </trkpt>
      <trkpt lat="43.55756" lon="1.11897">
        <ele>285.6</ele>
        <time>2020-11-29T10:14:22Z</time>
      </trkpt>
      <trkpt lat="43.55757" lon="1.11897">
        <ele>285.8</ele>
        <time>2020-11-29T10:14:23Z</time>
      </trkpt>
      <trkpt lat="43.55759" lon="1.11898">
        <ele>285.9</ele>
        <time>2020-11-29T10:14:24Z</time>
      </trkpt>
      <trkpt lat="43.55761" lon="1.119">
        <ele>286.1</ele>
        <time>2020-11-29T10:14:25Z</time>
      </trkpt>
      <trkpt lat="43.55761" lon="1.11901">
        <ele>286.3</ele>
        <time>2020-11-29T10:14:26Z</time>
      </trkpt>
      <trkpt lat="43.55764" lon="1.11901">
        <ele>286.5</ele>
        <time>2020-11-29T10:14:27Z</time>
      </trkpt>
      <trkpt lat="43.55768" lon="1.11901">
        <ele>286.9</ele>
        <time>2020-11-29T10:14:28Z</time>
      </trkpt>
      <trkpt lat="43.55768" lon="1.11901">
        <ele>287</ele>
        <time>2020-11-29T10:14:29Z</time>
      </trkpt>
      <trkpt lat="43.55771" lon="1.11904">
        <ele>287.3</ele>
        <time>2020-11-29T10:14:30Z</time>
      </trkpt>
      <trkpt lat="43.55772" lon="1.11905">
        <ele>287.4</ele>
        <time>2020-11-29T10:14:31Z</time>
      </trkpt>
      <trkpt lat="43.55772" lon="1.11906">
        <ele>287.5</ele>
        <time>2020-11-29T10:14:32Z</time>
      </trkpt>
      <trkpt lat="43.55775" lon="1.11906">
        <ele>287.8</ele>
        <time>2020-11-29T10:14:33Z</time>
      </trkpt>
      <trkpt lat="43.55778" lon="1.11906">
        <ele>288.1</ele>
        <time>2020-11-29T10:14:34Z</time>
      </trkpt>
      <trkpt lat="43.55782" lon="1.11907">
        <ele>288.4</ele>
        <time>2020-11-29T10:14:35Z</time>
      </trkpt>
      <trkpt lat="43.55783" lon="1.11908">
        <ele>288.6</ele>
        <time>2020-11-29T10:14:36Z</time>
      </trkpt>
      <trkpt lat="43.55787" lon="1.11908">
        <ele>289</ele>
        <time>2020-11-29T10:14:37Z</time>
      </trkpt>
      <trkpt lat="43.55789" lon="1.11908">
        <ele>289.2</ele>
        <time>2020-11-29T10:14:38Z</time>
      </trkpt>
      <trkpt lat="43.5579" lon="1.11907">
        <ele>289.4</ele>
        <time>2020-11-29T10:14:39Z</time>
      </trkpt>
      <trkpt lat="43.55793" lon="1.11906">
        <ele>289.7</ele>
        <time>2020-11-29T10:14:40Z</time>
      </trkpt>
      <trkpt lat="43.55794" lon="1.11906">
        <ele>289.8</ele>
        <time>2020-11-29T10:14:41Z</time>
      </trkpt>
      <trkpt lat="43.55797" lon="1.11905">
        <ele>290.2</ele>
        <time>2020-11-29T10:14:42Z</time>
      </trkpt>
      <trkpt lat="43.55798" lon="1.11905">
        <ele>290.3</ele>
        <time>2020-11-29T10:14:43Z</time>
      </trkpt>
      <trkpt lat="43.55802" lon="1.11908">
        <ele>290.8</ele>
        <time>2020-11-29T10:14:44Z</time>
      </trkpt>
      <trkpt lat="43.55804" lon="1.11909">
        <ele>291</ele>
        <time>2020-11-29T10:14:45Z</time>
      </trkpt>
      <trkpt lat="43.55807" lon="1.1191">
        <ele>291.4</ele>
        <time>2020-11-29T10:14:46Z</time>
      </trkpt>
      <trkpt lat="43.5581" lon="1.11912">
        <ele>291.8</ele>
        <time>2020-11-29T10:14:47Z</time>
      </trkpt>
      <trkpt lat="43.55813" lon="1.11913">
        <ele>292.2</ele>
        <time>2020-11-29T10:14:48Z</time>
      </trkpt>
      <trkpt lat="43.55817" lon="1.11916">
        <ele>292.6</ele>
        <time>2020-11-29T10:14:49Z</time>
      </trkpt>
      <trkpt lat="43.55818" lon="1.11917">
        <ele>292.8</ele>
        <time>2020-11-29T10:14:50Z</time>
      </trkpt>
      <trkpt lat="43.55821" lon="1.11918">
        <ele>293.1</ele>
        <time>2020-11-29T10:14:51Z</time>
      </trkpt>
      <trkpt lat="43.55823" lon="1.1192">
        <ele>293.4</ele>
        <time>2020-11-29T10:14:52Z</time>
      </trkpt>
      <trkpt lat="43.55825" lon="1.1192">
        <ele>293.6</ele>
        <time>2020-11-29T10:14:53Z</time>
      </trkpt>
      <trkpt lat="43.55826" lon="1.11919">
        <ele>293.7</ele>
        <time>2020-11-29T10:14:54Z</time>
      </trkpt>
      <trkpt lat="43.55827" lon="1.1192">
        <ele>293.9</ele>
        <time>2020-11-29T10:14:55Z</time>
      </trkpt>
      <trkpt lat="43.5583" lon="1.11923">
        <ele>294.2</ele>
        <time>2020-11-29T10:14:56Z</time>
      </trkpt>
      <trkpt lat="43.5583" lon="1.11924">
        <ele>294.4</ele>
        <time>2020-11-29T10:14:57Z</time>
      </trkpt>
      <trkpt lat="43.55833" lon="1.11926">
        <ele>294.7</ele>
        <time>2020-11-29T10:14:58Z</time>
      </trkpt>
      <trkpt lat="43.55833" lon="1.11927">
        <ele>294.8</ele>
        <time>2020-11-29T10:14:59Z</time>
      </trkpt>
      <trkpt lat="43.55835" lon="1.11928">
        <ele>294.9</ele>
        <time>2020-11-29T10:15:00Z</time>
      </trkpt>
      <trkpt lat="43.55836" lon="1.11929">
        <ele>295</ele>
        <time>2020-11-29T10:15:01Z</time>
      </trkpt>
      <trkpt lat="43.55837" lon="1.11929">
        <ele>295.1</ele>
        <time>2020-11-29T10:15:02Z</time>
      </trkpt>
      <trkpt lat="43.55838" lon="1.11927">
        <ele>295.3</ele>
        <time>2020-11-29T10:15:03Z</time>
      </trkpt>
      <trkpt lat="43.55839" lon="1.11926">
        <ele>295.5</ele>
        <time>2020-11-29T10:15:04Z</time>
      </trkpt>
      <trkpt lat="43.5584" lon="1.11926">
        <ele>295.6</ele>
        <time>2020-11-29T10:15:05Z</time>
      </trkpt>
      <trkpt lat="43.55841" lon="1.11925">
        <ele>295.7</ele>
        <time>2020-11-29T10:15:06Z</time>
      </trkpt>
      <trkpt lat="43.55842" lon="1.11924">
        <ele>295.8</ele>
        <time>2020-11-29T10:15:07Z</time>
      </trkpt>
      <trkpt lat="43.55843" lon="1.11923">
        <ele>296</ele>
        <time>2020-11-29T10:15:08Z</time>
      </trkpt>
      <trkpt lat="43.55844" lon="1.11921">
        <ele>296.1</ele>
        <time>2020-11-29T10:15:09Z</time>
      </trkpt>
      <trkpt lat="43.55845" lon="1.11921">
        <ele>296.2</ele>
        <time>2020-11-29T10:15:10Z</time>
      </trkpt>
      <trkpt lat="43.55843" lon="1.1192">
        <ele>296.3</ele>
        <time>2020-11-29T10:15:11Z</time>
      </trkpt>
      <trkpt lat="43.55844" lon="1.11921">
        <ele>296.4</ele>
        <time>2020-11-29T10:15:12Z</time>
      </trkpt>
      <trkpt lat="43.55844" lon="1.11921">
        <ele>296.4</ele>
        <time>2020-11-29T10:15:13Z</time>
      </trkpt>
      <trkpt lat="43.55845" lon="1.11921">
        <ele>296.4</ele>
        <time>2020-11-29T10:15:14Z</time>
      </trkpt>
      <trkpt lat="43.55845" lon="1.11921">
        <ele>296.4</ele>
        <time>2020-11-29T10:15:15Z</time>
      </trkpt>
      <trkpt lat="43.55845" lon="1.11921">
        <ele>296.5</ele>
        <time>2020-11-29T10:15:16Z</time>
      </trkpt>
      <trkpt lat="43.55845" lon="1.11921">
        <ele>296.5</ele>
        <time>2020-11-29T10:15:17Z</time>
      </trkpt>
      <trkpt lat="43.55845" lon="1.11921">
        <ele>296.5</ele>
        <time>2020-11-29T10:15:18Z</time>
      </trkpt>
      <trkpt lat="43.55845" lon="1.11921">
        <ele>296.5</ele>
        <time>2020-11-29T10:15:19Z</time>
      </trkpt>
      <trkpt lat="43.55845" lon="1.11922">
        <ele>296.6</ele>
        <time>2020-11-29T10:15:20Z</time>
      </trkpt>
      <trkpt lat="43.55845" lon="1.11922">
        <ele>296.6</ele>
        <time>2020-11-29T10:15:21Z</time>
      </trkpt>
      <trkpt lat="43.55846" lon="1.11923">
        <ele>296.7</ele>
        <time>2020-11-29T10:15:22Z</time>
      </trkpt>
      <trkpt lat="43.55846" lon="1.11923">
        <ele>296.7</ele>
        <time>2020-11-29T10:15:23Z</time>
      </trkpt>
      <trkpt lat="43.55847" lon="1.11923">
        <ele>296.7</ele>
        <time>2020-11-29T10:15:24Z</time>
      </trkpt>
      <trkpt lat="43.55847" lon="1.11923">
        <ele>296.7</ele>
        <time>2020-11-29T10:15:25Z</time>
      </trkpt>
      <trkpt lat="43.55847" lon="1.11923">
        <ele>296.8</ele>
        <time>2020-11-29T10:15:26Z</time>
      </trkpt>
      <trkpt lat="43.55847" lon="1.11923">
        <ele>296.8</ele>
        <time>2020-11-29T10:15:27Z</time>
      </trkpt>
      <trkpt lat="43.55847" lon="1.11923">
        <ele>296.8</ele>
        <time>2020-11-29T10:15:28Z</time>
      </trkpt>
      <trkpt lat="43.55847" lon="1.11923">
        <ele>296.8</ele>
        <time>2020-11-29T10:15:29Z</time>
      </trkpt>
      <trkpt lat="43.55847" lon="1.11923">
        <ele>296.8</ele>
        <time>2020-11-29T10:15:30Z</time>
      </trkpt>
      <trkpt lat="43.55847" lon="1.11923">
        <ele>296.8</ele>
        <time>2020-11-29T10:15:31Z</time>
      </trkpt>
      <trkpt lat="43.55847" lon="1.11923">
        <ele>296.8</ele>
        <time>2020-11-29T10:15:32Z</time>
      </trkpt>
      <trkpt lat="43.55847" lon="1.11923">
        <ele>296.8</ele>
        <time>2020-11-29T10:15:33Z</time>
      </trkpt>
      <trkpt lat="43.55847" lon="1.11923">
        <ele>296.8</ele>
        <time>2020-11-29T10:15:34Z</time>
      </trkpt>
      <trkpt lat="43.55847" lon="1.11923">
        <ele>296.8</ele>
        <time>2020-11-29T10:15:35Z</time>
      </trkpt>
      <trkpt lat="43.55847" lon="1.11923">
        <ele>296.8</ele>
        <time>2020-11-29T10:15:36Z</time>
      </trkpt>
      <trkpt lat="43.55847" lon="1.11923">
        <ele>296.8</ele>
        <time>2020-11-29T10:15:37Z</time>
      </trkpt>
      <trkpt lat="43.55847" lon="1.11923">
        <ele>296.8</ele>
        <time>2020-11-29T10:15:38Z</time>
      </trkpt>
      <trkpt lat="43.55847" lon="1.11923">
        <ele>296.8</ele>
        <time>2020-11-29T10:15:39Z</time>
      </trkpt>
      <trkpt lat="43.55847" lon="1.11923">
        <ele>296.8</ele>
        <time>2020-11-29T10:15:40Z</time>
      </trkpt>
      <trkpt lat="43.55847" lon="1.11923">
        <ele>296.8</ele>
        <time>2020-11-29T10:15:41Z</time>
      </trkpt>
      <trkpt lat="43.55847" lon="1.11923">
        <ele>296.9</ele>
        <time>2020-11-29T10:15:42Z</time>
      </trkpt>
      <trkpt lat="43.55847" lon="1.11923">
        <ele>296.9</ele>
        <time>2020-11-29T10:15:43Z</time>
      </trkpt>
      <trkpt lat="43.55847" lon="1.11923">
        <ele>296.9</ele>
        <time>2020-11-29T10:15:44Z</time>
      </trkpt>
      <trkpt lat="43.55847" lon="1.11923">
        <ele>296.9</ele>
        <time>2020-11-29T10:15:45Z</time>
      </trkpt>
      <trkpt lat="43.55847" lon="1.11923">
        <ele>296.9</ele>
        <time>2020-11-29T10:15:46Z</time>
      </trkpt>
      <trkpt lat="43.55847" lon="1.11923">
        <ele>296.9</ele>
        <time>2020-11-29T10:15:47Z</time>
      </trkpt>
      <trkpt lat="43.55847" lon="1.11923">
        <ele>297</ele>
        <time>2020-11-29T10:15:48Z</time>
      </trkpt>
      <trkpt lat="43.55847" lon="1.11923">
        <ele>297</ele>
        <time>2020-11-29T10:15:49Z</time>
      </trkpt>
      <trkpt lat="43.55847" lon="1.11922">
        <ele>297</ele>
        <time>2020-11-29T10:15:50Z</time>
      </trkpt>
      <trkpt lat="43.55847" lon="1.11922">
        <ele>297</ele>
        <time>2020-11-29T10:15:51Z</time>
      </trkpt>
      <trkpt lat="43.55847" lon="1.11922">
        <ele>297</ele>
        <time>2020-11-29T10:15:52Z</time>
      </trkpt>
      <trkpt lat="43.55847" lon="1.11922">
        <ele>297</ele>
        <time>2020-11-29T10:15:53Z</time>
      </trkpt>
      <trkpt lat="43.55847" lon="1.11922">
        <ele>297</ele>
        <time>2020-11-29T10:15:54Z</time>
      </trkpt>
      <trkpt lat="43.55847" lon="1.11922">
        <ele>297</ele>
        <time>2020-11-29T10:15:55Z</time>
      </trkpt>
      <trkpt lat="43.55847" lon="1.11922">
        <ele>297</ele>
        <time>2020-11-29T10:15:56Z</time>
      </trkpt>
      <trkpt lat="43.55847" lon="1.11922">
        <ele>297</ele>
        <time>2020-11-29T10:15:57Z</time>
      </trkpt>
      <trkpt lat="43.55847" lon="1.11922">
        <ele>297</ele>
        <time>2020-11-29T10:15:58Z</time>
      </trkpt>
      <trkpt lat="43.55847" lon="1.11922">
        <ele>297</ele>
        <time>2020-11-29T10:15:59Z</time>
      </trkpt>
      <trkpt lat="43.55847" lon="1.11922">
        <ele>297</ele>
        <time>2020-11-29T10:16:00Z</time>
      </trkpt>
      <trkpt lat="43.55847" lon="1.11922">
        <ele>297</ele>
        <time>2020-11-29T10:16:01Z</time>
      </trkpt>
      <trkpt lat="43.55847" lon="1.11922">
        <ele>297</ele>
        <time>2020-11-29T10:16:02Z</time>
      </trkpt>
      <trkpt lat="43.55848" lon="1.11922">
        <ele>297.1</ele>
        <time>2020-11-29T10:16:03Z</time>
      </trkpt>
      <trkpt lat="43.55848" lon="1.11922">
        <ele>297.1</ele>
        <time>2020-11-29T10:16:04Z</time>
      </trkpt>
      <trkpt lat="43.55848" lon="1.11922">
        <ele>297.1</ele>
        <time>2020-11-29T10:16:05Z</time>
      </trkpt>
      <trkpt lat="43.55848" lon="1.11922">
        <ele>297.1</ele>
        <time>2020-11-29T10:16:06Z</time>
      </trkpt>
      <trkpt lat="43.55848" lon="1.11922">
        <ele>297.1</ele>
        <time>2020-11-29T10:16:07Z</time>
      </trkpt>
      <trkpt lat="43.55848" lon="1.11922">
        <ele>297.1</ele>
        <time>2020-11-29T10:16:08Z</time>
      </trkpt>
      <trkpt lat="43.55848" lon="1.11922">
        <ele>297.1</ele>
        <time>2020-11-29T10:16:09Z</time>
      </trkpt>
      <trkpt lat="43.55848" lon="1.11922">
        <ele>297.1</ele>
        <time>2020-11-29T10:16:10Z</time>
      </trkpt>
      <trkpt lat="43.55848" lon="1.11922">
        <ele>297.1</ele>
        <time>2020-11-29T10:16:11Z</time>
      </trkpt>
      <trkpt lat="43.55848" lon="1.11922">
        <ele>297.1</ele>
        <time>2020-11-29T10:16:12Z</time>
      </trkpt>
      <trkpt lat="43.55848" lon="1.1192">
        <ele>297.2</ele>
        <time>2020-11-29T10:16:13Z</time>
      </trkpt>
      <trkpt lat="43.55848" lon="1.1192">
        <ele>297.2</ele>
        <time>2020-11-29T10:16:14Z</time>
      </trkpt>
      <trkpt lat="43.55848" lon="1.1192">
        <ele>297.3</ele>
        <time>2020-11-29T10:16:15Z</time>
      </trkpt>
      <trkpt lat="43.55848" lon="1.1192">
        <ele>297.3</ele>
        <time>2020-11-29T10:16:16Z</time>
      </trkpt>
      <trkpt lat="43.55847" lon="1.1192">
        <ele>297.3</ele>
        <time>2020-11-29T10:16:17Z</time>
      </trkpt>
      <trkpt lat="43.55847" lon="1.11919">
        <ele>297.3</ele>
        <time>2020-11-29T10:16:18Z</time>
      </trkpt>
      <trkpt lat="43.55847" lon="1.11919">
        <ele>297.4</ele>
        <time>2020-11-29T10:16:19Z</time>
      </trkpt>
      <trkpt lat="43.55847" lon="1.11919">
        <ele>297.4</ele>
        <time>2020-11-29T10:16:20Z</time>
      </trkpt>
      <trkpt lat="43.55847" lon="1.1192">
        <ele>297.4</ele>
        <time>2020-11-29T10:16:21Z</time>
      </trkpt>
      <trkpt lat="43.55847" lon="1.11919">
        <ele>297.4</ele>
        <time>2020-11-29T10:16:22Z</time>
      </trkpt>
      <trkpt lat="43.55847" lon="1.11919">
        <ele>297.4</ele>
        <time>2020-11-29T10:16:23Z</time>
      </trkpt>
      <trkpt lat="43.55847" lon="1.11919">
        <ele>297.4</ele>
        <time>2020-11-29T10:16:24Z</time>
      </trkpt>
      <trkpt lat="43.55847" lon="1.11919">
        <ele>297.4</ele>
        <time>2020-11-29T10:16:25Z</time>
      </trkpt>
      <trkpt lat="43.55847" lon="1.11919">
        <ele>297.4</ele>
        <time>2020-11-29T10:16:26Z</time>
      </trkpt>
      <trkpt lat="43.55847" lon="1.11919">
        <ele>297.4</ele>
        <time>2020-11-29T10:16:27Z</time>
      </trkpt>
      <trkpt lat="43.55847" lon="1.11919">
        <ele>297.4</ele>
        <time>2020-11-29T10:16:28Z</time>
      </trkpt>
      <trkpt lat="43.55847" lon="1.11919">
        <ele>297.4</ele>
        <time>2020-11-29T10:16:29Z</time>
      </trkpt>
      <trkpt lat="43.55847" lon="1.11919">
        <ele>297.4</ele>
        <time>2020-11-29T10:16:30Z</time>
      </trkpt>
      <trkpt lat="43.55847" lon="1.11919">
        <ele>297.5</ele>
        <time>2020-11-29T10:16:31Z</time>
      </trkpt>
      <trkpt lat="43.55847" lon="1.11919">
        <ele>297.5</ele>
        <time>2020-11-29T10:16:32Z</time>
      </trkpt>
      <trkpt lat="43.55847" lon="1.11919">
        <ele>297.5</ele>
        <time>2020-11-29T10:16:33Z</time>
      </trkpt>
      <trkpt lat="43.55847" lon="1.11919">
        <ele>297.5</ele>
        <time>2020-11-29T10:16:34Z</time>
      </trkpt>
      <trkpt lat="43.55847" lon="1.11919">
        <ele>297.5</ele>
        <time>2020-11-29T10:16:35Z</time>
      </trkpt>
      <trkpt lat="43.55847" lon="1.11919">
        <ele>297.5</ele>
        <time>2020-11-29T10:16:36Z</time>
      </trkpt>
      <trkpt lat="43.55847" lon="1.11919">
        <ele>297.5</ele>
        <time>2020-11-29T10:16:37Z</time>
      </trkpt>
      <trkpt lat="43.55847" lon="1.11919">
        <ele>297.5</ele>
        <time>2020-11-29T10:16:38Z</time>
      </trkpt>
      <trkpt lat="43.55847" lon="1.11919">
        <ele>297.5</ele>
        <time>2020-11-29T10:16:39Z</time>
      </trkpt>
      <trkpt lat="43.55847" lon="1.11919">
        <ele>297.5</ele>
        <time>2020-11-29T10:16:40Z</time>
      </trkpt>
      <trkpt lat="43.55847" lon="1.11919">
        <ele>297.5</ele>
        <time>2020-11-29T10:16:41Z</time>
      </trkpt>
      <trkpt lat="43.55848" lon="1.11919">
        <ele>297.5</ele>
        <time>2020-11-29T10:16:42Z</time>
      </trkpt>
      <trkpt lat="43.55848" lon="1.11919">
        <ele>297.5</ele>
        <time>2020-11-29T10:16:43Z</time>
      </trkpt>
      <trkpt lat="43.55848" lon="1.11919">
        <ele>297.5</ele>
        <time>2020-11-29T10:16:44Z</time>
      </trkpt>
      <trkpt lat="43.55848" lon="1.11919">
        <ele>297.5</ele>
        <time>2020-11-29T10:16:45Z</time>
      </trkpt>
      <trkpt lat="43.55848" lon="1.11919">
        <ele>297.5</ele>
        <time>2020-11-29T10:16:46Z</time>
      </trkpt>
      <trkpt lat="43.55848" lon="1.11919">
        <ele>297.5</ele>
        <time>2020-11-29T10:16:47Z</time>
      </trkpt>
      <trkpt lat="43.55848" lon="1.11919">
        <ele>297.4</ele>
        <time>2020-11-29T10:16:48Z</time>
      </trkpt>
      <trkpt lat="43.55848" lon="1.11919">
        <ele>297.4</ele>
        <time>2020-11-29T10:16:49Z</time>
      </trkpt>
      <trkpt lat="43.55848" lon="1.11919">
        <ele>297.3</ele>
        <time>2020-11-29T10:16:50Z</time>
      </trkpt>
      <trkpt lat="43.55848" lon="1.11919">
        <ele>297.3</ele>
        <time>2020-11-29T10:16:51Z</time>
      </trkpt>
      <trkpt lat="43.55848" lon="1.11919">
        <ele>297.3</ele>
        <time>2020-11-29T10:16:52Z</time>
      </trkpt>
      <trkpt lat="43.55848" lon="1.11919">
        <ele>297.3</ele>
        <time>2020-11-29T10:16:53Z</time>
      </trkpt>
      <trkpt lat="43.55848" lon="1.11919">
        <ele>297.2</ele>
        <time>2020-11-29T10:16:54Z</time>
      </trkpt>
      <trkpt lat="43.55848" lon="1.11919">
        <ele>297.2</ele>
        <time>2020-11-29T10:16:55Z</time>
      </trkpt>
      <trkpt lat="43.55848" lon="1.1192">
        <ele>297.2</ele>
        <time>2020-11-29T10:16:56Z</time>
      </trkpt>
      <trkpt lat="43.55848" lon="1.1192">
        <ele>297.1</ele>
        <time>2020-11-29T10:16:57Z</time>
      </trkpt>
      <trkpt lat="43.55848" lon="1.1192">
        <ele>297.1</ele>
        <time>2020-11-29T10:16:58Z</time>
      </trkpt>
      <trkpt lat="43.55848" lon="1.1192">
        <ele>297</ele>
        <time>2020-11-29T10:16:59Z</time>
      </trkpt>
      <trkpt lat="43.55848" lon="1.1192">
        <ele>297</ele>
        <time>2020-11-29T10:17:00Z</time>
      </trkpt>
      <trkpt lat="43.55848" lon="1.1192">
        <ele>297</ele>
        <time>2020-11-29T10:17:01Z</time>
      </trkpt>
      <trkpt lat="43.55849" lon="1.1192">
        <ele>297</ele>
        <time>2020-11-29T10:17:02Z</time>
      </trkpt>
      <trkpt lat="43.55849" lon="1.1192">
        <ele>297</ele>
        <time>2020-11-29T10:17:03Z</time>
      </trkpt>
      <trkpt lat="43.55849" lon="1.1192">
        <ele>296.9</ele>
        <time>2020-11-29T10:17:04Z</time>
      </trkpt>
      <trkpt lat="43.55849" lon="1.1192">
        <ele>296.9</ele>
        <time>2020-11-29T10:17:05Z</time>
      </trkpt>
      <trkpt lat="43.55849" lon="1.1192">
        <ele>296.8</ele>
        <time>2020-11-29T10:17:06Z</time>
      </trkpt>
      <trkpt lat="43.55849" lon="1.1192">
        <ele>296.8</ele>
        <time>2020-11-29T10:17:07Z</time>
      </trkpt>
      <trkpt lat="43.55849" lon="1.1192">
        <ele>296.8</ele>
        <time>2020-11-29T10:17:08Z</time>
      </trkpt>
      <trkpt lat="43.55849" lon="1.1192">
        <ele>296.7</ele>
        <time>2020-11-29T10:17:09Z</time>
      </trkpt>
      <trkpt lat="43.55849" lon="1.1192">
        <ele>296.7</ele>
        <time>2020-11-29T10:17:10Z</time>
      </trkpt>
      <trkpt lat="43.55849" lon="1.1192">
        <ele>296.6</ele>
        <time>2020-11-29T10:17:11Z</time>
      </trkpt>
      <trkpt lat="43.55849" lon="1.1192">
        <ele>296.6</ele>
        <time>2020-11-29T10:17:12Z</time>
      </trkpt>
      <trkpt lat="43.55849" lon="1.1192">
        <ele>296.5</ele>
        <time>2020-11-29T10:17:13Z</time>
      </trkpt>
      <trkpt lat="43.55849" lon="1.1192">
        <ele>296.5</ele>
        <time>2020-11-29T10:17:14Z</time>
      </trkpt>
      <trkpt lat="43.55849" lon="1.1192">
        <ele>296.5</ele>
        <time>2020-11-29T10:17:15Z</time>
      </trkpt>
      <trkpt lat="43.55849" lon="1.1192">
        <ele>296.4</ele>
        <time>2020-11-29T10:17:16Z</time>
      </trkpt>
      <trkpt lat="43.55849" lon="1.11919">
        <ele>296.4</ele>
        <time>2020-11-29T10:17:17Z</time>
      </trkpt>
      <trkpt lat="43.55849" lon="1.1192">
        <ele>296.4</ele>
        <time>2020-11-29T10:17:18Z</time>
      </trkpt>
      <trkpt lat="43.55849" lon="1.1192">
        <ele>296.3</ele>
        <time>2020-11-29T10:17:19Z</time>
      </trkpt>
      <trkpt lat="43.55849" lon="1.1192">
        <ele>296.3</ele>
        <time>2020-11-29T10:17:20Z</time>
      </trkpt>
      <trkpt lat="43.55849" lon="1.1192">
        <ele>296.3</ele>
        <time>2020-11-29T10:17:21Z</time>
      </trkpt>
      <trkpt lat="43.55849" lon="1.11919">
        <ele>296.2</ele>
        <time>2020-11-29T10:17:22Z</time>
      </trkpt>
      <trkpt lat="43.55849" lon="1.1192">
        <ele>296.2</ele>
        <time>2020-11-29T10:17:23Z</time>
      </trkpt>
      <trkpt lat="43.55849" lon="1.1192">
        <ele>296.2</ele>
        <time>2020-11-29T10:17:24Z</time>
      </trkpt>
      <trkpt lat="43.5585" lon="1.1192">
        <ele>296.1</ele>
        <time>2020-11-29T10:17:25Z</time>
      </trkpt>
      <trkpt lat="43.5585" lon="1.1192">
        <ele>296.1</ele>
        <time>2020-11-29T10:17:26Z</time>
      </trkpt>
      <trkpt lat="43.5585" lon="1.1192">
        <ele>296</ele>
        <time>2020-11-29T10:17:27Z</time>
      </trkpt>
      <trkpt lat="43.5585" lon="1.1192">
        <ele>296</ele>
        <time>2020-11-29T10:17:28Z</time>
      </trkpt>
      <trkpt lat="43.5585" lon="1.1192">
        <ele>296</ele>
        <time>2020-11-29T10:17:29Z</time>
      </trkpt>
      <trkpt lat="43.5585" lon="1.1192">
        <ele>295.9</ele>
        <time>2020-11-29T10:17:30Z</time>
      </trkpt>
      <trkpt lat="43.5585" lon="1.1192">
        <ele>295.9</ele>
        <time>2020-11-29T10:17:31Z</time>
      </trkpt>
      <trkpt lat="43.5585" lon="1.1192">
        <ele>295.8</ele>
        <time>2020-11-29T10:17:32Z</time>
      </trkpt>
      <trkpt lat="43.5585" lon="1.1192">
        <ele>295.8</ele>
        <time>2020-11-29T10:17:33Z</time>
      </trkpt>
      <trkpt lat="43.5585" lon="1.1192">
        <ele>295.7</ele>
        <time>2020-11-29T10:17:34Z</time>
      </trkpt>
      <trkpt lat="43.5585" lon="1.1192">
        <ele>295.7</ele>
        <time>2020-11-29T10:17:35Z</time>
      </trkpt>
      <trkpt lat="43.5585" lon="1.1192">
        <ele>295.7</ele>
        <time>2020-11-29T10:17:36Z</time>
      </trkpt>
      <trkpt lat="43.5585" lon="1.1192">
        <ele>295.7</ele>
        <time>2020-11-29T10:17:37Z</time>
      </trkpt>
      <trkpt lat="43.5585" lon="1.1192">
        <ele>295.6</ele>
        <time>2020-11-29T10:17:38Z</time>
      </trkpt>
      <trkpt lat="43.5585" lon="1.1192">
        <ele>295.6</ele>
        <time>2020-11-29T10:17:39Z</time>
      </trkpt>
      <trkpt lat="43.5585" lon="1.1192">
        <ele>295.6</ele>
        <time>2020-11-29T10:17:40Z</time>
      </trkpt>
      <trkpt lat="43.5585" lon="1.1192">
        <ele>295.5</ele>
        <time>2020-11-29T10:17:41Z</time>
      </trkpt>
      <trkpt lat="43.5585" lon="1.1192">
        <ele>295.5</ele>
        <time>2020-11-29T10:17:42Z</time>
      </trkpt>
      <trkpt lat="43.5585" lon="1.1192">
        <ele>295.4</ele>
        <time>2020-11-29T10:17:43Z</time>
      </trkpt>
      <trkpt lat="43.5585" lon="1.1192">
        <ele>295.4</ele>
        <time>2020-11-29T10:17:44Z</time>
      </trkpt>
      <trkpt lat="43.5585" lon="1.1192">
        <ele>295.4</ele>
        <time>2020-11-29T10:17:45Z</time>
      </trkpt>
      <trkpt lat="43.5585" lon="1.11919">
        <ele>295.3</ele>
        <time>2020-11-29T10:17:46Z</time>
      </trkpt>
      <trkpt lat="43.5585" lon="1.1192">
        <ele>295.3</ele>
        <time>2020-11-29T10:17:47Z</time>
      </trkpt>
      <trkpt lat="43.5585" lon="1.1192">
        <ele>295.2</ele>
        <time>2020-11-29T10:17:48Z</time>
      </trkpt>
      <trkpt lat="43.5585" lon="1.1192">
        <ele>295.2</ele>
        <time>2020-11-29T10:17:49Z</time>
      </trkpt>
      <trkpt lat="43.5585" lon="1.1192">
        <ele>295.1</ele>
        <time>2020-11-29T10:17:50Z</time>
      </trkpt>
      <trkpt lat="43.5585" lon="1.1192">
        <ele>295.1</ele>
        <time>2020-11-29T10:17:51Z</time>
      </trkpt>
      <trkpt lat="43.5585" lon="1.1192">
        <ele>295.1</ele>
        <time>2020-11-29T10:17:52Z</time>
      </trkpt>
      <trkpt lat="43.5585" lon="1.1192">
        <ele>295</ele>
        <time>2020-11-29T10:17:53Z</time>
      </trkpt>
      <trkpt lat="43.5585" lon="1.1192">
        <ele>295</ele>
        <time>2020-11-29T10:17:54Z</time>
      </trkpt>
      <trkpt lat="43.5585" lon="1.1192">
        <ele>295</ele>
        <time>2020-11-29T10:17:55Z</time>
      </trkpt>
      <trkpt lat="43.5585" lon="1.1192">
        <ele>295</ele>
        <time>2020-11-29T10:17:56Z</time>
      </trkpt>
      <trkpt lat="43.5585" lon="1.1192">
        <ele>294.9</ele>
        <time>2020-11-29T10:17:57Z</time>
      </trkpt>
      <trkpt lat="43.5585" lon="1.1192">
        <ele>294.9</ele>
        <time>2020-11-29T10:17:58Z</time>
      </trkpt>
      <trkpt lat="43.5585" lon="1.1192">
        <ele>294.9</ele>
        <time>2020-11-29T10:17:59Z</time>
      </trkpt>
      <trkpt lat="43.5585" lon="1.1192">
        <ele>294.8</ele>
        <time>2020-11-29T10:18:00Z</time>
      </trkpt>
      <trkpt lat="43.5585" lon="1.1192">
        <ele>294.8</ele>
        <time>2020-11-29T10:18:01Z</time>
      </trkpt>
      <trkpt lat="43.5585" lon="1.11921">
        <ele>294.7</ele>
        <time>2020-11-29T10:18:02Z</time>
      </trkpt>
      <trkpt lat="43.5585" lon="1.11921">
        <ele>294.7</ele>
        <time>2020-11-29T10:18:03Z</time>
      </trkpt>
      <trkpt lat="43.5585" lon="1.11921">
        <ele>294.6</ele>
        <time>2020-11-29T10:18:04Z</time>
      </trkpt>
      <trkpt lat="43.5585" lon="1.1192">
        <ele>294.7</ele>
        <time>2020-11-29T10:18:05Z</time>
      </trkpt>
      <trkpt lat="43.55851" lon="1.1192">
        <ele>294.7</ele>
        <time>2020-11-29T10:18:06Z</time>
      </trkpt>
      <trkpt lat="43.55851" lon="1.11919">
        <ele>294.7</ele>
        <time>2020-11-29T10:18:07Z</time>
      </trkpt>
      <trkpt lat="43.55852" lon="1.11918">
        <ele>294.8</ele>
        <time>2020-11-29T10:18:08Z</time>
      </trkpt>
      <trkpt lat="43.55852" lon="1.11917">
        <ele>294.7</ele>
        <time>2020-11-29T10:18:09Z</time>
      </trkpt>
      <trkpt lat="43.55852" lon="1.11917">
        <ele>294.7</ele>
        <time>2020-11-29T10:18:10Z</time>
      </trkpt>
      <trkpt lat="43.55852" lon="1.11917">
        <ele>294.6</ele>
        <time>2020-11-29T10:18:11Z</time>
      </trkpt>
      <trkpt lat="43.55852" lon="1.11917">
        <ele>294.6</ele>
        <time>2020-11-29T10:18:12Z</time>
      </trkpt>
      <trkpt lat="43.55852" lon="1.11917">
        <ele>294.6</ele>
        <time>2020-11-29T10:18:13Z</time>
      </trkpt>
      <trkpt lat="43.55852" lon="1.11917">
        <ele>294.6</ele>
        <time>2020-11-29T10:18:14Z</time>
      </trkpt>
      <trkpt lat="43.55852" lon="1.11916">
        <ele>294.7</ele>
        <time>2020-11-29T10:18:15Z</time>
      </trkpt>
      <trkpt lat="43.55852" lon="1.11916">
        <ele>294.6</ele>
        <time>2020-11-29T10:18:16Z</time>
      </trkpt>
      <trkpt lat="43.55852" lon="1.11916">
        <ele>294.6</ele>
        <time>2020-11-29T10:18:17Z</time>
      </trkpt>
      <trkpt lat="43.55852" lon="1.11916">
        <ele>294.5</ele>
        <time>2020-11-29T10:18:18Z</time>
      </trkpt>
      <trkpt lat="43.55852" lon="1.11916">
        <ele>294.5</ele>
        <time>2020-11-29T10:18:19Z</time>
      </trkpt>
      <trkpt lat="43.55852" lon="1.11916">
        <ele>294.4</ele>
        <time>2020-11-29T10:18:20Z</time>
      </trkpt>
      <trkpt lat="43.55852" lon="1.11916">
        <ele>294.4</ele>
        <time>2020-11-29T10:18:21Z</time>
      </trkpt>
      <trkpt lat="43.55852" lon="1.11916">
        <ele>294.4</ele>
        <time>2020-11-29T10:18:22Z</time>
      </trkpt>
      <trkpt lat="43.55852" lon="1.11916">
        <ele>294.3</ele>
        <time>2020-11-29T10:18:23Z</time>
      </trkpt>
      <trkpt lat="43.55852" lon="1.11916">
        <ele>294.3</ele>
        <time>2020-11-29T10:18:24Z</time>
      </trkpt>
      <trkpt lat="43.55852" lon="1.11916">
        <ele>294.2</ele>
        <time>2020-11-29T10:18:25Z</time>
      </trkpt>
      <trkpt lat="43.55852" lon="1.11916">
        <ele>294.2</ele>
        <time>2020-11-29T10:18:26Z</time>
      </trkpt>
      <trkpt lat="43.55852" lon="1.11916">
        <ele>294.2</ele>
        <time>2020-11-29T10:18:27Z</time>
      </trkpt>
      <trkpt lat="43.55852" lon="1.11916">
        <ele>294.2</ele>
        <time>2020-11-29T10:18:28Z</time>
      </trkpt>
      <trkpt lat="43.55852" lon="1.11916">
        <ele>294.3</ele>
        <time>2020-11-29T10:18:29Z</time>
      </trkpt>
      <trkpt lat="43.55852" lon="1.11917">
        <ele>294.3</ele>
        <time>2020-11-29T10:18:30Z</time>
      </trkpt>
      <trkpt lat="43.55852" lon="1.11916">
        <ele>294.3</ele>
        <time>2020-11-29T10:18:31Z</time>
      </trkpt>
      <trkpt lat="43.55852" lon="1.11916">
        <ele>294.3</ele>
        <time>2020-11-29T10:18:32Z</time>
      </trkpt>
      <trkpt lat="43.55852" lon="1.11916">
        <ele>294.3</ele>
        <time>2020-11-29T10:18:33Z</time>
      </trkpt>
      <trkpt lat="43.55852" lon="1.11916">
        <ele>294.3</ele>
        <time>2020-11-29T10:18:34Z</time>
      </trkpt>
      <trkpt lat="43.55853" lon="1.11916">
        <ele>294.3</ele>
        <time>2020-11-29T10:18:35Z</time>
      </trkpt>
      <trkpt lat="43.55853" lon="1.11916">
        <ele>294.3</ele>
        <time>2020-11-29T10:18:36Z</time>
      </trkpt>
      <trkpt lat="43.55853" lon="1.11916">
        <ele>294.3</ele>
        <time>2020-11-29T10:18:37Z</time>
      </trkpt>
      <trkpt lat="43.55853" lon="1.11917">
        <ele>294.4</ele>
        <time>2020-11-29T10:18:38Z</time>
      </trkpt>
      <trkpt lat="43.55853" lon="1.11917">
        <ele>294.4</ele>
        <time>2020-11-29T10:18:39Z</time>
      </trkpt>
      <trkpt lat="43.55853" lon="1.11916">
        <ele>294.5</ele>
        <time>2020-11-29T10:18:40Z</time>
      </trkpt>
      <trkpt lat="43.55852" lon="1.11916">
        <ele>294.5</ele>
        <time>2020-11-29T10:18:41Z</time>
      </trkpt>
      <trkpt lat="43.55852" lon="1.11916">
        <ele>294.5</ele>
        <time>2020-11-29T10:18:42Z</time>
      </trkpt>
      <trkpt lat="43.55852" lon="1.11916">
        <ele>294.6</ele>
        <time>2020-11-29T10:18:43Z</time>
      </trkpt>
      <trkpt lat="43.55852" lon="1.11916">
        <ele>294.6</ele>
        <time>2020-11-29T10:18:44Z</time>
      </trkpt>
      <trkpt lat="43.55852" lon="1.11916">
        <ele>294.6</ele>
        <time>2020-11-29T10:18:45Z</time>
      </trkpt>
      <trkpt lat="43.55852" lon="1.11916">
        <ele>294.6</ele>
        <time>2020-11-29T10:18:46Z</time>
      </trkpt>
      <trkpt lat="43.55852" lon="1.11916">
        <ele>294.6</ele>
        <time>2020-11-29T10:18:47Z</time>
      </trkpt>
      <trkpt lat="43.55852" lon="1.11916">
        <ele>294.6</ele>
        <time>2020-11-29T10:18:48Z</time>
      </trkpt>
      <trkpt lat="43.55852" lon="1.11916">
        <ele>294.6</ele>
        <time>2020-11-29T10:18:50Z</time>
      </trkpt>
      <trkpt lat="43.55852" lon="1.11917">
        <ele>294.7</ele>
        <time>2020-11-29T10:18:51Z</time>
      </trkpt>
      <trkpt lat="43.55853" lon="1.11916">
        <ele>294.8</ele>
        <time>2020-11-29T10:18:52Z</time>
      </trkpt>
      <trkpt lat="43.55854" lon="1.11916">
        <ele>294.8</ele>
        <time>2020-11-29T10:18:53Z</time>
      </trkpt>
      <trkpt lat="43.55853" lon="1.11917">
        <ele>294.9</ele>
        <time>2020-11-29T10:18:54Z</time>
      </trkpt>
      <trkpt lat="43.55854" lon="1.11918">
        <ele>295</ele>
        <time>2020-11-29T10:18:55Z</time>
      </trkpt>
      <trkpt lat="43.55854" lon="1.11918">
        <ele>295</ele>
        <time>2020-11-29T10:18:56Z</time>
      </trkpt>
      <trkpt lat="43.55854" lon="1.11918">
        <ele>295</ele>
        <time>2020-11-29T10:18:57Z</time>
      </trkpt>
      <trkpt lat="43.55854" lon="1.11918">
        <ele>295</ele>
        <time>2020-11-29T10:18:58Z</time>
      </trkpt>
      <trkpt lat="43.55854" lon="1.11918">
        <ele>295</ele>
        <time>2020-11-29T10:18:59Z</time>
      </trkpt>
      <trkpt lat="43.55854" lon="1.11918">
        <ele>295</ele>
        <time>2020-11-29T10:19:00Z</time>
      </trkpt>
      <trkpt lat="43.55854" lon="1.11918">
        <ele>295</ele>
        <time>2020-11-29T10:19:01Z</time>
      </trkpt>
      <trkpt lat="43.55854" lon="1.11919">
        <ele>295</ele>
        <time>2020-11-29T10:19:02Z</time>
      </trkpt>
      <trkpt lat="43.55854" lon="1.11918">
        <ele>295.1</ele>
        <time>2020-11-29T10:19:03Z</time>
      </trkpt>
      <trkpt lat="43.55854" lon="1.11918">
        <ele>295.1</ele>
        <time>2020-11-29T10:19:04Z</time>
      </trkpt>
      <trkpt lat="43.55853" lon="1.11916">
        <ele>295.2</ele>
        <time>2020-11-29T10:19:05Z</time>
      </trkpt>
      <trkpt lat="43.55853" lon="1.11917">
        <ele>295.3</ele>
        <time>2020-11-29T10:19:06Z</time>
      </trkpt>
      <trkpt lat="43.55852" lon="1.11916">
        <ele>295.4</ele>
        <time>2020-11-29T10:19:07Z</time>
      </trkpt>
      <trkpt lat="43.55851" lon="1.11915">
        <ele>295.4</ele>
        <time>2020-11-29T10:19:08Z</time>
      </trkpt>
      <trkpt lat="43.55851" lon="1.11916">
        <ele>295.4</ele>
        <time>2020-11-29T10:19:09Z</time>
      </trkpt>
      <trkpt lat="43.55851" lon="1.11916">
        <ele>295.4</ele>
        <time>2020-11-29T10:19:10Z</time>
      </trkpt>
      <trkpt lat="43.55851" lon="1.11916">
        <ele>295.4</ele>
        <time>2020-11-29T10:19:11Z</time>
      </trkpt>
      <trkpt lat="43.55851" lon="1.11915">
        <ele>295.5</ele>
        <time>2020-11-29T10:19:12Z</time>
      </trkpt>
      <trkpt lat="43.55852" lon="1.11915">
        <ele>295.5</ele>
        <time>2020-11-29T10:19:13Z</time>
      </trkpt>
      <trkpt lat="43.55852" lon="1.11915">
        <ele>295.5</ele>
        <time>2020-11-29T10:19:14Z</time>
      </trkpt>
      <trkpt lat="43.55851" lon="1.11915">
        <ele>295.5</ele>
        <time>2020-11-29T10:19:15Z</time>
      </trkpt>
      <trkpt lat="43.5585" lon="1.11915">
        <ele>295.6</ele>
        <time>2020-11-29T10:19:16Z</time>
      </trkpt>
      <trkpt lat="43.5585" lon="1.11915">
        <ele>295.7</ele>
        <time>2020-11-29T10:19:17Z</time>
      </trkpt>
      <trkpt lat="43.5585" lon="1.11914">
        <ele>295.7</ele>
        <time>2020-11-29T10:19:18Z</time>
      </trkpt>
      <trkpt lat="43.5585" lon="1.11913">
        <ele>295.8</ele>
        <time>2020-11-29T10:19:19Z</time>
      </trkpt>
      <trkpt lat="43.5585" lon="1.11913">
        <ele>295.8</ele>
        <time>2020-11-29T10:19:20Z</time>
      </trkpt>
      <trkpt lat="43.5585" lon="1.11913">
        <ele>295.8</ele>
        <time>2020-11-29T10:19:21Z</time>
      </trkpt>
      <trkpt lat="43.5585" lon="1.11913">
        <ele>295.8</ele>
        <time>2020-11-29T10:19:22Z</time>
      </trkpt>
      <trkpt lat="43.55851" lon="1.11913">
        <ele>295.9</ele>
        <time>2020-11-29T10:19:23Z</time>
      </trkpt>
      <trkpt lat="43.55851" lon="1.11914">
        <ele>295.9</ele>
        <time>2020-11-29T10:19:24Z</time>
      </trkpt>
      <trkpt lat="43.55852" lon="1.11914">
        <ele>296</ele>
        <time>2020-11-29T10:19:25Z</time>
      </trkpt>
      <trkpt lat="43.55852" lon="1.11914">
        <ele>296</ele>
        <time>2020-11-29T10:19:26Z</time>
      </trkpt>
      <trkpt lat="43.55852" lon="1.11914">
        <ele>296.1</ele>
        <time>2020-11-29T10:19:27Z</time>
      </trkpt>
      <trkpt lat="43.55853" lon="1.11915">
        <ele>296.1</ele>
        <time>2020-11-29T10:19:28Z</time>
      </trkpt>
      <trkpt lat="43.55853" lon="1.11915">
        <ele>296.1</ele>
        <time>2020-11-29T10:19:29Z</time>
      </trkpt>
      <trkpt lat="43.55853" lon="1.11915">
        <ele>296.1</ele>
        <time>2020-11-29T10:19:30Z</time>
      </trkpt>
      <trkpt lat="43.55853" lon="1.11915">
        <ele>296.1</ele>
        <time>2020-11-29T10:19:31Z</time>
      </trkpt>
      <trkpt lat="43.55853" lon="1.11916">
        <ele>296.2</ele>
        <time>2020-11-29T10:19:32Z</time>
      </trkpt>
      <trkpt lat="43.55853" lon="1.11916">
        <ele>296.2</ele>
        <time>2020-11-29T10:19:33Z</time>
      </trkpt>
      <trkpt lat="43.55853" lon="1.11916">
        <ele>296.2</ele>
        <time>2020-11-29T10:19:34Z</time>
      </trkpt>
      <trkpt lat="43.55853" lon="1.11916">
        <ele>296.2</ele>
        <time>2020-11-29T10:19:35Z</time>
      </trkpt>
      <trkpt lat="43.55853" lon="1.11916">
        <ele>296.2</ele>
        <time>2020-11-29T10:19:36Z</time>
      </trkpt>
      <trkpt lat="43.55854" lon="1.11916">
        <ele>296.3</ele>
        <time>2020-11-29T10:19:37Z</time>
      </trkpt>
      <trkpt lat="43.55853" lon="1.11917">
        <ele>296.3</ele>
        <time>2020-11-29T10:19:38Z</time>
      </trkpt>
      <trkpt lat="43.55853" lon="1.11918">
        <ele>296.4</ele>
        <time>2020-11-29T10:19:39Z</time>
      </trkpt>
      <trkpt lat="43.55854" lon="1.11918">
        <ele>296.4</ele>
        <time>2020-11-29T10:19:40Z</time>
      </trkpt>
      <trkpt lat="43.55854" lon="1.11918">
        <ele>296.4</ele>
        <time>2020-11-29T10:19:41Z</time>
      </trkpt>
      <trkpt lat="43.55854" lon="1.11918">
        <ele>296.4</ele>
        <time>2020-11-29T10:19:42Z</time>
      </trkpt>
      <trkpt lat="43.55854" lon="1.11918">
        <ele>296.4</ele>
        <time>2020-11-29T10:19:43Z</time>
      </trkpt>
      <trkpt lat="43.55854" lon="1.11918">
        <ele>296.5</ele>
        <time>2020-11-29T10:19:44Z</time>
      </trkpt>
      <trkpt lat="43.55854" lon="1.11918">
        <ele>296.5</ele>
        <time>2020-11-29T10:19:45Z</time>
      </trkpt>
      <trkpt lat="43.55854" lon="1.11918">
        <ele>296.5</ele>
        <time>2020-11-29T10:19:46Z</time>
      </trkpt>
      <trkpt lat="43.55854" lon="1.11918">
        <ele>296.5</ele>
        <time>2020-11-29T10:19:47Z</time>
      </trkpt>
      <trkpt lat="43.55853" lon="1.11918">
        <ele>296.5</ele>
        <time>2020-11-29T10:19:48Z</time>
      </trkpt>
      <trkpt lat="43.55853" lon="1.11919">
        <ele>296.6</ele>
        <time>2020-11-29T10:19:49Z</time>
      </trkpt>
      <trkpt lat="43.55852" lon="1.11919">
        <ele>296.6</ele>
        <time>2020-11-29T10:19:50Z</time>
      </trkpt>
      <trkpt lat="43.55852" lon="1.11918">
        <ele>296.6</ele>
        <time>2020-11-29T10:19:51Z</time>
      </trkpt>
      <trkpt lat="43.55852" lon="1.11918">
        <ele>296.7</ele>
        <time>2020-11-29T10:19:52Z</time>
      </trkpt>
      <trkpt lat="43.55852" lon="1.11918">
        <ele>296.7</ele>
        <time>2020-11-29T10:19:53Z</time>
      </trkpt>
      <trkpt lat="43.55852" lon="1.11919">
        <ele>296.7</ele>
        <time>2020-11-29T10:19:54Z</time>
      </trkpt>
      <trkpt lat="43.55852" lon="1.11919">
        <ele>296.7</ele>
        <time>2020-11-29T10:19:55Z</time>
      </trkpt>
      <trkpt lat="43.55852" lon="1.1192">
        <ele>296.7</ele>
        <time>2020-11-29T10:19:56Z</time>
      </trkpt>
      <trkpt lat="43.55852" lon="1.11919">
        <ele>296.8</ele>
        <time>2020-11-29T10:19:57Z</time>
      </trkpt>
      <trkpt lat="43.55852" lon="1.11919">
        <ele>296.8</ele>
        <time>2020-11-29T10:19:58Z</time>
      </trkpt>
      <trkpt lat="43.55851" lon="1.11919">
        <ele>296.9</ele>
        <time>2020-11-29T10:19:59Z</time>
      </trkpt>
      <trkpt lat="43.55851" lon="1.11919">
        <ele>296.9</ele>
        <time>2020-11-29T10:20:00Z</time>
      </trkpt>
      <trkpt lat="43.55851" lon="1.1192">
        <ele>296.9</ele>
        <time>2020-11-29T10:20:01Z</time>
      </trkpt>
      <trkpt lat="43.5585" lon="1.1192">
        <ele>297</ele>
        <time>2020-11-29T10:20:02Z</time>
      </trkpt>
      <trkpt lat="43.5585" lon="1.11921">
        <ele>297</ele>
        <time>2020-11-29T10:20:03Z</time>
      </trkpt>
      <trkpt lat="43.55849" lon="1.11922">
        <ele>297.1</ele>
        <time>2020-11-29T10:20:04Z</time>
      </trkpt>
      <trkpt lat="43.55849" lon="1.11921">
        <ele>297.1</ele>
        <time>2020-11-29T10:20:05Z</time>
      </trkpt>
      <trkpt lat="43.55849" lon="1.11922">
        <ele>297.2</ele>
        <time>2020-11-29T10:20:06Z</time>
      </trkpt>
      <trkpt lat="43.55848" lon="1.11922">
        <ele>297.2</ele>
        <time>2020-11-29T10:20:07Z</time>
      </trkpt>
      <trkpt lat="43.55848" lon="1.11922">
        <ele>297.2</ele>
        <time>2020-11-29T10:20:08Z</time>
      </trkpt>
      <trkpt lat="43.55848" lon="1.11922">
        <ele>297.2</ele>
        <time>2020-11-29T10:20:09Z</time>
      </trkpt>
      <trkpt lat="43.55848" lon="1.11922">
        <ele>297.2</ele>
        <time>2020-11-29T10:20:10Z</time>
      </trkpt>
      <trkpt lat="43.55848" lon="1.11922">
        <ele>297.2</ele>
        <time>2020-11-29T10:20:11Z</time>
      </trkpt>
      <trkpt lat="43.55848" lon="1.11922">
        <ele>297.2</ele>
        <time>2020-11-29T10:20:12Z</time>
      </trkpt>
      <trkpt lat="43.55849" lon="1.11921">
        <ele>297.3</ele>
        <time>2020-11-29T10:20:13Z</time>
      </trkpt>
      <trkpt lat="43.55848" lon="1.11923">
        <ele>297.4</ele>
        <time>2020-11-29T10:20:14Z</time>
      </trkpt>
      <trkpt lat="43.55849" lon="1.11923">
        <ele>297.4</ele>
        <time>2020-11-29T10:20:15Z</time>
      </trkpt>
      <trkpt lat="43.55849" lon="1.11923">
        <ele>297.4</ele>
        <time>2020-11-29T10:20:16Z</time>
      </trkpt>
      <trkpt lat="43.55849" lon="1.11924">
        <ele>297.5</ele>
        <time>2020-11-29T10:20:17Z</time>
      </trkpt>
      <trkpt lat="43.55849" lon="1.11924">
        <ele>297.5</ele>
        <time>2020-11-29T10:20:18Z</time>
      </trkpt>
      <trkpt lat="43.5585" lon="1.11923">
        <ele>297.5</ele>
        <time>2020-11-29T10:20:19Z</time>
      </trkpt>
      <trkpt lat="43.5585" lon="1.11922">
        <ele>297.6</ele>
        <time>2020-11-29T10:20:20Z</time>
      </trkpt>
      <trkpt lat="43.5585" lon="1.11922">
        <ele>297.6</ele>
        <time>2020-11-29T10:20:21Z</time>
      </trkpt>
      <trkpt lat="43.5585" lon="1.11922">
        <ele>297.6</ele>
        <time>2020-11-29T10:20:22Z</time>
      </trkpt>
      <trkpt lat="43.5585" lon="1.11922">
        <ele>297.6</ele>
        <time>2020-11-29T10:20:23Z</time>
      </trkpt>
      <trkpt lat="43.5585" lon="1.11922">
        <ele>297.6</ele>
        <time>2020-11-29T10:20:24Z</time>
      </trkpt>
      <trkpt lat="43.5585" lon="1.11922">
        <ele>297.6</ele>
        <time>2020-11-29T10:20:25Z</time>
      </trkpt>
      <trkpt lat="43.5585" lon="1.11922">
        <ele>297.6</ele>
        <time>2020-11-29T10:20:26Z</time>
      </trkpt>
      <trkpt lat="43.5585" lon="1.11921">
        <ele>297.6</ele>
        <time>2020-11-29T10:20:27Z</time>
      </trkpt>
      <trkpt lat="43.5585" lon="1.11922">
        <ele>297.7</ele>
        <time>2020-11-29T10:20:28Z</time>
      </trkpt>
      <trkpt lat="43.55851" lon="1.11922">
        <ele>297.7</ele>
        <time>2020-11-29T10:20:29Z</time>
      </trkpt>
      <trkpt lat="43.55851" lon="1.11922">
        <ele>297.7</ele>
        <time>2020-11-29T10:20:30Z</time>
      </trkpt>
      <trkpt lat="43.55851" lon="1.11921">
        <ele>297.8</ele>
        <time>2020-11-29T10:20:31Z</time>
      </trkpt>
      <trkpt lat="43.55851" lon="1.11921">
        <ele>297.8</ele>
        <time>2020-11-29T10:20:32Z</time>
      </trkpt>
      <trkpt lat="43.55851" lon="1.11921">
        <ele>297.8</ele>
        <time>2020-11-29T10:20:33Z</time>
      </trkpt>
      <trkpt lat="43.55851" lon="1.11921">
        <ele>297.8</ele>
        <time>2020-11-29T10:20:34Z</time>
      </trkpt>
      <trkpt lat="43.55851" lon="1.11921">
        <ele>297.8</ele>
        <time>2020-11-29T10:20:35Z</time>
      </trkpt>
      <trkpt lat="43.55851" lon="1.11921">
        <ele>297.8</ele>
        <time>2020-11-29T10:20:36Z</time>
      </trkpt>
      <trkpt lat="43.55851" lon="1.1192">
        <ele>297.8</ele>
        <time>2020-11-29T10:20:37Z</time>
      </trkpt>
      <trkpt lat="43.55852" lon="1.11919">
        <ele>297.9</ele>
        <time>2020-11-29T10:20:38Z</time>
      </trkpt>
      <trkpt lat="43.55853" lon="1.11919">
        <ele>298</ele>
        <time>2020-11-29T10:20:39Z</time>
      </trkpt>
      <trkpt lat="43.55853" lon="1.11918">
        <ele>298</ele>
        <time>2020-11-29T10:20:40Z</time>
      </trkpt>
      <trkpt lat="43.55853" lon="1.11918">
        <ele>298</ele>
        <time>2020-11-29T10:20:41Z</time>
      </trkpt>
      <trkpt lat="43.55853" lon="1.11918">
        <ele>298</ele>
        <time>2020-11-29T10:20:42Z</time>
      </trkpt>
      <trkpt lat="43.55853" lon="1.11918">
        <ele>298</ele>
        <time>2020-11-29T10:20:43Z</time>
      </trkpt>
      <trkpt lat="43.55853" lon="1.11918">
        <ele>298</ele>
        <time>2020-11-29T10:20:44Z</time>
      </trkpt>
      <trkpt lat="43.55853" lon="1.11918">
        <ele>298</ele>
        <time>2020-11-29T10:20:45Z</time>
      </trkpt>
      <trkpt lat="43.55853" lon="1.11918">
        <ele>298</ele>
        <time>2020-11-29T10:20:46Z</time>
      </trkpt>
      <trkpt lat="43.55853" lon="1.11919">
        <ele>298</ele>
        <time>2020-11-29T10:20:47Z</time>
      </trkpt>
      <trkpt lat="43.55852" lon="1.11919">
        <ele>298.1</ele>
        <time>2020-11-29T10:20:48Z</time>
      </trkpt>
      <trkpt lat="43.55852" lon="1.11919">
        <ele>298.1</ele>
        <time>2020-11-29T10:20:49Z</time>
      </trkpt>
      <trkpt lat="43.55853" lon="1.1192">
        <ele>298.1</ele>
        <time>2020-11-29T10:20:50Z</time>
      </trkpt>
      <trkpt lat="43.55853" lon="1.1192">
        <ele>298.1</ele>
        <time>2020-11-29T10:20:51Z</time>
      </trkpt>
      <trkpt lat="43.55853" lon="1.11921">
        <ele>298.2</ele>
        <time>2020-11-29T10:20:52Z</time>
      </trkpt>
      <trkpt lat="43.55853" lon="1.1192">
        <ele>298.2</ele>
        <time>2020-11-29T10:20:53Z</time>
      </trkpt>
      <trkpt lat="43.55853" lon="1.1192">
        <ele>298.2</ele>
        <time>2020-11-29T10:20:54Z</time>
      </trkpt>
      <trkpt lat="43.55853" lon="1.1192">
        <ele>298.2</ele>
        <time>2020-11-29T10:20:55Z</time>
      </trkpt>
      <trkpt lat="43.55852" lon="1.11919">
        <ele>298.2</ele>
        <time>2020-11-29T10:20:56Z</time>
      </trkpt>
      <trkpt lat="43.55852" lon="1.11919">
        <ele>298.2</ele>
        <time>2020-11-29T10:20:57Z</time>
      </trkpt>
      <trkpt lat="43.55852" lon="1.11919">
        <ele>298.3</ele>
        <time>2020-11-29T10:20:58Z</time>
      </trkpt>
      <trkpt lat="43.55852" lon="1.1192">
        <ele>298.3</ele>
        <time>2020-11-29T10:20:59Z</time>
      </trkpt>
      <trkpt lat="43.55852" lon="1.11919">
        <ele>298.3</ele>
        <time>2020-11-29T10:21:00Z</time>
      </trkpt>
      <trkpt lat="43.55852" lon="1.11919">
        <ele>298.3</ele>
        <time>2020-11-29T10:21:01Z</time>
      </trkpt>
      <trkpt lat="43.55852" lon="1.11921">
        <ele>298.3</ele>
        <time>2020-11-29T10:21:02Z</time>
      </trkpt>
      <trkpt lat="43.55851" lon="1.11923">
        <ele>298.5</ele>
        <time>2020-11-29T10:21:03Z</time>
      </trkpt>
      <trkpt lat="43.55851" lon="1.11924">
        <ele>298.5</ele>
        <time>2020-11-29T10:21:04Z</time>
      </trkpt>
      <trkpt lat="43.55851" lon="1.11924">
        <ele>298.5</ele>
        <time>2020-11-29T10:21:05Z</time>
      </trkpt>
      <trkpt lat="43.5585" lon="1.11926">
        <ele>298.6</ele>
        <time>2020-11-29T10:21:06Z</time>
      </trkpt>
      <trkpt lat="43.55851" lon="1.11925">
        <ele>298.7</ele>
        <time>2020-11-29T10:21:07Z</time>
      </trkpt>
      <trkpt lat="43.55852" lon="1.11925">
        <ele>298.7</ele>
        <time>2020-11-29T10:21:08Z</time>
      </trkpt>
      <trkpt lat="43.55852" lon="1.11925">
        <ele>298.7</ele>
        <time>2020-11-29T10:21:09Z</time>
      </trkpt>
      <trkpt lat="43.55852" lon="1.11925">
        <ele>298.7</ele>
        <time>2020-11-29T10:21:10Z</time>
      </trkpt>
      <trkpt lat="43.55852" lon="1.11925">
        <ele>298.7</ele>
        <time>2020-11-29T10:21:11Z</time>
      </trkpt>
      <trkpt lat="43.55852" lon="1.11925">
        <ele>298.7</ele>
        <time>2020-11-29T10:21:12Z</time>
      </trkpt>
      <trkpt lat="43.55852" lon="1.11925">
        <ele>298.7</ele>
        <time>2020-11-29T10:21:13Z</time>
      </trkpt>
      <trkpt lat="43.55852" lon="1.11925">
        <ele>298.7</ele>
        <time>2020-11-29T10:21:14Z</time>
      </trkpt>
      <trkpt lat="43.55852" lon="1.11925">
        <ele>298.7</ele>
        <time>2020-11-29T10:21:15Z</time>
      </trkpt>
      <trkpt lat="43.55852" lon="1.11925">
        <ele>298.8</ele>
        <time>2020-11-29T10:21:16Z</time>
      </trkpt>
      <trkpt lat="43.55853" lon="1.11924">
        <ele>298.8</ele>
        <time>2020-11-29T10:21:17Z</time>
      </trkpt>
      <trkpt lat="43.55853" lon="1.11924">
        <ele>298.8</ele>
        <time>2020-11-29T10:21:18Z</time>
      </trkpt>
      <trkpt lat="43.55853" lon="1.11924">
        <ele>298.8</ele>
        <time>2020-11-29T10:21:19Z</time>
      </trkpt>
      <trkpt lat="43.55853" lon="1.11924">
        <ele>298.8</ele>
        <time>2020-11-29T10:21:20Z</time>
      </trkpt>
      <trkpt lat="43.55853" lon="1.11924">
        <ele>298.8</ele>
        <time>2020-11-29T10:21:21Z</time>
      </trkpt>
      <trkpt lat="43.55853" lon="1.11924">
        <ele>298.8</ele>
        <time>2020-11-29T10:21:22Z</time>
      </trkpt>
      <trkpt lat="43.55853" lon="1.11924">
        <ele>298.8</ele>
        <time>2020-11-29T10:21:23Z</time>
      </trkpt>
      <trkpt lat="43.55853" lon="1.11924">
        <ele>298.8</ele>
        <time>2020-11-29T10:21:24Z</time>
      </trkpt>
      <trkpt lat="43.55853" lon="1.11924">
        <ele>298.8</ele>
        <time>2020-11-29T10:21:25Z</time>
      </trkpt>
      <trkpt lat="43.55853" lon="1.11924">
        <ele>298.9</ele>
        <time>2020-11-29T10:21:26Z</time>
      </trkpt>
      <trkpt lat="43.55853" lon="1.11924">
        <ele>298.9</ele>
        <time>2020-11-29T10:21:27Z</time>
      </trkpt>
      <trkpt lat="43.55852" lon="1.11925">
        <ele>298.9</ele>
        <time>2020-11-29T10:21:28Z</time>
      </trkpt>
      <trkpt lat="43.55852" lon="1.11925">
        <ele>298.9</ele>
        <time>2020-11-29T10:21:29Z</time>
      </trkpt>
      <trkpt lat="43.55852" lon="1.11925">
        <ele>298.9</ele>
        <time>2020-11-29T10:21:30Z</time>
      </trkpt>
      <trkpt lat="43.55852" lon="1.11926">
        <ele>299</ele>
        <time>2020-11-29T10:21:31Z</time>
      </trkpt>
      <trkpt lat="43.55852" lon="1.11925">
        <ele>299</ele>
        <time>2020-11-29T10:21:32Z</time>
      </trkpt>
      <trkpt lat="43.55851" lon="1.11925">
        <ele>299</ele>
        <time>2020-11-29T10:21:33Z</time>
      </trkpt>
      <trkpt lat="43.55851" lon="1.11925">
        <ele>299.1</ele>
        <time>2020-11-29T10:21:34Z</time>
      </trkpt>
      <trkpt lat="43.55851" lon="1.11925">
        <ele>299.1</ele>
        <time>2020-11-29T10:21:35Z</time>
      </trkpt>
      <trkpt lat="43.55851" lon="1.11925">
        <ele>299.1</ele>
        <time>2020-11-29T10:21:36Z</time>
      </trkpt>
      <trkpt lat="43.55851" lon="1.11925">
        <ele>299.1</ele>
        <time>2020-11-29T10:21:37Z</time>
      </trkpt>
      <trkpt lat="43.55851" lon="1.11925">
        <ele>299.1</ele>
        <time>2020-11-29T10:21:38Z</time>
      </trkpt>
      <trkpt lat="43.55851" lon="1.11925">
        <ele>299.1</ele>
        <time>2020-11-29T10:21:39Z</time>
      </trkpt>
      <trkpt lat="43.55851" lon="1.11925">
        <ele>299.1</ele>
        <time>2020-11-29T10:21:40Z</time>
      </trkpt>
      <trkpt lat="43.55851" lon="1.11924">
        <ele>299.1</ele>
        <time>2020-11-29T10:21:41Z</time>
      </trkpt>
      <trkpt lat="43.55851" lon="1.11924">
        <ele>299.1</ele>
        <time>2020-11-29T10:21:42Z</time>
      </trkpt>
      <trkpt lat="43.55851" lon="1.11924">
        <ele>299.1</ele>
        <time>2020-11-29T10:21:43Z</time>
      </trkpt>
      <trkpt lat="43.55851" lon="1.11924">
        <ele>299.1</ele>
        <time>2020-11-29T10:21:44Z</time>
      </trkpt>
      <trkpt lat="43.55851" lon="1.11924">
        <ele>299.1</ele>
        <time>2020-11-29T10:21:45Z</time>
      </trkpt>
      <trkpt lat="43.55851" lon="1.11925">
        <ele>299.1</ele>
        <time>2020-11-29T10:21:46Z</time>
      </trkpt>
      <trkpt lat="43.55851" lon="1.11925">
        <ele>299.1</ele>
        <time>2020-11-29T10:21:47Z</time>
      </trkpt>
      <trkpt lat="43.55851" lon="1.11925">
        <ele>299.1</ele>
        <time>2020-11-29T10:21:48Z</time>
      </trkpt>
      <trkpt lat="43.55851" lon="1.11925">
        <ele>299.1</ele>
        <time>2020-11-29T10:21:49Z</time>
      </trkpt>
      <trkpt lat="43.55851" lon="1.11927">
        <ele>299.2</ele>
        <time>2020-11-29T10:21:50Z</time>
      </trkpt>
      <trkpt lat="43.55852" lon="1.11927">
        <ele>299.2</ele>
        <time>2020-11-29T10:21:51Z</time>
      </trkpt>
      <trkpt lat="43.55852" lon="1.11926">
        <ele>299.2</ele>
        <time>2020-11-29T10:21:52Z</time>
      </trkpt>
      <trkpt lat="43.55852" lon="1.11926">
        <ele>299.2</ele>
        <time>2020-11-29T10:21:53Z</time>
      </trkpt>
      <trkpt lat="43.55852" lon="1.11926">
        <ele>299.2</ele>
        <time>2020-11-29T10:21:54Z</time>
      </trkpt>
      <trkpt lat="43.55852" lon="1.11926">
        <ele>299.3</ele>
        <time>2020-11-29T10:21:55Z</time>
      </trkpt>
      <trkpt lat="43.55852" lon="1.11925">
        <ele>299.3</ele>
        <time>2020-11-29T10:21:56Z</time>
      </trkpt>
      <trkpt lat="43.55852" lon="1.11925">
        <ele>299.3</ele>
        <time>2020-11-29T10:21:57Z</time>
      </trkpt>
      <trkpt lat="43.55852" lon="1.11925">
        <ele>299.3</ele>
        <time>2020-11-29T10:21:58Z</time>
      </trkpt>
      <trkpt lat="43.55852" lon="1.11925">
        <ele>299.3</ele>
        <time>2020-11-29T10:21:59Z</time>
      </trkpt>
      <trkpt lat="43.55852" lon="1.11925">
        <ele>299.3</ele>
        <time>2020-11-29T10:22:00Z</time>
      </trkpt>
      <trkpt lat="43.55852" lon="1.11925">
        <ele>299.3</ele>
        <time>2020-11-29T10:22:01Z</time>
      </trkpt>
      <trkpt lat="43.55852" lon="1.11925">
        <ele>299.3</ele>
        <time>2020-11-29T10:22:02Z</time>
      </trkpt>
      <trkpt lat="43.55852" lon="1.11925">
        <ele>299.3</ele>
        <time>2020-11-29T10:22:03Z</time>
      </trkpt>
      <trkpt lat="43.55852" lon="1.11925">
        <ele>299.3</ele>
        <time>2020-11-29T10:22:04Z</time>
      </trkpt>
      <trkpt lat="43.55852" lon="1.11925">
        <ele>299.3</ele>
        <time>2020-11-29T10:22:05Z</time>
      </trkpt>
      <trkpt lat="43.55852" lon="1.11925">
        <ele>299.3</ele>
        <time>2020-11-29T10:22:06Z</time>
      </trkpt>
      <trkpt lat="43.55852" lon="1.11925">
        <ele>299.3</ele>
        <time>2020-11-29T10:22:07Z</time>
      </trkpt>
      <trkpt lat="43.55852" lon="1.11925">
        <ele>299.3</ele>
        <time>2020-11-29T10:22:08Z</time>
      </trkpt>
      <trkpt lat="43.55852" lon="1.11925">
        <ele>299.3</ele>
        <time>2020-11-29T10:22:09Z</time>
      </trkpt>
      <trkpt lat="43.55852" lon="1.11925">
        <ele>299.3</ele>
        <time>2020-11-29T10:22:10Z</time>
      </trkpt>
      <trkpt lat="43.55852" lon="1.11925">
        <ele>299.4</ele>
        <time>2020-11-29T10:22:11Z</time>
      </trkpt>
      <trkpt lat="43.55852" lon="1.11925">
        <ele>299.4</ele>
        <time>2020-11-29T10:22:12Z</time>
      </trkpt>
      <trkpt lat="43.55852" lon="1.11925">
        <ele>299.4</ele>
        <time>2020-11-29T10:22:13Z</time>
      </trkpt>
      <trkpt lat="43.55852" lon="1.11924">
        <ele>299.4</ele>
        <time>2020-11-29T10:22:14Z</time>
      </trkpt>
      <trkpt lat="43.55851" lon="1.11923">
        <ele>299.4</ele>
        <time>2020-11-29T10:22:15Z</time>
      </trkpt>
      <trkpt lat="43.55851" lon="1.11923">
        <ele>299.4</ele>
        <time>2020-11-29T10:22:16Z</time>
      </trkpt>
      <trkpt lat="43.55851" lon="1.11922">
        <ele>299.5</ele>
        <time>2020-11-29T10:22:17Z</time>
      </trkpt>
      <trkpt lat="43.55851" lon="1.11921">
        <ele>299.5</ele>
        <time>2020-11-29T10:22:18Z</time>
      </trkpt>
      <trkpt lat="43.55851" lon="1.11921">
        <ele>299.5</ele>
        <time>2020-11-29T10:22:19Z</time>
      </trkpt>
      <trkpt lat="43.55851" lon="1.11921">
        <ele>299.6</ele>
        <time>2020-11-29T10:22:20Z</time>
      </trkpt>
      <trkpt lat="43.55852" lon="1.1192">
        <ele>299.6</ele>
        <time>2020-11-29T10:22:21Z</time>
      </trkpt>
      <trkpt lat="43.55851" lon="1.11922">
        <ele>299.6</ele>
        <time>2020-11-29T10:22:22Z</time>
      </trkpt>
      <trkpt lat="43.55851" lon="1.11923">
        <ele>299.7</ele>
        <time>2020-11-29T10:22:23Z</time>
      </trkpt>
      <trkpt lat="43.5585" lon="1.11924">
        <ele>299.7</ele>
        <time>2020-11-29T10:22:24Z</time>
      </trkpt>
      <trkpt lat="43.55849" lon="1.11925">
        <ele>299.8</ele>
        <time>2020-11-29T10:22:25Z</time>
      </trkpt>
      <trkpt lat="43.55848" lon="1.11927">
        <ele>299.8</ele>
        <time>2020-11-29T10:22:26Z</time>
      </trkpt>
      <trkpt lat="43.55848" lon="1.11927">
        <ele>299.8</ele>
        <time>2020-11-29T10:22:27Z</time>
      </trkpt>
      <trkpt lat="43.55847" lon="1.11927">
        <ele>299.8</ele>
        <time>2020-11-29T10:22:28Z</time>
      </trkpt>
      <trkpt lat="43.55847" lon="1.11927">
        <ele>299.9</ele>
        <time>2020-11-29T10:22:29Z</time>
      </trkpt>
      <trkpt lat="43.55847" lon="1.11927">
        <ele>299.9</ele>
        <time>2020-11-29T10:22:30Z</time>
      </trkpt>
      <trkpt lat="43.55847" lon="1.11927">
        <ele>299.9</ele>
        <time>2020-11-29T10:22:31Z</time>
      </trkpt>
      <trkpt lat="43.55847" lon="1.11927">
        <ele>299.9</ele>
        <time>2020-11-29T10:22:32Z</time>
      </trkpt>
      <trkpt lat="43.55847" lon="1.11927">
        <ele>299.9</ele>
        <time>2020-11-29T10:22:33Z</time>
      </trkpt>
      <trkpt lat="43.55847" lon="1.11927">
        <ele>299.9</ele>
        <time>2020-11-29T10:22:34Z</time>
      </trkpt>
      <trkpt lat="43.55847" lon="1.11927">
        <ele>299.9</ele>
        <time>2020-11-29T10:22:35Z</time>
      </trkpt>
      <trkpt lat="43.55847" lon="1.11927">
        <ele>299.9</ele>
        <time>2020-11-29T10:22:36Z</time>
      </trkpt>
      <trkpt lat="43.55847" lon="1.11927">
        <ele>299.9</ele>
        <time>2020-11-29T10:22:37Z</time>
      </trkpt>
      <trkpt lat="43.55847" lon="1.11926">
        <ele>299.9</ele>
        <time>2020-11-29T10:22:38Z</time>
      </trkpt>
      <trkpt lat="43.55847" lon="1.11926">
        <ele>299.9</ele>
        <time>2020-11-29T10:22:39Z</time>
      </trkpt>
      <trkpt lat="43.55847" lon="1.11926">
        <ele>299.9</ele>
        <time>2020-11-29T10:22:40Z</time>
      </trkpt>
      <trkpt lat="43.55847" lon="1.11926">
        <ele>299.9</ele>
        <time>2020-11-29T10:22:41Z</time>
      </trkpt>
      <trkpt lat="43.55847" lon="1.11926">
        <ele>299.9</ele>
        <time>2020-11-29T10:22:42Z</time>
      </trkpt>
      <trkpt lat="43.55847" lon="1.11926">
        <ele>299.9</ele>
        <time>2020-11-29T10:22:43Z</time>
      </trkpt>
      <trkpt lat="43.55847" lon="1.11926">
        <ele>299.9</ele>
        <time>2020-11-29T10:22:44Z</time>
      </trkpt>
      <trkpt lat="43.55847" lon="1.11926">
        <ele>299.9</ele>
        <time>2020-11-29T10:22:45Z</time>
      </trkpt>
      <trkpt lat="43.55846" lon="1.11926">
        <ele>299.9</ele>
        <time>2020-11-29T10:22:46Z</time>
      </trkpt>
      <trkpt lat="43.55846" lon="1.11925">
        <ele>299.9</ele>
        <time>2020-11-29T10:22:47Z</time>
      </trkpt>
      <trkpt lat="43.55847" lon="1.11926">
        <ele>299.9</ele>
        <time>2020-11-29T10:22:48Z</time>
      </trkpt>
      <trkpt lat="43.55847" lon="1.11926">
        <ele>299.9</ele>
        <time>2020-11-29T10:22:49Z</time>
      </trkpt>
      <trkpt lat="43.55846" lon="1.11923">
        <ele>300</ele>
        <time>2020-11-29T10:22:50Z</time>
      </trkpt>
      <trkpt lat="43.55845" lon="1.11927">
        <ele>300.1</ele>
        <time>2020-11-29T10:22:51Z</time>
      </trkpt>
      <trkpt lat="43.55844" lon="1.11926">
        <ele>300.1</ele>
        <time>2020-11-29T10:22:52Z</time>
      </trkpt>
      <trkpt lat="43.55844" lon="1.11926">
        <ele>300.1</ele>
        <time>2020-11-29T10:22:53Z</time>
      </trkpt>
      <trkpt lat="43.55844" lon="1.11926">
        <ele>300.1</ele>
        <time>2020-11-29T10:22:54Z</time>
      </trkpt>
      <trkpt lat="43.55844" lon="1.11926">
        <ele>300.1</ele>
        <time>2020-11-29T10:22:55Z</time>
      </trkpt>
      <trkpt lat="43.55844" lon="1.11925">
        <ele>300.1</ele>
        <time>2020-11-29T10:22:56Z</time>
      </trkpt>
      <trkpt lat="43.55844" lon="1.11925">
        <ele>300.1</ele>
        <time>2020-11-29T10:22:57Z</time>
      </trkpt>
      <trkpt lat="43.55845" lon="1.11925">
        <ele>300.1</ele>
        <time>2020-11-29T10:22:58Z</time>
      </trkpt>
      <trkpt lat="43.55844" lon="1.11926">
        <ele>300.1</ele>
        <time>2020-11-29T10:22:59Z</time>
      </trkpt>
      <trkpt lat="43.55845" lon="1.11926">
        <ele>300.1</ele>
        <time>2020-11-29T10:23:00Z</time>
      </trkpt>
      <trkpt lat="43.55845" lon="1.11927">
        <ele>300.1</ele>
        <time>2020-11-29T10:23:01Z</time>
      </trkpt>
      <trkpt lat="43.55845" lon="1.11928">
        <ele>300.1</ele>
        <time>2020-11-29T10:23:02Z</time>
      </trkpt>
      <trkpt lat="43.55845" lon="1.11928">
        <ele>300.1</ele>
        <time>2020-11-29T10:23:03Z</time>
      </trkpt>
      <trkpt lat="43.55846" lon="1.11929">
        <ele>300.2</ele>
        <time>2020-11-29T10:23:04Z</time>
      </trkpt>
      <trkpt lat="43.55848" lon="1.1193">
        <ele>300.2</ele>
        <time>2020-11-29T10:23:05Z</time>
      </trkpt>
      <trkpt lat="43.55851" lon="1.11932">
        <ele>300.2</ele>
        <time>2020-11-29T10:23:06Z</time>
      </trkpt>
      <trkpt lat="43.55855" lon="1.11934">
        <ele>300.2</ele>
        <time>2020-11-29T10:23:07Z</time>
      </trkpt>
      <trkpt lat="43.55859" lon="1.11935">
        <ele>300.2</ele>
        <time>2020-11-29T10:23:08Z</time>
      </trkpt>
      <trkpt lat="43.55862" lon="1.11938">
        <ele>300.1</ele>
        <time>2020-11-29T10:23:09Z</time>
      </trkpt>
      <trkpt lat="43.55866" lon="1.11941">
        <ele>299.9</ele>
        <time>2020-11-29T10:23:10Z</time>
      </trkpt>
      <trkpt lat="43.5587" lon="1.11943">
        <ele>299.8</ele>
        <time>2020-11-29T10:23:11Z</time>
      </trkpt>
      <trkpt lat="43.55874" lon="1.11946">
        <ele>299.6</ele>
        <time>2020-11-29T10:23:12Z</time>
      </trkpt>
      <trkpt lat="43.5588" lon="1.1195">
        <ele>299.4</ele>
        <time>2020-11-29T10:23:13Z</time>
      </trkpt>
      <trkpt lat="43.55885" lon="1.11953">
        <ele>299.2</ele>
        <time>2020-11-29T10:23:14Z</time>
      </trkpt>
      <trkpt lat="43.55891" lon="1.11957">
        <ele>299</ele>
        <time>2020-11-29T10:23:15Z</time>
      </trkpt>
      <trkpt lat="43.55896" lon="1.1196">
        <ele>298.8</ele>
        <time>2020-11-29T10:23:16Z</time>
      </trkpt>
      <trkpt lat="43.55902" lon="1.11963">
        <ele>298.6</ele>
        <time>2020-11-29T10:23:17Z</time>
      </trkpt>
      <trkpt lat="43.55908" lon="1.11966">
        <ele>298.5</ele>
        <time>2020-11-29T10:23:18Z</time>
      </trkpt>
      <trkpt lat="43.55913" lon="1.11969">
        <ele>298.4</ele>
        <time>2020-11-29T10:23:19Z</time>
      </trkpt>
      <trkpt lat="43.5592" lon="1.11973">
        <ele>298.3</ele>
        <time>2020-11-29T10:23:20Z</time>
      </trkpt>
      <trkpt lat="43.55925" lon="1.11974">
        <ele>298.3</ele>
        <time>2020-11-29T10:23:21Z</time>
      </trkpt>
      <trkpt lat="43.55932" lon="1.11978">
        <ele>298.2</ele>
        <time>2020-11-29T10:23:22Z</time>
      </trkpt>
      <trkpt lat="43.55938" lon="1.11981">
        <ele>298.1</ele>
        <time>2020-11-29T10:23:23Z</time>
      </trkpt>
      <trkpt lat="43.55945" lon="1.11984">
        <ele>298</ele>
        <time>2020-11-29T10:23:24Z</time>
      </trkpt>
      <trkpt lat="43.5595" lon="1.11988">
        <ele>298</ele>
        <time>2020-11-29T10:23:25Z</time>
      </trkpt>
      <trkpt lat="43.55956" lon="1.11992">
        <ele>297.9</ele>
        <time>2020-11-29T10:23:26Z</time>
      </trkpt>
      <trkpt lat="43.55962" lon="1.11993">
        <ele>297.8</ele>
        <time>2020-11-29T10:23:27Z</time>
      </trkpt>
      <trkpt lat="43.55968" lon="1.11996">
        <ele>297.8</ele>
        <time>2020-11-29T10:23:28Z</time>
      </trkpt>
      <trkpt lat="43.55973" lon="1.11999">
        <ele>297.8</ele>
        <time>2020-11-29T10:23:29Z</time>
      </trkpt>
      <trkpt lat="43.55978" lon="1.12002">
        <ele>297.8</ele>
        <time>2020-11-29T10:23:30Z</time>
      </trkpt>
      <trkpt lat="43.55984" lon="1.12006">
        <ele>297.7</ele>
        <time>2020-11-29T10:23:31Z</time>
      </trkpt>
      <trkpt lat="43.55989" lon="1.12008">
        <ele>297.7</ele>
        <time>2020-11-29T10:23:32Z</time>
      </trkpt>
      <trkpt lat="43.55994" lon="1.12011">
        <ele>297.7</ele>
        <time>2020-11-29T10:23:33Z</time>
      </trkpt>
      <trkpt lat="43.56001" lon="1.12016">
        <ele>297.8</ele>
        <time>2020-11-29T10:23:34Z</time>
      </trkpt>
      <trkpt lat="43.56008" lon="1.12019">
        <ele>297.8</ele>
        <time>2020-11-29T10:23:35Z</time>
      </trkpt>
      <trkpt lat="43.56014" lon="1.12023">
        <ele>297.9</ele>
        <time>2020-11-29T10:23:36Z</time>
      </trkpt>
      <trkpt lat="43.5602" lon="1.12024">
        <ele>298</ele>
        <time>2020-11-29T10:23:37Z</time>
      </trkpt>
      <trkpt lat="43.56027" lon="1.12027">
        <ele>298.1</ele>
        <time>2020-11-29T10:23:38Z</time>
      </trkpt>
      <trkpt lat="43.56031" lon="1.12029">
        <ele>298.2</ele>
        <time>2020-11-29T10:23:39Z</time>
      </trkpt>
      <trkpt lat="43.56036" lon="1.12031">
        <ele>298.3</ele>
        <time>2020-11-29T10:23:40Z</time>
      </trkpt>
      <trkpt lat="43.5604" lon="1.12032">
        <ele>298.4</ele>
        <time>2020-11-29T10:23:41Z</time>
      </trkpt>
      <trkpt lat="43.56044" lon="1.12032">
        <ele>298.5</ele>
        <time>2020-11-29T10:23:42Z</time>
      </trkpt>
      <trkpt lat="43.56049" lon="1.1203">
        <ele>298.7</ele>
        <time>2020-11-29T10:23:43Z</time>
      </trkpt>
      <trkpt lat="43.56053" lon="1.12024">
        <ele>298.8</ele>
        <time>2020-11-29T10:23:44Z</time>
      </trkpt>
      <trkpt lat="43.56055" lon="1.12019">
        <ele>298.9</ele>
        <time>2020-11-29T10:23:45Z</time>
      </trkpt>
      <trkpt lat="43.56055" lon="1.12017">
        <ele>299</ele>
        <time>2020-11-29T10:23:46Z</time>
      </trkpt>
      <trkpt lat="43.56054" lon="1.12013">
        <ele>299</ele>
        <time>2020-11-29T10:23:47Z</time>
      </trkpt>
      <trkpt lat="43.56055" lon="1.12012">
        <ele>299.2</ele>
        <time>2020-11-29T10:23:48Z</time>
      </trkpt>
      <trkpt lat="43.56056" lon="1.12011">
        <ele>299.3</ele>
        <time>2020-11-29T10:23:49Z</time>
      </trkpt>
      <trkpt lat="43.56055" lon="1.12008">
        <ele>299.4</ele>
        <time>2020-11-29T10:23:50Z</time>
      </trkpt>
      <trkpt lat="43.56054" lon="1.12004">
        <ele>299.5</ele>
        <time>2020-11-29T10:23:51Z</time>
      </trkpt>
      <trkpt lat="43.56052" lon="1.12">
        <ele>299.5</ele>
        <time>2020-11-29T10:23:52Z</time>
      </trkpt>
      <trkpt lat="43.5605" lon="1.11994">
        <ele>299.5</ele>
        <time>2020-11-29T10:23:53Z</time>
      </trkpt>
      <trkpt lat="43.56046" lon="1.11987">
        <ele>299.5</ele>
        <time>2020-11-29T10:23:54Z</time>
      </trkpt>
      <trkpt lat="43.56043" lon="1.1198">
        <ele>299.5</ele>
        <time>2020-11-29T10:23:55Z</time>
      </trkpt>
      <trkpt lat="43.5604" lon="1.11973">
        <ele>299.5</ele>
        <time>2020-11-29T10:23:56Z</time>
      </trkpt>
      <trkpt lat="43.56036" lon="1.11965">
        <ele>299.5</ele>
        <time>2020-11-29T10:23:57Z</time>
      </trkpt>
      <trkpt lat="43.56033" lon="1.11957">
        <ele>299.6</ele>
        <time>2020-11-29T10:23:58Z</time>
      </trkpt>
      <trkpt lat="43.5603" lon="1.11949">
        <ele>299.6</ele>
        <time>2020-11-29T10:23:59Z</time>
      </trkpt>
      <trkpt lat="43.56027" lon="1.11941">
        <ele>299.7</ele>
        <time>2020-11-29T10:24:00Z</time>
      </trkpt>
      <trkpt lat="43.56024" lon="1.11935">
        <ele>299.7</ele>
        <time>2020-11-29T10:24:01Z</time>
      </trkpt>
      <trkpt lat="43.5602" lon="1.11928">
        <ele>299.8</ele>
        <time>2020-11-29T10:24:02Z</time>
      </trkpt>
      <trkpt lat="43.56017" lon="1.11921">
        <ele>299.8</ele>
        <time>2020-11-29T10:24:03Z</time>
      </trkpt>
      <trkpt lat="43.56014" lon="1.11915">
        <ele>299.9</ele>
        <time>2020-11-29T10:24:04Z</time>
      </trkpt>
      <trkpt lat="43.56013" lon="1.11909">
        <ele>299.9</ele>
        <time>2020-11-29T10:24:05Z</time>
      </trkpt>
      <trkpt lat="43.56012" lon="1.11902">
        <ele>299.9</ele>
        <time>2020-11-29T10:24:06Z</time>
      </trkpt>
      <trkpt lat="43.56012" lon="1.11896">
        <ele>299.8</ele>
        <time>2020-11-29T10:24:07Z</time>
      </trkpt>
      <trkpt lat="43.56012" lon="1.11891">
        <ele>299.8</ele>
        <time>2020-11-29T10:24:08Z</time>
      </trkpt>
      <trkpt lat="43.56013" lon="1.11885">
        <ele>299.8</ele>
        <time>2020-11-29T10:24:09Z</time>
      </trkpt>
      <trkpt lat="43.56013" lon="1.11879">
        <ele>299.8</ele>
        <time>2020-11-29T10:24:10Z</time>
      </trkpt>
      <trkpt lat="43.56015" lon="1.11873">
        <ele>299.7</ele>
        <time>2020-11-29T10:24:11Z</time>
      </trkpt>
      <trkpt lat="43.56017" lon="1.11867">
        <ele>299.7</ele>
        <time>2020-11-29T10:24:12Z</time>
      </trkpt>
      <trkpt lat="43.56018" lon="1.11859">
        <ele>299.7</ele>
        <time>2020-11-29T10:24:13Z</time>
      </trkpt>
      <trkpt lat="43.5602" lon="1.11853">
        <ele>299.6</ele>
        <time>2020-11-29T10:24:14Z</time>
      </trkpt>
      <trkpt lat="43.56021" lon="1.11847">
        <ele>299.6</ele>
        <time>2020-11-29T10:24:15Z</time>
      </trkpt>
      <trkpt lat="43.56022" lon="1.1184">
        <ele>299.5</ele>
        <time>2020-11-29T10:24:16Z</time>
      </trkpt>
      <trkpt lat="43.56022" lon="1.11833">
        <ele>299.5</ele>
        <time>2020-11-29T10:24:17Z</time>
      </trkpt>
      <trkpt lat="43.56023" lon="1.11826">
        <ele>299.4</ele>
        <time>2020-11-29T10:24:18Z</time>
      </trkpt>
      <trkpt lat="43.56023" lon="1.11819">
        <ele>299.4</ele>
        <time>2020-11-29T10:24:19Z</time>
      </trkpt>
      <trkpt lat="43.56023" lon="1.11811">
        <ele>299.4</ele>
        <time>2020-11-29T10:24:20Z</time>
      </trkpt>
      <trkpt lat="43.56022" lon="1.11803">
        <ele>299.3</ele>
        <time>2020-11-29T10:24:21Z</time>
      </trkpt>
      <trkpt lat="43.56021" lon="1.11795">
        <ele>299.3</ele>
        <time>2020-11-29T10:24:22Z</time>
      </trkpt>
      <trkpt lat="43.5602" lon="1.11788">
        <ele>299.3</ele>
        <time>2020-11-29T10:24:23Z</time>
      </trkpt>
      <trkpt lat="43.56018" lon="1.11781">
        <ele>299.4</ele>
        <time>2020-11-29T10:24:24Z</time>
      </trkpt>
      <trkpt lat="43.56017" lon="1.11774">
        <ele>299.4</ele>
        <time>2020-11-29T10:24:25Z</time>
      </trkpt>
      <trkpt lat="43.56015" lon="1.11768">
        <ele>299.4</ele>
        <time>2020-11-29T10:24:26Z</time>
      </trkpt>
      <trkpt lat="43.56013" lon="1.11762">
        <ele>299.4</ele>
        <time>2020-11-29T10:24:27Z</time>
      </trkpt>
      <trkpt lat="43.56012" lon="1.11755">
        <ele>299.4</ele>
        <time>2020-11-29T10:24:28Z</time>
      </trkpt>
      <trkpt lat="43.56011" lon="1.11748">
        <ele>299.5</ele>
        <time>2020-11-29T10:24:29Z</time>
      </trkpt>
      <trkpt lat="43.5601" lon="1.11742">
        <ele>299.5</ele>
        <time>2020-11-29T10:24:30Z</time>
      </trkpt>
      <trkpt lat="43.56009" lon="1.11735">
        <ele>299.6</ele>
        <time>2020-11-29T10:24:31Z</time>
      </trkpt>
      <trkpt lat="43.56008" lon="1.11727">
        <ele>299.8</ele>
        <time>2020-11-29T10:24:32Z</time>
      </trkpt>
      <trkpt lat="43.56008" lon="1.1172">
        <ele>300</ele>
        <time>2020-11-29T10:24:33Z</time>
      </trkpt>
      <trkpt lat="43.56007" lon="1.11712">
        <ele>300.2</ele>
        <time>2020-11-29T10:24:34Z</time>
      </trkpt>
      <trkpt lat="43.56007" lon="1.11705">
        <ele>300.4</ele>
        <time>2020-11-29T10:24:35Z</time>
      </trkpt>
      <trkpt lat="43.56008" lon="1.11698">
        <ele>300.7</ele>
        <time>2020-11-29T10:24:36Z</time>
      </trkpt>
      <trkpt lat="43.56008" lon="1.1169">
        <ele>300.9</ele>
        <time>2020-11-29T10:24:37Z</time>
      </trkpt>
      <trkpt lat="43.56007" lon="1.11683">
        <ele>301.1</ele>
        <time>2020-11-29T10:24:38Z</time>
      </trkpt>
      <trkpt lat="43.56007" lon="1.11677">
        <ele>301.2</ele>
        <time>2020-11-29T10:24:39Z</time>
      </trkpt>
      <trkpt lat="43.56006" lon="1.11671">
        <ele>301.3</ele>
        <time>2020-11-29T10:24:40Z</time>
      </trkpt>
      <trkpt lat="43.56007" lon="1.11666">
        <ele>301.4</ele>
        <time>2020-11-29T10:24:41Z</time>
      </trkpt>
      <trkpt lat="43.56008" lon="1.11661">
        <ele>301.6</ele>
        <time>2020-11-29T10:24:42Z</time>
      </trkpt>
      <trkpt lat="43.56009" lon="1.11658">
        <ele>301.6</ele>
        <time>2020-11-29T10:24:43Z</time>
      </trkpt>
      <trkpt lat="43.56008" lon="1.11658">
        <ele>301.7</ele>
        <time>2020-11-29T10:24:44Z</time>
      </trkpt>
      <trkpt lat="43.56009" lon="1.11657">
        <ele>301.7</ele>
        <time>2020-11-29T10:24:45Z</time>
      </trkpt>
      <trkpt lat="43.56009" lon="1.11653">
        <ele>301.8</ele>
        <time>2020-11-29T10:24:46Z</time>
      </trkpt>
      <trkpt lat="43.56009" lon="1.11652">
        <ele>301.8</ele>
        <time>2020-11-29T10:24:47Z</time>
      </trkpt>
      <trkpt lat="43.5601" lon="1.11651">
        <ele>301.8</ele>
        <time>2020-11-29T10:24:48Z</time>
      </trkpt>
      <trkpt lat="43.56012" lon="1.11654">
        <ele>301.7</ele>
        <time>2020-11-29T10:24:49Z</time>
      </trkpt>
      <trkpt lat="43.56013" lon="1.11656">
        <ele>301.6</ele>
        <time>2020-11-29T10:24:50Z</time>
      </trkpt>
      <trkpt lat="43.56016" lon="1.11659">
        <ele>301.6</ele>
        <time>2020-11-29T10:24:51Z</time>
      </trkpt>
      <trkpt lat="43.56017" lon="1.11663">
        <ele>301.5</ele>
        <time>2020-11-29T10:24:52Z</time>
      </trkpt>
      <trkpt lat="43.5602" lon="1.11669">
        <ele>301.4</ele>
        <time>2020-11-29T10:24:53Z</time>
      </trkpt>
      <trkpt lat="43.56022" lon="1.11677">
        <ele>301.3</ele>
        <time>2020-11-29T10:24:54Z</time>
      </trkpt>
      <trkpt lat="43.56024" lon="1.11683">
        <ele>301.2</ele>
        <time>2020-11-29T10:24:55Z</time>
      </trkpt>
      <trkpt lat="43.56027" lon="1.11689">
        <ele>299.1</ele>
        <time>2020-11-29T10:24:56Z</time>
      </trkpt>
      <trkpt lat="43.56028" lon="1.11694">
        <ele>298.8</ele>
        <time>2020-11-29T10:24:57Z</time>
      </trkpt>
      <trkpt lat="43.5603" lon="1.11698">
        <ele>298.4</ele>
        <time>2020-11-29T10:24:58Z</time>
      </trkpt>
      <trkpt lat="43.56032" lon="1.117">
        <ele>298.1</ele>
        <time>2020-11-29T10:24:59Z</time>
      </trkpt>
      <trkpt lat="43.56036" lon="1.11702">
        <ele>297.6</ele>
        <time>2020-11-29T10:25:00Z</time>
      </trkpt>
      <trkpt lat="43.5604" lon="1.11703">
        <ele>297.2</ele>
        <time>2020-11-29T10:25:01Z</time>
      </trkpt>
      <trkpt lat="43.56044" lon="1.11702">
        <ele>296.7</ele>
        <time>2020-11-29T10:25:02Z</time>
      </trkpt>
      <trkpt lat="43.56048" lon="1.11702">
        <ele>296.2</ele>
        <time>2020-11-29T10:25:03Z</time>
      </trkpt>
      <trkpt lat="43.56052" lon="1.11702">
        <ele>295.6</ele>
        <time>2020-11-29T10:25:04Z</time>
      </trkpt>
      <trkpt lat="43.56053" lon="1.11702">
        <ele>295.4</ele>
        <time>2020-11-29T10:25:05Z</time>
      </trkpt>
      <trkpt lat="43.56057" lon="1.117">
        <ele>294.8</ele>
        <time>2020-11-29T10:25:06Z</time>
      </trkpt>
      <trkpt lat="43.56058" lon="1.11699">
        <ele>294.5</ele>
        <time>2020-11-29T10:25:07Z</time>
      </trkpt>
      <trkpt lat="43.56062" lon="1.11698">
        <ele>294</ele>
        <time>2020-11-29T10:25:08Z</time>
      </trkpt>
      <trkpt lat="43.56064" lon="1.11696">
        <ele>293.5</ele>
        <time>2020-11-29T10:25:09Z</time>
      </trkpt>
      <trkpt lat="43.56064" lon="1.11694">
        <ele>293.3</ele>
        <time>2020-11-29T10:25:10Z</time>
      </trkpt>
      <trkpt lat="43.56063" lon="1.11692">
        <ele>293</ele>
        <time>2020-11-29T10:25:11Z</time>
      </trkpt>
      <trkpt lat="43.56063" lon="1.1169">
        <ele>292.8</ele>
        <time>2020-11-29T10:25:12Z</time>
      </trkpt>
      <trkpt lat="43.56066" lon="1.11687">
        <ele>292.3</ele>
        <time>2020-11-29T10:25:13Z</time>
      </trkpt>
      <trkpt lat="43.56069" lon="1.11686">
        <ele>291.8</ele>
        <time>2020-11-29T10:25:14Z</time>
      </trkpt>
      <trkpt lat="43.5607" lon="1.11686">
        <ele>291.6</ele>
        <time>2020-11-29T10:25:15Z</time>
      </trkpt>
      <trkpt lat="43.56073" lon="1.11684">
        <ele>291</ele>
        <time>2020-11-29T10:25:16Z</time>
      </trkpt>
      <trkpt lat="43.56075" lon="1.1168">
        <ele>290.6</ele>
        <time>2020-11-29T10:25:17Z</time>
      </trkpt>
      <trkpt lat="43.56079" lon="1.11676">
        <ele>290</ele>
        <time>2020-11-29T10:25:18Z</time>
      </trkpt>
      <trkpt lat="43.56081" lon="1.11674">
        <ele>289.8</ele>
        <time>2020-11-29T10:25:19Z</time>
      </trkpt>
      <trkpt lat="43.56083" lon="1.11671">
        <ele>289.4</ele>
        <time>2020-11-29T10:25:20Z</time>
      </trkpt>
      <trkpt lat="43.56084" lon="1.11669">
        <ele>289.2</ele>
        <time>2020-11-29T10:25:21Z</time>
      </trkpt>
      <trkpt lat="43.56087" lon="1.11666">
        <ele>288.8</ele>
        <time>2020-11-29T10:25:22Z</time>
      </trkpt>
      <trkpt lat="43.56089" lon="1.11664">
        <ele>288.5</ele>
        <time>2020-11-29T10:25:23Z</time>
      </trkpt>
      <trkpt lat="43.5609" lon="1.11662">
        <ele>288.4</ele>
        <time>2020-11-29T10:25:24Z</time>
      </trkpt>
      <trkpt lat="43.56093" lon="1.11658">
        <ele>287.9</ele>
        <time>2020-11-29T10:25:25Z</time>
      </trkpt>
      <trkpt lat="43.56094" lon="1.11655">
        <ele>287.6</ele>
        <time>2020-11-29T10:25:26Z</time>
      </trkpt>
      <trkpt lat="43.56096" lon="1.11652">
        <ele>287.3</ele>
        <time>2020-11-29T10:25:27Z</time>
      </trkpt>
      <trkpt lat="43.56099" lon="1.11649">
        <ele>286.9</ele>
        <time>2020-11-29T10:25:28Z</time>
      </trkpt>
      <trkpt lat="43.56103" lon="1.11647">
        <ele>286.4</ele>
        <time>2020-11-29T10:25:29Z</time>
      </trkpt>
      <trkpt lat="43.56107" lon="1.11646">
        <ele>286</ele>
        <time>2020-11-29T10:25:30Z</time>
      </trkpt>
      <trkpt lat="43.5611" lon="1.11643">
        <ele>285.7</ele>
        <time>2020-11-29T10:25:31Z</time>
      </trkpt>
      <trkpt lat="43.56113" lon="1.11637">
        <ele>285.1</ele>
        <time>2020-11-29T10:25:32Z</time>
      </trkpt>
      <trkpt lat="43.56115" lon="1.11633">
        <ele>284.7</ele>
        <time>2020-11-29T10:25:33Z</time>
      </trkpt>
      <trkpt lat="43.56117" lon="1.11629">
        <ele>284.4</ele>
        <time>2020-11-29T10:25:34Z</time>
      </trkpt>
      <trkpt lat="43.56117" lon="1.11624">
        <ele>284</ele>
        <time>2020-11-29T10:25:35Z</time>
      </trkpt>
      <trkpt lat="43.56119" lon="1.11619">
        <ele>283.6</ele>
        <time>2020-11-29T10:25:36Z</time>
      </trkpt>
      <trkpt lat="43.5612" lon="1.11618">
        <ele>283.5</ele>
        <time>2020-11-29T10:25:37Z</time>
      </trkpt>
      <trkpt lat="43.56122" lon="1.11616">
        <ele>283.2</ele>
        <time>2020-11-29T10:25:38Z</time>
      </trkpt>
      <trkpt lat="43.56122" lon="1.11616">
        <ele>283.1</ele>
        <time>2020-11-29T10:25:39Z</time>
      </trkpt>
      <trkpt lat="43.56123" lon="1.11615">
        <ele>283</ele>
        <time>2020-11-29T10:25:40Z</time>
      </trkpt>
      <trkpt lat="43.56124" lon="1.11614">
        <ele>282.9</ele>
        <time>2020-11-29T10:25:41Z</time>
      </trkpt>
      <trkpt lat="43.56126" lon="1.11613">
        <ele>282.7</ele>
        <time>2020-11-29T10:25:42Z</time>
      </trkpt>
      <trkpt lat="43.56128" lon="1.11611">
        <ele>282.4</ele>
        <time>2020-11-29T10:25:43Z</time>
      </trkpt>
      <trkpt lat="43.56129" lon="1.1161">
        <ele>282.3</ele>
        <time>2020-11-29T10:25:44Z</time>
      </trkpt>
      <trkpt lat="43.5613" lon="1.11609">
        <ele>282.3</ele>
        <time>2020-11-29T10:25:45Z</time>
      </trkpt>
      <trkpt lat="43.56132" lon="1.1161">
        <ele>282.1</ele>
        <time>2020-11-29T10:25:46Z</time>
      </trkpt>
      <trkpt lat="43.56133" lon="1.11611">
        <ele>281.9</ele>
        <time>2020-11-29T10:25:47Z</time>
      </trkpt>
      <trkpt lat="43.56134" lon="1.11613">
        <ele>281.9</ele>
        <time>2020-11-29T10:25:48Z</time>
      </trkpt>
      <trkpt lat="43.56136" lon="1.11615">
        <ele>281.7</ele>
        <time>2020-11-29T10:25:49Z</time>
      </trkpt>
      <trkpt lat="43.56136" lon="1.11616">
        <ele>281.6</ele>
        <time>2020-11-29T10:25:50Z</time>
      </trkpt>
      <trkpt lat="43.56138" lon="1.11617">
        <ele>281.6</ele>
        <time>2020-11-29T10:25:51Z</time>
      </trkpt>
      <trkpt lat="43.56138" lon="1.11617">
        <ele>281.6</ele>
        <time>2020-11-29T10:25:52Z</time>
      </trkpt>
      <trkpt lat="43.56139" lon="1.11618">
        <ele>281.5</ele>
        <time>2020-11-29T10:25:53Z</time>
      </trkpt>
      <trkpt lat="43.56142" lon="1.1162">
        <ele>281.5</ele>
        <time>2020-11-29T10:25:54Z</time>
      </trkpt>
      <trkpt lat="43.56144" lon="1.1162">
        <ele>281.5</ele>
        <time>2020-11-29T10:25:55Z</time>
      </trkpt>
      <trkpt lat="43.56146" lon="1.11621">
        <ele>281.5</ele>
        <time>2020-11-29T10:25:56Z</time>
      </trkpt>
      <trkpt lat="43.56147" lon="1.11622">
        <ele>281.5</ele>
        <time>2020-11-29T10:25:57Z</time>
      </trkpt>
      <trkpt lat="43.56151" lon="1.11624">
        <ele>281.6</ele>
        <time>2020-11-29T10:25:58Z</time>
      </trkpt>
      <trkpt lat="43.56153" lon="1.11625">
        <ele>281.6</ele>
        <time>2020-11-29T10:25:59Z</time>
      </trkpt>
      <trkpt lat="43.56157" lon="1.11625">
        <ele>281.7</ele>
        <time>2020-11-29T10:26:00Z</time>
      </trkpt>
      <trkpt lat="43.56159" lon="1.11624">
        <ele>281.7</ele>
        <time>2020-11-29T10:26:01Z</time>
      </trkpt>
      <trkpt lat="43.56162" lon="1.11625">
        <ele>281.8</ele>
        <time>2020-11-29T10:26:02Z</time>
      </trkpt>
      <trkpt lat="43.56166" lon="1.11626">
        <ele>281.8</ele>
        <time>2020-11-29T10:26:03Z</time>
      </trkpt>
      <trkpt lat="43.5617" lon="1.11627">
        <ele>281.8</ele>
        <time>2020-11-29T10:26:04Z</time>
      </trkpt>
      <trkpt lat="43.56175" lon="1.11629">
        <ele>281.6</ele>
        <time>2020-11-29T10:26:05Z</time>
      </trkpt>
      <trkpt lat="43.56181" lon="1.11632">
        <ele>281.4</ele>
        <time>2020-11-29T10:26:06Z</time>
      </trkpt>
      <trkpt lat="43.56185" lon="1.11635">
        <ele>281.1</ele>
        <time>2020-11-29T10:26:07Z</time>
      </trkpt>
      <trkpt lat="43.56189" lon="1.11637">
        <ele>280.8</ele>
        <time>2020-11-29T10:26:08Z</time>
      </trkpt>
      <trkpt lat="43.56192" lon="1.11637">
        <ele>280.6</ele>
        <time>2020-11-29T10:26:09Z</time>
      </trkpt>
      <trkpt lat="43.56194" lon="1.11638">
        <ele>280.5</ele>
        <time>2020-11-29T10:26:10Z</time>
      </trkpt>
      <trkpt lat="43.56195" lon="1.11639">
        <ele>280.4</ele>
        <time>2020-11-29T10:26:11Z</time>
      </trkpt>
      <trkpt lat="43.56198" lon="1.11639">
        <ele>280.2</ele>
        <time>2020-11-29T10:26:12Z</time>
      </trkpt>
      <trkpt lat="43.56199" lon="1.11639">
        <ele>280.1</ele>
        <time>2020-11-29T10:26:13Z</time>
      </trkpt>
      <trkpt lat="43.562" lon="1.11638">
        <ele>280.1</ele>
        <time>2020-11-29T10:26:14Z</time>
      </trkpt>
      <trkpt lat="43.56199" lon="1.1164">
        <ele>280</ele>
        <time>2020-11-29T10:26:15Z</time>
      </trkpt>
      <trkpt lat="43.56196" lon="1.11642">
        <ele>279.9</ele>
        <time>2020-11-29T10:26:16Z</time>
      </trkpt>
      <trkpt lat="43.56194" lon="1.11645">
        <ele>279.7</ele>
        <time>2020-11-29T10:26:17Z</time>
      </trkpt>
      <trkpt lat="43.56194" lon="1.11647">
        <ele>279.7</ele>
        <time>2020-11-29T10:26:18Z</time>
      </trkpt>
      <trkpt lat="43.56195" lon="1.1165">
        <ele>279.6</ele>
        <time>2020-11-29T10:26:19Z</time>
      </trkpt>
      <trkpt lat="43.56194" lon="1.11655">
        <ele>279.5</ele>
        <time>2020-11-29T10:26:20Z</time>
      </trkpt>
      <trkpt lat="43.56195" lon="1.11659">
        <ele>279.3</ele>
        <time>2020-11-29T10:26:21Z</time>
      </trkpt>
      <trkpt lat="43.56196" lon="1.11661">
        <ele>279.3</ele>
        <time>2020-11-29T10:26:22Z</time>
      </trkpt>
      <trkpt lat="43.56197" lon="1.11665">
        <ele>279.1</ele>
        <time>2020-11-29T10:26:23Z</time>
      </trkpt>
      <trkpt lat="43.56198" lon="1.11667">
        <ele>279.1</ele>
        <time>2020-11-29T10:26:24Z</time>
      </trkpt>
      <trkpt lat="43.56201" lon="1.1167">
        <ele>278.9</ele>
        <time>2020-11-29T10:26:25Z</time>
      </trkpt>
      <trkpt lat="43.56204" lon="1.11673">
        <ele>278.7</ele>
        <time>2020-11-29T10:26:26Z</time>
      </trkpt>
      <trkpt lat="43.56205" lon="1.11677">
        <ele>278.6</ele>
        <time>2020-11-29T10:26:27Z</time>
      </trkpt>
      <trkpt lat="43.56207" lon="1.11682">
        <ele>278.4</ele>
        <time>2020-11-29T10:26:28Z</time>
      </trkpt>
      <trkpt lat="43.56208" lon="1.11685">
        <ele>278.3</ele>
        <time>2020-11-29T10:26:29Z</time>
      </trkpt>
      <trkpt lat="43.56209" lon="1.1169">
        <ele>278.2</ele>
        <time>2020-11-29T10:26:30Z</time>
      </trkpt>
      <trkpt lat="43.56209" lon="1.11691">
        <ele>278.1</ele>
        <time>2020-11-29T10:26:31Z</time>
      </trkpt>
      <trkpt lat="43.5621" lon="1.11697">
        <ele>278.1</ele>
        <time>2020-11-29T10:26:32Z</time>
      </trkpt>
      <trkpt lat="43.5621" lon="1.11698">
        <ele>278.1</ele>
        <time>2020-11-29T10:26:33Z</time>
      </trkpt>
      <trkpt lat="43.56212" lon="1.11703">
        <ele>278</ele>
        <time>2020-11-29T10:26:34Z</time>
      </trkpt>
      <trkpt lat="43.56213" lon="1.11705">
        <ele>278</ele>
        <time>2020-11-29T10:26:35Z</time>
      </trkpt>
      <trkpt lat="43.56215" lon="1.11713">
        <ele>278</ele>
        <time>2020-11-29T10:26:36Z</time>
      </trkpt>
      <trkpt lat="43.56217" lon="1.11716">
        <ele>278</ele>
        <time>2020-11-29T10:26:37Z</time>
      </trkpt>
      <trkpt lat="43.56217" lon="1.11721">
        <ele>278</ele>
        <time>2020-11-29T10:26:38Z</time>
      </trkpt>
      <trkpt lat="43.56216" lon="1.11724">
        <ele>278</ele>
        <time>2020-11-29T10:26:39Z</time>
      </trkpt>
      <trkpt lat="43.56217" lon="1.11728">
        <ele>278</ele>
        <time>2020-11-29T10:26:40Z</time>
      </trkpt>
      <trkpt lat="43.56217" lon="1.1173">
        <ele>278</ele>
        <time>2020-11-29T10:26:41Z</time>
      </trkpt>
      <trkpt lat="43.56218" lon="1.11735">
        <ele>278</ele>
        <time>2020-11-29T10:26:42Z</time>
      </trkpt>
      <trkpt lat="43.56219" lon="1.1174">
        <ele>277.9</ele>
        <time>2020-11-29T10:26:43Z</time>
      </trkpt>
      <trkpt lat="43.5622" lon="1.11748">
        <ele>277.8</ele>
        <time>2020-11-29T10:26:44Z</time>
      </trkpt>
      <trkpt lat="43.56221" lon="1.11752">
        <ele>277.7</ele>
        <time>2020-11-29T10:26:45Z</time>
      </trkpt>
      <trkpt lat="43.56221" lon="1.11757">
        <ele>277.5</ele>
        <time>2020-11-29T10:26:46Z</time>
      </trkpt>
      <trkpt lat="43.56221" lon="1.11759">
        <ele>277.4</ele>
        <time>2020-11-29T10:26:47Z</time>
      </trkpt>
      <trkpt lat="43.56223" lon="1.11764">
        <ele>277.2</ele>
        <time>2020-11-29T10:26:48Z</time>
      </trkpt>
      <trkpt lat="43.56223" lon="1.11766">
        <ele>277.1</ele>
        <time>2020-11-29T10:26:49Z</time>
      </trkpt>
      <trkpt lat="43.56223" lon="1.11768">
        <ele>277</ele>
        <time>2020-11-29T10:26:50Z</time>
      </trkpt>
      <trkpt lat="43.56224" lon="1.11769">
        <ele>276.9</ele>
        <time>2020-11-29T10:26:51Z</time>
      </trkpt>
      <trkpt lat="43.56225" lon="1.1177">
        <ele>276.8</ele>
        <time>2020-11-29T10:26:52Z</time>
      </trkpt>
      <trkpt lat="43.56225" lon="1.11772">
        <ele>276.7</ele>
        <time>2020-11-29T10:26:53Z</time>
      </trkpt>
      <trkpt lat="43.56225" lon="1.11772">
        <ele>276.7</ele>
        <time>2020-11-29T10:26:54Z</time>
      </trkpt>
      <trkpt lat="43.56226" lon="1.11773">
        <ele>276.6</ele>
        <time>2020-11-29T10:26:55Z</time>
      </trkpt>
      <trkpt lat="43.56227" lon="1.11776">
        <ele>276.4</ele>
        <time>2020-11-29T10:26:56Z</time>
      </trkpt>
      <trkpt lat="43.56225" lon="1.11778">
        <ele>276.2</ele>
        <time>2020-11-29T10:26:57Z</time>
      </trkpt>
      <trkpt lat="43.56224" lon="1.1178">
        <ele>276</ele>
        <time>2020-11-29T10:26:58Z</time>
      </trkpt>
      <trkpt lat="43.56225" lon="1.11782">
        <ele>275.9</ele>
        <time>2020-11-29T10:26:59Z</time>
      </trkpt>
      <trkpt lat="43.56225" lon="1.11785">
        <ele>275.7</ele>
        <time>2020-11-29T10:27:00Z</time>
      </trkpt>
      <trkpt lat="43.56224" lon="1.11785">
        <ele>275.6</ele>
        <time>2020-11-29T10:27:01Z</time>
      </trkpt>
      <trkpt lat="43.56224" lon="1.11787">
        <ele>275.5</ele>
        <time>2020-11-29T10:27:02Z</time>
      </trkpt>
      <trkpt lat="43.56225" lon="1.11789">
        <ele>275.4</ele>
        <time>2020-11-29T10:27:03Z</time>
      </trkpt>
      <trkpt lat="43.56226" lon="1.1179">
        <ele>275.2</ele>
        <time>2020-11-29T10:27:04Z</time>
      </trkpt>
      <trkpt lat="43.56228" lon="1.1179">
        <ele>275.1</ele>
        <time>2020-11-29T10:27:05Z</time>
      </trkpt>
      <trkpt lat="43.56228" lon="1.1179">
        <ele>275.1</ele>
        <time>2020-11-29T10:27:06Z</time>
      </trkpt>
      <trkpt lat="43.56228" lon="1.11791">
        <ele>275</ele>
        <time>2020-11-29T10:27:07Z</time>
      </trkpt>
      <trkpt lat="43.56229" lon="1.11791">
        <ele>275</ele>
        <time>2020-11-29T10:27:08Z</time>
      </trkpt>
      <trkpt lat="43.56229" lon="1.11792">
        <ele>274.9</ele>
        <time>2020-11-29T10:27:09Z</time>
      </trkpt>
      <trkpt lat="43.56229" lon="1.11793">
        <ele>274.9</ele>
        <time>2020-11-29T10:27:10Z</time>
      </trkpt>
      <trkpt lat="43.56229" lon="1.11793">
        <ele>274.9</ele>
        <time>2020-11-29T10:27:11Z</time>
      </trkpt>
      <trkpt lat="43.5623" lon="1.11796">
        <ele>274.7</ele>
        <time>2020-11-29T10:27:12Z</time>
      </trkpt>
      <trkpt lat="43.5623" lon="1.11798">
        <ele>274.6</ele>
        <time>2020-11-29T10:27:13Z</time>
      </trkpt>
      <trkpt lat="43.5623" lon="1.11801">
        <ele>274.4</ele>
        <time>2020-11-29T10:27:14Z</time>
      </trkpt>
      <trkpt lat="43.5623" lon="1.11803">
        <ele>274.4</ele>
        <time>2020-11-29T10:27:15Z</time>
      </trkpt>
      <trkpt lat="43.5623" lon="1.11805">
        <ele>274.3</ele>
        <time>2020-11-29T10:27:16Z</time>
      </trkpt>
      <trkpt lat="43.56231" lon="1.11809">
        <ele>274.1</ele>
        <time>2020-11-29T10:27:17Z</time>
      </trkpt>
      <trkpt lat="43.56231" lon="1.11811">
        <ele>274.1</ele>
        <time>2020-11-29T10:27:18Z</time>
      </trkpt>
      <trkpt lat="43.56232" lon="1.11813">
        <ele>274</ele>
        <time>2020-11-29T10:27:19Z</time>
      </trkpt>
      <trkpt lat="43.56232" lon="1.11815">
        <ele>273.9</ele>
        <time>2020-11-29T10:27:20Z</time>
      </trkpt>
      <trkpt lat="43.56233" lon="1.11819">
        <ele>273.8</ele>
        <time>2020-11-29T10:27:21Z</time>
      </trkpt>
      <trkpt lat="43.56233" lon="1.1182">
        <ele>273.8</ele>
        <time>2020-11-29T10:27:22Z</time>
      </trkpt>
      <trkpt lat="43.56233" lon="1.11824">
        <ele>273.7</ele>
        <time>2020-11-29T10:27:23Z</time>
      </trkpt>
      <trkpt lat="43.56235" lon="1.11828">
        <ele>273.7</ele>
        <time>2020-11-29T10:27:24Z</time>
      </trkpt>
      <trkpt lat="43.56235" lon="1.11829">
        <ele>273.7</ele>
        <time>2020-11-29T10:27:25Z</time>
      </trkpt>
      <trkpt lat="43.56236" lon="1.11833">
        <ele>273.6</ele>
        <time>2020-11-29T10:27:26Z</time>
      </trkpt>
      <trkpt lat="43.56236" lon="1.11834">
        <ele>273.6</ele>
        <time>2020-11-29T10:27:27Z</time>
      </trkpt>
      <trkpt lat="43.56238" lon="1.11835">
        <ele>273.6</ele>
        <time>2020-11-29T10:27:28Z</time>
      </trkpt>
      <trkpt lat="43.56239" lon="1.11836">
        <ele>273.6</ele>
        <time>2020-11-29T10:27:29Z</time>
      </trkpt>
      <trkpt lat="43.5624" lon="1.11838">
        <ele>273.6</ele>
        <time>2020-11-29T10:27:30Z</time>
      </trkpt>
      <trkpt lat="43.56239" lon="1.11839">
        <ele>273.6</ele>
        <time>2020-11-29T10:27:31Z</time>
      </trkpt>
      <trkpt lat="43.56238" lon="1.11839">
        <ele>273.7</ele>
        <time>2020-11-29T10:27:32Z</time>
      </trkpt>
      <trkpt lat="43.56238" lon="1.1184">
        <ele>273.7</ele>
        <time>2020-11-29T10:27:33Z</time>
      </trkpt>
      <trkpt lat="43.56237" lon="1.11838">
        <ele>273.7</ele>
        <time>2020-11-29T10:27:34Z</time>
      </trkpt>
      <trkpt lat="43.56237" lon="1.11837">
        <ele>273.7</ele>
        <time>2020-11-29T10:27:35Z</time>
      </trkpt>
      <trkpt lat="43.56236" lon="1.11836">
        <ele>273.8</ele>
        <time>2020-11-29T10:27:36Z</time>
      </trkpt>
      <trkpt lat="43.56234" lon="1.11834">
        <ele>273.9</ele>
        <time>2020-11-29T10:27:37Z</time>
      </trkpt>
      <trkpt lat="43.56233" lon="1.11833">
        <ele>273.9</ele>
        <time>2020-11-29T10:27:38Z</time>
      </trkpt>
      <trkpt lat="43.5623" lon="1.1183">
        <ele>274.1</ele>
        <time>2020-11-29T10:27:39Z</time>
      </trkpt>
      <trkpt lat="43.56229" lon="1.11829">
        <ele>274.2</ele>
        <time>2020-11-29T10:27:40Z</time>
      </trkpt>
      <trkpt lat="43.56225" lon="1.11828">
        <ele>274.5</ele>
        <time>2020-11-29T10:27:41Z</time>
      </trkpt>
      <trkpt lat="43.56224" lon="1.11828">
        <ele>274.6</ele>
        <time>2020-11-29T10:27:42Z</time>
      </trkpt>
      <trkpt lat="43.56221" lon="1.1183">
        <ele>274.8</ele>
        <time>2020-11-29T10:27:43Z</time>
      </trkpt>
      <trkpt lat="43.5622" lon="1.11831">
        <ele>275</ele>
        <time>2020-11-29T10:27:44Z</time>
      </trkpt>
      <trkpt lat="43.56217" lon="1.11832">
        <ele>275.3</ele>
        <time>2020-11-29T10:27:45Z</time>
      </trkpt>
      <trkpt lat="43.56215" lon="1.11835">
        <ele>275.7</ele>
        <time>2020-11-29T10:27:46Z</time>
      </trkpt>
      <trkpt lat="43.56214" lon="1.11836">
        <ele>275.8</ele>
        <time>2020-11-29T10:27:47Z</time>
      </trkpt>
      <trkpt lat="43.56212" lon="1.11837">
        <ele>276</ele>
        <time>2020-11-29T10:27:48Z</time>
      </trkpt>
      <trkpt lat="43.56211" lon="1.11839">
        <ele>276.2</ele>
        <time>2020-11-29T10:27:49Z</time>
      </trkpt>
      <trkpt lat="43.56209" lon="1.11842">
        <ele>276.6</ele>
        <time>2020-11-29T10:27:50Z</time>
      </trkpt>
      <trkpt lat="43.56208" lon="1.11843">
        <ele>276.8</ele>
        <time>2020-11-29T10:27:51Z</time>
      </trkpt>
      <trkpt lat="43.56207" lon="1.11844">
        <ele>277</ele>
        <time>2020-11-29T10:27:52Z</time>
      </trkpt>
      <trkpt lat="43.56205" lon="1.11845">
        <ele>277.2</ele>
        <time>2020-11-29T10:27:53Z</time>
      </trkpt>
      <trkpt lat="43.56204" lon="1.11846">
        <ele>277.3</ele>
        <time>2020-11-29T10:27:54Z</time>
      </trkpt>
      <trkpt lat="43.56205" lon="1.11847">
        <ele>277.5</ele>
        <time>2020-11-29T10:27:55Z</time>
      </trkpt>
      <trkpt lat="43.56206" lon="1.11848">
        <ele>277.6</ele>
        <time>2020-11-29T10:27:56Z</time>
      </trkpt>
      <trkpt lat="43.56207" lon="1.11849">
        <ele>277.8</ele>
        <time>2020-11-29T10:27:57Z</time>
      </trkpt>
      <trkpt lat="43.56207" lon="1.1185">
        <ele>277.9</ele>
        <time>2020-11-29T10:27:58Z</time>
      </trkpt>
      <trkpt lat="43.56209" lon="1.11855">
        <ele>278.5</ele>
        <time>2020-11-29T10:27:59Z</time>
      </trkpt>
      <trkpt lat="43.56209" lon="1.11857">
        <ele>278.7</ele>
        <time>2020-11-29T10:28:00Z</time>
      </trkpt>
      <trkpt lat="43.5621" lon="1.11861">
        <ele>279.1</ele>
        <time>2020-11-29T10:28:01Z</time>
      </trkpt>
      <trkpt lat="43.56212" lon="1.11864">
        <ele>279.5</ele>
        <time>2020-11-29T10:28:02Z</time>
      </trkpt>
      <trkpt lat="43.56214" lon="1.11869">
        <ele>280</ele>
        <time>2020-11-29T10:28:03Z</time>
      </trkpt>
      <trkpt lat="43.56215" lon="1.1187">
        <ele>280.1</ele>
        <time>2020-11-29T10:28:04Z</time>
      </trkpt>
      <trkpt lat="43.56215" lon="1.11872">
        <ele>280.3</ele>
        <time>2020-11-29T10:28:05Z</time>
      </trkpt>
      <trkpt lat="43.56216" lon="1.11874">
        <ele>280.5</ele>
        <time>2020-11-29T10:28:06Z</time>
      </trkpt>
      <trkpt lat="43.56217" lon="1.11878">
        <ele>280.8</ele>
        <time>2020-11-29T10:28:07Z</time>
      </trkpt>
      <trkpt lat="43.56218" lon="1.1188">
        <ele>280.9</ele>
        <time>2020-11-29T10:28:08Z</time>
      </trkpt>
      <trkpt lat="43.56218" lon="1.11883">
        <ele>281.1</ele>
        <time>2020-11-29T10:28:09Z</time>
      </trkpt>
      <trkpt lat="43.5622" lon="1.11887">
        <ele>281.3</ele>
        <time>2020-11-29T10:28:10Z</time>
      </trkpt>
      <trkpt lat="43.56221" lon="1.11891">
        <ele>281.6</ele>
        <time>2020-11-29T10:28:11Z</time>
      </trkpt>
      <trkpt lat="43.56223" lon="1.11894">
        <ele>281.8</ele>
        <time>2020-11-29T10:28:12Z</time>
      </trkpt>
      <trkpt lat="43.56223" lon="1.11896">
        <ele>281.9</ele>
        <time>2020-11-29T10:28:13Z</time>
      </trkpt>
      <trkpt lat="43.56224" lon="1.11899">
        <ele>282.1</ele>
        <time>2020-11-29T10:28:14Z</time>
      </trkpt>
      <trkpt lat="43.56224" lon="1.11901">
        <ele>282.1</ele>
        <time>2020-11-29T10:28:15Z</time>
      </trkpt>
      <trkpt lat="43.56224" lon="1.11904">
        <ele>282.3</ele>
        <time>2020-11-29T10:28:16Z</time>
      </trkpt>
      <trkpt lat="43.56224" lon="1.11905">
        <ele>282.4</ele>
        <time>2020-11-29T10:28:17Z</time>
      </trkpt>
      <trkpt lat="43.56223" lon="1.11906">
        <ele>282.4</ele>
        <time>2020-11-29T10:28:18Z</time>
      </trkpt>
      <trkpt lat="43.56223" lon="1.1191">
        <ele>282.6</ele>
        <time>2020-11-29T10:28:19Z</time>
      </trkpt>
      <trkpt lat="43.56223" lon="1.11911">
        <ele>282.7</ele>
        <time>2020-11-29T10:28:20Z</time>
      </trkpt>
      <trkpt lat="43.56223" lon="1.11913">
        <ele>282.8</ele>
        <time>2020-11-29T10:28:21Z</time>
      </trkpt>
      <trkpt lat="43.56223" lon="1.11917">
        <ele>283.1</ele>
        <time>2020-11-29T10:28:22Z</time>
      </trkpt>
      <trkpt lat="43.56223" lon="1.11918">
        <ele>283.2</ele>
        <time>2020-11-29T10:28:23Z</time>
      </trkpt>
      <trkpt lat="43.56225" lon="1.11921">
        <ele>283.4</ele>
        <time>2020-11-29T10:28:24Z</time>
      </trkpt>
      <trkpt lat="43.56225" lon="1.11923">
        <ele>283.6</ele>
        <time>2020-11-29T10:28:25Z</time>
      </trkpt>
      <trkpt lat="43.56227" lon="1.11926">
        <ele>283.9</ele>
        <time>2020-11-29T10:28:26Z</time>
      </trkpt>
      <trkpt lat="43.56229" lon="1.1193">
        <ele>284.3</ele>
        <time>2020-11-29T10:28:27Z</time>
      </trkpt>
      <trkpt lat="43.56231" lon="1.11932">
        <ele>284.5</ele>
        <time>2020-11-29T10:28:28Z</time>
      </trkpt>
      <trkpt lat="43.56231" lon="1.11933">
        <ele>284.6</ele>
        <time>2020-11-29T10:28:29Z</time>
      </trkpt>
      <trkpt lat="43.5623" lon="1.11934">
        <ele>284.8</ele>
        <time>2020-11-29T10:28:30Z</time>
      </trkpt>
      <trkpt lat="43.56229" lon="1.11935">
        <ele>284.9</ele>
        <time>2020-11-29T10:28:31Z</time>
      </trkpt>
      <trkpt lat="43.56228" lon="1.11936">
        <ele>285.1</ele>
        <time>2020-11-29T10:28:32Z</time>
      </trkpt>
      <trkpt lat="43.56227" lon="1.11936">
        <ele>285.2</ele>
        <time>2020-11-29T10:28:33Z</time>
      </trkpt>
      <trkpt lat="43.56224" lon="1.11938">
        <ele>285.7</ele>
        <time>2020-11-29T10:28:34Z</time>
      </trkpt>
      <trkpt lat="43.56222" lon="1.11938">
        <ele>285.9</ele>
        <time>2020-11-29T10:28:35Z</time>
      </trkpt>
      <trkpt lat="43.56219" lon="1.1194">
        <ele>286.4</ele>
        <time>2020-11-29T10:28:36Z</time>
      </trkpt>
      <trkpt lat="43.56215" lon="1.1194">
        <ele>287</ele>
        <time>2020-11-29T10:28:37Z</time>
      </trkpt>
      <trkpt lat="43.56214" lon="1.1194">
        <ele>287.3</ele>
        <time>2020-11-29T10:28:38Z</time>
      </trkpt>
      <trkpt lat="43.5621" lon="1.11942">
        <ele>287.9</ele>
        <time>2020-11-29T10:28:39Z</time>
      </trkpt>
      <trkpt lat="43.56209" lon="1.11942">
        <ele>288.1</ele>
        <time>2020-11-29T10:28:40Z</time>
      </trkpt>
      <trkpt lat="43.56208" lon="1.11943">
        <ele>288.3</ele>
        <time>2020-11-29T10:28:41Z</time>
      </trkpt>
      <trkpt lat="43.56206" lon="1.11944">
        <ele>288.6</ele>
        <time>2020-11-29T10:28:42Z</time>
      </trkpt>
      <trkpt lat="43.56207" lon="1.11948">
        <ele>289</ele>
        <time>2020-11-29T10:28:43Z</time>
      </trkpt>
      <trkpt lat="43.56207" lon="1.1195">
        <ele>289.3</ele>
        <time>2020-11-29T10:28:44Z</time>
      </trkpt>
      <trkpt lat="43.56206" lon="1.11955">
        <ele>289.8</ele>
        <time>2020-11-29T10:28:45Z</time>
      </trkpt>
      <trkpt lat="43.56205" lon="1.1196">
        <ele>290.4</ele>
        <time>2020-11-29T10:28:46Z</time>
      </trkpt>
      <trkpt lat="43.56205" lon="1.11964">
        <ele>290.9</ele>
        <time>2020-11-29T10:28:47Z</time>
      </trkpt>
      <trkpt lat="43.56206" lon="1.11965">
        <ele>291.1</ele>
        <time>2020-11-29T10:28:48Z</time>
      </trkpt>
      <trkpt lat="43.56206" lon="1.11968">
        <ele>291.3</ele>
        <time>2020-11-29T10:28:49Z</time>
      </trkpt>
      <trkpt lat="43.56207" lon="1.1197">
        <ele>291.5</ele>
        <time>2020-11-29T10:28:50Z</time>
      </trkpt>
      <trkpt lat="43.56206" lon="1.11974">
        <ele>291.9</ele>
        <time>2020-11-29T10:28:51Z</time>
      </trkpt>
      <trkpt lat="43.56206" lon="1.1198">
        <ele>292.4</ele>
        <time>2020-11-29T10:28:52Z</time>
      </trkpt>
      <trkpt lat="43.56206" lon="1.11984">
        <ele>292.8</ele>
        <time>2020-11-29T10:28:53Z</time>
      </trkpt>
      <trkpt lat="43.56206" lon="1.11988">
        <ele>293.1</ele>
        <time>2020-11-29T10:28:54Z</time>
      </trkpt>
      <trkpt lat="43.56207" lon="1.11993">
        <ele>293.5</ele>
        <time>2020-11-29T10:28:55Z</time>
      </trkpt>
      <trkpt lat="43.56208" lon="1.11995">
        <ele>293.6</ele>
        <time>2020-11-29T10:28:56Z</time>
      </trkpt>
      <trkpt lat="43.56209" lon="1.12">
        <ele>294</ele>
        <time>2020-11-29T10:28:57Z</time>
      </trkpt>
      <trkpt lat="43.5621" lon="1.12001">
        <ele>294.1</ele>
        <time>2020-11-29T10:28:58Z</time>
      </trkpt>
      <trkpt lat="43.56211" lon="1.12007">
        <ele>294.5</ele>
        <time>2020-11-29T10:28:59Z</time>
      </trkpt>
      <trkpt lat="43.56212" lon="1.1201">
        <ele>294.7</ele>
        <time>2020-11-29T10:29:00Z</time>
      </trkpt>
      <trkpt lat="43.56213" lon="1.12014">
        <ele>294.9</ele>
        <time>2020-11-29T10:29:01Z</time>
      </trkpt>
      <trkpt lat="43.56213" lon="1.12019">
        <ele>295.2</ele>
        <time>2020-11-29T10:29:02Z</time>
      </trkpt>
      <trkpt lat="43.56212" lon="1.12025">
        <ele>295.4</ele>
        <time>2020-11-29T10:29:03Z</time>
      </trkpt>
      <trkpt lat="43.56212" lon="1.1203">
        <ele>295.6</ele>
        <time>2020-11-29T10:29:04Z</time>
      </trkpt>
      <trkpt lat="43.56212" lon="1.12033">
        <ele>295.8</ele>
        <time>2020-11-29T10:29:05Z</time>
      </trkpt>
      <trkpt lat="43.56211" lon="1.12039">
        <ele>296</ele>
        <time>2020-11-29T10:29:06Z</time>
      </trkpt>
      <trkpt lat="43.56211" lon="1.12041">
        <ele>296</ele>
        <time>2020-11-29T10:29:07Z</time>
      </trkpt>
      <trkpt lat="43.5621" lon="1.12045">
        <ele>296.2</ele>
        <time>2020-11-29T10:29:08Z</time>
      </trkpt>
      <trkpt lat="43.56211" lon="1.12049">
        <ele>296.4</ele>
        <time>2020-11-29T10:29:09Z</time>
      </trkpt>
      <trkpt lat="43.56211" lon="1.12051">
        <ele>296.4</ele>
        <time>2020-11-29T10:29:10Z</time>
      </trkpt>
      <trkpt lat="43.56212" lon="1.12055">
        <ele>296.7</ele>
        <time>2020-11-29T10:29:11Z</time>
      </trkpt>
      <trkpt lat="43.56212" lon="1.12057">
        <ele>296.7</ele>
        <time>2020-11-29T10:29:12Z</time>
      </trkpt>
      <trkpt lat="43.56213" lon="1.12061">
        <ele>296.9</ele>
        <time>2020-11-29T10:29:13Z</time>
      </trkpt>
      <trkpt lat="43.56214" lon="1.12065">
        <ele>297.1</ele>
        <time>2020-11-29T10:29:14Z</time>
      </trkpt>
      <trkpt lat="43.56215" lon="1.12067">
        <ele>297.2</ele>
        <time>2020-11-29T10:29:15Z</time>
      </trkpt>
      <trkpt lat="43.56214" lon="1.12072">
        <ele>297.5</ele>
        <time>2020-11-29T10:29:16Z</time>
      </trkpt>
      <trkpt lat="43.56213" lon="1.12074">
        <ele>297.6</ele>
        <time>2020-11-29T10:29:17Z</time>
      </trkpt>
      <trkpt lat="43.56211" lon="1.12078">
        <ele>297.9</ele>
        <time>2020-11-29T10:29:18Z</time>
      </trkpt>
      <trkpt lat="43.5621" lon="1.1208">
        <ele>298</ele>
        <time>2020-11-29T10:29:19Z</time>
      </trkpt>
      <trkpt lat="43.56208" lon="1.12083">
        <ele>298.2</ele>
        <time>2020-11-29T10:29:20Z</time>
      </trkpt>
      <trkpt lat="43.56207" lon="1.12088">
        <ele>298.5</ele>
        <time>2020-11-29T10:29:21Z</time>
      </trkpt>
      <trkpt lat="43.56206" lon="1.12089">
        <ele>298.5</ele>
        <time>2020-11-29T10:29:22Z</time>
      </trkpt>
      <trkpt lat="43.56205" lon="1.12091">
        <ele>298.7</ele>
        <time>2020-11-29T10:29:23Z</time>
      </trkpt>
      <trkpt lat="43.56204" lon="1.12092">
        <ele>298.8</ele>
        <time>2020-11-29T10:29:24Z</time>
      </trkpt>
      <trkpt lat="43.56203" lon="1.12093">
        <ele>298.8</ele>
        <time>2020-11-29T10:29:25Z</time>
      </trkpt>
      <trkpt lat="43.56202" lon="1.12096">
        <ele>299</ele>
        <time>2020-11-29T10:29:26Z</time>
      </trkpt>
      <trkpt lat="43.56199" lon="1.121">
        <ele>299.3</ele>
        <time>2020-11-29T10:29:27Z</time>
      </trkpt>
      <trkpt lat="43.56198" lon="1.121">
        <ele>299.4</ele>
        <time>2020-11-29T10:29:28Z</time>
      </trkpt>
      <trkpt lat="43.56195" lon="1.12103">
        <ele>299.6</ele>
        <time>2020-11-29T10:29:29Z</time>
      </trkpt>
      <trkpt lat="43.56195" lon="1.12104">
        <ele>299.7</ele>
        <time>2020-11-29T10:29:30Z</time>
      </trkpt>
      <trkpt lat="43.56194" lon="1.12105">
        <ele>299.8</ele>
        <time>2020-11-29T10:29:31Z</time>
      </trkpt>
      <trkpt lat="43.56193" lon="1.12106">
        <ele>299.9</ele>
        <time>2020-11-29T10:29:32Z</time>
      </trkpt>
      <trkpt lat="43.56193" lon="1.12107">
        <ele>300</ele>
        <time>2020-11-29T10:29:33Z</time>
      </trkpt>
      <trkpt lat="43.56192" lon="1.12109">
        <ele>300</ele>
        <time>2020-11-29T10:29:34Z</time>
      </trkpt>
      <trkpt lat="43.56191" lon="1.1211">
        <ele>300.2</ele>
        <time>2020-11-29T10:29:35Z</time>
      </trkpt>
      <trkpt lat="43.56189" lon="1.12112">
        <ele>300.4</ele>
        <time>2020-11-29T10:29:36Z</time>
      </trkpt>
      <trkpt lat="43.56188" lon="1.12113">
        <ele>300.5</ele>
        <time>2020-11-29T10:29:37Z</time>
      </trkpt>
      <trkpt lat="43.5619" lon="1.12117">
        <ele>301.4</ele>
        <time>2020-11-29T10:29:38Z</time>
      </trkpt>
      <trkpt lat="43.56191" lon="1.12118">
        <ele>301.5</ele>
        <time>2020-11-29T10:29:39Z</time>
      </trkpt>
      <trkpt lat="43.56194" lon="1.12121">
        <ele>301.5</ele>
        <time>2020-11-29T10:29:40Z</time>
      </trkpt>
      <trkpt lat="43.56197" lon="1.12124">
        <ele>301.5</ele>
        <time>2020-11-29T10:29:41Z</time>
      </trkpt>
      <trkpt lat="43.562" lon="1.12126">
        <ele>301.6</ele>
        <time>2020-11-29T10:29:42Z</time>
      </trkpt>
      <trkpt lat="43.56204" lon="1.1213">
        <ele>301.6</ele>
        <time>2020-11-29T10:29:43Z</time>
      </trkpt>
      <trkpt lat="43.56207" lon="1.12132">
        <ele>301.6</ele>
        <time>2020-11-29T10:29:44Z</time>
      </trkpt>
      <trkpt lat="43.56209" lon="1.12135">
        <ele>301.6</ele>
        <time>2020-11-29T10:29:45Z</time>
      </trkpt>
      <trkpt lat="43.56211" lon="1.12138">
        <ele>301.6</ele>
        <time>2020-11-29T10:29:46Z</time>
      </trkpt>
      <trkpt lat="43.56213" lon="1.12141">
        <ele>301.5</ele>
        <time>2020-11-29T10:29:47Z</time>
      </trkpt>
      <trkpt lat="43.56216" lon="1.12144">
        <ele>301.5</ele>
        <time>2020-11-29T10:29:48Z</time>
      </trkpt>
      <trkpt lat="43.56218" lon="1.12146">
        <ele>301.5</ele>
        <time>2020-11-29T10:29:49Z</time>
      </trkpt>
      <trkpt lat="43.56222" lon="1.12147">
        <ele>301.4</ele>
        <time>2020-11-29T10:29:50Z</time>
      </trkpt>
      <trkpt lat="43.56223" lon="1.12146">
        <ele>301.4</ele>
        <time>2020-11-29T10:29:51Z</time>
      </trkpt>
      <trkpt lat="43.56227" lon="1.12149">
        <ele>301.3</ele>
        <time>2020-11-29T10:29:52Z</time>
      </trkpt>
      <trkpt lat="43.5623" lon="1.12153">
        <ele>301.3</ele>
        <time>2020-11-29T10:29:53Z</time>
      </trkpt>
      <trkpt lat="43.56233" lon="1.12155">
        <ele>301.2</ele>
        <time>2020-11-29T10:29:54Z</time>
      </trkpt>
      <trkpt lat="43.56237" lon="1.12158">
        <ele>301.2</ele>
        <time>2020-11-29T10:29:55Z</time>
      </trkpt>
      <trkpt lat="43.5624" lon="1.12161">
        <ele>301.2</ele>
        <time>2020-11-29T10:29:56Z</time>
      </trkpt>
      <trkpt lat="43.56243" lon="1.12163">
        <ele>301.1</ele>
        <time>2020-11-29T10:29:57Z</time>
      </trkpt>
      <trkpt lat="43.56247" lon="1.12167">
        <ele>301.1</ele>
        <time>2020-11-29T10:29:58Z</time>
      </trkpt>
      <trkpt lat="43.56249" lon="1.12169">
        <ele>301</ele>
        <time>2020-11-29T10:29:59Z</time>
      </trkpt>
      <trkpt lat="43.56251" lon="1.12172">
        <ele>301</ele>
        <time>2020-11-29T10:30:00Z</time>
      </trkpt>
      <trkpt lat="43.56254" lon="1.12175">
        <ele>300.9</ele>
        <time>2020-11-29T10:30:01Z</time>
      </trkpt>
      <trkpt lat="43.56258" lon="1.12179">
        <ele>300.8</ele>
        <time>2020-11-29T10:30:02Z</time>
      </trkpt>
      <trkpt lat="43.56261" lon="1.12182">
        <ele>300.7</ele>
        <time>2020-11-29T10:30:03Z</time>
      </trkpt>
      <trkpt lat="43.56264" lon="1.12186">
        <ele>300.5</ele>
        <time>2020-11-29T10:30:04Z</time>
      </trkpt>
      <trkpt lat="43.56268" lon="1.12189">
        <ele>300.3</ele>
        <time>2020-11-29T10:30:05Z</time>
      </trkpt>
      <trkpt lat="43.56271" lon="1.12193">
        <ele>300.1</ele>
        <time>2020-11-29T10:30:06Z</time>
      </trkpt>
      <trkpt lat="43.56273" lon="1.12197">
        <ele>299.9</ele>
        <time>2020-11-29T10:30:07Z</time>
      </trkpt>
      <trkpt lat="43.56276" lon="1.122">
        <ele>299.7</ele>
        <time>2020-11-29T10:30:08Z</time>
      </trkpt>
      <trkpt lat="43.56279" lon="1.12203">
        <ele>299.4</ele>
        <time>2020-11-29T10:30:09Z</time>
      </trkpt>
      <trkpt lat="43.56281" lon="1.12207">
        <ele>299.1</ele>
        <time>2020-11-29T10:30:10Z</time>
      </trkpt>
      <trkpt lat="43.56285" lon="1.12211">
        <ele>298.7</ele>
        <time>2020-11-29T10:30:11Z</time>
      </trkpt>
      <trkpt lat="43.56288" lon="1.12215">
        <ele>298.3</ele>
        <time>2020-11-29T10:30:12Z</time>
      </trkpt>
      <trkpt lat="43.5629" lon="1.12218">
        <ele>297.9</ele>
        <time>2020-11-29T10:30:13Z</time>
      </trkpt>
      <trkpt lat="43.56292" lon="1.12222">
        <ele>297.6</ele>
        <time>2020-11-29T10:30:14Z</time>
      </trkpt>
      <trkpt lat="43.56296" lon="1.12226">
        <ele>297.1</ele>
        <time>2020-11-29T10:30:15Z</time>
      </trkpt>
      <trkpt lat="43.563" lon="1.1223">
        <ele>296.5</ele>
        <time>2020-11-29T10:30:16Z</time>
      </trkpt>
      <trkpt lat="43.56304" lon="1.12234">
        <ele>295.8</ele>
        <time>2020-11-29T10:30:17Z</time>
      </trkpt>
      <trkpt lat="43.56309" lon="1.12237">
        <ele>295.2</ele>
        <time>2020-11-29T10:30:18Z</time>
      </trkpt>
      <trkpt lat="43.56314" lon="1.1224">
        <ele>294.5</ele>
        <time>2020-11-29T10:30:19Z</time>
      </trkpt>
      <trkpt lat="43.5632" lon="1.12244">
        <ele>293.7</ele>
        <time>2020-11-29T10:30:20Z</time>
      </trkpt>
      <trkpt lat="43.56326" lon="1.12246">
        <ele>292.9</ele>
        <time>2020-11-29T10:30:21Z</time>
      </trkpt>
      <trkpt lat="43.56332" lon="1.12248">
        <ele>292.1</ele>
        <time>2020-11-29T10:30:22Z</time>
      </trkpt>
      <trkpt lat="43.56336" lon="1.12251">
        <ele>291.5</ele>
        <time>2020-11-29T10:30:23Z</time>
      </trkpt>
      <trkpt lat="43.56341" lon="1.12254">
        <ele>290.8</ele>
        <time>2020-11-29T10:30:24Z</time>
      </trkpt>
      <trkpt lat="43.56346" lon="1.12256">
        <ele>290.2</ele>
        <time>2020-11-29T10:30:25Z</time>
      </trkpt>
      <trkpt lat="43.56351" lon="1.1226">
        <ele>289.4</ele>
        <time>2020-11-29T10:30:26Z</time>
      </trkpt>
      <trkpt lat="43.56357" lon="1.12266">
        <ele>288.5</ele>
        <time>2020-11-29T10:30:27Z</time>
      </trkpt>
      <trkpt lat="43.56362" lon="1.1227">
        <ele>287.8</ele>
        <time>2020-11-29T10:30:28Z</time>
      </trkpt>
      <trkpt lat="43.56366" lon="1.12274">
        <ele>287.2</ele>
        <time>2020-11-29T10:30:29Z</time>
      </trkpt>
      <trkpt lat="43.56369" lon="1.12278">
        <ele>286.7</ele>
        <time>2020-11-29T10:30:30Z</time>
      </trkpt>
      <trkpt lat="43.5637" lon="1.12282">
        <ele>286.3</ele>
        <time>2020-11-29T10:30:31Z</time>
      </trkpt>
      <trkpt lat="43.56372" lon="1.12291">
        <ele>285.6</ele>
        <time>2020-11-29T10:30:32Z</time>
      </trkpt>
      <trkpt lat="43.56373" lon="1.12301">
        <ele>283.8</ele>
        <time>2020-11-29T10:30:33Z</time>
      </trkpt>
      <trkpt lat="43.56373" lon="1.12312">
        <ele>282.8</ele>
        <time>2020-11-29T10:30:34Z</time>
      </trkpt>
      <trkpt lat="43.56373" lon="1.12325">
        <ele>281.8</ele>
        <time>2020-11-29T10:30:35Z</time>
      </trkpt>
      <trkpt lat="43.56374" lon="1.12335">
        <ele>281</ele>
        <time>2020-11-29T10:30:36Z</time>
      </trkpt>
      <trkpt lat="43.56374" lon="1.12345">
        <ele>280.3</ele>
        <time>2020-11-29T10:30:37Z</time>
      </trkpt>
      <trkpt lat="43.56372" lon="1.12355">
        <ele>279.6</ele>
        <time>2020-11-29T10:30:38Z</time>
      </trkpt>
      <trkpt lat="43.56371" lon="1.12365">
        <ele>279</ele>
        <time>2020-11-29T10:30:39Z</time>
      </trkpt>
      <trkpt lat="43.56371" lon="1.12373">
        <ele>278.5</ele>
        <time>2020-11-29T10:30:40Z</time>
      </trkpt>
      <trkpt lat="43.56369" lon="1.1238">
        <ele>278</ele>
        <time>2020-11-29T10:30:41Z</time>
      </trkpt>
      <trkpt lat="43.56367" lon="1.12387">
        <ele>277.6</ele>
        <time>2020-11-29T10:30:42Z</time>
      </trkpt>
      <trkpt lat="43.56367" lon="1.12391">
        <ele>277.3</ele>
        <time>2020-11-29T10:30:43Z</time>
      </trkpt>
      <trkpt lat="43.56367" lon="1.12396">
        <ele>277.1</ele>
        <time>2020-11-29T10:30:44Z</time>
      </trkpt>
      <trkpt lat="43.56367" lon="1.12398">
        <ele>277</ele>
        <time>2020-11-29T10:30:45Z</time>
      </trkpt>
      <trkpt lat="43.56367" lon="1.12399">
        <ele>276.9</ele>
        <time>2020-11-29T10:30:46Z</time>
      </trkpt>
      <trkpt lat="43.56367" lon="1.12402">
        <ele>276.7</ele>
        <time>2020-11-29T10:30:47Z</time>
      </trkpt>
      <trkpt lat="43.56366" lon="1.12406">
        <ele>276.5</ele>
        <time>2020-11-29T10:30:48Z</time>
      </trkpt>
      <trkpt lat="43.56366" lon="1.12407">
        <ele>276.4</ele>
        <time>2020-11-29T10:30:49Z</time>
      </trkpt>
      <trkpt lat="43.56363" lon="1.12411">
        <ele>276.2</ele>
        <time>2020-11-29T10:30:50Z</time>
      </trkpt>
      <trkpt lat="43.56362" lon="1.12412">
        <ele>276.1</ele>
        <time>2020-11-29T10:30:51Z</time>
      </trkpt>
      <trkpt lat="43.5636" lon="1.12415">
        <ele>276.1</ele>
        <time>2020-11-29T10:30:52Z</time>
      </trkpt>
      <trkpt lat="43.56358" lon="1.12416">
        <ele>276.1</ele>
        <time>2020-11-29T10:30:53Z</time>
      </trkpt>
      <trkpt lat="43.56356" lon="1.12418">
        <ele>276.1</ele>
        <time>2020-11-29T10:30:54Z</time>
      </trkpt>
      <trkpt lat="43.56353" lon="1.1242">
        <ele>276.1</ele>
        <time>2020-11-29T10:30:55Z</time>
      </trkpt>
      <trkpt lat="43.56352" lon="1.1242">
        <ele>276.1</ele>
        <time>2020-11-29T10:30:56Z</time>
      </trkpt>
      <trkpt lat="43.56349" lon="1.12421">
        <ele>276.1</ele>
        <time>2020-11-29T10:30:57Z</time>
      </trkpt>
      <trkpt lat="43.56347" lon="1.12421">
        <ele>276.1</ele>
        <time>2020-11-29T10:30:58Z</time>
      </trkpt>
      <trkpt lat="43.56344" lon="1.12421">
        <ele>276.1</ele>
        <time>2020-11-29T10:30:59Z</time>
      </trkpt>
      <trkpt lat="43.56341" lon="1.12422">
        <ele>276.1</ele>
        <time>2020-11-29T10:31:00Z</time>
      </trkpt>
      <trkpt lat="43.56338" lon="1.12425">
        <ele>276.1</ele>
        <time>2020-11-29T10:31:01Z</time>
      </trkpt>
      <trkpt lat="43.56335" lon="1.12426">
        <ele>276.1</ele>
        <time>2020-11-29T10:31:02Z</time>
      </trkpt>
      <trkpt lat="43.56333" lon="1.12428">
        <ele>276</ele>
        <time>2020-11-29T10:31:03Z</time>
      </trkpt>
      <trkpt lat="43.5633" lon="1.12431">
        <ele>276</ele>
        <time>2020-11-29T10:31:04Z</time>
      </trkpt>
      <trkpt lat="43.56328" lon="1.12434">
        <ele>276</ele>
        <time>2020-11-29T10:31:05Z</time>
      </trkpt>
      <trkpt lat="43.56323" lon="1.12441">
        <ele>275.9</ele>
        <time>2020-11-29T10:31:06Z</time>
      </trkpt>
      <trkpt lat="43.5632" lon="1.12445">
        <ele>275.9</ele>
        <time>2020-11-29T10:31:07Z</time>
      </trkpt>
      <trkpt lat="43.56318" lon="1.12449">
        <ele>275.9</ele>
        <time>2020-11-29T10:31:08Z</time>
      </trkpt>
      <trkpt lat="43.56317" lon="1.12454">
        <ele>275.9</ele>
        <time>2020-11-29T10:31:09Z</time>
      </trkpt>
      <trkpt lat="43.56315" lon="1.1246">
        <ele>275.8</ele>
        <time>2020-11-29T10:31:10Z</time>
      </trkpt>
      <trkpt lat="43.56312" lon="1.12464">
        <ele>275.8</ele>
        <time>2020-11-29T10:31:11Z</time>
      </trkpt>
      <trkpt lat="43.56312" lon="1.12472">
        <ele>275.7</ele>
        <time>2020-11-29T10:31:12Z</time>
      </trkpt>
      <trkpt lat="43.5631" lon="1.12478">
        <ele>275.7</ele>
        <time>2020-11-29T10:31:13Z</time>
      </trkpt>
      <trkpt lat="43.56308" lon="1.12484">
        <ele>275.6</ele>
        <time>2020-11-29T10:31:14Z</time>
      </trkpt>
      <trkpt lat="43.56307" lon="1.12489">
        <ele>275.6</ele>
        <time>2020-11-29T10:31:15Z</time>
      </trkpt>
      <trkpt lat="43.56306" lon="1.12493">
        <ele>275.6</ele>
        <time>2020-11-29T10:31:16Z</time>
      </trkpt>
      <trkpt lat="43.56304" lon="1.12497">
        <ele>275.5</ele>
        <time>2020-11-29T10:31:17Z</time>
      </trkpt>
      <trkpt lat="43.56303" lon="1.12502">
        <ele>275.5</ele>
        <time>2020-11-29T10:31:18Z</time>
      </trkpt>
      <trkpt lat="43.56301" lon="1.12507">
        <ele>275.5</ele>
        <time>2020-11-29T10:31:19Z</time>
      </trkpt>
      <trkpt lat="43.563" lon="1.12512">
        <ele>275.4</ele>
        <time>2020-11-29T10:31:20Z</time>
      </trkpt>
      <trkpt lat="43.56299" lon="1.12518">
        <ele>275.4</ele>
        <time>2020-11-29T10:31:21Z</time>
      </trkpt>
      <trkpt lat="43.56297" lon="1.12523">
        <ele>275.4</ele>
        <time>2020-11-29T10:31:22Z</time>
      </trkpt>
      <trkpt lat="43.56296" lon="1.12529">
        <ele>275.4</ele>
        <time>2020-11-29T10:31:23Z</time>
      </trkpt>
      <trkpt lat="43.56295" lon="1.12534">
        <ele>275.4</ele>
        <time>2020-11-29T10:31:24Z</time>
      </trkpt>
      <trkpt lat="43.56293" lon="1.12539">
        <ele>275.4</ele>
        <time>2020-11-29T10:31:25Z</time>
      </trkpt>
      <trkpt lat="43.56292" lon="1.12546">
        <ele>275.4</ele>
        <time>2020-11-29T10:31:26Z</time>
      </trkpt>
      <trkpt lat="43.56292" lon="1.12552">
        <ele>275.4</ele>
        <time>2020-11-29T10:31:27Z</time>
      </trkpt>
      <trkpt lat="43.56291" lon="1.12558">
        <ele>275.4</ele>
        <time>2020-11-29T10:31:28Z</time>
      </trkpt>
      <trkpt lat="43.56289" lon="1.12564">
        <ele>275.4</ele>
        <time>2020-11-29T10:31:29Z</time>
      </trkpt>
      <trkpt lat="43.56289" lon="1.12569">
        <ele>275.4</ele>
        <time>2020-11-29T10:31:30Z</time>
      </trkpt>
      <trkpt lat="43.56288" lon="1.12575">
        <ele>275.5</ele>
        <time>2020-11-29T10:31:31Z</time>
      </trkpt>
      <trkpt lat="43.56287" lon="1.1258">
        <ele>275.5</ele>
        <time>2020-11-29T10:31:32Z</time>
      </trkpt>
      <trkpt lat="43.56286" lon="1.12585">
        <ele>275.5</ele>
        <time>2020-11-29T10:31:33Z</time>
      </trkpt>
      <trkpt lat="43.56286" lon="1.12589">
        <ele>275.5</ele>
        <time>2020-11-29T10:31:34Z</time>
      </trkpt>
      <trkpt lat="43.56286" lon="1.12594">
        <ele>275.5</ele>
        <time>2020-11-29T10:31:35Z</time>
      </trkpt>
      <trkpt lat="43.56286" lon="1.12599">
        <ele>275.6</ele>
        <time>2020-11-29T10:31:36Z</time>
      </trkpt>
      <trkpt lat="43.56286" lon="1.12604">
        <ele>275.6</ele>
        <time>2020-11-29T10:31:37Z</time>
      </trkpt>
      <trkpt lat="43.56285" lon="1.12609">
        <ele>275.6</ele>
        <time>2020-11-29T10:31:38Z</time>
      </trkpt>
      <trkpt lat="43.56283" lon="1.12614">
        <ele>275.7</ele>
        <time>2020-11-29T10:31:39Z</time>
      </trkpt>
      <trkpt lat="43.56283" lon="1.12618">
        <ele>275.7</ele>
        <time>2020-11-29T10:31:40Z</time>
      </trkpt>
      <trkpt lat="43.56283" lon="1.12624">
        <ele>275.7</ele>
        <time>2020-11-29T10:31:41Z</time>
      </trkpt>
      <trkpt lat="43.56283" lon="1.12626">
        <ele>275.8</ele>
        <time>2020-11-29T10:31:42Z</time>
      </trkpt>
      <trkpt lat="43.56282" lon="1.1263">
        <ele>275.8</ele>
        <time>2020-11-29T10:31:43Z</time>
      </trkpt>
      <trkpt lat="43.56282" lon="1.12634">
        <ele>275.8</ele>
        <time>2020-11-29T10:31:44Z</time>
      </trkpt>
      <trkpt lat="43.56282" lon="1.12642">
        <ele>275.9</ele>
        <time>2020-11-29T10:31:45Z</time>
      </trkpt>
      <trkpt lat="43.56282" lon="1.12651">
        <ele>276</ele>
        <time>2020-11-29T10:31:46Z</time>
      </trkpt>
      <trkpt lat="43.56282" lon="1.12659">
        <ele>276</ele>
        <time>2020-11-29T10:31:47Z</time>
      </trkpt>
      <trkpt lat="43.56282" lon="1.12667">
        <ele>276.1</ele>
        <time>2020-11-29T10:31:48Z</time>
      </trkpt>
      <trkpt lat="43.56283" lon="1.12674">
        <ele>276.2</ele>
        <time>2020-11-29T10:31:49Z</time>
      </trkpt>
      <trkpt lat="43.56283" lon="1.12684">
        <ele>276.3</ele>
        <time>2020-11-29T10:31:50Z</time>
      </trkpt>
      <trkpt lat="43.56284" lon="1.12692">
        <ele>276.3</ele>
        <time>2020-11-29T10:31:51Z</time>
      </trkpt>
      <trkpt lat="43.56284" lon="1.12701">
        <ele>276.3</ele>
        <time>2020-11-29T10:31:52Z</time>
      </trkpt>
      <trkpt lat="43.56285" lon="1.12709">
        <ele>276.4</ele>
        <time>2020-11-29T10:31:53Z</time>
      </trkpt>
      <trkpt lat="43.56285" lon="1.12716">
        <ele>276.4</ele>
        <time>2020-11-29T10:31:54Z</time>
      </trkpt>
      <trkpt lat="43.56286" lon="1.12723">
        <ele>276.4</ele>
        <time>2020-11-29T10:31:55Z</time>
      </trkpt>
      <trkpt lat="43.56285" lon="1.12732">
        <ele>276.5</ele>
        <time>2020-11-29T10:31:57Z</time>
      </trkpt>
      <trkpt lat="43.56285" lon="1.12737">
        <ele>276.5</ele>
        <time>2020-11-29T10:31:58Z</time>
      </trkpt>
      <trkpt lat="43.56284" lon="1.12741">
        <ele>276.5</ele>
        <time>2020-11-29T10:31:59Z</time>
      </trkpt>
      <trkpt lat="43.56284" lon="1.12747">
        <ele>276.5</ele>
        <time>2020-11-29T10:32:00Z</time>
      </trkpt>
      <trkpt lat="43.56284" lon="1.12748">
        <ele>276.5</ele>
        <time>2020-11-29T10:32:01Z</time>
      </trkpt>
      <trkpt lat="43.56283" lon="1.12752">
        <ele>276.5</ele>
        <time>2020-11-29T10:32:02Z</time>
      </trkpt>
      <trkpt lat="43.56282" lon="1.12756">
        <ele>276.5</ele>
        <time>2020-11-29T10:32:03Z</time>
      </trkpt>
      <trkpt lat="43.56282" lon="1.12758">
        <ele>276.5</ele>
        <time>2020-11-29T10:32:04Z</time>
      </trkpt>
      <trkpt lat="43.56282" lon="1.12764">
        <ele>276.6</ele>
        <time>2020-11-29T10:32:05Z</time>
      </trkpt>
      <trkpt lat="43.56283" lon="1.1277">
        <ele>276.6</ele>
        <time>2020-11-29T10:32:06Z</time>
      </trkpt>
      <trkpt lat="43.56284" lon="1.12776">
        <ele>276.6</ele>
        <time>2020-11-29T10:32:07Z</time>
      </trkpt>
      <trkpt lat="43.56285" lon="1.1278">
        <ele>276.7</ele>
        <time>2020-11-29T10:32:08Z</time>
      </trkpt>
      <trkpt lat="43.56285" lon="1.12784">
        <ele>276.7</ele>
        <time>2020-11-29T10:32:09Z</time>
      </trkpt>
      <trkpt lat="43.56285" lon="1.12789">
        <ele>276.8</ele>
        <time>2020-11-29T10:32:10Z</time>
      </trkpt>
      <trkpt lat="43.56286" lon="1.12793">
        <ele>276.8</ele>
        <time>2020-11-29T10:32:11Z</time>
      </trkpt>
      <trkpt lat="43.56286" lon="1.12799">
        <ele>277</ele>
        <time>2020-11-29T10:32:12Z</time>
      </trkpt>
      <trkpt lat="43.56287" lon="1.12805">
        <ele>277.2</ele>
        <time>2020-11-29T10:32:13Z</time>
      </trkpt>
      <trkpt lat="43.56287" lon="1.12812">
        <ele>277.3</ele>
        <time>2020-11-29T10:32:14Z</time>
      </trkpt>
      <trkpt lat="43.56287" lon="1.12818">
        <ele>277.4</ele>
        <time>2020-11-29T10:32:15Z</time>
      </trkpt>
      <trkpt lat="43.56287" lon="1.12824">
        <ele>277.5</ele>
        <time>2020-11-29T10:32:16Z</time>
      </trkpt>
      <trkpt lat="43.56288" lon="1.12831">
        <ele>277.7</ele>
        <time>2020-11-29T10:32:17Z</time>
      </trkpt>
      <trkpt lat="43.56288" lon="1.12834">
        <ele>277.7</ele>
        <time>2020-11-29T10:32:18Z</time>
      </trkpt>
      <trkpt lat="43.56289" lon="1.1284">
        <ele>277.9</ele>
        <time>2020-11-29T10:32:19Z</time>
      </trkpt>
      <trkpt lat="43.56289" lon="1.12845">
        <ele>278</ele>
        <time>2020-11-29T10:32:20Z</time>
      </trkpt>
      <trkpt lat="43.56289" lon="1.12847">
        <ele>278</ele>
        <time>2020-11-29T10:32:21Z</time>
      </trkpt>
      <trkpt lat="43.56289" lon="1.12853">
        <ele>278.2</ele>
        <time>2020-11-29T10:32:22Z</time>
      </trkpt>
      <trkpt lat="43.56288" lon="1.12859">
        <ele>278.4</ele>
        <time>2020-11-29T10:32:23Z</time>
      </trkpt>
      <trkpt lat="43.56286" lon="1.12865">
        <ele>278.5</ele>
        <time>2020-11-29T10:32:24Z</time>
      </trkpt>
      <trkpt lat="43.56285" lon="1.1287">
        <ele>278.7</ele>
        <time>2020-11-29T10:32:25Z</time>
      </trkpt>
      <trkpt lat="43.56284" lon="1.12876">
        <ele>278.9</ele>
        <time>2020-11-29T10:32:26Z</time>
      </trkpt>
      <trkpt lat="43.56284" lon="1.12881">
        <ele>279</ele>
        <time>2020-11-29T10:32:27Z</time>
      </trkpt>
      <trkpt lat="43.56283" lon="1.12885">
        <ele>279.2</ele>
        <time>2020-11-29T10:32:28Z</time>
      </trkpt>
      <trkpt lat="43.56282" lon="1.1289">
        <ele>279.3</ele>
        <time>2020-11-29T10:32:29Z</time>
      </trkpt>
      <trkpt lat="43.56281" lon="1.12896">
        <ele>279.5</ele>
        <time>2020-11-29T10:32:30Z</time>
      </trkpt>
      <trkpt lat="43.56279" lon="1.12901">
        <ele>279.7</ele>
        <time>2020-11-29T10:32:31Z</time>
      </trkpt>
      <trkpt lat="43.56278" lon="1.12908">
        <ele>279.9</ele>
        <time>2020-11-29T10:32:32Z</time>
      </trkpt>
      <trkpt lat="43.56278" lon="1.12912">
        <ele>280.1</ele>
        <time>2020-11-29T10:32:33Z</time>
      </trkpt>
      <trkpt lat="43.56276" lon="1.12918">
        <ele>280.3</ele>
        <time>2020-11-29T10:32:34Z</time>
      </trkpt>
      <trkpt lat="43.56276" lon="1.1292">
        <ele>280.4</ele>
        <time>2020-11-29T10:32:35Z</time>
      </trkpt>
      <trkpt lat="43.56275" lon="1.12926">
        <ele>280.6</ele>
        <time>2020-11-29T10:32:36Z</time>
      </trkpt>
      <trkpt lat="43.56274" lon="1.12932">
        <ele>280.9</ele>
        <time>2020-11-29T10:32:37Z</time>
      </trkpt>
      <trkpt lat="43.56274" lon="1.1294">
        <ele>281.2</ele>
        <time>2020-11-29T10:32:38Z</time>
      </trkpt>
      <trkpt lat="43.56273" lon="1.12946">
        <ele>281.4</ele>
        <time>2020-11-29T10:32:39Z</time>
      </trkpt>
      <trkpt lat="43.56272" lon="1.12952">
        <ele>281.6</ele>
        <time>2020-11-29T10:32:40Z</time>
      </trkpt>
      <trkpt lat="43.56271" lon="1.12956">
        <ele>281.8</ele>
        <time>2020-11-29T10:32:41Z</time>
      </trkpt>
      <trkpt lat="43.56269" lon="1.12962">
        <ele>282</ele>
        <time>2020-11-29T10:32:42Z</time>
      </trkpt>
      <trkpt lat="43.56269" lon="1.12965">
        <ele>282.1</ele>
        <time>2020-11-29T10:32:43Z</time>
      </trkpt>
      <trkpt lat="43.56267" lon="1.12971">
        <ele>282.3</ele>
        <time>2020-11-29T10:32:44Z</time>
      </trkpt>
      <trkpt lat="43.56267" lon="1.12975">
        <ele>282.4</ele>
        <time>2020-11-29T10:32:45Z</time>
      </trkpt>
      <trkpt lat="43.56266" lon="1.1298">
        <ele>282.6</ele>
        <time>2020-11-29T10:32:46Z</time>
      </trkpt>
      <trkpt lat="43.56266" lon="1.12984">
        <ele>282.7</ele>
        <time>2020-11-29T10:32:47Z</time>
      </trkpt>
      <trkpt lat="43.56265" lon="1.12988">
        <ele>282.8</ele>
        <time>2020-11-29T10:32:48Z</time>
      </trkpt>
      <trkpt lat="43.56264" lon="1.12993">
        <ele>282.9</ele>
        <time>2020-11-29T10:32:49Z</time>
      </trkpt>
      <trkpt lat="43.56264" lon="1.13001">
        <ele>283</ele>
        <time>2020-11-29T10:32:50Z</time>
      </trkpt>
      <trkpt lat="43.56263" lon="1.13006">
        <ele>283.1</ele>
        <time>2020-11-29T10:32:51Z</time>
      </trkpt>
      <trkpt lat="43.56261" lon="1.1301">
        <ele>283.2</ele>
        <time>2020-11-29T10:32:52Z</time>
      </trkpt>
      <trkpt lat="43.56262" lon="1.13016">
        <ele>283.2</ele>
        <time>2020-11-29T10:32:53Z</time>
      </trkpt>
      <trkpt lat="43.56261" lon="1.13021">
        <ele>283.3</ele>
        <time>2020-11-29T10:32:54Z</time>
      </trkpt>
      <trkpt lat="43.56261" lon="1.13026">
        <ele>283.3</ele>
        <time>2020-11-29T10:32:55Z</time>
      </trkpt>
      <trkpt lat="43.56262" lon="1.13033">
        <ele>283.3</ele>
        <time>2020-11-29T10:32:56Z</time>
      </trkpt>
      <trkpt lat="43.56264" lon="1.13039">
        <ele>283.3</ele>
        <time>2020-11-29T10:32:57Z</time>
      </trkpt>
      <trkpt lat="43.56265" lon="1.13046">
        <ele>283.3</ele>
        <time>2020-11-29T10:32:58Z</time>
      </trkpt>
      <trkpt lat="43.56266" lon="1.13052">
        <ele>283.3</ele>
        <time>2020-11-29T10:32:59Z</time>
      </trkpt>
      <trkpt lat="43.56267" lon="1.13059">
        <ele>283.2</ele>
        <time>2020-11-29T10:33:00Z</time>
      </trkpt>
      <trkpt lat="43.56267" lon="1.13064">
        <ele>283.2</ele>
        <time>2020-11-29T10:33:01Z</time>
      </trkpt>
      <trkpt lat="43.56267" lon="1.13069">
        <ele>283.2</ele>
        <time>2020-11-29T10:33:02Z</time>
      </trkpt>
      <trkpt lat="43.56267" lon="1.13074">
        <ele>283.1</ele>
        <time>2020-11-29T10:33:03Z</time>
      </trkpt>
      <trkpt lat="43.56266" lon="1.1308">
        <ele>283.1</ele>
        <time>2020-11-29T10:33:04Z</time>
      </trkpt>
      <trkpt lat="43.56267" lon="1.13086">
        <ele>283.1</ele>
        <time>2020-11-29T10:33:05Z</time>
      </trkpt>
      <trkpt lat="43.56265" lon="1.13092">
        <ele>283</ele>
        <time>2020-11-29T10:33:06Z</time>
      </trkpt>
      <trkpt lat="43.56264" lon="1.131">
        <ele>283</ele>
        <time>2020-11-29T10:33:07Z</time>
      </trkpt>
      <trkpt lat="43.56263" lon="1.13107">
        <ele>283</ele>
        <time>2020-11-29T10:33:08Z</time>
      </trkpt>
      <trkpt lat="43.56262" lon="1.13113">
        <ele>282.9</ele>
        <time>2020-11-29T10:33:09Z</time>
      </trkpt>
      <trkpt lat="43.56261" lon="1.13119">
        <ele>282.9</ele>
        <time>2020-11-29T10:33:10Z</time>
      </trkpt>
      <trkpt lat="43.56261" lon="1.13127">
        <ele>283</ele>
        <time>2020-11-29T10:33:11Z</time>
      </trkpt>
      <trkpt lat="43.5626" lon="1.13134">
        <ele>283</ele>
        <time>2020-11-29T10:33:12Z</time>
      </trkpt>
      <trkpt lat="43.56259" lon="1.1314">
        <ele>283</ele>
        <time>2020-11-29T10:33:13Z</time>
      </trkpt>
      <trkpt lat="43.56258" lon="1.13145">
        <ele>283</ele>
        <time>2020-11-29T10:33:14Z</time>
      </trkpt>
      <trkpt lat="43.56258" lon="1.13151">
        <ele>283.1</ele>
        <time>2020-11-29T10:33:15Z</time>
      </trkpt>
      <trkpt lat="43.56257" lon="1.13158">
        <ele>283.1</ele>
        <time>2020-11-29T10:33:16Z</time>
      </trkpt>
      <trkpt lat="43.56258" lon="1.13163">
        <ele>283.2</ele>
        <time>2020-11-29T10:33:17Z</time>
      </trkpt>
      <trkpt lat="43.56258" lon="1.1317">
        <ele>283.3</ele>
        <time>2020-11-29T10:33:18Z</time>
      </trkpt>
      <trkpt lat="43.56257" lon="1.13176">
        <ele>283.3</ele>
        <time>2020-11-29T10:33:19Z</time>
      </trkpt>
      <trkpt lat="43.56255" lon="1.13182">
        <ele>283.4</ele>
        <time>2020-11-29T10:33:20Z</time>
      </trkpt>
      <trkpt lat="43.56255" lon="1.13187">
        <ele>283.4</ele>
        <time>2020-11-29T10:33:21Z</time>
      </trkpt>
      <trkpt lat="43.56254" lon="1.13192">
        <ele>283.5</ele>
        <time>2020-11-29T10:33:22Z</time>
      </trkpt>
      <trkpt lat="43.56253" lon="1.13197">
        <ele>283.5</ele>
        <time>2020-11-29T10:33:23Z</time>
      </trkpt>
      <trkpt lat="43.56252" lon="1.13203">
        <ele>283.6</ele>
        <time>2020-11-29T10:33:24Z</time>
      </trkpt>
      <trkpt lat="43.56251" lon="1.1321">
        <ele>283.7</ele>
        <time>2020-11-29T10:33:25Z</time>
      </trkpt>
      <trkpt lat="43.5625" lon="1.13215">
        <ele>283.7</ele>
        <time>2020-11-29T10:33:26Z</time>
      </trkpt>
      <trkpt lat="43.5625" lon="1.13221">
        <ele>283.8</ele>
        <time>2020-11-29T10:33:27Z</time>
      </trkpt>
      <trkpt lat="43.5625" lon="1.13227">
        <ele>283.9</ele>
        <time>2020-11-29T10:33:28Z</time>
      </trkpt>
      <trkpt lat="43.56249" lon="1.13233">
        <ele>284</ele>
        <time>2020-11-29T10:33:29Z</time>
      </trkpt>
      <trkpt lat="43.56248" lon="1.1324">
        <ele>284</ele>
        <time>2020-11-29T10:33:30Z</time>
      </trkpt>
      <trkpt lat="43.56248" lon="1.13246">
        <ele>284.1</ele>
        <time>2020-11-29T10:33:31Z</time>
      </trkpt>
      <trkpt lat="43.56248" lon="1.13252">
        <ele>284.2</ele>
        <time>2020-11-29T10:33:32Z</time>
      </trkpt>
      <trkpt lat="43.56248" lon="1.13257">
        <ele>284.3</ele>
        <time>2020-11-29T10:33:33Z</time>
      </trkpt>
      <trkpt lat="43.56247" lon="1.13262">
        <ele>284.3</ele>
        <time>2020-11-29T10:33:34Z</time>
      </trkpt>
      <trkpt lat="43.56247" lon="1.13266">
        <ele>284.3</ele>
        <time>2020-11-29T10:33:35Z</time>
      </trkpt>
      <trkpt lat="43.56247" lon="1.13271">
        <ele>284.4</ele>
        <time>2020-11-29T10:33:36Z</time>
      </trkpt>
      <trkpt lat="43.56245" lon="1.13274">
        <ele>284.4</ele>
        <time>2020-11-29T10:33:37Z</time>
      </trkpt>
      <trkpt lat="43.56246" lon="1.13279">
        <ele>284.5</ele>
        <time>2020-11-29T10:33:38Z</time>
      </trkpt>
      <trkpt lat="43.56248" lon="1.13285">
        <ele>284.3</ele>
        <time>2020-11-29T10:33:39Z</time>
      </trkpt>
      <trkpt lat="43.56251" lon="1.13288">
        <ele>284.1</ele>
        <time>2020-11-29T10:33:40Z</time>
      </trkpt>
      <trkpt lat="43.56253" lon="1.13289">
        <ele>284</ele>
        <time>2020-11-29T10:33:41Z</time>
      </trkpt>
      <trkpt lat="43.56256" lon="1.13291">
        <ele>283.7</ele>
        <time>2020-11-29T10:33:42Z</time>
      </trkpt>
      <trkpt lat="43.5626" lon="1.13294">
        <ele>283.4</ele>
        <time>2020-11-29T10:33:43Z</time>
      </trkpt>
      <trkpt lat="43.56261" lon="1.13295">
        <ele>283.2</ele>
        <time>2020-11-29T10:33:44Z</time>
      </trkpt>
      <trkpt lat="43.56265" lon="1.13297">
        <ele>282.8</ele>
        <time>2020-11-29T10:33:45Z</time>
      </trkpt>
      <trkpt lat="43.56269" lon="1.13298">
        <ele>282.3</ele>
        <time>2020-11-29T10:33:46Z</time>
      </trkpt>
      <trkpt lat="43.56272" lon="1.13299">
        <ele>281.9</ele>
        <time>2020-11-29T10:33:47Z</time>
      </trkpt>
      <trkpt lat="43.56275" lon="1.133">
        <ele>281.5</ele>
        <time>2020-11-29T10:33:48Z</time>
      </trkpt>
      <trkpt lat="43.56278" lon="1.13302">
        <ele>281.1</ele>
        <time>2020-11-29T10:33:49Z</time>
      </trkpt>
      <trkpt lat="43.56281" lon="1.13305">
        <ele>280.5</ele>
        <time>2020-11-29T10:33:50Z</time>
      </trkpt>
      <trkpt lat="43.56283" lon="1.13306">
        <ele>280.3</ele>
        <time>2020-11-29T10:33:51Z</time>
      </trkpt>
      <trkpt lat="43.56286" lon="1.13306">
        <ele>279.8</ele>
        <time>2020-11-29T10:33:52Z</time>
      </trkpt>
      <trkpt lat="43.56289" lon="1.13307">
        <ele>279.3</ele>
        <time>2020-11-29T10:33:53Z</time>
      </trkpt>
      <trkpt lat="43.56294" lon="1.13308">
        <ele>278.7</ele>
        <time>2020-11-29T10:33:54Z</time>
      </trkpt>
      <trkpt lat="43.56299" lon="1.13311">
        <ele>277.8</ele>
        <time>2020-11-29T10:33:55Z</time>
      </trkpt>
      <trkpt lat="43.56303" lon="1.13313">
        <ele>277.1</ele>
        <time>2020-11-29T10:33:56Z</time>
      </trkpt>
      <trkpt lat="43.56308" lon="1.13315">
        <ele>276.4</ele>
        <time>2020-11-29T10:33:57Z</time>
      </trkpt>
      <trkpt lat="43.56313" lon="1.13318">
        <ele>275.7</ele>
        <time>2020-11-29T10:33:58Z</time>
      </trkpt>
      <trkpt lat="43.56318" lon="1.13321">
        <ele>274.7</ele>
        <time>2020-11-29T10:33:59Z</time>
      </trkpt>
      <trkpt lat="43.56324" lon="1.13324">
        <ele>273.8</ele>
        <time>2020-11-29T10:34:00Z</time>
      </trkpt>
      <trkpt lat="43.56331" lon="1.13326">
        <ele>272.6</ele>
        <time>2020-11-29T10:34:01Z</time>
      </trkpt>
      <trkpt lat="43.56338" lon="1.1333">
        <ele>271.4</ele>
        <time>2020-11-29T10:34:02Z</time>
      </trkpt>
      <trkpt lat="43.56345" lon="1.13335">
        <ele>270.2</ele>
        <time>2020-11-29T10:34:03Z</time>
      </trkpt>
      <trkpt lat="43.56352" lon="1.13337">
        <ele>269.1</ele>
        <time>2020-11-29T10:34:04Z</time>
      </trkpt>
      <trkpt lat="43.56358" lon="1.13339">
        <ele>268.3</ele>
        <time>2020-11-29T10:34:05Z</time>
      </trkpt>
      <trkpt lat="43.56366" lon="1.13343">
        <ele>267.1</ele>
        <time>2020-11-29T10:34:06Z</time>
      </trkpt>
      <trkpt lat="43.56375" lon="1.13346">
        <ele>265.8</ele>
        <time>2020-11-29T10:34:07Z</time>
      </trkpt>
      <trkpt lat="43.56382" lon="1.13349">
        <ele>264.8</ele>
        <time>2020-11-29T10:34:08Z</time>
      </trkpt>
      <trkpt lat="43.56388" lon="1.13352">
        <ele>263.7</ele>
        <time>2020-11-29T10:34:09Z</time>
      </trkpt>
      <trkpt lat="43.56396" lon="1.13355">
        <ele>262.5</ele>
        <time>2020-11-29T10:34:10Z</time>
      </trkpt>
      <trkpt lat="43.56405" lon="1.13358">
        <ele>261</ele>
        <time>2020-11-29T10:34:11Z</time>
      </trkpt>
      <trkpt lat="43.56413" lon="1.1336">
        <ele>259.8</ele>
        <time>2020-11-29T10:34:12Z</time>
      </trkpt>
      <trkpt lat="43.5642" lon="1.13363">
        <ele>258.6</ele>
        <time>2020-11-29T10:34:13Z</time>
      </trkpt>
      <trkpt lat="43.56425" lon="1.13366">
        <ele>257.9</ele>
        <time>2020-11-29T10:34:14Z</time>
      </trkpt>
      <trkpt lat="43.56431" lon="1.13368">
        <ele>257.1</ele>
        <time>2020-11-29T10:34:15Z</time>
      </trkpt>
      <trkpt lat="43.56437" lon="1.1337">
        <ele>256.2</ele>
        <time>2020-11-29T10:34:16Z</time>
      </trkpt>
      <trkpt lat="43.56444" lon="1.13373">
        <ele>255.3</ele>
        <time>2020-11-29T10:34:17Z</time>
      </trkpt>
      <trkpt lat="43.56451" lon="1.13375">
        <ele>254.6</ele>
        <time>2020-11-29T10:34:18Z</time>
      </trkpt>
      <trkpt lat="43.56458" lon="1.13377">
        <ele>253.8</ele>
        <time>2020-11-29T10:34:19Z</time>
      </trkpt>
      <trkpt lat="43.56467" lon="1.13379">
        <ele>253</ele>
        <time>2020-11-29T10:34:20Z</time>
      </trkpt>
      <trkpt lat="43.56477" lon="1.13382">
        <ele>252</ele>
        <time>2020-11-29T10:34:21Z</time>
      </trkpt>
      <trkpt lat="43.56484" lon="1.13385">
        <ele>251.2</ele>
        <time>2020-11-29T10:34:22Z</time>
      </trkpt>
      <trkpt lat="43.56491" lon="1.13388">
        <ele>250.4</ele>
        <time>2020-11-29T10:34:23Z</time>
      </trkpt>
      <trkpt lat="43.56499" lon="1.13391">
        <ele>249.6</ele>
        <time>2020-11-29T10:34:24Z</time>
      </trkpt>
      <trkpt lat="43.56507" lon="1.13394">
        <ele>249</ele>
        <time>2020-11-29T10:34:25Z</time>
      </trkpt>
      <trkpt lat="43.56514" lon="1.13397">
        <ele>248.5</ele>
        <time>2020-11-29T10:34:26Z</time>
      </trkpt>
      <trkpt lat="43.56523" lon="1.13401">
        <ele>247.8</ele>
        <time>2020-11-29T10:34:27Z</time>
      </trkpt>
      <trkpt lat="43.56532" lon="1.13405">
        <ele>247.2</ele>
        <time>2020-11-29T10:34:28Z</time>
      </trkpt>
      <trkpt lat="43.56542" lon="1.13411">
        <ele>246.5</ele>
        <time>2020-11-29T10:34:29Z</time>
      </trkpt>
      <trkpt lat="43.5655" lon="1.13415">
        <ele>246</ele>
        <time>2020-11-29T10:34:30Z</time>
      </trkpt>
      <trkpt lat="43.56557" lon="1.13418">
        <ele>245.6</ele>
        <time>2020-11-29T10:34:31Z</time>
      </trkpt>
      <trkpt lat="43.56563" lon="1.1342">
        <ele>245.2</ele>
        <time>2020-11-29T10:34:32Z</time>
      </trkpt>
      <trkpt lat="43.56572" lon="1.13424">
        <ele>244.6</ele>
        <time>2020-11-29T10:34:33Z</time>
      </trkpt>
      <trkpt lat="43.56581" lon="1.13429">
        <ele>243.9</ele>
        <time>2020-11-29T10:34:34Z</time>
      </trkpt>
      <trkpt lat="43.56589" lon="1.13433">
        <ele>243.3</ele>
        <time>2020-11-29T10:34:35Z</time>
      </trkpt>
      <trkpt lat="43.56598" lon="1.13436">
        <ele>242.5</ele>
        <time>2020-11-29T10:34:36Z</time>
      </trkpt>
      <trkpt lat="43.56606" lon="1.13439">
        <ele>241.9</ele>
        <time>2020-11-29T10:34:37Z</time>
      </trkpt>
      <trkpt lat="43.56614" lon="1.13442">
        <ele>241.2</ele>
        <time>2020-11-29T10:34:38Z</time>
      </trkpt>
      <trkpt lat="43.56622" lon="1.13446">
        <ele>240.5</ele>
        <time>2020-11-29T10:34:39Z</time>
      </trkpt>
      <trkpt lat="43.56631" lon="1.13449">
        <ele>239.9</ele>
        <time>2020-11-29T10:34:40Z</time>
      </trkpt>
      <trkpt lat="43.56641" lon="1.13453">
        <ele>239.1</ele>
        <time>2020-11-29T10:34:41Z</time>
      </trkpt>
      <trkpt lat="43.56654" lon="1.13458">
        <ele>238.3</ele>
        <time>2020-11-29T10:34:42Z</time>
      </trkpt>
      <trkpt lat="43.56663" lon="1.13462">
        <ele>237.9</ele>
        <time>2020-11-29T10:34:43Z</time>
      </trkpt>
      <trkpt lat="43.5667" lon="1.13466">
        <ele>237.7</ele>
        <time>2020-11-29T10:34:44Z</time>
      </trkpt>
      <trkpt lat="43.56677" lon="1.13469">
        <ele>237.5</ele>
        <time>2020-11-29T10:34:45Z</time>
      </trkpt>
      <trkpt lat="43.56685" lon="1.13471">
        <ele>237.3</ele>
        <time>2020-11-29T10:34:46Z</time>
      </trkpt>
      <trkpt lat="43.56695" lon="1.13475">
        <ele>237</ele>
        <time>2020-11-29T10:34:47Z</time>
      </trkpt>
      <trkpt lat="43.56704" lon="1.13477">
        <ele>236.8</ele>
        <time>2020-11-29T10:34:48Z</time>
      </trkpt>
      <trkpt lat="43.56713" lon="1.1348">
        <ele>236.5</ele>
        <time>2020-11-29T10:34:49Z</time>
      </trkpt>
      <trkpt lat="43.56722" lon="1.13482">
        <ele>236.2</ele>
        <time>2020-11-29T10:34:50Z</time>
      </trkpt>
      <trkpt lat="43.56734" lon="1.13484">
        <ele>235.8</ele>
        <time>2020-11-29T10:34:51Z</time>
      </trkpt>
      <trkpt lat="43.5674" lon="1.13487">
        <ele>235.6</ele>
        <time>2020-11-29T10:34:52Z</time>
      </trkpt>
      <trkpt lat="43.56747" lon="1.13488">
        <ele>235.4</ele>
        <time>2020-11-29T10:34:53Z</time>
      </trkpt>
      <trkpt lat="43.56752" lon="1.1349">
        <ele>235.3</ele>
        <time>2020-11-29T10:34:54Z</time>
      </trkpt>
      <trkpt lat="43.56757" lon="1.13492">
        <ele>235.2</ele>
        <time>2020-11-29T10:34:55Z</time>
      </trkpt>
      <trkpt lat="43.56761" lon="1.13495">
        <ele>235.1</ele>
        <time>2020-11-29T10:34:56Z</time>
      </trkpt>
      <trkpt lat="43.56765" lon="1.13497">
        <ele>235</ele>
        <time>2020-11-29T10:34:57Z</time>
      </trkpt>
      <trkpt lat="43.56771" lon="1.13499">
        <ele>234.8</ele>
        <time>2020-11-29T10:34:58Z</time>
      </trkpt>
      <trkpt lat="43.56778" lon="1.13502">
        <ele>234.6</ele>
        <time>2020-11-29T10:34:59Z</time>
      </trkpt>
      <trkpt lat="43.56784" lon="1.13505">
        <ele>234.5</ele>
        <time>2020-11-29T10:35:00Z</time>
      </trkpt>
      <trkpt lat="43.56789" lon="1.13508">
        <ele>234.4</ele>
        <time>2020-11-29T10:35:01Z</time>
      </trkpt>
      <trkpt lat="43.56793" lon="1.1351">
        <ele>234.3</ele>
        <time>2020-11-29T10:35:02Z</time>
      </trkpt>
      <trkpt lat="43.56796" lon="1.13512">
        <ele>234.3</ele>
        <time>2020-11-29T10:35:03Z</time>
      </trkpt>
      <trkpt lat="43.56798" lon="1.13513">
        <ele>234.3</ele>
        <time>2020-11-29T10:35:04Z</time>
      </trkpt>
      <trkpt lat="43.56801" lon="1.13515">
        <ele>234.2</ele>
        <time>2020-11-29T10:35:05Z</time>
      </trkpt>
      <trkpt lat="43.56804" lon="1.13517">
        <ele>234.2</ele>
        <time>2020-11-29T10:35:06Z</time>
      </trkpt>
      <trkpt lat="43.56808" lon="1.1352">
        <ele>234.2</ele>
        <time>2020-11-29T10:35:07Z</time>
      </trkpt>
      <trkpt lat="43.56811" lon="1.13522">
        <ele>234.2</ele>
        <time>2020-11-29T10:35:08Z</time>
      </trkpt>
      <trkpt lat="43.56813" lon="1.13523">
        <ele>234.2</ele>
        <time>2020-11-29T10:35:09Z</time>
      </trkpt>
      <trkpt lat="43.56818" lon="1.13524">
        <ele>234.3</ele>
        <time>2020-11-29T10:35:10Z</time>
      </trkpt>
      <trkpt lat="43.56821" lon="1.13525">
        <ele>234.3</ele>
        <time>2020-11-29T10:35:11Z</time>
      </trkpt>
      <trkpt lat="43.56825" lon="1.13527">
        <ele>234.4</ele>
        <time>2020-11-29T10:35:12Z</time>
      </trkpt>
      <trkpt lat="43.56829" lon="1.1353">
        <ele>234.4</ele>
        <time>2020-11-29T10:35:13Z</time>
      </trkpt>
      <trkpt lat="43.56835" lon="1.13532">
        <ele>234.5</ele>
        <time>2020-11-29T10:35:14Z</time>
      </trkpt>
      <trkpt lat="43.56839" lon="1.13532">
        <ele>234.6</ele>
        <time>2020-11-29T10:35:15Z</time>
      </trkpt>
      <trkpt lat="43.56843" lon="1.13533">
        <ele>234.7</ele>
        <time>2020-11-29T10:35:16Z</time>
      </trkpt>
      <trkpt lat="43.56846" lon="1.13533">
        <ele>234.7</ele>
        <time>2020-11-29T10:35:17Z</time>
      </trkpt>
      <trkpt lat="43.56847" lon="1.13534">
        <ele>234.8</ele>
        <time>2020-11-29T10:35:18Z</time>
      </trkpt>
      <trkpt lat="43.5685" lon="1.13534">
        <ele>234.9</ele>
        <time>2020-11-29T10:35:19Z</time>
      </trkpt>
      <trkpt lat="43.56851" lon="1.13534">
        <ele>234.9</ele>
        <time>2020-11-29T10:35:20Z</time>
      </trkpt>
      <trkpt lat="43.56857" lon="1.13535">
        <ele>235.1</ele>
        <time>2020-11-29T10:35:21Z</time>
      </trkpt>
      <trkpt lat="43.56858" lon="1.13536">
        <ele>235.1</ele>
        <time>2020-11-29T10:35:22Z</time>
      </trkpt>
      <trkpt lat="43.5686" lon="1.13536">
        <ele>235.2</ele>
        <time>2020-11-29T10:35:23Z</time>
      </trkpt>
      <trkpt lat="43.56863" lon="1.13537">
        <ele>235.3</ele>
        <time>2020-11-29T10:35:24Z</time>
      </trkpt>
      <trkpt lat="43.56864" lon="1.13536">
        <ele>235.4</ele>
        <time>2020-11-29T10:35:25Z</time>
      </trkpt>
      <trkpt lat="43.56867" lon="1.13539">
        <ele>235.5</ele>
        <time>2020-11-29T10:35:26Z</time>
      </trkpt>
      <trkpt lat="43.56872" lon="1.13541">
        <ele>235.8</ele>
        <time>2020-11-29T10:35:27Z</time>
      </trkpt>
      <trkpt lat="43.56877" lon="1.13544">
        <ele>236</ele>
        <time>2020-11-29T10:35:28Z</time>
      </trkpt>
      <trkpt lat="43.56878" lon="1.13545">
        <ele>236.1</ele>
        <time>2020-11-29T10:35:29Z</time>
      </trkpt>
      <trkpt lat="43.5688" lon="1.13546">
        <ele>236.1</ele>
        <time>2020-11-29T10:35:30Z</time>
      </trkpt>
      <trkpt lat="43.56881" lon="1.13546">
        <ele>236.2</ele>
        <time>2020-11-29T10:35:31Z</time>
      </trkpt>
      <trkpt lat="43.56885" lon="1.13548">
        <ele>236.4</ele>
        <time>2020-11-29T10:35:32Z</time>
      </trkpt>
      <trkpt lat="43.56888" lon="1.13548">
        <ele>236.6</ele>
        <time>2020-11-29T10:35:33Z</time>
      </trkpt>
      <trkpt lat="43.5689" lon="1.13549">
        <ele>236.7</ele>
        <time>2020-11-29T10:35:34Z</time>
      </trkpt>
      <trkpt lat="43.56893" lon="1.13549">
        <ele>236.9</ele>
        <time>2020-11-29T10:35:35Z</time>
      </trkpt>
      <trkpt lat="43.56896" lon="1.1355">
        <ele>237</ele>
        <time>2020-11-29T10:35:36Z</time>
      </trkpt>
      <trkpt lat="43.56899" lon="1.13551">
        <ele>237.2</ele>
        <time>2020-11-29T10:35:37Z</time>
      </trkpt>
      <trkpt lat="43.569" lon="1.13551">
        <ele>237.3</ele>
        <time>2020-11-29T10:35:38Z</time>
      </trkpt>
      <trkpt lat="43.56904" lon="1.13552">
        <ele>237.5</ele>
        <time>2020-11-29T10:35:39Z</time>
      </trkpt>
      <trkpt lat="43.56909" lon="1.13553">
        <ele>237.8</ele>
        <time>2020-11-29T10:35:40Z</time>
      </trkpt>
      <trkpt lat="43.56914" lon="1.13556">
        <ele>238.2</ele>
        <time>2020-11-29T10:35:41Z</time>
      </trkpt>
      <trkpt lat="43.56917" lon="1.13558">
        <ele>238.4</ele>
        <time>2020-11-29T10:35:42Z</time>
      </trkpt>
      <trkpt lat="43.56921" lon="1.13561">
        <ele>238.8</ele>
        <time>2020-11-29T10:35:43Z</time>
      </trkpt>
      <trkpt lat="43.56923" lon="1.13562">
        <ele>239</ele>
        <time>2020-11-29T10:35:44Z</time>
      </trkpt>
      <trkpt lat="43.56926" lon="1.13563">
        <ele>239.2</ele>
        <time>2020-11-29T10:35:45Z</time>
      </trkpt>
      <trkpt lat="43.56929" lon="1.13566">
        <ele>239.5</ele>
        <time>2020-11-29T10:35:46Z</time>
      </trkpt>
      <trkpt lat="43.56932" lon="1.13568">
        <ele>239.9</ele>
        <time>2020-11-29T10:35:47Z</time>
      </trkpt>
      <trkpt lat="43.56933" lon="1.13569">
        <ele>240</ele>
        <time>2020-11-29T10:35:48Z</time>
      </trkpt>
      <trkpt lat="43.56936" lon="1.1357">
        <ele>240.2</ele>
        <time>2020-11-29T10:35:49Z</time>
      </trkpt>
      <trkpt lat="43.56938" lon="1.13574">
        <ele>240.5</ele>
        <time>2020-11-29T10:35:50Z</time>
      </trkpt>
      <trkpt lat="43.56943" lon="1.13575">
        <ele>240.8</ele>
        <time>2020-11-29T10:35:51Z</time>
      </trkpt>
      <trkpt lat="43.56944" lon="1.13576">
        <ele>240.9</ele>
        <time>2020-11-29T10:35:52Z</time>
      </trkpt>
      <trkpt lat="43.56947" lon="1.13578">
        <ele>241.2</ele>
        <time>2020-11-29T10:35:53Z</time>
      </trkpt>
      <trkpt lat="43.56948" lon="1.13579">
        <ele>241.2</ele>
        <time>2020-11-29T10:35:54Z</time>
      </trkpt>
      <trkpt lat="43.56951" lon="1.13582">
        <ele>241.5</ele>
        <time>2020-11-29T10:35:55Z</time>
      </trkpt>
      <trkpt lat="43.56952" lon="1.13583">
        <ele>241.5</ele>
        <time>2020-11-29T10:35:56Z</time>
      </trkpt>
      <trkpt lat="43.56955" lon="1.13584">
        <ele>241.8</ele>
        <time>2020-11-29T10:35:57Z</time>
      </trkpt>
      <trkpt lat="43.56956" lon="1.13585">
        <ele>241.8</ele>
        <time>2020-11-29T10:35:58Z</time>
      </trkpt>
      <trkpt lat="43.5696" lon="1.13585">
        <ele>242.1</ele>
        <time>2020-11-29T10:35:59Z</time>
      </trkpt>
      <trkpt lat="43.56964" lon="1.13585">
        <ele>242.4</ele>
        <time>2020-11-29T10:36:00Z</time>
      </trkpt>
      <trkpt lat="43.56969" lon="1.13586">
        <ele>242.7</ele>
        <time>2020-11-29T10:36:01Z</time>
      </trkpt>
      <trkpt lat="43.56975" lon="1.13587">
        <ele>243.2</ele>
        <time>2020-11-29T10:36:02Z</time>
      </trkpt>
      <trkpt lat="43.56978" lon="1.13586">
        <ele>243.5</ele>
        <time>2020-11-29T10:36:03Z</time>
      </trkpt>
      <trkpt lat="43.56982" lon="1.13587">
        <ele>243.8</ele>
        <time>2020-11-29T10:36:04Z</time>
      </trkpt>
      <trkpt lat="43.56983" lon="1.13588">
        <ele>243.9</ele>
        <time>2020-11-29T10:36:05Z</time>
      </trkpt>
      <trkpt lat="43.56987" lon="1.1359">
        <ele>244.2</ele>
        <time>2020-11-29T10:36:06Z</time>
      </trkpt>
      <trkpt lat="43.56989" lon="1.13591">
        <ele>244.4</ele>
        <time>2020-11-29T10:36:07Z</time>
      </trkpt>
      <trkpt lat="43.56992" lon="1.13592">
        <ele>244.7</ele>
        <time>2020-11-29T10:36:08Z</time>
      </trkpt>
      <trkpt lat="43.56995" lon="1.13593">
        <ele>244.9</ele>
        <time>2020-11-29T10:36:09Z</time>
      </trkpt>
      <trkpt lat="43.56998" lon="1.13595">
        <ele>245.2</ele>
        <time>2020-11-29T10:36:10Z</time>
      </trkpt>
      <trkpt lat="43.57001" lon="1.13597">
        <ele>245.5</ele>
        <time>2020-11-29T10:36:11Z</time>
      </trkpt>
      <trkpt lat="43.57005" lon="1.13599">
        <ele>245.8</ele>
        <time>2020-11-29T10:36:12Z</time>
      </trkpt>
      <trkpt lat="43.57008" lon="1.13601">
        <ele>246.1</ele>
        <time>2020-11-29T10:36:13Z</time>
      </trkpt>
      <trkpt lat="43.57012" lon="1.13602">
        <ele>246.4</ele>
        <time>2020-11-29T10:36:14Z</time>
      </trkpt>
      <trkpt lat="43.57014" lon="1.13602">
        <ele>246.6</ele>
        <time>2020-11-29T10:36:15Z</time>
      </trkpt>
      <trkpt lat="43.57018" lon="1.13603">
        <ele>246.9</ele>
        <time>2020-11-29T10:36:16Z</time>
      </trkpt>
      <trkpt lat="43.57022" lon="1.13604">
        <ele>247.3</ele>
        <time>2020-11-29T10:36:17Z</time>
      </trkpt>
      <trkpt lat="43.57025" lon="1.13605">
        <ele>247.5</ele>
        <time>2020-11-29T10:36:18Z</time>
      </trkpt>
      <trkpt lat="43.57028" lon="1.13607">
        <ele>247.8</ele>
        <time>2020-11-29T10:36:19Z</time>
      </trkpt>
      <trkpt lat="43.57031" lon="1.13609">
        <ele>248.1</ele>
        <time>2020-11-29T10:36:20Z</time>
      </trkpt>
      <trkpt lat="43.57033" lon="1.1361">
        <ele>248.3</ele>
        <time>2020-11-29T10:36:21Z</time>
      </trkpt>
      <trkpt lat="43.57036" lon="1.13613">
        <ele>248.6</ele>
        <time>2020-11-29T10:36:22Z</time>
      </trkpt>
      <trkpt lat="43.57039" lon="1.13614">
        <ele>248.9</ele>
        <time>2020-11-29T10:36:23Z</time>
      </trkpt>
      <trkpt lat="43.57043" lon="1.13616">
        <ele>249.3</ele>
        <time>2020-11-29T10:36:24Z</time>
      </trkpt>
      <trkpt lat="43.57051" lon="1.13619">
        <ele>249.7</ele>
        <time>2020-11-29T10:36:25Z</time>
      </trkpt>
      <trkpt lat="43.57055" lon="1.1362">
        <ele>250</ele>
        <time>2020-11-29T10:36:26Z</time>
      </trkpt>
      <trkpt lat="43.57057" lon="1.13621">
        <ele>250.1</ele>
        <time>2020-11-29T10:36:27Z</time>
      </trkpt>
      <trkpt lat="43.57062" lon="1.13622">
        <ele>250.3</ele>
        <time>2020-11-29T10:36:28Z</time>
      </trkpt>
      <trkpt lat="43.57066" lon="1.13623">
        <ele>250.4</ele>
        <time>2020-11-29T10:36:29Z</time>
      </trkpt>
      <trkpt lat="43.57071" lon="1.13625">
        <ele>250.6</ele>
        <time>2020-11-29T10:36:30Z</time>
      </trkpt>
      <trkpt lat="43.57076" lon="1.13628">
        <ele>250.8</ele>
        <time>2020-11-29T10:36:31Z</time>
      </trkpt>
      <trkpt lat="43.57082" lon="1.13629">
        <ele>250.7</ele>
        <time>2020-11-29T10:36:32Z</time>
      </trkpt>
      <trkpt lat="43.57085" lon="1.13632">
        <ele>250.6</ele>
        <time>2020-11-29T10:36:33Z</time>
      </trkpt>
      <trkpt lat="43.57086" lon="1.13633">
        <ele>250.6</ele>
        <time>2020-11-29T10:36:34Z</time>
      </trkpt>
      <trkpt lat="43.57089" lon="1.13635">
        <ele>250.5</ele>
        <time>2020-11-29T10:36:35Z</time>
      </trkpt>
      <trkpt lat="43.5709" lon="1.13636">
        <ele>250.5</ele>
        <time>2020-11-29T10:36:36Z</time>
      </trkpt>
      <trkpt lat="43.57094" lon="1.13636">
        <ele>250.4</ele>
        <time>2020-11-29T10:36:37Z</time>
      </trkpt>
      <trkpt lat="43.57094" lon="1.13636">
        <ele>250.4</ele>
        <time>2020-11-29T10:36:38Z</time>
      </trkpt>
      <trkpt lat="43.57098" lon="1.13639">
        <ele>250.3</ele>
        <time>2020-11-29T10:36:39Z</time>
      </trkpt>
      <trkpt lat="43.57102" lon="1.13642">
        <ele>250.2</ele>
        <time>2020-11-29T10:36:40Z</time>
      </trkpt>
      <trkpt lat="43.57106" lon="1.13646">
        <ele>250</ele>
        <time>2020-11-29T10:36:41Z</time>
      </trkpt>
      <trkpt lat="43.57111" lon="1.1365">
        <ele>249.9</ele>
        <time>2020-11-29T10:36:42Z</time>
      </trkpt>
      <trkpt lat="43.57117" lon="1.13654">
        <ele>249.8</ele>
        <time>2020-11-29T10:36:43Z</time>
      </trkpt>
      <trkpt lat="43.5712" lon="1.13658">
        <ele>249.7</ele>
        <time>2020-11-29T10:36:44Z</time>
      </trkpt>
      <trkpt lat="43.57125" lon="1.13662">
        <ele>249.5</ele>
        <time>2020-11-29T10:36:45Z</time>
      </trkpt>
      <trkpt lat="43.57129" lon="1.13666">
        <ele>249.4</ele>
        <time>2020-11-29T10:36:46Z</time>
      </trkpt>
      <trkpt lat="43.57134" lon="1.13671">
        <ele>249.3</ele>
        <time>2020-11-29T10:36:47Z</time>
      </trkpt>
      <trkpt lat="43.57138" lon="1.13676">
        <ele>249.2</ele>
        <time>2020-11-29T10:36:48Z</time>
      </trkpt>
      <trkpt lat="43.57141" lon="1.13681">
        <ele>249.1</ele>
        <time>2020-11-29T10:36:49Z</time>
      </trkpt>
      <trkpt lat="43.57144" lon="1.13685">
        <ele>249.1</ele>
        <time>2020-11-29T10:36:50Z</time>
      </trkpt>
      <trkpt lat="43.57147" lon="1.13689">
        <ele>249.1</ele>
        <time>2020-11-29T10:36:51Z</time>
      </trkpt>
      <trkpt lat="43.5715" lon="1.13693">
        <ele>249.1</ele>
        <time>2020-11-29T10:36:52Z</time>
      </trkpt>
      <trkpt lat="43.57152" lon="1.13696">
        <ele>249.1</ele>
        <time>2020-11-29T10:36:53Z</time>
      </trkpt>
      <trkpt lat="43.57154" lon="1.13699">
        <ele>249.1</ele>
        <time>2020-11-29T10:36:54Z</time>
      </trkpt>
      <trkpt lat="43.57155" lon="1.13701">
        <ele>249.2</ele>
        <time>2020-11-29T10:36:55Z</time>
      </trkpt>
      <trkpt lat="43.57158" lon="1.13704">
        <ele>249.2</ele>
        <time>2020-11-29T10:36:56Z</time>
      </trkpt>
      <trkpt lat="43.57161" lon="1.13706">
        <ele>249.3</ele>
        <time>2020-11-29T10:36:57Z</time>
      </trkpt>
      <trkpt lat="43.57163" lon="1.1371">
        <ele>249.4</ele>
        <time>2020-11-29T10:36:58Z</time>
      </trkpt>
      <trkpt lat="43.57165" lon="1.13714">
        <ele>249.6</ele>
        <time>2020-11-29T10:36:59Z</time>
      </trkpt>
      <trkpt lat="43.57167" lon="1.13718">
        <ele>249.7</ele>
        <time>2020-11-29T10:37:00Z</time>
      </trkpt>
      <trkpt lat="43.57169" lon="1.13722">
        <ele>249.9</ele>
        <time>2020-11-29T10:37:01Z</time>
      </trkpt>
      <trkpt lat="43.57172" lon="1.13723">
        <ele>250.1</ele>
        <time>2020-11-29T10:37:02Z</time>
      </trkpt>
      <trkpt lat="43.57175" lon="1.13725">
        <ele>250.3</ele>
        <time>2020-11-29T10:37:03Z</time>
      </trkpt>
      <trkpt lat="43.57178" lon="1.13728">
        <ele>250.5</ele>
        <time>2020-11-29T10:37:04Z</time>
      </trkpt>
      <trkpt lat="43.57182" lon="1.13731">
        <ele>250.8</ele>
        <time>2020-11-29T10:37:05Z</time>
      </trkpt>
      <trkpt lat="43.57183" lon="1.13732">
        <ele>251</ele>
        <time>2020-11-29T10:37:06Z</time>
      </trkpt>
      <trkpt lat="43.57187" lon="1.13734">
        <ele>251.3</ele>
        <time>2020-11-29T10:37:07Z</time>
      </trkpt>
      <trkpt lat="43.57193" lon="1.13733">
        <ele>251.8</ele>
        <time>2020-11-29T10:37:08Z</time>
      </trkpt>
      <trkpt lat="43.57197" lon="1.13735">
        <ele>252.2</ele>
        <time>2020-11-29T10:37:09Z</time>
      </trkpt>
      <trkpt lat="43.57199" lon="1.13739">
        <ele>252.6</ele>
        <time>2020-11-29T10:37:10Z</time>
      </trkpt>
      <trkpt lat="43.572" lon="1.13741">
        <ele>252.7</ele>
        <time>2020-11-29T10:37:11Z</time>
      </trkpt>
      <trkpt lat="43.57202" lon="1.13744">
        <ele>253</ele>
        <time>2020-11-29T10:37:12Z</time>
      </trkpt>
      <trkpt lat="43.57203" lon="1.13748">
        <ele>253.4</ele>
        <time>2020-11-29T10:37:13Z</time>
      </trkpt>
      <trkpt lat="43.57206" lon="1.13751">
        <ele>253.7</ele>
        <time>2020-11-29T10:37:14Z</time>
      </trkpt>
      <trkpt lat="43.57208" lon="1.13755">
        <ele>254.1</ele>
        <time>2020-11-29T10:37:15Z</time>
      </trkpt>
      <trkpt lat="43.57211" lon="1.13758">
        <ele>254.6</ele>
        <time>2020-11-29T10:37:16Z</time>
      </trkpt>
      <trkpt lat="43.57214" lon="1.1376">
        <ele>254.9</ele>
        <time>2020-11-29T10:37:17Z</time>
      </trkpt>
      <trkpt lat="43.57216" lon="1.13762">
        <ele>255.3</ele>
        <time>2020-11-29T10:37:18Z</time>
      </trkpt>
      <trkpt lat="43.57218" lon="1.13765">
        <ele>255.6</ele>
        <time>2020-11-29T10:37:19Z</time>
      </trkpt>
      <trkpt lat="43.5722" lon="1.13768">
        <ele>255.9</ele>
        <time>2020-11-29T10:37:20Z</time>
      </trkpt>
      <trkpt lat="43.57222" lon="1.13771">
        <ele>256.3</ele>
        <time>2020-11-29T10:37:21Z</time>
      </trkpt>
      <trkpt lat="43.57223" lon="1.13775">
        <ele>256.6</ele>
        <time>2020-11-29T10:37:22Z</time>
      </trkpt>
      <trkpt lat="43.57225" lon="1.13778">
        <ele>256.9</ele>
        <time>2020-11-29T10:37:23Z</time>
      </trkpt>
      <trkpt lat="43.57227" lon="1.13781">
        <ele>257.3</ele>
        <time>2020-11-29T10:37:24Z</time>
      </trkpt>
      <trkpt lat="43.57228" lon="1.13783">
        <ele>257.4</ele>
        <time>2020-11-29T10:37:25Z</time>
      </trkpt>
      <trkpt lat="43.5723" lon="1.13785">
        <ele>257.7</ele>
        <time>2020-11-29T10:37:26Z</time>
      </trkpt>
      <trkpt lat="43.5723" lon="1.13787">
        <ele>257.8</ele>
        <time>2020-11-29T10:37:27Z</time>
      </trkpt>
      <trkpt lat="43.57231" lon="1.13789">
        <ele>258</ele>
        <time>2020-11-29T10:37:28Z</time>
      </trkpt>
      <trkpt lat="43.57233" lon="1.13793">
        <ele>258.4</ele>
        <time>2020-11-29T10:37:29Z</time>
      </trkpt>
      <trkpt lat="43.57235" lon="1.13796">
        <ele>258.7</ele>
        <time>2020-11-29T10:37:30Z</time>
      </trkpt>
      <trkpt lat="43.57238" lon="1.13799">
        <ele>259.1</ele>
        <time>2020-11-29T10:37:31Z</time>
      </trkpt>
      <trkpt lat="43.57242" lon="1.13802">
        <ele>259.5</ele>
        <time>2020-11-29T10:37:32Z</time>
      </trkpt>
      <trkpt lat="43.57243" lon="1.13806">
        <ele>259.8</ele>
        <time>2020-11-29T10:37:33Z</time>
      </trkpt>
      <trkpt lat="43.57244" lon="1.13809">
        <ele>260.1</ele>
        <time>2020-11-29T10:37:34Z</time>
      </trkpt>
      <trkpt lat="43.57245" lon="1.13811">
        <ele>260.3</ele>
        <time>2020-11-29T10:37:35Z</time>
      </trkpt>
      <trkpt lat="43.57246" lon="1.13813">
        <ele>260.5</ele>
        <time>2020-11-29T10:37:36Z</time>
      </trkpt>
      <trkpt lat="43.57248" lon="1.13817">
        <ele>260.9</ele>
        <time>2020-11-29T10:37:37Z</time>
      </trkpt>
      <trkpt lat="43.57249" lon="1.13818">
        <ele>261</ele>
        <time>2020-11-29T10:37:38Z</time>
      </trkpt>
      <trkpt lat="43.5725" lon="1.13823">
        <ele>261.4</ele>
        <time>2020-11-29T10:37:39Z</time>
      </trkpt>
      <trkpt lat="43.57253" lon="1.13826">
        <ele>261.8</ele>
        <time>2020-11-29T10:37:40Z</time>
      </trkpt>
      <trkpt lat="43.57255" lon="1.13826">
        <ele>262</ele>
        <time>2020-11-29T10:37:41Z</time>
      </trkpt>
      <trkpt lat="43.57258" lon="1.13828">
        <ele>262.4</ele>
        <time>2020-11-29T10:37:42Z</time>
      </trkpt>
      <trkpt lat="43.5726" lon="1.13829">
        <ele>262.7</ele>
        <time>2020-11-29T10:37:43Z</time>
      </trkpt>
      <trkpt lat="43.57263" lon="1.13833">
        <ele>263.1</ele>
        <time>2020-11-29T10:37:44Z</time>
      </trkpt>
      <trkpt lat="43.57263" lon="1.13834">
        <ele>263.2</ele>
        <time>2020-11-29T10:37:45Z</time>
      </trkpt>
      <trkpt lat="43.57265" lon="1.13838">
        <ele>263.6</ele>
        <time>2020-11-29T10:37:46Z</time>
      </trkpt>
      <trkpt lat="43.57265" lon="1.13839">
        <ele>263.7</ele>
        <time>2020-11-29T10:37:47Z</time>
      </trkpt>
      <trkpt lat="43.57267" lon="1.13842">
        <ele>264.1</ele>
        <time>2020-11-29T10:37:48Z</time>
      </trkpt>
      <trkpt lat="43.57267" lon="1.13844">
        <ele>264.2</ele>
        <time>2020-11-29T10:37:49Z</time>
      </trkpt>
      <trkpt lat="43.57269" lon="1.13848">
        <ele>264.6</ele>
        <time>2020-11-29T10:37:50Z</time>
      </trkpt>
      <trkpt lat="43.5727" lon="1.13849">
        <ele>264.8</ele>
        <time>2020-11-29T10:37:51Z</time>
      </trkpt>
      <trkpt lat="43.57272" lon="1.13852">
        <ele>265.1</ele>
        <time>2020-11-29T10:37:52Z</time>
      </trkpt>
      <trkpt lat="43.57274" lon="1.13855">
        <ele>265.5</ele>
        <time>2020-11-29T10:37:53Z</time>
      </trkpt>
      <trkpt lat="43.57275" lon="1.13856">
        <ele>265.7</ele>
        <time>2020-11-29T10:37:54Z</time>
      </trkpt>
      <trkpt lat="43.57278" lon="1.13859">
        <ele>266.1</ele>
        <time>2020-11-29T10:37:55Z</time>
      </trkpt>
      <trkpt lat="43.57278" lon="1.1386">
        <ele>266.2</ele>
        <time>2020-11-29T10:37:56Z</time>
      </trkpt>
      <trkpt lat="43.5728" lon="1.13864">
        <ele>266.7</ele>
        <time>2020-11-29T10:37:57Z</time>
      </trkpt>
      <trkpt lat="43.57283" lon="1.13868">
        <ele>267.2</ele>
        <time>2020-11-29T10:37:58Z</time>
      </trkpt>
      <trkpt lat="43.57286" lon="1.13872">
        <ele>267.6</ele>
        <time>2020-11-29T10:37:59Z</time>
      </trkpt>
      <trkpt lat="43.57288" lon="1.13876">
        <ele>268</ele>
        <time>2020-11-29T10:38:00Z</time>
      </trkpt>
      <trkpt lat="43.57288" lon="1.13878">
        <ele>268.2</ele>
        <time>2020-11-29T10:38:01Z</time>
      </trkpt>
      <trkpt lat="43.57291" lon="1.13882">
        <ele>268.6</ele>
        <time>2020-11-29T10:38:02Z</time>
      </trkpt>
      <trkpt lat="43.57291" lon="1.13883">
        <ele>268.7</ele>
        <time>2020-11-29T10:38:03Z</time>
      </trkpt>
      <trkpt lat="43.57294" lon="1.13886">
        <ele>269</ele>
        <time>2020-11-29T10:38:04Z</time>
      </trkpt>
      <trkpt lat="43.57296" lon="1.1389">
        <ele>268.9</ele>
        <time>2020-11-29T10:38:05Z</time>
      </trkpt>
      <trkpt lat="43.57298" lon="1.13894">
        <ele>269.2</ele>
        <time>2020-11-29T10:38:06Z</time>
      </trkpt>
      <trkpt lat="43.57302" lon="1.13897">
        <ele>269.4</ele>
        <time>2020-11-29T10:38:07Z</time>
      </trkpt>
      <trkpt lat="43.57305" lon="1.139">
        <ele>269.7</ele>
        <time>2020-11-29T10:38:08Z</time>
      </trkpt>
      <trkpt lat="43.57307" lon="1.13904">
        <ele>269.9</ele>
        <time>2020-11-29T10:38:09Z</time>
      </trkpt>
      <trkpt lat="43.57309" lon="1.13908">
        <ele>270.2</ele>
        <time>2020-11-29T10:38:10Z</time>
      </trkpt>
      <trkpt lat="43.5731" lon="1.1391">
        <ele>270</ele>
        <time>2020-11-29T10:38:11Z</time>
      </trkpt>
      <trkpt lat="43.57312" lon="1.13914">
        <ele>270.2</ele>
        <time>2020-11-29T10:38:12Z</time>
      </trkpt>
      <trkpt lat="43.57312" lon="1.13916">
        <ele>270.1</ele>
        <time>2020-11-29T10:38:13Z</time>
      </trkpt>
      <trkpt lat="43.57314" lon="1.13919">
        <ele>270</ele>
        <time>2020-11-29T10:38:14Z</time>
      </trkpt>
      <trkpt lat="43.57315" lon="1.13923">
        <ele>270</ele>
        <time>2020-11-29T10:38:15Z</time>
      </trkpt>
      <trkpt lat="43.57315" lon="1.13928">
        <ele>269.9</ele>
        <time>2020-11-29T10:38:16Z</time>
      </trkpt>
      <trkpt lat="43.57315" lon="1.13932">
        <ele>269.8</ele>
        <time>2020-11-29T10:38:17Z</time>
      </trkpt>
      <trkpt lat="43.57315" lon="1.13938">
        <ele>269.6</ele>
        <time>2020-11-29T10:38:18Z</time>
      </trkpt>
      <trkpt lat="43.57315" lon="1.13943">
        <ele>269.5</ele>
        <time>2020-11-29T10:38:19Z</time>
      </trkpt>
      <trkpt lat="43.57315" lon="1.13945">
        <ele>269.3</ele>
        <time>2020-11-29T10:38:20Z</time>
      </trkpt>
      <trkpt lat="43.57315" lon="1.13948">
        <ele>269.1</ele>
        <time>2020-11-29T10:38:21Z</time>
      </trkpt>
      <trkpt lat="43.57315" lon="1.1395">
        <ele>268.9</ele>
        <time>2020-11-29T10:38:22Z</time>
      </trkpt>
      <trkpt lat="43.57314" lon="1.13953">
        <ele>268.7</ele>
        <time>2020-11-29T10:38:23Z</time>
      </trkpt>
      <trkpt lat="43.57313" lon="1.13958">
        <ele>268.5</ele>
        <time>2020-11-29T10:38:24Z</time>
      </trkpt>
      <trkpt lat="43.57312" lon="1.1396">
        <ele>268.3</ele>
        <time>2020-11-29T10:38:25Z</time>
      </trkpt>
      <trkpt lat="43.5731" lon="1.13964">
        <ele>268</ele>
        <time>2020-11-29T10:38:26Z</time>
      </trkpt>
      <trkpt lat="43.57312" lon="1.13968">
        <ele>267.9</ele>
        <time>2020-11-29T10:38:27Z</time>
      </trkpt>
      <trkpt lat="43.57313" lon="1.13969">
        <ele>267.7</ele>
        <time>2020-11-29T10:38:28Z</time>
      </trkpt>
      <trkpt lat="43.57315" lon="1.13974">
        <ele>267.4</ele>
        <time>2020-11-29T10:38:29Z</time>
      </trkpt>
      <trkpt lat="43.57315" lon="1.13975">
        <ele>267.4</ele>
        <time>2020-11-29T10:38:30Z</time>
      </trkpt>
      <trkpt lat="43.57315" lon="1.13979">
        <ele>267.3</ele>
        <time>2020-11-29T10:38:31Z</time>
      </trkpt>
      <trkpt lat="43.57314" lon="1.13984">
        <ele>267.2</ele>
        <time>2020-11-29T10:38:32Z</time>
      </trkpt>
      <trkpt lat="43.57313" lon="1.13988">
        <ele>267.2</ele>
        <time>2020-11-29T10:38:33Z</time>
      </trkpt>
      <trkpt lat="43.57313" lon="1.13992">
        <ele>267.1</ele>
        <time>2020-11-29T10:38:34Z</time>
      </trkpt>
      <trkpt lat="43.57311" lon="1.13997">
        <ele>267.1</ele>
        <time>2020-11-29T10:38:35Z</time>
      </trkpt>
      <trkpt lat="43.5731" lon="1.14003">
        <ele>267</ele>
        <time>2020-11-29T10:38:36Z</time>
      </trkpt>
      <trkpt lat="43.57309" lon="1.14009">
        <ele>267</ele>
        <time>2020-11-29T10:38:37Z</time>
      </trkpt>
      <trkpt lat="43.57308" lon="1.14015">
        <ele>267</ele>
        <time>2020-11-29T10:38:38Z</time>
      </trkpt>
      <trkpt lat="43.57305" lon="1.14019">
        <ele>266.9</ele>
        <time>2020-11-29T10:38:39Z</time>
      </trkpt>
      <trkpt lat="43.57304" lon="1.14023">
        <ele>266.9</ele>
        <time>2020-11-29T10:38:40Z</time>
      </trkpt>
      <trkpt lat="43.57302" lon="1.14028">
        <ele>267</ele>
        <time>2020-11-29T10:38:41Z</time>
      </trkpt>
      <trkpt lat="43.573" lon="1.14034">
        <ele>267</ele>
        <time>2020-11-29T10:38:42Z</time>
      </trkpt>
      <trkpt lat="43.57298" lon="1.14039">
        <ele>267</ele>
        <time>2020-11-29T10:38:43Z</time>
      </trkpt>
      <trkpt lat="43.57295" lon="1.14042">
        <ele>267.1</ele>
        <time>2020-11-29T10:38:44Z</time>
      </trkpt>
      <trkpt lat="43.57293" lon="1.14047">
        <ele>267.1</ele>
        <time>2020-11-29T10:38:45Z</time>
      </trkpt>
      <trkpt lat="43.5729" lon="1.14051">
        <ele>267.2</ele>
        <time>2020-11-29T10:38:46Z</time>
      </trkpt>
      <trkpt lat="43.57288" lon="1.14054">
        <ele>267.3</ele>
        <time>2020-11-29T10:38:47Z</time>
      </trkpt>
      <trkpt lat="43.57286" lon="1.14058">
        <ele>267.4</ele>
        <time>2020-11-29T10:38:48Z</time>
      </trkpt>
      <trkpt lat="43.57285" lon="1.1406">
        <ele>267.4</ele>
        <time>2020-11-29T10:38:49Z</time>
      </trkpt>
      <trkpt lat="43.57283" lon="1.14063">
        <ele>267.5</ele>
        <time>2020-11-29T10:38:50Z</time>
      </trkpt>
      <trkpt lat="43.57281" lon="1.14067">
        <ele>267.6</ele>
        <time>2020-11-29T10:38:51Z</time>
      </trkpt>
      <trkpt lat="43.57279" lon="1.14071">
        <ele>267.8</ele>
        <time>2020-11-29T10:38:52Z</time>
      </trkpt>
      <trkpt lat="43.57277" lon="1.14075">
        <ele>267.9</ele>
        <time>2020-11-29T10:38:53Z</time>
      </trkpt>
      <trkpt lat="43.57274" lon="1.14079">
        <ele>268</ele>
        <time>2020-11-29T10:38:54Z</time>
      </trkpt>
      <trkpt lat="43.57272" lon="1.14085">
        <ele>268.2</ele>
        <time>2020-11-29T10:38:55Z</time>
      </trkpt>
      <trkpt lat="43.57268" lon="1.1409">
        <ele>268.4</ele>
        <time>2020-11-29T10:38:56Z</time>
      </trkpt>
      <trkpt lat="43.57264" lon="1.14097">
        <ele>268.6</ele>
        <time>2020-11-29T10:38:57Z</time>
      </trkpt>
      <trkpt lat="43.57261" lon="1.14102">
        <ele>268.8</ele>
        <time>2020-11-29T10:38:58Z</time>
      </trkpt>
      <trkpt lat="43.57259" lon="1.14106">
        <ele>268.9</ele>
        <time>2020-11-29T10:38:59Z</time>
      </trkpt>
      <trkpt lat="43.57258" lon="1.14109">
        <ele>269.2</ele>
        <time>2020-11-29T10:39:00Z</time>
      </trkpt>
      <trkpt lat="43.57258" lon="1.14114">
        <ele>268.9</ele>
        <time>2020-11-29T10:39:01Z</time>
      </trkpt>
      <trkpt lat="43.57258" lon="1.14116">
        <ele>268.8</ele>
        <time>2020-11-29T10:39:02Z</time>
      </trkpt>
      <trkpt lat="43.57261" lon="1.14122">
        <ele>268.5</ele>
        <time>2020-11-29T10:39:03Z</time>
      </trkpt>
      <trkpt lat="43.57263" lon="1.14129">
        <ele>268</ele>
        <time>2020-11-29T10:39:04Z</time>
      </trkpt>
      <trkpt lat="43.57266" lon="1.14136">
        <ele>267.6</ele>
        <time>2020-11-29T10:39:05Z</time>
      </trkpt>
      <trkpt lat="43.57268" lon="1.14141">
        <ele>267.2</ele>
        <time>2020-11-29T10:39:06Z</time>
      </trkpt>
      <trkpt lat="43.57272" lon="1.14146">
        <ele>266.8</ele>
        <time>2020-11-29T10:39:07Z</time>
      </trkpt>
      <trkpt lat="43.57275" lon="1.14152">
        <ele>266.3</ele>
        <time>2020-11-29T10:39:08Z</time>
      </trkpt>
      <trkpt lat="43.57278" lon="1.14156">
        <ele>265.9</ele>
        <time>2020-11-29T10:39:09Z</time>
      </trkpt>
      <trkpt lat="43.57281" lon="1.14162">
        <ele>265.4</ele>
        <time>2020-11-29T10:39:10Z</time>
      </trkpt>
      <trkpt lat="43.57284" lon="1.14166">
        <ele>264.9</ele>
        <time>2020-11-29T10:39:11Z</time>
      </trkpt>
      <trkpt lat="43.57288" lon="1.14171">
        <ele>264.3</ele>
        <time>2020-11-29T10:39:12Z</time>
      </trkpt>
      <trkpt lat="43.57294" lon="1.14176">
        <ele>263.5</ele>
        <time>2020-11-29T10:39:13Z</time>
      </trkpt>
      <trkpt lat="43.57299" lon="1.1418">
        <ele>262.8</ele>
        <time>2020-11-29T10:39:14Z</time>
      </trkpt>
      <trkpt lat="43.57305" lon="1.14185">
        <ele>262</ele>
        <time>2020-11-29T10:39:15Z</time>
      </trkpt>
      <trkpt lat="43.5731" lon="1.1419">
        <ele>261.2</ele>
        <time>2020-11-29T10:39:16Z</time>
      </trkpt>
      <trkpt lat="43.57315" lon="1.14196">
        <ele>260.5</ele>
        <time>2020-11-29T10:39:17Z</time>
      </trkpt>
      <trkpt lat="43.57323" lon="1.14204">
        <ele>259.5</ele>
        <time>2020-11-29T10:39:18Z</time>
      </trkpt>
      <trkpt lat="43.5733" lon="1.14213">
        <ele>258.6</ele>
        <time>2020-11-29T10:39:19Z</time>
      </trkpt>
      <trkpt lat="43.57337" lon="1.14223">
        <ele>257.9</ele>
        <time>2020-11-29T10:39:20Z</time>
      </trkpt>
      <trkpt lat="43.57341" lon="1.14235">
        <ele>257.2</ele>
        <time>2020-11-29T10:39:21Z</time>
      </trkpt>
      <trkpt lat="43.57344" lon="1.14246">
        <ele>256.7</ele>
        <time>2020-11-29T10:39:22Z</time>
      </trkpt>
      <trkpt lat="43.57347" lon="1.14256">
        <ele>256.2</ele>
        <time>2020-11-29T10:39:23Z</time>
      </trkpt>
      <trkpt lat="43.57349" lon="1.14267">
        <ele>255.7</ele>
        <time>2020-11-29T10:39:24Z</time>
      </trkpt>
      <trkpt lat="43.57352" lon="1.14278">
        <ele>255.2</ele>
        <time>2020-11-29T10:39:25Z</time>
      </trkpt>
      <trkpt lat="43.57355" lon="1.14289">
        <ele>254.6</ele>
        <time>2020-11-29T10:39:26Z</time>
      </trkpt>
      <trkpt lat="43.57358" lon="1.143">
        <ele>254</ele>
        <time>2020-11-29T10:39:27Z</time>
      </trkpt>
      <trkpt lat="43.57361" lon="1.14313">
        <ele>253.3</ele>
        <time>2020-11-29T10:39:28Z</time>
      </trkpt>
      <trkpt lat="43.57364" lon="1.14325">
        <ele>252.6</ele>
        <time>2020-11-29T10:39:29Z</time>
      </trkpt>
      <trkpt lat="43.57371" lon="1.14338">
        <ele>251.7</ele>
        <time>2020-11-29T10:39:30Z</time>
      </trkpt>
      <trkpt lat="43.57374" lon="1.14351">
        <ele>251</ele>
        <time>2020-11-29T10:39:31Z</time>
      </trkpt>
      <trkpt lat="43.57376" lon="1.14365">
        <ele>250.4</ele>
        <time>2020-11-29T10:39:32Z</time>
      </trkpt>
      <trkpt lat="43.57378" lon="1.14377">
        <ele>249.9</ele>
        <time>2020-11-29T10:39:33Z</time>
      </trkpt>
      <trkpt lat="43.57378" lon="1.14392">
        <ele>249.5</ele>
        <time>2020-11-29T10:39:34Z</time>
      </trkpt>
      <trkpt lat="43.57382" lon="1.14403">
        <ele>249.2</ele>
        <time>2020-11-29T10:39:35Z</time>
      </trkpt>
      <trkpt lat="43.57387" lon="1.14411">
        <ele>248.9</ele>
        <time>2020-11-29T10:39:36Z</time>
      </trkpt>
      <trkpt lat="43.57392" lon="1.14418">
        <ele>248.8</ele>
        <time>2020-11-29T10:39:37Z</time>
      </trkpt>
      <trkpt lat="43.57398" lon="1.14423">
        <ele>248.7</ele>
        <time>2020-11-29T10:39:38Z</time>
      </trkpt>
      <trkpt lat="43.57404" lon="1.14429">
        <ele>248.6</ele>
        <time>2020-11-29T10:39:39Z</time>
      </trkpt>
      <trkpt lat="43.57409" lon="1.14435">
        <ele>248.5</ele>
        <time>2020-11-29T10:39:40Z</time>
      </trkpt>
      <trkpt lat="43.57413" lon="1.14441">
        <ele>248.4</ele>
        <time>2020-11-29T10:39:41Z</time>
      </trkpt>
      <trkpt lat="43.57417" lon="1.14448">
        <ele>248.3</ele>
        <time>2020-11-29T10:39:42Z</time>
      </trkpt>
      <trkpt lat="43.57419" lon="1.14455">
        <ele>248.3</ele>
        <time>2020-11-29T10:39:43Z</time>
      </trkpt>
      <trkpt lat="43.57422" lon="1.14461">
        <ele>248.2</ele>
        <time>2020-11-29T10:39:44Z</time>
      </trkpt>
      <trkpt lat="43.57423" lon="1.14467">
        <ele>248.2</ele>
        <time>2020-11-29T10:39:45Z</time>
      </trkpt>
      <trkpt lat="43.57425" lon="1.14473">
        <ele>248.1</ele>
        <time>2020-11-29T10:39:46Z</time>
      </trkpt>
      <trkpt lat="43.57426" lon="1.14478">
        <ele>248.1</ele>
        <time>2020-11-29T10:39:47Z</time>
      </trkpt>
      <trkpt lat="43.57428" lon="1.14485">
        <ele>248</ele>
        <time>2020-11-29T10:39:48Z</time>
      </trkpt>
      <trkpt lat="43.5743" lon="1.14491">
        <ele>247.9</ele>
        <time>2020-11-29T10:39:49Z</time>
      </trkpt>
      <trkpt lat="43.57431" lon="1.14496">
        <ele>247.9</ele>
        <time>2020-11-29T10:39:50Z</time>
      </trkpt>
      <trkpt lat="43.57432" lon="1.14501">
        <ele>247.9</ele>
        <time>2020-11-29T10:39:51Z</time>
      </trkpt>
      <trkpt lat="43.57433" lon="1.14506">
        <ele>247.8</ele>
        <time>2020-11-29T10:39:52Z</time>
      </trkpt>
      <trkpt lat="43.57434" lon="1.1451">
        <ele>247.8</ele>
        <time>2020-11-29T10:39:53Z</time>
      </trkpt>
      <trkpt lat="43.57435" lon="1.14514">
        <ele>247.9</ele>
        <time>2020-11-29T10:39:54Z</time>
      </trkpt>
      <trkpt lat="43.57436" lon="1.14519">
        <ele>247.9</ele>
        <time>2020-11-29T10:39:55Z</time>
      </trkpt>
      <trkpt lat="43.57436" lon="1.14523">
        <ele>247.9</ele>
        <time>2020-11-29T10:39:56Z</time>
      </trkpt>
      <trkpt lat="43.57436" lon="1.14525">
        <ele>247.9</ele>
        <time>2020-11-29T10:39:57Z</time>
      </trkpt>
      <trkpt lat="43.57437" lon="1.14529">
        <ele>248</ele>
        <time>2020-11-29T10:39:58Z</time>
      </trkpt>
      <trkpt lat="43.57438" lon="1.14534">
        <ele>248</ele>
        <time>2020-11-29T10:39:59Z</time>
      </trkpt>
      <trkpt lat="43.57439" lon="1.1454">
        <ele>248.1</ele>
        <time>2020-11-29T10:40:00Z</time>
      </trkpt>
      <trkpt lat="43.57439" lon="1.14546">
        <ele>248.3</ele>
        <time>2020-11-29T10:40:01Z</time>
      </trkpt>
      <trkpt lat="43.5744" lon="1.14552">
        <ele>248.4</ele>
        <time>2020-11-29T10:40:02Z</time>
      </trkpt>
      <trkpt lat="43.57441" lon="1.14556">
        <ele>248.5</ele>
        <time>2020-11-29T10:40:03Z</time>
      </trkpt>
      <trkpt lat="43.57442" lon="1.1456">
        <ele>248.6</ele>
        <time>2020-11-29T10:40:04Z</time>
      </trkpt>
      <trkpt lat="43.57441" lon="1.14563">
        <ele>248.6</ele>
        <time>2020-11-29T10:40:05Z</time>
      </trkpt>
      <trkpt lat="43.57442" lon="1.14565">
        <ele>248.5</ele>
        <time>2020-11-29T10:40:06Z</time>
      </trkpt>
      <trkpt lat="43.57443" lon="1.14568">
        <ele>248.6</ele>
        <time>2020-11-29T10:40:07Z</time>
      </trkpt>
      <trkpt lat="43.57445" lon="1.14568">
        <ele>248.5</ele>
        <time>2020-11-29T10:40:08Z</time>
      </trkpt>
      <trkpt lat="43.57446" lon="1.14568">
        <ele>248.6</ele>
        <time>2020-11-29T10:40:09Z</time>
      </trkpt>
      <trkpt lat="43.5745" lon="1.14566">
        <ele>248.6</ele>
        <time>2020-11-29T10:40:10Z</time>
      </trkpt>
      <trkpt lat="43.57451" lon="1.14565">
        <ele>248.6</ele>
        <time>2020-11-29T10:40:11Z</time>
      </trkpt>
      <trkpt lat="43.57454" lon="1.14561">
        <ele>248.6</ele>
        <time>2020-11-29T10:40:12Z</time>
      </trkpt>
      <trkpt lat="43.57456" lon="1.1456">
        <ele>248.7</ele>
        <time>2020-11-29T10:40:13Z</time>
      </trkpt>
      <trkpt lat="43.57459" lon="1.14557">
        <ele>248.8</ele>
        <time>2020-11-29T10:40:14Z</time>
      </trkpt>
      <trkpt lat="43.57461" lon="1.14556">
        <ele>248.9</ele>
        <time>2020-11-29T10:40:15Z</time>
      </trkpt>
      <trkpt lat="43.57473" lon="1.14563">
        <ele>249.3</ele>
        <time>2020-11-29T10:40:16Z</time>
      </trkpt>
      <trkpt lat="43.57477" lon="1.1456">
        <ele>249.3</ele>
        <time>2020-11-29T10:40:17Z</time>
      </trkpt>
      <trkpt lat="43.57478" lon="1.14556">
        <ele>249.3</ele>
        <time>2020-11-29T10:40:18Z</time>
      </trkpt>
      <trkpt lat="43.5748" lon="1.14553">
        <ele>249.4</ele>
        <time>2020-11-29T10:40:19Z</time>
      </trkpt>
      <trkpt lat="43.57482" lon="1.1455">
        <ele>249.4</ele>
        <time>2020-11-29T10:40:20Z</time>
      </trkpt>
      <trkpt lat="43.57484" lon="1.14546">
        <ele>249.6</ele>
        <time>2020-11-29T10:40:21Z</time>
      </trkpt>
      <trkpt lat="43.57485" lon="1.14546">
        <ele>249.6</ele>
        <time>2020-11-29T10:40:22Z</time>
      </trkpt>
      <trkpt lat="43.57487" lon="1.14543">
        <ele>249.7</ele>
        <time>2020-11-29T10:40:23Z</time>
      </trkpt>
      <trkpt lat="43.57488" lon="1.1454">
        <ele>249.9</ele>
        <time>2020-11-29T10:40:24Z</time>
      </trkpt>
      <trkpt lat="43.57491" lon="1.14536">
        <ele>250.1</ele>
        <time>2020-11-29T10:40:25Z</time>
      </trkpt>
      <trkpt lat="43.57492" lon="1.1453">
        <ele>250.3</ele>
        <time>2020-11-29T10:40:26Z</time>
      </trkpt>
      <trkpt lat="43.57495" lon="1.14524">
        <ele>250.5</ele>
        <time>2020-11-29T10:40:27Z</time>
      </trkpt>
      <trkpt lat="43.57497" lon="1.14517">
        <ele>250.6</ele>
        <time>2020-11-29T10:40:28Z</time>
      </trkpt>
      <trkpt lat="43.57499" lon="1.1451">
        <ele>250.8</ele>
        <time>2020-11-29T10:40:29Z</time>
      </trkpt>
      <trkpt lat="43.57501" lon="1.14504">
        <ele>250.9</ele>
        <time>2020-11-29T10:40:30Z</time>
      </trkpt>
      <trkpt lat="43.57503" lon="1.14498">
        <ele>251</ele>
        <time>2020-11-29T10:40:31Z</time>
      </trkpt>
      <trkpt lat="43.57504" lon="1.14491">
        <ele>251.3</ele>
        <time>2020-11-29T10:40:32Z</time>
      </trkpt>
      <trkpt lat="43.57506" lon="1.14486">
        <ele>251.6</ele>
        <time>2020-11-29T10:40:33Z</time>
      </trkpt>
      <trkpt lat="43.57508" lon="1.14481">
        <ele>251.8</ele>
        <time>2020-11-29T10:40:34Z</time>
      </trkpt>
      <trkpt lat="43.57509" lon="1.14476">
        <ele>252.1</ele>
        <time>2020-11-29T10:40:35Z</time>
      </trkpt>
      <trkpt lat="43.57511" lon="1.14471">
        <ele>252.4</ele>
        <time>2020-11-29T10:40:36Z</time>
      </trkpt>
      <trkpt lat="43.57513" lon="1.14467">
        <ele>252.6</ele>
        <time>2020-11-29T10:40:37Z</time>
      </trkpt>
      <trkpt lat="43.57515" lon="1.14463">
        <ele>252.9</ele>
        <time>2020-11-29T10:40:38Z</time>
      </trkpt>
      <trkpt lat="43.57517" lon="1.14457">
        <ele>253.1</ele>
        <time>2020-11-29T10:40:39Z</time>
      </trkpt>
      <trkpt lat="43.57519" lon="1.14453">
        <ele>253.3</ele>
        <time>2020-11-29T10:40:40Z</time>
      </trkpt>
      <trkpt lat="43.57522" lon="1.14447">
        <ele>253.5</ele>
        <time>2020-11-29T10:40:41Z</time>
      </trkpt>
      <trkpt lat="43.57524" lon="1.14442">
        <ele>253.7</ele>
        <time>2020-11-29T10:40:42Z</time>
      </trkpt>
      <trkpt lat="43.57525" lon="1.14439">
        <ele>253.8</ele>
        <time>2020-11-29T10:40:43Z</time>
      </trkpt>
      <trkpt lat="43.57527" lon="1.14434">
        <ele>254</ele>
        <time>2020-11-29T10:40:44Z</time>
      </trkpt>
      <trkpt lat="43.57528" lon="1.14431">
        <ele>254.1</ele>
        <time>2020-11-29T10:40:45Z</time>
      </trkpt>
      <trkpt lat="43.57531" lon="1.14426">
        <ele>254.3</ele>
        <time>2020-11-29T10:40:46Z</time>
      </trkpt>
      <trkpt lat="43.57533" lon="1.14423">
        <ele>254.4</ele>
        <time>2020-11-29T10:40:47Z</time>
      </trkpt>
      <trkpt lat="43.57536" lon="1.14419">
        <ele>254.7</ele>
        <time>2020-11-29T10:40:48Z</time>
      </trkpt>
      <trkpt lat="43.57538" lon="1.14415">
        <ele>254.9</ele>
        <time>2020-11-29T10:40:49Z</time>
      </trkpt>
      <trkpt lat="43.5754" lon="1.14411">
        <ele>255.2</ele>
        <time>2020-11-29T10:40:50Z</time>
      </trkpt>
      <trkpt lat="43.57541" lon="1.14407">
        <ele>255.4</ele>
        <time>2020-11-29T10:40:51Z</time>
      </trkpt>
      <trkpt lat="43.57543" lon="1.14403">
        <ele>255.6</ele>
        <time>2020-11-29T10:40:52Z</time>
      </trkpt>
      <trkpt lat="43.57545" lon="1.14398">
        <ele>255.9</ele>
        <time>2020-11-29T10:40:53Z</time>
      </trkpt>
      <trkpt lat="43.57547" lon="1.14394">
        <ele>256.1</ele>
        <time>2020-11-29T10:40:54Z</time>
      </trkpt>
      <trkpt lat="43.5755" lon="1.1439">
        <ele>256.2</ele>
        <time>2020-11-29T10:40:55Z</time>
      </trkpt>
      <trkpt lat="43.57551" lon="1.14385">
        <ele>256.4</ele>
        <time>2020-11-29T10:40:56Z</time>
      </trkpt>
      <trkpt lat="43.57554" lon="1.1438">
        <ele>256.4</ele>
        <time>2020-11-29T10:40:57Z</time>
      </trkpt>
      <trkpt lat="43.57555" lon="1.14374">
        <ele>256.5</ele>
        <time>2020-11-29T10:40:58Z</time>
      </trkpt>
      <trkpt lat="43.57558" lon="1.14368">
        <ele>256.7</ele>
        <time>2020-11-29T10:40:59Z</time>
      </trkpt>
      <trkpt lat="43.5756" lon="1.14362">
        <ele>256.9</ele>
        <time>2020-11-29T10:41:00Z</time>
      </trkpt>
      <trkpt lat="43.57561" lon="1.14358">
        <ele>257.1</ele>
        <time>2020-11-29T10:41:01Z</time>
      </trkpt>
      <trkpt lat="43.57562" lon="1.14354">
        <ele>257.3</ele>
        <time>2020-11-29T10:41:02Z</time>
      </trkpt>
      <trkpt lat="43.57563" lon="1.1435">
        <ele>257.6</ele>
        <time>2020-11-29T10:41:03Z</time>
      </trkpt>
      <trkpt lat="43.57565" lon="1.14347">
        <ele>257.9</ele>
        <time>2020-11-29T10:41:04Z</time>
      </trkpt>
      <trkpt lat="43.57568" lon="1.14344">
        <ele>258.4</ele>
        <time>2020-11-29T10:41:05Z</time>
      </trkpt>
      <trkpt lat="43.5757" lon="1.1434">
        <ele>259</ele>
        <time>2020-11-29T10:41:06Z</time>
      </trkpt>
      <trkpt lat="43.57572" lon="1.14336">
        <ele>259.6</ele>
        <time>2020-11-29T10:41:07Z</time>
      </trkpt>
      <trkpt lat="43.57574" lon="1.14332">
        <ele>260.2</ele>
        <time>2020-11-29T10:41:08Z</time>
      </trkpt>
      <trkpt lat="43.57576" lon="1.14327">
        <ele>261</ele>
        <time>2020-11-29T10:41:09Z</time>
      </trkpt>
      <trkpt lat="43.57577" lon="1.14322">
        <ele>261.7</ele>
        <time>2020-11-29T10:41:10Z</time>
      </trkpt>
      <trkpt lat="43.57579" lon="1.14318">
        <ele>262.4</ele>
        <time>2020-11-29T10:41:11Z</time>
      </trkpt>
      <trkpt lat="43.57581" lon="1.14315">
        <ele>263.1</ele>
        <time>2020-11-29T10:41:12Z</time>
      </trkpt>
      <trkpt lat="43.57583" lon="1.14312">
        <ele>263.8</ele>
        <time>2020-11-29T10:41:13Z</time>
      </trkpt>
      <trkpt lat="43.57584" lon="1.14311">
        <ele>264</ele>
        <time>2020-11-29T10:41:14Z</time>
      </trkpt>
      <trkpt lat="43.57586" lon="1.14307">
        <ele>264.6</ele>
        <time>2020-11-29T10:41:15Z</time>
      </trkpt>
      <trkpt lat="43.57586" lon="1.14306">
        <ele>264.8</ele>
        <time>2020-11-29T10:41:16Z</time>
      </trkpt>
      <trkpt lat="43.57587" lon="1.14302">
        <ele>265.5</ele>
        <time>2020-11-29T10:41:17Z</time>
      </trkpt>
      <trkpt lat="43.57588" lon="1.143">
        <ele>265.7</ele>
        <time>2020-11-29T10:41:18Z</time>
      </trkpt>
      <trkpt lat="43.57589" lon="1.14296">
        <ele>266.3</ele>
        <time>2020-11-29T10:41:19Z</time>
      </trkpt>
      <trkpt lat="43.57589" lon="1.14295">
        <ele>266.4</ele>
        <time>2020-11-29T10:41:20Z</time>
      </trkpt>
      <trkpt lat="43.57591" lon="1.1429">
        <ele>267</ele>
        <time>2020-11-29T10:41:21Z</time>
      </trkpt>
      <trkpt lat="43.57592" lon="1.14289">
        <ele>267.1</ele>
        <time>2020-11-29T10:41:22Z</time>
      </trkpt>
      <trkpt lat="43.57594" lon="1.14285">
        <ele>267.7</ele>
        <time>2020-11-29T10:41:23Z</time>
      </trkpt>
      <trkpt lat="43.57595" lon="1.14283">
        <ele>267.8</ele>
        <time>2020-11-29T10:41:24Z</time>
      </trkpt>
      <trkpt lat="43.57596" lon="1.14279">
        <ele>268.2</ele>
        <time>2020-11-29T10:41:25Z</time>
      </trkpt>
      <trkpt lat="43.57597" lon="1.14278">
        <ele>268.4</ele>
        <time>2020-11-29T10:41:26Z</time>
      </trkpt>
      <trkpt lat="43.57598" lon="1.14274">
        <ele>268.8</ele>
        <time>2020-11-29T10:41:27Z</time>
      </trkpt>
      <trkpt lat="43.57599" lon="1.14272">
        <ele>268.9</ele>
        <time>2020-11-29T10:41:28Z</time>
      </trkpt>
      <trkpt lat="43.57599" lon="1.14271">
        <ele>269</ele>
        <time>2020-11-29T10:41:29Z</time>
      </trkpt>
      <trkpt lat="43.576" lon="1.14269">
        <ele>269.2</ele>
        <time>2020-11-29T10:41:30Z</time>
      </trkpt>
      <trkpt lat="43.57601" lon="1.14267">
        <ele>269.4</ele>
        <time>2020-11-29T10:41:31Z</time>
      </trkpt>
      <trkpt lat="43.57602" lon="1.14265">
        <ele>269.6</ele>
        <time>2020-11-29T10:41:32Z</time>
      </trkpt>
      <trkpt lat="43.57603" lon="1.14264">
        <ele>269.7</ele>
        <time>2020-11-29T10:41:33Z</time>
      </trkpt>
      <trkpt lat="43.57603" lon="1.14263">
        <ele>269.8</ele>
        <time>2020-11-29T10:41:34Z</time>
      </trkpt>
      <trkpt lat="43.57603" lon="1.14261">
        <ele>270</ele>
        <time>2020-11-29T10:41:35Z</time>
      </trkpt>
      <trkpt lat="43.57605" lon="1.14257">
        <ele>270.3</ele>
        <time>2020-11-29T10:41:36Z</time>
      </trkpt>
      <trkpt lat="43.57605" lon="1.14256">
        <ele>270.4</ele>
        <time>2020-11-29T10:41:37Z</time>
      </trkpt>
      <trkpt lat="43.57607" lon="1.14252">
        <ele>270.8</ele>
        <time>2020-11-29T10:41:38Z</time>
      </trkpt>
      <trkpt lat="43.57608" lon="1.14251">
        <ele>270.9</ele>
        <time>2020-11-29T10:41:39Z</time>
      </trkpt>
      <trkpt lat="43.5761" lon="1.14247">
        <ele>271.3</ele>
        <time>2020-11-29T10:41:40Z</time>
      </trkpt>
      <trkpt lat="43.5761" lon="1.14245">
        <ele>271.5</ele>
        <time>2020-11-29T10:41:41Z</time>
      </trkpt>
      <trkpt lat="43.57611" lon="1.14242">
        <ele>271.7</ele>
        <time>2020-11-29T10:41:42Z</time>
      </trkpt>
      <trkpt lat="43.57611" lon="1.1424">
        <ele>271.9</ele>
        <time>2020-11-29T10:41:43Z</time>
      </trkpt>
      <trkpt lat="43.57612" lon="1.14237">
        <ele>272.2</ele>
        <time>2020-11-29T10:41:44Z</time>
      </trkpt>
      <trkpt lat="43.57612" lon="1.14235">
        <ele>272.4</ele>
        <time>2020-11-29T10:41:45Z</time>
      </trkpt>
      <trkpt lat="43.57612" lon="1.14231">
        <ele>272.7</ele>
        <time>2020-11-29T10:41:46Z</time>
      </trkpt>
      <trkpt lat="43.57612" lon="1.14229">
        <ele>272.9</ele>
        <time>2020-11-29T10:41:47Z</time>
      </trkpt>
      <trkpt lat="43.57612" lon="1.14227">
        <ele>273.1</ele>
        <time>2020-11-29T10:41:48Z</time>
      </trkpt>
      <trkpt lat="43.57613" lon="1.14225">
        <ele>273.3</ele>
        <time>2020-11-29T10:41:49Z</time>
      </trkpt>
      <trkpt lat="43.57614" lon="1.14221">
        <ele>273.7</ele>
        <time>2020-11-29T10:41:50Z</time>
      </trkpt>
      <trkpt lat="43.57614" lon="1.1422">
        <ele>273.9</ele>
        <time>2020-11-29T10:41:51Z</time>
      </trkpt>
      <trkpt lat="43.57615" lon="1.14217">
        <ele>274.2</ele>
        <time>2020-11-29T10:41:52Z</time>
      </trkpt>
      <trkpt lat="43.57615" lon="1.14213">
        <ele>274.6</ele>
        <time>2020-11-29T10:41:53Z</time>
      </trkpt>
      <trkpt lat="43.57615" lon="1.14211">
        <ele>274.8</ele>
        <time>2020-11-29T10:41:54Z</time>
      </trkpt>
      <trkpt lat="43.57616" lon="1.14207">
        <ele>275.3</ele>
        <time>2020-11-29T10:41:55Z</time>
      </trkpt>
      <trkpt lat="43.57617" lon="1.14206">
        <ele>275.4</ele>
        <time>2020-11-29T10:41:56Z</time>
      </trkpt>
      <trkpt lat="43.57618" lon="1.14202">
        <ele>275.9</ele>
        <time>2020-11-29T10:41:57Z</time>
      </trkpt>
      <trkpt lat="43.57619" lon="1.14201">
        <ele>276.1</ele>
        <time>2020-11-29T10:41:58Z</time>
      </trkpt>
      <trkpt lat="43.5762" lon="1.14199">
        <ele>276.4</ele>
        <time>2020-11-29T10:41:59Z</time>
      </trkpt>
      <trkpt lat="43.57621" lon="1.14198">
        <ele>276.6</ele>
        <time>2020-11-29T10:42:00Z</time>
      </trkpt>
      <trkpt lat="43.57622" lon="1.14197">
        <ele>276.7</ele>
        <time>2020-11-29T10:42:01Z</time>
      </trkpt>
      <trkpt lat="43.57624" lon="1.14194">
        <ele>277.2</ele>
        <time>2020-11-29T10:42:02Z</time>
      </trkpt>
      <trkpt lat="43.57625" lon="1.14192">
        <ele>277.4</ele>
        <time>2020-11-29T10:42:03Z</time>
      </trkpt>
      <trkpt lat="43.57627" lon="1.14189">
        <ele>277.8</ele>
        <time>2020-11-29T10:42:04Z</time>
      </trkpt>
      <trkpt lat="43.57628" lon="1.14188">
        <ele>278</ele>
        <time>2020-11-29T10:42:05Z</time>
      </trkpt>
      <trkpt lat="43.57629" lon="1.14185">
        <ele>278.3</ele>
        <time>2020-11-29T10:42:06Z</time>
      </trkpt>
      <trkpt lat="43.5763" lon="1.14184">
        <ele>278.4</ele>
        <time>2020-11-29T10:42:07Z</time>
      </trkpt>
      <trkpt lat="43.57631" lon="1.14181">
        <ele>278.8</ele>
        <time>2020-11-29T10:42:08Z</time>
      </trkpt>
      <trkpt lat="43.57632" lon="1.14179">
        <ele>279</ele>
        <time>2020-11-29T10:42:09Z</time>
      </trkpt>
      <trkpt lat="43.57632" lon="1.14177">
        <ele>279.2</ele>
        <time>2020-11-29T10:42:10Z</time>
      </trkpt>
      <trkpt lat="43.57632" lon="1.14174">
        <ele>279.5</ele>
        <time>2020-11-29T10:42:11Z</time>
      </trkpt>
      <trkpt lat="43.57633" lon="1.14169">
        <ele>280</ele>
        <time>2020-11-29T10:42:12Z</time>
      </trkpt>
      <trkpt lat="43.57633" lon="1.14168">
        <ele>280.1</ele>
        <time>2020-11-29T10:42:13Z</time>
      </trkpt>
      <trkpt lat="43.57635" lon="1.14165">
        <ele>280.5</ele>
        <time>2020-11-29T10:42:14Z</time>
      </trkpt>
      <trkpt lat="43.57636" lon="1.14161">
        <ele>280.9</ele>
        <time>2020-11-29T10:42:15Z</time>
      </trkpt>
      <trkpt lat="43.57636" lon="1.14159">
        <ele>281.2</ele>
        <time>2020-11-29T10:42:16Z</time>
      </trkpt>
      <trkpt lat="43.57637" lon="1.14157">
        <ele>281.4</ele>
        <time>2020-11-29T10:42:17Z</time>
      </trkpt>
      <trkpt lat="43.57639" lon="1.14153">
        <ele>282</ele>
        <time>2020-11-29T10:42:18Z</time>
      </trkpt>
      <trkpt lat="43.57641" lon="1.14151">
        <ele>282.2</ele>
        <time>2020-11-29T10:42:19Z</time>
      </trkpt>
      <trkpt lat="43.57643" lon="1.14147">
        <ele>282.7</ele>
        <time>2020-11-29T10:42:20Z</time>
      </trkpt>
      <trkpt lat="43.57644" lon="1.14146">
        <ele>282.9</ele>
        <time>2020-11-29T10:42:21Z</time>
      </trkpt>
      <trkpt lat="43.57645" lon="1.14143">
        <ele>283.3</ele>
        <time>2020-11-29T10:42:22Z</time>
      </trkpt>
      <trkpt lat="43.57646" lon="1.14141">
        <ele>283.5</ele>
        <time>2020-11-29T10:42:23Z</time>
      </trkpt>
      <trkpt lat="43.57647" lon="1.14138">
        <ele>283.9</ele>
        <time>2020-11-29T10:42:24Z</time>
      </trkpt>
      <trkpt lat="43.57648" lon="1.14133">
        <ele>284.3</ele>
        <time>2020-11-29T10:42:25Z</time>
      </trkpt>
      <trkpt lat="43.57649" lon="1.14131">
        <ele>284.5</ele>
        <time>2020-11-29T10:42:26Z</time>
      </trkpt>
      <trkpt lat="43.5765" lon="1.14127">
        <ele>284.9</ele>
        <time>2020-11-29T10:42:27Z</time>
      </trkpt>
      <trkpt lat="43.57652" lon="1.14123">
        <ele>285.4</ele>
        <time>2020-11-29T10:42:28Z</time>
      </trkpt>
      <trkpt lat="43.57654" lon="1.1412">
        <ele>285.7</ele>
        <time>2020-11-29T10:42:29Z</time>
      </trkpt>
      <trkpt lat="43.57654" lon="1.14118">
        <ele>285.8</ele>
        <time>2020-11-29T10:42:30Z</time>
      </trkpt>
      <trkpt lat="43.57656" lon="1.14115">
        <ele>286.1</ele>
        <time>2020-11-29T10:42:31Z</time>
      </trkpt>
      <trkpt lat="43.57656" lon="1.14114">
        <ele>286.2</ele>
        <time>2020-11-29T10:42:32Z</time>
      </trkpt>
      <trkpt lat="43.57658" lon="1.14109">
        <ele>286.7</ele>
        <time>2020-11-29T10:42:33Z</time>
      </trkpt>
      <trkpt lat="43.57659" lon="1.14108">
        <ele>286.8</ele>
        <time>2020-11-29T10:42:34Z</time>
      </trkpt>
      <trkpt lat="43.57661" lon="1.14105">
        <ele>287.2</ele>
        <time>2020-11-29T10:42:35Z</time>
      </trkpt>
      <trkpt lat="43.57663" lon="1.14101">
        <ele>287.6</ele>
        <time>2020-11-29T10:42:36Z</time>
      </trkpt>
      <trkpt lat="43.57665" lon="1.14097">
        <ele>287.9</ele>
        <time>2020-11-29T10:42:37Z</time>
      </trkpt>
      <trkpt lat="43.57666" lon="1.14094">
        <ele>288.3</ele>
        <time>2020-11-29T10:42:38Z</time>
      </trkpt>
      <trkpt lat="43.57667" lon="1.1409">
        <ele>288.6</ele>
        <time>2020-11-29T10:42:39Z</time>
      </trkpt>
      <trkpt lat="43.57669" lon="1.14085">
        <ele>289.1</ele>
        <time>2020-11-29T10:42:40Z</time>
      </trkpt>
      <trkpt lat="43.5767" lon="1.14084">
        <ele>289.2</ele>
        <time>2020-11-29T10:42:41Z</time>
      </trkpt>
      <trkpt lat="43.57673" lon="1.14082">
        <ele>289.6</ele>
        <time>2020-11-29T10:42:42Z</time>
      </trkpt>
      <trkpt lat="43.57674" lon="1.14081">
        <ele>289.6</ele>
        <time>2020-11-29T10:42:43Z</time>
      </trkpt>
      <trkpt lat="43.57677" lon="1.14079">
        <ele>289.9</ele>
        <time>2020-11-29T10:42:44Z</time>
      </trkpt>
      <trkpt lat="43.57677" lon="1.14079">
        <ele>290</ele>
        <time>2020-11-29T10:42:45Z</time>
      </trkpt>
      <trkpt lat="43.5768" lon="1.14078">
        <ele>290.2</ele>
        <time>2020-11-29T10:42:46Z</time>
      </trkpt>
      <trkpt lat="43.57681" lon="1.14079">
        <ele>290.3</ele>
        <time>2020-11-29T10:42:47Z</time>
      </trkpt>
      <trkpt lat="43.57683" lon="1.14078">
        <ele>290.5</ele>
        <time>2020-11-29T10:42:48Z</time>
      </trkpt>
      <trkpt lat="43.57684" lon="1.14078">
        <ele>290.6</ele>
        <time>2020-11-29T10:42:49Z</time>
      </trkpt>
      <trkpt lat="43.57685" lon="1.14078">
        <ele>290.6</ele>
        <time>2020-11-29T10:42:50Z</time>
      </trkpt>
      <trkpt lat="43.57686" lon="1.1408">
        <ele>290.8</ele>
        <time>2020-11-29T10:42:51Z</time>
      </trkpt>
      <trkpt lat="43.57687" lon="1.1408">
        <ele>290.9</ele>
        <time>2020-11-29T10:42:52Z</time>
      </trkpt>
      <trkpt lat="43.57687" lon="1.1408">
        <ele>291</ele>
        <time>2020-11-29T10:42:53Z</time>
      </trkpt>
      <trkpt lat="43.57688" lon="1.1408">
        <ele>291</ele>
        <time>2020-11-29T10:42:54Z</time>
      </trkpt>
      <trkpt lat="43.57689" lon="1.14079">
        <ele>291</ele>
        <time>2020-11-29T10:42:55Z</time>
      </trkpt>
      <trkpt lat="43.5769" lon="1.14079">
        <ele>291</ele>
        <time>2020-11-29T10:42:56Z</time>
      </trkpt>
      <trkpt lat="43.57691" lon="1.14079">
        <ele>291</ele>
        <time>2020-11-29T10:42:57Z</time>
      </trkpt>
      <trkpt lat="43.57693" lon="1.14078">
        <ele>291</ele>
        <time>2020-11-29T10:42:58Z</time>
      </trkpt>
      <trkpt lat="43.57694" lon="1.14078">
        <ele>291</ele>
        <time>2020-11-29T10:42:59Z</time>
      </trkpt>
      <trkpt lat="43.57694" lon="1.14078">
        <ele>291</ele>
        <time>2020-11-29T10:43:00Z</time>
      </trkpt>
      <trkpt lat="43.57696" lon="1.14078">
        <ele>291</ele>
        <time>2020-11-29T10:43:01Z</time>
      </trkpt>
      <trkpt lat="43.57696" lon="1.14079">
        <ele>291</ele>
        <time>2020-11-29T10:43:02Z</time>
      </trkpt>
      <trkpt lat="43.57696" lon="1.14081">
        <ele>291</ele>
        <time>2020-11-29T10:43:03Z</time>
      </trkpt>
      <trkpt lat="43.57696" lon="1.14081">
        <ele>291</ele>
        <time>2020-11-29T10:43:04Z</time>
      </trkpt>
      <trkpt lat="43.57696" lon="1.14081">
        <ele>291</ele>
        <time>2020-11-29T10:43:05Z</time>
      </trkpt>
      <trkpt lat="43.57696" lon="1.14081">
        <ele>291</ele>
        <time>2020-11-29T10:43:06Z</time>
      </trkpt>
      <trkpt lat="43.57696" lon="1.14081">
        <ele>291</ele>
        <time>2020-11-29T10:43:07Z</time>
      </trkpt>
      <trkpt lat="43.57696" lon="1.14081">
        <ele>291</ele>
        <time>2020-11-29T10:43:08Z</time>
      </trkpt>
      <trkpt lat="43.57696" lon="1.14081">
        <ele>291</ele>
        <time>2020-11-29T10:43:09Z</time>
      </trkpt>
      <trkpt lat="43.57696" lon="1.14081">
        <ele>291</ele>
        <time>2020-11-29T10:43:10Z</time>
      </trkpt>
      <trkpt lat="43.57696" lon="1.14081">
        <ele>291</ele>
        <time>2020-11-29T10:43:11Z</time>
      </trkpt>
      <trkpt lat="43.57696" lon="1.14081">
        <ele>291</ele>
        <time>2020-11-29T10:43:12Z</time>
      </trkpt>
      <trkpt lat="43.57695" lon="1.14081">
        <ele>291</ele>
        <time>2020-11-29T10:43:13Z</time>
      </trkpt>
      <trkpt lat="43.57695" lon="1.14081">
        <ele>291</ele>
        <time>2020-11-29T10:43:14Z</time>
      </trkpt>
      <trkpt lat="43.57695" lon="1.14081">
        <ele>291</ele>
        <time>2020-11-29T10:43:15Z</time>
      </trkpt>
      <trkpt lat="43.57695" lon="1.14081">
        <ele>291</ele>
        <time>2020-11-29T10:43:16Z</time>
      </trkpt>
      <trkpt lat="43.57695" lon="1.14081">
        <ele>291</ele>
        <time>2020-11-29T10:43:17Z</time>
      </trkpt>
      <trkpt lat="43.57695" lon="1.14081">
        <ele>291</ele>
        <time>2020-11-29T10:43:18Z</time>
      </trkpt>
      <trkpt lat="43.57695" lon="1.14081">
        <ele>291</ele>
        <time>2020-11-29T10:43:19Z</time>
      </trkpt>
      <trkpt lat="43.57695" lon="1.14081">
        <ele>291</ele>
        <time>2020-11-29T10:43:20Z</time>
      </trkpt>
      <trkpt lat="43.57695" lon="1.14081">
        <ele>291</ele>
        <time>2020-11-29T10:43:21Z</time>
      </trkpt>
      <trkpt lat="43.57695" lon="1.14081">
        <ele>291</ele>
        <time>2020-11-29T10:43:22Z</time>
      </trkpt>
      <trkpt lat="43.57695" lon="1.14081">
        <ele>291</ele>
        <time>2020-11-29T10:43:23Z</time>
      </trkpt>
      <trkpt lat="43.57694" lon="1.14081">
        <ele>291</ele>
        <time>2020-11-29T10:43:24Z</time>
      </trkpt>
      <trkpt lat="43.57694" lon="1.14081">
        <ele>291</ele>
        <time>2020-11-29T10:43:25Z</time>
      </trkpt>
      <trkpt lat="43.57694" lon="1.14081">
        <ele>291</ele>
        <time>2020-11-29T10:43:26Z</time>
      </trkpt>
      <trkpt lat="43.57694" lon="1.14081">
        <ele>291</ele>
        <time>2020-11-29T10:43:27Z</time>
      </trkpt>
      <trkpt lat="43.57694" lon="1.14081">
        <ele>291</ele>
        <time>2020-11-29T10:43:28Z</time>
      </trkpt>
      <trkpt lat="43.57694" lon="1.14081">
        <ele>291</ele>
        <time>2020-11-29T10:43:29Z</time>
      </trkpt>
      <trkpt lat="43.57694" lon="1.14081">
        <ele>291</ele>
        <time>2020-11-29T10:43:30Z</time>
      </trkpt>
      <trkpt lat="43.57694" lon="1.14081">
        <ele>291</ele>
        <time>2020-11-29T10:43:31Z</time>
      </trkpt>
      <trkpt lat="43.57694" lon="1.14081">
        <ele>291</ele>
        <time>2020-11-29T10:43:32Z</time>
      </trkpt>
      <trkpt lat="43.57694" lon="1.14082">
        <ele>291</ele>
        <time>2020-11-29T10:43:33Z</time>
      </trkpt>
      <trkpt lat="43.57694" lon="1.14081">
        <ele>291</ele>
        <time>2020-11-29T10:43:34Z</time>
      </trkpt>
      <trkpt lat="43.57694" lon="1.14081">
        <ele>291</ele>
        <time>2020-11-29T10:43:35Z</time>
      </trkpt>
      <trkpt lat="43.57694" lon="1.14081">
        <ele>291</ele>
        <time>2020-11-29T10:43:36Z</time>
      </trkpt>
      <trkpt lat="43.57694" lon="1.14081">
        <ele>291</ele>
        <time>2020-11-29T10:43:37Z</time>
      </trkpt>
      <trkpt lat="43.57694" lon="1.14081">
        <ele>291</ele>
        <time>2020-11-29T10:43:38Z</time>
      </trkpt>
      <trkpt lat="43.57694" lon="1.14081">
        <ele>291</ele>
        <time>2020-11-29T10:43:39Z</time>
      </trkpt>
      <trkpt lat="43.57694" lon="1.14081">
        <ele>291</ele>
        <time>2020-11-29T10:43:40Z</time>
      </trkpt>
      <trkpt lat="43.57694" lon="1.14081">
        <ele>291</ele>
        <time>2020-11-29T10:43:41Z</time>
      </trkpt>
      <trkpt lat="43.57694" lon="1.14081">
        <ele>291</ele>
        <time>2020-11-29T10:43:42Z</time>
      </trkpt>
      <trkpt lat="43.57694" lon="1.14081">
        <ele>291</ele>
        <time>2020-11-29T10:43:43Z</time>
      </trkpt>
      <trkpt lat="43.57694" lon="1.14081">
        <ele>291</ele>
        <time>2020-11-29T10:43:44Z</time>
      </trkpt>
      <trkpt lat="43.57694" lon="1.14081">
        <ele>291</ele>
        <time>2020-11-29T10:43:45Z</time>
      </trkpt>
      <trkpt lat="43.57694" lon="1.14081">
        <ele>291</ele>
        <time>2020-11-29T10:43:46Z</time>
      </trkpt>
      <trkpt lat="43.57694" lon="1.14081">
        <ele>291</ele>
        <time>2020-11-29T10:43:47Z</time>
      </trkpt>
      <trkpt lat="43.57694" lon="1.14081">
        <ele>291</ele>
        <time>2020-11-29T10:43:48Z</time>
      </trkpt>
      <trkpt lat="43.57694" lon="1.14081">
        <ele>291</ele>
        <time>2020-11-29T10:43:49Z</time>
      </trkpt>
      <trkpt lat="43.57694" lon="1.14081">
        <ele>291</ele>
        <time>2020-11-29T10:43:50Z</time>
      </trkpt>
      <trkpt lat="43.57694" lon="1.14081">
        <ele>291</ele>
        <time>2020-11-29T10:43:51Z</time>
      </trkpt>
      <trkpt lat="43.57694" lon="1.14081">
        <ele>291</ele>
        <time>2020-11-29T10:43:52Z</time>
      </trkpt>
      <trkpt lat="43.57694" lon="1.14081">
        <ele>291</ele>
        <time>2020-11-29T10:43:53Z</time>
      </trkpt>
      <trkpt lat="43.57694" lon="1.14081">
        <ele>291</ele>
        <time>2020-11-29T10:43:54Z</time>
      </trkpt>
      <trkpt lat="43.57694" lon="1.14081">
        <ele>291</ele>
        <time>2020-11-29T10:43:55Z</time>
      </trkpt>
      <trkpt lat="43.57694" lon="1.14081">
        <ele>291</ele>
        <time>2020-11-29T10:43:56Z</time>
      </trkpt>
      <trkpt lat="43.57694" lon="1.14081">
        <ele>291</ele>
        <time>2020-11-29T10:43:57Z</time>
      </trkpt>
      <trkpt lat="43.57694" lon="1.14081">
        <ele>291</ele>
        <time>2020-11-29T10:43:58Z</time>
      </trkpt>
      <trkpt lat="43.57695" lon="1.14081">
        <ele>291</ele>
        <time>2020-11-29T10:43:59Z</time>
      </trkpt>
      <trkpt lat="43.57695" lon="1.14081">
        <ele>291</ele>
        <time>2020-11-29T10:44:00Z</time>
      </trkpt>
      <trkpt lat="43.57695" lon="1.14081">
        <ele>291</ele>
        <time>2020-11-29T10:44:01Z</time>
      </trkpt>
      <trkpt lat="43.57695" lon="1.14081">
        <ele>291</ele>
        <time>2020-11-29T10:44:02Z</time>
      </trkpt>
      <trkpt lat="43.57695" lon="1.14081">
        <ele>291</ele>
        <time>2020-11-29T10:44:03Z</time>
      </trkpt>
      <trkpt lat="43.57695" lon="1.14081">
        <ele>291</ele>
        <time>2020-11-29T10:44:04Z</time>
      </trkpt>
      <trkpt lat="43.57695" lon="1.14081">
        <ele>291</ele>
        <time>2020-11-29T10:44:05Z</time>
      </trkpt>
      <trkpt lat="43.57695" lon="1.14081">
        <ele>291</ele>
        <time>2020-11-29T10:44:06Z</time>
      </trkpt>
      <trkpt lat="43.57695" lon="1.14081">
        <ele>291</ele>
        <time>2020-11-29T10:44:07Z</time>
      </trkpt>
      <trkpt lat="43.57695" lon="1.14081">
        <ele>291</ele>
        <time>2020-11-29T10:44:08Z</time>
      </trkpt>
      <trkpt lat="43.57695" lon="1.14081">
        <ele>291</ele>
        <time>2020-11-29T10:44:09Z</time>
      </trkpt>
      <trkpt lat="43.57695" lon="1.14081">
        <ele>291</ele>
        <time>2020-11-29T10:44:10Z</time>
      </trkpt>
      <trkpt lat="43.57695" lon="1.14081">
        <ele>291</ele>
        <time>2020-11-29T10:44:11Z</time>
      </trkpt>
      <trkpt lat="43.57694" lon="1.1408">
        <ele>291</ele>
        <time>2020-11-29T10:44:12Z</time>
      </trkpt>
      <trkpt lat="43.57694" lon="1.1408">
        <ele>291</ele>
        <time>2020-11-29T10:44:13Z</time>
      </trkpt>
      <trkpt lat="43.57694" lon="1.1408">
        <ele>291</ele>
        <time>2020-11-29T10:44:14Z</time>
      </trkpt>
      <trkpt lat="43.57694" lon="1.1408">
        <ele>291</ele>
        <time>2020-11-29T10:44:15Z</time>
      </trkpt>
      <trkpt lat="43.57694" lon="1.1408">
        <ele>291</ele>
        <time>2020-11-29T10:44:16Z</time>
      </trkpt>
      <trkpt lat="43.57695" lon="1.1408">
        <ele>291</ele>
        <time>2020-11-29T10:44:17Z</time>
      </trkpt>
      <trkpt lat="43.57695" lon="1.14079">
        <ele>291</ele>
        <time>2020-11-29T10:44:18Z</time>
      </trkpt>
      <trkpt lat="43.57695" lon="1.14079">
        <ele>291</ele>
        <time>2020-11-29T10:44:19Z</time>
      </trkpt>
      <trkpt lat="43.57695" lon="1.14079">
        <ele>291</ele>
        <time>2020-11-29T10:44:20Z</time>
      </trkpt>
      <trkpt lat="43.57695" lon="1.14079">
        <ele>291</ele>
        <time>2020-11-29T10:44:21Z</time>
      </trkpt>
      <trkpt lat="43.57695" lon="1.1408">
        <ele>291</ele>
        <time>2020-11-29T10:44:22Z</time>
      </trkpt>
      <trkpt lat="43.57695" lon="1.1408">
        <ele>291</ele>
        <time>2020-11-29T10:44:23Z</time>
      </trkpt>
      <trkpt lat="43.57695" lon="1.1408">
        <ele>291</ele>
        <time>2020-11-29T10:44:24Z</time>
      </trkpt>
      <trkpt lat="43.57695" lon="1.1408">
        <ele>291</ele>
        <time>2020-11-29T10:44:25Z</time>
      </trkpt>
      <trkpt lat="43.57695" lon="1.1408">
        <ele>291</ele>
        <time>2020-11-29T10:44:26Z</time>
      </trkpt>
      <trkpt lat="43.57695" lon="1.1408">
        <ele>291</ele>
        <time>2020-11-29T10:44:27Z</time>
      </trkpt>
      <trkpt lat="43.57695" lon="1.1408">
        <ele>291</ele>
        <time>2020-11-29T10:44:28Z</time>
      </trkpt>
      <trkpt lat="43.57695" lon="1.1408">
        <ele>291</ele>
        <time>2020-11-29T10:44:29Z</time>
      </trkpt>
      <trkpt lat="43.57695" lon="1.1408">
        <ele>291</ele>
        <time>2020-11-29T10:44:30Z</time>
      </trkpt>
      <trkpt lat="43.57695" lon="1.1408">
        <ele>291</ele>
        <time>2020-11-29T10:44:31Z</time>
      </trkpt>
      <trkpt lat="43.57695" lon="1.14079">
        <ele>291</ele>
        <time>2020-11-29T10:44:32Z</time>
      </trkpt>
      <trkpt lat="43.57695" lon="1.14079">
        <ele>291</ele>
        <time>2020-11-29T10:44:33Z</time>
      </trkpt>
      <trkpt lat="43.57695" lon="1.14079">
        <ele>291</ele>
        <time>2020-11-29T10:44:34Z</time>
      </trkpt>
      <trkpt lat="43.57695" lon="1.14079">
        <ele>291</ele>
        <time>2020-11-29T10:44:35Z</time>
      </trkpt>
      <trkpt lat="43.57695" lon="1.14079">
        <ele>291</ele>
        <time>2020-11-29T10:44:36Z</time>
      </trkpt>
      <trkpt lat="43.57695" lon="1.14079">
        <ele>291.1</ele>
        <time>2020-11-29T10:44:37Z</time>
      </trkpt>
      <trkpt lat="43.57695" lon="1.14079">
        <ele>291.1</ele>
        <time>2020-11-29T10:44:38Z</time>
      </trkpt>
      <trkpt lat="43.57695" lon="1.14079">
        <ele>291.1</ele>
        <time>2020-11-29T10:44:39Z</time>
      </trkpt>
      <trkpt lat="43.57695" lon="1.14079">
        <ele>291.1</ele>
        <time>2020-11-29T10:44:40Z</time>
      </trkpt>
      <trkpt lat="43.57695" lon="1.14079">
        <ele>291.1</ele>
        <time>2020-11-29T10:44:41Z</time>
      </trkpt>
      <trkpt lat="43.57695" lon="1.14079">
        <ele>291.1</ele>
        <time>2020-11-29T10:44:42Z</time>
      </trkpt>
      <trkpt lat="43.57695" lon="1.14079">
        <ele>291.1</ele>
        <time>2020-11-29T10:44:43Z</time>
      </trkpt>
      <trkpt lat="43.57695" lon="1.14079">
        <ele>291.1</ele>
        <time>2020-11-29T10:44:44Z</time>
      </trkpt>
      <trkpt lat="43.57695" lon="1.14079">
        <ele>291.1</ele>
        <time>2020-11-29T10:44:45Z</time>
      </trkpt>
      <trkpt lat="43.57695" lon="1.14079">
        <ele>291.1</ele>
        <time>2020-11-29T10:44:46Z</time>
      </trkpt>
      <trkpt lat="43.57695" lon="1.14079">
        <ele>291.1</ele>
        <time>2020-11-29T10:44:47Z</time>
      </trkpt>
      <trkpt lat="43.57695" lon="1.14079">
        <ele>291.1</ele>
        <time>2020-11-29T10:44:48Z</time>
      </trkpt>
      <trkpt lat="43.57695" lon="1.1408">
        <ele>291.1</ele>
        <time>2020-11-29T10:44:49Z</time>
      </trkpt>
      <trkpt lat="43.57695" lon="1.1408">
        <ele>291.1</ele>
        <time>2020-11-29T10:44:50Z</time>
      </trkpt>
      <trkpt lat="43.57695" lon="1.1408">
        <ele>291.1</ele>
        <time>2020-11-29T10:44:51Z</time>
      </trkpt>
      <trkpt lat="43.57695" lon="1.1408">
        <ele>291.1</ele>
        <time>2020-11-29T10:44:52Z</time>
      </trkpt>
      <trkpt lat="43.57695" lon="1.14079">
        <ele>291.1</ele>
        <time>2020-11-29T10:44:53Z</time>
      </trkpt>
      <trkpt lat="43.57695" lon="1.14079">
        <ele>291.1</ele>
        <time>2020-11-29T10:44:54Z</time>
      </trkpt>
      <trkpt lat="43.57695" lon="1.14079">
        <ele>291.1</ele>
        <time>2020-11-29T10:44:55Z</time>
      </trkpt>
      <trkpt lat="43.57695" lon="1.14079">
        <ele>291.1</ele>
        <time>2020-11-29T10:44:56Z</time>
      </trkpt>
      <trkpt lat="43.57695" lon="1.1408">
        <ele>291.1</ele>
        <time>2020-11-29T10:44:57Z</time>
      </trkpt>
      <trkpt lat="43.57695" lon="1.1408">
        <ele>291.1</ele>
        <time>2020-11-29T10:44:58Z</time>
      </trkpt>
      <trkpt lat="43.57695" lon="1.1408">
        <ele>291.1</ele>
        <time>2020-11-29T10:44:59Z</time>
      </trkpt>
      <trkpt lat="43.57695" lon="1.1408">
        <ele>291.1</ele>
        <time>2020-11-29T10:45:00Z</time>
      </trkpt>
      <trkpt lat="43.57695" lon="1.1408">
        <ele>291.1</ele>
        <time>2020-11-29T10:45:01Z</time>
      </trkpt>
      <trkpt lat="43.57695" lon="1.14079">
        <ele>291.1</ele>
        <time>2020-11-29T10:45:02Z</time>
      </trkpt>
      <trkpt lat="43.57694" lon="1.14081">
        <ele>291.1</ele>
        <time>2020-11-29T10:45:03Z</time>
      </trkpt>
      <trkpt lat="43.57693" lon="1.14081">
        <ele>291.1</ele>
        <time>2020-11-29T10:45:04Z</time>
      </trkpt>
      <trkpt lat="43.57694" lon="1.14081">
        <ele>291.1</ele>
        <time>2020-11-29T10:45:05Z</time>
      </trkpt>
      <trkpt lat="43.57694" lon="1.14081">
        <ele>291.1</ele>
        <time>2020-11-29T10:45:06Z</time>
      </trkpt>
      <trkpt lat="43.57693" lon="1.14081">
        <ele>291.1</ele>
        <time>2020-11-29T10:45:07Z</time>
      </trkpt>
      <trkpt lat="43.57693" lon="1.14081">
        <ele>291.1</ele>
        <time>2020-11-29T10:45:08Z</time>
      </trkpt>
      <trkpt lat="43.57693" lon="1.14081">
        <ele>291.1</ele>
        <time>2020-11-29T10:45:09Z</time>
      </trkpt>
      <trkpt lat="43.57693" lon="1.14081">
        <ele>291.1</ele>
        <time>2020-11-29T10:45:10Z</time>
      </trkpt>
      <trkpt lat="43.57693" lon="1.14081">
        <ele>291.1</ele>
        <time>2020-11-29T10:45:11Z</time>
      </trkpt>
      <trkpt lat="43.57694" lon="1.14081">
        <ele>291.1</ele>
        <time>2020-11-29T10:45:12Z</time>
      </trkpt>
      <trkpt lat="43.57693" lon="1.14081">
        <ele>291.1</ele>
        <time>2020-11-29T10:45:13Z</time>
      </trkpt>
      <trkpt lat="43.57693" lon="1.14081">
        <ele>291.1</ele>
        <time>2020-11-29T10:45:14Z</time>
      </trkpt>
      <trkpt lat="43.57694" lon="1.14081">
        <ele>291.1</ele>
        <time>2020-11-29T10:45:15Z</time>
      </trkpt>
      <trkpt lat="43.57694" lon="1.14081">
        <ele>291.1</ele>
        <time>2020-11-29T10:45:16Z</time>
      </trkpt>
      <trkpt lat="43.57694" lon="1.14081">
        <ele>291.1</ele>
        <time>2020-11-29T10:45:17Z</time>
      </trkpt>
      <trkpt lat="43.57694" lon="1.14081">
        <ele>291.1</ele>
        <time>2020-11-29T10:45:18Z</time>
      </trkpt>
      <trkpt lat="43.57694" lon="1.14081">
        <ele>291.1</ele>
        <time>2020-11-29T10:45:19Z</time>
      </trkpt>
      <trkpt lat="43.57694" lon="1.14081">
        <ele>291.1</ele>
        <time>2020-11-29T10:45:20Z</time>
      </trkpt>
      <trkpt lat="43.57694" lon="1.14081">
        <ele>291.1</ele>
        <time>2020-11-29T10:45:21Z</time>
      </trkpt>
      <trkpt lat="43.57694" lon="1.14081">
        <ele>291.1</ele>
        <time>2020-11-29T10:45:22Z</time>
      </trkpt>
      <trkpt lat="43.57694" lon="1.14081">
        <ele>291.1</ele>
        <time>2020-11-29T10:45:23Z</time>
      </trkpt>
      <trkpt lat="43.57694" lon="1.1408">
        <ele>291.1</ele>
        <time>2020-11-29T10:45:24Z</time>
      </trkpt>
      <trkpt lat="43.57694" lon="1.1408">
        <ele>291.1</ele>
        <time>2020-11-29T10:45:25Z</time>
      </trkpt>
      <trkpt lat="43.57694" lon="1.1408">
        <ele>291.1</ele>
        <time>2020-11-29T10:45:26Z</time>
      </trkpt>
      <trkpt lat="43.57695" lon="1.1408">
        <ele>291.1</ele>
        <time>2020-11-29T10:45:27Z</time>
      </trkpt>
      <trkpt lat="43.57695" lon="1.14079">
        <ele>291.1</ele>
        <time>2020-11-29T10:45:28Z</time>
      </trkpt>
      <trkpt lat="43.57695" lon="1.14079">
        <ele>291.1</ele>
        <time>2020-11-29T10:45:29Z</time>
      </trkpt>
      <trkpt lat="43.57695" lon="1.14079">
        <ele>291.1</ele>
        <time>2020-11-29T10:45:30Z</time>
      </trkpt>
      <trkpt lat="43.57695" lon="1.14079">
        <ele>291.1</ele>
        <time>2020-11-29T10:45:31Z</time>
      </trkpt>
      <trkpt lat="43.57695" lon="1.14079">
        <ele>291.1</ele>
        <time>2020-11-29T10:45:32Z</time>
      </trkpt>
      <trkpt lat="43.57695" lon="1.14079">
        <ele>291.1</ele>
        <time>2020-11-29T10:45:33Z</time>
      </trkpt>
      <trkpt lat="43.57695" lon="1.14079">
        <ele>291.1</ele>
        <time>2020-11-29T10:45:34Z</time>
      </trkpt>
      <trkpt lat="43.57695" lon="1.14079">
        <ele>291.1</ele>
        <time>2020-11-29T10:45:35Z</time>
      </trkpt>
      <trkpt lat="43.57695" lon="1.14079">
        <ele>291.1</ele>
        <time>2020-11-29T10:45:36Z</time>
      </trkpt>
      <trkpt lat="43.57695" lon="1.14079">
        <ele>291.1</ele>
        <time>2020-11-29T10:45:37Z</time>
      </trkpt>
      <trkpt lat="43.57695" lon="1.14078">
        <ele>291.1</ele>
        <time>2020-11-29T10:45:38Z</time>
      </trkpt>
      <trkpt lat="43.57695" lon="1.14078">
        <ele>291.1</ele>
        <time>2020-11-29T10:45:39Z</time>
      </trkpt>
      <trkpt lat="43.57695" lon="1.14079">
        <ele>291.1</ele>
        <time>2020-11-29T10:45:40Z</time>
      </trkpt>
      <trkpt lat="43.57694" lon="1.14079">
        <ele>291.1</ele>
        <time>2020-11-29T10:45:41Z</time>
      </trkpt>
      <trkpt lat="43.57695" lon="1.14079">
        <ele>291.1</ele>
        <time>2020-11-29T10:45:42Z</time>
      </trkpt>
      <trkpt lat="43.57694" lon="1.14081">
        <ele>291.1</ele>
        <time>2020-11-29T10:45:43Z</time>
      </trkpt>
      <trkpt lat="43.57693" lon="1.14082">
        <ele>291.1</ele>
        <time>2020-11-29T10:45:44Z</time>
      </trkpt>
      <trkpt lat="43.57691" lon="1.14084">
        <ele>290.9</ele>
        <time>2020-11-29T10:45:45Z</time>
      </trkpt>
      <trkpt lat="43.57689" lon="1.14088">
        <ele>290.6</ele>
        <time>2020-11-29T10:45:46Z</time>
      </trkpt>
      <trkpt lat="43.57687" lon="1.14091">
        <ele>290.4</ele>
        <time>2020-11-29T10:45:47Z</time>
      </trkpt>
      <trkpt lat="43.57685" lon="1.14097">
        <ele>290</ele>
        <time>2020-11-29T10:45:48Z</time>
      </trkpt>
      <trkpt lat="43.57683" lon="1.14103">
        <ele>289.5</ele>
        <time>2020-11-29T10:45:49Z</time>
      </trkpt>
      <trkpt lat="43.57679" lon="1.1411">
        <ele>288.9</ele>
        <time>2020-11-29T10:45:50Z</time>
      </trkpt>
      <trkpt lat="43.57676" lon="1.14117">
        <ele>288.2</ele>
        <time>2020-11-29T10:45:51Z</time>
      </trkpt>
      <trkpt lat="43.57672" lon="1.14124">
        <ele>287.4</ele>
        <time>2020-11-29T10:45:52Z</time>
      </trkpt>
      <trkpt lat="43.57668" lon="1.14132">
        <ele>286.6</ele>
        <time>2020-11-29T10:45:53Z</time>
      </trkpt>
      <trkpt lat="43.57664" lon="1.14143">
        <ele>285.6</ele>
        <time>2020-11-29T10:45:54Z</time>
      </trkpt>
      <trkpt lat="43.57657" lon="1.14145">
        <ele>284.7</ele>
        <time>2020-11-29T10:45:55Z</time>
      </trkpt>
      <trkpt lat="43.57653" lon="1.14149">
        <ele>284.1</ele>
        <time>2020-11-29T10:45:56Z</time>
      </trkpt>
      <trkpt lat="43.57649" lon="1.14156">
        <ele>283.2</ele>
        <time>2020-11-29T10:45:57Z</time>
      </trkpt>
      <trkpt lat="43.57646" lon="1.14166">
        <ele>282.1</ele>
        <time>2020-11-29T10:45:58Z</time>
      </trkpt>
      <trkpt lat="43.57642" lon="1.14174">
        <ele>281.1</ele>
        <time>2020-11-29T10:45:59Z</time>
      </trkpt>
      <trkpt lat="43.57638" lon="1.1418">
        <ele>280.2</ele>
        <time>2020-11-29T10:46:00Z</time>
      </trkpt>
      <trkpt lat="43.57635" lon="1.14186">
        <ele>279.4</ele>
        <time>2020-11-29T10:46:01Z</time>
      </trkpt>
      <trkpt lat="43.57632" lon="1.14192">
        <ele>278.7</ele>
        <time>2020-11-29T10:46:02Z</time>
      </trkpt>
      <trkpt lat="43.57629" lon="1.14199">
        <ele>278</ele>
        <time>2020-11-29T10:46:03Z</time>
      </trkpt>
      <trkpt lat="43.57627" lon="1.14204">
        <ele>277.4</ele>
        <time>2020-11-29T10:46:04Z</time>
      </trkpt>
      <trkpt lat="43.57627" lon="1.14207">
        <ele>277.2</ele>
        <time>2020-11-29T10:46:05Z</time>
      </trkpt>
      <trkpt lat="43.57626" lon="1.14213">
        <ele>276.4</ele>
        <time>2020-11-29T10:46:06Z</time>
      </trkpt>
      <trkpt lat="43.57624" lon="1.14221">
        <ele>275.5</ele>
        <time>2020-11-29T10:46:07Z</time>
      </trkpt>
      <trkpt lat="43.57623" lon="1.14225">
        <ele>275</ele>
        <time>2020-11-29T10:46:08Z</time>
      </trkpt>
      <trkpt lat="43.57623" lon="1.14236">
        <ele>273.9</ele>
        <time>2020-11-29T10:46:09Z</time>
      </trkpt>
      <trkpt lat="43.57623" lon="1.14244">
        <ele>273</ele>
        <time>2020-11-29T10:46:10Z</time>
      </trkpt>
      <trkpt lat="43.57623" lon="1.14251">
        <ele>272.4</ele>
        <time>2020-11-29T10:46:11Z</time>
      </trkpt>
      <trkpt lat="43.57623" lon="1.14259">
        <ele>271.7</ele>
        <time>2020-11-29T10:46:12Z</time>
      </trkpt>
      <trkpt lat="43.57623" lon="1.14263">
        <ele>271.6</ele>
        <time>2020-11-29T10:46:13Z</time>
      </trkpt>
      <trkpt lat="43.57624" lon="1.14269">
        <ele>271.4</ele>
        <time>2020-11-29T10:46:14Z</time>
      </trkpt>
      <trkpt lat="43.57625" lon="1.14276">
        <ele>271.1</ele>
        <time>2020-11-29T10:46:15Z</time>
      </trkpt>
      <trkpt lat="43.57626" lon="1.14281">
        <ele>270.9</ele>
        <time>2020-11-29T10:46:16Z</time>
      </trkpt>
      <trkpt lat="43.57626" lon="1.14288">
        <ele>270.8</ele>
        <time>2020-11-29T10:46:17Z</time>
      </trkpt>
      <trkpt lat="43.57628" lon="1.14297">
        <ele>270.4</ele>
        <time>2020-11-29T10:46:18Z</time>
      </trkpt>
      <trkpt lat="43.57631" lon="1.14303">
        <ele>270.4</ele>
        <time>2020-11-29T10:46:19Z</time>
      </trkpt>
      <trkpt lat="43.57633" lon="1.14311">
        <ele>270.2</ele>
        <time>2020-11-29T10:46:20Z</time>
      </trkpt>
      <trkpt lat="43.57634" lon="1.14317">
        <ele>270</ele>
        <time>2020-11-29T10:46:21Z</time>
      </trkpt>
      <trkpt lat="43.57633" lon="1.14322">
        <ele>269.8</ele>
        <time>2020-11-29T10:46:22Z</time>
      </trkpt>
      <trkpt lat="43.57633" lon="1.14328">
        <ele>269.5</ele>
        <time>2020-11-29T10:46:23Z</time>
      </trkpt>
      <trkpt lat="43.57634" lon="1.14334">
        <ele>269.3</ele>
        <time>2020-11-29T10:46:24Z</time>
      </trkpt>
      <trkpt lat="43.57635" lon="1.1434">
        <ele>268.9</ele>
        <time>2020-11-29T10:46:25Z</time>
      </trkpt>
      <trkpt lat="43.57636" lon="1.14347">
        <ele>268.7</ele>
        <time>2020-11-29T10:46:26Z</time>
      </trkpt>
      <trkpt lat="43.57638" lon="1.14356">
        <ele>268</ele>
        <time>2020-11-29T10:46:27Z</time>
      </trkpt>
      <trkpt lat="43.57639" lon="1.14363">
        <ele>267.2</ele>
        <time>2020-11-29T10:46:28Z</time>
      </trkpt>
      <trkpt lat="43.5764" lon="1.1437">
        <ele>266.3</ele>
        <time>2020-11-29T10:46:29Z</time>
      </trkpt>
      <trkpt lat="43.5764" lon="1.14378">
        <ele>265.8</ele>
        <time>2020-11-29T10:46:30Z</time>
      </trkpt>
      <trkpt lat="43.57642" lon="1.14384">
        <ele>264.8</ele>
        <time>2020-11-29T10:46:31Z</time>
      </trkpt>
      <trkpt lat="43.57644" lon="1.14393">
        <ele>263.8</ele>
        <time>2020-11-29T10:46:32Z</time>
      </trkpt>
      <trkpt lat="43.57646" lon="1.144">
        <ele>262.8</ele>
        <time>2020-11-29T10:46:33Z</time>
      </trkpt>
      <trkpt lat="43.57647" lon="1.14409">
        <ele>261.7</ele>
        <time>2020-11-29T10:46:34Z</time>
      </trkpt>
      <trkpt lat="43.5765" lon="1.14416">
        <ele>261.2</ele>
        <time>2020-11-29T10:46:35Z</time>
      </trkpt>
      <trkpt lat="43.57651" lon="1.14421">
        <ele>260.3</ele>
        <time>2020-11-29T10:46:36Z</time>
      </trkpt>
      <trkpt lat="43.57654" lon="1.14426">
        <ele>259.9</ele>
        <time>2020-11-29T10:46:37Z</time>
      </trkpt>
      <trkpt lat="43.57655" lon="1.14431">
        <ele>259.6</ele>
        <time>2020-11-29T10:46:38Z</time>
      </trkpt>
      <trkpt lat="43.57655" lon="1.14435">
        <ele>259.3</ele>
        <time>2020-11-29T10:46:39Z</time>
      </trkpt>
      <trkpt lat="43.57654" lon="1.14439">
        <ele>259</ele>
        <time>2020-11-29T10:46:40Z</time>
      </trkpt>
      <trkpt lat="43.57652" lon="1.14443">
        <ele>258.7</ele>
        <time>2020-11-29T10:46:41Z</time>
      </trkpt>
      <trkpt lat="43.57652" lon="1.14447">
        <ele>258.4</ele>
        <time>2020-11-29T10:46:42Z</time>
      </trkpt>
      <trkpt lat="43.57652" lon="1.14453">
        <ele>258.2</ele>
        <time>2020-11-29T10:46:43Z</time>
      </trkpt>
      <trkpt lat="43.57653" lon="1.14456">
        <ele>258</ele>
        <time>2020-11-29T10:46:44Z</time>
      </trkpt>
      <trkpt lat="43.57653" lon="1.14461">
        <ele>257.8</ele>
        <time>2020-11-29T10:46:45Z</time>
      </trkpt>
      <trkpt lat="43.57651" lon="1.14465">
        <ele>257.6</ele>
        <time>2020-11-29T10:46:46Z</time>
      </trkpt>
      <trkpt lat="43.5765" lon="1.14467">
        <ele>257.6</ele>
        <time>2020-11-29T10:46:47Z</time>
      </trkpt>
      <trkpt lat="43.57649" lon="1.1447">
        <ele>257.5</ele>
        <time>2020-11-29T10:46:48Z</time>
      </trkpt>
      <trkpt lat="43.57648" lon="1.14471">
        <ele>257.5</ele>
        <time>2020-11-29T10:46:49Z</time>
      </trkpt>
      <trkpt lat="43.57645" lon="1.14471">
        <ele>257.5</ele>
        <time>2020-11-29T10:46:50Z</time>
      </trkpt>
      <trkpt lat="43.57642" lon="1.14472">
        <ele>257.4</ele>
        <time>2020-11-29T10:46:51Z</time>
      </trkpt>
      <trkpt lat="43.57637" lon="1.14471">
        <ele>257.4</ele>
        <time>2020-11-29T10:46:52Z</time>
      </trkpt>
      <trkpt lat="43.57633" lon="1.1447">
        <ele>257.4</ele>
        <time>2020-11-29T10:46:53Z</time>
      </trkpt>
      <trkpt lat="43.57629" lon="1.14473">
        <ele>257.2</ele>
        <time>2020-11-29T10:46:54Z</time>
      </trkpt>
      <trkpt lat="43.57628" lon="1.14474">
        <ele>257.2</ele>
        <time>2020-11-29T10:46:55Z</time>
      </trkpt>
      <trkpt lat="43.57623" lon="1.14475">
        <ele>257.2</ele>
        <time>2020-11-29T10:46:56Z</time>
      </trkpt>
      <trkpt lat="43.57619" lon="1.14477">
        <ele>257</ele>
        <time>2020-11-29T10:46:57Z</time>
      </trkpt>
      <trkpt lat="43.57615" lon="1.14478">
        <ele>256.9</ele>
        <time>2020-11-29T10:46:58Z</time>
      </trkpt>
      <trkpt lat="43.57614" lon="1.14478">
        <ele>256.9</ele>
        <time>2020-11-29T10:46:59Z</time>
      </trkpt>
      <trkpt lat="43.57612" lon="1.14481">
        <ele>256.9</ele>
        <time>2020-11-29T10:47:00Z</time>
      </trkpt>
      <trkpt lat="43.57611" lon="1.14481">
        <ele>256.7</ele>
        <time>2020-11-29T10:47:01Z</time>
      </trkpt>
      <trkpt lat="43.57607" lon="1.14485">
        <ele>256.7</ele>
        <time>2020-11-29T10:47:02Z</time>
      </trkpt>
      <trkpt lat="43.57601" lon="1.14487">
        <ele>256.5</ele>
        <time>2020-11-29T10:47:03Z</time>
      </trkpt>
      <trkpt lat="43.57596" lon="1.14491">
        <ele>256.3</ele>
        <time>2020-11-29T10:47:04Z</time>
      </trkpt>
      <trkpt lat="43.57592" lon="1.14493">
        <ele>256.3</ele>
        <time>2020-11-29T10:47:05Z</time>
      </trkpt>
      <trkpt lat="43.57588" lon="1.14498">
        <ele>256.1</ele>
        <time>2020-11-29T10:47:06Z</time>
      </trkpt>
      <trkpt lat="43.57586" lon="1.14501">
        <ele>255.9</ele>
        <time>2020-11-29T10:47:07Z</time>
      </trkpt>
      <trkpt lat="43.57584" lon="1.14506">
        <ele>255.6</ele>
        <time>2020-11-29T10:47:08Z</time>
      </trkpt>
      <trkpt lat="43.57582" lon="1.14509">
        <ele>255.3</ele>
        <time>2020-11-29T10:47:09Z</time>
      </trkpt>
      <trkpt lat="43.57578" lon="1.14511">
        <ele>255.3</ele>
        <time>2020-11-29T10:47:10Z</time>
      </trkpt>
      <trkpt lat="43.57573" lon="1.14512">
        <ele>255</ele>
        <time>2020-11-29T10:47:11Z</time>
      </trkpt>
      <trkpt lat="43.57568" lon="1.14515">
        <ele>254.8</ele>
        <time>2020-11-29T10:47:12Z</time>
      </trkpt>
      <trkpt lat="43.57563" lon="1.14518">
        <ele>254.4</ele>
        <time>2020-11-29T10:47:13Z</time>
      </trkpt>
      <trkpt lat="43.57559" lon="1.14522">
        <ele>254.1</ele>
        <time>2020-11-29T10:47:14Z</time>
      </trkpt>
      <trkpt lat="43.57557" lon="1.14523">
        <ele>254</ele>
        <time>2020-11-29T10:47:15Z</time>
      </trkpt>
      <trkpt lat="43.57554" lon="1.14525">
        <ele>253.8</ele>
        <time>2020-11-29T10:47:16Z</time>
      </trkpt>
      <trkpt lat="43.57552" lon="1.14527">
        <ele>253.6</ele>
        <time>2020-11-29T10:47:17Z</time>
      </trkpt>
      <trkpt lat="43.5755" lon="1.1453">
        <ele>253.3</ele>
        <time>2020-11-29T10:47:18Z</time>
      </trkpt>
      <trkpt lat="43.57546" lon="1.14532">
        <ele>253.1</ele>
        <time>2020-11-29T10:47:19Z</time>
      </trkpt>
      <trkpt lat="43.57542" lon="1.14533">
        <ele>252.8</ele>
        <time>2020-11-29T10:47:20Z</time>
      </trkpt>
      <trkpt lat="43.5754" lon="1.14534">
        <ele>252.7</ele>
        <time>2020-11-29T10:47:21Z</time>
      </trkpt>
      <trkpt lat="43.57536" lon="1.14535">
        <ele>252.6</ele>
        <time>2020-11-29T10:47:22Z</time>
      </trkpt>
      <trkpt lat="43.57532" lon="1.14536">
        <ele>252.3</ele>
        <time>2020-11-29T10:47:23Z</time>
      </trkpt>
      <trkpt lat="43.57527" lon="1.14536">
        <ele>252.1</ele>
        <time>2020-11-29T10:47:24Z</time>
      </trkpt>
      <trkpt lat="43.57524" lon="1.14537">
        <ele>251.7</ele>
        <time>2020-11-29T10:47:25Z</time>
      </trkpt>
      <trkpt lat="43.5752" lon="1.14537">
        <ele>251.7</ele>
        <time>2020-11-29T10:47:26Z</time>
      </trkpt>
      <trkpt lat="43.57518" lon="1.14536">
        <ele>251.6</ele>
        <time>2020-11-29T10:47:27Z</time>
      </trkpt>
      <trkpt lat="43.57516" lon="1.14537">
        <ele>251.4</ele>
        <time>2020-11-29T10:47:28Z</time>
      </trkpt>
      <trkpt lat="43.57514" lon="1.14537">
        <ele>251.4</ele>
        <time>2020-11-29T10:47:29Z</time>
      </trkpt>
      <trkpt lat="43.5751" lon="1.14537">
        <ele>251</ele>
        <time>2020-11-29T10:47:30Z</time>
      </trkpt>
      <trkpt lat="43.57508" lon="1.14537">
        <ele>250.9</ele>
        <time>2020-11-29T10:47:31Z</time>
      </trkpt>
      <trkpt lat="43.57505" lon="1.14537">
        <ele>250.7</ele>
        <time>2020-11-29T10:47:32Z</time>
      </trkpt>
      <trkpt lat="43.57503" lon="1.14538">
        <ele>250.5</ele>
        <time>2020-11-29T10:47:33Z</time>
      </trkpt>
      <trkpt lat="43.575" lon="1.1454">
        <ele>250.3</ele>
        <time>2020-11-29T10:47:34Z</time>
      </trkpt>
      <trkpt lat="43.57499" lon="1.14541">
        <ele>250.3</ele>
        <time>2020-11-29T10:47:35Z</time>
      </trkpt>
      <trkpt lat="43.57495" lon="1.14543">
        <ele>250.1</ele>
        <time>2020-11-29T10:47:36Z</time>
      </trkpt>
      <trkpt lat="43.57492" lon="1.14544">
        <ele>249.7</ele>
        <time>2020-11-29T10:47:37Z</time>
      </trkpt>
      <trkpt lat="43.5749" lon="1.14546">
        <ele>249.7</ele>
        <time>2020-11-29T10:47:38Z</time>
      </trkpt>
      <trkpt lat="43.57488" lon="1.14549">
        <ele>249.6</ele>
        <time>2020-11-29T10:47:39Z</time>
      </trkpt>
      <trkpt lat="43.57487" lon="1.1455">
        <ele>249.5</ele>
        <time>2020-11-29T10:47:40Z</time>
      </trkpt>
      <trkpt lat="43.57486" lon="1.14551">
        <ele>249.5</ele>
        <time>2020-11-29T10:47:41Z</time>
      </trkpt>
      <trkpt lat="43.57485" lon="1.14552">
        <ele>249.4</ele>
        <time>2020-11-29T10:47:42Z</time>
      </trkpt>
      <trkpt lat="43.57484" lon="1.14552">
        <ele>249.4</ele>
        <time>2020-11-29T10:47:43Z</time>
      </trkpt>
      <trkpt lat="43.57484" lon="1.14553">
        <ele>249.4</ele>
        <time>2020-11-29T10:47:44Z</time>
      </trkpt>
      <trkpt lat="43.57482" lon="1.14554">
        <ele>249.4</ele>
        <time>2020-11-29T10:47:45Z</time>
      </trkpt>
      <trkpt lat="43.57481" lon="1.14554">
        <ele>249.3</ele>
        <time>2020-11-29T10:47:46Z</time>
      </trkpt>
      <trkpt lat="43.57481" lon="1.14555">
        <ele>249.3</ele>
        <time>2020-11-29T10:47:47Z</time>
      </trkpt>
      <trkpt lat="43.57481" lon="1.14554">
        <ele>249.3</ele>
        <time>2020-11-29T10:47:48Z</time>
      </trkpt>
      <trkpt lat="43.57481" lon="1.14553">
        <ele>249.3</ele>
        <time>2020-11-29T10:47:49Z</time>
      </trkpt>
      <trkpt lat="43.57481" lon="1.14554">
        <ele>249.3</ele>
        <time>2020-11-29T10:47:50Z</time>
      </trkpt>
      <trkpt lat="43.5748" lon="1.14553">
        <ele>249.3</ele>
        <time>2020-11-29T10:47:51Z</time>
      </trkpt>
      <trkpt lat="43.5748" lon="1.14553">
        <ele>249.3</ele>
        <time>2020-11-29T10:47:52Z</time>
      </trkpt>
      <trkpt lat="43.57481" lon="1.14553">
        <ele>249.3</ele>
        <time>2020-11-29T10:47:53Z</time>
      </trkpt>
      <trkpt lat="43.57481" lon="1.14553">
        <ele>249.3</ele>
        <time>2020-11-29T10:47:54Z</time>
      </trkpt>
      <trkpt lat="43.57482" lon="1.14553">
        <ele>249.3</ele>
        <time>2020-11-29T10:47:55Z</time>
      </trkpt>
      <trkpt lat="43.57482" lon="1.14553">
        <ele>249.3</ele>
        <time>2020-11-29T10:47:56Z</time>
      </trkpt>
      <trkpt lat="43.57481" lon="1.14553">
        <ele>249.3</ele>
        <time>2020-11-29T10:47:57Z</time>
      </trkpt>
      <trkpt lat="43.57481" lon="1.14553">
        <ele>249.3</ele>
        <time>2020-11-29T10:47:58Z</time>
      </trkpt>
      <trkpt lat="43.57481" lon="1.14553">
        <ele>249.3</ele>
        <time>2020-11-29T10:47:59Z</time>
      </trkpt>
      <trkpt lat="43.5748" lon="1.14553">
        <ele>249.3</ele>
        <time>2020-11-29T10:48:00Z</time>
      </trkpt>
      <trkpt lat="43.5748" lon="1.14554">
        <ele>249.3</ele>
        <time>2020-11-29T10:48:01Z</time>
      </trkpt>
      <trkpt lat="43.57479" lon="1.14555">
        <ele>249.3</ele>
        <time>2020-11-29T10:48:02Z</time>
      </trkpt>
      <trkpt lat="43.57479" lon="1.14555">
        <ele>249.3</ele>
        <time>2020-11-29T10:48:03Z</time>
      </trkpt>
      <trkpt lat="43.57479" lon="1.14555">
        <ele>249.3</ele>
        <time>2020-11-29T10:48:04Z</time>
      </trkpt>
      <trkpt lat="43.57479" lon="1.14555">
        <ele>249.3</ele>
        <time>2020-11-29T10:48:05Z</time>
      </trkpt>
      <trkpt lat="43.57479" lon="1.14555">
        <ele>249.3</ele>
        <time>2020-11-29T10:48:06Z</time>
      </trkpt>
      <trkpt lat="43.57479" lon="1.14555">
        <ele>249.3</ele>
        <time>2020-11-29T10:48:07Z</time>
      </trkpt>
      <trkpt lat="43.57479" lon="1.14555">
        <ele>249.3</ele>
        <time>2020-11-29T10:48:08Z</time>
      </trkpt>
      <trkpt lat="43.57479" lon="1.14555">
        <ele>249.3</ele>
        <time>2020-11-29T10:48:09Z</time>
      </trkpt>
      <trkpt lat="43.57479" lon="1.14555">
        <ele>249.3</ele>
        <time>2020-11-29T10:48:10Z</time>
      </trkpt>
      <trkpt lat="43.57479" lon="1.14555">
        <ele>249.3</ele>
        <time>2020-11-29T10:48:11Z</time>
      </trkpt>
      <trkpt lat="43.57479" lon="1.14555">
        <ele>249.3</ele>
        <time>2020-11-29T10:48:12Z</time>
      </trkpt>
      <trkpt lat="43.57479" lon="1.14556">
        <ele>249.3</ele>
        <time>2020-11-29T10:48:13Z</time>
      </trkpt>
      <trkpt lat="43.57479" lon="1.14556">
        <ele>249.3</ele>
        <time>2020-11-29T10:48:14Z</time>
      </trkpt>
      <trkpt lat="43.57479" lon="1.14556">
        <ele>249.3</ele>
        <time>2020-11-29T10:48:15Z</time>
      </trkpt>
      <trkpt lat="43.57479" lon="1.14556">
        <ele>249.3</ele>
        <time>2020-11-29T10:48:16Z</time>
      </trkpt>
      <trkpt lat="43.57479" lon="1.14556">
        <ele>249.3</ele>
        <time>2020-11-29T10:48:17Z</time>
      </trkpt>
      <trkpt lat="43.57479" lon="1.14556">
        <ele>249.3</ele>
        <time>2020-11-29T10:48:18Z</time>
      </trkpt>
      <trkpt lat="43.57478" lon="1.14556">
        <ele>249.3</ele>
        <time>2020-11-29T10:48:19Z</time>
      </trkpt>
      <trkpt lat="43.57478" lon="1.14556">
        <ele>249.3</ele>
        <time>2020-11-29T10:48:20Z</time>
      </trkpt>
      <trkpt lat="43.57478" lon="1.14556">
        <ele>249.3</ele>
        <time>2020-11-29T10:48:21Z</time>
      </trkpt>
      <trkpt lat="43.57478" lon="1.14557">
        <ele>249.3</ele>
        <time>2020-11-29T10:48:22Z</time>
      </trkpt>
      <trkpt lat="43.57478" lon="1.14557">
        <ele>249.3</ele>
        <time>2020-11-29T10:48:23Z</time>
      </trkpt>
      <trkpt lat="43.57478" lon="1.14557">
        <ele>249.3</ele>
        <time>2020-11-29T10:48:24Z</time>
      </trkpt>
      <trkpt lat="43.57477" lon="1.14558">
        <ele>249.3</ele>
        <time>2020-11-29T10:48:25Z</time>
      </trkpt>
      <trkpt lat="43.57477" lon="1.14558">
        <ele>249.3</ele>
        <time>2020-11-29T10:48:26Z</time>
      </trkpt>
      <trkpt lat="43.57477" lon="1.14558">
        <ele>249.3</ele>
        <time>2020-11-29T10:48:27Z</time>
      </trkpt>
      <trkpt lat="43.57477" lon="1.14558">
        <ele>249.3</ele>
        <time>2020-11-29T10:48:28Z</time>
      </trkpt>
      <trkpt lat="43.57476" lon="1.14559">
        <ele>249.3</ele>
        <time>2020-11-29T10:48:29Z</time>
      </trkpt>
      <trkpt lat="43.57476" lon="1.1456">
        <ele>249.3</ele>
        <time>2020-11-29T10:48:30Z</time>
      </trkpt>
      <trkpt lat="43.57476" lon="1.1456">
        <ele>249.3</ele>
        <time>2020-11-29T10:48:31Z</time>
      </trkpt>
      <trkpt lat="43.57476" lon="1.1456">
        <ele>249.3</ele>
        <time>2020-11-29T10:48:32Z</time>
      </trkpt>
      <trkpt lat="43.57476" lon="1.1456">
        <ele>249.3</ele>
        <time>2020-11-29T10:48:33Z</time>
      </trkpt>
      <trkpt lat="43.57476" lon="1.1456">
        <ele>249.3</ele>
        <time>2020-11-29T10:48:34Z</time>
      </trkpt>
      <trkpt lat="43.57476" lon="1.1456">
        <ele>249.3</ele>
        <time>2020-11-29T10:48:35Z</time>
      </trkpt>
      <trkpt lat="43.57476" lon="1.1456">
        <ele>249.3</ele>
        <time>2020-11-29T10:48:36Z</time>
      </trkpt>
      <trkpt lat="43.57476" lon="1.1456">
        <ele>249.3</ele>
        <time>2020-11-29T10:48:37Z</time>
      </trkpt>
      <trkpt lat="43.57476" lon="1.1456">
        <ele>249.3</ele>
        <time>2020-11-29T10:48:38Z</time>
      </trkpt>
      <trkpt lat="43.57476" lon="1.1456">
        <ele>249.3</ele>
        <time>2020-11-29T10:48:39Z</time>
      </trkpt>
      <trkpt lat="43.57476" lon="1.1456">
        <ele>249.3</ele>
        <time>2020-11-29T10:48:40Z</time>
      </trkpt>
      <trkpt lat="43.57476" lon="1.14561">
        <ele>249.3</ele>
        <time>2020-11-29T10:48:41Z</time>
      </trkpt>
      <trkpt lat="43.57476" lon="1.14562">
        <ele>249.4</ele>
        <time>2020-11-29T10:48:42Z</time>
      </trkpt>
      <trkpt lat="43.57476" lon="1.14562">
        <ele>249.4</ele>
        <time>2020-11-29T10:48:43Z</time>
      </trkpt>
      <trkpt lat="43.57476" lon="1.14564">
        <ele>249.4</ele>
        <time>2020-11-29T10:48:44Z</time>
      </trkpt>
      <trkpt lat="43.57476" lon="1.14565">
        <ele>249.4</ele>
        <time>2020-11-29T10:48:45Z</time>
      </trkpt>
      <trkpt lat="43.57475" lon="1.14567">
        <ele>249.4</ele>
        <time>2020-11-29T10:48:46Z</time>
      </trkpt>
      <trkpt lat="43.57474" lon="1.14568">
        <ele>249.5</ele>
        <time>2020-11-29T10:48:47Z</time>
      </trkpt>
      <trkpt lat="43.57472" lon="1.14571">
        <ele>249.5</ele>
        <time>2020-11-29T10:48:48Z</time>
      </trkpt>
      <trkpt lat="43.5747" lon="1.14576">
        <ele>249.7</ele>
        <time>2020-11-29T10:48:49Z</time>
      </trkpt>
      <trkpt lat="43.5747" lon="1.14577">
        <ele>249.7</ele>
        <time>2020-11-29T10:48:50Z</time>
      </trkpt>
      <trkpt lat="43.57468" lon="1.14582">
        <ele>249.9</ele>
        <time>2020-11-29T10:48:51Z</time>
      </trkpt>
      <trkpt lat="43.57468" lon="1.14584">
        <ele>249.9</ele>
        <time>2020-11-29T10:48:52Z</time>
      </trkpt>
      <trkpt lat="43.57465" lon="1.14588">
        <ele>250.1</ele>
        <time>2020-11-29T10:48:53Z</time>
      </trkpt>
      <trkpt lat="43.57464" lon="1.14591">
        <ele>250.2</ele>
        <time>2020-11-29T10:48:54Z</time>
      </trkpt>
      <trkpt lat="43.57462" lon="1.14595">
        <ele>250.4</ele>
        <time>2020-11-29T10:48:55Z</time>
      </trkpt>
      <trkpt lat="43.57462" lon="1.14596">
        <ele>250.4</ele>
        <time>2020-11-29T10:48:56Z</time>
      </trkpt>
      <trkpt lat="43.57461" lon="1.14597">
        <ele>250.5</ele>
        <time>2020-11-29T10:48:57Z</time>
      </trkpt>
      <trkpt lat="43.57461" lon="1.14599">
        <ele>250.5</ele>
        <time>2020-11-29T10:48:58Z</time>
      </trkpt>
      <trkpt lat="43.57459" lon="1.14602">
        <ele>250.7</ele>
        <time>2020-11-29T10:48:59Z</time>
      </trkpt>
      <trkpt lat="43.57458" lon="1.14603">
        <ele>250.8</ele>
        <time>2020-11-29T10:49:00Z</time>
      </trkpt>
      <trkpt lat="43.57457" lon="1.14608">
        <ele>250.9</ele>
        <time>2020-11-29T10:49:01Z</time>
      </trkpt>
      <trkpt lat="43.57457" lon="1.1461">
        <ele>251</ele>
        <time>2020-11-29T10:49:02Z</time>
      </trkpt>
      <trkpt lat="43.57457" lon="1.14615">
        <ele>251.5</ele>
        <time>2020-11-29T10:49:03Z</time>
      </trkpt>
      <trkpt lat="43.57458" lon="1.14619">
        <ele>251.7</ele>
        <time>2020-11-29T10:49:04Z</time>
      </trkpt>
      <trkpt lat="43.57458" lon="1.14621">
        <ele>251.7</ele>
        <time>2020-11-29T10:49:05Z</time>
      </trkpt>
      <trkpt lat="43.57459" lon="1.14625">
        <ele>251.9</ele>
        <time>2020-11-29T10:49:06Z</time>
      </trkpt>
      <trkpt lat="43.5746" lon="1.14626">
        <ele>252</ele>
        <time>2020-11-29T10:49:07Z</time>
      </trkpt>
      <trkpt lat="43.57462" lon="1.1463">
        <ele>252.2</ele>
        <time>2020-11-29T10:49:08Z</time>
      </trkpt>
      <trkpt lat="43.57463" lon="1.14631">
        <ele>252.3</ele>
        <time>2020-11-29T10:49:09Z</time>
      </trkpt>
      <trkpt lat="43.57464" lon="1.14634">
        <ele>252.4</ele>
        <time>2020-11-29T10:49:10Z</time>
      </trkpt>
      <trkpt lat="43.57464" lon="1.14635">
        <ele>252.5</ele>
        <time>2020-11-29T10:49:11Z</time>
      </trkpt>
      <trkpt lat="43.57466" lon="1.14638">
        <ele>252.6</ele>
        <time>2020-11-29T10:49:12Z</time>
      </trkpt>
      <trkpt lat="43.57466" lon="1.14639">
        <ele>252.7</ele>
        <time>2020-11-29T10:49:13Z</time>
      </trkpt>
      <trkpt lat="43.57468" lon="1.14643">
        <ele>252.9</ele>
        <time>2020-11-29T10:49:14Z</time>
      </trkpt>
      <trkpt lat="43.57469" lon="1.14645">
        <ele>253</ele>
        <time>2020-11-29T10:49:15Z</time>
      </trkpt>
      <trkpt lat="43.57471" lon="1.1465">
        <ele>253.3</ele>
        <time>2020-11-29T10:49:16Z</time>
      </trkpt>
      <trkpt lat="43.57474" lon="1.14652">
        <ele>253.5</ele>
        <time>2020-11-29T10:49:17Z</time>
      </trkpt>
      <trkpt lat="43.57475" lon="1.14653">
        <ele>253.6</ele>
        <time>2020-11-29T10:49:18Z</time>
      </trkpt>
      <trkpt lat="43.57477" lon="1.14656">
        <ele>253.9</ele>
        <time>2020-11-29T10:49:19Z</time>
      </trkpt>
      <trkpt lat="43.57479" lon="1.14658">
        <ele>254.1</ele>
        <time>2020-11-29T10:49:20Z</time>
      </trkpt>
      <trkpt lat="43.57481" lon="1.1466">
        <ele>254.4</ele>
        <time>2020-11-29T10:49:21Z</time>
      </trkpt>
      <trkpt lat="43.57484" lon="1.14663">
        <ele>254.6</ele>
        <time>2020-11-29T10:49:22Z</time>
      </trkpt>
      <trkpt lat="43.57487" lon="1.14666">
        <ele>255</ele>
        <time>2020-11-29T10:49:23Z</time>
      </trkpt>
      <trkpt lat="43.57488" lon="1.14667">
        <ele>255.2</ele>
        <time>2020-11-29T10:49:24Z</time>
      </trkpt>
      <trkpt lat="43.5749" lon="1.1467">
        <ele>255.5</ele>
        <time>2020-11-29T10:49:25Z</time>
      </trkpt>
      <trkpt lat="43.57493" lon="1.14672">
        <ele>255.8</ele>
        <time>2020-11-29T10:49:26Z</time>
      </trkpt>
      <trkpt lat="43.57496" lon="1.14675">
        <ele>256.1</ele>
        <time>2020-11-29T10:49:27Z</time>
      </trkpt>
      <trkpt lat="43.57496" lon="1.14676">
        <ele>256.2</ele>
        <time>2020-11-29T10:49:28Z</time>
      </trkpt>
      <trkpt lat="43.57499" lon="1.14679">
        <ele>256.6</ele>
        <time>2020-11-29T10:49:29Z</time>
      </trkpt>
      <trkpt lat="43.575" lon="1.1468">
        <ele>256.7</ele>
        <time>2020-11-29T10:49:30Z</time>
      </trkpt>
      <trkpt lat="43.57502" lon="1.14683">
        <ele>257</ele>
        <time>2020-11-29T10:49:31Z</time>
      </trkpt>
      <trkpt lat="43.57503" lon="1.14683">
        <ele>257.1</ele>
        <time>2020-11-29T10:49:32Z</time>
      </trkpt>
      <trkpt lat="43.57504" lon="1.14685">
        <ele>257.2</ele>
        <time>2020-11-29T10:49:33Z</time>
      </trkpt>
      <trkpt lat="43.57506" lon="1.14687">
        <ele>257.5</ele>
        <time>2020-11-29T10:49:34Z</time>
      </trkpt>
      <trkpt lat="43.57507" lon="1.14688">
        <ele>257.6</ele>
        <time>2020-11-29T10:49:35Z</time>
      </trkpt>
      <trkpt lat="43.57508" lon="1.14689">
        <ele>257.8</ele>
        <time>2020-11-29T10:49:36Z</time>
      </trkpt>
      <trkpt lat="43.57511" lon="1.14692">
        <ele>258.1</ele>
        <time>2020-11-29T10:49:37Z</time>
      </trkpt>
      <trkpt lat="43.57512" lon="1.14693">
        <ele>258.2</ele>
        <time>2020-11-29T10:49:38Z</time>
      </trkpt>
      <trkpt lat="43.57514" lon="1.14696">
        <ele>258.4</ele>
        <time>2020-11-29T10:49:39Z</time>
      </trkpt>
      <trkpt lat="43.57515" lon="1.14697">
        <ele>258.5</ele>
        <time>2020-11-29T10:49:40Z</time>
      </trkpt>
      <trkpt lat="43.57518" lon="1.147">
        <ele>258.8</ele>
        <time>2020-11-29T10:49:41Z</time>
      </trkpt>
      <trkpt lat="43.57518" lon="1.14701">
        <ele>258.9</ele>
        <time>2020-11-29T10:49:42Z</time>
      </trkpt>
      <trkpt lat="43.57521" lon="1.14704">
        <ele>259.1</ele>
        <time>2020-11-29T10:49:43Z</time>
      </trkpt>
      <trkpt lat="43.57522" lon="1.14705">
        <ele>259.2</ele>
        <time>2020-11-29T10:49:44Z</time>
      </trkpt>
      <trkpt lat="43.57524" lon="1.14707">
        <ele>259.4</ele>
        <time>2020-11-29T10:49:45Z</time>
      </trkpt>
      <trkpt lat="43.57525" lon="1.14708">
        <ele>259.5</ele>
        <time>2020-11-29T10:49:46Z</time>
      </trkpt>
      <trkpt lat="43.57528" lon="1.14711">
        <ele>259.8</ele>
        <time>2020-11-29T10:49:47Z</time>
      </trkpt>
      <trkpt lat="43.57529" lon="1.14711">
        <ele>259.8</ele>
        <time>2020-11-29T10:49:48Z</time>
      </trkpt>
      <trkpt lat="43.5753" lon="1.14713">
        <ele>259.9</ele>
        <time>2020-11-29T10:49:49Z</time>
      </trkpt>
      <trkpt lat="43.57531" lon="1.14714">
        <ele>260.1</ele>
        <time>2020-11-29T10:49:50Z</time>
      </trkpt>
      <trkpt lat="43.57533" lon="1.14717">
        <ele>260.3</ele>
        <time>2020-11-29T10:49:51Z</time>
      </trkpt>
      <trkpt lat="43.57535" lon="1.1472">
        <ele>260.6</ele>
        <time>2020-11-29T10:49:52Z</time>
      </trkpt>
      <trkpt lat="43.57536" lon="1.14721">
        <ele>260.7</ele>
        <time>2020-11-29T10:49:53Z</time>
      </trkpt>
      <trkpt lat="43.57538" lon="1.14722">
        <ele>260.8</ele>
        <time>2020-11-29T10:49:54Z</time>
      </trkpt>
      <trkpt lat="43.57539" lon="1.14723">
        <ele>261</ele>
        <time>2020-11-29T10:49:55Z</time>
      </trkpt>
      <trkpt lat="43.57541" lon="1.14726">
        <ele>261.3</ele>
        <time>2020-11-29T10:49:56Z</time>
      </trkpt>
      <trkpt lat="43.57543" lon="1.14729">
        <ele>261.6</ele>
        <time>2020-11-29T10:49:57Z</time>
      </trkpt>
      <trkpt lat="43.57544" lon="1.1473">
        <ele>261.7</ele>
        <time>2020-11-29T10:49:58Z</time>
      </trkpt>
      <trkpt lat="43.57547" lon="1.14732">
        <ele>262</ele>
        <time>2020-11-29T10:49:59Z</time>
      </trkpt>
      <trkpt lat="43.57548" lon="1.14733">
        <ele>262.2</ele>
        <time>2020-11-29T10:50:00Z</time>
      </trkpt>
      <trkpt lat="43.5755" lon="1.14736">
        <ele>262.5</ele>
        <time>2020-11-29T10:50:01Z</time>
      </trkpt>
      <trkpt lat="43.57553" lon="1.14738">
        <ele>262.8</ele>
        <time>2020-11-29T10:50:02Z</time>
      </trkpt>
      <trkpt lat="43.57556" lon="1.1474">
        <ele>263.1</ele>
        <time>2020-11-29T10:50:03Z</time>
      </trkpt>
      <trkpt lat="43.5756" lon="1.14743">
        <ele>263.6</ele>
        <time>2020-11-29T10:50:04Z</time>
      </trkpt>
      <trkpt lat="43.57562" lon="1.14745">
        <ele>263.8</ele>
        <time>2020-11-29T10:50:05Z</time>
      </trkpt>
      <trkpt lat="43.57565" lon="1.14747">
        <ele>264.2</ele>
        <time>2020-11-29T10:50:06Z</time>
      </trkpt>
      <trkpt lat="43.57568" lon="1.14749">
        <ele>264.5</ele>
        <time>2020-11-29T10:50:07Z</time>
      </trkpt>
      <trkpt lat="43.5757" lon="1.14752">
        <ele>264.8</ele>
        <time>2020-11-29T10:50:08Z</time>
      </trkpt>
      <trkpt lat="43.57571" lon="1.14753">
        <ele>264.9</ele>
        <time>2020-11-29T10:50:09Z</time>
      </trkpt>
      <trkpt lat="43.57573" lon="1.14755">
        <ele>265.2</ele>
        <time>2020-11-29T10:50:10Z</time>
      </trkpt>
      <trkpt lat="43.57575" lon="1.14756">
        <ele>265.3</ele>
        <time>2020-11-29T10:50:11Z</time>
      </trkpt>
      <trkpt lat="43.57576" lon="1.14758">
        <ele>265.5</ele>
        <time>2020-11-29T10:50:12Z</time>
      </trkpt>
      <trkpt lat="43.57577" lon="1.14759">
        <ele>265.7</ele>
        <time>2020-11-29T10:50:13Z</time>
      </trkpt>
      <trkpt lat="43.57578" lon="1.14763">
        <ele>266</ele>
        <time>2020-11-29T10:50:14Z</time>
      </trkpt>
      <trkpt lat="43.57581" lon="1.1477">
        <ele>266.6</ele>
        <time>2020-11-29T10:50:15Z</time>
      </trkpt>
      <trkpt lat="43.57583" lon="1.1477">
        <ele>266.8</ele>
        <time>2020-11-29T10:50:16Z</time>
      </trkpt>
      <trkpt lat="43.57584" lon="1.14772">
        <ele>267</ele>
        <time>2020-11-29T10:50:17Z</time>
      </trkpt>
      <trkpt lat="43.57587" lon="1.14773">
        <ele>267.3</ele>
        <time>2020-11-29T10:50:18Z</time>
      </trkpt>
      <trkpt lat="43.57587" lon="1.14774">
        <ele>267.4</ele>
        <time>2020-11-29T10:50:19Z</time>
      </trkpt>
      <trkpt lat="43.5759" lon="1.14776">
        <ele>267.7</ele>
        <time>2020-11-29T10:50:20Z</time>
      </trkpt>
      <trkpt lat="43.57591" lon="1.14776">
        <ele>267.8</ele>
        <time>2020-11-29T10:50:21Z</time>
      </trkpt>
      <trkpt lat="43.57594" lon="1.14778">
        <ele>268.1</ele>
        <time>2020-11-29T10:50:22Z</time>
      </trkpt>
      <trkpt lat="43.57595" lon="1.14779">
        <ele>268.2</ele>
        <time>2020-11-29T10:50:23Z</time>
      </trkpt>
      <trkpt lat="43.57597" lon="1.14782">
        <ele>268.6</ele>
        <time>2020-11-29T10:50:24Z</time>
      </trkpt>
      <trkpt lat="43.57598" lon="1.14783">
        <ele>268.7</ele>
        <time>2020-11-29T10:50:25Z</time>
      </trkpt>
      <trkpt lat="43.57601" lon="1.14787">
        <ele>269.1</ele>
        <time>2020-11-29T10:50:26Z</time>
      </trkpt>
      <trkpt lat="43.57602" lon="1.14788">
        <ele>269.3</ele>
        <time>2020-11-29T10:50:27Z</time>
      </trkpt>
      <trkpt lat="43.57605" lon="1.1479">
        <ele>269.6</ele>
        <time>2020-11-29T10:50:28Z</time>
      </trkpt>
      <trkpt lat="43.57609" lon="1.14802">
        <ele>270.5</ele>
        <time>2020-11-29T10:50:29Z</time>
      </trkpt>
      <trkpt lat="43.57611" lon="1.14807">
        <ele>270.9</ele>
        <time>2020-11-29T10:50:30Z</time>
      </trkpt>
      <trkpt lat="43.57613" lon="1.14809">
        <ele>271</ele>
        <time>2020-11-29T10:50:31Z</time>
      </trkpt>
      <trkpt lat="43.57614" lon="1.14812">
        <ele>271.3</ele>
        <time>2020-11-29T10:50:32Z</time>
      </trkpt>
      <trkpt lat="43.57617" lon="1.14815">
        <ele>271.6</ele>
        <time>2020-11-29T10:50:33Z</time>
      </trkpt>
      <trkpt lat="43.57618" lon="1.14817">
        <ele>271.8</ele>
        <time>2020-11-29T10:50:34Z</time>
      </trkpt>
      <trkpt lat="43.57619" lon="1.1482">
        <ele>272</ele>
        <time>2020-11-29T10:50:35Z</time>
      </trkpt>
      <trkpt lat="43.57621" lon="1.14825">
        <ele>272.3</ele>
        <time>2020-11-29T10:50:36Z</time>
      </trkpt>
      <trkpt lat="43.57623" lon="1.14829">
        <ele>272.7</ele>
        <time>2020-11-29T10:50:37Z</time>
      </trkpt>
      <trkpt lat="43.57624" lon="1.14833">
        <ele>272.9</ele>
        <time>2020-11-29T10:50:38Z</time>
      </trkpt>
      <trkpt lat="43.57625" lon="1.14838">
        <ele>273.2</ele>
        <time>2020-11-29T10:50:39Z</time>
      </trkpt>
      <trkpt lat="43.57625" lon="1.1484">
        <ele>273.4</ele>
        <time>2020-11-29T10:50:40Z</time>
      </trkpt>
      <trkpt lat="43.57625" lon="1.14843">
        <ele>273.6</ele>
        <time>2020-11-29T10:50:41Z</time>
      </trkpt>
      <trkpt lat="43.57625" lon="1.14848">
        <ele>273.9</ele>
        <time>2020-11-29T10:50:42Z</time>
      </trkpt>
      <trkpt lat="43.57625" lon="1.14852">
        <ele>274.1</ele>
        <time>2020-11-29T10:50:43Z</time>
      </trkpt>
      <trkpt lat="43.57624" lon="1.14857">
        <ele>274.5</ele>
        <time>2020-11-29T10:50:44Z</time>
      </trkpt>
      <trkpt lat="43.57623" lon="1.14863">
        <ele>274.8</ele>
        <time>2020-11-29T10:50:45Z</time>
      </trkpt>
      <trkpt lat="43.57622" lon="1.14867">
        <ele>275</ele>
        <time>2020-11-29T10:50:46Z</time>
      </trkpt>
      <trkpt lat="43.5762" lon="1.14872">
        <ele>275.2</ele>
        <time>2020-11-29T10:50:47Z</time>
      </trkpt>
      <trkpt lat="43.57618" lon="1.14877">
        <ele>275.5</ele>
        <time>2020-11-29T10:50:48Z</time>
      </trkpt>
      <trkpt lat="43.57617" lon="1.14881">
        <ele>275.7</ele>
        <time>2020-11-29T10:50:49Z</time>
      </trkpt>
      <trkpt lat="43.57616" lon="1.14885">
        <ele>275.8</ele>
        <time>2020-11-29T10:50:50Z</time>
      </trkpt>
      <trkpt lat="43.57615" lon="1.14889">
        <ele>276.1</ele>
        <time>2020-11-29T10:50:51Z</time>
      </trkpt>
      <trkpt lat="43.57614" lon="1.14894">
        <ele>276.3</ele>
        <time>2020-11-29T10:50:52Z</time>
      </trkpt>
      <trkpt lat="43.57614" lon="1.14898">
        <ele>276.5</ele>
        <time>2020-11-29T10:50:53Z</time>
      </trkpt>
      <trkpt lat="43.57613" lon="1.14903">
        <ele>276.8</ele>
        <time>2020-11-29T10:50:54Z</time>
      </trkpt>
      <trkpt lat="43.57613" lon="1.14909">
        <ele>277.1</ele>
        <time>2020-11-29T10:50:55Z</time>
      </trkpt>
      <trkpt lat="43.57613" lon="1.14913">
        <ele>277.3</ele>
        <time>2020-11-29T10:50:56Z</time>
      </trkpt>
      <trkpt lat="43.57613" lon="1.14919">
        <ele>277.6</ele>
        <time>2020-11-29T10:50:57Z</time>
      </trkpt>
      <trkpt lat="43.57614" lon="1.14925">
        <ele>278</ele>
        <time>2020-11-29T10:50:58Z</time>
      </trkpt>
      <trkpt lat="43.57614" lon="1.1493">
        <ele>278.2</ele>
        <time>2020-11-29T10:50:59Z</time>
      </trkpt>
      <trkpt lat="43.57615" lon="1.14935">
        <ele>278.5</ele>
        <time>2020-11-29T10:51:00Z</time>
      </trkpt>
      <trkpt lat="43.57615" lon="1.14937">
        <ele>278.6</ele>
        <time>2020-11-29T10:51:01Z</time>
      </trkpt>
      <trkpt lat="43.57615" lon="1.14941">
        <ele>278.7</ele>
        <time>2020-11-29T10:51:02Z</time>
      </trkpt>
      <trkpt lat="43.57616" lon="1.14945">
        <ele>278.9</ele>
        <time>2020-11-29T10:51:03Z</time>
      </trkpt>
      <trkpt lat="43.57616" lon="1.14949">
        <ele>279.1</ele>
        <time>2020-11-29T10:51:04Z</time>
      </trkpt>
      <trkpt lat="43.57617" lon="1.14954">
        <ele>279.3</ele>
        <time>2020-11-29T10:51:05Z</time>
      </trkpt>
      <trkpt lat="43.57617" lon="1.14955">
        <ele>279.3</ele>
        <time>2020-11-29T10:51:06Z</time>
      </trkpt>
      <trkpt lat="43.57618" lon="1.14959">
        <ele>279.5</ele>
        <time>2020-11-29T10:51:07Z</time>
      </trkpt>
      <trkpt lat="43.57618" lon="1.14961">
        <ele>279.5</ele>
        <time>2020-11-29T10:51:08Z</time>
      </trkpt>
      <trkpt lat="43.57619" lon="1.14965">
        <ele>279.7</ele>
        <time>2020-11-29T10:51:09Z</time>
      </trkpt>
      <trkpt lat="43.57619" lon="1.14967">
        <ele>279.7</ele>
        <time>2020-11-29T10:51:10Z</time>
      </trkpt>
      <trkpt lat="43.5762" lon="1.14971">
        <ele>279.9</ele>
        <time>2020-11-29T10:51:11Z</time>
      </trkpt>
      <trkpt lat="43.57621" lon="1.14973">
        <ele>280</ele>
        <time>2020-11-29T10:51:12Z</time>
      </trkpt>
      <trkpt lat="43.57621" lon="1.14977">
        <ele>280.2</ele>
        <time>2020-11-29T10:51:13Z</time>
      </trkpt>
      <trkpt lat="43.57622" lon="1.14978">
        <ele>280.3</ele>
        <time>2020-11-29T10:51:14Z</time>
      </trkpt>
      <trkpt lat="43.57623" lon="1.1498">
        <ele>280.4</ele>
        <time>2020-11-29T10:51:15Z</time>
      </trkpt>
      <trkpt lat="43.57625" lon="1.1498">
        <ele>280.6</ele>
        <time>2020-11-29T10:51:16Z</time>
      </trkpt>
      <trkpt lat="43.57627" lon="1.1498">
        <ele>281</ele>
        <time>2020-11-29T10:51:17Z</time>
      </trkpt>
      <trkpt lat="43.57628" lon="1.14979">
        <ele>281.3</ele>
        <time>2020-11-29T10:51:18Z</time>
      </trkpt>
      <trkpt lat="43.57631" lon="1.14979">
        <ele>281.7</ele>
        <time>2020-11-29T10:51:19Z</time>
      </trkpt>
      <trkpt lat="43.57632" lon="1.14978">
        <ele>282.1</ele>
        <time>2020-11-29T10:51:20Z</time>
      </trkpt>
      <trkpt lat="43.57635" lon="1.14976">
        <ele>282.3</ele>
        <time>2020-11-29T10:51:21Z</time>
      </trkpt>
      <trkpt lat="43.57637" lon="1.14974">
        <ele>282.7</ele>
        <time>2020-11-29T10:51:22Z</time>
      </trkpt>
      <trkpt lat="43.57638" lon="1.14973">
        <ele>282.9</ele>
        <time>2020-11-29T10:51:23Z</time>
      </trkpt>
      <trkpt lat="43.57641" lon="1.1497">
        <ele>283.3</ele>
        <time>2020-11-29T10:51:24Z</time>
      </trkpt>
      <trkpt lat="43.57642" lon="1.14969">
        <ele>283.7</ele>
        <time>2020-11-29T10:51:25Z</time>
      </trkpt>
      <trkpt lat="43.57645" lon="1.14967">
        <ele>284.1</ele>
        <time>2020-11-29T10:51:26Z</time>
      </trkpt>
      <trkpt lat="43.57645" lon="1.14966">
        <ele>284.3</ele>
        <time>2020-11-29T10:51:27Z</time>
      </trkpt>
      <trkpt lat="43.57647" lon="1.14966">
        <ele>284.6</ele>
        <time>2020-11-29T10:51:28Z</time>
      </trkpt>
      <trkpt lat="43.57648" lon="1.14964">
        <ele>284.9</ele>
        <time>2020-11-29T10:51:29Z</time>
      </trkpt>
      <trkpt lat="43.57649" lon="1.14963">
        <ele>285.1</ele>
        <time>2020-11-29T10:51:30Z</time>
      </trkpt>
      <trkpt lat="43.5765" lon="1.14962">
        <ele>285.4</ele>
        <time>2020-11-29T10:51:31Z</time>
      </trkpt>
      <trkpt lat="43.57651" lon="1.14961">
        <ele>285.7</ele>
        <time>2020-11-29T10:51:32Z</time>
      </trkpt>
      <trkpt lat="43.57652" lon="1.1496">
        <ele>286</ele>
        <time>2020-11-29T10:51:33Z</time>
      </trkpt>
      <trkpt lat="43.57653" lon="1.14959">
        <ele>286.2</ele>
        <time>2020-11-29T10:51:34Z</time>
      </trkpt>
      <trkpt lat="43.57654" lon="1.14959">
        <ele>286.5</ele>
        <time>2020-11-29T10:51:35Z</time>
      </trkpt>
      <trkpt lat="43.57657" lon="1.14957">
        <ele>286.9</ele>
        <time>2020-11-29T10:51:36Z</time>
      </trkpt>
      <trkpt lat="43.57658" lon="1.14957">
        <ele>287.1</ele>
        <time>2020-11-29T10:51:37Z</time>
      </trkpt>
      <trkpt lat="43.5766" lon="1.14956">
        <ele>287.4</ele>
        <time>2020-11-29T10:51:38Z</time>
      </trkpt>
      <trkpt lat="43.5766" lon="1.14957">
        <ele>287.7</ele>
        <time>2020-11-29T10:51:39Z</time>
      </trkpt>
      <trkpt lat="43.57663" lon="1.14957">
        <ele>288</ele>
        <time>2020-11-29T10:51:40Z</time>
      </trkpt>
      <trkpt lat="43.57664" lon="1.14957">
        <ele>288.3</ele>
        <time>2020-11-29T10:51:41Z</time>
      </trkpt>
      <trkpt lat="43.57665" lon="1.14957">
        <ele>288.5</ele>
        <time>2020-11-29T10:51:42Z</time>
      </trkpt>
      <trkpt lat="43.57667" lon="1.14957">
        <ele>288.9</ele>
        <time>2020-11-29T10:51:43Z</time>
      </trkpt>
      <trkpt lat="43.57669" lon="1.14962">
        <ele>289.1</ele>
        <time>2020-11-29T10:51:44Z</time>
      </trkpt>
      <trkpt lat="43.57669" lon="1.14967">
        <ele>289.3</ele>
        <time>2020-11-29T10:51:45Z</time>
      </trkpt>
      <trkpt lat="43.57669" lon="1.14969">
        <ele>289.6</ele>
        <time>2020-11-29T10:51:46Z</time>
      </trkpt>
      <trkpt lat="43.57671" lon="1.14969">
        <ele>289.8</ele>
        <time>2020-11-29T10:51:47Z</time>
      </trkpt>
      <trkpt lat="43.57673" lon="1.14966">
        <ele>290</ele>
        <time>2020-11-29T10:51:48Z</time>
      </trkpt>
      <trkpt lat="43.57674" lon="1.14966">
        <ele>290.1</ele>
        <time>2020-11-29T10:51:49Z</time>
      </trkpt>
      <trkpt lat="43.57676" lon="1.14963">
        <ele>290.2</ele>
        <time>2020-11-29T10:51:50Z</time>
      </trkpt>
      <trkpt lat="43.57677" lon="1.14962">
        <ele>290.3</ele>
        <time>2020-11-29T10:51:51Z</time>
      </trkpt>
      <trkpt lat="43.5768" lon="1.14958">
        <ele>290.5</ele>
        <time>2020-11-29T10:51:52Z</time>
      </trkpt>
      <trkpt lat="43.57682" lon="1.14957">
        <ele>290.6</ele>
        <time>2020-11-29T10:51:53Z</time>
      </trkpt>
      <trkpt lat="43.57685" lon="1.14955">
        <ele>290.9</ele>
        <time>2020-11-29T10:51:54Z</time>
      </trkpt>
      <trkpt lat="43.57687" lon="1.14951">
        <ele>291</ele>
        <time>2020-11-29T10:51:55Z</time>
      </trkpt>
      <trkpt lat="43.57691" lon="1.14948">
        <ele>291.2</ele>
        <time>2020-11-29T10:51:56Z</time>
      </trkpt>
      <trkpt lat="43.57692" lon="1.14946">
        <ele>291.3</ele>
        <time>2020-11-29T10:51:57Z</time>
      </trkpt>
      <trkpt lat="43.57698" lon="1.14943">
        <ele>291.6</ele>
        <time>2020-11-29T10:51:58Z</time>
      </trkpt>
      <trkpt lat="43.57703" lon="1.14941">
        <ele>291.8</ele>
        <time>2020-11-29T10:51:59Z</time>
      </trkpt>
      <trkpt lat="43.57706" lon="1.14937">
        <ele>292</ele>
        <time>2020-11-29T10:52:00Z</time>
      </trkpt>
      <trkpt lat="43.5771" lon="1.14933">
        <ele>292.3</ele>
        <time>2020-11-29T10:52:01Z</time>
      </trkpt>
      <trkpt lat="43.57713" lon="1.1493">
        <ele>292.4</ele>
        <time>2020-11-29T10:52:02Z</time>
      </trkpt>
      <trkpt lat="43.57717" lon="1.14927">
        <ele>292.6</ele>
        <time>2020-11-29T10:52:03Z</time>
      </trkpt>
      <trkpt lat="43.57719" lon="1.14924">
        <ele>292.8</ele>
        <time>2020-11-29T10:52:04Z</time>
      </trkpt>
      <trkpt lat="43.57722" lon="1.14921">
        <ele>292.9</ele>
        <time>2020-11-29T10:52:05Z</time>
      </trkpt>
      <trkpt lat="43.57725" lon="1.14919">
        <ele>293.1</ele>
        <time>2020-11-29T10:52:06Z</time>
      </trkpt>
      <trkpt lat="43.57729" lon="1.14916">
        <ele>293.3</ele>
        <time>2020-11-29T10:52:07Z</time>
      </trkpt>
      <trkpt lat="43.57732" lon="1.14914">
        <ele>293.4</ele>
        <time>2020-11-29T10:52:08Z</time>
      </trkpt>
      <trkpt lat="43.57736" lon="1.14911">
        <ele>293.6</ele>
        <time>2020-11-29T10:52:09Z</time>
      </trkpt>
      <trkpt lat="43.57739" lon="1.14909">
        <ele>293.7</ele>
        <time>2020-11-29T10:52:10Z</time>
      </trkpt>
      <trkpt lat="43.57743" lon="1.14906">
        <ele>293.8</ele>
        <time>2020-11-29T10:52:11Z</time>
      </trkpt>
      <trkpt lat="43.57746" lon="1.14903">
        <ele>294</ele>
        <time>2020-11-29T10:52:12Z</time>
      </trkpt>
      <trkpt lat="43.57748" lon="1.149">
        <ele>294.1</ele>
        <time>2020-11-29T10:52:13Z</time>
      </trkpt>
      <trkpt lat="43.57751" lon="1.14897">
        <ele>294.2</ele>
        <time>2020-11-29T10:52:14Z</time>
      </trkpt>
      <trkpt lat="43.57755" lon="1.14893">
        <ele>294.3</ele>
        <time>2020-11-29T10:52:15Z</time>
      </trkpt>
      <trkpt lat="43.57759" lon="1.1489">
        <ele>294.3</ele>
        <time>2020-11-29T10:52:16Z</time>
      </trkpt>
      <trkpt lat="43.57763" lon="1.14888">
        <ele>294.4</ele>
        <time>2020-11-29T10:52:17Z</time>
      </trkpt>
      <trkpt lat="43.57767" lon="1.14886">
        <ele>294.4</ele>
        <time>2020-11-29T10:52:18Z</time>
      </trkpt>
      <trkpt lat="43.57772" lon="1.14885">
        <ele>294.5</ele>
        <time>2020-11-29T10:52:19Z</time>
      </trkpt>
      <trkpt lat="43.57776" lon="1.14883">
        <ele>294.5</ele>
        <time>2020-11-29T10:52:20Z</time>
      </trkpt>
      <trkpt lat="43.57784" lon="1.1488">
        <ele>294.6</ele>
        <time>2020-11-29T10:52:21Z</time>
      </trkpt>
      <trkpt lat="43.57789" lon="1.14878">
        <ele>294.7</ele>
        <time>2020-11-29T10:52:22Z</time>
      </trkpt>
      <trkpt lat="43.57793" lon="1.14877">
        <ele>294.7</ele>
        <time>2020-11-29T10:52:23Z</time>
      </trkpt>
      <trkpt lat="43.57798" lon="1.14876">
        <ele>294.8</ele>
        <time>2020-11-29T10:52:24Z</time>
      </trkpt>
      <trkpt lat="43.57802" lon="1.14875">
        <ele>294.9</ele>
        <time>2020-11-29T10:52:25Z</time>
      </trkpt>
      <trkpt lat="43.57804" lon="1.14874">
        <ele>294.9</ele>
        <time>2020-11-29T10:52:26Z</time>
      </trkpt>
      <trkpt lat="43.57807" lon="1.14873">
        <ele>294.9</ele>
        <time>2020-11-29T10:52:27Z</time>
      </trkpt>
      <trkpt lat="43.57811" lon="1.14873">
        <ele>295</ele>
        <time>2020-11-29T10:52:28Z</time>
      </trkpt>
      <trkpt lat="43.57815" lon="1.14872">
        <ele>295.1</ele>
        <time>2020-11-29T10:52:29Z</time>
      </trkpt>
      <trkpt lat="43.57818" lon="1.14871">
        <ele>295.2</ele>
        <time>2020-11-29T10:52:30Z</time>
      </trkpt>
      <trkpt lat="43.57821" lon="1.14871">
        <ele>295.2</ele>
        <time>2020-11-29T10:52:31Z</time>
      </trkpt>
      <trkpt lat="43.57826" lon="1.14871">
        <ele>295.4</ele>
        <time>2020-11-29T10:52:32Z</time>
      </trkpt>
      <trkpt lat="43.57827" lon="1.14871">
        <ele>295.4</ele>
        <time>2020-11-29T10:52:33Z</time>
      </trkpt>
      <trkpt lat="43.57831" lon="1.1487">
        <ele>295.5</ele>
        <time>2020-11-29T10:52:34Z</time>
      </trkpt>
      <trkpt lat="43.57835" lon="1.14869">
        <ele>295.6</ele>
        <time>2020-11-29T10:52:35Z</time>
      </trkpt>
      <trkpt lat="43.57839" lon="1.1487">
        <ele>295.8</ele>
        <time>2020-11-29T10:52:36Z</time>
      </trkpt>
      <trkpt lat="43.57841" lon="1.1487">
        <ele>295.8</ele>
        <time>2020-11-29T10:52:37Z</time>
      </trkpt>
      <trkpt lat="43.57844" lon="1.14869">
        <ele>295.9</ele>
        <time>2020-11-29T10:52:38Z</time>
      </trkpt>
      <trkpt lat="43.57847" lon="1.14868">
        <ele>296</ele>
        <time>2020-11-29T10:52:39Z</time>
      </trkpt>
      <trkpt lat="43.5785" lon="1.14868">
        <ele>296.1</ele>
        <time>2020-11-29T10:52:40Z</time>
      </trkpt>
      <trkpt lat="43.57854" lon="1.14868">
        <ele>296.2</ele>
        <time>2020-11-29T10:52:41Z</time>
      </trkpt>
      <trkpt lat="43.57855" lon="1.14868">
        <ele>296.3</ele>
        <time>2020-11-29T10:52:42Z</time>
      </trkpt>
      <trkpt lat="43.57858" lon="1.14867">
        <ele>296.4</ele>
        <time>2020-11-29T10:52:43Z</time>
      </trkpt>
      <trkpt lat="43.57861" lon="1.14866">
        <ele>296.5</ele>
        <time>2020-11-29T10:52:44Z</time>
      </trkpt>
      <trkpt lat="43.57864" lon="1.14865">
        <ele>296.6</ele>
        <time>2020-11-29T10:52:45Z</time>
      </trkpt>
      <trkpt lat="43.57868" lon="1.14865">
        <ele>296.8</ele>
        <time>2020-11-29T10:52:46Z</time>
      </trkpt>
      <trkpt lat="43.5787" lon="1.14866">
        <ele>296.8</ele>
        <time>2020-11-29T10:52:47Z</time>
      </trkpt>
      <trkpt lat="43.57872" lon="1.14866">
        <ele>296.9</ele>
        <time>2020-11-29T10:52:48Z</time>
      </trkpt>
      <trkpt lat="43.57873" lon="1.14865">
        <ele>297</ele>
        <time>2020-11-29T10:52:49Z</time>
      </trkpt>
      <trkpt lat="43.57876" lon="1.14865">
        <ele>297.2</ele>
        <time>2020-11-29T10:52:50Z</time>
      </trkpt>
      <trkpt lat="43.57877" lon="1.14865">
        <ele>297.2</ele>
        <time>2020-11-29T10:52:51Z</time>
      </trkpt>
      <trkpt lat="43.5788" lon="1.14865">
        <ele>297.4</ele>
        <time>2020-11-29T10:52:52Z</time>
      </trkpt>
      <trkpt lat="43.57881" lon="1.14866">
        <ele>297.5</ele>
        <time>2020-11-29T10:52:53Z</time>
      </trkpt>
      <trkpt lat="43.57885" lon="1.14866">
        <ele>297.7</ele>
        <time>2020-11-29T10:52:54Z</time>
      </trkpt>
      <trkpt lat="43.57887" lon="1.14865">
        <ele>297.8</ele>
        <time>2020-11-29T10:52:55Z</time>
      </trkpt>
      <trkpt lat="43.5789" lon="1.14865">
        <ele>298</ele>
        <time>2020-11-29T10:52:56Z</time>
      </trkpt>
      <trkpt lat="43.57892" lon="1.14865">
        <ele>298.1</ele>
        <time>2020-11-29T10:52:57Z</time>
      </trkpt>
      <trkpt lat="43.57896" lon="1.14865">
        <ele>298.3</ele>
        <time>2020-11-29T10:52:58Z</time>
      </trkpt>
      <trkpt lat="43.57897" lon="1.14865">
        <ele>298.4</ele>
        <time>2020-11-29T10:52:59Z</time>
      </trkpt>
      <trkpt lat="43.57901" lon="1.14865">
        <ele>298.6</ele>
        <time>2020-11-29T10:53:00Z</time>
      </trkpt>
      <trkpt lat="43.57903" lon="1.14865">
        <ele>298.7</ele>
        <time>2020-11-29T10:53:01Z</time>
      </trkpt>
      <trkpt lat="43.57907" lon="1.14866">
        <ele>298.9</ele>
        <time>2020-11-29T10:53:02Z</time>
      </trkpt>
      <trkpt lat="43.5791" lon="1.14867">
        <ele>299.1</ele>
        <time>2020-11-29T10:53:03Z</time>
      </trkpt>
      <trkpt lat="43.57913" lon="1.14867">
        <ele>299.3</ele>
        <time>2020-11-29T10:53:04Z</time>
      </trkpt>
      <trkpt lat="43.57916" lon="1.14868">
        <ele>299.5</ele>
        <time>2020-11-29T10:53:05Z</time>
      </trkpt>
      <trkpt lat="43.57919" lon="1.1487">
        <ele>299.6</ele>
        <time>2020-11-29T10:53:06Z</time>
      </trkpt>
      <trkpt lat="43.57922" lon="1.14873">
        <ele>299.8</ele>
        <time>2020-11-29T10:53:07Z</time>
      </trkpt>
      <trkpt lat="43.57926" lon="1.14877">
        <ele>300</ele>
        <time>2020-11-29T10:53:08Z</time>
      </trkpt>
      <trkpt lat="43.57928" lon="1.14879">
        <ele>300.1</ele>
        <time>2020-11-29T10:53:09Z</time>
      </trkpt>
      <trkpt lat="43.57932" lon="1.14882">
        <ele>300.3</ele>
        <time>2020-11-29T10:53:10Z</time>
      </trkpt>
      <trkpt lat="43.57935" lon="1.14886">
        <ele>300.4</ele>
        <time>2020-11-29T10:53:11Z</time>
      </trkpt>
      <trkpt lat="43.57936" lon="1.1489">
        <ele>300.5</ele>
        <time>2020-11-29T10:53:12Z</time>
      </trkpt>
      <trkpt lat="43.57938" lon="1.14894">
        <ele>300.6</ele>
        <time>2020-11-29T10:53:13Z</time>
      </trkpt>
      <trkpt lat="43.5794" lon="1.14898">
        <ele>300.7</ele>
        <time>2020-11-29T10:53:14Z</time>
      </trkpt>
      <trkpt lat="43.57942" lon="1.14901">
        <ele>300.8</ele>
        <time>2020-11-29T10:53:15Z</time>
      </trkpt>
      <trkpt lat="43.57945" lon="1.14904">
        <ele>300.8</ele>
        <time>2020-11-29T10:53:16Z</time>
      </trkpt>
      <trkpt lat="43.57947" lon="1.14909">
        <ele>300.9</ele>
        <time>2020-11-29T10:53:17Z</time>
      </trkpt>
      <trkpt lat="43.57947" lon="1.14911">
        <ele>300.9</ele>
        <time>2020-11-29T10:53:18Z</time>
      </trkpt>
      <trkpt lat="43.57949" lon="1.14914">
        <ele>301</ele>
        <time>2020-11-29T10:53:19Z</time>
      </trkpt>
      <trkpt lat="43.57951" lon="1.1492">
        <ele>301</ele>
        <time>2020-11-29T10:53:20Z</time>
      </trkpt>
      <trkpt lat="43.57952" lon="1.14922">
        <ele>301</ele>
        <time>2020-11-29T10:53:21Z</time>
      </trkpt>
      <trkpt lat="43.57956" lon="1.14926">
        <ele>301</ele>
        <time>2020-11-29T10:53:22Z</time>
      </trkpt>
      <trkpt lat="43.57959" lon="1.1493">
        <ele>301</ele>
        <time>2020-11-29T10:53:23Z</time>
      </trkpt>
      <trkpt lat="43.57961" lon="1.14936">
        <ele>301</ele>
        <time>2020-11-29T10:53:24Z</time>
      </trkpt>
      <trkpt lat="43.57962" lon="1.14941">
        <ele>301</ele>
        <time>2020-11-29T10:53:25Z</time>
      </trkpt>
      <trkpt lat="43.57965" lon="1.14944">
        <ele>301</ele>
        <time>2020-11-29T10:53:26Z</time>
      </trkpt>
      <trkpt lat="43.57969" lon="1.14949">
        <ele>300.9</ele>
        <time>2020-11-29T10:53:27Z</time>
      </trkpt>
      <trkpt lat="43.57972" lon="1.14952">
        <ele>300.9</ele>
        <time>2020-11-29T10:53:28Z</time>
      </trkpt>
      <trkpt lat="43.57975" lon="1.14956">
        <ele>300.9</ele>
        <time>2020-11-29T10:53:29Z</time>
      </trkpt>
      <trkpt lat="43.57979" lon="1.14959">
        <ele>300.8</ele>
        <time>2020-11-29T10:53:30Z</time>
      </trkpt>
      <trkpt lat="43.57983" lon="1.14961">
        <ele>300.8</ele>
        <time>2020-11-29T10:53:31Z</time>
      </trkpt>
      <trkpt lat="43.57987" lon="1.14963">
        <ele>300.8</ele>
        <time>2020-11-29T10:53:32Z</time>
      </trkpt>
      <trkpt lat="43.57989" lon="1.14963">
        <ele>300.7</ele>
        <time>2020-11-29T10:53:33Z</time>
      </trkpt>
      <trkpt lat="43.57989" lon="1.14962">
        <ele>300.7</ele>
        <time>2020-11-29T10:53:34Z</time>
      </trkpt>
      <trkpt lat="43.5799" lon="1.14963">
        <ele>300.7</ele>
        <time>2020-11-29T10:53:35Z</time>
      </trkpt>
      <trkpt lat="43.5799" lon="1.14962">
        <ele>300.7</ele>
        <time>2020-11-29T10:53:36Z</time>
      </trkpt>
      <trkpt lat="43.5799" lon="1.14963">
        <ele>300.7</ele>
        <time>2020-11-29T10:53:37Z</time>
      </trkpt>
      <trkpt lat="43.5799" lon="1.14964">
        <ele>300.7</ele>
        <time>2020-11-29T10:53:38Z</time>
      </trkpt>
      <trkpt lat="43.57989" lon="1.14965">
        <ele>300.7</ele>
        <time>2020-11-29T10:53:39Z</time>
      </trkpt>
      <trkpt lat="43.57989" lon="1.14967">
        <ele>300.7</ele>
        <time>2020-11-29T10:53:40Z</time>
      </trkpt>
      <trkpt lat="43.5799" lon="1.14967">
        <ele>300.7</ele>
        <time>2020-11-29T10:53:41Z</time>
      </trkpt>
      <trkpt lat="43.57991" lon="1.14968">
        <ele>300.6</ele>
        <time>2020-11-29T10:53:42Z</time>
      </trkpt>
      <trkpt lat="43.57991" lon="1.14967">
        <ele>300.6</ele>
        <time>2020-11-29T10:53:44Z</time>
      </trkpt>
      <trkpt lat="43.57991" lon="1.14968">
        <ele>300.7</ele>
        <time>2020-11-29T10:53:45Z</time>
      </trkpt>
      <trkpt lat="43.57991" lon="1.14968">
        <ele>300.7</ele>
        <time>2020-11-29T10:53:46Z</time>
      </trkpt>
      <trkpt lat="43.57991" lon="1.14968">
        <ele>300.7</ele>
        <time>2020-11-29T10:53:47Z</time>
      </trkpt>
      <trkpt lat="43.57991" lon="1.14966">
        <ele>300.7</ele>
        <time>2020-11-29T10:53:48Z</time>
      </trkpt>
      <trkpt lat="43.57993" lon="1.14966">
        <ele>300.7</ele>
        <time>2020-11-29T10:53:49Z</time>
      </trkpt>
      <trkpt lat="43.57993" lon="1.14966">
        <ele>300.8</ele>
        <time>2020-11-29T10:53:50Z</time>
      </trkpt>
      <trkpt lat="43.57994" lon="1.14966">
        <ele>300.8</ele>
        <time>2020-11-29T10:53:51Z</time>
      </trkpt>
      <trkpt lat="43.57994" lon="1.14965">
        <ele>300.8</ele>
        <time>2020-11-29T10:53:52Z</time>
      </trkpt>
      <trkpt lat="43.57994" lon="1.14964">
        <ele>300.8</ele>
        <time>2020-11-29T10:53:53Z</time>
      </trkpt>
      <trkpt lat="43.57994" lon="1.14963">
        <ele>300.8</ele>
        <time>2020-11-29T10:53:54Z</time>
      </trkpt>
      <trkpt lat="43.57994" lon="1.14962">
        <ele>300.8</ele>
        <time>2020-11-29T10:53:55Z</time>
      </trkpt>
      <trkpt lat="43.57993" lon="1.14962">
        <ele>300.9</ele>
        <time>2020-11-29T10:53:56Z</time>
      </trkpt>
      <trkpt lat="43.57993" lon="1.14962">
        <ele>300.9</ele>
        <time>2020-11-29T10:53:57Z</time>
      </trkpt>
      <trkpt lat="43.57993" lon="1.14961">
        <ele>300.9</ele>
        <time>2020-11-29T10:53:58Z</time>
      </trkpt>
      <trkpt lat="43.57994" lon="1.14961">
        <ele>300.9</ele>
        <time>2020-11-29T10:53:59Z</time>
      </trkpt>
      <trkpt lat="43.57994" lon="1.14961">
        <ele>300.9</ele>
        <time>2020-11-29T10:54:00Z</time>
      </trkpt>
      <trkpt lat="43.57994" lon="1.1496">
        <ele>300.9</ele>
        <time>2020-11-29T10:54:01Z</time>
      </trkpt>
      <trkpt lat="43.57994" lon="1.1496">
        <ele>300.9</ele>
        <time>2020-11-29T10:54:02Z</time>
      </trkpt>
      <trkpt lat="43.57994" lon="1.1496">
        <ele>300.9</ele>
        <time>2020-11-29T10:54:03Z</time>
      </trkpt>
      <trkpt lat="43.57994" lon="1.14959">
        <ele>300.9</ele>
        <time>2020-11-29T10:54:04Z</time>
      </trkpt>
      <trkpt lat="43.57994" lon="1.14959">
        <ele>300.9</ele>
        <time>2020-11-29T10:54:05Z</time>
      </trkpt>
      <trkpt lat="43.57994" lon="1.14959">
        <ele>300.9</ele>
        <time>2020-11-29T10:54:06Z</time>
      </trkpt>
      <trkpt lat="43.57994" lon="1.14958">
        <ele>300.9</ele>
        <time>2020-11-29T10:54:07Z</time>
      </trkpt>
      <trkpt lat="43.57994" lon="1.14958">
        <ele>300.9</ele>
        <time>2020-11-29T10:54:08Z</time>
      </trkpt>
      <trkpt lat="43.57994" lon="1.14958">
        <ele>300.9</ele>
        <time>2020-11-29T10:54:09Z</time>
      </trkpt>
      <trkpt lat="43.57994" lon="1.14957">
        <ele>301</ele>
        <time>2020-11-29T10:54:10Z</time>
      </trkpt>
      <trkpt lat="43.57995" lon="1.14957">
        <ele>301</ele>
        <time>2020-11-29T10:54:11Z</time>
      </trkpt>
      <trkpt lat="43.57995" lon="1.14956">
        <ele>301</ele>
        <time>2020-11-29T10:54:12Z</time>
      </trkpt>
      <trkpt lat="43.57995" lon="1.14956">
        <ele>301</ele>
        <time>2020-11-29T10:54:13Z</time>
      </trkpt>
      <trkpt lat="43.57995" lon="1.14956">
        <ele>301</ele>
        <time>2020-11-29T10:54:14Z</time>
      </trkpt>
      <trkpt lat="43.57995" lon="1.14955">
        <ele>301</ele>
        <time>2020-11-29T10:54:15Z</time>
      </trkpt>
      <trkpt lat="43.57995" lon="1.14955">
        <ele>301</ele>
        <time>2020-11-29T10:54:16Z</time>
      </trkpt>
      <trkpt lat="43.57995" lon="1.14955">
        <ele>301</ele>
        <time>2020-11-29T10:54:17Z</time>
      </trkpt>
      <trkpt lat="43.57995" lon="1.14954">
        <ele>301</ele>
        <time>2020-11-29T10:54:18Z</time>
      </trkpt>
      <trkpt lat="43.57995" lon="1.14954">
        <ele>301</ele>
        <time>2020-11-29T10:54:19Z</time>
      </trkpt>
      <trkpt lat="43.57995" lon="1.14954">
        <ele>301</ele>
        <time>2020-11-29T10:54:20Z</time>
      </trkpt>
      <trkpt lat="43.57995" lon="1.14953">
        <ele>301</ele>
        <time>2020-11-29T10:54:21Z</time>
      </trkpt>
      <trkpt lat="43.57995" lon="1.14953">
        <ele>301</ele>
        <time>2020-11-29T10:54:22Z</time>
      </trkpt>
      <trkpt lat="43.57995" lon="1.14953">
        <ele>301</ele>
        <time>2020-11-29T10:54:23Z</time>
      </trkpt>
      <trkpt lat="43.57997" lon="1.14946">
        <ele>301.2</ele>
        <time>2020-11-29T10:54:24Z</time>
      </trkpt>
      <trkpt lat="43.57998" lon="1.14937">
        <ele>301.4</ele>
        <time>2020-11-29T10:54:25Z</time>
      </trkpt>
      <trkpt lat="43.57999" lon="1.14928">
        <ele>301.6</ele>
        <time>2020-11-29T10:54:26Z</time>
      </trkpt>
      <trkpt lat="43.58" lon="1.1492">
        <ele>301.7</ele>
        <time>2020-11-29T10:54:27Z</time>
      </trkpt>
      <trkpt lat="43.58" lon="1.14914">
        <ele>301.9</ele>
        <time>2020-11-29T10:54:28Z</time>
      </trkpt>
      <trkpt lat="43.58" lon="1.14908">
        <ele>302</ele>
        <time>2020-11-29T10:54:29Z</time>
      </trkpt>
      <trkpt lat="43.58" lon="1.14905">
        <ele>302.1</ele>
        <time>2020-11-29T10:54:30Z</time>
      </trkpt>
      <trkpt lat="43.58001" lon="1.14903">
        <ele>302.1</ele>
        <time>2020-11-29T10:54:31Z</time>
      </trkpt>
      <trkpt lat="43.58" lon="1.14901">
        <ele>302.1</ele>
        <time>2020-11-29T10:54:32Z</time>
      </trkpt>
      <trkpt lat="43.58" lon="1.14901">
        <ele>302.2</ele>
        <time>2020-11-29T10:54:33Z</time>
      </trkpt>
      <trkpt lat="43.58" lon="1.149">
        <ele>302.2</ele>
        <time>2020-11-29T10:54:34Z</time>
      </trkpt>
      <trkpt lat="43.58" lon="1.149">
        <ele>302.2</ele>
        <time>2020-11-29T10:54:35Z</time>
      </trkpt>
      <trkpt lat="43.57999" lon="1.149">
        <ele>302.2</ele>
        <time>2020-11-29T10:54:36Z</time>
      </trkpt>
      <trkpt lat="43.57999" lon="1.149">
        <ele>302.2</ele>
        <time>2020-11-29T10:54:37Z</time>
      </trkpt>
      <trkpt lat="43.57999" lon="1.14899">
        <ele>302.2</ele>
        <time>2020-11-29T10:54:38Z</time>
      </trkpt>
      <trkpt lat="43.57999" lon="1.14898">
        <ele>302.3</ele>
        <time>2020-11-29T10:54:39Z</time>
      </trkpt>
      <trkpt lat="43.57999" lon="1.14897">
        <ele>302.3</ele>
        <time>2020-11-29T10:54:40Z</time>
      </trkpt>
      <trkpt lat="43.57999" lon="1.14897">
        <ele>302.3</ele>
        <time>2020-11-29T10:54:41Z</time>
      </trkpt>
      <trkpt lat="43.57999" lon="1.14897">
        <ele>302.3</ele>
        <time>2020-11-29T10:54:42Z</time>
      </trkpt>
      <trkpt lat="43.57999" lon="1.14897">
        <ele>302.3</ele>
        <time>2020-11-29T10:54:43Z</time>
      </trkpt>
      <trkpt lat="43.57999" lon="1.14897">
        <ele>302.3</ele>
        <time>2020-11-29T10:54:44Z</time>
      </trkpt>
      <trkpt lat="43.57999" lon="1.14897">
        <ele>302.3</ele>
        <time>2020-11-29T10:54:45Z</time>
      </trkpt>
      <trkpt lat="43.57999" lon="1.14897">
        <ele>302.3</ele>
        <time>2020-11-29T10:54:46Z</time>
      </trkpt>
      <trkpt lat="43.57999" lon="1.14897">
        <ele>302.3</ele>
        <time>2020-11-29T10:54:47Z</time>
      </trkpt>
      <trkpt lat="43.57999" lon="1.14897">
        <ele>302.3</ele>
        <time>2020-11-29T10:54:48Z</time>
      </trkpt>
      <trkpt lat="43.57999" lon="1.14896">
        <ele>302.3</ele>
        <time>2020-11-29T10:54:49Z</time>
      </trkpt>
      <trkpt lat="43.57999" lon="1.14896">
        <ele>302.3</ele>
        <time>2020-11-29T10:54:50Z</time>
      </trkpt>
      <trkpt lat="43.57999" lon="1.14895">
        <ele>302.3</ele>
        <time>2020-11-29T10:54:51Z</time>
      </trkpt>
      <trkpt lat="43.57999" lon="1.14895">
        <ele>302.3</ele>
        <time>2020-11-29T10:54:52Z</time>
      </trkpt>
      <trkpt lat="43.57999" lon="1.14895">
        <ele>302.3</ele>
        <time>2020-11-29T10:54:53Z</time>
      </trkpt>
      <trkpt lat="43.57998" lon="1.14895">
        <ele>302.3</ele>
        <time>2020-11-29T10:54:54Z</time>
      </trkpt>
      <trkpt lat="43.57999" lon="1.14895">
        <ele>302.3</ele>
        <time>2020-11-29T10:54:55Z</time>
      </trkpt>
      <trkpt lat="43.57999" lon="1.14895">
        <ele>302.3</ele>
        <time>2020-11-29T10:54:56Z</time>
      </trkpt>
      <trkpt lat="43.57999" lon="1.14895">
        <ele>302.3</ele>
        <time>2020-11-29T10:54:57Z</time>
      </trkpt>
      <trkpt lat="43.57999" lon="1.14894">
        <ele>302.4</ele>
        <time>2020-11-29T10:54:58Z</time>
      </trkpt>
      <trkpt lat="43.57999" lon="1.14893">
        <ele>302.4</ele>
        <time>2020-11-29T10:54:59Z</time>
      </trkpt>
      <trkpt lat="43.57999" lon="1.14892">
        <ele>302.4</ele>
        <time>2020-11-29T10:55:00Z</time>
      </trkpt>
      <trkpt lat="43.57999" lon="1.14891">
        <ele>302.4</ele>
        <time>2020-11-29T10:55:01Z</time>
      </trkpt>
      <trkpt lat="43.57999" lon="1.14891">
        <ele>302.4</ele>
        <time>2020-11-29T10:55:02Z</time>
      </trkpt>
      <trkpt lat="43.57999" lon="1.14891">
        <ele>302.4</ele>
        <time>2020-11-29T10:55:03Z</time>
      </trkpt>
      <trkpt lat="43.57999" lon="1.14891">
        <ele>302.4</ele>
        <time>2020-11-29T10:55:04Z</time>
      </trkpt>
      <trkpt lat="43.57999" lon="1.14891">
        <ele>302.4</ele>
        <time>2020-11-29T10:55:05Z</time>
      </trkpt>
      <trkpt lat="43.57999" lon="1.14891">
        <ele>302.4</ele>
        <time>2020-11-29T10:55:06Z</time>
      </trkpt>
      <trkpt lat="43.57999" lon="1.14891">
        <ele>302.4</ele>
        <time>2020-11-29T10:55:07Z</time>
      </trkpt>
      <trkpt lat="43.57999" lon="1.1489">
        <ele>302.4</ele>
        <time>2020-11-29T10:55:08Z</time>
      </trkpt>
      <trkpt lat="43.58" lon="1.1489">
        <ele>302.5</ele>
        <time>2020-11-29T10:55:09Z</time>
      </trkpt>
      <trkpt lat="43.58" lon="1.1489">
        <ele>302.5</ele>
        <time>2020-11-29T10:55:10Z</time>
      </trkpt>
      <trkpt lat="43.58" lon="1.1489">
        <ele>302.5</ele>
        <time>2020-11-29T10:55:11Z</time>
      </trkpt>
      <trkpt lat="43.58" lon="1.1489">
        <ele>302.5</ele>
        <time>2020-11-29T10:55:12Z</time>
      </trkpt>
      <trkpt lat="43.58" lon="1.1489">
        <ele>302.5</ele>
        <time>2020-11-29T10:55:13Z</time>
      </trkpt>
      <trkpt lat="43.58" lon="1.14889">
        <ele>302.5</ele>
        <time>2020-11-29T10:55:14Z</time>
      </trkpt>
      <trkpt lat="43.58" lon="1.14889">
        <ele>302.5</ele>
        <time>2020-11-29T10:55:15Z</time>
      </trkpt>
      <trkpt lat="43.58" lon="1.14889">
        <ele>302.5</ele>
        <time>2020-11-29T10:55:16Z</time>
      </trkpt>
      <trkpt lat="43.58" lon="1.14889">
        <ele>302.5</ele>
        <time>2020-11-29T10:55:17Z</time>
      </trkpt>
      <trkpt lat="43.58" lon="1.14889">
        <ele>302.5</ele>
        <time>2020-11-29T10:55:18Z</time>
      </trkpt>
      <trkpt lat="43.58" lon="1.14889">
        <ele>302.5</ele>
        <time>2020-11-29T10:55:19Z</time>
      </trkpt>
      <trkpt lat="43.58" lon="1.14888">
        <ele>302.5</ele>
        <time>2020-11-29T10:55:20Z</time>
      </trkpt>
      <trkpt lat="43.58" lon="1.14888">
        <ele>302.5</ele>
        <time>2020-11-29T10:55:21Z</time>
      </trkpt>
      <trkpt lat="43.58" lon="1.14888">
        <ele>302.5</ele>
        <time>2020-11-29T10:55:22Z</time>
      </trkpt>
      <trkpt lat="43.58" lon="1.14888">
        <ele>302.5</ele>
        <time>2020-11-29T10:55:23Z</time>
      </trkpt>
      <trkpt lat="43.58" lon="1.14888">
        <ele>302.5</ele>
        <time>2020-11-29T10:55:24Z</time>
      </trkpt>
      <trkpt lat="43.58" lon="1.14888">
        <ele>302.5</ele>
        <time>2020-11-29T10:55:25Z</time>
      </trkpt>
      <trkpt lat="43.58" lon="1.14888">
        <ele>302.5</ele>
        <time>2020-11-29T10:55:26Z</time>
      </trkpt>
      <trkpt lat="43.58" lon="1.14887">
        <ele>302.5</ele>
        <time>2020-11-29T10:55:27Z</time>
      </trkpt>
      <trkpt lat="43.58" lon="1.14887">
        <ele>302.5</ele>
        <time>2020-11-29T10:55:28Z</time>
      </trkpt>
      <trkpt lat="43.58001" lon="1.14887">
        <ele>302.5</ele>
        <time>2020-11-29T10:55:29Z</time>
      </trkpt>
      <trkpt lat="43.58001" lon="1.14887">
        <ele>302.5</ele>
        <time>2020-11-29T10:55:30Z</time>
      </trkpt>
      <trkpt lat="43.58001" lon="1.14887">
        <ele>302.5</ele>
        <time>2020-11-29T10:55:31Z</time>
      </trkpt>
      <trkpt lat="43.58001" lon="1.14887">
        <ele>302.5</ele>
        <time>2020-11-29T10:55:32Z</time>
      </trkpt>
      <trkpt lat="43.58001" lon="1.14886">
        <ele>302.5</ele>
        <time>2020-11-29T10:55:33Z</time>
      </trkpt>
      <trkpt lat="43.58001" lon="1.14886">
        <ele>302.5</ele>
        <time>2020-11-29T10:55:34Z</time>
      </trkpt>
      <trkpt lat="43.58001" lon="1.14886">
        <ele>302.5</ele>
        <time>2020-11-29T10:55:35Z</time>
      </trkpt>
      <trkpt lat="43.58001" lon="1.14886">
        <ele>302.5</ele>
        <time>2020-11-29T10:55:36Z</time>
      </trkpt>
      <trkpt lat="43.58001" lon="1.14886">
        <ele>302.5</ele>
        <time>2020-11-29T10:55:37Z</time>
      </trkpt>
      <trkpt lat="43.58001" lon="1.14886">
        <ele>302.5</ele>
        <time>2020-11-29T10:55:38Z</time>
      </trkpt>
      <trkpt lat="43.58001" lon="1.14886">
        <ele>302.5</ele>
        <time>2020-11-29T10:55:39Z</time>
      </trkpt>
      <trkpt lat="43.58001" lon="1.14885">
        <ele>302.6</ele>
        <time>2020-11-29T10:55:40Z</time>
      </trkpt>
      <trkpt lat="43.58003" lon="1.1488">
        <ele>302.6</ele>
        <time>2020-11-29T10:55:41Z</time>
      </trkpt>
      <trkpt lat="43.58004" lon="1.14876">
        <ele>302.7</ele>
        <time>2020-11-29T10:55:42Z</time>
      </trkpt>
      <trkpt lat="43.58005" lon="1.14872">
        <ele>302.8</ele>
        <time>2020-11-29T10:55:43Z</time>
      </trkpt>
      <trkpt lat="43.58006" lon="1.14868">
        <ele>302.8</ele>
        <time>2020-11-29T10:55:44Z</time>
      </trkpt>
      <trkpt lat="43.58007" lon="1.14862">
        <ele>302.9</ele>
        <time>2020-11-29T10:55:45Z</time>
      </trkpt>
      <trkpt lat="43.58008" lon="1.14857">
        <ele>302.9</ele>
        <time>2020-11-29T10:55:46Z</time>
      </trkpt>
      <trkpt lat="43.58009" lon="1.1485">
        <ele>303</ele>
        <time>2020-11-29T10:55:47Z</time>
      </trkpt>
      <trkpt lat="43.5801" lon="1.14843">
        <ele>303</ele>
        <time>2020-11-29T10:55:48Z</time>
      </trkpt>
      <trkpt lat="43.58011" lon="1.14837">
        <ele>303.1</ele>
        <time>2020-11-29T10:55:49Z</time>
      </trkpt>
      <trkpt lat="43.58012" lon="1.14831">
        <ele>303.1</ele>
        <time>2020-11-29T10:55:50Z</time>
      </trkpt>
      <trkpt lat="43.58014" lon="1.14825">
        <ele>303.1</ele>
        <time>2020-11-29T10:55:51Z</time>
      </trkpt>
      <trkpt lat="43.58015" lon="1.14819">
        <ele>303.2</ele>
        <time>2020-11-29T10:55:52Z</time>
      </trkpt>
      <trkpt lat="43.58018" lon="1.14813">
        <ele>303.2</ele>
        <time>2020-11-29T10:55:53Z</time>
      </trkpt>
      <trkpt lat="43.58019" lon="1.14806">
        <ele>303.2</ele>
        <time>2020-11-29T10:55:54Z</time>
      </trkpt>
      <trkpt lat="43.5802" lon="1.14801">
        <ele>303.2</ele>
        <time>2020-11-29T10:55:55Z</time>
      </trkpt>
      <trkpt lat="43.58021" lon="1.14796">
        <ele>303.2</ele>
        <time>2020-11-29T10:55:56Z</time>
      </trkpt>
      <trkpt lat="43.58022" lon="1.14791">
        <ele>303.3</ele>
        <time>2020-11-29T10:55:57Z</time>
      </trkpt>
      <trkpt lat="43.58024" lon="1.14787">
        <ele>303.3</ele>
        <time>2020-11-29T10:55:58Z</time>
      </trkpt>
      <trkpt lat="43.58026" lon="1.14783">
        <ele>303.3</ele>
        <time>2020-11-29T10:55:59Z</time>
      </trkpt>
      <trkpt lat="43.58027" lon="1.14777">
        <ele>303.3</ele>
        <time>2020-11-29T10:56:00Z</time>
      </trkpt>
      <trkpt lat="43.58029" lon="1.14772">
        <ele>303.4</ele>
        <time>2020-11-29T10:56:01Z</time>
      </trkpt>
      <trkpt lat="43.5803" lon="1.14768">
        <ele>303.4</ele>
        <time>2020-11-29T10:56:02Z</time>
      </trkpt>
      <trkpt lat="43.58032" lon="1.14763">
        <ele>303.4</ele>
        <time>2020-11-29T10:56:03Z</time>
      </trkpt>
      <trkpt lat="43.58033" lon="1.14758">
        <ele>303.4</ele>
        <time>2020-11-29T10:56:04Z</time>
      </trkpt>
      <trkpt lat="43.58035" lon="1.14754">
        <ele>303.5</ele>
        <time>2020-11-29T10:56:05Z</time>
      </trkpt>
      <trkpt lat="43.58037" lon="1.1475">
        <ele>303.5</ele>
        <time>2020-11-29T10:56:06Z</time>
      </trkpt>
      <trkpt lat="43.58038" lon="1.14747">
        <ele>303.5</ele>
        <time>2020-11-29T10:56:07Z</time>
      </trkpt>
      <trkpt lat="43.5804" lon="1.14741">
        <ele>303.5</ele>
        <time>2020-11-29T10:56:08Z</time>
      </trkpt>
      <trkpt lat="43.58041" lon="1.14737">
        <ele>303.5</ele>
        <time>2020-11-29T10:56:09Z</time>
      </trkpt>
      <trkpt lat="43.58042" lon="1.14731">
        <ele>303.5</ele>
        <time>2020-11-29T10:56:10Z</time>
      </trkpt>
      <trkpt lat="43.58044" lon="1.14725">
        <ele>303.5</ele>
        <time>2020-11-29T10:56:11Z</time>
      </trkpt>
      <trkpt lat="43.58045" lon="1.1472">
        <ele>303.5</ele>
        <time>2020-11-29T10:56:12Z</time>
      </trkpt>
      <trkpt lat="43.58047" lon="1.14714">
        <ele>303.5</ele>
        <time>2020-11-29T10:56:13Z</time>
      </trkpt>
      <trkpt lat="43.58049" lon="1.14709">
        <ele>303.5</ele>
        <time>2020-11-29T10:56:14Z</time>
      </trkpt>
      <trkpt lat="43.58052" lon="1.14704">
        <ele>303.5</ele>
        <time>2020-11-29T10:56:15Z</time>
      </trkpt>
      <trkpt lat="43.58053" lon="1.14699">
        <ele>303.5</ele>
        <time>2020-11-29T10:56:16Z</time>
      </trkpt>
      <trkpt lat="43.58055" lon="1.14693">
        <ele>303.5</ele>
        <time>2020-11-29T10:56:17Z</time>
      </trkpt>
      <trkpt lat="43.58056" lon="1.14687">
        <ele>303.5</ele>
        <time>2020-11-29T10:56:18Z</time>
      </trkpt>
      <trkpt lat="43.58058" lon="1.14682">
        <ele>303.5</ele>
        <time>2020-11-29T10:56:19Z</time>
      </trkpt>
      <trkpt lat="43.58059" lon="1.14677">
        <ele>303.5</ele>
        <time>2020-11-29T10:56:20Z</time>
      </trkpt>
      <trkpt lat="43.58061" lon="1.14671">
        <ele>303.5</ele>
        <time>2020-11-29T10:56:21Z</time>
      </trkpt>
      <trkpt lat="43.58062" lon="1.14666">
        <ele>303.5</ele>
        <time>2020-11-29T10:56:22Z</time>
      </trkpt>
      <trkpt lat="43.58064" lon="1.14662">
        <ele>303.5</ele>
        <time>2020-11-29T10:56:23Z</time>
      </trkpt>
      <trkpt lat="43.58065" lon="1.14657">
        <ele>303.6</ele>
        <time>2020-11-29T10:56:24Z</time>
      </trkpt>
      <trkpt lat="43.58067" lon="1.14652">
        <ele>303.6</ele>
        <time>2020-11-29T10:56:25Z</time>
      </trkpt>
      <trkpt lat="43.58068" lon="1.14646">
        <ele>303.6</ele>
        <time>2020-11-29T10:56:26Z</time>
      </trkpt>
      <trkpt lat="43.5807" lon="1.14641">
        <ele>303.6</ele>
        <time>2020-11-29T10:56:27Z</time>
      </trkpt>
      <trkpt lat="43.58071" lon="1.14634">
        <ele>303.6</ele>
        <time>2020-11-29T10:56:28Z</time>
      </trkpt>
      <trkpt lat="43.58072" lon="1.14629">
        <ele>303.6</ele>
        <time>2020-11-29T10:56:29Z</time>
      </trkpt>
      <trkpt lat="43.58074" lon="1.14623">
        <ele>303.6</ele>
        <time>2020-11-29T10:56:30Z</time>
      </trkpt>
      <trkpt lat="43.58075" lon="1.14618">
        <ele>303.6</ele>
        <time>2020-11-29T10:56:31Z</time>
      </trkpt>
      <trkpt lat="43.58076" lon="1.14612">
        <ele>303.7</ele>
        <time>2020-11-29T10:56:32Z</time>
      </trkpt>
      <trkpt lat="43.58077" lon="1.14607">
        <ele>303.7</ele>
        <time>2020-11-29T10:56:33Z</time>
      </trkpt>
      <trkpt lat="43.5808" lon="1.14601">
        <ele>303.7</ele>
        <time>2020-11-29T10:56:34Z</time>
      </trkpt>
      <trkpt lat="43.58081" lon="1.14596">
        <ele>303.7</ele>
        <time>2020-11-29T10:56:35Z</time>
      </trkpt>
      <trkpt lat="43.58082" lon="1.14591">
        <ele>303.7</ele>
        <time>2020-11-29T10:56:36Z</time>
      </trkpt>
      <trkpt lat="43.58083" lon="1.14584">
        <ele>303.8</ele>
        <time>2020-11-29T10:56:37Z</time>
      </trkpt>
      <trkpt lat="43.58085" lon="1.14577">
        <ele>303.8</ele>
        <time>2020-11-29T10:56:38Z</time>
      </trkpt>
      <trkpt lat="43.58086" lon="1.1457">
        <ele>303.8</ele>
        <time>2020-11-29T10:56:39Z</time>
      </trkpt>
      <trkpt lat="43.58087" lon="1.14565">
        <ele>303.8</ele>
        <time>2020-11-29T10:56:40Z</time>
      </trkpt>
      <trkpt lat="43.58088" lon="1.14559">
        <ele>303.8</ele>
        <time>2020-11-29T10:56:41Z</time>
      </trkpt>
      <trkpt lat="43.58088" lon="1.14554">
        <ele>303.8</ele>
        <time>2020-11-29T10:56:42Z</time>
      </trkpt>
      <trkpt lat="43.58088" lon="1.14549">
        <ele>303.8</ele>
        <time>2020-11-29T10:56:43Z</time>
      </trkpt>
      <trkpt lat="43.58087" lon="1.14543">
        <ele>303.8</ele>
        <time>2020-11-29T10:56:44Z</time>
      </trkpt>
      <trkpt lat="43.58089" lon="1.14535">
        <ele>303.8</ele>
        <time>2020-11-29T10:56:45Z</time>
      </trkpt>
      <trkpt lat="43.5809" lon="1.14528">
        <ele>303.8</ele>
        <time>2020-11-29T10:56:46Z</time>
      </trkpt>
      <trkpt lat="43.5809" lon="1.14522">
        <ele>303.9</ele>
        <time>2020-11-29T10:56:47Z</time>
      </trkpt>
      <trkpt lat="43.58092" lon="1.14514">
        <ele>303.9</ele>
        <time>2020-11-29T10:56:48Z</time>
      </trkpt>
      <trkpt lat="43.58091" lon="1.14507">
        <ele>303.9</ele>
        <time>2020-11-29T10:56:49Z</time>
      </trkpt>
      <trkpt lat="43.58092" lon="1.14501">
        <ele>303.9</ele>
        <time>2020-11-29T10:56:50Z</time>
      </trkpt>
      <trkpt lat="43.58093" lon="1.14494">
        <ele>303.9</ele>
        <time>2020-11-29T10:56:51Z</time>
      </trkpt>
      <trkpt lat="43.58094" lon="1.14488">
        <ele>303.9</ele>
        <time>2020-11-29T10:56:52Z</time>
      </trkpt>
      <trkpt lat="43.58094" lon="1.14481">
        <ele>303.9</ele>
        <time>2020-11-29T10:56:53Z</time>
      </trkpt>
      <trkpt lat="43.58095" lon="1.14475">
        <ele>303.9</ele>
        <time>2020-11-29T10:56:54Z</time>
      </trkpt>
      <trkpt lat="43.58094" lon="1.14469">
        <ele>303.9</ele>
        <time>2020-11-29T10:56:55Z</time>
      </trkpt>
      <trkpt lat="43.58092" lon="1.14464">
        <ele>303.9</ele>
        <time>2020-11-29T10:56:56Z</time>
      </trkpt>
      <trkpt lat="43.58092" lon="1.14458">
        <ele>303.9</ele>
        <time>2020-11-29T10:56:57Z</time>
      </trkpt>
      <trkpt lat="43.58093" lon="1.14451">
        <ele>303.9</ele>
        <time>2020-11-29T10:56:58Z</time>
      </trkpt>
      <trkpt lat="43.58094" lon="1.14446">
        <ele>303.9</ele>
        <time>2020-11-29T10:56:59Z</time>
      </trkpt>
      <trkpt lat="43.58094" lon="1.14441">
        <ele>303.9</ele>
        <time>2020-11-29T10:57:00Z</time>
      </trkpt>
      <trkpt lat="43.58096" lon="1.14435">
        <ele>303.9</ele>
        <time>2020-11-29T10:57:01Z</time>
      </trkpt>
      <trkpt lat="43.58097" lon="1.14428">
        <ele>303.9</ele>
        <time>2020-11-29T10:57:02Z</time>
      </trkpt>
      <trkpt lat="43.58098" lon="1.14423">
        <ele>303.9</ele>
        <time>2020-11-29T10:57:03Z</time>
      </trkpt>
      <trkpt lat="43.58099" lon="1.14417">
        <ele>303.9</ele>
        <time>2020-11-29T10:57:04Z</time>
      </trkpt>
      <trkpt lat="43.58101" lon="1.14412">
        <ele>303.9</ele>
        <time>2020-11-29T10:57:05Z</time>
      </trkpt>
      <trkpt lat="43.58101" lon="1.14406">
        <ele>303.9</ele>
        <time>2020-11-29T10:57:06Z</time>
      </trkpt>
      <trkpt lat="43.58102" lon="1.144">
        <ele>303.9</ele>
        <time>2020-11-29T10:57:07Z</time>
      </trkpt>
      <trkpt lat="43.58103" lon="1.14395">
        <ele>303.8</ele>
        <time>2020-11-29T10:57:08Z</time>
      </trkpt>
      <trkpt lat="43.58104" lon="1.14388">
        <ele>303.8</ele>
        <time>2020-11-29T10:57:09Z</time>
      </trkpt>
      <trkpt lat="43.58106" lon="1.14381">
        <ele>303.8</ele>
        <time>2020-11-29T10:57:10Z</time>
      </trkpt>
      <trkpt lat="43.58107" lon="1.14375">
        <ele>303.8</ele>
        <time>2020-11-29T10:57:11Z</time>
      </trkpt>
      <trkpt lat="43.58107" lon="1.14367">
        <ele>303.8</ele>
        <time>2020-11-29T10:57:12Z</time>
      </trkpt>
      <trkpt lat="43.58107" lon="1.1436">
        <ele>303.8</ele>
        <time>2020-11-29T10:57:13Z</time>
      </trkpt>
      <trkpt lat="43.58107" lon="1.14353">
        <ele>303.8</ele>
        <time>2020-11-29T10:57:14Z</time>
      </trkpt>
      <trkpt lat="43.58108" lon="1.14345">
        <ele>303.8</ele>
        <time>2020-11-29T10:57:15Z</time>
      </trkpt>
      <trkpt lat="43.58109" lon="1.14339">
        <ele>303.8</ele>
        <time>2020-11-29T10:57:16Z</time>
      </trkpt>
      <trkpt lat="43.5811" lon="1.14333">
        <ele>303.7</ele>
        <time>2020-11-29T10:57:17Z</time>
      </trkpt>
      <trkpt lat="43.5811" lon="1.14327">
        <ele>303.7</ele>
        <time>2020-11-29T10:57:18Z</time>
      </trkpt>
      <trkpt lat="43.58111" lon="1.14321">
        <ele>303.7</ele>
        <time>2020-11-29T10:57:19Z</time>
      </trkpt>
      <trkpt lat="43.58111" lon="1.14315">
        <ele>303.7</ele>
        <time>2020-11-29T10:57:20Z</time>
      </trkpt>
      <trkpt lat="43.58111" lon="1.14309">
        <ele>303.6</ele>
        <time>2020-11-29T10:57:21Z</time>
      </trkpt>
      <trkpt lat="43.58111" lon="1.14302">
        <ele>303.6</ele>
        <time>2020-11-29T10:57:22Z</time>
      </trkpt>
      <trkpt lat="43.58111" lon="1.14295">
        <ele>303.6</ele>
        <time>2020-11-29T10:57:23Z</time>
      </trkpt>
      <trkpt lat="43.58112" lon="1.14288">
        <ele>303.5</ele>
        <time>2020-11-29T10:57:24Z</time>
      </trkpt>
      <trkpt lat="43.58113" lon="1.1428">
        <ele>303.5</ele>
        <time>2020-11-29T10:57:25Z</time>
      </trkpt>
      <trkpt lat="43.58114" lon="1.14272">
        <ele>303.5</ele>
        <time>2020-11-29T10:57:26Z</time>
      </trkpt>
      <trkpt lat="43.58114" lon="1.14266">
        <ele>303.4</ele>
        <time>2020-11-29T10:57:27Z</time>
      </trkpt>
      <trkpt lat="43.58116" lon="1.14259">
        <ele>303.4</ele>
        <time>2020-11-29T10:57:28Z</time>
      </trkpt>
      <trkpt lat="43.58117" lon="1.14252">
        <ele>303.4</ele>
        <time>2020-11-29T10:57:29Z</time>
      </trkpt>
      <trkpt lat="43.58118" lon="1.14247">
        <ele>303.3</ele>
        <time>2020-11-29T10:57:30Z</time>
      </trkpt>
      <trkpt lat="43.5812" lon="1.1424">
        <ele>303.3</ele>
        <time>2020-11-29T10:57:31Z</time>
      </trkpt>
      <trkpt lat="43.58122" lon="1.14233">
        <ele>303.2</ele>
        <time>2020-11-29T10:57:32Z</time>
      </trkpt>
      <trkpt lat="43.58124" lon="1.14226">
        <ele>303.1</ele>
        <time>2020-11-29T10:57:33Z</time>
      </trkpt>
      <trkpt lat="43.58126" lon="1.14219">
        <ele>303.1</ele>
        <time>2020-11-29T10:57:34Z</time>
      </trkpt>
      <trkpt lat="43.58128" lon="1.14212">
        <ele>303</ele>
        <time>2020-11-29T10:57:35Z</time>
      </trkpt>
      <trkpt lat="43.5813" lon="1.14205">
        <ele>302.9</ele>
        <time>2020-11-29T10:57:36Z</time>
      </trkpt>
      <trkpt lat="43.5813" lon="1.14198">
        <ele>302.9</ele>
        <time>2020-11-29T10:57:37Z</time>
      </trkpt>
      <trkpt lat="43.58131" lon="1.14191">
        <ele>302.8</ele>
        <time>2020-11-29T10:57:38Z</time>
      </trkpt>
      <trkpt lat="43.58131" lon="1.14183">
        <ele>302.8</ele>
        <time>2020-11-29T10:57:39Z</time>
      </trkpt>
      <trkpt lat="43.58132" lon="1.14176">
        <ele>302.8</ele>
        <time>2020-11-29T10:57:40Z</time>
      </trkpt>
      <trkpt lat="43.58133" lon="1.14168">
        <ele>302.7</ele>
        <time>2020-11-29T10:57:41Z</time>
      </trkpt>
      <trkpt lat="43.58135" lon="1.14159">
        <ele>302.7</ele>
        <time>2020-11-29T10:57:42Z</time>
      </trkpt>
      <trkpt lat="43.58137" lon="1.14151">
        <ele>302.6</ele>
        <time>2020-11-29T10:57:43Z</time>
      </trkpt>
      <trkpt lat="43.58139" lon="1.14143">
        <ele>302.6</ele>
        <time>2020-11-29T10:57:44Z</time>
      </trkpt>
      <trkpt lat="43.58141" lon="1.14135">
        <ele>302.5</ele>
        <time>2020-11-29T10:57:45Z</time>
      </trkpt>
      <trkpt lat="43.58143" lon="1.14127">
        <ele>302.5</ele>
        <time>2020-11-29T10:57:46Z</time>
      </trkpt>
      <trkpt lat="43.58144" lon="1.1412">
        <ele>302.5</ele>
        <time>2020-11-29T10:57:47Z</time>
      </trkpt>
      <trkpt lat="43.58146" lon="1.14114">
        <ele>302.5</ele>
        <time>2020-11-29T10:57:48Z</time>
      </trkpt>
      <trkpt lat="43.58149" lon="1.14109">
        <ele>302.5</ele>
        <time>2020-11-29T10:57:49Z</time>
      </trkpt>
      <trkpt lat="43.58152" lon="1.14104">
        <ele>302.5</ele>
        <time>2020-11-29T10:57:50Z</time>
      </trkpt>
      <trkpt lat="43.58155" lon="1.14101">
        <ele>302.6</ele>
        <time>2020-11-29T10:57:51Z</time>
      </trkpt>
      <trkpt lat="43.58159" lon="1.14101">
        <ele>302.8</ele>
        <time>2020-11-29T10:57:52Z</time>
      </trkpt>
      <trkpt lat="43.58163" lon="1.14103">
        <ele>302.9</ele>
        <time>2020-11-29T10:57:53Z</time>
      </trkpt>
      <trkpt lat="43.58168" lon="1.14103">
        <ele>303.1</ele>
        <time>2020-11-29T10:57:54Z</time>
      </trkpt>
      <trkpt lat="43.58172" lon="1.14105">
        <ele>303.2</ele>
        <time>2020-11-29T10:57:55Z</time>
      </trkpt>
      <trkpt lat="43.58175" lon="1.14106">
        <ele>303.4</ele>
        <time>2020-11-29T10:57:56Z</time>
      </trkpt>
      <trkpt lat="43.58177" lon="1.1411">
        <ele>303.7</ele>
        <time>2020-11-29T10:57:57Z</time>
      </trkpt>
      <trkpt lat="43.58178" lon="1.14115">
        <ele>303.8</ele>
        <time>2020-11-29T10:57:58Z</time>
      </trkpt>
      <trkpt lat="43.58179" lon="1.14123">
        <ele>303.9</ele>
        <time>2020-11-29T10:57:59Z</time>
      </trkpt>
      <trkpt lat="43.5818" lon="1.1413">
        <ele>303.9</ele>
        <time>2020-11-29T10:58:00Z</time>
      </trkpt>
      <trkpt lat="43.58181" lon="1.14138">
        <ele>304</ele>
        <time>2020-11-29T10:58:01Z</time>
      </trkpt>
      <trkpt lat="43.58183" lon="1.14146">
        <ele>304</ele>
        <time>2020-11-29T10:58:02Z</time>
      </trkpt>
      <trkpt lat="43.58184" lon="1.14155">
        <ele>304.1</ele>
        <time>2020-11-29T10:58:03Z</time>
      </trkpt>
      <trkpt lat="43.58186" lon="1.14162">
        <ele>304.2</ele>
        <time>2020-11-29T10:58:04Z</time>
      </trkpt>
      <trkpt lat="43.58188" lon="1.14168">
        <ele>304.2</ele>
        <time>2020-11-29T10:58:05Z</time>
      </trkpt>
      <trkpt lat="43.5819" lon="1.14175">
        <ele>304.3</ele>
        <time>2020-11-29T10:58:06Z</time>
      </trkpt>
      <trkpt lat="43.58194" lon="1.14179">
        <ele>304.4</ele>
        <time>2020-11-29T10:58:07Z</time>
      </trkpt>
      <trkpt lat="43.58198" lon="1.14183">
        <ele>304.4</ele>
        <time>2020-11-29T10:58:08Z</time>
      </trkpt>
      <trkpt lat="43.58202" lon="1.14187">
        <ele>304.5</ele>
        <time>2020-11-29T10:58:09Z</time>
      </trkpt>
      <trkpt lat="43.58207" lon="1.14191">
        <ele>304.5</ele>
        <time>2020-11-29T10:58:10Z</time>
      </trkpt>
      <trkpt lat="43.58212" lon="1.14194">
        <ele>304.6</ele>
        <time>2020-11-29T10:58:11Z</time>
      </trkpt>
      <trkpt lat="43.58217" lon="1.14197">
        <ele>304.7</ele>
        <time>2020-11-29T10:58:12Z</time>
      </trkpt>
      <trkpt lat="43.58222" lon="1.142">
        <ele>304.7</ele>
        <time>2020-11-29T10:58:13Z</time>
      </trkpt>
      <trkpt lat="43.58227" lon="1.14205">
        <ele>304.8</ele>
        <time>2020-11-29T10:58:14Z</time>
      </trkpt>
      <trkpt lat="43.58231" lon="1.14207">
        <ele>304.8</ele>
        <time>2020-11-29T10:58:15Z</time>
      </trkpt>
      <trkpt lat="43.58236" lon="1.1421">
        <ele>304.8</ele>
        <time>2020-11-29T10:58:16Z</time>
      </trkpt>
      <trkpt lat="43.5824" lon="1.14211">
        <ele>304.8</ele>
        <time>2020-11-29T10:58:17Z</time>
      </trkpt>
      <trkpt lat="43.58246" lon="1.14211">
        <ele>304.8</ele>
        <time>2020-11-29T10:58:18Z</time>
      </trkpt>
      <trkpt lat="43.58251" lon="1.14208">
        <ele>304.9</ele>
        <time>2020-11-29T10:58:19Z</time>
      </trkpt>
      <trkpt lat="43.58257" lon="1.14205">
        <ele>304.9</ele>
        <time>2020-11-29T10:58:20Z</time>
      </trkpt>
      <trkpt lat="43.58263" lon="1.14204">
        <ele>305.1</ele>
        <time>2020-11-29T10:58:21Z</time>
      </trkpt>
      <trkpt lat="43.58269" lon="1.14202">
        <ele>305.1</ele>
        <time>2020-11-29T10:58:22Z</time>
      </trkpt>
      <trkpt lat="43.58274" lon="1.14201">
        <ele>305.1</ele>
        <time>2020-11-29T10:58:23Z</time>
      </trkpt>
      <trkpt lat="43.58279" lon="1.142">
        <ele>305.1</ele>
        <time>2020-11-29T10:58:24Z</time>
      </trkpt>
      <trkpt lat="43.58285" lon="1.14199">
        <ele>305.2</ele>
        <time>2020-11-29T10:58:25Z</time>
      </trkpt>
      <trkpt lat="43.5829" lon="1.14198">
        <ele>305.2</ele>
        <time>2020-11-29T10:58:26Z</time>
      </trkpt>
      <trkpt lat="43.58295" lon="1.14197">
        <ele>305.2</ele>
        <time>2020-11-29T10:58:27Z</time>
      </trkpt>
      <trkpt lat="43.583" lon="1.14197">
        <ele>305.2</ele>
        <time>2020-11-29T10:58:28Z</time>
      </trkpt>
      <trkpt lat="43.58303" lon="1.14198">
        <ele>305.2</ele>
        <time>2020-11-29T10:58:29Z</time>
      </trkpt>
      <trkpt lat="43.58307" lon="1.14197">
        <ele>305.2</ele>
        <time>2020-11-29T10:58:30Z</time>
      </trkpt>
      <trkpt lat="43.5831" lon="1.14198">
        <ele>305.2</ele>
        <time>2020-11-29T10:58:31Z</time>
      </trkpt>
      <trkpt lat="43.58314" lon="1.142">
        <ele>305.2</ele>
        <time>2020-11-29T10:58:32Z</time>
      </trkpt>
      <trkpt lat="43.58318" lon="1.142">
        <ele>305.2</ele>
        <time>2020-11-29T10:58:33Z</time>
      </trkpt>
      <trkpt lat="43.58321" lon="1.14199">
        <ele>305.2</ele>
        <time>2020-11-29T10:58:34Z</time>
      </trkpt>
      <trkpt lat="43.58325" lon="1.14198">
        <ele>305.1</ele>
        <time>2020-11-29T10:58:35Z</time>
      </trkpt>
      <trkpt lat="43.5833" lon="1.14197">
        <ele>305.1</ele>
        <time>2020-11-29T10:58:36Z</time>
      </trkpt>
      <trkpt lat="43.58334" lon="1.14197">
        <ele>305.1</ele>
        <time>2020-11-29T10:58:37Z</time>
      </trkpt>
      <trkpt lat="43.58339" lon="1.14197">
        <ele>305</ele>
        <time>2020-11-29T10:58:38Z</time>
      </trkpt>
      <trkpt lat="43.58344" lon="1.14196">
        <ele>305</ele>
        <time>2020-11-29T10:58:39Z</time>
      </trkpt>
      <trkpt lat="43.5835" lon="1.14196">
        <ele>304.9</ele>
        <time>2020-11-29T10:58:40Z</time>
      </trkpt>
      <trkpt lat="43.58356" lon="1.14197">
        <ele>304.8</ele>
        <time>2020-11-29T10:58:41Z</time>
      </trkpt>
      <trkpt lat="43.58363" lon="1.14199">
        <ele>304.7</ele>
        <time>2020-11-29T10:58:42Z</time>
      </trkpt>
      <trkpt lat="43.58367" lon="1.14201">
        <ele>304.6</ele>
        <time>2020-11-29T10:58:43Z</time>
      </trkpt>
      <trkpt lat="43.58372" lon="1.14204">
        <ele>304.6</ele>
        <time>2020-11-29T10:58:44Z</time>
      </trkpt>
      <trkpt lat="43.58377" lon="1.14209">
        <ele>304.5</ele>
        <time>2020-11-29T10:58:45Z</time>
      </trkpt>
      <trkpt lat="43.5838" lon="1.14211">
        <ele>304.5</ele>
        <time>2020-11-29T10:58:46Z</time>
      </trkpt>
      <trkpt lat="43.58384" lon="1.1421">
        <ele>304.4</ele>
        <time>2020-11-29T10:58:47Z</time>
      </trkpt>
      <trkpt lat="43.58391" lon="1.14208">
        <ele>304.4</ele>
        <time>2020-11-29T10:58:48Z</time>
      </trkpt>
      <trkpt lat="43.58395" lon="1.14206">
        <ele>304.4</ele>
        <time>2020-11-29T10:58:49Z</time>
      </trkpt>
      <trkpt lat="43.58402" lon="1.14205">
        <ele>304.3</ele>
        <time>2020-11-29T10:58:50Z</time>
      </trkpt>
      <trkpt lat="43.58407" lon="1.14204">
        <ele>304.1</ele>
        <time>2020-11-29T10:58:51Z</time>
      </trkpt>
      <trkpt lat="43.58411" lon="1.14203">
        <ele>303.9</ele>
        <time>2020-11-29T10:58:52Z</time>
      </trkpt>
      <trkpt lat="43.58418" lon="1.14205">
        <ele>303.7</ele>
        <time>2020-11-29T10:58:53Z</time>
      </trkpt>
      <trkpt lat="43.58424" lon="1.14208">
        <ele>303.5</ele>
        <time>2020-11-29T10:58:54Z</time>
      </trkpt>
      <trkpt lat="43.58431" lon="1.14213">
        <ele>303.2</ele>
        <time>2020-11-29T10:58:55Z</time>
      </trkpt>
      <trkpt lat="43.58437" lon="1.14217">
        <ele>302.9</ele>
        <time>2020-11-29T10:58:56Z</time>
      </trkpt>
      <trkpt lat="43.58444" lon="1.14222">
        <ele>302.5</ele>
        <time>2020-11-29T10:58:57Z</time>
      </trkpt>
      <trkpt lat="43.5845" lon="1.14228">
        <ele>302.1</ele>
        <time>2020-11-29T10:58:58Z</time>
      </trkpt>
      <trkpt lat="43.58457" lon="1.14234">
        <ele>301.7</ele>
        <time>2020-11-29T10:58:59Z</time>
      </trkpt>
      <trkpt lat="43.58463" lon="1.1424">
        <ele>301.3</ele>
        <time>2020-11-29T10:59:00Z</time>
      </trkpt>
      <trkpt lat="43.58468" lon="1.14245">
        <ele>301.1</ele>
        <time>2020-11-29T10:59:01Z</time>
      </trkpt>
      <trkpt lat="43.58474" lon="1.1425">
        <ele>300.8</ele>
        <time>2020-11-29T10:59:02Z</time>
      </trkpt>
      <trkpt lat="43.58481" lon="1.14255">
        <ele>300.5</ele>
        <time>2020-11-29T10:59:03Z</time>
      </trkpt>
      <trkpt lat="43.58486" lon="1.14259">
        <ele>300.3</ele>
        <time>2020-11-29T10:59:04Z</time>
      </trkpt>
      <trkpt lat="43.58491" lon="1.1426">
        <ele>300.1</ele>
        <time>2020-11-29T10:59:05Z</time>
      </trkpt>
      <trkpt lat="43.58497" lon="1.1426">
        <ele>299.7</ele>
        <time>2020-11-29T10:59:06Z</time>
      </trkpt>
      <trkpt lat="43.58502" lon="1.14257">
        <ele>299.8</ele>
        <time>2020-11-29T10:59:07Z</time>
      </trkpt>
      <trkpt lat="43.58505" lon="1.14254">
        <ele>299.9</ele>
        <time>2020-11-29T10:59:08Z</time>
      </trkpt>
      <trkpt lat="43.58507" lon="1.1425">
        <ele>300</ele>
        <time>2020-11-29T10:59:09Z</time>
      </trkpt>
      <trkpt lat="43.58507" lon="1.14244">
        <ele>300</ele>
        <time>2020-11-29T10:59:10Z</time>
      </trkpt>
      <trkpt lat="43.58504" lon="1.14241">
        <ele>300.1</ele>
        <time>2020-11-29T10:59:11Z</time>
      </trkpt>
      <trkpt lat="43.585" lon="1.14237">
        <ele>300.2</ele>
        <time>2020-11-29T10:59:12Z</time>
      </trkpt>
      <trkpt lat="43.58495" lon="1.14233">
        <ele>300.3</ele>
        <time>2020-11-29T10:59:13Z</time>
      </trkpt>
      <trkpt lat="43.58491" lon="1.14231">
        <ele>300.4</ele>
        <time>2020-11-29T10:59:14Z</time>
      </trkpt>
      <trkpt lat="43.58487" lon="1.14228">
        <ele>300.5</ele>
        <time>2020-11-29T10:59:15Z</time>
      </trkpt>
      <trkpt lat="43.58483" lon="1.14225">
        <ele>300.6</ele>
        <time>2020-11-29T10:59:16Z</time>
      </trkpt>
      <trkpt lat="43.58479" lon="1.14221">
        <ele>300.7</ele>
        <time>2020-11-29T10:59:17Z</time>
      </trkpt>
      <trkpt lat="43.58475" lon="1.14218">
        <ele>300.8</ele>
        <time>2020-11-29T10:59:18Z</time>
      </trkpt>
      <trkpt lat="43.58473" lon="1.14213">
        <ele>301</ele>
        <time>2020-11-29T10:59:19Z</time>
      </trkpt>
      <trkpt lat="43.5847" lon="1.14209">
        <ele>301.1</ele>
        <time>2020-11-29T10:59:20Z</time>
      </trkpt>
      <trkpt lat="43.58467" lon="1.14204">
        <ele>301.2</ele>
        <time>2020-11-29T10:59:21Z</time>
      </trkpt>
      <trkpt lat="43.58463" lon="1.142">
        <ele>301.3</ele>
        <time>2020-11-29T10:59:22Z</time>
      </trkpt>
      <trkpt lat="43.5846" lon="1.14196">
        <ele>301.4</ele>
        <time>2020-11-29T10:59:23Z</time>
      </trkpt>
      <trkpt lat="43.58456" lon="1.14192">
        <ele>301.5</ele>
        <time>2020-11-29T10:59:24Z</time>
      </trkpt>
      <trkpt lat="43.58452" lon="1.14189">
        <ele>301.6</ele>
        <time>2020-11-29T10:59:25Z</time>
      </trkpt>
      <trkpt lat="43.58449" lon="1.14185">
        <ele>301.8</ele>
        <time>2020-11-29T10:59:26Z</time>
      </trkpt>
      <trkpt lat="43.58445" lon="1.14182">
        <ele>301.9</ele>
        <time>2020-11-29T10:59:27Z</time>
      </trkpt>
      <trkpt lat="43.58441" lon="1.14179">
        <ele>301.9</ele>
        <time>2020-11-29T10:59:28Z</time>
      </trkpt>
      <trkpt lat="43.58436" lon="1.14176">
        <ele>302</ele>
        <time>2020-11-29T10:59:29Z</time>
      </trkpt>
      <trkpt lat="43.58432" lon="1.14173">
        <ele>302.1</ele>
        <time>2020-11-29T10:59:30Z</time>
      </trkpt>
      <trkpt lat="43.58428" lon="1.14173">
        <ele>302.1</ele>
        <time>2020-11-29T10:59:31Z</time>
      </trkpt>
      <trkpt lat="43.58426" lon="1.14169">
        <ele>302.2</ele>
        <time>2020-11-29T10:59:32Z</time>
      </trkpt>
      <trkpt lat="43.58423" lon="1.14165">
        <ele>302.2</ele>
        <time>2020-11-29T10:59:33Z</time>
      </trkpt>
      <trkpt lat="43.5842" lon="1.14162">
        <ele>302.2</ele>
        <time>2020-11-29T10:59:34Z</time>
      </trkpt>
      <trkpt lat="43.58417" lon="1.1416">
        <ele>302.2</ele>
        <time>2020-11-29T10:59:35Z</time>
      </trkpt>
      <trkpt lat="43.58413" lon="1.14157">
        <ele>302.2</ele>
        <time>2020-11-29T10:59:36Z</time>
      </trkpt>
      <trkpt lat="43.58409" lon="1.14154">
        <ele>302.2</ele>
        <time>2020-11-29T10:59:37Z</time>
      </trkpt>
      <trkpt lat="43.58405" lon="1.14152">
        <ele>302.2</ele>
        <time>2020-11-29T10:59:38Z</time>
      </trkpt>
      <trkpt lat="43.58401" lon="1.1415">
        <ele>302.1</ele>
        <time>2020-11-29T10:59:39Z</time>
      </trkpt>
      <trkpt lat="43.58397" lon="1.14146">
        <ele>302.1</ele>
        <time>2020-11-29T10:59:40Z</time>
      </trkpt>
      <trkpt lat="43.58393" lon="1.14142">
        <ele>302.1</ele>
        <time>2020-11-29T10:59:41Z</time>
      </trkpt>
      <trkpt lat="43.58389" lon="1.14138">
        <ele>302.1</ele>
        <time>2020-11-29T10:59:42Z</time>
      </trkpt>
      <trkpt lat="43.58384" lon="1.14134">
        <ele>302</ele>
        <time>2020-11-29T10:59:43Z</time>
      </trkpt>
      <trkpt lat="43.58379" lon="1.14129">
        <ele>302</ele>
        <time>2020-11-29T10:59:44Z</time>
      </trkpt>
      <trkpt lat="43.58377" lon="1.14125">
        <ele>302</ele>
        <time>2020-11-29T10:59:45Z</time>
      </trkpt>
      <trkpt lat="43.58373" lon="1.14121">
        <ele>301.9</ele>
        <time>2020-11-29T10:59:46Z</time>
      </trkpt>
      <trkpt lat="43.58369" lon="1.14118">
        <ele>301.9</ele>
        <time>2020-11-29T10:59:47Z</time>
      </trkpt>
      <trkpt lat="43.58366" lon="1.14114">
        <ele>301.8</ele>
        <time>2020-11-29T10:59:48Z</time>
      </trkpt>
      <trkpt lat="43.58363" lon="1.14112">
        <ele>301.8</ele>
        <time>2020-11-29T10:59:49Z</time>
      </trkpt>
      <trkpt lat="43.58362" lon="1.14112">
        <ele>301.8</ele>
        <time>2020-11-29T10:59:50Z</time>
      </trkpt>
      <trkpt lat="43.58361" lon="1.14112">
        <ele>301.8</ele>
        <time>2020-11-29T10:59:51Z</time>
      </trkpt>
      <trkpt lat="43.58362" lon="1.14112">
        <ele>301.8</ele>
        <time>2020-11-29T10:59:52Z</time>
      </trkpt>
      <trkpt lat="43.5836" lon="1.14111">
        <ele>301.8</ele>
        <time>2020-11-29T10:59:53Z</time>
      </trkpt>
      <trkpt lat="43.5836" lon="1.14111">
        <ele>301.8</ele>
        <time>2020-11-29T10:59:54Z</time>
      </trkpt>
      <trkpt lat="43.5836" lon="1.14111">
        <ele>301.8</ele>
        <time>2020-11-29T10:59:55Z</time>
      </trkpt>
      <trkpt lat="43.5836" lon="1.14111">
        <ele>301.8</ele>
        <time>2020-11-29T10:59:56Z</time>
      </trkpt>
      <trkpt lat="43.5836" lon="1.14111">
        <ele>301.8</ele>
        <time>2020-11-29T10:59:57Z</time>
      </trkpt>
      <trkpt lat="43.5836" lon="1.14112">
        <ele>301.8</ele>
        <time>2020-11-29T10:59:58Z</time>
      </trkpt>
      <trkpt lat="43.5836" lon="1.14112">
        <ele>301.8</ele>
        <time>2020-11-29T10:59:59Z</time>
      </trkpt>
      <trkpt lat="43.5836" lon="1.14112">
        <ele>301.8</ele>
        <time>2020-11-29T11:00:00Z</time>
      </trkpt>
      <trkpt lat="43.5836" lon="1.14112">
        <ele>301.8</ele>
        <time>2020-11-29T11:00:01Z</time>
      </trkpt>
      <trkpt lat="43.5836" lon="1.14111">
        <ele>301.8</ele>
        <time>2020-11-29T11:00:02Z</time>
      </trkpt>
      <trkpt lat="43.5836" lon="1.14111">
        <ele>301.8</ele>
        <time>2020-11-29T11:00:03Z</time>
      </trkpt>
      <trkpt lat="43.5836" lon="1.14111">
        <ele>301.8</ele>
        <time>2020-11-29T11:00:04Z</time>
      </trkpt>
      <trkpt lat="43.5836" lon="1.1411">
        <ele>301.8</ele>
        <time>2020-11-29T11:00:05Z</time>
      </trkpt>
      <trkpt lat="43.5836" lon="1.14111">
        <ele>301.8</ele>
        <time>2020-11-29T11:00:06Z</time>
      </trkpt>
      <trkpt lat="43.5836" lon="1.14111">
        <ele>301.8</ele>
        <time>2020-11-29T11:00:07Z</time>
      </trkpt>
      <trkpt lat="43.58359" lon="1.14111">
        <ele>301.7</ele>
        <time>2020-11-29T11:00:08Z</time>
      </trkpt>
      <trkpt lat="43.58357" lon="1.1411">
        <ele>301.7</ele>
        <time>2020-11-29T11:00:09Z</time>
      </trkpt>
      <trkpt lat="43.58353" lon="1.14107">
        <ele>301.7</ele>
        <time>2020-11-29T11:00:10Z</time>
      </trkpt>
      <trkpt lat="43.5835" lon="1.14102">
        <ele>301.7</ele>
        <time>2020-11-29T11:00:11Z</time>
      </trkpt>
      <trkpt lat="43.58347" lon="1.14097">
        <ele>301.6</ele>
        <time>2020-11-29T11:00:12Z</time>
      </trkpt>
      <trkpt lat="43.58342" lon="1.14092">
        <ele>301.6</ele>
        <time>2020-11-29T11:00:13Z</time>
      </trkpt>
      <trkpt lat="43.58339" lon="1.14088">
        <ele>301.5</ele>
        <time>2020-11-29T11:00:14Z</time>
      </trkpt>
      <trkpt lat="43.58336" lon="1.14084">
        <ele>301.5</ele>
        <time>2020-11-29T11:00:15Z</time>
      </trkpt>
      <trkpt lat="43.58331" lon="1.14078">
        <ele>301.4</ele>
        <time>2020-11-29T11:00:16Z</time>
      </trkpt>
      <trkpt lat="43.58327" lon="1.14073">
        <ele>301.3</ele>
        <time>2020-11-29T11:00:17Z</time>
      </trkpt>
      <trkpt lat="43.58323" lon="1.14068">
        <ele>301.3</ele>
        <time>2020-11-29T11:00:18Z</time>
      </trkpt>
      <trkpt lat="43.58319" lon="1.14063">
        <ele>301.3</ele>
        <time>2020-11-29T11:00:19Z</time>
      </trkpt>
      <trkpt lat="43.58316" lon="1.14059">
        <ele>301.3</ele>
        <time>2020-11-29T11:00:20Z</time>
      </trkpt>
      <trkpt lat="43.58314" lon="1.14055">
        <ele>301.2</ele>
        <time>2020-11-29T11:00:21Z</time>
      </trkpt>
      <trkpt lat="43.58311" lon="1.14051">
        <ele>301.2</ele>
        <time>2020-11-29T11:00:22Z</time>
      </trkpt>
      <trkpt lat="43.5831" lon="1.14046">
        <ele>301.2</ele>
        <time>2020-11-29T11:00:23Z</time>
      </trkpt>
      <trkpt lat="43.58308" lon="1.14041">
        <ele>301.2</ele>
        <time>2020-11-29T11:00:24Z</time>
      </trkpt>
      <trkpt lat="43.58307" lon="1.14037">
        <ele>301.2</ele>
        <time>2020-11-29T11:00:25Z</time>
      </trkpt>
      <trkpt lat="43.58305" lon="1.14033">
        <ele>301.1</ele>
        <time>2020-11-29T11:00:26Z</time>
      </trkpt>
      <trkpt lat="43.58303" lon="1.14028">
        <ele>301.1</ele>
        <time>2020-11-29T11:00:27Z</time>
      </trkpt>
      <trkpt lat="43.583" lon="1.14023">
        <ele>301.1</ele>
        <time>2020-11-29T11:00:28Z</time>
      </trkpt>
      <trkpt lat="43.58298" lon="1.14019">
        <ele>301</ele>
        <time>2020-11-29T11:00:29Z</time>
      </trkpt>
      <trkpt lat="43.58296" lon="1.14014">
        <ele>301</ele>
        <time>2020-11-29T11:00:30Z</time>
      </trkpt>
      <trkpt lat="43.58294" lon="1.14009">
        <ele>301</ele>
        <time>2020-11-29T11:00:31Z</time>
      </trkpt>
      <trkpt lat="43.58292" lon="1.14004">
        <ele>301</ele>
        <time>2020-11-29T11:00:32Z</time>
      </trkpt>
      <trkpt lat="43.58289" lon="1.13997">
        <ele>301</ele>
        <time>2020-11-29T11:00:33Z</time>
      </trkpt>
      <trkpt lat="43.58288" lon="1.1399">
        <ele>301</ele>
        <time>2020-11-29T11:00:34Z</time>
      </trkpt>
      <trkpt lat="43.58286" lon="1.13984">
        <ele>301</ele>
        <time>2020-11-29T11:00:35Z</time>
      </trkpt>
      <trkpt lat="43.58284" lon="1.13977">
        <ele>301.1</ele>
        <time>2020-11-29T11:00:36Z</time>
      </trkpt>
      <trkpt lat="43.58282" lon="1.13972">
        <ele>301.1</ele>
        <time>2020-11-29T11:00:37Z</time>
      </trkpt>
      <trkpt lat="43.58281" lon="1.13968">
        <ele>301.1</ele>
        <time>2020-11-29T11:00:38Z</time>
      </trkpt>
      <trkpt lat="43.58279" lon="1.13962">
        <ele>301.2</ele>
        <time>2020-11-29T11:00:39Z</time>
      </trkpt>
      <trkpt lat="43.58278" lon="1.13957">
        <ele>301.2</ele>
        <time>2020-11-29T11:00:40Z</time>
      </trkpt>
      <trkpt lat="43.58275" lon="1.13951">
        <ele>301.3</ele>
        <time>2020-11-29T11:00:41Z</time>
      </trkpt>
      <trkpt lat="43.58273" lon="1.13947">
        <ele>301.3</ele>
        <time>2020-11-29T11:00:42Z</time>
      </trkpt>
      <trkpt lat="43.58271" lon="1.13942">
        <ele>301.4</ele>
        <time>2020-11-29T11:00:43Z</time>
      </trkpt>
      <trkpt lat="43.58269" lon="1.13938">
        <ele>301.5</ele>
        <time>2020-11-29T11:00:44Z</time>
      </trkpt>
      <trkpt lat="43.58268" lon="1.13931">
        <ele>301.6</ele>
        <time>2020-11-29T11:00:45Z</time>
      </trkpt>
      <trkpt lat="43.58266" lon="1.13926">
        <ele>301.7</ele>
        <time>2020-11-29T11:00:46Z</time>
      </trkpt>
      <trkpt lat="43.58265" lon="1.1392">
        <ele>301.8</ele>
        <time>2020-11-29T11:00:47Z</time>
      </trkpt>
      <trkpt lat="43.58262" lon="1.13914">
        <ele>301.9</ele>
        <time>2020-11-29T11:00:48Z</time>
      </trkpt>
      <trkpt lat="43.5826" lon="1.13908">
        <ele>302</ele>
        <time>2020-11-29T11:00:49Z</time>
      </trkpt>
      <trkpt lat="43.58257" lon="1.13904">
        <ele>302.1</ele>
        <time>2020-11-29T11:00:50Z</time>
      </trkpt>
      <trkpt lat="43.58256" lon="1.13899">
        <ele>302.3</ele>
        <time>2020-11-29T11:00:51Z</time>
      </trkpt>
      <trkpt lat="43.58254" lon="1.13893">
        <ele>302.4</ele>
        <time>2020-11-29T11:00:52Z</time>
      </trkpt>
      <trkpt lat="43.58253" lon="1.13888">
        <ele>302.5</ele>
        <time>2020-11-29T11:00:53Z</time>
      </trkpt>
      <trkpt lat="43.58252" lon="1.13883">
        <ele>302.6</ele>
        <time>2020-11-29T11:00:54Z</time>
      </trkpt>
      <trkpt lat="43.5825" lon="1.13879">
        <ele>302.6</ele>
        <time>2020-11-29T11:00:55Z</time>
      </trkpt>
      <trkpt lat="43.58249" lon="1.13877">
        <ele>302.7</ele>
        <time>2020-11-29T11:00:56Z</time>
      </trkpt>
      <trkpt lat="43.58246" lon="1.13873">
        <ele>302.7</ele>
        <time>2020-11-29T11:00:57Z</time>
      </trkpt>
      <trkpt lat="43.58245" lon="1.13871">
        <ele>302.8</ele>
        <time>2020-11-29T11:00:58Z</time>
      </trkpt>
      <trkpt lat="43.58243" lon="1.13866">
        <ele>302.8</ele>
        <time>2020-11-29T11:00:59Z</time>
      </trkpt>
      <trkpt lat="43.58242" lon="1.1386">
        <ele>302.9</ele>
        <time>2020-11-29T11:01:00Z</time>
      </trkpt>
      <trkpt lat="43.5824" lon="1.13856">
        <ele>303</ele>
        <time>2020-11-29T11:01:01Z</time>
      </trkpt>
      <trkpt lat="43.58238" lon="1.13851">
        <ele>303</ele>
        <time>2020-11-29T11:01:02Z</time>
      </trkpt>
      <trkpt lat="43.58237" lon="1.13846">
        <ele>303</ele>
        <time>2020-11-29T11:01:03Z</time>
      </trkpt>
      <trkpt lat="43.58236" lon="1.13841">
        <ele>303.1</ele>
        <time>2020-11-29T11:01:04Z</time>
      </trkpt>
      <trkpt lat="43.58235" lon="1.13837">
        <ele>303.1</ele>
        <time>2020-11-29T11:01:05Z</time>
      </trkpt>
      <trkpt lat="43.58234" lon="1.13833">
        <ele>303.1</ele>
        <time>2020-11-29T11:01:06Z</time>
      </trkpt>
      <trkpt lat="43.58232" lon="1.13827">
        <ele>303.2</ele>
        <time>2020-11-29T11:01:07Z</time>
      </trkpt>
      <trkpt lat="43.5823" lon="1.13823">
        <ele>303.2</ele>
        <time>2020-11-29T11:01:08Z</time>
      </trkpt>
      <trkpt lat="43.58228" lon="1.13818">
        <ele>303.2</ele>
        <time>2020-11-29T11:01:09Z</time>
      </trkpt>
      <trkpt lat="43.58226" lon="1.13812">
        <ele>303.2</ele>
        <time>2020-11-29T11:01:10Z</time>
      </trkpt>
      <trkpt lat="43.58224" lon="1.13807">
        <ele>303.2</ele>
        <time>2020-11-29T11:01:11Z</time>
      </trkpt>
      <trkpt lat="43.58221" lon="1.13801">
        <ele>303.2</ele>
        <time>2020-11-29T11:01:12Z</time>
      </trkpt>
      <trkpt lat="43.58219" lon="1.13794">
        <ele>303.2</ele>
        <time>2020-11-29T11:01:13Z</time>
      </trkpt>
      <trkpt lat="43.58218" lon="1.13789">
        <ele>303.2</ele>
        <time>2020-11-29T11:01:14Z</time>
      </trkpt>
      <trkpt lat="43.58217" lon="1.13785">
        <ele>303.2</ele>
        <time>2020-11-29T11:01:15Z</time>
      </trkpt>
      <trkpt lat="43.58215" lon="1.13779">
        <ele>303.2</ele>
        <time>2020-11-29T11:01:16Z</time>
      </trkpt>
      <trkpt lat="43.58213" lon="1.13773">
        <ele>303.1</ele>
        <time>2020-11-29T11:01:17Z</time>
      </trkpt>
      <trkpt lat="43.58212" lon="1.13767">
        <ele>303.1</ele>
        <time>2020-11-29T11:01:18Z</time>
      </trkpt>
      <trkpt lat="43.58209" lon="1.13759">
        <ele>303.1</ele>
        <time>2020-11-29T11:01:19Z</time>
      </trkpt>
      <trkpt lat="43.58207" lon="1.13753">
        <ele>303</ele>
        <time>2020-11-29T11:01:20Z</time>
      </trkpt>
      <trkpt lat="43.58203" lon="1.13746">
        <ele>303</ele>
        <time>2020-11-29T11:01:21Z</time>
      </trkpt>
      <trkpt lat="43.58201" lon="1.13738">
        <ele>303</ele>
        <time>2020-11-29T11:01:22Z</time>
      </trkpt>
      <trkpt lat="43.58199" lon="1.13729">
        <ele>302.9</ele>
        <time>2020-11-29T11:01:23Z</time>
      </trkpt>
      <trkpt lat="43.58196" lon="1.13722">
        <ele>302.9</ele>
        <time>2020-11-29T11:01:24Z</time>
      </trkpt>
      <trkpt lat="43.58194" lon="1.13715">
        <ele>302.9</ele>
        <time>2020-11-29T11:01:25Z</time>
      </trkpt>
      <trkpt lat="43.58193" lon="1.13708">
        <ele>302.8</ele>
        <time>2020-11-29T11:01:26Z</time>
      </trkpt>
      <trkpt lat="43.58191" lon="1.13703">
        <ele>302.8</ele>
        <time>2020-11-29T11:01:27Z</time>
      </trkpt>
      <trkpt lat="43.58189" lon="1.13696">
        <ele>302.8</ele>
        <time>2020-11-29T11:01:28Z</time>
      </trkpt>
      <trkpt lat="43.58187" lon="1.1369">
        <ele>302.7</ele>
        <time>2020-11-29T11:01:29Z</time>
      </trkpt>
      <trkpt lat="43.58184" lon="1.13685">
        <ele>302.7</ele>
        <time>2020-11-29T11:01:30Z</time>
      </trkpt>
      <trkpt lat="43.58183" lon="1.1368">
        <ele>302.7</ele>
        <time>2020-11-29T11:01:31Z</time>
      </trkpt>
      <trkpt lat="43.5818" lon="1.13673">
        <ele>302.7</ele>
        <time>2020-11-29T11:01:32Z</time>
      </trkpt>
      <trkpt lat="43.58179" lon="1.13666">
        <ele>302.7</ele>
        <time>2020-11-29T11:01:33Z</time>
      </trkpt>
      <trkpt lat="43.58176" lon="1.13658">
        <ele>302.6</ele>
        <time>2020-11-29T11:01:34Z</time>
      </trkpt>
      <trkpt lat="43.58175" lon="1.13651">
        <ele>302.6</ele>
        <time>2020-11-29T11:01:35Z</time>
      </trkpt>
      <trkpt lat="43.58173" lon="1.13645">
        <ele>302.6</ele>
        <time>2020-11-29T11:01:36Z</time>
      </trkpt>
      <trkpt lat="43.58171" lon="1.13639">
        <ele>302.5</ele>
        <time>2020-11-29T11:01:37Z</time>
      </trkpt>
      <trkpt lat="43.5817" lon="1.13632">
        <ele>302.5</ele>
        <time>2020-11-29T11:01:38Z</time>
      </trkpt>
      <trkpt lat="43.58168" lon="1.13627">
        <ele>302.5</ele>
        <time>2020-11-29T11:01:39Z</time>
      </trkpt>
      <trkpt lat="43.58166" lon="1.13621">
        <ele>302.5</ele>
        <time>2020-11-29T11:01:40Z</time>
      </trkpt>
      <trkpt lat="43.58165" lon="1.13618">
        <ele>302.5</ele>
        <time>2020-11-29T11:01:41Z</time>
      </trkpt>
      <trkpt lat="43.58164" lon="1.13613">
        <ele>302.4</ele>
        <time>2020-11-29T11:01:42Z</time>
      </trkpt>
      <trkpt lat="43.58163" lon="1.13606">
        <ele>302.4</ele>
        <time>2020-11-29T11:01:43Z</time>
      </trkpt>
      <trkpt lat="43.58161" lon="1.13601">
        <ele>302.4</ele>
        <time>2020-11-29T11:01:44Z</time>
      </trkpt>
      <trkpt lat="43.58161" lon="1.13596">
        <ele>302.3</ele>
        <time>2020-11-29T11:01:45Z</time>
      </trkpt>
      <trkpt lat="43.5816" lon="1.13586">
        <ele>302.3</ele>
        <time>2020-11-29T11:01:46Z</time>
      </trkpt>
      <trkpt lat="43.58159" lon="1.13578">
        <ele>302.2</ele>
        <time>2020-11-29T11:01:47Z</time>
      </trkpt>
      <trkpt lat="43.58158" lon="1.1357">
        <ele>302.1</ele>
        <time>2020-11-29T11:01:48Z</time>
      </trkpt>
      <trkpt lat="43.58157" lon="1.13563">
        <ele>302</ele>
        <time>2020-11-29T11:01:49Z</time>
      </trkpt>
      <trkpt lat="43.58156" lon="1.13557">
        <ele>301.9</ele>
        <time>2020-11-29T11:01:50Z</time>
      </trkpt>
      <trkpt lat="43.58155" lon="1.13551">
        <ele>301.8</ele>
        <time>2020-11-29T11:01:51Z</time>
      </trkpt>
      <trkpt lat="43.58154" lon="1.13545">
        <ele>301.7</ele>
        <time>2020-11-29T11:01:52Z</time>
      </trkpt>
      <trkpt lat="43.58154" lon="1.13538">
        <ele>301.7</ele>
        <time>2020-11-29T11:01:53Z</time>
      </trkpt>
      <trkpt lat="43.58153" lon="1.13529">
        <ele>301.5</ele>
        <time>2020-11-29T11:01:54Z</time>
      </trkpt>
      <trkpt lat="43.58153" lon="1.13521">
        <ele>301.4</ele>
        <time>2020-11-29T11:01:55Z</time>
      </trkpt>
      <trkpt lat="43.58152" lon="1.13514">
        <ele>301.3</ele>
        <time>2020-11-29T11:01:56Z</time>
      </trkpt>
      <trkpt lat="43.58152" lon="1.13506">
        <ele>301.2</ele>
        <time>2020-11-29T11:01:57Z</time>
      </trkpt>
      <trkpt lat="43.58151" lon="1.135">
        <ele>301.1</ele>
        <time>2020-11-29T11:01:58Z</time>
      </trkpt>
      <trkpt lat="43.5815" lon="1.13493">
        <ele>301</ele>
        <time>2020-11-29T11:01:59Z</time>
      </trkpt>
      <trkpt lat="43.5815" lon="1.13487">
        <ele>300.9</ele>
        <time>2020-11-29T11:02:00Z</time>
      </trkpt>
      <trkpt lat="43.58149" lon="1.13481">
        <ele>300.8</ele>
        <time>2020-11-29T11:02:01Z</time>
      </trkpt>
      <trkpt lat="43.58149" lon="1.13472">
        <ele>300.7</ele>
        <time>2020-11-29T11:02:02Z</time>
      </trkpt>
      <trkpt lat="43.58148" lon="1.13465">
        <ele>300.6</ele>
        <time>2020-11-29T11:02:03Z</time>
      </trkpt>
      <trkpt lat="43.58147" lon="1.13459">
        <ele>300.5</ele>
        <time>2020-11-29T11:02:04Z</time>
      </trkpt>
      <trkpt lat="43.58145" lon="1.13453">
        <ele>300.4</ele>
        <time>2020-11-29T11:02:05Z</time>
      </trkpt>
      <trkpt lat="43.58146" lon="1.13448">
        <ele>300.4</ele>
        <time>2020-11-29T11:02:06Z</time>
      </trkpt>
      <trkpt lat="43.58146" lon="1.13441">
        <ele>300.3</ele>
        <time>2020-11-29T11:02:07Z</time>
      </trkpt>
      <trkpt lat="43.58147" lon="1.13437">
        <ele>300.2</ele>
        <time>2020-11-29T11:02:08Z</time>
      </trkpt>
      <trkpt lat="43.5815" lon="1.13436">
        <ele>300.1</ele>
        <time>2020-11-29T11:02:09Z</time>
      </trkpt>
      <trkpt lat="43.58151" lon="1.13437">
        <ele>300.1</ele>
        <time>2020-11-29T11:02:10Z</time>
      </trkpt>
      <trkpt lat="43.58155" lon="1.13439">
        <ele>300</ele>
        <time>2020-11-29T11:02:11Z</time>
      </trkpt>
      <trkpt lat="43.58156" lon="1.1344">
        <ele>300</ele>
        <time>2020-11-29T11:02:12Z</time>
      </trkpt>
      <trkpt lat="43.58158" lon="1.13442">
        <ele>299.9</ele>
        <time>2020-11-29T11:02:13Z</time>
      </trkpt>
      <trkpt lat="43.58161" lon="1.13445">
        <ele>299.8</ele>
        <time>2020-11-29T11:02:14Z</time>
      </trkpt>
      <trkpt lat="43.58164" lon="1.13445">
        <ele>299.8</ele>
        <time>2020-11-29T11:02:15Z</time>
      </trkpt>
      <trkpt lat="43.58165" lon="1.13443">
        <ele>299.7</ele>
        <time>2020-11-29T11:02:16Z</time>
      </trkpt>
      <trkpt lat="43.58168" lon="1.1344">
        <ele>299.6</ele>
        <time>2020-11-29T11:02:17Z</time>
      </trkpt>
      <trkpt lat="43.58169" lon="1.1344">
        <ele>299.6</ele>
        <time>2020-11-29T11:02:18Z</time>
      </trkpt>
      <trkpt lat="43.58171" lon="1.13439">
        <ele>299.5</ele>
        <time>2020-11-29T11:02:19Z</time>
      </trkpt>
      <trkpt lat="43.58172" lon="1.13439">
        <ele>299.4</ele>
        <time>2020-11-29T11:02:20Z</time>
      </trkpt>
      <trkpt lat="43.58175" lon="1.13436">
        <ele>299.3</ele>
        <time>2020-11-29T11:02:21Z</time>
      </trkpt>
      <trkpt lat="43.58178" lon="1.13433">
        <ele>299.1</ele>
        <time>2020-11-29T11:02:22Z</time>
      </trkpt>
      <trkpt lat="43.58181" lon="1.1343">
        <ele>298.8</ele>
        <time>2020-11-29T11:02:23Z</time>
      </trkpt>
      <trkpt lat="43.58184" lon="1.13428">
        <ele>298.6</ele>
        <time>2020-11-29T11:02:24Z</time>
      </trkpt>
      <trkpt lat="43.58187" lon="1.13425">
        <ele>298.4</ele>
        <time>2020-11-29T11:02:25Z</time>
      </trkpt>
      <trkpt lat="43.58191" lon="1.13424">
        <ele>298.1</ele>
        <time>2020-11-29T11:02:26Z</time>
      </trkpt>
      <trkpt lat="43.58194" lon="1.13423">
        <ele>297.8</ele>
        <time>2020-11-29T11:02:27Z</time>
      </trkpt>
      <trkpt lat="43.58197" lon="1.13421">
        <ele>297.5</ele>
        <time>2020-11-29T11:02:28Z</time>
      </trkpt>
      <trkpt lat="43.58203" lon="1.13417">
        <ele>296.9</ele>
        <time>2020-11-29T11:02:29Z</time>
      </trkpt>
      <trkpt lat="43.58207" lon="1.13415">
        <ele>296.4</ele>
        <time>2020-11-29T11:02:30Z</time>
      </trkpt>
      <trkpt lat="43.5821" lon="1.13413">
        <ele>296.1</ele>
        <time>2020-11-29T11:02:31Z</time>
      </trkpt>
      <trkpt lat="43.58214" lon="1.13411">
        <ele>295.6</ele>
        <time>2020-11-29T11:02:32Z</time>
      </trkpt>
      <trkpt lat="43.58217" lon="1.13409">
        <ele>295.2</ele>
        <time>2020-11-29T11:02:33Z</time>
      </trkpt>
      <trkpt lat="43.5822" lon="1.13407">
        <ele>294.6</ele>
        <time>2020-11-29T11:02:34Z</time>
      </trkpt>
      <trkpt lat="43.58222" lon="1.13406">
        <ele>294.4</ele>
        <time>2020-11-29T11:02:35Z</time>
      </trkpt>
      <trkpt lat="43.58224" lon="1.13403">
        <ele>293.9</ele>
        <time>2020-11-29T11:02:36Z</time>
      </trkpt>
      <trkpt lat="43.58228" lon="1.13401">
        <ele>293.3</ele>
        <time>2020-11-29T11:02:37Z</time>
      </trkpt>
      <trkpt lat="43.58232" lon="1.13399">
        <ele>292.6</ele>
        <time>2020-11-29T11:02:38Z</time>
      </trkpt>
      <trkpt lat="43.58236" lon="1.13395">
        <ele>291.7</ele>
        <time>2020-11-29T11:02:39Z</time>
      </trkpt>
      <trkpt lat="43.58238" lon="1.13392">
        <ele>291.2</ele>
        <time>2020-11-29T11:02:40Z</time>
      </trkpt>
      <trkpt lat="43.58242" lon="1.13389">
        <ele>290.4</ele>
        <time>2020-11-29T11:02:41Z</time>
      </trkpt>
      <trkpt lat="43.58245" lon="1.13386">
        <ele>289.7</ele>
        <time>2020-11-29T11:02:42Z</time>
      </trkpt>
      <trkpt lat="43.58249" lon="1.13381">
        <ele>288.7</ele>
        <time>2020-11-29T11:02:43Z</time>
      </trkpt>
      <trkpt lat="43.58249" lon="1.13377">
        <ele>288.2</ele>
        <time>2020-11-29T11:02:44Z</time>
      </trkpt>
      <trkpt lat="43.58251" lon="1.13372">
        <ele>287.5</ele>
        <time>2020-11-29T11:02:45Z</time>
      </trkpt>
      <trkpt lat="43.58252" lon="1.13369">
        <ele>287.2</ele>
        <time>2020-11-29T11:02:46Z</time>
      </trkpt>
      <trkpt lat="43.58253" lon="1.13365">
        <ele>286.7</ele>
        <time>2020-11-29T11:02:47Z</time>
      </trkpt>
      <trkpt lat="43.58254" lon="1.13364">
        <ele>286.5</ele>
        <time>2020-11-29T11:02:48Z</time>
      </trkpt>
      <trkpt lat="43.58254" lon="1.13363">
        <ele>286.4</ele>
        <time>2020-11-29T11:02:49Z</time>
      </trkpt>
      <trkpt lat="43.58254" lon="1.13363">
        <ele>286.3</ele>
        <time>2020-11-29T11:02:50Z</time>
      </trkpt>
      <trkpt lat="43.58255" lon="1.13363">
        <ele>286.3</ele>
        <time>2020-11-29T11:02:51Z</time>
      </trkpt>
      <trkpt lat="43.58257" lon="1.13363">
        <ele>286</ele>
        <time>2020-11-29T11:02:52Z</time>
      </trkpt>
      <trkpt lat="43.58257" lon="1.13359">
        <ele>285.6</ele>
        <time>2020-11-29T11:02:53Z</time>
      </trkpt>
      <trkpt lat="43.58256" lon="1.13356">
        <ele>285.3</ele>
        <time>2020-11-29T11:02:54Z</time>
      </trkpt>
      <trkpt lat="43.58258" lon="1.13359">
        <ele>284.9</ele>
        <time>2020-11-29T11:02:55Z</time>
      </trkpt>
      <trkpt lat="43.58259" lon="1.1336">
        <ele>284.8</ele>
        <time>2020-11-29T11:02:56Z</time>
      </trkpt>
      <trkpt lat="43.5826" lon="1.13359">
        <ele>284.5</ele>
        <time>2020-11-29T11:02:57Z</time>
      </trkpt>
      <trkpt lat="43.58262" lon="1.13358">
        <ele>284.4</ele>
        <time>2020-11-29T11:02:58Z</time>
      </trkpt>
      <trkpt lat="43.58263" lon="1.13358">
        <ele>284.2</ele>
        <time>2020-11-29T11:02:59Z</time>
      </trkpt>
      <trkpt lat="43.58267" lon="1.13352">
        <ele>283.4</ele>
        <time>2020-11-29T11:03:00Z</time>
      </trkpt>
      <trkpt lat="43.58269" lon="1.13348">
        <ele>282.9</ele>
        <time>2020-11-29T11:03:01Z</time>
      </trkpt>
      <trkpt lat="43.58272" lon="1.13345">
        <ele>282.4</ele>
        <time>2020-11-29T11:03:02Z</time>
      </trkpt>
      <trkpt lat="43.58276" lon="1.13342">
        <ele>281.9</ele>
        <time>2020-11-29T11:03:03Z</time>
      </trkpt>
      <trkpt lat="43.58279" lon="1.1334">
        <ele>281.6</ele>
        <time>2020-11-29T11:03:04Z</time>
      </trkpt>
      <trkpt lat="43.58284" lon="1.13335">
        <ele>281.1</ele>
        <time>2020-11-29T11:03:05Z</time>
      </trkpt>
      <trkpt lat="43.58289" lon="1.1333">
        <ele>280.6</ele>
        <time>2020-11-29T11:03:06Z</time>
      </trkpt>
      <trkpt lat="43.58296" lon="1.13321">
        <ele>279.9</ele>
        <time>2020-11-29T11:03:07Z</time>
      </trkpt>
      <trkpt lat="43.58301" lon="1.13313">
        <ele>279.3</ele>
        <time>2020-11-29T11:03:08Z</time>
      </trkpt>
      <trkpt lat="43.58304" lon="1.13309">
        <ele>278.8</ele>
        <time>2020-11-29T11:03:09Z</time>
      </trkpt>
      <trkpt lat="43.58307" lon="1.13304">
        <ele>278.3</ele>
        <time>2020-11-29T11:03:10Z</time>
      </trkpt>
      <trkpt lat="43.58311" lon="1.13302">
        <ele>277.6</ele>
        <time>2020-11-29T11:03:11Z</time>
      </trkpt>
      <trkpt lat="43.58313" lon="1.13303">
        <ele>277.4</ele>
        <time>2020-11-29T11:03:12Z</time>
      </trkpt>
      <trkpt lat="43.58313" lon="1.13304">
        <ele>277.3</ele>
        <time>2020-11-29T11:03:13Z</time>
      </trkpt>
      <trkpt lat="43.58314" lon="1.13305">
        <ele>277.1</ele>
        <time>2020-11-29T11:03:14Z</time>
      </trkpt>
      <trkpt lat="43.58315" lon="1.13305">
        <ele>277</ele>
        <time>2020-11-29T11:03:15Z</time>
      </trkpt>
      <trkpt lat="43.58317" lon="1.13304">
        <ele>276.6</ele>
        <time>2020-11-29T11:03:16Z</time>
      </trkpt>
      <trkpt lat="43.5832" lon="1.13303">
        <ele>276</ele>
        <time>2020-11-29T11:03:17Z</time>
      </trkpt>
      <trkpt lat="43.58321" lon="1.13303">
        <ele>275.8</ele>
        <time>2020-11-29T11:03:18Z</time>
      </trkpt>
      <trkpt lat="43.58322" lon="1.13302">
        <ele>275.6</ele>
        <time>2020-11-29T11:03:19Z</time>
      </trkpt>
      <trkpt lat="43.58324" lon="1.13302">
        <ele>275.3</ele>
        <time>2020-11-29T11:03:20Z</time>
      </trkpt>
      <trkpt lat="43.58325" lon="1.13301">
        <ele>275.1</ele>
        <time>2020-11-29T11:03:21Z</time>
      </trkpt>
      <trkpt lat="43.58326" lon="1.13301">
        <ele>274.9</ele>
        <time>2020-11-29T11:03:22Z</time>
      </trkpt>
      <trkpt lat="43.58326" lon="1.13301">
        <ele>274.8</ele>
        <time>2020-11-29T11:03:23Z</time>
      </trkpt>
      <trkpt lat="43.58327" lon="1.13301">
        <ele>274.6</ele>
        <time>2020-11-29T11:03:24Z</time>
      </trkpt>
      <trkpt lat="43.58328" lon="1.133">
        <ele>274.5</ele>
        <time>2020-11-29T11:03:25Z</time>
      </trkpt>
      <trkpt lat="43.5833" lon="1.133">
        <ele>274</ele>
        <time>2020-11-29T11:03:26Z</time>
      </trkpt>
      <trkpt lat="43.5833" lon="1.13299">
        <ele>273.9</ele>
        <time>2020-11-29T11:03:27Z</time>
      </trkpt>
      <trkpt lat="43.58331" lon="1.13299">
        <ele>273.8</ele>
        <time>2020-11-29T11:03:28Z</time>
      </trkpt>
      <trkpt lat="43.58331" lon="1.13298">
        <ele>273.7</ele>
        <time>2020-11-29T11:03:29Z</time>
      </trkpt>
      <trkpt lat="43.58332" lon="1.13298">
        <ele>273.5</ele>
        <time>2020-11-29T11:03:30Z</time>
      </trkpt>
      <trkpt lat="43.58333" lon="1.13298">
        <ele>273.3</ele>
        <time>2020-11-29T11:03:31Z</time>
      </trkpt>
      <trkpt lat="43.58333" lon="1.13297">
        <ele>273.2</ele>
        <time>2020-11-29T11:03:32Z</time>
      </trkpt>
      <trkpt lat="43.58334" lon="1.13298">
        <ele>273.1</ele>
        <time>2020-11-29T11:03:33Z</time>
      </trkpt>
      <trkpt lat="43.58334" lon="1.13298">
        <ele>273</ele>
        <time>2020-11-29T11:03:34Z</time>
      </trkpt>
      <trkpt lat="43.58334" lon="1.13298">
        <ele>272.9</ele>
        <time>2020-11-29T11:03:35Z</time>
      </trkpt>
      <trkpt lat="43.58335" lon="1.13298">
        <ele>272.8</ele>
        <time>2020-11-29T11:03:36Z</time>
      </trkpt>
      <trkpt lat="43.58336" lon="1.13299">
        <ele>272.5</ele>
        <time>2020-11-29T11:03:37Z</time>
      </trkpt>
      <trkpt lat="43.58338" lon="1.133">
        <ele>272</ele>
        <time>2020-11-29T11:03:38Z</time>
      </trkpt>
      <trkpt lat="43.58339" lon="1.13301">
        <ele>271.8</ele>
        <time>2020-11-29T11:03:39Z</time>
      </trkpt>
      <trkpt lat="43.5834" lon="1.13302">
        <ele>271.6</ele>
        <time>2020-11-29T11:03:40Z</time>
      </trkpt>
      <trkpt lat="43.58342" lon="1.13306">
        <ele>270.8</ele>
        <time>2020-11-29T11:03:41Z</time>
      </trkpt>
      <trkpt lat="43.58343" lon="1.13307">
        <ele>270.5</ele>
        <time>2020-11-29T11:03:42Z</time>
      </trkpt>
      <trkpt lat="43.58345" lon="1.13311">
        <ele>269.8</ele>
        <time>2020-11-29T11:03:43Z</time>
      </trkpt>
      <trkpt lat="43.58345" lon="1.13311">
        <ele>269.7</ele>
        <time>2020-11-29T11:03:44Z</time>
      </trkpt>
      <trkpt lat="43.58347" lon="1.13313">
        <ele>269.2</ele>
        <time>2020-11-29T11:03:45Z</time>
      </trkpt>
      <trkpt lat="43.58347" lon="1.13314">
        <ele>269</ele>
        <time>2020-11-29T11:03:46Z</time>
      </trkpt>
      <trkpt lat="43.58348" lon="1.13314">
        <ele>268.9</ele>
        <time>2020-11-29T11:03:47Z</time>
      </trkpt>
      <trkpt lat="43.58349" lon="1.13314">
        <ele>268.7</ele>
        <time>2020-11-29T11:03:48Z</time>
      </trkpt>
      <trkpt lat="43.58349" lon="1.13315">
        <ele>268.5</ele>
        <time>2020-11-29T11:03:49Z</time>
      </trkpt>
      <trkpt lat="43.5835" lon="1.13315">
        <ele>268.4</ele>
        <time>2020-11-29T11:03:50Z</time>
      </trkpt>
      <trkpt lat="43.58352" lon="1.13314">
        <ele>267.9</ele>
        <time>2020-11-29T11:03:51Z</time>
      </trkpt>
      <trkpt lat="43.58355" lon="1.13313">
        <ele>267.3</ele>
        <time>2020-11-29T11:03:52Z</time>
      </trkpt>
      <trkpt lat="43.58356" lon="1.13312">
        <ele>267.2</ele>
        <time>2020-11-29T11:03:53Z</time>
      </trkpt>
      <trkpt lat="43.58356" lon="1.13312">
        <ele>267</ele>
        <time>2020-11-29T11:03:54Z</time>
      </trkpt>
      <trkpt lat="43.58358" lon="1.13311">
        <ele>266.8</ele>
        <time>2020-11-29T11:03:55Z</time>
      </trkpt>
      <trkpt lat="43.58358" lon="1.1331">
        <ele>266.6</ele>
        <time>2020-11-29T11:03:56Z</time>
      </trkpt>
      <trkpt lat="43.58359" lon="1.1331">
        <ele>266.3</ele>
        <time>2020-11-29T11:03:57Z</time>
      </trkpt>
      <trkpt lat="43.58361" lon="1.13311">
        <ele>266</ele>
        <time>2020-11-29T11:03:58Z</time>
      </trkpt>
      <trkpt lat="43.58362" lon="1.13311">
        <ele>265.7</ele>
        <time>2020-11-29T11:03:59Z</time>
      </trkpt>
      <trkpt lat="43.58365" lon="1.13312">
        <ele>265.3</ele>
        <time>2020-11-29T11:04:00Z</time>
      </trkpt>
      <trkpt lat="43.58366" lon="1.13313">
        <ele>265.1</ele>
        <time>2020-11-29T11:04:01Z</time>
      </trkpt>
      <trkpt lat="43.5837" lon="1.13317">
        <ele>264.4</ele>
        <time>2020-11-29T11:04:02Z</time>
      </trkpt>
      <trkpt lat="43.58373" lon="1.1332">
        <ele>264.1</ele>
        <time>2020-11-29T11:04:03Z</time>
      </trkpt>
      <trkpt lat="43.58374" lon="1.13321">
        <ele>264</ele>
        <time>2020-11-29T11:04:04Z</time>
      </trkpt>
      <trkpt lat="43.58375" lon="1.13324">
        <ele>263.8</ele>
        <time>2020-11-29T11:04:05Z</time>
      </trkpt>
      <trkpt lat="43.58376" lon="1.13329">
        <ele>263.4</ele>
        <time>2020-11-29T11:04:06Z</time>
      </trkpt>
      <trkpt lat="43.58377" lon="1.13332">
        <ele>263.3</ele>
        <time>2020-11-29T11:04:07Z</time>
      </trkpt>
      <trkpt lat="43.58379" lon="1.13335">
        <ele>263</ele>
        <time>2020-11-29T11:04:08Z</time>
      </trkpt>
      <trkpt lat="43.5838" lon="1.13336">
        <ele>262.9</ele>
        <time>2020-11-29T11:04:09Z</time>
      </trkpt>
      <trkpt lat="43.58382" lon="1.13339">
        <ele>262.6</ele>
        <time>2020-11-29T11:04:10Z</time>
      </trkpt>
      <trkpt lat="43.58383" lon="1.13341">
        <ele>262.4</ele>
        <time>2020-11-29T11:04:11Z</time>
      </trkpt>
      <trkpt lat="43.58385" lon="1.13342">
        <ele>262.2</ele>
        <time>2020-11-29T11:04:12Z</time>
      </trkpt>
      <trkpt lat="43.58386" lon="1.13343">
        <ele>262.1</ele>
        <time>2020-11-29T11:04:13Z</time>
      </trkpt>
      <trkpt lat="43.58388" lon="1.13345">
        <ele>261.8</ele>
        <time>2020-11-29T11:04:14Z</time>
      </trkpt>
      <trkpt lat="43.58389" lon="1.13347">
        <ele>261.7</ele>
        <time>2020-11-29T11:04:15Z</time>
      </trkpt>
      <trkpt lat="43.58389" lon="1.13346">
        <ele>261.6</ele>
        <time>2020-11-29T11:04:16Z</time>
      </trkpt>
      <trkpt lat="43.5839" lon="1.13347">
        <ele>261.4</ele>
        <time>2020-11-29T11:04:17Z</time>
      </trkpt>
      <trkpt lat="43.58392" lon="1.13348">
        <ele>261.3</ele>
        <time>2020-11-29T11:04:18Z</time>
      </trkpt>
      <trkpt lat="43.58393" lon="1.1335">
        <ele>261</ele>
        <time>2020-11-29T11:04:19Z</time>
      </trkpt>
      <trkpt lat="43.58393" lon="1.1335">
        <ele>260.9</ele>
        <time>2020-11-29T11:04:20Z</time>
      </trkpt>
      <trkpt lat="43.58394" lon="1.13351">
        <ele>260.8</ele>
        <time>2020-11-29T11:04:21Z</time>
      </trkpt>
      <trkpt lat="43.58395" lon="1.13353">
        <ele>260.7</ele>
        <time>2020-11-29T11:04:22Z</time>
      </trkpt>
      <trkpt lat="43.58397" lon="1.1335">
        <ele>260.4</ele>
        <time>2020-11-29T11:04:23Z</time>
      </trkpt>
      <trkpt lat="43.58399" lon="1.13349">
        <ele>260</ele>
        <time>2020-11-29T11:04:24Z</time>
      </trkpt>
      <trkpt lat="43.58401" lon="1.13349">
        <ele>259.9</ele>
        <time>2020-11-29T11:04:25Z</time>
      </trkpt>
      <trkpt lat="43.58404" lon="1.1335">
        <ele>259.6</ele>
        <time>2020-11-29T11:04:26Z</time>
      </trkpt>
      <trkpt lat="43.58407" lon="1.13353">
        <ele>259.2</ele>
        <time>2020-11-29T11:04:27Z</time>
      </trkpt>
      <trkpt lat="43.58408" lon="1.13355">
        <ele>259</ele>
        <time>2020-11-29T11:04:28Z</time>
      </trkpt>
      <trkpt lat="43.58411" lon="1.13358">
        <ele>258.8</ele>
        <time>2020-11-29T11:04:29Z</time>
      </trkpt>
      <trkpt lat="43.58413" lon="1.13363">
        <ele>258.5</ele>
        <time>2020-11-29T11:04:30Z</time>
      </trkpt>
      <trkpt lat="43.58414" lon="1.13366">
        <ele>258.4</ele>
        <time>2020-11-29T11:04:31Z</time>
      </trkpt>
      <trkpt lat="43.58415" lon="1.13369">
        <ele>258.3</ele>
        <time>2020-11-29T11:04:32Z</time>
      </trkpt>
      <trkpt lat="43.58415" lon="1.13371">
        <ele>258.3</ele>
        <time>2020-11-29T11:04:33Z</time>
      </trkpt>
      <trkpt lat="43.58416" lon="1.13375">
        <ele>258.3</ele>
        <time>2020-11-29T11:04:34Z</time>
      </trkpt>
      <trkpt lat="43.58417" lon="1.13377">
        <ele>258.3</ele>
        <time>2020-11-29T11:04:35Z</time>
      </trkpt>
      <trkpt lat="43.58418" lon="1.13379">
        <ele>258.4</ele>
        <time>2020-11-29T11:04:36Z</time>
      </trkpt>
      <trkpt lat="43.58419" lon="1.13379">
        <ele>258.4</ele>
        <time>2020-11-29T11:04:37Z</time>
      </trkpt>
      <trkpt lat="43.58419" lon="1.1338">
        <ele>258.4</ele>
        <time>2020-11-29T11:04:38Z</time>
      </trkpt>
      <trkpt lat="43.58419" lon="1.13379">
        <ele>258.4</ele>
        <time>2020-11-29T11:04:39Z</time>
      </trkpt>
      <trkpt lat="43.58421" lon="1.1338">
        <ele>258.5</ele>
        <time>2020-11-29T11:04:40Z</time>
      </trkpt>
      <trkpt lat="43.58422" lon="1.1338">
        <ele>258.6</ele>
        <time>2020-11-29T11:04:41Z</time>
      </trkpt>
      <trkpt lat="43.58423" lon="1.1338">
        <ele>258.7</ele>
        <time>2020-11-29T11:04:42Z</time>
      </trkpt>
      <trkpt lat="43.58425" lon="1.1338">
        <ele>258.8</ele>
        <time>2020-11-29T11:04:43Z</time>
      </trkpt>
      <trkpt lat="43.58428" lon="1.13381">
        <ele>259.1</ele>
        <time>2020-11-29T11:04:44Z</time>
      </trkpt>
      <trkpt lat="43.58429" lon="1.13381">
        <ele>259.2</ele>
        <time>2020-11-29T11:04:45Z</time>
      </trkpt>
      <trkpt lat="43.5843" lon="1.13383">
        <ele>259.4</ele>
        <time>2020-11-29T11:04:46Z</time>
      </trkpt>
      <trkpt lat="43.58431" lon="1.13384">
        <ele>259.5</ele>
        <time>2020-11-29T11:04:47Z</time>
      </trkpt>
      <trkpt lat="43.58432" lon="1.13384">
        <ele>259.7</ele>
        <time>2020-11-29T11:04:48Z</time>
      </trkpt>
      <trkpt lat="43.58434" lon="1.13384">
        <ele>259.9</ele>
        <time>2020-11-29T11:04:49Z</time>
      </trkpt>
      <trkpt lat="43.58434" lon="1.13384">
        <ele>259.9</ele>
        <time>2020-11-29T11:04:50Z</time>
      </trkpt>
      <trkpt lat="43.58436" lon="1.13381">
        <ele>260.3</ele>
        <time>2020-11-29T11:04:51Z</time>
      </trkpt>
      <trkpt lat="43.58437" lon="1.13376">
        <ele>260.8</ele>
        <time>2020-11-29T11:04:52Z</time>
      </trkpt>
      <trkpt lat="43.58438" lon="1.13374">
        <ele>261.1</ele>
        <time>2020-11-29T11:04:53Z</time>
      </trkpt>
      <trkpt lat="43.58439" lon="1.1337">
        <ele>261.4</ele>
        <time>2020-11-29T11:04:54Z</time>
      </trkpt>
      <trkpt lat="43.5844" lon="1.1337">
        <ele>261.6</ele>
        <time>2020-11-29T11:04:55Z</time>
      </trkpt>
      <trkpt lat="43.58442" lon="1.13368">
        <ele>261.9</ele>
        <time>2020-11-29T11:04:56Z</time>
      </trkpt>
      <trkpt lat="43.58443" lon="1.13367">
        <ele>262</ele>
        <time>2020-11-29T11:04:57Z</time>
      </trkpt>
      <trkpt lat="43.58445" lon="1.13363">
        <ele>262.4</ele>
        <time>2020-11-29T11:04:58Z</time>
      </trkpt>
      <trkpt lat="43.58447" lon="1.13359">
        <ele>262.7</ele>
        <time>2020-11-29T11:04:59Z</time>
      </trkpt>
      <trkpt lat="43.58448" lon="1.13358">
        <ele>262.8</ele>
        <time>2020-11-29T11:05:00Z</time>
      </trkpt>
      <trkpt lat="43.58451" lon="1.13356">
        <ele>263</ele>
        <time>2020-11-29T11:05:01Z</time>
      </trkpt>
      <trkpt lat="43.58453" lon="1.13355">
        <ele>263.2</ele>
        <time>2020-11-29T11:05:02Z</time>
      </trkpt>
      <trkpt lat="43.58455" lon="1.13354">
        <ele>263.2</ele>
        <time>2020-11-29T11:05:03Z</time>
      </trkpt>
      <trkpt lat="43.58457" lon="1.13352">
        <ele>263.4</ele>
        <time>2020-11-29T11:05:04Z</time>
      </trkpt>
      <trkpt lat="43.5846" lon="1.13351">
        <ele>263.5</ele>
        <time>2020-11-29T11:05:05Z</time>
      </trkpt>
      <trkpt lat="43.58464" lon="1.1335">
        <ele>263.6</ele>
        <time>2020-11-29T11:05:06Z</time>
      </trkpt>
      <trkpt lat="43.58468" lon="1.13347">
        <ele>263.7</ele>
        <time>2020-11-29T11:05:07Z</time>
      </trkpt>
      <trkpt lat="43.58471" lon="1.13344">
        <ele>263.8</ele>
        <time>2020-11-29T11:05:08Z</time>
      </trkpt>
      <trkpt lat="43.58474" lon="1.13342">
        <ele>263.9</ele>
        <time>2020-11-29T11:05:09Z</time>
      </trkpt>
      <trkpt lat="43.58475" lon="1.13341">
        <ele>264</ele>
        <time>2020-11-29T11:05:10Z</time>
      </trkpt>
      <trkpt lat="43.58476" lon="1.1334">
        <ele>264</ele>
        <time>2020-11-29T11:05:11Z</time>
      </trkpt>
      <trkpt lat="43.58479" lon="1.1334">
        <ele>264.1</ele>
        <time>2020-11-29T11:05:12Z</time>
      </trkpt>
      <trkpt lat="43.5848" lon="1.13341">
        <ele>264.2</ele>
        <time>2020-11-29T11:05:13Z</time>
      </trkpt>
      <trkpt lat="43.58481" lon="1.13341">
        <ele>264.2</ele>
        <time>2020-11-29T11:05:14Z</time>
      </trkpt>
      <trkpt lat="43.58483" lon="1.1334">
        <ele>264.3</ele>
        <time>2020-11-29T11:05:15Z</time>
      </trkpt>
      <trkpt lat="43.58484" lon="1.13338">
        <ele>264.4</ele>
        <time>2020-11-29T11:05:16Z</time>
      </trkpt>
      <trkpt lat="43.58486" lon="1.13339">
        <ele>264.5</ele>
        <time>2020-11-29T11:05:17Z</time>
      </trkpt>
      <trkpt lat="43.58488" lon="1.13336">
        <ele>264.7</ele>
        <time>2020-11-29T11:05:18Z</time>
      </trkpt>
      <trkpt lat="43.5849" lon="1.13335">
        <ele>264.8</ele>
        <time>2020-11-29T11:05:19Z</time>
      </trkpt>
      <trkpt lat="43.58492" lon="1.13334">
        <ele>264.9</ele>
        <time>2020-11-29T11:05:20Z</time>
      </trkpt>
      <trkpt lat="43.58496" lon="1.13332">
        <ele>265.2</ele>
        <time>2020-11-29T11:05:21Z</time>
      </trkpt>
      <trkpt lat="43.58498" lon="1.1333">
        <ele>265.4</ele>
        <time>2020-11-29T11:05:22Z</time>
      </trkpt>
      <trkpt lat="43.58499" lon="1.1333">
        <ele>265.5</ele>
        <time>2020-11-29T11:05:23Z</time>
      </trkpt>
      <trkpt lat="43.58499" lon="1.13329">
        <ele>265.6</ele>
        <time>2020-11-29T11:05:24Z</time>
      </trkpt>
      <trkpt lat="43.58503" lon="1.13326">
        <ele>266.1</ele>
        <time>2020-11-29T11:05:25Z</time>
      </trkpt>
      <trkpt lat="43.58506" lon="1.13324">
        <ele>266.4</ele>
        <time>2020-11-29T11:05:26Z</time>
      </trkpt>
      <trkpt lat="43.58506" lon="1.13323">
        <ele>266.5</ele>
        <time>2020-11-29T11:05:27Z</time>
      </trkpt>
      <trkpt lat="43.58505" lon="1.13322">
        <ele>266.6</ele>
        <time>2020-11-29T11:05:28Z</time>
      </trkpt>
      <trkpt lat="43.58508" lon="1.13326">
        <ele>267.1</ele>
        <time>2020-11-29T11:05:29Z</time>
      </trkpt>
      <trkpt lat="43.58507" lon="1.13323">
        <ele>267.4</ele>
        <time>2020-11-29T11:05:30Z</time>
      </trkpt>
      <trkpt lat="43.5851" lon="1.13326">
        <ele>268</ele>
        <time>2020-11-29T11:05:31Z</time>
      </trkpt>
      <trkpt lat="43.58512" lon="1.13328">
        <ele>268.3</ele>
        <time>2020-11-29T11:05:32Z</time>
      </trkpt>
      <trkpt lat="43.58513" lon="1.1333">
        <ele>268.5</ele>
        <time>2020-11-29T11:05:33Z</time>
      </trkpt>
      <trkpt lat="43.58515" lon="1.13332">
        <ele>268.7</ele>
        <time>2020-11-29T11:05:34Z</time>
      </trkpt>
      <trkpt lat="43.58516" lon="1.13334">
        <ele>269</ele>
        <time>2020-11-29T11:05:35Z</time>
      </trkpt>
      <trkpt lat="43.58517" lon="1.13336">
        <ele>269.1</ele>
        <time>2020-11-29T11:05:36Z</time>
      </trkpt>
      <trkpt lat="43.58518" lon="1.13338">
        <ele>269.2</ele>
        <time>2020-11-29T11:05:37Z</time>
      </trkpt>
      <trkpt lat="43.58518" lon="1.13338">
        <ele>269.3</ele>
        <time>2020-11-29T11:05:38Z</time>
      </trkpt>
      <trkpt lat="43.58518" lon="1.13338">
        <ele>269.3</ele>
        <time>2020-11-29T11:05:39Z</time>
      </trkpt>
      <trkpt lat="43.58518" lon="1.13338">
        <ele>269.3</ele>
        <time>2020-11-29T11:05:40Z</time>
      </trkpt>
      <trkpt lat="43.58518" lon="1.13338">
        <ele>269.4</ele>
        <time>2020-11-29T11:05:41Z</time>
      </trkpt>
      <trkpt lat="43.58519" lon="1.13339">
        <ele>269.4</ele>
        <time>2020-11-29T11:05:42Z</time>
      </trkpt>
      <trkpt lat="43.58519" lon="1.1334">
        <ele>269.4</ele>
        <time>2020-11-29T11:05:43Z</time>
      </trkpt>
      <trkpt lat="43.58518" lon="1.1334">
        <ele>269.5</ele>
        <time>2020-11-29T11:05:44Z</time>
      </trkpt>
      <trkpt lat="43.58518" lon="1.1334">
        <ele>269.5</ele>
        <time>2020-11-29T11:05:45Z</time>
      </trkpt>
      <trkpt lat="43.58518" lon="1.13341">
        <ele>269.6</ele>
        <time>2020-11-29T11:05:46Z</time>
      </trkpt>
      <trkpt lat="43.58518" lon="1.13341">
        <ele>269.6</ele>
        <time>2020-11-29T11:05:47Z</time>
      </trkpt>
      <trkpt lat="43.58519" lon="1.1334">
        <ele>269.6</ele>
        <time>2020-11-29T11:05:48Z</time>
      </trkpt>
      <trkpt lat="43.58519" lon="1.13338">
        <ele>269.7</ele>
        <time>2020-11-29T11:05:49Z</time>
      </trkpt>
      <trkpt lat="43.58519" lon="1.13339">
        <ele>269.7</ele>
        <time>2020-11-29T11:05:50Z</time>
      </trkpt>
      <trkpt lat="43.58519" lon="1.13339">
        <ele>269.8</ele>
        <time>2020-11-29T11:05:51Z</time>
      </trkpt>
      <trkpt lat="43.58519" lon="1.1334">
        <ele>269.8</ele>
        <time>2020-11-29T11:05:52Z</time>
      </trkpt>
      <trkpt lat="43.58519" lon="1.13341">
        <ele>269.8</ele>
        <time>2020-11-29T11:05:53Z</time>
      </trkpt>
      <trkpt lat="43.58519" lon="1.13341">
        <ele>269.8</ele>
        <time>2020-11-29T11:05:54Z</time>
      </trkpt>
      <trkpt lat="43.58519" lon="1.13341">
        <ele>269.8</ele>
        <time>2020-11-29T11:05:55Z</time>
      </trkpt>
      <trkpt lat="43.58519" lon="1.13342">
        <ele>269.9</ele>
        <time>2020-11-29T11:05:56Z</time>
      </trkpt>
      <trkpt lat="43.58519" lon="1.13342">
        <ele>269.9</ele>
        <time>2020-11-29T11:05:57Z</time>
      </trkpt>
      <trkpt lat="43.58519" lon="1.13342">
        <ele>269.9</ele>
        <time>2020-11-29T11:05:58Z</time>
      </trkpt>
      <trkpt lat="43.58519" lon="1.13343">
        <ele>269.9</ele>
        <time>2020-11-29T11:05:59Z</time>
      </trkpt>
      <trkpt lat="43.5852" lon="1.13343">
        <ele>270</ele>
        <time>2020-11-29T11:06:00Z</time>
      </trkpt>
      <trkpt lat="43.5852" lon="1.13344">
        <ele>270</ele>
        <time>2020-11-29T11:06:01Z</time>
      </trkpt>
      <trkpt lat="43.58521" lon="1.13344">
        <ele>270</ele>
        <time>2020-11-29T11:06:02Z</time>
      </trkpt>
      <trkpt lat="43.5852" lon="1.13346">
        <ele>270</ele>
        <time>2020-11-29T11:06:03Z</time>
      </trkpt>
      <trkpt lat="43.58521" lon="1.13346">
        <ele>270</ele>
        <time>2020-11-29T11:06:04Z</time>
      </trkpt>
      <trkpt lat="43.58521" lon="1.13347">
        <ele>270.1</ele>
        <time>2020-11-29T11:06:05Z</time>
      </trkpt>
      <trkpt lat="43.58522" lon="1.13349">
        <ele>270.1</ele>
        <time>2020-11-29T11:06:06Z</time>
      </trkpt>
      <trkpt lat="43.58524" lon="1.1335">
        <ele>270.1</ele>
        <time>2020-11-29T11:06:07Z</time>
      </trkpt>
      <trkpt lat="43.58525" lon="1.13351">
        <ele>270.1</ele>
        <time>2020-11-29T11:06:08Z</time>
      </trkpt>
      <trkpt lat="43.58526" lon="1.1335">
        <ele>270.1</ele>
        <time>2020-11-29T11:06:09Z</time>
      </trkpt>
      <trkpt lat="43.58527" lon="1.1335">
        <ele>270</ele>
        <time>2020-11-29T11:06:10Z</time>
      </trkpt>
      <trkpt lat="43.58528" lon="1.13349">
        <ele>270</ele>
        <time>2020-11-29T11:06:11Z</time>
      </trkpt>
      <trkpt lat="43.58529" lon="1.13348">
        <ele>270</ele>
        <time>2020-11-29T11:06:12Z</time>
      </trkpt>
      <trkpt lat="43.5853" lon="1.13348">
        <ele>270</ele>
        <time>2020-11-29T11:06:13Z</time>
      </trkpt>
      <trkpt lat="43.58531" lon="1.13348">
        <ele>270</ele>
        <time>2020-11-29T11:06:14Z</time>
      </trkpt>
      <trkpt lat="43.58533" lon="1.1335">
        <ele>269.9</ele>
        <time>2020-11-29T11:06:15Z</time>
      </trkpt>
      <trkpt lat="43.58534" lon="1.13351">
        <ele>269.8</ele>
        <time>2020-11-29T11:06:16Z</time>
      </trkpt>
      <trkpt lat="43.58536" lon="1.13351">
        <ele>269.7</ele>
        <time>2020-11-29T11:06:17Z</time>
      </trkpt>
      <trkpt lat="43.58537" lon="1.13351">
        <ele>269.7</ele>
        <time>2020-11-29T11:06:18Z</time>
      </trkpt>
      <trkpt lat="43.58538" lon="1.1335">
        <ele>269.6</ele>
        <time>2020-11-29T11:06:19Z</time>
      </trkpt>
      <trkpt lat="43.5854" lon="1.1335">
        <ele>269.5</ele>
        <time>2020-11-29T11:06:20Z</time>
      </trkpt>
      <trkpt lat="43.58541" lon="1.13349">
        <ele>269.4</ele>
        <time>2020-11-29T11:06:21Z</time>
      </trkpt>
      <trkpt lat="43.58542" lon="1.13349">
        <ele>269.4</ele>
        <time>2020-11-29T11:06:22Z</time>
      </trkpt>
      <trkpt lat="43.58542" lon="1.13349">
        <ele>269.3</ele>
        <time>2020-11-29T11:06:23Z</time>
      </trkpt>
      <trkpt lat="43.58542" lon="1.13347">
        <ele>269.3</ele>
        <time>2020-11-29T11:06:24Z</time>
      </trkpt>
      <trkpt lat="43.58542" lon="1.13348">
        <ele>269.3</ele>
        <time>2020-11-29T11:06:25Z</time>
      </trkpt>
      <trkpt lat="43.58542" lon="1.13347">
        <ele>269.3</ele>
        <time>2020-11-29T11:06:26Z</time>
      </trkpt>
      <trkpt lat="43.58541" lon="1.13347">
        <ele>269.2</ele>
        <time>2020-11-29T11:06:27Z</time>
      </trkpt>
      <trkpt lat="43.58541" lon="1.13347">
        <ele>269.1</ele>
        <time>2020-11-29T11:06:28Z</time>
      </trkpt>
      <trkpt lat="43.58542" lon="1.13348">
        <ele>269</ele>
        <time>2020-11-29T11:06:29Z</time>
      </trkpt>
      <trkpt lat="43.58541" lon="1.13351">
        <ele>268.8</ele>
        <time>2020-11-29T11:06:30Z</time>
      </trkpt>
      <trkpt lat="43.58541" lon="1.13351">
        <ele>268.7</ele>
        <time>2020-11-29T11:06:31Z</time>
      </trkpt>
      <trkpt lat="43.58543" lon="1.13355">
        <ele>268.3</ele>
        <time>2020-11-29T11:06:32Z</time>
      </trkpt>
      <trkpt lat="43.58545" lon="1.13357">
        <ele>268.6</ele>
        <time>2020-11-29T11:06:33Z</time>
      </trkpt>
      <trkpt lat="43.58546" lon="1.13361">
        <ele>268.1</ele>
        <time>2020-11-29T11:06:34Z</time>
      </trkpt>
      <trkpt lat="43.58547" lon="1.13362">
        <ele>268.3</ele>
        <time>2020-11-29T11:06:35Z</time>
      </trkpt>
      <trkpt lat="43.58547" lon="1.13364">
        <ele>268.3</ele>
        <time>2020-11-29T11:06:36Z</time>
      </trkpt>
      <trkpt lat="43.58548" lon="1.13364">
        <ele>268.2</ele>
        <time>2020-11-29T11:06:37Z</time>
      </trkpt>
      <trkpt lat="43.58549" lon="1.13366">
        <ele>268</ele>
        <time>2020-11-29T11:06:38Z</time>
      </trkpt>
      <trkpt lat="43.5855" lon="1.13368">
        <ele>268</ele>
        <time>2020-11-29T11:06:39Z</time>
      </trkpt>
      <trkpt lat="43.58551" lon="1.13369">
        <ele>267.9</ele>
        <time>2020-11-29T11:06:40Z</time>
      </trkpt>
      <trkpt lat="43.58552" lon="1.13374">
        <ele>268.5</ele>
        <time>2020-11-29T11:06:41Z</time>
      </trkpt>
      <trkpt lat="43.58553" lon="1.13378">
        <ele>268</ele>
        <time>2020-11-29T11:06:42Z</time>
      </trkpt>
      <trkpt lat="43.58553" lon="1.13379">
        <ele>268.2</ele>
        <time>2020-11-29T11:06:43Z</time>
      </trkpt>
      <trkpt lat="43.58554" lon="1.13383">
        <ele>268.4</ele>
        <time>2020-11-29T11:06:44Z</time>
      </trkpt>
      <trkpt lat="43.58555" lon="1.13387">
        <ele>268.2</ele>
        <time>2020-11-29T11:06:45Z</time>
      </trkpt>
      <trkpt lat="43.58556" lon="1.13389">
        <ele>268.1</ele>
        <time>2020-11-29T11:06:46Z</time>
      </trkpt>
      <trkpt lat="43.58558" lon="1.13393">
        <ele>268.3</ele>
        <time>2020-11-29T11:06:47Z</time>
      </trkpt>
      <trkpt lat="43.58558" lon="1.13394">
        <ele>267.7</ele>
        <time>2020-11-29T11:06:48Z</time>
      </trkpt>
      <trkpt lat="43.5856" lon="1.13398">
        <ele>267.9</ele>
        <time>2020-11-29T11:06:49Z</time>
      </trkpt>
      <trkpt lat="43.5856" lon="1.13399">
        <ele>267.9</ele>
        <time>2020-11-29T11:06:50Z</time>
      </trkpt>
      <trkpt lat="43.58562" lon="1.13399">
        <ele>267.3</ele>
        <time>2020-11-29T11:06:51Z</time>
      </trkpt>
      <trkpt lat="43.58563" lon="1.134">
        <ele>267.5</ele>
        <time>2020-11-29T11:06:52Z</time>
      </trkpt>
      <trkpt lat="43.58566" lon="1.13405">
        <ele>267.2</ele>
        <time>2020-11-29T11:06:53Z</time>
      </trkpt>
      <trkpt lat="43.58566" lon="1.13407">
        <ele>267.1</ele>
        <time>2020-11-29T11:06:54Z</time>
      </trkpt>
      <trkpt lat="43.58568" lon="1.1341">
        <ele>266.8</ele>
        <time>2020-11-29T11:06:55Z</time>
      </trkpt>
      <trkpt lat="43.58569" lon="1.13415">
        <ele>267</ele>
        <time>2020-11-29T11:06:56Z</time>
      </trkpt>
      <trkpt lat="43.58569" lon="1.13416">
        <ele>267</ele>
        <time>2020-11-29T11:06:57Z</time>
      </trkpt>
      <trkpt lat="43.5857" lon="1.1342">
        <ele>267.2</ele>
        <time>2020-11-29T11:06:58Z</time>
      </trkpt>
      <trkpt lat="43.5857" lon="1.13422">
        <ele>267.4</ele>
        <time>2020-11-29T11:06:59Z</time>
      </trkpt>
      <trkpt lat="43.58572" lon="1.13427">
        <ele>267.1</ele>
        <time>2020-11-29T11:07:00Z</time>
      </trkpt>
      <trkpt lat="43.58572" lon="1.13428">
        <ele>267</ele>
        <time>2020-11-29T11:07:01Z</time>
      </trkpt>
      <trkpt lat="43.58572" lon="1.1343">
        <ele>267.2</ele>
        <time>2020-11-29T11:07:02Z</time>
      </trkpt>
      <trkpt lat="43.58573" lon="1.13432">
        <ele>267.1</ele>
        <time>2020-11-29T11:07:03Z</time>
      </trkpt>
      <trkpt lat="43.58574" lon="1.13433">
        <ele>267</ele>
        <time>2020-11-29T11:07:04Z</time>
      </trkpt>
      <trkpt lat="43.58574" lon="1.13434">
        <ele>266.7</ele>
        <time>2020-11-29T11:07:05Z</time>
      </trkpt>
      <trkpt lat="43.58575" lon="1.13434">
        <ele>266.6</ele>
        <time>2020-11-29T11:07:06Z</time>
      </trkpt>
      <trkpt lat="43.58575" lon="1.13435">
        <ele>266.5</ele>
        <time>2020-11-29T11:07:07Z</time>
      </trkpt>
      <trkpt lat="43.58576" lon="1.13436">
        <ele>266.5</ele>
        <time>2020-11-29T11:07:08Z</time>
      </trkpt>
      <trkpt lat="43.58577" lon="1.1344">
        <ele>266.1</ele>
        <time>2020-11-29T11:07:09Z</time>
      </trkpt>
      <trkpt lat="43.58578" lon="1.13441">
        <ele>266.1</ele>
        <time>2020-11-29T11:07:10Z</time>
      </trkpt>
      <trkpt lat="43.5858" lon="1.13447">
        <ele>266.2</ele>
        <time>2020-11-29T11:07:11Z</time>
      </trkpt>
      <trkpt lat="43.58582" lon="1.13451">
        <ele>265.8</ele>
        <time>2020-11-29T11:07:12Z</time>
      </trkpt>
      <trkpt lat="43.58583" lon="1.13452">
        <ele>266</ele>
        <time>2020-11-29T11:07:13Z</time>
      </trkpt>
      <trkpt lat="43.58584" lon="1.13457">
        <ele>265.6</ele>
        <time>2020-11-29T11:07:14Z</time>
      </trkpt>
      <trkpt lat="43.58586" lon="1.13462">
        <ele>265.7</ele>
        <time>2020-11-29T11:07:15Z</time>
      </trkpt>
      <trkpt lat="43.58589" lon="1.13462">
        <ele>265.1</ele>
        <time>2020-11-29T11:07:16Z</time>
      </trkpt>
      <trkpt lat="43.58588" lon="1.13464">
        <ele>265.2</ele>
        <time>2020-11-29T11:07:17Z</time>
      </trkpt>
      <trkpt lat="43.58586" lon="1.13465">
        <ele>265.8</ele>
        <time>2020-11-29T11:07:18Z</time>
      </trkpt>
      <trkpt lat="43.58583" lon="1.13461">
        <ele>265.5</ele>
        <time>2020-11-29T11:07:19Z</time>
      </trkpt>
      <trkpt lat="43.58583" lon="1.13462">
        <ele>266</ele>
        <time>2020-11-29T11:07:20Z</time>
      </trkpt>
      <trkpt lat="43.58584" lon="1.13461">
        <ele>265.4</ele>
        <time>2020-11-29T11:07:21Z</time>
      </trkpt>
      <trkpt lat="43.58584" lon="1.13465">
        <ele>265.5</ele>
        <time>2020-11-29T11:07:22Z</time>
      </trkpt>
      <trkpt lat="43.58587" lon="1.13469">
        <ele>265.1</ele>
        <time>2020-11-29T11:07:23Z</time>
      </trkpt>
      <trkpt lat="43.58587" lon="1.1348">
        <ele>265.4</ele>
        <time>2020-11-29T11:07:24Z</time>
      </trkpt>
      <trkpt lat="43.58589" lon="1.13486">
        <ele>265.7</ele>
        <time>2020-11-29T11:07:25Z</time>
      </trkpt>
      <trkpt lat="43.58591" lon="1.1349">
        <ele>265.2</ele>
        <time>2020-11-29T11:07:26Z</time>
      </trkpt>
      <trkpt lat="43.58592" lon="1.13495">
        <ele>265.3</ele>
        <time>2020-11-29T11:07:27Z</time>
      </trkpt>
      <trkpt lat="43.58595" lon="1.13501">
        <ele>264.8</ele>
        <time>2020-11-29T11:07:28Z</time>
      </trkpt>
      <trkpt lat="43.58597" lon="1.13504">
        <ele>264.3</ele>
        <time>2020-11-29T11:07:29Z</time>
      </trkpt>
      <trkpt lat="43.586" lon="1.13506">
        <ele>263.7</ele>
        <time>2020-11-29T11:07:30Z</time>
      </trkpt>
      <trkpt lat="43.58604" lon="1.13512">
        <ele>263.4</ele>
        <time>2020-11-29T11:07:31Z</time>
      </trkpt>
      <trkpt lat="43.58604" lon="1.13516">
        <ele>263.6</ele>
        <time>2020-11-29T11:07:32Z</time>
      </trkpt>
      <trkpt lat="43.58608" lon="1.1352">
        <ele>262.2</ele>
        <time>2020-11-29T11:07:33Z</time>
      </trkpt>
      <trkpt lat="43.58611" lon="1.13522">
        <ele>262.3</ele>
        <time>2020-11-29T11:07:34Z</time>
      </trkpt>
      <trkpt lat="43.58614" lon="1.13526">
        <ele>261.8</ele>
        <time>2020-11-29T11:07:35Z</time>
      </trkpt>
      <trkpt lat="43.58615" lon="1.13527">
        <ele>261</ele>
        <time>2020-11-29T11:07:36Z</time>
      </trkpt>
      <trkpt lat="43.58621" lon="1.13528">
        <ele>259.8</ele>
        <time>2020-11-29T11:07:37Z</time>
      </trkpt>
      <trkpt lat="43.58625" lon="1.1353">
        <ele>259.3</ele>
        <time>2020-11-29T11:07:38Z</time>
      </trkpt>
      <trkpt lat="43.58627" lon="1.13533">
        <ele>258.8</ele>
        <time>2020-11-29T11:07:39Z</time>
      </trkpt>
      <trkpt lat="43.5863" lon="1.13535">
        <ele>258.2</ele>
        <time>2020-11-29T11:07:40Z</time>
      </trkpt>
      <trkpt lat="43.58631" lon="1.13535">
        <ele>258.1</ele>
        <time>2020-11-29T11:07:41Z</time>
      </trkpt>
      <trkpt lat="43.58635" lon="1.13538">
        <ele>257.6</ele>
        <time>2020-11-29T11:07:42Z</time>
      </trkpt>
      <trkpt lat="43.58637" lon="1.1354">
        <ele>256.8</ele>
        <time>2020-11-29T11:07:43Z</time>
      </trkpt>
      <trkpt lat="43.58639" lon="1.13544">
        <ele>256.9</ele>
        <time>2020-11-29T11:07:44Z</time>
      </trkpt>
      <trkpt lat="43.58642" lon="1.13546">
        <ele>256.4</ele>
        <time>2020-11-29T11:07:45Z</time>
      </trkpt>
      <trkpt lat="43.58642" lon="1.13547">
        <ele>256.3</ele>
        <time>2020-11-29T11:07:46Z</time>
      </trkpt>
      <trkpt lat="43.58642" lon="1.13548">
        <ele>256.3</ele>
        <time>2020-11-29T11:07:47Z</time>
      </trkpt>
      <trkpt lat="43.58642" lon="1.13545">
        <ele>255.4</ele>
        <time>2020-11-29T11:07:48Z</time>
      </trkpt>
      <trkpt lat="43.58642" lon="1.13545">
        <ele>255.3</ele>
        <time>2020-11-29T11:07:49Z</time>
      </trkpt>
      <trkpt lat="43.58641" lon="1.13545">
        <ele>255.9</ele>
        <time>2020-11-29T11:07:50Z</time>
      </trkpt>
      <trkpt lat="43.58642" lon="1.13546">
        <ele>256</ele>
        <time>2020-11-29T11:07:51Z</time>
      </trkpt>
      <trkpt lat="43.58642" lon="1.13547">
        <ele>256</ele>
        <time>2020-11-29T11:07:52Z</time>
      </trkpt>
      <trkpt lat="43.58643" lon="1.13547">
        <ele>255.3</ele>
        <time>2020-11-29T11:07:53Z</time>
      </trkpt>
      <trkpt lat="43.58643" lon="1.13547">
        <ele>255.2</ele>
        <time>2020-11-29T11:07:54Z</time>
      </trkpt>
      <trkpt lat="43.5864" lon="1.13547">
        <ele>255.8</ele>
        <time>2020-11-29T11:07:55Z</time>
      </trkpt>
      <trkpt lat="43.58642" lon="1.13547">
        <ele>255.7</ele>
        <time>2020-11-29T11:07:56Z</time>
      </trkpt>
      <trkpt lat="43.58643" lon="1.13549">
        <ele>255</ele>
        <time>2020-11-29T11:07:57Z</time>
      </trkpt>
      <trkpt lat="43.58643" lon="1.13549">
        <ele>255</ele>
        <time>2020-11-29T11:07:58Z</time>
      </trkpt>
      <trkpt lat="43.58644" lon="1.13551">
        <ele>255.1</ele>
        <time>2020-11-29T11:07:59Z</time>
      </trkpt>
      <trkpt lat="43.58648" lon="1.13555">
        <ele>254</ele>
        <time>2020-11-29T11:08:00Z</time>
      </trkpt>
      <trkpt lat="43.58651" lon="1.13558">
        <ele>254</ele>
        <time>2020-11-29T11:08:01Z</time>
      </trkpt>
      <trkpt lat="43.58652" lon="1.13561">
        <ele>253.5</ele>
        <time>2020-11-29T11:08:02Z</time>
      </trkpt>
      <trkpt lat="43.58652" lon="1.13563">
        <ele>253.6</ele>
        <time>2020-11-29T11:08:03Z</time>
      </trkpt>
      <trkpt lat="43.58653" lon="1.13565">
        <ele>253.5</ele>
        <time>2020-11-29T11:08:04Z</time>
      </trkpt>
      <trkpt lat="43.58654" lon="1.13568">
        <ele>253.6</ele>
        <time>2020-11-29T11:08:05Z</time>
      </trkpt>
      <trkpt lat="43.58652" lon="1.1357">
        <ele>253.5</ele>
        <time>2020-11-29T11:08:06Z</time>
      </trkpt>
      <trkpt lat="43.58652" lon="1.13572">
        <ele>253.6</ele>
        <time>2020-11-29T11:08:07Z</time>
      </trkpt>
      <trkpt lat="43.58652" lon="1.13573">
        <ele>253.5</ele>
        <time>2020-11-29T11:08:08Z</time>
      </trkpt>
      <trkpt lat="43.58653" lon="1.13574">
        <ele>253.5</ele>
        <time>2020-11-29T11:08:09Z</time>
      </trkpt>
      <trkpt lat="43.58652" lon="1.13574">
        <ele>253.4</ele>
        <time>2020-11-29T11:08:10Z</time>
      </trkpt>
      <trkpt lat="43.58652" lon="1.13573">
        <ele>253.4</ele>
        <time>2020-11-29T11:08:11Z</time>
      </trkpt>
      <trkpt lat="43.58653" lon="1.13572">
        <ele>253.3</ele>
        <time>2020-11-29T11:08:12Z</time>
      </trkpt>
      <trkpt lat="43.58655" lon="1.13574">
        <ele>252.6</ele>
        <time>2020-11-29T11:08:13Z</time>
      </trkpt>
      <trkpt lat="43.58657" lon="1.13573">
        <ele>252.5</ele>
        <time>2020-11-29T11:08:14Z</time>
      </trkpt>
      <trkpt lat="43.58657" lon="1.13573">
        <ele>252.4</ele>
        <time>2020-11-29T11:08:15Z</time>
      </trkpt>
      <trkpt lat="43.58658" lon="1.13572">
        <ele>251.7</ele>
        <time>2020-11-29T11:08:16Z</time>
      </trkpt>
      <trkpt lat="43.58659" lon="1.13571">
        <ele>251.6</ele>
        <time>2020-11-29T11:08:17Z</time>
      </trkpt>
      <trkpt lat="43.5866" lon="1.1357">
        <ele>251.4</ele>
        <time>2020-11-29T11:08:18Z</time>
      </trkpt>
      <trkpt lat="43.58661" lon="1.1357">
        <ele>250.7</ele>
        <time>2020-11-29T11:08:19Z</time>
      </trkpt>
      <trkpt lat="43.58663" lon="1.13572">
        <ele>250.7</ele>
        <time>2020-11-29T11:08:20Z</time>
      </trkpt>
      <trkpt lat="43.58664" lon="1.13573">
        <ele>250.6</ele>
        <time>2020-11-29T11:08:21Z</time>
      </trkpt>
      <trkpt lat="43.58665" lon="1.13575">
        <ele>249.9</ele>
        <time>2020-11-29T11:08:22Z</time>
      </trkpt>
      <trkpt lat="43.58666" lon="1.13576">
        <ele>249.9</ele>
        <time>2020-11-29T11:08:23Z</time>
      </trkpt>
      <trkpt lat="43.58668" lon="1.13578">
        <ele>249.1</ele>
        <time>2020-11-29T11:08:24Z</time>
      </trkpt>
      <trkpt lat="43.58669" lon="1.13578">
        <ele>249.1</ele>
        <time>2020-11-29T11:08:25Z</time>
      </trkpt>
      <trkpt lat="43.58669" lon="1.13579">
        <ele>249</ele>
        <time>2020-11-29T11:08:26Z</time>
      </trkpt>
      <trkpt lat="43.5867" lon="1.1358">
        <ele>249.1</ele>
        <time>2020-11-29T11:08:27Z</time>
      </trkpt>
      <trkpt lat="43.58672" lon="1.13582">
        <ele>248.3</ele>
        <time>2020-11-29T11:08:28Z</time>
      </trkpt>
      <trkpt lat="43.58677" lon="1.13586">
        <ele>247.2</ele>
        <time>2020-11-29T11:08:29Z</time>
      </trkpt>
      <trkpt lat="43.58682" lon="1.1359">
        <ele>246.8</ele>
        <time>2020-11-29T11:08:30Z</time>
      </trkpt>
      <trkpt lat="43.58688" lon="1.13594">
        <ele>246</ele>
        <time>2020-11-29T11:08:31Z</time>
      </trkpt>
      <trkpt lat="43.5869" lon="1.13593">
        <ele>245.5</ele>
        <time>2020-11-29T11:08:32Z</time>
      </trkpt>
      <trkpt lat="43.58692" lon="1.13592">
        <ele>245.4</ele>
        <time>2020-11-29T11:08:33Z</time>
      </trkpt>
      <trkpt lat="43.58692" lon="1.1359">
        <ele>245.4</ele>
        <time>2020-11-29T11:08:34Z</time>
      </trkpt>
      <trkpt lat="43.58692" lon="1.1359">
        <ele>245</ele>
        <time>2020-11-29T11:08:35Z</time>
      </trkpt>
      <trkpt lat="43.58693" lon="1.13589">
        <ele>244.9</ele>
        <time>2020-11-29T11:08:36Z</time>
      </trkpt>
      <trkpt lat="43.58694" lon="1.13588">
        <ele>244.9</ele>
        <time>2020-11-29T11:08:37Z</time>
      </trkpt>
      <trkpt lat="43.58695" lon="1.13587">
        <ele>244.8</ele>
        <time>2020-11-29T11:08:38Z</time>
      </trkpt>
      <trkpt lat="43.58696" lon="1.13586">
        <ele>244.4</ele>
        <time>2020-11-29T11:08:39Z</time>
      </trkpt>
      <trkpt lat="43.58697" lon="1.13587">
        <ele>244.4</ele>
        <time>2020-11-29T11:08:40Z</time>
      </trkpt>
      <trkpt lat="43.58699" lon="1.13589">
        <ele>244</ele>
        <time>2020-11-29T11:08:41Z</time>
      </trkpt>
      <trkpt lat="43.58699" lon="1.1359">
        <ele>243.9</ele>
        <time>2020-11-29T11:08:42Z</time>
      </trkpt>
      <trkpt lat="43.587" lon="1.13592">
        <ele>243.9</ele>
        <time>2020-11-29T11:08:43Z</time>
      </trkpt>
      <trkpt lat="43.58701" lon="1.13593">
        <ele>243.8</ele>
        <time>2020-11-29T11:08:44Z</time>
      </trkpt>
      <trkpt lat="43.58701" lon="1.13595">
        <ele>243.7</ele>
        <time>2020-11-29T11:08:45Z</time>
      </trkpt>
      <trkpt lat="43.58703" lon="1.13598">
        <ele>243.2</ele>
        <time>2020-11-29T11:08:46Z</time>
      </trkpt>
      <trkpt lat="43.58704" lon="1.136">
        <ele>243.1</ele>
        <time>2020-11-29T11:08:47Z</time>
      </trkpt>
      <trkpt lat="43.58704" lon="1.13601">
        <ele>243.1</ele>
        <time>2020-11-29T11:08:48Z</time>
      </trkpt>
      <trkpt lat="43.58704" lon="1.13599">
        <ele>243</ele>
        <time>2020-11-29T11:08:49Z</time>
      </trkpt>
      <trkpt lat="43.58704" lon="1.13597">
        <ele>243</ele>
        <time>2020-11-29T11:08:50Z</time>
      </trkpt>
      <trkpt lat="43.58704" lon="1.13598">
        <ele>242.9</ele>
        <time>2020-11-29T11:08:51Z</time>
      </trkpt>
      <trkpt lat="43.58704" lon="1.13598">
        <ele>242.8</ele>
        <time>2020-11-29T11:08:52Z</time>
      </trkpt>
      <trkpt lat="43.58704" lon="1.13598">
        <ele>242.8</ele>
        <time>2020-11-29T11:08:53Z</time>
      </trkpt>
      <trkpt lat="43.58704" lon="1.13599">
        <ele>242.7</ele>
        <time>2020-11-29T11:08:54Z</time>
      </trkpt>
      <trkpt lat="43.58704" lon="1.136">
        <ele>242.7</ele>
        <time>2020-11-29T11:08:55Z</time>
      </trkpt>
      <trkpt lat="43.58704" lon="1.136">
        <ele>242.6</ele>
        <time>2020-11-29T11:08:56Z</time>
      </trkpt>
      <trkpt lat="43.58704" lon="1.136">
        <ele>242.5</ele>
        <time>2020-11-29T11:08:57Z</time>
      </trkpt>
      <trkpt lat="43.58704" lon="1.13598">
        <ele>242.1</ele>
        <time>2020-11-29T11:08:58Z</time>
      </trkpt>
      <trkpt lat="43.58704" lon="1.13597">
        <ele>242.5</ele>
        <time>2020-11-29T11:08:59Z</time>
      </trkpt>
      <trkpt lat="43.58704" lon="1.13597">
        <ele>242.4</ele>
        <time>2020-11-29T11:09:00Z</time>
      </trkpt>
      <trkpt lat="43.58704" lon="1.13598">
        <ele>242.3</ele>
        <time>2020-11-29T11:09:01Z</time>
      </trkpt>
      <trkpt lat="43.58705" lon="1.13599">
        <ele>241.9</ele>
        <time>2020-11-29T11:09:02Z</time>
      </trkpt>
      <trkpt lat="43.58705" lon="1.13601">
        <ele>241.8</ele>
        <time>2020-11-29T11:09:03Z</time>
      </trkpt>
      <trkpt lat="43.58705" lon="1.13602">
        <ele>241.6</ele>
        <time>2020-11-29T11:09:04Z</time>
      </trkpt>
      <trkpt lat="43.58705" lon="1.13602">
        <ele>241.6</ele>
        <time>2020-11-29T11:09:05Z</time>
      </trkpt>
      <trkpt lat="43.58706" lon="1.13603">
        <ele>241.5</ele>
        <time>2020-11-29T11:09:06Z</time>
      </trkpt>
      <trkpt lat="43.58707" lon="1.13605">
        <ele>241.5</ele>
        <time>2020-11-29T11:09:07Z</time>
      </trkpt>
      <trkpt lat="43.58708" lon="1.13606">
        <ele>240.9</ele>
        <time>2020-11-29T11:09:08Z</time>
      </trkpt>
      <trkpt lat="43.58708" lon="1.13607">
        <ele>240.8</ele>
        <time>2020-11-29T11:09:09Z</time>
      </trkpt>
      <trkpt lat="43.58708" lon="1.13607">
        <ele>240.8</ele>
        <time>2020-11-29T11:09:10Z</time>
      </trkpt>
      <trkpt lat="43.58709" lon="1.13607">
        <ele>240.7</ele>
        <time>2020-11-29T11:09:11Z</time>
      </trkpt>
      <trkpt lat="43.58709" lon="1.13607">
        <ele>240.6</ele>
        <time>2020-11-29T11:09:12Z</time>
      </trkpt>
      <trkpt lat="43.58709" lon="1.13608">
        <ele>240.6</ele>
        <time>2020-11-29T11:09:13Z</time>
      </trkpt>
      <trkpt lat="43.58709" lon="1.13608">
        <ele>240.5</ele>
        <time>2020-11-29T11:09:14Z</time>
      </trkpt>
      <trkpt lat="43.5871" lon="1.13609">
        <ele>240.4</ele>
        <time>2020-11-29T11:09:15Z</time>
      </trkpt>
      <trkpt lat="43.5871" lon="1.1361">
        <ele>240.4</ele>
        <time>2020-11-29T11:09:16Z</time>
      </trkpt>
      <trkpt lat="43.5871" lon="1.1361">
        <ele>240.2</ele>
        <time>2020-11-29T11:09:17Z</time>
      </trkpt>
      <trkpt lat="43.5871" lon="1.13611">
        <ele>240.1</ele>
        <time>2020-11-29T11:09:18Z</time>
      </trkpt>
      <trkpt lat="43.5871" lon="1.13612">
        <ele>240</ele>
        <time>2020-11-29T11:09:19Z</time>
      </trkpt>
      <trkpt lat="43.5871" lon="1.13612">
        <ele>240</ele>
        <time>2020-11-29T11:09:20Z</time>
      </trkpt>
      <trkpt lat="43.5871" lon="1.13613">
        <ele>239.9</ele>
        <time>2020-11-29T11:09:21Z</time>
      </trkpt>
      <trkpt lat="43.5871" lon="1.13613">
        <ele>239.9</ele>
        <time>2020-11-29T11:09:22Z</time>
      </trkpt>
      <trkpt lat="43.58711" lon="1.13612">
        <ele>239.4</ele>
        <time>2020-11-29T11:09:23Z</time>
      </trkpt>
      <trkpt lat="43.58711" lon="1.13613">
        <ele>239.3</ele>
        <time>2020-11-29T11:09:24Z</time>
      </trkpt>
      <trkpt lat="43.58712" lon="1.13614">
        <ele>239.3</ele>
        <time>2020-11-29T11:09:25Z</time>
      </trkpt>
      <trkpt lat="43.58713" lon="1.13615">
        <ele>239.1</ele>
        <time>2020-11-29T11:09:26Z</time>
      </trkpt>
      <trkpt lat="43.58713" lon="1.13618">
        <ele>239</ele>
        <time>2020-11-29T11:09:27Z</time>
      </trkpt>
      <trkpt lat="43.58713" lon="1.13619">
        <ele>238.8</ele>
        <time>2020-11-29T11:09:28Z</time>
      </trkpt>
      <trkpt lat="43.58713" lon="1.13621">
        <ele>238.7</ele>
        <time>2020-11-29T11:09:29Z</time>
      </trkpt>
      <trkpt lat="43.58713" lon="1.13623">
        <ele>238.5</ele>
        <time>2020-11-29T11:09:30Z</time>
      </trkpt>
      <trkpt lat="43.58714" lon="1.13626">
        <ele>238</ele>
        <time>2020-11-29T11:09:31Z</time>
      </trkpt>
      <trkpt lat="43.58713" lon="1.13628">
        <ele>238.3</ele>
        <time>2020-11-29T11:09:32Z</time>
      </trkpt>
      <trkpt lat="43.58713" lon="1.1363">
        <ele>238.3</ele>
        <time>2020-11-29T11:09:33Z</time>
      </trkpt>
      <trkpt lat="43.58714" lon="1.13638">
        <ele>237.7</ele>
        <time>2020-11-29T11:09:34Z</time>
      </trkpt>
      <trkpt lat="43.58715" lon="1.13645">
        <ele>237.7</ele>
        <time>2020-11-29T11:09:35Z</time>
      </trkpt>
      <trkpt lat="43.58715" lon="1.13648">
        <ele>237.6</ele>
        <time>2020-11-29T11:09:36Z</time>
      </trkpt>
      <trkpt lat="43.58714" lon="1.1365">
        <ele>237.7</ele>
        <time>2020-11-29T11:09:37Z</time>
      </trkpt>
      <trkpt lat="43.58714" lon="1.13652">
        <ele>237.6</ele>
        <time>2020-11-29T11:09:38Z</time>
      </trkpt>
      <trkpt lat="43.58714" lon="1.13653">
        <ele>237.6</ele>
        <time>2020-11-29T11:09:39Z</time>
      </trkpt>
      <trkpt lat="43.58714" lon="1.13655">
        <ele>238.1</ele>
        <time>2020-11-29T11:09:40Z</time>
      </trkpt>
      <trkpt lat="43.58713" lon="1.13656">
        <ele>238</ele>
        <time>2020-11-29T11:09:41Z</time>
      </trkpt>
      <trkpt lat="43.58713" lon="1.13658">
        <ele>238.1</ele>
        <time>2020-11-29T11:09:42Z</time>
      </trkpt>
      <trkpt lat="43.58713" lon="1.13659">
        <ele>238</ele>
        <time>2020-11-29T11:09:43Z</time>
      </trkpt>
      <trkpt lat="43.58713" lon="1.1366">
        <ele>238</ele>
        <time>2020-11-29T11:09:44Z</time>
      </trkpt>
      <trkpt lat="43.58713" lon="1.13662">
        <ele>238.1</ele>
        <time>2020-11-29T11:09:45Z</time>
      </trkpt>
      <trkpt lat="43.58712" lon="1.13664">
        <ele>238</ele>
        <time>2020-11-29T11:09:47Z</time>
      </trkpt>
      <trkpt lat="43.58711" lon="1.13667">
        <ele>238.1</ele>
        <time>2020-11-29T11:09:48Z</time>
      </trkpt>
      <trkpt lat="43.5871" lon="1.13668">
        <ele>238.6</ele>
        <time>2020-11-29T11:09:49Z</time>
      </trkpt>
      <trkpt lat="43.5871" lon="1.13669">
        <ele>238.5</ele>
        <time>2020-11-29T11:09:50Z</time>
      </trkpt>
      <trkpt lat="43.58709" lon="1.1367">
        <ele>238.6</ele>
        <time>2020-11-29T11:09:51Z</time>
      </trkpt>
      <trkpt lat="43.58709" lon="1.13672">
        <ele>238.5</ele>
        <time>2020-11-29T11:09:52Z</time>
      </trkpt>
      <trkpt lat="43.5871" lon="1.13673">
        <ele>238.5</ele>
        <time>2020-11-29T11:09:53Z</time>
      </trkpt>
      <trkpt lat="43.58709" lon="1.13674">
        <ele>238.4</ele>
        <time>2020-11-29T11:09:54Z</time>
      </trkpt>
      <trkpt lat="43.58709" lon="1.13675">
        <ele>238.5</ele>
        <time>2020-11-29T11:09:55Z</time>
      </trkpt>
      <trkpt lat="43.5871" lon="1.13674">
        <ele>238.3</ele>
        <time>2020-11-29T11:09:56Z</time>
      </trkpt>
      <trkpt lat="43.58711" lon="1.13673">
        <ele>237.7</ele>
        <time>2020-11-29T11:09:57Z</time>
      </trkpt>
      <trkpt lat="43.58711" lon="1.13672">
        <ele>237.7</ele>
        <time>2020-11-29T11:09:58Z</time>
      </trkpt>
      <trkpt lat="43.58712" lon="1.13671">
        <ele>237.6</ele>
        <time>2020-11-29T11:09:59Z</time>
      </trkpt>
      <trkpt lat="43.58713" lon="1.13674">
        <ele>237.5</ele>
        <time>2020-11-29T11:10:00Z</time>
      </trkpt>
      <trkpt lat="43.58712" lon="1.13674">
        <ele>237.5</ele>
        <time>2020-11-29T11:10:01Z</time>
      </trkpt>
      <trkpt lat="43.5871" lon="1.13671">
        <ele>237.9</ele>
        <time>2020-11-29T11:10:02Z</time>
      </trkpt>
      <trkpt lat="43.58709" lon="1.1367">
        <ele>237.7</ele>
        <time>2020-11-29T11:10:03Z</time>
      </trkpt>
      <trkpt lat="43.58707" lon="1.13669">
        <ele>238.2</ele>
        <time>2020-11-29T11:10:04Z</time>
      </trkpt>
      <trkpt lat="43.58707" lon="1.1367">
        <ele>238.1</ele>
        <time>2020-11-29T11:10:05Z</time>
      </trkpt>
      <trkpt lat="43.58705" lon="1.1367">
        <ele>238.2</ele>
        <time>2020-11-29T11:10:06Z</time>
      </trkpt>
      <trkpt lat="43.58706" lon="1.1367">
        <ele>238</ele>
        <time>2020-11-29T11:10:07Z</time>
      </trkpt>
      <trkpt lat="43.58707" lon="1.13669">
        <ele>237.9</ele>
        <time>2020-11-29T11:10:08Z</time>
      </trkpt>
      <trkpt lat="43.58709" lon="1.13668">
        <ele>237.3</ele>
        <time>2020-11-29T11:10:09Z</time>
      </trkpt>
      <trkpt lat="43.5871" lon="1.13667">
        <ele>237.3</ele>
        <time>2020-11-29T11:10:10Z</time>
      </trkpt>
      <trkpt lat="43.58708" lon="1.13672">
        <ele>237.4</ele>
        <time>2020-11-29T11:10:11Z</time>
      </trkpt>
      <trkpt lat="43.58709" lon="1.13674">
        <ele>237.5</ele>
        <time>2020-11-29T11:10:12Z</time>
      </trkpt>
      <trkpt lat="43.5871" lon="1.13676">
        <ele>237.4</ele>
        <time>2020-11-29T11:10:13Z</time>
      </trkpt>
      <trkpt lat="43.58712" lon="1.13678">
        <ele>236.9</ele>
        <time>2020-11-29T11:10:14Z</time>
      </trkpt>
      <trkpt lat="43.58716" lon="1.13681">
        <ele>236.5</ele>
        <time>2020-11-29T11:10:15Z</time>
      </trkpt>
      <trkpt lat="43.58719" lon="1.13686">
        <ele>236.1</ele>
        <time>2020-11-29T11:10:16Z</time>
      </trkpt>
      <trkpt lat="43.58722" lon="1.13689">
        <ele>235.7</ele>
        <time>2020-11-29T11:10:17Z</time>
      </trkpt>
      <trkpt lat="43.58724" lon="1.13692">
        <ele>235.4</ele>
        <time>2020-11-29T11:10:18Z</time>
      </trkpt>
      <trkpt lat="43.58724" lon="1.13694">
        <ele>235.3</ele>
        <time>2020-11-29T11:10:19Z</time>
      </trkpt>
      <trkpt lat="43.58727" lon="1.13698">
        <ele>235</ele>
        <time>2020-11-29T11:10:20Z</time>
      </trkpt>
      <trkpt lat="43.58731" lon="1.13701">
        <ele>234.8</ele>
        <time>2020-11-29T11:10:21Z</time>
      </trkpt>
      <trkpt lat="43.58733" lon="1.13706">
        <ele>234.7</ele>
        <time>2020-11-29T11:10:22Z</time>
      </trkpt>
      <trkpt lat="43.58736" lon="1.1371">
        <ele>234.6</ele>
        <time>2020-11-29T11:10:23Z</time>
      </trkpt>
      <trkpt lat="43.5874" lon="1.13713">
        <ele>234.7</ele>
        <time>2020-11-29T11:10:24Z</time>
      </trkpt>
      <trkpt lat="43.58743" lon="1.1372">
        <ele>234.8</ele>
        <time>2020-11-29T11:10:25Z</time>
      </trkpt>
      <trkpt lat="43.58745" lon="1.13726">
        <ele>235.2</ele>
        <time>2020-11-29T11:10:26Z</time>
      </trkpt>
      <trkpt lat="43.58748" lon="1.13728">
        <ele>235.2</ele>
        <time>2020-11-29T11:10:27Z</time>
      </trkpt>
      <trkpt lat="43.58749" lon="1.13732">
        <ele>235.3</ele>
        <time>2020-11-29T11:10:28Z</time>
      </trkpt>
      <trkpt lat="43.58749" lon="1.13733">
        <ele>235.2</ele>
        <time>2020-11-29T11:10:29Z</time>
      </trkpt>
      <trkpt lat="43.58752" lon="1.13737">
        <ele>235.4</ele>
        <time>2020-11-29T11:10:30Z</time>
      </trkpt>
      <trkpt lat="43.58753" lon="1.13737">
        <ele>235.3</ele>
        <time>2020-11-29T11:10:31Z</time>
      </trkpt>
      <trkpt lat="43.58755" lon="1.13743">
        <ele>235.8</ele>
        <time>2020-11-29T11:10:32Z</time>
      </trkpt>
      <trkpt lat="43.58757" lon="1.13747">
        <ele>236.1</ele>
        <time>2020-11-29T11:10:33Z</time>
      </trkpt>
      <trkpt lat="43.58758" lon="1.13749">
        <ele>235.9</ele>
        <time>2020-11-29T11:10:34Z</time>
      </trkpt>
      <trkpt lat="43.58759" lon="1.13751">
        <ele>235.9</ele>
        <time>2020-11-29T11:10:35Z</time>
      </trkpt>
      <trkpt lat="43.58759" lon="1.13752">
        <ele>236.1</ele>
        <time>2020-11-29T11:10:36Z</time>
      </trkpt>
      <trkpt lat="43.58758" lon="1.13754">
        <ele>236.1</ele>
        <time>2020-11-29T11:10:37Z</time>
      </trkpt>
      <trkpt lat="43.58757" lon="1.13755">
        <ele>236.1</ele>
        <time>2020-11-29T11:10:38Z</time>
      </trkpt>
      <trkpt lat="43.58756" lon="1.13756">
        <ele>236.4</ele>
        <time>2020-11-29T11:10:39Z</time>
      </trkpt>
      <trkpt lat="43.58755" lon="1.13757">
        <ele>236.3</ele>
        <time>2020-11-29T11:10:40Z</time>
      </trkpt>
      <trkpt lat="43.58756" lon="1.1376">
        <ele>236.3</ele>
        <time>2020-11-29T11:10:41Z</time>
      </trkpt>
      <trkpt lat="43.58759" lon="1.13762">
        <ele>236.7</ele>
        <time>2020-11-29T11:10:42Z</time>
      </trkpt>
      <trkpt lat="43.58762" lon="1.13764">
        <ele>237.1</ele>
        <time>2020-11-29T11:10:43Z</time>
      </trkpt>
      <trkpt lat="43.58759" lon="1.13766">
        <ele>237.6</ele>
        <time>2020-11-29T11:10:44Z</time>
      </trkpt>
      <trkpt lat="43.58759" lon="1.13767">
        <ele>237.8</ele>
        <time>2020-11-29T11:10:45Z</time>
      </trkpt>
      <trkpt lat="43.58762" lon="1.1377">
        <ele>238.4</ele>
        <time>2020-11-29T11:10:46Z</time>
      </trkpt>
      <trkpt lat="43.58762" lon="1.13771">
        <ele>238.6</ele>
        <time>2020-11-29T11:10:47Z</time>
      </trkpt>
      <trkpt lat="43.58762" lon="1.13773">
        <ele>238.9</ele>
        <time>2020-11-29T11:10:48Z</time>
      </trkpt>
      <trkpt lat="43.58761" lon="1.13773">
        <ele>239</ele>
        <time>2020-11-29T11:10:49Z</time>
      </trkpt>
      <trkpt lat="43.58761" lon="1.13774">
        <ele>239.2</ele>
        <time>2020-11-29T11:10:50Z</time>
      </trkpt>
      <trkpt lat="43.58761" lon="1.13774">
        <ele>239.3</ele>
        <time>2020-11-29T11:10:51Z</time>
      </trkpt>
      <trkpt lat="43.58761" lon="1.13775">
        <ele>239.4</ele>
        <time>2020-11-29T11:10:52Z</time>
      </trkpt>
      <trkpt lat="43.58761" lon="1.13775">
        <ele>239.4</ele>
        <time>2020-11-29T11:10:53Z</time>
      </trkpt>
      <trkpt lat="43.58761" lon="1.13776">
        <ele>239.5</ele>
        <time>2020-11-29T11:10:54Z</time>
      </trkpt>
      <trkpt lat="43.58761" lon="1.13777">
        <ele>239.6</ele>
        <time>2020-11-29T11:10:55Z</time>
      </trkpt>
      <trkpt lat="43.58761" lon="1.13777">
        <ele>239.7</ele>
        <time>2020-11-29T11:10:56Z</time>
      </trkpt>
      <trkpt lat="43.58761" lon="1.13778">
        <ele>239.8</ele>
        <time>2020-11-29T11:10:57Z</time>
      </trkpt>
      <trkpt lat="43.58761" lon="1.13778">
        <ele>239.9</ele>
        <time>2020-11-29T11:10:58Z</time>
      </trkpt>
      <trkpt lat="43.58761" lon="1.13779">
        <ele>240</ele>
        <time>2020-11-29T11:10:59Z</time>
      </trkpt>
      <trkpt lat="43.58761" lon="1.13779">
        <ele>240</ele>
        <time>2020-11-29T11:11:00Z</time>
      </trkpt>
      <trkpt lat="43.58761" lon="1.13779">
        <ele>240.1</ele>
        <time>2020-11-29T11:11:01Z</time>
      </trkpt>
      <trkpt lat="43.58762" lon="1.1378">
        <ele>240.1</ele>
        <time>2020-11-29T11:11:02Z</time>
      </trkpt>
      <trkpt lat="43.58762" lon="1.1378">
        <ele>240.3</ele>
        <time>2020-11-29T11:11:03Z</time>
      </trkpt>
      <trkpt lat="43.58762" lon="1.13781">
        <ele>240.4</ele>
        <time>2020-11-29T11:11:04Z</time>
      </trkpt>
      <trkpt lat="43.58762" lon="1.13781">
        <ele>240.4</ele>
        <time>2020-11-29T11:11:05Z</time>
      </trkpt>
      <trkpt lat="43.58762" lon="1.13782">
        <ele>240.5</ele>
        <time>2020-11-29T11:11:06Z</time>
      </trkpt>
      <trkpt lat="43.58762" lon="1.13782">
        <ele>240.5</ele>
        <time>2020-11-29T11:11:07Z</time>
      </trkpt>
      <trkpt lat="43.58762" lon="1.13782">
        <ele>240.5</ele>
        <time>2020-11-29T11:11:08Z</time>
      </trkpt>
      <trkpt lat="43.58762" lon="1.13782">
        <ele>240.6</ele>
        <time>2020-11-29T11:11:09Z</time>
      </trkpt>
      <trkpt lat="43.58762" lon="1.13783">
        <ele>240.6</ele>
        <time>2020-11-29T11:11:10Z</time>
      </trkpt>
      <trkpt lat="43.58762" lon="1.13783">
        <ele>240.6</ele>
        <time>2020-11-29T11:11:11Z</time>
      </trkpt>
      <trkpt lat="43.58762" lon="1.13783">
        <ele>240.7</ele>
        <time>2020-11-29T11:11:12Z</time>
      </trkpt>
      <trkpt lat="43.58762" lon="1.13783">
        <ele>240.7</ele>
        <time>2020-11-29T11:11:13Z</time>
      </trkpt>
      <trkpt lat="43.58762" lon="1.13784">
        <ele>240.8</ele>
        <time>2020-11-29T11:11:14Z</time>
      </trkpt>
      <trkpt lat="43.58762" lon="1.13784">
        <ele>240.9</ele>
        <time>2020-11-29T11:11:15Z</time>
      </trkpt>
      <trkpt lat="43.58762" lon="1.13787">
        <ele>241.3</ele>
        <time>2020-11-29T11:11:16Z</time>
      </trkpt>
      <trkpt lat="43.58763" lon="1.13789">
        <ele>241.6</ele>
        <time>2020-11-29T11:11:17Z</time>
      </trkpt>
      <trkpt lat="43.58763" lon="1.1379">
        <ele>241.8</ele>
        <time>2020-11-29T11:11:18Z</time>
      </trkpt>
      <trkpt lat="43.58763" lon="1.1379">
        <ele>241.9</ele>
        <time>2020-11-29T11:11:19Z</time>
      </trkpt>
      <trkpt lat="43.58763" lon="1.1379">
        <ele>241.9</ele>
        <time>2020-11-29T11:11:20Z</time>
      </trkpt>
      <trkpt lat="43.58763" lon="1.13791">
        <ele>241.9</ele>
        <time>2020-11-29T11:11:21Z</time>
      </trkpt>
      <trkpt lat="43.58763" lon="1.13791">
        <ele>241.9</ele>
        <time>2020-11-29T11:11:22Z</time>
      </trkpt>
      <trkpt lat="43.58763" lon="1.13791">
        <ele>242</ele>
        <time>2020-11-29T11:11:23Z</time>
      </trkpt>
      <trkpt lat="43.58763" lon="1.13791">
        <ele>242</ele>
        <time>2020-11-29T11:11:24Z</time>
      </trkpt>
      <trkpt lat="43.58763" lon="1.13791">
        <ele>242.1</ele>
        <time>2020-11-29T11:11:25Z</time>
      </trkpt>
      <trkpt lat="43.58763" lon="1.13791">
        <ele>242.1</ele>
        <time>2020-11-29T11:11:26Z</time>
      </trkpt>
      <trkpt lat="43.58763" lon="1.13792">
        <ele>242.1</ele>
        <time>2020-11-29T11:11:27Z</time>
      </trkpt>
      <trkpt lat="43.58763" lon="1.13792">
        <ele>242.1</ele>
        <time>2020-11-29T11:11:28Z</time>
      </trkpt>
      <trkpt lat="43.58763" lon="1.13792">
        <ele>242.2</ele>
        <time>2020-11-29T11:11:29Z</time>
      </trkpt>
      <trkpt lat="43.58763" lon="1.13792">
        <ele>242.2</ele>
        <time>2020-11-29T11:11:30Z</time>
      </trkpt>
      <trkpt lat="43.58763" lon="1.13792">
        <ele>242.3</ele>
        <time>2020-11-29T11:11:31Z</time>
      </trkpt>
      <trkpt lat="43.58763" lon="1.13793">
        <ele>242.3</ele>
        <time>2020-11-29T11:11:32Z</time>
      </trkpt>
      <trkpt lat="43.58763" lon="1.13793">
        <ele>242.3</ele>
        <time>2020-11-29T11:11:33Z</time>
      </trkpt>
      <trkpt lat="43.58763" lon="1.13793">
        <ele>242.4</ele>
        <time>2020-11-29T11:11:34Z</time>
      </trkpt>
      <trkpt lat="43.58763" lon="1.13793">
        <ele>242.5</ele>
        <time>2020-11-29T11:11:35Z</time>
      </trkpt>
      <trkpt lat="43.58762" lon="1.13792">
        <ele>242.5</ele>
        <time>2020-11-29T11:11:36Z</time>
      </trkpt>
      <trkpt lat="43.58762" lon="1.13793">
        <ele>242.6</ele>
        <time>2020-11-29T11:11:37Z</time>
      </trkpt>
      <trkpt lat="43.58762" lon="1.13793">
        <ele>242.6</ele>
        <time>2020-11-29T11:11:38Z</time>
      </trkpt>
      <trkpt lat="43.58762" lon="1.13793">
        <ele>242.6</ele>
        <time>2020-11-29T11:11:39Z</time>
      </trkpt>
      <trkpt lat="43.58761" lon="1.13792">
        <ele>242.8</ele>
        <time>2020-11-29T11:11:40Z</time>
      </trkpt>
      <trkpt lat="43.58762" lon="1.13793">
        <ele>242.9</ele>
        <time>2020-11-29T11:11:41Z</time>
      </trkpt>
      <trkpt lat="43.58761" lon="1.13794">
        <ele>243</ele>
        <time>2020-11-29T11:11:42Z</time>
      </trkpt>
      <trkpt lat="43.58761" lon="1.13794">
        <ele>243.1</ele>
        <time>2020-11-29T11:11:43Z</time>
      </trkpt>
      <trkpt lat="43.58761" lon="1.13794">
        <ele>243.2</ele>
        <time>2020-11-29T11:11:44Z</time>
      </trkpt>
      <trkpt lat="43.58761" lon="1.13795">
        <ele>243.2</ele>
        <time>2020-11-29T11:11:45Z</time>
      </trkpt>
      <trkpt lat="43.5876" lon="1.13795">
        <ele>243.3</ele>
        <time>2020-11-29T11:11:46Z</time>
      </trkpt>
      <trkpt lat="43.5876" lon="1.13795">
        <ele>243.4</ele>
        <time>2020-11-29T11:11:47Z</time>
      </trkpt>
      <trkpt lat="43.5876" lon="1.13795">
        <ele>243.4</ele>
        <time>2020-11-29T11:11:48Z</time>
      </trkpt>
      <trkpt lat="43.5876" lon="1.13796">
        <ele>243.5</ele>
        <time>2020-11-29T11:11:49Z</time>
      </trkpt>
      <trkpt lat="43.58759" lon="1.13796">
        <ele>243.5</ele>
        <time>2020-11-29T11:11:50Z</time>
      </trkpt>
      <trkpt lat="43.58759" lon="1.13796">
        <ele>243.6</ele>
        <time>2020-11-29T11:11:51Z</time>
      </trkpt>
      <trkpt lat="43.58759" lon="1.13796">
        <ele>243.6</ele>
        <time>2020-11-29T11:11:52Z</time>
      </trkpt>
      <trkpt lat="43.58759" lon="1.13797">
        <ele>243.7</ele>
        <time>2020-11-29T11:11:53Z</time>
      </trkpt>
      <trkpt lat="43.58758" lon="1.13797">
        <ele>243.8</ele>
        <time>2020-11-29T11:11:54Z</time>
      </trkpt>
      <trkpt lat="43.58757" lon="1.13798">
        <ele>244.1</ele>
        <time>2020-11-29T11:11:55Z</time>
      </trkpt>
      <trkpt lat="43.58756" lon="1.13799">
        <ele>244.3</ele>
        <time>2020-11-29T11:11:56Z</time>
      </trkpt>
      <trkpt lat="43.58755" lon="1.138">
        <ele>244.6</ele>
        <time>2020-11-29T11:11:57Z</time>
      </trkpt>
      <trkpt lat="43.58753" lon="1.13802">
        <ele>244.9</ele>
        <time>2020-11-29T11:11:58Z</time>
      </trkpt>
      <trkpt lat="43.58751" lon="1.13804">
        <ele>245.4</ele>
        <time>2020-11-29T11:11:59Z</time>
      </trkpt>
      <trkpt lat="43.5875" lon="1.13805">
        <ele>245.6</ele>
        <time>2020-11-29T11:12:00Z</time>
      </trkpt>
      <trkpt lat="43.58748" lon="1.13808">
        <ele>246.1</ele>
        <time>2020-11-29T11:12:01Z</time>
      </trkpt>
      <trkpt lat="43.58746" lon="1.1381">
        <ele>246.6</ele>
        <time>2020-11-29T11:12:02Z</time>
      </trkpt>
      <trkpt lat="43.58743" lon="1.13814">
        <ele>247.3</ele>
        <time>2020-11-29T11:12:03Z</time>
      </trkpt>
      <trkpt lat="43.58743" lon="1.13815">
        <ele>247.4</ele>
        <time>2020-11-29T11:12:04Z</time>
      </trkpt>
      <trkpt lat="43.58741" lon="1.13818">
        <ele>248</ele>
        <time>2020-11-29T11:12:05Z</time>
      </trkpt>
      <trkpt lat="43.5874" lon="1.13819">
        <ele>248.1</ele>
        <time>2020-11-29T11:12:06Z</time>
      </trkpt>
      <trkpt lat="43.58738" lon="1.1382">
        <ele>248.4</ele>
        <time>2020-11-29T11:12:07Z</time>
      </trkpt>
      <trkpt lat="43.58737" lon="1.13821">
        <ele>248.7</ele>
        <time>2020-11-29T11:12:08Z</time>
      </trkpt>
      <trkpt lat="43.58736" lon="1.13822">
        <ele>248.9</ele>
        <time>2020-11-29T11:12:09Z</time>
      </trkpt>
      <trkpt lat="43.58734" lon="1.13823">
        <ele>249.2</ele>
        <time>2020-11-29T11:12:10Z</time>
      </trkpt>
      <trkpt lat="43.58731" lon="1.13826">
        <ele>249.8</ele>
        <time>2020-11-29T11:12:11Z</time>
      </trkpt>
      <trkpt lat="43.58729" lon="1.13827">
        <ele>250</ele>
        <time>2020-11-29T11:12:12Z</time>
      </trkpt>
      <trkpt lat="43.58726" lon="1.13829">
        <ele>250.4</ele>
        <time>2020-11-29T11:12:13Z</time>
      </trkpt>
      <trkpt lat="43.58726" lon="1.13829">
        <ele>250.5</ele>
        <time>2020-11-29T11:12:14Z</time>
      </trkpt>
      <trkpt lat="43.58725" lon="1.13831">
        <ele>250.7</ele>
        <time>2020-11-29T11:12:15Z</time>
      </trkpt>
      <trkpt lat="43.58723" lon="1.13832">
        <ele>251</ele>
        <time>2020-11-29T11:12:16Z</time>
      </trkpt>
      <trkpt lat="43.58722" lon="1.13833">
        <ele>251.1</ele>
        <time>2020-11-29T11:12:17Z</time>
      </trkpt>
      <trkpt lat="43.58721" lon="1.13835">
        <ele>251.3</ele>
        <time>2020-11-29T11:12:18Z</time>
      </trkpt>
      <trkpt lat="43.58718" lon="1.13837">
        <ele>251.8</ele>
        <time>2020-11-29T11:12:19Z</time>
      </trkpt>
      <trkpt lat="43.58717" lon="1.13838">
        <ele>252</ele>
        <time>2020-11-29T11:12:20Z</time>
      </trkpt>
      <trkpt lat="43.58713" lon="1.13841">
        <ele>252.5</ele>
        <time>2020-11-29T11:12:21Z</time>
      </trkpt>
      <trkpt lat="43.58712" lon="1.13842">
        <ele>252.7</ele>
        <time>2020-11-29T11:12:22Z</time>
      </trkpt>
      <trkpt lat="43.58709" lon="1.13844">
        <ele>253.1</ele>
        <time>2020-11-29T11:12:23Z</time>
      </trkpt>
      <trkpt lat="43.58709" lon="1.13844">
        <ele>253.2</ele>
        <time>2020-11-29T11:12:24Z</time>
      </trkpt>
      <trkpt lat="43.58706" lon="1.13847">
        <ele>253.6</ele>
        <time>2020-11-29T11:12:25Z</time>
      </trkpt>
      <trkpt lat="43.58705" lon="1.13848">
        <ele>253.8</ele>
        <time>2020-11-29T11:12:26Z</time>
      </trkpt>
      <trkpt lat="43.58703" lon="1.1385">
        <ele>254.2</ele>
        <time>2020-11-29T11:12:27Z</time>
      </trkpt>
      <trkpt lat="43.587" lon="1.13852">
        <ele>254.6</ele>
        <time>2020-11-29T11:12:28Z</time>
      </trkpt>
      <trkpt lat="43.58697" lon="1.13853">
        <ele>255.1</ele>
        <time>2020-11-29T11:12:29Z</time>
      </trkpt>
      <trkpt lat="43.58694" lon="1.13855">
        <ele>255.6</ele>
        <time>2020-11-29T11:12:30Z</time>
      </trkpt>
      <trkpt lat="43.58693" lon="1.13856">
        <ele>255.7</ele>
        <time>2020-11-29T11:12:31Z</time>
      </trkpt>
      <trkpt lat="43.58691" lon="1.13858">
        <ele>256.1</ele>
        <time>2020-11-29T11:12:32Z</time>
      </trkpt>
      <trkpt lat="43.58689" lon="1.13859">
        <ele>256.4</ele>
        <time>2020-11-29T11:12:33Z</time>
      </trkpt>
      <trkpt lat="43.58688" lon="1.1386">
        <ele>256.6</ele>
        <time>2020-11-29T11:12:34Z</time>
      </trkpt>
      <trkpt lat="43.58687" lon="1.13861">
        <ele>256.8</ele>
        <time>2020-11-29T11:12:35Z</time>
      </trkpt>
      <trkpt lat="43.58686" lon="1.13863">
        <ele>257</ele>
        <time>2020-11-29T11:12:36Z</time>
      </trkpt>
      <trkpt lat="43.58685" lon="1.13865">
        <ele>257.3</ele>
        <time>2020-11-29T11:12:37Z</time>
      </trkpt>
      <trkpt lat="43.58685" lon="1.13866">
        <ele>257.4</ele>
        <time>2020-11-29T11:12:38Z</time>
      </trkpt>
      <trkpt lat="43.58684" lon="1.13866">
        <ele>257.5</ele>
        <time>2020-11-29T11:12:39Z</time>
      </trkpt>
      <trkpt lat="43.58682" lon="1.13867">
        <ele>257.8</ele>
        <time>2020-11-29T11:12:40Z</time>
      </trkpt>
      <trkpt lat="43.58682" lon="1.13868">
        <ele>257.9</ele>
        <time>2020-11-29T11:12:41Z</time>
      </trkpt>
      <trkpt lat="43.58681" lon="1.13868">
        <ele>258</ele>
        <time>2020-11-29T11:12:42Z</time>
      </trkpt>
      <trkpt lat="43.58681" lon="1.13869">
        <ele>258.1</ele>
        <time>2020-11-29T11:12:43Z</time>
      </trkpt>
      <trkpt lat="43.58679" lon="1.13869">
        <ele>258.3</ele>
        <time>2020-11-29T11:12:44Z</time>
      </trkpt>
      <trkpt lat="43.58678" lon="1.13869">
        <ele>258.5</ele>
        <time>2020-11-29T11:12:45Z</time>
      </trkpt>
      <trkpt lat="43.58675" lon="1.13871">
        <ele>258.9</ele>
        <time>2020-11-29T11:12:46Z</time>
      </trkpt>
      <trkpt lat="43.58675" lon="1.13872">
        <ele>259.1</ele>
        <time>2020-11-29T11:12:47Z</time>
      </trkpt>
      <trkpt lat="43.58673" lon="1.13872">
        <ele>259.3</ele>
        <time>2020-11-29T11:12:48Z</time>
      </trkpt>
      <trkpt lat="43.58672" lon="1.13872">
        <ele>259.5</ele>
        <time>2020-11-29T11:12:49Z</time>
      </trkpt>
      <trkpt lat="43.58671" lon="1.13873">
        <ele>259.7</ele>
        <time>2020-11-29T11:12:50Z</time>
      </trkpt>
      <trkpt lat="43.5867" lon="1.13873">
        <ele>259.8</ele>
        <time>2020-11-29T11:12:51Z</time>
      </trkpt>
      <trkpt lat="43.58669" lon="1.13873">
        <ele>259.9</ele>
        <time>2020-11-29T11:12:52Z</time>
      </trkpt>
      <trkpt lat="43.58668" lon="1.13874">
        <ele>260.1</ele>
        <time>2020-11-29T11:12:53Z</time>
      </trkpt>
      <trkpt lat="43.58667" lon="1.13873">
        <ele>260.3</ele>
        <time>2020-11-29T11:12:54Z</time>
      </trkpt>
      <trkpt lat="43.58665" lon="1.13874">
        <ele>260.4</ele>
        <time>2020-11-29T11:12:55Z</time>
      </trkpt>
      <trkpt lat="43.58662" lon="1.13873">
        <ele>260.9</ele>
        <time>2020-11-29T11:12:56Z</time>
      </trkpt>
      <trkpt lat="43.58661" lon="1.13873">
        <ele>261.1</ele>
        <time>2020-11-29T11:12:57Z</time>
      </trkpt>
      <trkpt lat="43.58658" lon="1.13874">
        <ele>261.5</ele>
        <time>2020-11-29T11:12:58Z</time>
      </trkpt>
      <trkpt lat="43.58657" lon="1.13874">
        <ele>261.7</ele>
        <time>2020-11-29T11:12:59Z</time>
      </trkpt>
      <trkpt lat="43.58653" lon="1.13875">
        <ele>262.2</ele>
        <time>2020-11-29T11:13:00Z</time>
      </trkpt>
      <trkpt lat="43.58652" lon="1.13875">
        <ele>262.3</ele>
        <time>2020-11-29T11:13:01Z</time>
      </trkpt>
      <trkpt lat="43.58651" lon="1.13876">
        <ele>262.5</ele>
        <time>2020-11-29T11:13:02Z</time>
      </trkpt>
      <trkpt lat="43.58647" lon="1.13875">
        <ele>263.2</ele>
        <time>2020-11-29T11:13:03Z</time>
      </trkpt>
      <trkpt lat="43.58643" lon="1.13875">
        <ele>263.8</ele>
        <time>2020-11-29T11:13:04Z</time>
      </trkpt>
      <trkpt lat="43.58641" lon="1.13874">
        <ele>264</ele>
        <time>2020-11-29T11:13:05Z</time>
      </trkpt>
      <trkpt lat="43.58638" lon="1.13875">
        <ele>264.4</ele>
        <time>2020-11-29T11:13:06Z</time>
      </trkpt>
      <trkpt lat="43.58637" lon="1.13875">
        <ele>264.6</ele>
        <time>2020-11-29T11:13:07Z</time>
      </trkpt>
      <trkpt lat="43.58634" lon="1.13876">
        <ele>265</ele>
        <time>2020-11-29T11:13:08Z</time>
      </trkpt>
      <trkpt lat="43.58633" lon="1.13876">
        <ele>265.2</ele>
        <time>2020-11-29T11:13:09Z</time>
      </trkpt>
      <trkpt lat="43.5863" lon="1.13877">
        <ele>265.6</ele>
        <time>2020-11-29T11:13:10Z</time>
      </trkpt>
      <trkpt lat="43.58628" lon="1.13878">
        <ele>265.8</ele>
        <time>2020-11-29T11:13:11Z</time>
      </trkpt>
      <trkpt lat="43.58625" lon="1.1388">
        <ele>266.2</ele>
        <time>2020-11-29T11:13:12Z</time>
      </trkpt>
      <trkpt lat="43.58622" lon="1.13881">
        <ele>266.7</ele>
        <time>2020-11-29T11:13:13Z</time>
      </trkpt>
      <trkpt lat="43.58621" lon="1.13882">
        <ele>266.8</ele>
        <time>2020-11-29T11:13:14Z</time>
      </trkpt>
      <trkpt lat="43.58618" lon="1.13882">
        <ele>267.3</ele>
        <time>2020-11-29T11:13:15Z</time>
      </trkpt>
      <trkpt lat="43.58617" lon="1.13882">
        <ele>267.5</ele>
        <time>2020-11-29T11:13:16Z</time>
      </trkpt>
      <trkpt lat="43.58614" lon="1.13883">
        <ele>268</ele>
        <time>2020-11-29T11:13:17Z</time>
      </trkpt>
      <trkpt lat="43.58613" lon="1.13884">
        <ele>268.2</ele>
        <time>2020-11-29T11:13:18Z</time>
      </trkpt>
      <trkpt lat="43.58612" lon="1.13886">
        <ele>268.5</ele>
        <time>2020-11-29T11:13:19Z</time>
      </trkpt>
      <trkpt lat="43.5861" lon="1.13887">
        <ele>268.8</ele>
        <time>2020-11-29T11:13:20Z</time>
      </trkpt>
      <trkpt lat="43.58607" lon="1.13889">
        <ele>269.4</ele>
        <time>2020-11-29T11:13:21Z</time>
      </trkpt>
      <trkpt lat="43.58606" lon="1.1389">
        <ele>269.6</ele>
        <time>2020-11-29T11:13:22Z</time>
      </trkpt>
      <trkpt lat="43.58604" lon="1.13892">
        <ele>269.9</ele>
        <time>2020-11-29T11:13:23Z</time>
      </trkpt>
      <trkpt lat="43.58603" lon="1.13893">
        <ele>270.2</ele>
        <time>2020-11-29T11:13:24Z</time>
      </trkpt>
      <trkpt lat="43.58601" lon="1.13896">
        <ele>270.8</ele>
        <time>2020-11-29T11:13:25Z</time>
      </trkpt>
      <trkpt lat="43.586" lon="1.13897">
        <ele>270.9</ele>
        <time>2020-11-29T11:13:26Z</time>
      </trkpt>
      <trkpt lat="43.58597" lon="1.13901">
        <ele>271.6</ele>
        <time>2020-11-29T11:13:27Z</time>
      </trkpt>
      <trkpt lat="43.58596" lon="1.13902">
        <ele>271.8</ele>
        <time>2020-11-29T11:13:28Z</time>
      </trkpt>
      <trkpt lat="43.58595" lon="1.13904">
        <ele>272.1</ele>
        <time>2020-11-29T11:13:29Z</time>
      </trkpt>
      <trkpt lat="43.58594" lon="1.13906">
        <ele>272.4</ele>
        <time>2020-11-29T11:13:30Z</time>
      </trkpt>
      <trkpt lat="43.58593" lon="1.13908">
        <ele>272.6</ele>
        <time>2020-11-29T11:13:31Z</time>
      </trkpt>
      <trkpt lat="43.58592" lon="1.13909">
        <ele>272.9</ele>
        <time>2020-11-29T11:13:32Z</time>
      </trkpt>
      <trkpt lat="43.58591" lon="1.13911">
        <ele>273.1</ele>
        <time>2020-11-29T11:13:33Z</time>
      </trkpt>
      <trkpt lat="43.58591" lon="1.13913">
        <ele>273.4</ele>
        <time>2020-11-29T11:13:34Z</time>
      </trkpt>
      <trkpt lat="43.58589" lon="1.13917">
        <ele>274</ele>
        <time>2020-11-29T11:13:35Z</time>
      </trkpt>
      <trkpt lat="43.58588" lon="1.1392">
        <ele>274.4</ele>
        <time>2020-11-29T11:13:36Z</time>
      </trkpt>
      <trkpt lat="43.58587" lon="1.13921">
        <ele>274.6</ele>
        <time>2020-11-29T11:13:37Z</time>
      </trkpt>
      <trkpt lat="43.58587" lon="1.13926">
        <ele>275.1</ele>
        <time>2020-11-29T11:13:38Z</time>
      </trkpt>
      <trkpt lat="43.58586" lon="1.1393">
        <ele>275.6</ele>
        <time>2020-11-29T11:13:39Z</time>
      </trkpt>
      <trkpt lat="43.58585" lon="1.13931">
        <ele>275.7</ele>
        <time>2020-11-29T11:13:40Z</time>
      </trkpt>
      <trkpt lat="43.58584" lon="1.13933">
        <ele>276.1</ele>
        <time>2020-11-29T11:13:41Z</time>
      </trkpt>
      <trkpt lat="43.58583" lon="1.13935">
        <ele>276.3</ele>
        <time>2020-11-29T11:13:42Z</time>
      </trkpt>
      <trkpt lat="43.58582" lon="1.13937">
        <ele>276.6</ele>
        <time>2020-11-29T11:13:43Z</time>
      </trkpt>
      <trkpt lat="43.58582" lon="1.13939">
        <ele>276.8</ele>
        <time>2020-11-29T11:13:44Z</time>
      </trkpt>
      <trkpt lat="43.58582" lon="1.13944">
        <ele>277.4</ele>
        <time>2020-11-29T11:13:45Z</time>
      </trkpt>
      <trkpt lat="43.58581" lon="1.13946">
        <ele>277.6</ele>
        <time>2020-11-29T11:13:46Z</time>
      </trkpt>
      <trkpt lat="43.58581" lon="1.13951">
        <ele>278.2</ele>
        <time>2020-11-29T11:13:47Z</time>
      </trkpt>
      <trkpt lat="43.5858" lon="1.13957">
        <ele>278.8</ele>
        <time>2020-11-29T11:13:48Z</time>
      </trkpt>
      <trkpt lat="43.58579" lon="1.1396">
        <ele>279.1</ele>
        <time>2020-11-29T11:13:49Z</time>
      </trkpt>
      <trkpt lat="43.5858" lon="1.13967">
        <ele>279.8</ele>
        <time>2020-11-29T11:13:50Z</time>
      </trkpt>
      <trkpt lat="43.5858" lon="1.1397">
        <ele>280.2</ele>
        <time>2020-11-29T11:13:51Z</time>
      </trkpt>
      <trkpt lat="43.5858" lon="1.13975">
        <ele>280.6</ele>
        <time>2020-11-29T11:13:52Z</time>
      </trkpt>
      <trkpt lat="43.5858" lon="1.1398">
        <ele>281.1</ele>
        <time>2020-11-29T11:13:53Z</time>
      </trkpt>
      <trkpt lat="43.58579" lon="1.13982">
        <ele>281.3</ele>
        <time>2020-11-29T11:13:54Z</time>
      </trkpt>
      <trkpt lat="43.58579" lon="1.13986">
        <ele>281.8</ele>
        <time>2020-11-29T11:13:55Z</time>
      </trkpt>
      <trkpt lat="43.58579" lon="1.13988">
        <ele>281.9</ele>
        <time>2020-11-29T11:13:56Z</time>
      </trkpt>
      <trkpt lat="43.58578" lon="1.13991">
        <ele>282.3</ele>
        <time>2020-11-29T11:13:57Z</time>
      </trkpt>
      <trkpt lat="43.58578" lon="1.13995">
        <ele>282.7</ele>
        <time>2020-11-29T11:13:58Z</time>
      </trkpt>
      <trkpt lat="43.58578" lon="1.13997">
        <ele>282.8</ele>
        <time>2020-11-29T11:13:59Z</time>
      </trkpt>
      <trkpt lat="43.58577" lon="1.14001">
        <ele>283.3</ele>
        <time>2020-11-29T11:14:00Z</time>
      </trkpt>
      <trkpt lat="43.58577" lon="1.14006">
        <ele>283.6</ele>
        <time>2020-11-29T11:14:01Z</time>
      </trkpt>
      <trkpt lat="43.58577" lon="1.14007">
        <ele>283.7</ele>
        <time>2020-11-29T11:14:02Z</time>
      </trkpt>
      <trkpt lat="43.58577" lon="1.14011">
        <ele>284.1</ele>
        <time>2020-11-29T11:14:03Z</time>
      </trkpt>
      <trkpt lat="43.58577" lon="1.14013">
        <ele>284.2</ele>
        <time>2020-11-29T11:14:04Z</time>
      </trkpt>
      <trkpt lat="43.58577" lon="1.14017">
        <ele>284.6</ele>
        <time>2020-11-29T11:14:05Z</time>
      </trkpt>
      <trkpt lat="43.58576" lon="1.14019">
        <ele>284.7</ele>
        <time>2020-11-29T11:14:06Z</time>
      </trkpt>
      <trkpt lat="43.58576" lon="1.14024">
        <ele>285.1</ele>
        <time>2020-11-29T11:14:07Z</time>
      </trkpt>
      <trkpt lat="43.58576" lon="1.14026">
        <ele>285.2</ele>
        <time>2020-11-29T11:14:08Z</time>
      </trkpt>
      <trkpt lat="43.58575" lon="1.1403">
        <ele>285.5</ele>
        <time>2020-11-29T11:14:09Z</time>
      </trkpt>
      <trkpt lat="43.58575" lon="1.14035">
        <ele>285.8</ele>
        <time>2020-11-29T11:14:10Z</time>
      </trkpt>
      <trkpt lat="43.58575" lon="1.14036">
        <ele>285.9</ele>
        <time>2020-11-29T11:14:11Z</time>
      </trkpt>
      <trkpt lat="43.58574" lon="1.1404">
        <ele>286.1</ele>
        <time>2020-11-29T11:14:12Z</time>
      </trkpt>
      <trkpt lat="43.58574" lon="1.14042">
        <ele>286.2</ele>
        <time>2020-11-29T11:14:13Z</time>
      </trkpt>
      <trkpt lat="43.58574" lon="1.14047">
        <ele>286.4</ele>
        <time>2020-11-29T11:14:14Z</time>
      </trkpt>
      <trkpt lat="43.58574" lon="1.1405">
        <ele>286.6</ele>
        <time>2020-11-29T11:14:15Z</time>
      </trkpt>
      <trkpt lat="43.58574" lon="1.14052">
        <ele>286.6</ele>
        <time>2020-11-29T11:14:16Z</time>
      </trkpt>
      <trkpt lat="43.58574" lon="1.14054">
        <ele>286.7</ele>
        <time>2020-11-29T11:14:17Z</time>
      </trkpt>
      <trkpt lat="43.58573" lon="1.14058">
        <ele>286.9</ele>
        <time>2020-11-29T11:14:18Z</time>
      </trkpt>
      <trkpt lat="43.58573" lon="1.1406">
        <ele>286.9</ele>
        <time>2020-11-29T11:14:19Z</time>
      </trkpt>
      <trkpt lat="43.58572" lon="1.14064">
        <ele>287.1</ele>
        <time>2020-11-29T11:14:20Z</time>
      </trkpt>
      <trkpt lat="43.58572" lon="1.14065">
        <ele>287.1</ele>
        <time>2020-11-29T11:14:21Z</time>
      </trkpt>
      <trkpt lat="43.58569" lon="1.14069">
        <ele>287.3</ele>
        <time>2020-11-29T11:14:22Z</time>
      </trkpt>
      <trkpt lat="43.58569" lon="1.14073">
        <ele>287.4</ele>
        <time>2020-11-29T11:14:23Z</time>
      </trkpt>
      <trkpt lat="43.58568" lon="1.14074">
        <ele>287.4</ele>
        <time>2020-11-29T11:14:24Z</time>
      </trkpt>
      <trkpt lat="43.58568" lon="1.14078">
        <ele>287.5</ele>
        <time>2020-11-29T11:14:25Z</time>
      </trkpt>
      <trkpt lat="43.58568" lon="1.14079">
        <ele>287.5</ele>
        <time>2020-11-29T11:14:26Z</time>
      </trkpt>
      <trkpt lat="43.58568" lon="1.14085">
        <ele>287.7</ele>
        <time>2020-11-29T11:14:27Z</time>
      </trkpt>
      <trkpt lat="43.58568" lon="1.14088">
        <ele>287.7</ele>
        <time>2020-11-29T11:14:28Z</time>
      </trkpt>
      <trkpt lat="43.58567" lon="1.14091">
        <ele>287.8</ele>
        <time>2020-11-29T11:14:29Z</time>
      </trkpt>
      <trkpt lat="43.58566" lon="1.14092">
        <ele>287.8</ele>
        <time>2020-11-29T11:14:30Z</time>
      </trkpt>
      <trkpt lat="43.58566" lon="1.14094">
        <ele>287.9</ele>
        <time>2020-11-29T11:14:31Z</time>
      </trkpt>
      <trkpt lat="43.58565" lon="1.14096">
        <ele>287.9</ele>
        <time>2020-11-29T11:14:32Z</time>
      </trkpt>
      <trkpt lat="43.58564" lon="1.14098">
        <ele>288</ele>
        <time>2020-11-29T11:14:33Z</time>
      </trkpt>
      <trkpt lat="43.58564" lon="1.14102">
        <ele>288.1</ele>
        <time>2020-11-29T11:14:34Z</time>
      </trkpt>
      <trkpt lat="43.58564" lon="1.14104">
        <ele>288.1</ele>
        <time>2020-11-29T11:14:35Z</time>
      </trkpt>
      <trkpt lat="43.58563" lon="1.14109">
        <ele>288.2</ele>
        <time>2020-11-29T11:14:36Z</time>
      </trkpt>
      <trkpt lat="43.58562" lon="1.14112">
        <ele>288.3</ele>
        <time>2020-11-29T11:14:37Z</time>
      </trkpt>
      <trkpt lat="43.58561" lon="1.14117">
        <ele>288.5</ele>
        <time>2020-11-29T11:14:38Z</time>
      </trkpt>
      <trkpt lat="43.58561" lon="1.14121">
        <ele>289.4</ele>
        <time>2020-11-29T11:14:39Z</time>
      </trkpt>
      <trkpt lat="43.58561" lon="1.14125">
        <ele>289.6</ele>
        <time>2020-11-29T11:14:40Z</time>
      </trkpt>
      <trkpt lat="43.5856" lon="1.14126">
        <ele>289.8</ele>
        <time>2020-11-29T11:14:41Z</time>
      </trkpt>
      <trkpt lat="43.58559" lon="1.14134">
        <ele>290</ele>
        <time>2020-11-29T11:14:42Z</time>
      </trkpt>
      <trkpt lat="43.58559" lon="1.1414">
        <ele>290.2</ele>
        <time>2020-11-29T11:14:43Z</time>
      </trkpt>
      <trkpt lat="43.58559" lon="1.14143">
        <ele>290.4</ele>
        <time>2020-11-29T11:14:44Z</time>
      </trkpt>
      <trkpt lat="43.58559" lon="1.14147">
        <ele>290.5</ele>
        <time>2020-11-29T11:14:45Z</time>
      </trkpt>
      <trkpt lat="43.58558" lon="1.14152">
        <ele>291.3</ele>
        <time>2020-11-29T11:14:46Z</time>
      </trkpt>
      <trkpt lat="43.58557" lon="1.14154">
        <ele>291.5</ele>
        <time>2020-11-29T11:14:47Z</time>
      </trkpt>
      <trkpt lat="43.58557" lon="1.14158">
        <ele>291.6</ele>
        <time>2020-11-29T11:14:48Z</time>
      </trkpt>
      <trkpt lat="43.58557" lon="1.14164">
        <ele>291.5</ele>
        <time>2020-11-29T11:14:49Z</time>
      </trkpt>
      <trkpt lat="43.58557" lon="1.14168">
        <ele>291.6</ele>
        <time>2020-11-29T11:14:50Z</time>
      </trkpt>
      <trkpt lat="43.58558" lon="1.14173">
        <ele>291.7</ele>
        <time>2020-11-29T11:14:51Z</time>
      </trkpt>
      <trkpt lat="43.58559" lon="1.14176">
        <ele>291</ele>
        <time>2020-11-29T11:14:52Z</time>
      </trkpt>
      <trkpt lat="43.58559" lon="1.14178">
        <ele>291.1</ele>
        <time>2020-11-29T11:14:53Z</time>
      </trkpt>
      <trkpt lat="43.58559" lon="1.14181">
        <ele>291.3</ele>
        <time>2020-11-29T11:14:54Z</time>
      </trkpt>
      <trkpt lat="43.5856" lon="1.14185">
        <ele>291.4</ele>
        <time>2020-11-29T11:14:55Z</time>
      </trkpt>
      <trkpt lat="43.5856" lon="1.14186">
        <ele>291.5</ele>
        <time>2020-11-29T11:14:56Z</time>
      </trkpt>
      <trkpt lat="43.58562" lon="1.14191">
        <ele>291</ele>
        <time>2020-11-29T11:14:57Z</time>
      </trkpt>
      <trkpt lat="43.58563" lon="1.14193">
        <ele>291.2</ele>
        <time>2020-11-29T11:14:58Z</time>
      </trkpt>
      <trkpt lat="43.58562" lon="1.14197">
        <ele>291.4</ele>
        <time>2020-11-29T11:14:59Z</time>
      </trkpt>
      <trkpt lat="43.58562" lon="1.14198">
        <ele>291.6</ele>
        <time>2020-11-29T11:15:00Z</time>
      </trkpt>
      <trkpt lat="43.58565" lon="1.14201">
        <ele>291.2</ele>
        <time>2020-11-29T11:15:01Z</time>
      </trkpt>
      <trkpt lat="43.58568" lon="1.14204">
        <ele>291</ele>
        <time>2020-11-29T11:15:02Z</time>
      </trkpt>
      <trkpt lat="43.58569" lon="1.14206">
        <ele>291.1</ele>
        <time>2020-11-29T11:15:03Z</time>
      </trkpt>
      <trkpt lat="43.58571" lon="1.14209">
        <ele>291.1</ele>
        <time>2020-11-29T11:15:04Z</time>
      </trkpt>
      <trkpt lat="43.58573" lon="1.14212">
        <ele>291.5</ele>
        <time>2020-11-29T11:15:05Z</time>
      </trkpt>
      <trkpt lat="43.58574" lon="1.14213">
        <ele>291.7</ele>
        <time>2020-11-29T11:15:06Z</time>
      </trkpt>
      <trkpt lat="43.58574" lon="1.14216">
        <ele>291.8</ele>
        <time>2020-11-29T11:15:07Z</time>
      </trkpt>
      <trkpt lat="43.58576" lon="1.14218">
        <ele>291.9</ele>
        <time>2020-11-29T11:15:08Z</time>
      </trkpt>
      <trkpt lat="43.58578" lon="1.1422">
        <ele>292.1</ele>
        <time>2020-11-29T11:15:09Z</time>
      </trkpt>
      <trkpt lat="43.58579" lon="1.1422">
        <ele>292.2</ele>
        <time>2020-11-29T11:15:10Z</time>
      </trkpt>
      <trkpt lat="43.58582" lon="1.14221">
        <ele>292</ele>
        <time>2020-11-29T11:15:11Z</time>
      </trkpt>
      <trkpt lat="43.58583" lon="1.14221">
        <ele>291.8</ele>
        <time>2020-11-29T11:15:12Z</time>
      </trkpt>
      <trkpt lat="43.58585" lon="1.14221">
        <ele>291.9</ele>
        <time>2020-11-29T11:15:13Z</time>
      </trkpt>
      <trkpt lat="43.58587" lon="1.14221">
        <ele>291.7</ele>
        <time>2020-11-29T11:15:14Z</time>
      </trkpt>
      <trkpt lat="43.5859" lon="1.14223">
        <ele>291.5</ele>
        <time>2020-11-29T11:15:15Z</time>
      </trkpt>
      <trkpt lat="43.58591" lon="1.14224">
        <ele>292.1</ele>
        <time>2020-11-29T11:15:16Z</time>
      </trkpt>
      <trkpt lat="43.58594" lon="1.14227">
        <ele>292</ele>
        <time>2020-11-29T11:15:17Z</time>
      </trkpt>
      <trkpt lat="43.58597" lon="1.14228">
        <ele>292.4</ele>
        <time>2020-11-29T11:15:18Z</time>
      </trkpt>
      <trkpt lat="43.586" lon="1.1423">
        <ele>292.3</ele>
        <time>2020-11-29T11:15:19Z</time>
      </trkpt>
      <trkpt lat="43.58601" lon="1.14231">
        <ele>292.4</ele>
        <time>2020-11-29T11:15:20Z</time>
      </trkpt>
      <trkpt lat="43.58605" lon="1.14232">
        <ele>292.1</ele>
        <time>2020-11-29T11:15:21Z</time>
      </trkpt>
      <trkpt lat="43.58608" lon="1.14232">
        <ele>292.7</ele>
        <time>2020-11-29T11:15:22Z</time>
      </trkpt>
      <trkpt lat="43.58609" lon="1.14233">
        <ele>292.8</ele>
        <time>2020-11-29T11:15:23Z</time>
      </trkpt>
      <trkpt lat="43.5861" lon="1.14234">
        <ele>293</ele>
        <time>2020-11-29T11:15:24Z</time>
      </trkpt>
      <trkpt lat="43.58611" lon="1.14237">
        <ele>293.7</ele>
        <time>2020-11-29T11:15:25Z</time>
      </trkpt>
      <trkpt lat="43.58613" lon="1.14238">
        <ele>293.7</ele>
        <time>2020-11-29T11:15:26Z</time>
      </trkpt>
      <trkpt lat="43.58614" lon="1.14239">
        <ele>293.7</ele>
        <time>2020-11-29T11:15:27Z</time>
      </trkpt>
      <trkpt lat="43.58616" lon="1.14241">
        <ele>294.4</ele>
        <time>2020-11-29T11:15:28Z</time>
      </trkpt>
      <trkpt lat="43.5862" lon="1.14242">
        <ele>294.4</ele>
        <time>2020-11-29T11:15:29Z</time>
      </trkpt>
      <trkpt lat="43.58626" lon="1.14243">
        <ele>294.4</ele>
        <time>2020-11-29T11:15:30Z</time>
      </trkpt>
      <trkpt lat="43.58629" lon="1.14244">
        <ele>294.5</ele>
        <time>2020-11-29T11:15:31Z</time>
      </trkpt>
      <trkpt lat="43.58633" lon="1.14246">
        <ele>295.1</ele>
        <time>2020-11-29T11:15:32Z</time>
      </trkpt>
      <trkpt lat="43.58633" lon="1.14247">
        <ele>295.2</ele>
        <time>2020-11-29T11:15:33Z</time>
      </trkpt>
      <trkpt lat="43.58636" lon="1.14251">
        <ele>296</ele>
        <time>2020-11-29T11:15:34Z</time>
      </trkpt>
      <trkpt lat="43.58637" lon="1.14253">
        <ele>296.1</ele>
        <time>2020-11-29T11:15:35Z</time>
      </trkpt>
      <trkpt lat="43.58639" lon="1.14255">
        <ele>296.8</ele>
        <time>2020-11-29T11:15:36Z</time>
      </trkpt>
      <trkpt lat="43.58643" lon="1.14256">
        <ele>297</ele>
        <time>2020-11-29T11:15:37Z</time>
      </trkpt>
      <trkpt lat="43.58646" lon="1.14257">
        <ele>297.2</ele>
        <time>2020-11-29T11:15:38Z</time>
      </trkpt>
      <trkpt lat="43.58651" lon="1.14258">
        <ele>297.4</ele>
        <time>2020-11-29T11:15:39Z</time>
      </trkpt>
      <trkpt lat="43.58656" lon="1.14259">
        <ele>297.5</ele>
        <time>2020-11-29T11:15:40Z</time>
      </trkpt>
      <trkpt lat="43.58659" lon="1.1426">
        <ele>297.7</ele>
        <time>2020-11-29T11:15:41Z</time>
      </trkpt>
      <trkpt lat="43.58663" lon="1.1426">
        <ele>297.8</ele>
        <time>2020-11-29T11:15:42Z</time>
      </trkpt>
      <trkpt lat="43.58667" lon="1.14261">
        <ele>297.9</ele>
        <time>2020-11-29T11:15:43Z</time>
      </trkpt>
      <trkpt lat="43.5867" lon="1.14263">
        <ele>298.1</ele>
        <time>2020-11-29T11:15:44Z</time>
      </trkpt>
      <trkpt lat="43.58673" lon="1.14264">
        <ele>298.2</ele>
        <time>2020-11-29T11:15:45Z</time>
      </trkpt>
      <trkpt lat="43.58676" lon="1.14266">
        <ele>298.3</ele>
        <time>2020-11-29T11:15:46Z</time>
      </trkpt>
      <trkpt lat="43.58681" lon="1.14269">
        <ele>298.4</ele>
        <time>2020-11-29T11:15:47Z</time>
      </trkpt>
      <trkpt lat="43.58686" lon="1.14271">
        <ele>298.6</ele>
        <time>2020-11-29T11:15:48Z</time>
      </trkpt>
      <trkpt lat="43.5869" lon="1.14274">
        <ele>298.7</ele>
        <time>2020-11-29T11:15:49Z</time>
      </trkpt>
      <trkpt lat="43.58696" lon="1.14278">
        <ele>298.9</ele>
        <time>2020-11-29T11:15:50Z</time>
      </trkpt>
      <trkpt lat="43.58703" lon="1.14282">
        <ele>299.1</ele>
        <time>2020-11-29T11:15:51Z</time>
      </trkpt>
      <trkpt lat="43.58705" lon="1.14284">
        <ele>299.2</ele>
        <time>2020-11-29T11:15:52Z</time>
      </trkpt>
      <trkpt lat="43.58708" lon="1.14287">
        <ele>299.3</ele>
        <time>2020-11-29T11:15:53Z</time>
      </trkpt>
      <trkpt lat="43.58711" lon="1.14289">
        <ele>299.4</ele>
        <time>2020-11-29T11:15:54Z</time>
      </trkpt>
      <trkpt lat="43.58714" lon="1.14292">
        <ele>299.6</ele>
        <time>2020-11-29T11:15:55Z</time>
      </trkpt>
      <trkpt lat="43.58718" lon="1.14297">
        <ele>299.7</ele>
        <time>2020-11-29T11:15:56Z</time>
      </trkpt>
      <trkpt lat="43.58723" lon="1.143">
        <ele>299.8</ele>
        <time>2020-11-29T11:15:57Z</time>
      </trkpt>
      <trkpt lat="43.58726" lon="1.14304">
        <ele>299.9</ele>
        <time>2020-11-29T11:15:58Z</time>
      </trkpt>
      <trkpt lat="43.58729" lon="1.14306">
        <ele>299.9</ele>
        <time>2020-11-29T11:15:59Z</time>
      </trkpt>
      <trkpt lat="43.5873" lon="1.14307">
        <ele>299.9</ele>
        <time>2020-11-29T11:16:00Z</time>
      </trkpt>
      <trkpt lat="43.58731" lon="1.14308">
        <ele>299.9</ele>
        <time>2020-11-29T11:16:01Z</time>
      </trkpt>
      <trkpt lat="43.58731" lon="1.14309">
        <ele>299.9</ele>
        <time>2020-11-29T11:16:02Z</time>
      </trkpt>
      <trkpt lat="43.58731" lon="1.14309">
        <ele>299.9</ele>
        <time>2020-11-29T11:16:03Z</time>
      </trkpt>
      <trkpt lat="43.58731" lon="1.14309">
        <ele>299.9</ele>
        <time>2020-11-29T11:16:04Z</time>
      </trkpt>
      <trkpt lat="43.58732" lon="1.14309">
        <ele>299.9</ele>
        <time>2020-11-29T11:16:05Z</time>
      </trkpt>
      <trkpt lat="43.58732" lon="1.14309">
        <ele>299.9</ele>
        <time>2020-11-29T11:16:06Z</time>
      </trkpt>
      <trkpt lat="43.58732" lon="1.14309">
        <ele>299.9</ele>
        <time>2020-11-29T11:16:07Z</time>
      </trkpt>
      <trkpt lat="43.58732" lon="1.14309">
        <ele>299.9</ele>
        <time>2020-11-29T11:16:08Z</time>
      </trkpt>
      <trkpt lat="43.58732" lon="1.14309">
        <ele>299.9</ele>
        <time>2020-11-29T11:16:09Z</time>
      </trkpt>
      <trkpt lat="43.58732" lon="1.14309">
        <ele>299.9</ele>
        <time>2020-11-29T11:16:10Z</time>
      </trkpt>
      <trkpt lat="43.58732" lon="1.1431">
        <ele>299.9</ele>
        <time>2020-11-29T11:16:11Z</time>
      </trkpt>
      <trkpt lat="43.58732" lon="1.1431">
        <ele>299.9</ele>
        <time>2020-11-29T11:16:12Z</time>
      </trkpt>
      <trkpt lat="43.58732" lon="1.1431">
        <ele>299.9</ele>
        <time>2020-11-29T11:16:13Z</time>
      </trkpt>
      <trkpt lat="43.58732" lon="1.1431">
        <ele>299.9</ele>
        <time>2020-11-29T11:16:14Z</time>
      </trkpt>
      <trkpt lat="43.58732" lon="1.1431">
        <ele>299.9</ele>
        <time>2020-11-29T11:16:15Z</time>
      </trkpt>
      <trkpt lat="43.58732" lon="1.14311">
        <ele>299.9</ele>
        <time>2020-11-29T11:16:16Z</time>
      </trkpt>
      <trkpt lat="43.58732" lon="1.14311">
        <ele>299.9</ele>
        <time>2020-11-29T11:16:17Z</time>
      </trkpt>
      <trkpt lat="43.58732" lon="1.14311">
        <ele>299.9</ele>
        <time>2020-11-29T11:16:18Z</time>
      </trkpt>
      <trkpt lat="43.58732" lon="1.14311">
        <ele>299.9</ele>
        <time>2020-11-29T11:16:19Z</time>
      </trkpt>
      <trkpt lat="43.58732" lon="1.14312">
        <ele>299.9</ele>
        <time>2020-11-29T11:16:20Z</time>
      </trkpt>
      <trkpt lat="43.58733" lon="1.14312">
        <ele>299.9</ele>
        <time>2020-11-29T11:16:21Z</time>
      </trkpt>
      <trkpt lat="43.58733" lon="1.14313">
        <ele>299.9</ele>
        <time>2020-11-29T11:16:22Z</time>
      </trkpt>
      <trkpt lat="43.58733" lon="1.14313">
        <ele>299.9</ele>
        <time>2020-11-29T11:16:23Z</time>
      </trkpt>
      <trkpt lat="43.58734" lon="1.14314">
        <ele>299.9</ele>
        <time>2020-11-29T11:16:24Z</time>
      </trkpt>
      <trkpt lat="43.58734" lon="1.14315">
        <ele>299.9</ele>
        <time>2020-11-29T11:16:25Z</time>
      </trkpt>
      <trkpt lat="43.58735" lon="1.14315">
        <ele>299.9</ele>
        <time>2020-11-29T11:16:26Z</time>
      </trkpt>
      <trkpt lat="43.58736" lon="1.14316">
        <ele>299.9</ele>
        <time>2020-11-29T11:16:27Z</time>
      </trkpt>
      <trkpt lat="43.58738" lon="1.14319">
        <ele>299.8</ele>
        <time>2020-11-29T11:16:28Z</time>
      </trkpt>
      <trkpt lat="43.58739" lon="1.1432">
        <ele>299.8</ele>
        <time>2020-11-29T11:16:29Z</time>
      </trkpt>
      <trkpt lat="43.58739" lon="1.14321">
        <ele>299.8</ele>
        <time>2020-11-29T11:16:30Z</time>
      </trkpt>
      <trkpt lat="43.58739" lon="1.14321">
        <ele>299.8</ele>
        <time>2020-11-29T11:16:31Z</time>
      </trkpt>
      <trkpt lat="43.58739" lon="1.14321">
        <ele>299.8</ele>
        <time>2020-11-29T11:16:32Z</time>
      </trkpt>
      <trkpt lat="43.58739" lon="1.14321">
        <ele>299.8</ele>
        <time>2020-11-29T11:16:33Z</time>
      </trkpt>
      <trkpt lat="43.5874" lon="1.14321">
        <ele>299.8</ele>
        <time>2020-11-29T11:16:34Z</time>
      </trkpt>
      <trkpt lat="43.5874" lon="1.14322">
        <ele>299.8</ele>
        <time>2020-11-29T11:16:35Z</time>
      </trkpt>
      <trkpt lat="43.5874" lon="1.14322">
        <ele>299.8</ele>
        <time>2020-11-29T11:16:36Z</time>
      </trkpt>
      <trkpt lat="43.5874" lon="1.14322">
        <ele>299.8</ele>
        <time>2020-11-29T11:16:37Z</time>
      </trkpt>
      <trkpt lat="43.5874" lon="1.14322">
        <ele>299.8</ele>
        <time>2020-11-29T11:16:38Z</time>
      </trkpt>
      <trkpt lat="43.5874" lon="1.14322">
        <ele>299.8</ele>
        <time>2020-11-29T11:16:39Z</time>
      </trkpt>
      <trkpt lat="43.5874" lon="1.14322">
        <ele>299.7</ele>
        <time>2020-11-29T11:16:40Z</time>
      </trkpt>
      <trkpt lat="43.5874" lon="1.14322">
        <ele>299.7</ele>
        <time>2020-11-29T11:16:41Z</time>
      </trkpt>
      <trkpt lat="43.5874" lon="1.14323">
        <ele>299.7</ele>
        <time>2020-11-29T11:16:42Z</time>
      </trkpt>
      <trkpt lat="43.5874" lon="1.14324">
        <ele>299.7</ele>
        <time>2020-11-29T11:16:43Z</time>
      </trkpt>
      <trkpt lat="43.58741" lon="1.14325">
        <ele>299.7</ele>
        <time>2020-11-29T11:16:44Z</time>
      </trkpt>
      <trkpt lat="43.58741" lon="1.14325">
        <ele>299.7</ele>
        <time>2020-11-29T11:16:45Z</time>
      </trkpt>
      <trkpt lat="43.58741" lon="1.14325">
        <ele>299.7</ele>
        <time>2020-11-29T11:16:46Z</time>
      </trkpt>
      <trkpt lat="43.58741" lon="1.14325">
        <ele>299.7</ele>
        <time>2020-11-29T11:16:47Z</time>
      </trkpt>
      <trkpt lat="43.58741" lon="1.14325">
        <ele>299.7</ele>
        <time>2020-11-29T11:16:48Z</time>
      </trkpt>
      <trkpt lat="43.58741" lon="1.14325">
        <ele>299.7</ele>
        <time>2020-11-29T11:16:49Z</time>
      </trkpt>
      <trkpt lat="43.58741" lon="1.14325">
        <ele>299.7</ele>
        <time>2020-11-29T11:16:50Z</time>
      </trkpt>
      <trkpt lat="43.58742" lon="1.14327">
        <ele>299.6</ele>
        <time>2020-11-29T11:16:51Z</time>
      </trkpt>
      <trkpt lat="43.58745" lon="1.14331">
        <ele>299.5</ele>
        <time>2020-11-29T11:16:52Z</time>
      </trkpt>
      <trkpt lat="43.58746" lon="1.14333">
        <ele>299.4</ele>
        <time>2020-11-29T11:16:53Z</time>
      </trkpt>
      <trkpt lat="43.58748" lon="1.14337">
        <ele>299.1</ele>
        <time>2020-11-29T11:16:54Z</time>
      </trkpt>
      <trkpt lat="43.58751" lon="1.1434">
        <ele>298.9</ele>
        <time>2020-11-29T11:16:55Z</time>
      </trkpt>
      <trkpt lat="43.58754" lon="1.14345">
        <ele>298.6</ele>
        <time>2020-11-29T11:16:56Z</time>
      </trkpt>
      <trkpt lat="43.58758" lon="1.14351">
        <ele>298.3</ele>
        <time>2020-11-29T11:16:57Z</time>
      </trkpt>
      <trkpt lat="43.58761" lon="1.14355">
        <ele>298</ele>
        <time>2020-11-29T11:16:58Z</time>
      </trkpt>
      <trkpt lat="43.58765" lon="1.1436">
        <ele>297.8</ele>
        <time>2020-11-29T11:16:59Z</time>
      </trkpt>
      <trkpt lat="43.58769" lon="1.14365">
        <ele>297.7</ele>
        <time>2020-11-29T11:17:00Z</time>
      </trkpt>
      <trkpt lat="43.58772" lon="1.14369">
        <ele>297.6</ele>
        <time>2020-11-29T11:17:01Z</time>
      </trkpt>
      <trkpt lat="43.58776" lon="1.14374">
        <ele>297.6</ele>
        <time>2020-11-29T11:17:02Z</time>
      </trkpt>
      <trkpt lat="43.58779" lon="1.14378">
        <ele>297.5</ele>
        <time>2020-11-29T11:17:03Z</time>
      </trkpt>
      <trkpt lat="43.58783" lon="1.14383">
        <ele>297.6</ele>
        <time>2020-11-29T11:17:04Z</time>
      </trkpt>
      <trkpt lat="43.58786" lon="1.14388">
        <ele>297.6</ele>
        <time>2020-11-29T11:17:05Z</time>
      </trkpt>
      <trkpt lat="43.58788" lon="1.14392">
        <ele>297.7</ele>
        <time>2020-11-29T11:17:06Z</time>
      </trkpt>
      <trkpt lat="43.58789" lon="1.14396">
        <ele>297.8</ele>
        <time>2020-11-29T11:17:07Z</time>
      </trkpt>
      <trkpt lat="43.58789" lon="1.144">
        <ele>297.9</ele>
        <time>2020-11-29T11:17:08Z</time>
      </trkpt>
      <trkpt lat="43.58789" lon="1.14405">
        <ele>298</ele>
        <time>2020-11-29T11:17:09Z</time>
      </trkpt>
      <trkpt lat="43.58789" lon="1.14412">
        <ele>298.3</ele>
        <time>2020-11-29T11:17:10Z</time>
      </trkpt>
      <trkpt lat="43.58787" lon="1.14415">
        <ele>298.6</ele>
        <time>2020-11-29T11:17:11Z</time>
      </trkpt>
      <trkpt lat="43.58787" lon="1.14421">
        <ele>298.9</ele>
        <time>2020-11-29T11:17:12Z</time>
      </trkpt>
      <trkpt lat="43.58786" lon="1.14425">
        <ele>299.1</ele>
        <time>2020-11-29T11:17:13Z</time>
      </trkpt>
      <trkpt lat="43.58786" lon="1.1443">
        <ele>299.5</ele>
        <time>2020-11-29T11:17:14Z</time>
      </trkpt>
      <trkpt lat="43.58786" lon="1.14432">
        <ele>299.6</ele>
        <time>2020-11-29T11:17:15Z</time>
      </trkpt>
      <trkpt lat="43.58786" lon="1.14437">
        <ele>299.8</ele>
        <time>2020-11-29T11:17:16Z</time>
      </trkpt>
      <trkpt lat="43.58787" lon="1.14442">
        <ele>300.1</ele>
        <time>2020-11-29T11:17:17Z</time>
      </trkpt>
      <trkpt lat="43.58788" lon="1.14444">
        <ele>300.2</ele>
        <time>2020-11-29T11:17:18Z</time>
      </trkpt>
      <trkpt lat="43.58791" lon="1.14448">
        <ele>300.2</ele>
        <time>2020-11-29T11:17:19Z</time>
      </trkpt>
      <trkpt lat="43.58795" lon="1.14452">
        <ele>300.2</ele>
        <time>2020-11-29T11:17:20Z</time>
      </trkpt>
      <trkpt lat="43.58799" lon="1.14458">
        <ele>300.1</ele>
        <time>2020-11-29T11:17:21Z</time>
      </trkpt>
      <trkpt lat="43.58805" lon="1.14462">
        <ele>300.1</ele>
        <time>2020-11-29T11:17:22Z</time>
      </trkpt>
      <trkpt lat="43.58809" lon="1.14468">
        <ele>300.1</ele>
        <time>2020-11-29T11:17:23Z</time>
      </trkpt>
      <trkpt lat="43.58813" lon="1.14471">
        <ele>300</ele>
        <time>2020-11-29T11:17:24Z</time>
      </trkpt>
      <trkpt lat="43.58818" lon="1.14474">
        <ele>300</ele>
        <time>2020-11-29T11:17:25Z</time>
      </trkpt>
      <trkpt lat="43.58822" lon="1.14476">
        <ele>300</ele>
        <time>2020-11-29T11:17:26Z</time>
      </trkpt>
      <trkpt lat="43.58828" lon="1.14476">
        <ele>300</ele>
        <time>2020-11-29T11:17:27Z</time>
      </trkpt>
      <trkpt lat="43.58833" lon="1.14479">
        <ele>300</ele>
        <time>2020-11-29T11:17:28Z</time>
      </trkpt>
      <trkpt lat="43.58838" lon="1.14481">
        <ele>300</ele>
        <time>2020-11-29T11:17:29Z</time>
      </trkpt>
      <trkpt lat="43.58842" lon="1.14483">
        <ele>299.9</ele>
        <time>2020-11-29T11:17:30Z</time>
      </trkpt>
      <trkpt lat="43.58847" lon="1.14484">
        <ele>299.9</ele>
        <time>2020-11-29T11:17:31Z</time>
      </trkpt>
      <trkpt lat="43.5885" lon="1.14486">
        <ele>299.9</ele>
        <time>2020-11-29T11:17:32Z</time>
      </trkpt>
      <trkpt lat="43.58853" lon="1.14487">
        <ele>299.9</ele>
        <time>2020-11-29T11:17:33Z</time>
      </trkpt>
      <trkpt lat="43.58856" lon="1.14489">
        <ele>299.9</ele>
        <time>2020-11-29T11:17:34Z</time>
      </trkpt>
      <trkpt lat="43.5886" lon="1.14491">
        <ele>299.9</ele>
        <time>2020-11-29T11:17:35Z</time>
      </trkpt>
      <trkpt lat="43.58864" lon="1.14495">
        <ele>299.9</ele>
        <time>2020-11-29T11:17:36Z</time>
      </trkpt>
      <trkpt lat="43.58869" lon="1.14497">
        <ele>299.9</ele>
        <time>2020-11-29T11:17:37Z</time>
      </trkpt>
      <trkpt lat="43.58873" lon="1.14499">
        <ele>299.9</ele>
        <time>2020-11-29T11:17:38Z</time>
      </trkpt>
      <trkpt lat="43.58877" lon="1.14502">
        <ele>299.9</ele>
        <time>2020-11-29T11:17:39Z</time>
      </trkpt>
      <trkpt lat="43.58882" lon="1.14505">
        <ele>299.9</ele>
        <time>2020-11-29T11:17:40Z</time>
      </trkpt>
      <trkpt lat="43.58886" lon="1.1451">
        <ele>299.8</ele>
        <time>2020-11-29T11:17:41Z</time>
      </trkpt>
      <trkpt lat="43.5889" lon="1.14517">
        <ele>299.8</ele>
        <time>2020-11-29T11:17:42Z</time>
      </trkpt>
      <trkpt lat="43.58894" lon="1.14522">
        <ele>299.7</ele>
        <time>2020-11-29T11:17:43Z</time>
      </trkpt>
      <trkpt lat="43.58899" lon="1.14527">
        <ele>299.7</ele>
        <time>2020-11-29T11:17:44Z</time>
      </trkpt>
      <trkpt lat="43.58902" lon="1.1453">
        <ele>299.7</ele>
        <time>2020-11-29T11:17:45Z</time>
      </trkpt>
      <trkpt lat="43.58905" lon="1.14534">
        <ele>299.6</ele>
        <time>2020-11-29T11:17:46Z</time>
      </trkpt>
      <trkpt lat="43.58909" lon="1.1454">
        <ele>299.6</ele>
        <time>2020-11-29T11:17:47Z</time>
      </trkpt>
      <trkpt lat="43.58913" lon="1.14545">
        <ele>299.6</ele>
        <time>2020-11-29T11:17:48Z</time>
      </trkpt>
      <trkpt lat="43.58916" lon="1.14549">
        <ele>299.6</ele>
        <time>2020-11-29T11:17:49Z</time>
      </trkpt>
      <trkpt lat="43.58919" lon="1.14554">
        <ele>299.5</ele>
        <time>2020-11-29T11:17:50Z</time>
      </trkpt>
      <trkpt lat="43.58923" lon="1.14558">
        <ele>299.5</ele>
        <time>2020-11-29T11:17:51Z</time>
      </trkpt>
      <trkpt lat="43.58925" lon="1.14563">
        <ele>299.5</ele>
        <time>2020-11-29T11:17:52Z</time>
      </trkpt>
      <trkpt lat="43.58928" lon="1.14568">
        <ele>299.4</ele>
        <time>2020-11-29T11:17:53Z</time>
      </trkpt>
      <trkpt lat="43.58932" lon="1.14573">
        <ele>299.4</ele>
        <time>2020-11-29T11:17:54Z</time>
      </trkpt>
      <trkpt lat="43.58935" lon="1.14577">
        <ele>299.3</ele>
        <time>2020-11-29T11:17:55Z</time>
      </trkpt>
      <trkpt lat="43.58939" lon="1.14583">
        <ele>299.3</ele>
        <time>2020-11-29T11:17:56Z</time>
      </trkpt>
      <trkpt lat="43.58942" lon="1.14587">
        <ele>299.2</ele>
        <time>2020-11-29T11:17:57Z</time>
      </trkpt>
      <trkpt lat="43.58946" lon="1.14594">
        <ele>299.1</ele>
        <time>2020-11-29T11:17:58Z</time>
      </trkpt>
      <trkpt lat="43.5895" lon="1.146">
        <ele>299.1</ele>
        <time>2020-11-29T11:17:59Z</time>
      </trkpt>
      <trkpt lat="43.58953" lon="1.14606">
        <ele>299</ele>
        <time>2020-11-29T11:18:00Z</time>
      </trkpt>
      <trkpt lat="43.58957" lon="1.14613">
        <ele>299</ele>
        <time>2020-11-29T11:18:01Z</time>
      </trkpt>
      <trkpt lat="43.5896" lon="1.14619">
        <ele>298.9</ele>
        <time>2020-11-29T11:18:02Z</time>
      </trkpt>
      <trkpt lat="43.58964" lon="1.14624">
        <ele>298.8</ele>
        <time>2020-11-29T11:18:03Z</time>
      </trkpt>
      <trkpt lat="43.58966" lon="1.1463">
        <ele>298.7</ele>
        <time>2020-11-29T11:18:04Z</time>
      </trkpt>
      <trkpt lat="43.58968" lon="1.14637">
        <ele>298.5</ele>
        <time>2020-11-29T11:18:05Z</time>
      </trkpt>
      <trkpt lat="43.58971" lon="1.14644">
        <ele>298.4</ele>
        <time>2020-11-29T11:18:06Z</time>
      </trkpt>
      <trkpt lat="43.58974" lon="1.14652">
        <ele>298.2</ele>
        <time>2020-11-29T11:18:07Z</time>
      </trkpt>
      <trkpt lat="43.58977" lon="1.14659">
        <ele>298</ele>
        <time>2020-11-29T11:18:08Z</time>
      </trkpt>
      <trkpt lat="43.58981" lon="1.14667">
        <ele>297.8</ele>
        <time>2020-11-29T11:18:09Z</time>
      </trkpt>
      <trkpt lat="43.58984" lon="1.14675">
        <ele>297.6</ele>
        <time>2020-11-29T11:18:10Z</time>
      </trkpt>
      <trkpt lat="43.58987" lon="1.14683">
        <ele>297.4</ele>
        <time>2020-11-29T11:18:11Z</time>
      </trkpt>
      <trkpt lat="43.58988" lon="1.14691">
        <ele>297.3</ele>
        <time>2020-11-29T11:18:12Z</time>
      </trkpt>
      <trkpt lat="43.58988" lon="1.14701">
        <ele>297.2</ele>
        <time>2020-11-29T11:18:13Z</time>
      </trkpt>
      <trkpt lat="43.5899" lon="1.14709">
        <ele>297.1</ele>
        <time>2020-11-29T11:18:14Z</time>
      </trkpt>
      <trkpt lat="43.58992" lon="1.14718">
        <ele>297</ele>
        <time>2020-11-29T11:18:15Z</time>
      </trkpt>
      <trkpt lat="43.58995" lon="1.14726">
        <ele>296.9</ele>
        <time>2020-11-29T11:18:16Z</time>
      </trkpt>
      <trkpt lat="43.58998" lon="1.14734">
        <ele>296.8</ele>
        <time>2020-11-29T11:18:17Z</time>
      </trkpt>
      <trkpt lat="43.59003" lon="1.14743">
        <ele>296.8</ele>
        <time>2020-11-29T11:18:18Z</time>
      </trkpt>
      <trkpt lat="43.59008" lon="1.14749">
        <ele>296.8</ele>
        <time>2020-11-29T11:18:19Z</time>
      </trkpt>
      <trkpt lat="43.59013" lon="1.14757">
        <ele>296.9</ele>
        <time>2020-11-29T11:18:20Z</time>
      </trkpt>
      <trkpt lat="43.59017" lon="1.14764">
        <ele>297</ele>
        <time>2020-11-29T11:18:21Z</time>
      </trkpt>
      <trkpt lat="43.59021" lon="1.14771">
        <ele>297.1</ele>
        <time>2020-11-29T11:18:22Z</time>
      </trkpt>
      <trkpt lat="43.59025" lon="1.14778">
        <ele>297.3</ele>
        <time>2020-11-29T11:18:23Z</time>
      </trkpt>
      <trkpt lat="43.59028" lon="1.14783">
        <ele>297.5</ele>
        <time>2020-11-29T11:18:24Z</time>
      </trkpt>
      <trkpt lat="43.59031" lon="1.1479">
        <ele>297.7</ele>
        <time>2020-11-29T11:18:25Z</time>
      </trkpt>
      <trkpt lat="43.59033" lon="1.14795">
        <ele>297.8</ele>
        <time>2020-11-29T11:18:26Z</time>
      </trkpt>
      <trkpt lat="43.59036" lon="1.14801">
        <ele>298</ele>
        <time>2020-11-29T11:18:27Z</time>
      </trkpt>
      <trkpt lat="43.59038" lon="1.14806">
        <ele>298.2</ele>
        <time>2020-11-29T11:18:28Z</time>
      </trkpt>
      <trkpt lat="43.5904" lon="1.14812">
        <ele>298.3</ele>
        <time>2020-11-29T11:18:29Z</time>
      </trkpt>
      <trkpt lat="43.59041" lon="1.14817">
        <ele>298.5</ele>
        <time>2020-11-29T11:18:30Z</time>
      </trkpt>
      <trkpt lat="43.59043" lon="1.14823">
        <ele>298.7</ele>
        <time>2020-11-29T11:18:31Z</time>
      </trkpt>
      <trkpt lat="43.59046" lon="1.14829">
        <ele>298.9</ele>
        <time>2020-11-29T11:18:32Z</time>
      </trkpt>
      <trkpt lat="43.59048" lon="1.14834">
        <ele>298.9</ele>
        <time>2020-11-29T11:18:33Z</time>
      </trkpt>
      <trkpt lat="43.59052" lon="1.1484">
        <ele>299.1</ele>
        <time>2020-11-29T11:18:34Z</time>
      </trkpt>
      <trkpt lat="43.59054" lon="1.14846">
        <ele>299.2</ele>
        <time>2020-11-29T11:18:35Z</time>
      </trkpt>
      <trkpt lat="43.59056" lon="1.14852">
        <ele>299.4</ele>
        <time>2020-11-29T11:18:36Z</time>
      </trkpt>
      <trkpt lat="43.59058" lon="1.14857">
        <ele>299.5</ele>
        <time>2020-11-29T11:18:37Z</time>
      </trkpt>
      <trkpt lat="43.59061" lon="1.14864">
        <ele>299.7</ele>
        <time>2020-11-29T11:18:38Z</time>
      </trkpt>
      <trkpt lat="43.59064" lon="1.14871">
        <ele>299.9</ele>
        <time>2020-11-29T11:18:39Z</time>
      </trkpt>
      <trkpt lat="43.59067" lon="1.14876">
        <ele>300</ele>
        <time>2020-11-29T11:18:40Z</time>
      </trkpt>
      <trkpt lat="43.5907" lon="1.14883">
        <ele>300.2</ele>
        <time>2020-11-29T11:18:41Z</time>
      </trkpt>
      <trkpt lat="43.59073" lon="1.14891">
        <ele>300.4</ele>
        <time>2020-11-29T11:18:42Z</time>
      </trkpt>
      <trkpt lat="43.59076" lon="1.14896">
        <ele>300.5</ele>
        <time>2020-11-29T11:18:43Z</time>
      </trkpt>
      <trkpt lat="43.59077" lon="1.14902">
        <ele>300.6</ele>
        <time>2020-11-29T11:18:44Z</time>
      </trkpt>
      <trkpt lat="43.59078" lon="1.14908">
        <ele>300.7</ele>
        <time>2020-11-29T11:18:45Z</time>
      </trkpt>
      <trkpt lat="43.5908" lon="1.14915">
        <ele>300.9</ele>
        <time>2020-11-29T11:18:46Z</time>
      </trkpt>
      <trkpt lat="43.59084" lon="1.14919">
        <ele>301</ele>
        <time>2020-11-29T11:18:47Z</time>
      </trkpt>
      <trkpt lat="43.59087" lon="1.14925">
        <ele>301.1</ele>
        <time>2020-11-29T11:18:48Z</time>
      </trkpt>
      <trkpt lat="43.59092" lon="1.14928">
        <ele>301.1</ele>
        <time>2020-11-29T11:18:49Z</time>
      </trkpt>
      <trkpt lat="43.59097" lon="1.1493">
        <ele>301.2</ele>
        <time>2020-11-29T11:18:50Z</time>
      </trkpt>
      <trkpt lat="43.59102" lon="1.14933">
        <ele>301.2</ele>
        <time>2020-11-29T11:18:51Z</time>
      </trkpt>
      <trkpt lat="43.59108" lon="1.14937">
        <ele>301.2</ele>
        <time>2020-11-29T11:18:52Z</time>
      </trkpt>
      <trkpt lat="43.59112" lon="1.1494">
        <ele>301.3</ele>
        <time>2020-11-29T11:18:53Z</time>
      </trkpt>
      <trkpt lat="43.59117" lon="1.14943">
        <ele>301.3</ele>
        <time>2020-11-29T11:18:54Z</time>
      </trkpt>
      <trkpt lat="43.59122" lon="1.14946">
        <ele>301.3</ele>
        <time>2020-11-29T11:18:55Z</time>
      </trkpt>
      <trkpt lat="43.59128" lon="1.14947">
        <ele>301.3</ele>
        <time>2020-11-29T11:18:56Z</time>
      </trkpt>
      <trkpt lat="43.59134" lon="1.14946">
        <ele>301.3</ele>
        <time>2020-11-29T11:18:57Z</time>
      </trkpt>
      <trkpt lat="43.59141" lon="1.14943">
        <ele>301.4</ele>
        <time>2020-11-29T11:18:58Z</time>
      </trkpt>
      <trkpt lat="43.59148" lon="1.14937">
        <ele>301.4</ele>
        <time>2020-11-29T11:18:59Z</time>
      </trkpt>
      <trkpt lat="43.59152" lon="1.14933">
        <ele>301.4</ele>
        <time>2020-11-29T11:19:00Z</time>
      </trkpt>
      <trkpt lat="43.59155" lon="1.14928">
        <ele>301.4</ele>
        <time>2020-11-29T11:19:01Z</time>
      </trkpt>
      <trkpt lat="43.59157" lon="1.14922">
        <ele>301.5</ele>
        <time>2020-11-29T11:19:02Z</time>
      </trkpt>
      <trkpt lat="43.5916" lon="1.14916">
        <ele>301.5</ele>
        <time>2020-11-29T11:19:03Z</time>
      </trkpt>
      <trkpt lat="43.59162" lon="1.14911">
        <ele>301.5</ele>
        <time>2020-11-29T11:19:04Z</time>
      </trkpt>
      <trkpt lat="43.59164" lon="1.14905">
        <ele>301.5</ele>
        <time>2020-11-29T11:19:05Z</time>
      </trkpt>
      <trkpt lat="43.59166" lon="1.14901">
        <ele>301.5</ele>
        <time>2020-11-29T11:19:06Z</time>
      </trkpt>
      <trkpt lat="43.59168" lon="1.14899">
        <ele>301.5</ele>
        <time>2020-11-29T11:19:07Z</time>
      </trkpt>
      <trkpt lat="43.59172" lon="1.14895">
        <ele>301.6</ele>
        <time>2020-11-29T11:19:08Z</time>
      </trkpt>
      <trkpt lat="43.59178" lon="1.14891">
        <ele>301.5</ele>
        <time>2020-11-29T11:19:09Z</time>
      </trkpt>
      <trkpt lat="43.59184" lon="1.14889">
        <ele>301.5</ele>
        <time>2020-11-29T11:19:10Z</time>
      </trkpt>
      <trkpt lat="43.59189" lon="1.14889">
        <ele>301.5</ele>
        <time>2020-11-29T11:19:11Z</time>
      </trkpt>
      <trkpt lat="43.59194" lon="1.1489">
        <ele>301.4</ele>
        <time>2020-11-29T11:19:12Z</time>
      </trkpt>
      <trkpt lat="43.59198" lon="1.14891">
        <ele>301.3</ele>
        <time>2020-11-29T11:19:13Z</time>
      </trkpt>
      <trkpt lat="43.59204" lon="1.14894">
        <ele>301.2</ele>
        <time>2020-11-29T11:19:14Z</time>
      </trkpt>
      <trkpt lat="43.59207" lon="1.14895">
        <ele>301.1</ele>
        <time>2020-11-29T11:19:15Z</time>
      </trkpt>
      <trkpt lat="43.59212" lon="1.14898">
        <ele>301</ele>
        <time>2020-11-29T11:19:16Z</time>
      </trkpt>
      <trkpt lat="43.59217" lon="1.14901">
        <ele>301</ele>
        <time>2020-11-29T11:19:17Z</time>
      </trkpt>
      <trkpt lat="43.59221" lon="1.14903">
        <ele>300.9</ele>
        <time>2020-11-29T11:19:18Z</time>
      </trkpt>
      <trkpt lat="43.59224" lon="1.14905">
        <ele>300.8</ele>
        <time>2020-11-29T11:19:19Z</time>
      </trkpt>
      <trkpt lat="43.59228" lon="1.14908">
        <ele>300.8</ele>
        <time>2020-11-29T11:19:20Z</time>
      </trkpt>
      <trkpt lat="43.59232" lon="1.14911">
        <ele>300.7</ele>
        <time>2020-11-29T11:19:21Z</time>
      </trkpt>
      <trkpt lat="43.59237" lon="1.14914">
        <ele>300.6</ele>
        <time>2020-11-29T11:19:22Z</time>
      </trkpt>
      <trkpt lat="43.59241" lon="1.14915">
        <ele>300.6</ele>
        <time>2020-11-29T11:19:23Z</time>
      </trkpt>
      <trkpt lat="43.59245" lon="1.14917">
        <ele>300.5</ele>
        <time>2020-11-29T11:19:24Z</time>
      </trkpt>
      <trkpt lat="43.5925" lon="1.1492">
        <ele>300.4</ele>
        <time>2020-11-29T11:19:25Z</time>
      </trkpt>
      <trkpt lat="43.59254" lon="1.14922">
        <ele>300.4</ele>
        <time>2020-11-29T11:19:26Z</time>
      </trkpt>
      <trkpt lat="43.59258" lon="1.14924">
        <ele>300.3</ele>
        <time>2020-11-29T11:19:27Z</time>
      </trkpt>
      <trkpt lat="43.59263" lon="1.14928">
        <ele>300.2</ele>
        <time>2020-11-29T11:19:28Z</time>
      </trkpt>
      <trkpt lat="43.59269" lon="1.14932">
        <ele>300.1</ele>
        <time>2020-11-29T11:19:29Z</time>
      </trkpt>
      <trkpt lat="43.59274" lon="1.14935">
        <ele>300</ele>
        <time>2020-11-29T11:19:30Z</time>
      </trkpt>
      <trkpt lat="43.59279" lon="1.1494">
        <ele>300</ele>
        <time>2020-11-29T11:19:31Z</time>
      </trkpt>
      <trkpt lat="43.59282" lon="1.14944">
        <ele>299.9</ele>
        <time>2020-11-29T11:19:32Z</time>
      </trkpt>
      <trkpt lat="43.59286" lon="1.14947">
        <ele>299.8</ele>
        <time>2020-11-29T11:19:33Z</time>
      </trkpt>
      <trkpt lat="43.59291" lon="1.14951">
        <ele>299.7</ele>
        <time>2020-11-29T11:19:34Z</time>
      </trkpt>
      <trkpt lat="43.59295" lon="1.14954">
        <ele>299.7</ele>
        <time>2020-11-29T11:19:35Z</time>
      </trkpt>
      <trkpt lat="43.59299" lon="1.14959">
        <ele>299.6</ele>
        <time>2020-11-29T11:19:36Z</time>
      </trkpt>
      <trkpt lat="43.59301" lon="1.14961">
        <ele>299.6</ele>
        <time>2020-11-29T11:19:37Z</time>
      </trkpt>
      <trkpt lat="43.59305" lon="1.14965">
        <ele>299.5</ele>
        <time>2020-11-29T11:19:38Z</time>
      </trkpt>
      <trkpt lat="43.59311" lon="1.1497">
        <ele>299.4</ele>
        <time>2020-11-29T11:19:39Z</time>
      </trkpt>
      <trkpt lat="43.59316" lon="1.14973">
        <ele>299.3</ele>
        <time>2020-11-29T11:19:40Z</time>
      </trkpt>
      <trkpt lat="43.5932" lon="1.14977">
        <ele>299.3</ele>
        <time>2020-11-29T11:19:41Z</time>
      </trkpt>
      <trkpt lat="43.59325" lon="1.1498">
        <ele>299.2</ele>
        <time>2020-11-29T11:19:42Z</time>
      </trkpt>
      <trkpt lat="43.5933" lon="1.14982">
        <ele>299.2</ele>
        <time>2020-11-29T11:19:43Z</time>
      </trkpt>
      <trkpt lat="43.59336" lon="1.14985">
        <ele>299.1</ele>
        <time>2020-11-29T11:19:44Z</time>
      </trkpt>
      <trkpt lat="43.59339" lon="1.14988">
        <ele>299.1</ele>
        <time>2020-11-29T11:19:45Z</time>
      </trkpt>
      <trkpt lat="43.59343" lon="1.1499">
        <ele>299</ele>
        <time>2020-11-29T11:19:46Z</time>
      </trkpt>
      <trkpt lat="43.59347" lon="1.14993">
        <ele>299</ele>
        <time>2020-11-29T11:19:47Z</time>
      </trkpt>
      <trkpt lat="43.59351" lon="1.14997">
        <ele>299</ele>
        <time>2020-11-29T11:19:48Z</time>
      </trkpt>
      <trkpt lat="43.59355" lon="1.15002">
        <ele>298.9</ele>
        <time>2020-11-29T11:19:49Z</time>
      </trkpt>
      <trkpt lat="43.59358" lon="1.15007">
        <ele>298.9</ele>
        <time>2020-11-29T11:19:50Z</time>
      </trkpt>
      <trkpt lat="43.59362" lon="1.15009">
        <ele>298.9</ele>
        <time>2020-11-29T11:19:51Z</time>
      </trkpt>
      <trkpt lat="43.59368" lon="1.15014">
        <ele>298.8</ele>
        <time>2020-11-29T11:19:52Z</time>
      </trkpt>
      <trkpt lat="43.59372" lon="1.15017">
        <ele>298.8</ele>
        <time>2020-11-29T11:19:53Z</time>
      </trkpt>
      <trkpt lat="43.59375" lon="1.1502">
        <ele>298.8</ele>
        <time>2020-11-29T11:19:54Z</time>
      </trkpt>
      <trkpt lat="43.59378" lon="1.15022">
        <ele>298.7</ele>
        <time>2020-11-29T11:19:55Z</time>
      </trkpt>
      <trkpt lat="43.59383" lon="1.15024">
        <ele>298.7</ele>
        <time>2020-11-29T11:19:56Z</time>
      </trkpt>
      <trkpt lat="43.59385" lon="1.15026">
        <ele>298.7</ele>
        <time>2020-11-29T11:19:57Z</time>
      </trkpt>
      <trkpt lat="43.59391" lon="1.15027">
        <ele>298.7</ele>
        <time>2020-11-29T11:19:58Z</time>
      </trkpt>
      <trkpt lat="43.59398" lon="1.1503">
        <ele>298.7</ele>
        <time>2020-11-29T11:19:59Z</time>
      </trkpt>
      <trkpt lat="43.59402" lon="1.15032">
        <ele>298.7</ele>
        <time>2020-11-29T11:20:00Z</time>
      </trkpt>
      <trkpt lat="43.59409" lon="1.15035">
        <ele>298.7</ele>
        <time>2020-11-29T11:20:01Z</time>
      </trkpt>
      <trkpt lat="43.59414" lon="1.15036">
        <ele>298.8</ele>
        <time>2020-11-29T11:20:02Z</time>
      </trkpt>
      <trkpt lat="43.59417" lon="1.15038">
        <ele>298.8</ele>
        <time>2020-11-29T11:20:03Z</time>
      </trkpt>
      <trkpt lat="43.5942" lon="1.15041">
        <ele>298.8</ele>
        <time>2020-11-29T11:20:04Z</time>
      </trkpt>
      <trkpt lat="43.59423" lon="1.15045">
        <ele>298.7</ele>
        <time>2020-11-29T11:20:05Z</time>
      </trkpt>
      <trkpt lat="43.59424" lon="1.15049">
        <ele>298.7</ele>
        <time>2020-11-29T11:20:06Z</time>
      </trkpt>
      <trkpt lat="43.59426" lon="1.15053">
        <ele>298.7</ele>
        <time>2020-11-29T11:20:07Z</time>
      </trkpt>
      <trkpt lat="43.5943" lon="1.15057">
        <ele>298.6</ele>
        <time>2020-11-29T11:20:08Z</time>
      </trkpt>
      <trkpt lat="43.59433" lon="1.15061">
        <ele>298.6</ele>
        <time>2020-11-29T11:20:09Z</time>
      </trkpt>
      <trkpt lat="43.59434" lon="1.15063">
        <ele>298.6</ele>
        <time>2020-11-29T11:20:10Z</time>
      </trkpt>
      <trkpt lat="43.59435" lon="1.15066">
        <ele>298.5</ele>
        <time>2020-11-29T11:20:11Z</time>
      </trkpt>
      <trkpt lat="43.59436" lon="1.15067">
        <ele>298.5</ele>
        <time>2020-11-29T11:20:12Z</time>
      </trkpt>
      <trkpt lat="43.59438" lon="1.15069">
        <ele>298.5</ele>
        <time>2020-11-29T11:20:13Z</time>
      </trkpt>
      <trkpt lat="43.5944" lon="1.15069">
        <ele>298.5</ele>
        <time>2020-11-29T11:20:14Z</time>
      </trkpt>
      <trkpt lat="43.59441" lon="1.15069">
        <ele>298.5</ele>
        <time>2020-11-29T11:20:15Z</time>
      </trkpt>
      <trkpt lat="43.59446" lon="1.15071">
        <ele>298.4</ele>
        <time>2020-11-29T11:20:16Z</time>
      </trkpt>
      <trkpt lat="43.5945" lon="1.15073">
        <ele>298.1</ele>
        <time>2020-11-29T11:20:17Z</time>
      </trkpt>
      <trkpt lat="43.59454" lon="1.15075">
        <ele>298</ele>
        <time>2020-11-29T11:20:18Z</time>
      </trkpt>
      <trkpt lat="43.59461" lon="1.15079">
        <ele>297.8</ele>
        <time>2020-11-29T11:20:19Z</time>
      </trkpt>
      <trkpt lat="43.59465" lon="1.15081">
        <ele>297.6</ele>
        <time>2020-11-29T11:20:20Z</time>
      </trkpt>
      <trkpt lat="43.59468" lon="1.15085">
        <ele>297.5</ele>
        <time>2020-11-29T11:20:21Z</time>
      </trkpt>
      <trkpt lat="43.59469" lon="1.15086">
        <ele>297.4</ele>
        <time>2020-11-29T11:20:22Z</time>
      </trkpt>
      <trkpt lat="43.59474" lon="1.15091">
        <ele>297.1</ele>
        <time>2020-11-29T11:20:23Z</time>
      </trkpt>
      <trkpt lat="43.59476" lon="1.15094">
        <ele>297</ele>
        <time>2020-11-29T11:20:24Z</time>
      </trkpt>
      <trkpt lat="43.59481" lon="1.15096">
        <ele>296.8</ele>
        <time>2020-11-29T11:20:25Z</time>
      </trkpt>
      <trkpt lat="43.59486" lon="1.15096">
        <ele>296.5</ele>
        <time>2020-11-29T11:20:26Z</time>
      </trkpt>
      <trkpt lat="43.59491" lon="1.15098">
        <ele>296.2</ele>
        <time>2020-11-29T11:20:27Z</time>
      </trkpt>
      <trkpt lat="43.59495" lon="1.15099">
        <ele>296</ele>
        <time>2020-11-29T11:20:28Z</time>
      </trkpt>
      <trkpt lat="43.595" lon="1.15103">
        <ele>295.7</ele>
        <time>2020-11-29T11:20:29Z</time>
      </trkpt>
      <trkpt lat="43.59505" lon="1.15105">
        <ele>295.4</ele>
        <time>2020-11-29T11:20:30Z</time>
      </trkpt>
      <trkpt lat="43.59511" lon="1.15107">
        <ele>295.1</ele>
        <time>2020-11-29T11:20:31Z</time>
      </trkpt>
      <trkpt lat="43.59516" lon="1.15109">
        <ele>294.8</ele>
        <time>2020-11-29T11:20:32Z</time>
      </trkpt>
      <trkpt lat="43.59521" lon="1.15112">
        <ele>294.6</ele>
        <time>2020-11-29T11:20:33Z</time>
      </trkpt>
      <trkpt lat="43.59527" lon="1.15115">
        <ele>294.3</ele>
        <time>2020-11-29T11:20:34Z</time>
      </trkpt>
      <trkpt lat="43.59533" lon="1.15117">
        <ele>294.1</ele>
        <time>2020-11-29T11:20:35Z</time>
      </trkpt>
      <trkpt lat="43.5954" lon="1.15119">
        <ele>293.8</ele>
        <time>2020-11-29T11:20:36Z</time>
      </trkpt>
      <trkpt lat="43.59546" lon="1.1512">
        <ele>293.6</ele>
        <time>2020-11-29T11:20:37Z</time>
      </trkpt>
      <trkpt lat="43.59552" lon="1.15121">
        <ele>293.4</ele>
        <time>2020-11-29T11:20:38Z</time>
      </trkpt>
      <trkpt lat="43.59558" lon="1.15121">
        <ele>293.2</ele>
        <time>2020-11-29T11:20:39Z</time>
      </trkpt>
      <trkpt lat="43.59563" lon="1.15123">
        <ele>293.2</ele>
        <time>2020-11-29T11:20:40Z</time>
      </trkpt>
      <trkpt lat="43.59567" lon="1.15125">
        <ele>293.1</ele>
        <time>2020-11-29T11:20:41Z</time>
      </trkpt>
      <trkpt lat="43.59572" lon="1.15127">
        <ele>293.1</ele>
        <time>2020-11-29T11:20:42Z</time>
      </trkpt>
      <trkpt lat="43.59576" lon="1.15129">
        <ele>293.1</ele>
        <time>2020-11-29T11:20:43Z</time>
      </trkpt>
      <trkpt lat="43.59586" lon="1.15133">
        <ele>293.3</ele>
        <time>2020-11-29T11:20:44Z</time>
      </trkpt>
      <trkpt lat="43.59588" lon="1.15134">
        <ele>293.4</ele>
        <time>2020-11-29T11:20:45Z</time>
      </trkpt>
      <trkpt lat="43.59591" lon="1.15135">
        <ele>293.5</ele>
        <time>2020-11-29T11:20:46Z</time>
      </trkpt>
      <trkpt lat="43.59595" lon="1.15137">
        <ele>293.6</ele>
        <time>2020-11-29T11:20:47Z</time>
      </trkpt>
      <trkpt lat="43.596" lon="1.1514">
        <ele>293.9</ele>
        <time>2020-11-29T11:20:48Z</time>
      </trkpt>
      <trkpt lat="43.59605" lon="1.15142">
        <ele>294.2</ele>
        <time>2020-11-29T11:20:49Z</time>
      </trkpt>
      <trkpt lat="43.59609" lon="1.15145">
        <ele>294.5</ele>
        <time>2020-11-29T11:20:50Z</time>
      </trkpt>
      <trkpt lat="43.59611" lon="1.15147">
        <ele>294.6</ele>
        <time>2020-11-29T11:20:51Z</time>
      </trkpt>
      <trkpt lat="43.59616" lon="1.15148">
        <ele>294.9</ele>
        <time>2020-11-29T11:20:52Z</time>
      </trkpt>
      <trkpt lat="43.59622" lon="1.1515">
        <ele>295.1</ele>
        <time>2020-11-29T11:20:53Z</time>
      </trkpt>
      <trkpt lat="43.59626" lon="1.15152">
        <ele>295.4</ele>
        <time>2020-11-29T11:20:54Z</time>
      </trkpt>
      <trkpt lat="43.59629" lon="1.15153">
        <ele>295.5</ele>
        <time>2020-11-29T11:20:55Z</time>
      </trkpt>
      <trkpt lat="43.59632" lon="1.15152">
        <ele>295.7</ele>
        <time>2020-11-29T11:20:56Z</time>
      </trkpt>
      <trkpt lat="43.59634" lon="1.15153">
        <ele>295.8</ele>
        <time>2020-11-29T11:20:57Z</time>
      </trkpt>
      <trkpt lat="43.59638" lon="1.15154">
        <ele>296</ele>
        <time>2020-11-29T11:20:58Z</time>
      </trkpt>
      <trkpt lat="43.59641" lon="1.15155">
        <ele>296.1</ele>
        <time>2020-11-29T11:20:59Z</time>
      </trkpt>
      <trkpt lat="43.59645" lon="1.15157">
        <ele>296.4</ele>
        <time>2020-11-29T11:21:00Z</time>
      </trkpt>
      <trkpt lat="43.59649" lon="1.15159">
        <ele>296.6</ele>
        <time>2020-11-29T11:21:01Z</time>
      </trkpt>
      <trkpt lat="43.59652" lon="1.1516">
        <ele>296.8</ele>
        <time>2020-11-29T11:21:02Z</time>
      </trkpt>
      <trkpt lat="43.59657" lon="1.15161">
        <ele>297</ele>
        <time>2020-11-29T11:21:03Z</time>
      </trkpt>
      <trkpt lat="43.59661" lon="1.15162">
        <ele>297.2</ele>
        <time>2020-11-29T11:21:04Z</time>
      </trkpt>
      <trkpt lat="43.59665" lon="1.15164">
        <ele>297.3</ele>
        <time>2020-11-29T11:21:05Z</time>
      </trkpt>
      <trkpt lat="43.59669" lon="1.15165">
        <ele>297.5</ele>
        <time>2020-11-29T11:21:06Z</time>
      </trkpt>
      <trkpt lat="43.59673" lon="1.15167">
        <ele>297.6</ele>
        <time>2020-11-29T11:21:07Z</time>
      </trkpt>
      <trkpt lat="43.5968" lon="1.1517">
        <ele>297.8</ele>
        <time>2020-11-29T11:21:08Z</time>
      </trkpt>
      <trkpt lat="43.59685" lon="1.15173">
        <ele>297.9</ele>
        <time>2020-11-29T11:21:09Z</time>
      </trkpt>
      <trkpt lat="43.5969" lon="1.15175">
        <ele>297.9</ele>
        <time>2020-11-29T11:21:10Z</time>
      </trkpt>
      <trkpt lat="43.59695" lon="1.15176">
        <ele>297.9</ele>
        <time>2020-11-29T11:21:11Z</time>
      </trkpt>
      <trkpt lat="43.59699" lon="1.15177">
        <ele>297.9</ele>
        <time>2020-11-29T11:21:12Z</time>
      </trkpt>
      <trkpt lat="43.59704" lon="1.15178">
        <ele>297.9</ele>
        <time>2020-11-29T11:21:13Z</time>
      </trkpt>
      <trkpt lat="43.5971" lon="1.15179">
        <ele>297.8</ele>
        <time>2020-11-29T11:21:14Z</time>
      </trkpt>
      <trkpt lat="43.59717" lon="1.15181">
        <ele>297.7</ele>
        <time>2020-11-29T11:21:15Z</time>
      </trkpt>
      <trkpt lat="43.59722" lon="1.15184">
        <ele>297.6</ele>
        <time>2020-11-29T11:21:16Z</time>
      </trkpt>
      <trkpt lat="43.59728" lon="1.15187">
        <ele>297.5</ele>
        <time>2020-11-29T11:21:17Z</time>
      </trkpt>
      <trkpt lat="43.59732" lon="1.15189">
        <ele>297.3</ele>
        <time>2020-11-29T11:21:18Z</time>
      </trkpt>
      <trkpt lat="43.59738" lon="1.15191">
        <ele>297.1</ele>
        <time>2020-11-29T11:21:19Z</time>
      </trkpt>
      <trkpt lat="43.59743" lon="1.15193">
        <ele>296.8</ele>
        <time>2020-11-29T11:21:20Z</time>
      </trkpt>
      <trkpt lat="43.59749" lon="1.15195">
        <ele>296.5</ele>
        <time>2020-11-29T11:21:21Z</time>
      </trkpt>
      <trkpt lat="43.59757" lon="1.15198">
        <ele>295.8</ele>
        <time>2020-11-29T11:21:22Z</time>
      </trkpt>
      <trkpt lat="43.59763" lon="1.152">
        <ele>295.3</ele>
        <time>2020-11-29T11:21:23Z</time>
      </trkpt>
      <trkpt lat="43.59767" lon="1.15203">
        <ele>294.9</ele>
        <time>2020-11-29T11:21:24Z</time>
      </trkpt>
      <trkpt lat="43.5977" lon="1.15205">
        <ele>294.7</ele>
        <time>2020-11-29T11:21:25Z</time>
      </trkpt>
      <trkpt lat="43.59771" lon="1.15207">
        <ele>294.5</ele>
        <time>2020-11-29T11:21:26Z</time>
      </trkpt>
      <trkpt lat="43.59771" lon="1.15209">
        <ele>294.4</ele>
        <time>2020-11-29T11:21:27Z</time>
      </trkpt>
      <trkpt lat="43.59769" lon="1.15214">
        <ele>294.1</ele>
        <time>2020-11-29T11:21:28Z</time>
      </trkpt>
      <trkpt lat="43.59768" lon="1.15216">
        <ele>294</ele>
        <time>2020-11-29T11:21:29Z</time>
      </trkpt>
      <trkpt lat="43.59766" lon="1.15223">
        <ele>293.5</ele>
        <time>2020-11-29T11:21:30Z</time>
      </trkpt>
      <trkpt lat="43.59766" lon="1.15231">
        <ele>293.1</ele>
        <time>2020-11-29T11:21:31Z</time>
      </trkpt>
      <trkpt lat="43.59764" lon="1.15238">
        <ele>292.7</ele>
        <time>2020-11-29T11:21:32Z</time>
      </trkpt>
      <trkpt lat="43.59765" lon="1.15243">
        <ele>292.5</ele>
        <time>2020-11-29T11:21:33Z</time>
      </trkpt>
      <trkpt lat="43.59766" lon="1.15252">
        <ele>292.2</ele>
        <time>2020-11-29T11:21:34Z</time>
      </trkpt>
      <trkpt lat="43.59767" lon="1.15255">
        <ele>292</ele>
        <time>2020-11-29T11:21:35Z</time>
      </trkpt>
      <trkpt lat="43.59768" lon="1.15255">
        <ele>292</ele>
        <time>2020-11-29T11:21:36Z</time>
      </trkpt>
      <trkpt lat="43.5977" lon="1.15259">
        <ele>291.8</ele>
        <time>2020-11-29T11:21:37Z</time>
      </trkpt>
      <trkpt lat="43.59769" lon="1.15265">
        <ele>291.6</ele>
        <time>2020-11-29T11:21:38Z</time>
      </trkpt>
      <trkpt lat="43.5977" lon="1.1527">
        <ele>291.5</ele>
        <time>2020-11-29T11:21:39Z</time>
      </trkpt>
      <trkpt lat="43.5977" lon="1.15278">
        <ele>291.2</ele>
        <time>2020-11-29T11:21:40Z</time>
      </trkpt>
      <trkpt lat="43.59772" lon="1.15286">
        <ele>290.9</ele>
        <time>2020-11-29T11:21:41Z</time>
      </trkpt>
      <trkpt lat="43.59773" lon="1.15297">
        <ele>290.6</ele>
        <time>2020-11-29T11:21:42Z</time>
      </trkpt>
      <trkpt lat="43.59776" lon="1.15305">
        <ele>290.3</ele>
        <time>2020-11-29T11:21:43Z</time>
      </trkpt>
      <trkpt lat="43.59777" lon="1.1531">
        <ele>290</ele>
        <time>2020-11-29T11:21:44Z</time>
      </trkpt>
      <trkpt lat="43.59778" lon="1.15318">
        <ele>289.4</ele>
        <time>2020-11-29T11:21:45Z</time>
      </trkpt>
      <trkpt lat="43.59779" lon="1.15325">
        <ele>288.9</ele>
        <time>2020-11-29T11:21:46Z</time>
      </trkpt>
      <trkpt lat="43.59781" lon="1.15332">
        <ele>288.2</ele>
        <time>2020-11-29T11:21:47Z</time>
      </trkpt>
      <trkpt lat="43.59784" lon="1.15339">
        <ele>287.4</ele>
        <time>2020-11-29T11:21:48Z</time>
      </trkpt>
      <trkpt lat="43.59786" lon="1.15346">
        <ele>286.7</ele>
        <time>2020-11-29T11:21:49Z</time>
      </trkpt>
      <trkpt lat="43.5979" lon="1.15351">
        <ele>285.8</ele>
        <time>2020-11-29T11:21:50Z</time>
      </trkpt>
      <trkpt lat="43.5979" lon="1.15357">
        <ele>285.2</ele>
        <time>2020-11-29T11:21:51Z</time>
      </trkpt>
      <trkpt lat="43.59793" lon="1.15362">
        <ele>284.5</ele>
        <time>2020-11-29T11:21:52Z</time>
      </trkpt>
      <trkpt lat="43.59796" lon="1.15366">
        <ele>283.9</ele>
        <time>2020-11-29T11:21:53Z</time>
      </trkpt>
      <trkpt lat="43.59799" lon="1.15374">
        <ele>282.9</ele>
        <time>2020-11-29T11:21:54Z</time>
      </trkpt>
      <trkpt lat="43.59803" lon="1.15379">
        <ele>282.2</ele>
        <time>2020-11-29T11:21:55Z</time>
      </trkpt>
      <trkpt lat="43.59804" lon="1.15385">
        <ele>281.6</ele>
        <time>2020-11-29T11:21:56Z</time>
      </trkpt>
      <trkpt lat="43.59806" lon="1.1539">
        <ele>281.1</ele>
        <time>2020-11-29T11:21:57Z</time>
      </trkpt>
      <trkpt lat="43.59808" lon="1.15396">
        <ele>280.6</ele>
        <time>2020-11-29T11:21:58Z</time>
      </trkpt>
      <trkpt lat="43.59811" lon="1.15404">
        <ele>280.1</ele>
        <time>2020-11-29T11:21:59Z</time>
      </trkpt>
      <trkpt lat="43.59815" lon="1.15412">
        <ele>279.5</ele>
        <time>2020-11-29T11:22:00Z</time>
      </trkpt>
      <trkpt lat="43.59819" lon="1.1542">
        <ele>279</ele>
        <time>2020-11-29T11:22:01Z</time>
      </trkpt>
      <trkpt lat="43.59822" lon="1.15426">
        <ele>278.5</ele>
        <time>2020-11-29T11:22:02Z</time>
      </trkpt>
      <trkpt lat="43.59826" lon="1.15431">
        <ele>278</ele>
        <time>2020-11-29T11:22:03Z</time>
      </trkpt>
      <trkpt lat="43.59832" lon="1.15439">
        <ele>277.4</ele>
        <time>2020-11-29T11:22:04Z</time>
      </trkpt>
      <trkpt lat="43.59835" lon="1.15449">
        <ele>276.7</ele>
        <time>2020-11-29T11:22:06Z</time>
      </trkpt>
      <trkpt lat="43.59836" lon="1.15456">
        <ele>276.2</ele>
        <time>2020-11-29T11:22:07Z</time>
      </trkpt>
      <trkpt lat="43.59839" lon="1.1546">
        <ele>275.9</ele>
        <time>2020-11-29T11:22:08Z</time>
      </trkpt>
      <trkpt lat="43.59842" lon="1.15466">
        <ele>275.4</ele>
        <time>2020-11-29T11:22:09Z</time>
      </trkpt>
      <trkpt lat="43.59847" lon="1.15473">
        <ele>274.9</ele>
        <time>2020-11-29T11:22:10Z</time>
      </trkpt>
      <trkpt lat="43.59852" lon="1.15485">
        <ele>274.1</ele>
        <time>2020-11-29T11:22:11Z</time>
      </trkpt>
      <trkpt lat="43.59855" lon="1.15492">
        <ele>273.6</ele>
        <time>2020-11-29T11:22:12Z</time>
      </trkpt>
      <trkpt lat="43.59858" lon="1.15498">
        <ele>273.2</ele>
        <time>2020-11-29T11:22:13Z</time>
      </trkpt>
      <trkpt lat="43.59862" lon="1.155">
        <ele>272.8</ele>
        <time>2020-11-29T11:22:14Z</time>
      </trkpt>
      <trkpt lat="43.59866" lon="1.155">
        <ele>272.5</ele>
        <time>2020-11-29T11:22:15Z</time>
      </trkpt>
      <trkpt lat="43.59871" lon="1.15499">
        <ele>272.1</ele>
        <time>2020-11-29T11:22:16Z</time>
      </trkpt>
      <trkpt lat="43.59875" lon="1.155">
        <ele>271.8</ele>
        <time>2020-11-29T11:22:17Z</time>
      </trkpt>
      <trkpt lat="43.5988" lon="1.15503">
        <ele>271.4</ele>
        <time>2020-11-29T11:22:18Z</time>
      </trkpt>
      <trkpt lat="43.59886" lon="1.15504">
        <ele>271</ele>
        <time>2020-11-29T11:22:19Z</time>
      </trkpt>
      <trkpt lat="43.59893" lon="1.15507">
        <ele>270.7</ele>
        <time>2020-11-29T11:22:20Z</time>
      </trkpt>
      <trkpt lat="43.599" lon="1.15511">
        <ele>270.6</ele>
        <time>2020-11-29T11:22:21Z</time>
      </trkpt>
      <trkpt lat="43.59905" lon="1.15511">
        <ele>270.6</ele>
        <time>2020-11-29T11:22:22Z</time>
      </trkpt>
      <trkpt lat="43.59911" lon="1.15512">
        <ele>270.8</ele>
        <time>2020-11-29T11:22:23Z</time>
      </trkpt>
      <trkpt lat="43.59916" lon="1.15513">
        <ele>271</ele>
        <time>2020-11-29T11:22:24Z</time>
      </trkpt>
      <trkpt lat="43.59922" lon="1.15518">
        <ele>271.3</ele>
        <time>2020-11-29T11:22:25Z</time>
      </trkpt>
      <trkpt lat="43.59927" lon="1.1552">
        <ele>271.7</ele>
        <time>2020-11-29T11:22:26Z</time>
      </trkpt>
      <trkpt lat="43.59935" lon="1.15519">
        <ele>272.1</ele>
        <time>2020-11-29T11:22:27Z</time>
      </trkpt>
      <trkpt lat="43.59941" lon="1.15518">
        <ele>272.5</ele>
        <time>2020-11-29T11:22:28Z</time>
      </trkpt>
      <trkpt lat="43.59948" lon="1.15517">
        <ele>273.1</ele>
        <time>2020-11-29T11:22:29Z</time>
      </trkpt>
      <trkpt lat="43.59952" lon="1.15517">
        <ele>273.5</ele>
        <time>2020-11-29T11:22:30Z</time>
      </trkpt>
      <trkpt lat="43.59958" lon="1.1552">
        <ele>274.3</ele>
        <time>2020-11-29T11:22:31Z</time>
      </trkpt>
      <trkpt lat="43.59963" lon="1.15521">
        <ele>274.9</ele>
        <time>2020-11-29T11:22:32Z</time>
      </trkpt>
      <trkpt lat="43.59968" lon="1.15525">
        <ele>275.7</ele>
        <time>2020-11-29T11:22:33Z</time>
      </trkpt>
      <trkpt lat="43.59973" lon="1.15528">
        <ele>276.4</ele>
        <time>2020-11-29T11:22:34Z</time>
      </trkpt>
      <trkpt lat="43.59978" lon="1.15532">
        <ele>277.2</ele>
        <time>2020-11-29T11:22:35Z</time>
      </trkpt>
      <trkpt lat="43.59981" lon="1.15538">
        <ele>278.1</ele>
        <time>2020-11-29T11:22:36Z</time>
      </trkpt>
      <trkpt lat="43.59985" lon="1.15545">
        <ele>279.1</ele>
        <time>2020-11-29T11:22:37Z</time>
      </trkpt>
      <trkpt lat="43.59986" lon="1.15549">
        <ele>279.6</ele>
        <time>2020-11-29T11:22:38Z</time>
      </trkpt>
      <trkpt lat="43.59989" lon="1.15551">
        <ele>280.1</ele>
        <time>2020-11-29T11:22:39Z</time>
      </trkpt>
      <trkpt lat="43.59993" lon="1.15551">
        <ele>280.6</ele>
        <time>2020-11-29T11:22:40Z</time>
      </trkpt>
      <trkpt lat="43.59994" lon="1.1555">
        <ele>280.8</ele>
        <time>2020-11-29T11:22:41Z</time>
      </trkpt>
      <trkpt lat="43.59997" lon="1.15548">
        <ele>281.2</ele>
        <time>2020-11-29T11:22:42Z</time>
      </trkpt>
      <trkpt lat="43.59998" lon="1.15547">
        <ele>281.4</ele>
        <time>2020-11-29T11:22:43Z</time>
      </trkpt>
      <trkpt lat="43.6" lon="1.15546">
        <ele>281.8</ele>
        <time>2020-11-29T11:22:44Z</time>
      </trkpt>
      <trkpt lat="43.60003" lon="1.15546">
        <ele>282.1</ele>
        <time>2020-11-29T11:22:45Z</time>
      </trkpt>
      <trkpt lat="43.60008" lon="1.15545">
        <ele>282.7</ele>
        <time>2020-11-29T11:22:46Z</time>
      </trkpt>
      <trkpt lat="43.60011" lon="1.15545">
        <ele>283</ele>
        <time>2020-11-29T11:22:47Z</time>
      </trkpt>
      <trkpt lat="43.60015" lon="1.15546">
        <ele>283.5</ele>
        <time>2020-11-29T11:22:48Z</time>
      </trkpt>
      <trkpt lat="43.6002" lon="1.15549">
        <ele>284</ele>
        <time>2020-11-29T11:22:49Z</time>
      </trkpt>
      <trkpt lat="43.60022" lon="1.15551">
        <ele>284.3</ele>
        <time>2020-11-29T11:22:50Z</time>
      </trkpt>
      <trkpt lat="43.60025" lon="1.15554">
        <ele>284.7</ele>
        <time>2020-11-29T11:22:51Z</time>
      </trkpt>
      <trkpt lat="43.60027" lon="1.15556">
        <ele>284.9</ele>
        <time>2020-11-29T11:22:52Z</time>
      </trkpt>
      <trkpt lat="43.6003" lon="1.15559">
        <ele>285.3</ele>
        <time>2020-11-29T11:22:53Z</time>
      </trkpt>
      <trkpt lat="43.60031" lon="1.1556">
        <ele>285.4</ele>
        <time>2020-11-29T11:22:54Z</time>
      </trkpt>
      <trkpt lat="43.60035" lon="1.15563">
        <ele>285.8</ele>
        <time>2020-11-29T11:22:55Z</time>
      </trkpt>
      <trkpt lat="43.60038" lon="1.15565">
        <ele>286.1</ele>
        <time>2020-11-29T11:22:56Z</time>
      </trkpt>
      <trkpt lat="43.6004" lon="1.15566">
        <ele>286.3</ele>
        <time>2020-11-29T11:22:57Z</time>
      </trkpt>
      <trkpt lat="43.60043" lon="1.15566">
        <ele>286.5</ele>
        <time>2020-11-29T11:22:58Z</time>
      </trkpt>
      <trkpt lat="43.60044" lon="1.15567">
        <ele>286.6</ele>
        <time>2020-11-29T11:22:59Z</time>
      </trkpt>
      <trkpt lat="43.60047" lon="1.15568">
        <ele>286.9</ele>
        <time>2020-11-29T11:23:00Z</time>
      </trkpt>
      <trkpt lat="43.6005" lon="1.15572">
        <ele>287.1</ele>
        <time>2020-11-29T11:23:01Z</time>
      </trkpt>
      <trkpt lat="43.60052" lon="1.15576">
        <ele>287.3</ele>
        <time>2020-11-29T11:23:02Z</time>
      </trkpt>
      <trkpt lat="43.60053" lon="1.15577">
        <ele>287.3</ele>
        <time>2020-11-29T11:23:03Z</time>
      </trkpt>
      <trkpt lat="43.60054" lon="1.15582">
        <ele>287.4</ele>
        <time>2020-11-29T11:23:04Z</time>
      </trkpt>
      <trkpt lat="43.60054" lon="1.15584">
        <ele>287.4</ele>
        <time>2020-11-29T11:23:05Z</time>
      </trkpt>
      <trkpt lat="43.60054" lon="1.15589">
        <ele>287.5</ele>
        <time>2020-11-29T11:23:06Z</time>
      </trkpt>
      <trkpt lat="43.60054" lon="1.15591">
        <ele>287.5</ele>
        <time>2020-11-29T11:23:07Z</time>
      </trkpt>
      <trkpt lat="43.60053" lon="1.15598">
        <ele>287.5</ele>
        <time>2020-11-29T11:23:08Z</time>
      </trkpt>
      <trkpt lat="43.60053" lon="1.15602">
        <ele>287.4</ele>
        <time>2020-11-29T11:23:09Z</time>
      </trkpt>
      <trkpt lat="43.60053" lon="1.15607">
        <ele>287.4</ele>
        <time>2020-11-29T11:23:10Z</time>
      </trkpt>
      <trkpt lat="43.60053" lon="1.15613">
        <ele>287.4</ele>
        <time>2020-11-29T11:23:11Z</time>
      </trkpt>
      <trkpt lat="43.60054" lon="1.15618">
        <ele>287.4</ele>
        <time>2020-11-29T11:23:12Z</time>
      </trkpt>
      <trkpt lat="43.60055" lon="1.15624">
        <ele>287.4</ele>
        <time>2020-11-29T11:23:13Z</time>
      </trkpt>
      <trkpt lat="43.60056" lon="1.1563">
        <ele>287.5</ele>
        <time>2020-11-29T11:23:14Z</time>
      </trkpt>
      <trkpt lat="43.60057" lon="1.15637">
        <ele>287.5</ele>
        <time>2020-11-29T11:23:15Z</time>
      </trkpt>
      <trkpt lat="43.60059" lon="1.15643">
        <ele>287.6</ele>
        <time>2020-11-29T11:23:16Z</time>
      </trkpt>
      <trkpt lat="43.60061" lon="1.15649">
        <ele>287.6</ele>
        <time>2020-11-29T11:23:17Z</time>
      </trkpt>
      <trkpt lat="43.60063" lon="1.15654">
        <ele>287.7</ele>
        <time>2020-11-29T11:23:18Z</time>
      </trkpt>
      <trkpt lat="43.60065" lon="1.15661">
        <ele>287.7</ele>
        <time>2020-11-29T11:23:19Z</time>
      </trkpt>
      <trkpt lat="43.60067" lon="1.15667">
        <ele>287.7</ele>
        <time>2020-11-29T11:23:20Z</time>
      </trkpt>
      <trkpt lat="43.6007" lon="1.15672">
        <ele>287.6</ele>
        <time>2020-11-29T11:23:21Z</time>
      </trkpt>
      <trkpt lat="43.60073" lon="1.15676">
        <ele>287.5</ele>
        <time>2020-11-29T11:23:22Z</time>
      </trkpt>
      <trkpt lat="43.60078" lon="1.15681">
        <ele>287.3</ele>
        <time>2020-11-29T11:23:23Z</time>
      </trkpt>
      <trkpt lat="43.60081" lon="1.15686">
        <ele>287.1</ele>
        <time>2020-11-29T11:23:24Z</time>
      </trkpt>
      <trkpt lat="43.60085" lon="1.15691">
        <ele>286.8</ele>
        <time>2020-11-29T11:23:25Z</time>
      </trkpt>
      <trkpt lat="43.60091" lon="1.157">
        <ele>286.3</ele>
        <time>2020-11-29T11:23:26Z</time>
      </trkpt>
      <trkpt lat="43.60098" lon="1.15709">
        <ele>285.6</ele>
        <time>2020-11-29T11:23:27Z</time>
      </trkpt>
      <trkpt lat="43.60103" lon="1.15716">
        <ele>285.1</ele>
        <time>2020-11-29T11:23:28Z</time>
      </trkpt>
      <trkpt lat="43.60108" lon="1.15724">
        <ele>284.5</ele>
        <time>2020-11-29T11:23:29Z</time>
      </trkpt>
      <trkpt lat="43.60113" lon="1.15731">
        <ele>284.2</ele>
        <time>2020-11-29T11:23:30Z</time>
      </trkpt>
      <trkpt lat="43.60116" lon="1.15739">
        <ele>283.9</ele>
        <time>2020-11-29T11:23:31Z</time>
      </trkpt>
      <trkpt lat="43.60121" lon="1.15747">
        <ele>283.6</ele>
        <time>2020-11-29T11:23:32Z</time>
      </trkpt>
      <trkpt lat="43.60124" lon="1.15753">
        <ele>283.6</ele>
        <time>2020-11-29T11:23:33Z</time>
      </trkpt>
      <trkpt lat="43.60127" lon="1.15758">
        <ele>283.5</ele>
        <time>2020-11-29T11:23:34Z</time>
      </trkpt>
      <trkpt lat="43.60131" lon="1.15762">
        <ele>283.5</ele>
        <time>2020-11-29T11:23:35Z</time>
      </trkpt>
      <trkpt lat="43.60132" lon="1.15767">
        <ele>283.5</ele>
        <time>2020-11-29T11:23:36Z</time>
      </trkpt>
      <trkpt lat="43.60136" lon="1.15773">
        <ele>283.7</ele>
        <time>2020-11-29T11:23:37Z</time>
      </trkpt>
      <trkpt lat="43.60138" lon="1.1578">
        <ele>283.9</ele>
        <time>2020-11-29T11:23:38Z</time>
      </trkpt>
      <trkpt lat="43.60139" lon="1.15784">
        <ele>284.1</ele>
        <time>2020-11-29T11:23:39Z</time>
      </trkpt>
      <trkpt lat="43.60143" lon="1.1579">
        <ele>284.4</ele>
        <time>2020-11-29T11:23:40Z</time>
      </trkpt>
      <trkpt lat="43.60146" lon="1.15796">
        <ele>284.8</ele>
        <time>2020-11-29T11:23:41Z</time>
      </trkpt>
      <trkpt lat="43.60146" lon="1.15803">
        <ele>285.1</ele>
        <time>2020-11-29T11:23:42Z</time>
      </trkpt>
      <trkpt lat="43.60148" lon="1.15809">
        <ele>285.4</ele>
        <time>2020-11-29T11:23:43Z</time>
      </trkpt>
      <trkpt lat="43.60149" lon="1.15815">
        <ele>285.6</ele>
        <time>2020-11-29T11:23:44Z</time>
      </trkpt>
      <trkpt lat="43.6015" lon="1.15821">
        <ele>285.8</ele>
        <time>2020-11-29T11:23:45Z</time>
      </trkpt>
      <trkpt lat="43.60151" lon="1.15826">
        <ele>285.9</ele>
        <time>2020-11-29T11:23:46Z</time>
      </trkpt>
      <trkpt lat="43.60152" lon="1.1583">
        <ele>286.1</ele>
        <time>2020-11-29T11:23:47Z</time>
      </trkpt>
      <trkpt lat="43.60156" lon="1.15835">
        <ele>286.3</ele>
        <time>2020-11-29T11:23:48Z</time>
      </trkpt>
      <trkpt lat="43.60156" lon="1.15841">
        <ele>286.6</ele>
        <time>2020-11-29T11:23:49Z</time>
      </trkpt>
      <trkpt lat="43.60156" lon="1.15844">
        <ele>286.7</ele>
        <time>2020-11-29T11:23:50Z</time>
      </trkpt>
      <trkpt lat="43.60156" lon="1.1585">
        <ele>287</ele>
        <time>2020-11-29T11:23:51Z</time>
      </trkpt>
      <trkpt lat="43.60157" lon="1.15856">
        <ele>287.2</ele>
        <time>2020-11-29T11:23:52Z</time>
      </trkpt>
      <trkpt lat="43.60159" lon="1.15862">
        <ele>287.6</ele>
        <time>2020-11-29T11:23:53Z</time>
      </trkpt>
      <trkpt lat="43.60161" lon="1.15868">
        <ele>287.8</ele>
        <time>2020-11-29T11:23:54Z</time>
      </trkpt>
      <trkpt lat="43.60166" lon="1.15871">
        <ele>288.1</ele>
        <time>2020-11-29T11:23:55Z</time>
      </trkpt>
      <trkpt lat="43.60167" lon="1.15876">
        <ele>288.2</ele>
        <time>2020-11-29T11:23:56Z</time>
      </trkpt>
      <trkpt lat="43.60169" lon="1.15881">
        <ele>288.3</ele>
        <time>2020-11-29T11:23:57Z</time>
      </trkpt>
      <trkpt lat="43.6017" lon="1.15885">
        <ele>288.4</ele>
        <time>2020-11-29T11:23:58Z</time>
      </trkpt>
      <trkpt lat="43.60172" lon="1.15889">
        <ele>288.5</ele>
        <time>2020-11-29T11:23:59Z</time>
      </trkpt>
      <trkpt lat="43.60174" lon="1.15894">
        <ele>288.6</ele>
        <time>2020-11-29T11:24:00Z</time>
      </trkpt>
      <trkpt lat="43.60175" lon="1.159">
        <ele>288.7</ele>
        <time>2020-11-29T11:24:01Z</time>
      </trkpt>
      <trkpt lat="43.60177" lon="1.15905">
        <ele>288.8</ele>
        <time>2020-11-29T11:24:02Z</time>
      </trkpt>
      <trkpt lat="43.60177" lon="1.15908">
        <ele>288.9</ele>
        <time>2020-11-29T11:24:03Z</time>
      </trkpt>
      <trkpt lat="43.60177" lon="1.15909">
        <ele>288.9</ele>
        <time>2020-11-29T11:24:04Z</time>
      </trkpt>
      <trkpt lat="43.60177" lon="1.15913">
        <ele>289</ele>
        <time>2020-11-29T11:24:05Z</time>
      </trkpt>
      <trkpt lat="43.60177" lon="1.15915">
        <ele>289</ele>
        <time>2020-11-29T11:24:06Z</time>
      </trkpt>
      <trkpt lat="43.60177" lon="1.15917">
        <ele>289.1</ele>
        <time>2020-11-29T11:24:07Z</time>
      </trkpt>
      <trkpt lat="43.60175" lon="1.1592">
        <ele>289.2</ele>
        <time>2020-11-29T11:24:08Z</time>
      </trkpt>
      <trkpt lat="43.60173" lon="1.15923">
        <ele>289.3</ele>
        <time>2020-11-29T11:24:09Z</time>
      </trkpt>
      <trkpt lat="43.60172" lon="1.15927">
        <ele>289.4</ele>
        <time>2020-11-29T11:24:10Z</time>
      </trkpt>
      <trkpt lat="43.60169" lon="1.1593">
        <ele>289.5</ele>
        <time>2020-11-29T11:24:11Z</time>
      </trkpt>
      <trkpt lat="43.60166" lon="1.15931">
        <ele>289.6</ele>
        <time>2020-11-29T11:24:12Z</time>
      </trkpt>
      <trkpt lat="43.60164" lon="1.15935">
        <ele>289.7</ele>
        <time>2020-11-29T11:24:13Z</time>
      </trkpt>
      <trkpt lat="43.60164" lon="1.15935">
        <ele>289.8</ele>
        <time>2020-11-29T11:24:14Z</time>
      </trkpt>
      <trkpt lat="43.60166" lon="1.15937">
        <ele>289.9</ele>
        <time>2020-11-29T11:24:15Z</time>
      </trkpt>
      <trkpt lat="43.60168" lon="1.15938">
        <ele>289.9</ele>
        <time>2020-11-29T11:24:16Z</time>
      </trkpt>
      <trkpt lat="43.60169" lon="1.15939">
        <ele>290</ele>
        <time>2020-11-29T11:24:17Z</time>
      </trkpt>
      <trkpt lat="43.6017" lon="1.15941">
        <ele>290.1</ele>
        <time>2020-11-29T11:24:18Z</time>
      </trkpt>
      <trkpt lat="43.60171" lon="1.15943">
        <ele>290.7</ele>
        <time>2020-11-29T11:24:19Z</time>
      </trkpt>
      <trkpt lat="43.60169" lon="1.15947">
        <ele>290.7</ele>
        <time>2020-11-29T11:24:20Z</time>
      </trkpt>
      <trkpt lat="43.60168" lon="1.15949">
        <ele>290.7</ele>
        <time>2020-11-29T11:24:21Z</time>
      </trkpt>
      <trkpt lat="43.60165" lon="1.15957">
        <ele>290.8</ele>
        <time>2020-11-29T11:24:22Z</time>
      </trkpt>
      <trkpt lat="43.60163" lon="1.15962">
        <ele>290.8</ele>
        <time>2020-11-29T11:24:23Z</time>
      </trkpt>
      <trkpt lat="43.60161" lon="1.15967">
        <ele>290.8</ele>
        <time>2020-11-29T11:24:24Z</time>
      </trkpt>
      <trkpt lat="43.6016" lon="1.15972">
        <ele>290.8</ele>
        <time>2020-11-29T11:24:25Z</time>
      </trkpt>
      <trkpt lat="43.60158" lon="1.15977">
        <ele>290.7</ele>
        <time>2020-11-29T11:24:26Z</time>
      </trkpt>
      <trkpt lat="43.60156" lon="1.15983">
        <ele>290.7</ele>
        <time>2020-11-29T11:24:27Z</time>
      </trkpt>
      <trkpt lat="43.60154" lon="1.15988">
        <ele>290.8</ele>
        <time>2020-11-29T11:24:28Z</time>
      </trkpt>
      <trkpt lat="43.60152" lon="1.15992">
        <ele>290.8</ele>
        <time>2020-11-29T11:24:29Z</time>
      </trkpt>
      <trkpt lat="43.6015" lon="1.15996">
        <ele>290.9</ele>
        <time>2020-11-29T11:24:30Z</time>
      </trkpt>
      <trkpt lat="43.60149" lon="1.15998">
        <ele>290.9</ele>
        <time>2020-11-29T11:24:31Z</time>
      </trkpt>
      <trkpt lat="43.60147" lon="1.16001">
        <ele>291</ele>
        <time>2020-11-29T11:24:32Z</time>
      </trkpt>
      <trkpt lat="43.60145" lon="1.16007">
        <ele>291</ele>
        <time>2020-11-29T11:24:33Z</time>
      </trkpt>
      <trkpt lat="43.60145" lon="1.16012">
        <ele>291.1</ele>
        <time>2020-11-29T11:24:34Z</time>
      </trkpt>
      <trkpt lat="43.60145" lon="1.16019">
        <ele>291.2</ele>
        <time>2020-11-29T11:24:35Z</time>
      </trkpt>
      <trkpt lat="43.60145" lon="1.16025">
        <ele>291.3</ele>
        <time>2020-11-29T11:24:36Z</time>
      </trkpt>
      <trkpt lat="43.60144" lon="1.1603">
        <ele>291.4</ele>
        <time>2020-11-29T11:24:37Z</time>
      </trkpt>
      <trkpt lat="43.60145" lon="1.16036">
        <ele>291.4</ele>
        <time>2020-11-29T11:24:38Z</time>
      </trkpt>
      <trkpt lat="43.60146" lon="1.16039">
        <ele>291.4</ele>
        <time>2020-11-29T11:24:39Z</time>
      </trkpt>
      <trkpt lat="43.6015" lon="1.16043">
        <ele>291.5</ele>
        <time>2020-11-29T11:24:40Z</time>
      </trkpt>
      <trkpt lat="43.60153" lon="1.16047">
        <ele>291.5</ele>
        <time>2020-11-29T11:24:41Z</time>
      </trkpt>
      <trkpt lat="43.60153" lon="1.16052">
        <ele>291.6</ele>
        <time>2020-11-29T11:24:42Z</time>
      </trkpt>
      <trkpt lat="43.60151" lon="1.16058">
        <ele>291.6</ele>
        <time>2020-11-29T11:24:43Z</time>
      </trkpt>
      <trkpt lat="43.60149" lon="1.16066">
        <ele>291.7</ele>
        <time>2020-11-29T11:24:44Z</time>
      </trkpt>
      <trkpt lat="43.60147" lon="1.16075">
        <ele>291.8</ele>
        <time>2020-11-29T11:24:45Z</time>
      </trkpt>
      <trkpt lat="43.60143" lon="1.16083">
        <ele>291.9</ele>
        <time>2020-11-29T11:24:46Z</time>
      </trkpt>
      <trkpt lat="43.60141" lon="1.1609">
        <ele>291.9</ele>
        <time>2020-11-29T11:24:47Z</time>
      </trkpt>
      <trkpt lat="43.60138" lon="1.16096">
        <ele>292</ele>
        <time>2020-11-29T11:24:48Z</time>
      </trkpt>
      <trkpt lat="43.60137" lon="1.16101">
        <ele>292.1</ele>
        <time>2020-11-29T11:24:49Z</time>
      </trkpt>
      <trkpt lat="43.60136" lon="1.16107">
        <ele>292.1</ele>
        <time>2020-11-29T11:24:50Z</time>
      </trkpt>
      <trkpt lat="43.60134" lon="1.16114">
        <ele>292.2</ele>
        <time>2020-11-29T11:24:51Z</time>
      </trkpt>
      <trkpt lat="43.60132" lon="1.1612">
        <ele>292.2</ele>
        <time>2020-11-29T11:24:52Z</time>
      </trkpt>
      <trkpt lat="43.6013" lon="1.16127">
        <ele>292.3</ele>
        <time>2020-11-29T11:24:53Z</time>
      </trkpt>
      <trkpt lat="43.60127" lon="1.16135">
        <ele>292.3</ele>
        <time>2020-11-29T11:24:54Z</time>
      </trkpt>
      <trkpt lat="43.60125" lon="1.16143">
        <ele>292.4</ele>
        <time>2020-11-29T11:24:55Z</time>
      </trkpt>
      <trkpt lat="43.60124" lon="1.1615">
        <ele>292.4</ele>
        <time>2020-11-29T11:24:56Z</time>
      </trkpt>
      <trkpt lat="43.60123" lon="1.16156">
        <ele>292.4</ele>
        <time>2020-11-29T11:24:57Z</time>
      </trkpt>
      <trkpt lat="43.60123" lon="1.16161">
        <ele>292.5</ele>
        <time>2020-11-29T11:24:58Z</time>
      </trkpt>
      <trkpt lat="43.60123" lon="1.16167">
        <ele>292.5</ele>
        <time>2020-11-29T11:24:59Z</time>
      </trkpt>
      <trkpt lat="43.60124" lon="1.16176">
        <ele>292.5</ele>
        <time>2020-11-29T11:25:00Z</time>
      </trkpt>
      <trkpt lat="43.60124" lon="1.16184">
        <ele>292.6</ele>
        <time>2020-11-29T11:25:01Z</time>
      </trkpt>
      <trkpt lat="43.60124" lon="1.16192">
        <ele>292.6</ele>
        <time>2020-11-29T11:25:02Z</time>
      </trkpt>
      <trkpt lat="43.60123" lon="1.16201">
        <ele>292.7</ele>
        <time>2020-11-29T11:25:03Z</time>
      </trkpt>
      <trkpt lat="43.60123" lon="1.1621">
        <ele>292.8</ele>
        <time>2020-11-29T11:25:04Z</time>
      </trkpt>
      <trkpt lat="43.60122" lon="1.1622">
        <ele>292.9</ele>
        <time>2020-11-29T11:25:05Z</time>
      </trkpt>
      <trkpt lat="43.60121" lon="1.16228">
        <ele>293.1</ele>
        <time>2020-11-29T11:25:06Z</time>
      </trkpt>
      <trkpt lat="43.60121" lon="1.16233">
        <ele>293.3</ele>
        <time>2020-11-29T11:25:07Z</time>
      </trkpt>
      <trkpt lat="43.60118" lon="1.16243">
        <ele>293.5</ele>
        <time>2020-11-29T11:25:08Z</time>
      </trkpt>
      <trkpt lat="43.60117" lon="1.16249">
        <ele>293.7</ele>
        <time>2020-11-29T11:25:09Z</time>
      </trkpt>
      <trkpt lat="43.60116" lon="1.16256">
        <ele>293.9</ele>
        <time>2020-11-29T11:25:10Z</time>
      </trkpt>
      <trkpt lat="43.60117" lon="1.16262">
        <ele>294.1</ele>
        <time>2020-11-29T11:25:11Z</time>
      </trkpt>
      <trkpt lat="43.60117" lon="1.16267">
        <ele>294.3</ele>
        <time>2020-11-29T11:25:12Z</time>
      </trkpt>
      <trkpt lat="43.60117" lon="1.16272">
        <ele>294.4</ele>
        <time>2020-11-29T11:25:13Z</time>
      </trkpt>
      <trkpt lat="43.60117" lon="1.16277">
        <ele>294.6</ele>
        <time>2020-11-29T11:25:14Z</time>
      </trkpt>
      <trkpt lat="43.60118" lon="1.16282">
        <ele>294.7</ele>
        <time>2020-11-29T11:25:15Z</time>
      </trkpt>
      <trkpt lat="43.60119" lon="1.16283">
        <ele>294.7</ele>
        <time>2020-11-29T11:25:16Z</time>
      </trkpt>
      <trkpt lat="43.6012" lon="1.16286">
        <ele>294.8</ele>
        <time>2020-11-29T11:25:17Z</time>
      </trkpt>
      <trkpt lat="43.60121" lon="1.16287">
        <ele>295.2</ele>
        <time>2020-11-29T11:25:18Z</time>
      </trkpt>
      <trkpt lat="43.60123" lon="1.16289">
        <ele>295.2</ele>
        <time>2020-11-29T11:25:19Z</time>
      </trkpt>
      <trkpt lat="43.60124" lon="1.1629">
        <ele>295.3</ele>
        <time>2020-11-29T11:25:20Z</time>
      </trkpt>
      <trkpt lat="43.60125" lon="1.16291">
        <ele>295.3</ele>
        <time>2020-11-29T11:25:21Z</time>
      </trkpt>
      <trkpt lat="43.60127" lon="1.16291">
        <ele>295.3</ele>
        <time>2020-11-29T11:25:22Z</time>
      </trkpt>
      <trkpt lat="43.60129" lon="1.16292">
        <ele>295.3</ele>
        <time>2020-11-29T11:25:23Z</time>
      </trkpt>
      <trkpt lat="43.6013" lon="1.16293">
        <ele>295.3</ele>
        <time>2020-11-29T11:25:24Z</time>
      </trkpt>
      <trkpt lat="43.60134" lon="1.16295">
        <ele>295.2</ele>
        <time>2020-11-29T11:25:25Z</time>
      </trkpt>
      <trkpt lat="43.60135" lon="1.16295">
        <ele>295.2</ele>
        <time>2020-11-29T11:25:26Z</time>
      </trkpt>
      <trkpt lat="43.60138" lon="1.16297">
        <ele>295.2</ele>
        <time>2020-11-29T11:25:27Z</time>
      </trkpt>
      <trkpt lat="43.60139" lon="1.163">
        <ele>295.1</ele>
        <time>2020-11-29T11:25:28Z</time>
      </trkpt>
      <trkpt lat="43.6014" lon="1.16302">
        <ele>295.1</ele>
        <time>2020-11-29T11:25:29Z</time>
      </trkpt>
      <trkpt lat="43.60142" lon="1.16306">
        <ele>295</ele>
        <time>2020-11-29T11:25:30Z</time>
      </trkpt>
      <trkpt lat="43.60144" lon="1.16309">
        <ele>294.9</ele>
        <time>2020-11-29T11:25:31Z</time>
      </trkpt>
      <trkpt lat="43.60144" lon="1.16309">
        <ele>294.9</ele>
        <time>2020-11-29T11:25:32Z</time>
      </trkpt>
      <trkpt lat="43.60147" lon="1.16311">
        <ele>294.8</ele>
        <time>2020-11-29T11:25:33Z</time>
      </trkpt>
      <trkpt lat="43.60148" lon="1.16312">
        <ele>294.7</ele>
        <time>2020-11-29T11:25:34Z</time>
      </trkpt>
      <trkpt lat="43.6015" lon="1.16315">
        <ele>294.6</ele>
        <time>2020-11-29T11:25:35Z</time>
      </trkpt>
      <trkpt lat="43.60151" lon="1.16316">
        <ele>294.6</ele>
        <time>2020-11-29T11:25:36Z</time>
      </trkpt>
      <trkpt lat="43.60152" lon="1.16321">
        <ele>294.4</ele>
        <time>2020-11-29T11:25:37Z</time>
      </trkpt>
      <trkpt lat="43.60153" lon="1.16326">
        <ele>294.3</ele>
        <time>2020-11-29T11:25:38Z</time>
      </trkpt>
      <trkpt lat="43.60153" lon="1.16327">
        <ele>294.3</ele>
        <time>2020-11-29T11:25:39Z</time>
      </trkpt>
      <trkpt lat="43.60153" lon="1.1633">
        <ele>294.2</ele>
        <time>2020-11-29T11:25:40Z</time>
      </trkpt>
      <trkpt lat="43.60154" lon="1.1633">
        <ele>294.2</ele>
        <time>2020-11-29T11:25:41Z</time>
      </trkpt>
      <trkpt lat="43.60156" lon="1.16331">
        <ele>294.1</ele>
        <time>2020-11-29T11:25:42Z</time>
      </trkpt>
      <trkpt lat="43.60157" lon="1.16331">
        <ele>294.1</ele>
        <time>2020-11-29T11:25:43Z</time>
      </trkpt>
      <trkpt lat="43.6016" lon="1.16326">
        <ele>293.9</ele>
        <time>2020-11-29T11:25:44Z</time>
      </trkpt>
      <trkpt lat="43.60163" lon="1.16322">
        <ele>293.7</ele>
        <time>2020-11-29T11:25:45Z</time>
      </trkpt>
      <trkpt lat="43.60167" lon="1.16317">
        <ele>293.6</ele>
        <time>2020-11-29T11:25:46Z</time>
      </trkpt>
      <trkpt lat="43.60171" lon="1.16312">
        <ele>293.4</ele>
        <time>2020-11-29T11:25:47Z</time>
      </trkpt>
      <trkpt lat="43.60175" lon="1.16308">
        <ele>293.2</ele>
        <time>2020-11-29T11:25:48Z</time>
      </trkpt>
      <trkpt lat="43.6018" lon="1.16305">
        <ele>293.1</ele>
        <time>2020-11-29T11:25:49Z</time>
      </trkpt>
      <trkpt lat="43.60184" lon="1.16301">
        <ele>292.9</ele>
        <time>2020-11-29T11:25:50Z</time>
      </trkpt>
      <trkpt lat="43.60187" lon="1.16297">
        <ele>292.8</ele>
        <time>2020-11-29T11:25:51Z</time>
      </trkpt>
      <trkpt lat="43.6019" lon="1.16295">
        <ele>292.7</ele>
        <time>2020-11-29T11:25:52Z</time>
      </trkpt>
      <trkpt lat="43.60194" lon="1.16295">
        <ele>292.6</ele>
        <time>2020-11-29T11:25:53Z</time>
      </trkpt>
      <trkpt lat="43.60198" lon="1.16298">
        <ele>292.5</ele>
        <time>2020-11-29T11:25:54Z</time>
      </trkpt>
      <trkpt lat="43.60202" lon="1.163">
        <ele>292.3</ele>
        <time>2020-11-29T11:25:55Z</time>
      </trkpt>
      <trkpt lat="43.60206" lon="1.16303">
        <ele>292.2</ele>
        <time>2020-11-29T11:25:56Z</time>
      </trkpt>
      <trkpt lat="43.60212" lon="1.16304">
        <ele>291.9</ele>
        <time>2020-11-29T11:25:57Z</time>
      </trkpt>
      <trkpt lat="43.60217" lon="1.16305">
        <ele>291.7</ele>
        <time>2020-11-29T11:25:58Z</time>
      </trkpt>
      <trkpt lat="43.60224" lon="1.16309">
        <ele>291.4</ele>
        <time>2020-11-29T11:25:59Z</time>
      </trkpt>
      <trkpt lat="43.60231" lon="1.16311">
        <ele>291</ele>
        <time>2020-11-29T11:26:00Z</time>
      </trkpt>
      <trkpt lat="43.60236" lon="1.16313">
        <ele>290.8</ele>
        <time>2020-11-29T11:26:01Z</time>
      </trkpt>
      <trkpt lat="43.60243" lon="1.16318">
        <ele>290.4</ele>
        <time>2020-11-29T11:26:02Z</time>
      </trkpt>
      <trkpt lat="43.60247" lon="1.16323">
        <ele>290.1</ele>
        <time>2020-11-29T11:26:03Z</time>
      </trkpt>
      <trkpt lat="43.60251" lon="1.16329">
        <ele>289.8</ele>
        <time>2020-11-29T11:26:04Z</time>
      </trkpt>
      <trkpt lat="43.60257" lon="1.16337">
        <ele>289.4</ele>
        <time>2020-11-29T11:26:05Z</time>
      </trkpt>
      <trkpt lat="43.60262" lon="1.16345">
        <ele>289</ele>
        <time>2020-11-29T11:26:06Z</time>
      </trkpt>
      <trkpt lat="43.60267" lon="1.16352">
        <ele>288.6</ele>
        <time>2020-11-29T11:26:07Z</time>
      </trkpt>
      <trkpt lat="43.60273" lon="1.16359">
        <ele>288.2</ele>
        <time>2020-11-29T11:26:08Z</time>
      </trkpt>
      <trkpt lat="43.60278" lon="1.16366">
        <ele>287.7</ele>
        <time>2020-11-29T11:26:09Z</time>
      </trkpt>
      <trkpt lat="43.60284" lon="1.16375">
        <ele>287.2</ele>
        <time>2020-11-29T11:26:10Z</time>
      </trkpt>
      <trkpt lat="43.6029" lon="1.16383">
        <ele>286.7</ele>
        <time>2020-11-29T11:26:11Z</time>
      </trkpt>
      <trkpt lat="43.60297" lon="1.16393">
        <ele>286</ele>
        <time>2020-11-29T11:26:12Z</time>
      </trkpt>
      <trkpt lat="43.60303" lon="1.16403">
        <ele>285.4</ele>
        <time>2020-11-29T11:26:13Z</time>
      </trkpt>
      <trkpt lat="43.6031" lon="1.16413">
        <ele>284.6</ele>
        <time>2020-11-29T11:26:14Z</time>
      </trkpt>
      <trkpt lat="43.60319" lon="1.16422">
        <ele>283.8</ele>
        <time>2020-11-29T11:26:15Z</time>
      </trkpt>
      <trkpt lat="43.60327" lon="1.1643">
        <ele>283.1</ele>
        <time>2020-11-29T11:26:16Z</time>
      </trkpt>
      <trkpt lat="43.60334" lon="1.16439">
        <ele>282.4</ele>
        <time>2020-11-29T11:26:17Z</time>
      </trkpt>
      <trkpt lat="43.60342" lon="1.16448">
        <ele>281.8</ele>
        <time>2020-11-29T11:26:18Z</time>
      </trkpt>
      <trkpt lat="43.60346" lon="1.16457">
        <ele>281.2</ele>
        <time>2020-11-29T11:26:19Z</time>
      </trkpt>
      <trkpt lat="43.60349" lon="1.16467">
        <ele>280.9</ele>
        <time>2020-11-29T11:26:20Z</time>
      </trkpt>
      <trkpt lat="43.60352" lon="1.16477">
        <ele>280.6</ele>
        <time>2020-11-29T11:26:21Z</time>
      </trkpt>
      <trkpt lat="43.60356" lon="1.16489">
        <ele>280.3</ele>
        <time>2020-11-29T11:26:22Z</time>
      </trkpt>
      <trkpt lat="43.6036" lon="1.16498">
        <ele>280.1</ele>
        <time>2020-11-29T11:26:23Z</time>
      </trkpt>
      <trkpt lat="43.60364" lon="1.1651">
        <ele>279.9</ele>
        <time>2020-11-29T11:26:24Z</time>
      </trkpt>
      <trkpt lat="43.60369" lon="1.1652">
        <ele>279.8</ele>
        <time>2020-11-29T11:26:25Z</time>
      </trkpt>
      <trkpt lat="43.60371" lon="1.16532">
        <ele>279.7</ele>
        <time>2020-11-29T11:26:26Z</time>
      </trkpt>
      <trkpt lat="43.60374" lon="1.16543">
        <ele>279.7</ele>
        <time>2020-11-29T11:26:27Z</time>
      </trkpt>
      <trkpt lat="43.60377" lon="1.16552">
        <ele>279.6</ele>
        <time>2020-11-29T11:26:28Z</time>
      </trkpt>
      <trkpt lat="43.60379" lon="1.1656">
        <ele>279.6</ele>
        <time>2020-11-29T11:26:29Z</time>
      </trkpt>
      <trkpt lat="43.60382" lon="1.16568">
        <ele>279.6</ele>
        <time>2020-11-29T11:26:30Z</time>
      </trkpt>
      <trkpt lat="43.60385" lon="1.16575">
        <ele>279.5</ele>
        <time>2020-11-29T11:26:31Z</time>
      </trkpt>
      <trkpt lat="43.60388" lon="1.16583">
        <ele>279.5</ele>
        <time>2020-11-29T11:26:32Z</time>
      </trkpt>
      <trkpt lat="43.60389" lon="1.16588">
        <ele>279.5</ele>
        <time>2020-11-29T11:26:33Z</time>
      </trkpt>
      <trkpt lat="43.60392" lon="1.16595">
        <ele>279.4</ele>
        <time>2020-11-29T11:26:34Z</time>
      </trkpt>
      <trkpt lat="43.60394" lon="1.16599">
        <ele>279.4</ele>
        <time>2020-11-29T11:26:35Z</time>
      </trkpt>
      <trkpt lat="43.60397" lon="1.16606">
        <ele>279.4</ele>
        <time>2020-11-29T11:26:36Z</time>
      </trkpt>
      <trkpt lat="43.60399" lon="1.16609">
        <ele>279.4</ele>
        <time>2020-11-29T11:26:37Z</time>
      </trkpt>
      <trkpt lat="43.60404" lon="1.16617">
        <ele>279.3</ele>
        <time>2020-11-29T11:26:38Z</time>
      </trkpt>
      <trkpt lat="43.60408" lon="1.16624">
        <ele>279.3</ele>
        <time>2020-11-29T11:26:39Z</time>
      </trkpt>
      <trkpt lat="43.60411" lon="1.16629">
        <ele>279.3</ele>
        <time>2020-11-29T11:26:40Z</time>
      </trkpt>
      <trkpt lat="43.60412" lon="1.16636">
        <ele>279.4</ele>
        <time>2020-11-29T11:26:41Z</time>
      </trkpt>
      <trkpt lat="43.60413" lon="1.1664">
        <ele>279.4</ele>
        <time>2020-11-29T11:26:42Z</time>
      </trkpt>
      <trkpt lat="43.60414" lon="1.16645">
        <ele>279.4</ele>
        <time>2020-11-29T11:26:43Z</time>
      </trkpt>
      <trkpt lat="43.60417" lon="1.16647">
        <ele>279.2</ele>
        <time>2020-11-29T11:26:44Z</time>
      </trkpt>
      <trkpt lat="43.60418" lon="1.16647">
        <ele>279.2</ele>
        <time>2020-11-29T11:26:45Z</time>
      </trkpt>
      <trkpt lat="43.60421" lon="1.16647">
        <ele>279.1</ele>
        <time>2020-11-29T11:26:46Z</time>
      </trkpt>
      <trkpt lat="43.60424" lon="1.16646">
        <ele>278.9</ele>
        <time>2020-11-29T11:26:47Z</time>
      </trkpt>
      <trkpt lat="43.60425" lon="1.16646">
        <ele>278.9</ele>
        <time>2020-11-29T11:26:48Z</time>
      </trkpt>
      <trkpt lat="43.60429" lon="1.16647">
        <ele>278.7</ele>
        <time>2020-11-29T11:26:49Z</time>
      </trkpt>
      <trkpt lat="43.60432" lon="1.16649">
        <ele>278.5</ele>
        <time>2020-11-29T11:26:50Z</time>
      </trkpt>
      <trkpt lat="43.60437" lon="1.16653">
        <ele>278.1</ele>
        <time>2020-11-29T11:26:51Z</time>
      </trkpt>
      <trkpt lat="43.6044" lon="1.16656">
        <ele>277.9</ele>
        <time>2020-11-29T11:26:52Z</time>
      </trkpt>
      <trkpt lat="43.60444" lon="1.16661">
        <ele>277.5</ele>
        <time>2020-11-29T11:26:53Z</time>
      </trkpt>
      <trkpt lat="43.60446" lon="1.16664">
        <ele>277.3</ele>
        <time>2020-11-29T11:26:54Z</time>
      </trkpt>
      <trkpt lat="43.60449" lon="1.16666">
        <ele>277</ele>
        <time>2020-11-29T11:26:55Z</time>
      </trkpt>
      <trkpt lat="43.60453" lon="1.16668">
        <ele>276.8</ele>
        <time>2020-11-29T11:26:56Z</time>
      </trkpt>
      <trkpt lat="43.60456" lon="1.16673">
        <ele>276.4</ele>
        <time>2020-11-29T11:26:57Z</time>
      </trkpt>
      <trkpt lat="43.60457" lon="1.16675">
        <ele>276.3</ele>
        <time>2020-11-29T11:26:58Z</time>
      </trkpt>
      <trkpt lat="43.6046" lon="1.16679">
        <ele>276</ele>
        <time>2020-11-29T11:26:59Z</time>
      </trkpt>
      <trkpt lat="43.60463" lon="1.16682">
        <ele>275.8</ele>
        <time>2020-11-29T11:27:00Z</time>
      </trkpt>
      <trkpt lat="43.60467" lon="1.16686">
        <ele>275.6</ele>
        <time>2020-11-29T11:27:01Z</time>
      </trkpt>
      <trkpt lat="43.6047" lon="1.1669">
        <ele>275.4</ele>
        <time>2020-11-29T11:27:02Z</time>
      </trkpt>
      <trkpt lat="43.60472" lon="1.16693">
        <ele>275.3</ele>
        <time>2020-11-29T11:27:03Z</time>
      </trkpt>
      <trkpt lat="43.60474" lon="1.16697">
        <ele>275.1</ele>
        <time>2020-11-29T11:27:04Z</time>
      </trkpt>
      <trkpt lat="43.60476" lon="1.16702">
        <ele>275</ele>
        <time>2020-11-29T11:27:05Z</time>
      </trkpt>
      <trkpt lat="43.6048" lon="1.16707">
        <ele>274.8</ele>
        <time>2020-11-29T11:27:06Z</time>
      </trkpt>
      <trkpt lat="43.60484" lon="1.16711">
        <ele>274.7</ele>
        <time>2020-11-29T11:27:07Z</time>
      </trkpt>
      <trkpt lat="43.60486" lon="1.16715">
        <ele>274.5</ele>
        <time>2020-11-29T11:27:08Z</time>
      </trkpt>
      <trkpt lat="43.60488" lon="1.16721">
        <ele>274.6</ele>
        <time>2020-11-29T11:27:09Z</time>
      </trkpt>
      <trkpt lat="43.60489" lon="1.16727">
        <ele>274.4</ele>
        <time>2020-11-29T11:27:10Z</time>
      </trkpt>
      <trkpt lat="43.6049" lon="1.16733">
        <ele>274.5</ele>
        <time>2020-11-29T11:27:11Z</time>
      </trkpt>
      <trkpt lat="43.60492" lon="1.16736">
        <ele>274.3</ele>
        <time>2020-11-29T11:27:12Z</time>
      </trkpt>
      <trkpt lat="43.60494" lon="1.16741">
        <ele>274.5</ele>
        <time>2020-11-29T11:27:13Z</time>
      </trkpt>
      <trkpt lat="43.60495" lon="1.16742">
        <ele>274.1</ele>
        <time>2020-11-29T11:27:14Z</time>
      </trkpt>
      <trkpt lat="43.60497" lon="1.16746">
        <ele>274.3</ele>
        <time>2020-11-29T11:27:15Z</time>
      </trkpt>
      <trkpt lat="43.60501" lon="1.1675">
        <ele>273.8</ele>
        <time>2020-11-29T11:27:16Z</time>
      </trkpt>
      <trkpt lat="43.60504" lon="1.16754">
        <ele>273.9</ele>
        <time>2020-11-29T11:27:17Z</time>
      </trkpt>
      <trkpt lat="43.60506" lon="1.16759">
        <ele>273.8</ele>
        <time>2020-11-29T11:27:18Z</time>
      </trkpt>
      <trkpt lat="43.60509" lon="1.16762">
        <ele>273.6</ele>
        <time>2020-11-29T11:27:19Z</time>
      </trkpt>
      <trkpt lat="43.60511" lon="1.16767">
        <ele>273.5</ele>
        <time>2020-11-29T11:27:20Z</time>
      </trkpt>
      <trkpt lat="43.60513" lon="1.16772">
        <ele>273.7</ele>
        <time>2020-11-29T11:27:21Z</time>
      </trkpt>
      <trkpt lat="43.60517" lon="1.16778">
        <ele>273.4</ele>
        <time>2020-11-29T11:27:22Z</time>
      </trkpt>
      <trkpt lat="43.60521" lon="1.16781">
        <ele>273.1</ele>
        <time>2020-11-29T11:27:23Z</time>
      </trkpt>
      <trkpt lat="43.60526" lon="1.16783">
        <ele>272.7</ele>
        <time>2020-11-29T11:27:24Z</time>
      </trkpt>
      <trkpt lat="43.60527" lon="1.16786">
        <ele>272.9</ele>
        <time>2020-11-29T11:27:25Z</time>
      </trkpt>
      <trkpt lat="43.60529" lon="1.16791">
        <ele>272.7</ele>
        <time>2020-11-29T11:27:26Z</time>
      </trkpt>
      <trkpt lat="43.60531" lon="1.16797">
        <ele>272.9</ele>
        <time>2020-11-29T11:27:27Z</time>
      </trkpt>
      <trkpt lat="43.60533" lon="1.16803">
        <ele>273</ele>
        <time>2020-11-29T11:27:28Z</time>
      </trkpt>
      <trkpt lat="43.60535" lon="1.16808">
        <ele>273.2</ele>
        <time>2020-11-29T11:27:29Z</time>
      </trkpt>
      <trkpt lat="43.60537" lon="1.16812">
        <ele>273.1</ele>
        <time>2020-11-29T11:27:30Z</time>
      </trkpt>
      <trkpt lat="43.60539" lon="1.16819">
        <ele>273.1</ele>
        <time>2020-11-29T11:27:31Z</time>
      </trkpt>
      <trkpt lat="43.6054" lon="1.16825">
        <ele>273.4</ele>
        <time>2020-11-29T11:27:32Z</time>
      </trkpt>
      <trkpt lat="43.60543" lon="1.16832">
        <ele>273.3</ele>
        <time>2020-11-29T11:27:33Z</time>
      </trkpt>
      <trkpt lat="43.60547" lon="1.16841">
        <ele>273.2</ele>
        <time>2020-11-29T11:27:34Z</time>
      </trkpt>
      <trkpt lat="43.60552" lon="1.16849">
        <ele>272.8</ele>
        <time>2020-11-29T11:27:35Z</time>
      </trkpt>
      <trkpt lat="43.60555" lon="1.16857">
        <ele>272.6</ele>
        <time>2020-11-29T11:27:36Z</time>
      </trkpt>
      <trkpt lat="43.60558" lon="1.16863">
        <ele>272.3</ele>
        <time>2020-11-29T11:27:37Z</time>
      </trkpt>
      <trkpt lat="43.60561" lon="1.16869">
        <ele>272.1</ele>
        <time>2020-11-29T11:27:38Z</time>
      </trkpt>
      <trkpt lat="43.60563" lon="1.16878">
        <ele>272</ele>
        <time>2020-11-29T11:27:39Z</time>
      </trkpt>
      <trkpt lat="43.60566" lon="1.16882">
        <ele>272</ele>
        <time>2020-11-29T11:27:40Z</time>
      </trkpt>
      <trkpt lat="43.60569" lon="1.16887">
        <ele>271.8</ele>
        <time>2020-11-29T11:27:41Z</time>
      </trkpt>
      <trkpt lat="43.60572" lon="1.16893">
        <ele>271.7</ele>
        <time>2020-11-29T11:27:42Z</time>
      </trkpt>
      <trkpt lat="43.60575" lon="1.169">
        <ele>271.5</ele>
        <time>2020-11-29T11:27:43Z</time>
      </trkpt>
      <trkpt lat="43.60578" lon="1.16909">
        <ele>271.2</ele>
        <time>2020-11-29T11:27:44Z</time>
      </trkpt>
      <trkpt lat="43.6058" lon="1.16917">
        <ele>270.8</ele>
        <time>2020-11-29T11:27:45Z</time>
      </trkpt>
      <trkpt lat="43.60582" lon="1.16922">
        <ele>270.5</ele>
        <time>2020-11-29T11:27:46Z</time>
      </trkpt>
      <trkpt lat="43.60583" lon="1.1693">
        <ele>270.4</ele>
        <time>2020-11-29T11:27:47Z</time>
      </trkpt>
      <trkpt lat="43.60583" lon="1.16938">
        <ele>270.5</ele>
        <time>2020-11-29T11:27:48Z</time>
      </trkpt>
      <trkpt lat="43.60583" lon="1.16944">
        <ele>270.5</ele>
        <time>2020-11-29T11:27:49Z</time>
      </trkpt>
      <trkpt lat="43.6058" lon="1.1695">
        <ele>271</ele>
        <time>2020-11-29T11:27:50Z</time>
      </trkpt>
      <trkpt lat="43.60579" lon="1.16954">
        <ele>271.1</ele>
        <time>2020-11-29T11:27:51Z</time>
      </trkpt>
      <trkpt lat="43.60579" lon="1.1696">
        <ele>271.1</ele>
        <time>2020-11-29T11:27:52Z</time>
      </trkpt>
      <trkpt lat="43.6058" lon="1.16966">
        <ele>271.2</ele>
        <time>2020-11-29T11:27:53Z</time>
      </trkpt>
      <trkpt lat="43.6058" lon="1.16974">
        <ele>271.2</ele>
        <time>2020-11-29T11:27:54Z</time>
      </trkpt>
      <trkpt lat="43.60581" lon="1.16978">
        <ele>271.2</ele>
        <time>2020-11-29T11:27:55Z</time>
      </trkpt>
      <trkpt lat="43.60583" lon="1.16984">
        <ele>270.9</ele>
        <time>2020-11-29T11:27:56Z</time>
      </trkpt>
      <trkpt lat="43.60586" lon="1.16991">
        <ele>270.6</ele>
        <time>2020-11-29T11:27:57Z</time>
      </trkpt>
      <trkpt lat="43.60587" lon="1.16998">
        <ele>270.7</ele>
        <time>2020-11-29T11:27:58Z</time>
      </trkpt>
      <trkpt lat="43.60589" lon="1.17001">
        <ele>270.4</ele>
        <time>2020-11-29T11:27:59Z</time>
      </trkpt>
      <trkpt lat="43.60592" lon="1.17004">
        <ele>270.1</ele>
        <time>2020-11-29T11:28:00Z</time>
      </trkpt>
      <trkpt lat="43.60595" lon="1.17008">
        <ele>269.8</ele>
        <time>2020-11-29T11:28:01Z</time>
      </trkpt>
      <trkpt lat="43.60599" lon="1.17013">
        <ele>269.6</ele>
        <time>2020-11-29T11:28:02Z</time>
      </trkpt>
      <trkpt lat="43.60603" lon="1.1702">
        <ele>269.4</ele>
        <time>2020-11-29T11:28:03Z</time>
      </trkpt>
      <trkpt lat="43.60607" lon="1.17029">
        <ele>268.7</ele>
        <time>2020-11-29T11:28:04Z</time>
      </trkpt>
      <trkpt lat="43.60609" lon="1.17033">
        <ele>268.7</ele>
        <time>2020-11-29T11:28:05Z</time>
      </trkpt>
      <trkpt lat="43.60612" lon="1.17043">
        <ele>268.4</ele>
        <time>2020-11-29T11:28:06Z</time>
      </trkpt>
      <trkpt lat="43.60613" lon="1.17053">
        <ele>268.2</ele>
        <time>2020-11-29T11:28:07Z</time>
      </trkpt>
      <trkpt lat="43.60615" lon="1.17058">
        <ele>268.1</ele>
        <time>2020-11-29T11:28:08Z</time>
      </trkpt>
      <trkpt lat="43.60618" lon="1.17065">
        <ele>267.9</ele>
        <time>2020-11-29T11:28:09Z</time>
      </trkpt>
      <trkpt lat="43.6062" lon="1.17071">
        <ele>267.7</ele>
        <time>2020-11-29T11:28:10Z</time>
      </trkpt>
      <trkpt lat="43.60624" lon="1.1708">
        <ele>267.5</ele>
        <time>2020-11-29T11:28:11Z</time>
      </trkpt>
      <trkpt lat="43.60626" lon="1.17087">
        <ele>267.3</ele>
        <time>2020-11-29T11:28:12Z</time>
      </trkpt>
      <trkpt lat="43.60627" lon="1.17092">
        <ele>267.2</ele>
        <time>2020-11-29T11:28:13Z</time>
      </trkpt>
      <trkpt lat="43.60631" lon="1.171">
        <ele>267</ele>
        <time>2020-11-29T11:28:14Z</time>
      </trkpt>
      <trkpt lat="43.60634" lon="1.17108">
        <ele>266.8</ele>
        <time>2020-11-29T11:28:15Z</time>
      </trkpt>
      <trkpt lat="43.60636" lon="1.17115">
        <ele>266.7</ele>
        <time>2020-11-29T11:28:16Z</time>
      </trkpt>
      <trkpt lat="43.60639" lon="1.17121">
        <ele>266.5</ele>
        <time>2020-11-29T11:28:17Z</time>
      </trkpt>
      <trkpt lat="43.60642" lon="1.17128">
        <ele>266.3</ele>
        <time>2020-11-29T11:28:18Z</time>
      </trkpt>
      <trkpt lat="43.60645" lon="1.17134">
        <ele>266.2</ele>
        <time>2020-11-29T11:28:19Z</time>
      </trkpt>
      <trkpt lat="43.60649" lon="1.1714">
        <ele>266</ele>
        <time>2020-11-29T11:28:20Z</time>
      </trkpt>
      <trkpt lat="43.60653" lon="1.17146">
        <ele>265.8</ele>
        <time>2020-11-29T11:28:21Z</time>
      </trkpt>
      <trkpt lat="43.60658" lon="1.17154">
        <ele>265.6</ele>
        <time>2020-11-29T11:28:22Z</time>
      </trkpt>
      <trkpt lat="43.60661" lon="1.17161">
        <ele>265.5</ele>
        <time>2020-11-29T11:28:23Z</time>
      </trkpt>
      <trkpt lat="43.60663" lon="1.17167">
        <ele>265.4</ele>
        <time>2020-11-29T11:28:24Z</time>
      </trkpt>
      <trkpt lat="43.60665" lon="1.17173">
        <ele>265.3</ele>
        <time>2020-11-29T11:28:25Z</time>
      </trkpt>
      <trkpt lat="43.60666" lon="1.17178">
        <ele>265.3</ele>
        <time>2020-11-29T11:28:26Z</time>
      </trkpt>
      <trkpt lat="43.60668" lon="1.17188">
        <ele>265.1</ele>
        <time>2020-11-29T11:28:27Z</time>
      </trkpt>
      <trkpt lat="43.60668" lon="1.17194">
        <ele>265.1</ele>
        <time>2020-11-29T11:28:28Z</time>
      </trkpt>
      <trkpt lat="43.60668" lon="1.17198">
        <ele>265</ele>
        <time>2020-11-29T11:28:29Z</time>
      </trkpt>
      <trkpt lat="43.60668" lon="1.17203">
        <ele>265</ele>
        <time>2020-11-29T11:28:30Z</time>
      </trkpt>
      <trkpt lat="43.6067" lon="1.17208">
        <ele>265</ele>
        <time>2020-11-29T11:28:31Z</time>
      </trkpt>
      <trkpt lat="43.60671" lon="1.17213">
        <ele>265</ele>
        <time>2020-11-29T11:28:32Z</time>
      </trkpt>
      <trkpt lat="43.60674" lon="1.17217">
        <ele>265</ele>
        <time>2020-11-29T11:28:33Z</time>
      </trkpt>
      <trkpt lat="43.60677" lon="1.17224">
        <ele>265</ele>
        <time>2020-11-29T11:28:34Z</time>
      </trkpt>
      <trkpt lat="43.60681" lon="1.17232">
        <ele>265.1</ele>
        <time>2020-11-29T11:28:35Z</time>
      </trkpt>
      <trkpt lat="43.60684" lon="1.17238">
        <ele>265.2</ele>
        <time>2020-11-29T11:28:36Z</time>
      </trkpt>
      <trkpt lat="43.60687" lon="1.17243">
        <ele>265.3</ele>
        <time>2020-11-29T11:28:37Z</time>
      </trkpt>
      <trkpt lat="43.6069" lon="1.17248">
        <ele>265.4</ele>
        <time>2020-11-29T11:28:38Z</time>
      </trkpt>
      <trkpt lat="43.60693" lon="1.17254">
        <ele>265.4</ele>
        <time>2020-11-29T11:28:39Z</time>
      </trkpt>
      <trkpt lat="43.60696" lon="1.17258">
        <ele>265.3</ele>
        <time>2020-11-29T11:28:40Z</time>
      </trkpt>
      <trkpt lat="43.60698" lon="1.17263">
        <ele>265.3</ele>
        <time>2020-11-29T11:28:41Z</time>
      </trkpt>
      <trkpt lat="43.60699" lon="1.17268">
        <ele>265.2</ele>
        <time>2020-11-29T11:28:42Z</time>
      </trkpt>
      <trkpt lat="43.60701" lon="1.17275">
        <ele>265.1</ele>
        <time>2020-11-29T11:28:43Z</time>
      </trkpt>
      <trkpt lat="43.60702" lon="1.1728">
        <ele>265</ele>
        <time>2020-11-29T11:28:44Z</time>
      </trkpt>
      <trkpt lat="43.60706" lon="1.17285">
        <ele>264.8</ele>
        <time>2020-11-29T11:28:45Z</time>
      </trkpt>
      <trkpt lat="43.60707" lon="1.17288">
        <ele>264.7</ele>
        <time>2020-11-29T11:28:46Z</time>
      </trkpt>
      <trkpt lat="43.6071" lon="1.17293">
        <ele>264.5</ele>
        <time>2020-11-29T11:28:47Z</time>
      </trkpt>
      <trkpt lat="43.60714" lon="1.17297">
        <ele>264.4</ele>
        <time>2020-11-29T11:28:48Z</time>
      </trkpt>
      <trkpt lat="43.60717" lon="1.17302">
        <ele>264.2</ele>
        <time>2020-11-29T11:28:49Z</time>
      </trkpt>
      <trkpt lat="43.60721" lon="1.17305">
        <ele>264.1</ele>
        <time>2020-11-29T11:28:50Z</time>
      </trkpt>
      <trkpt lat="43.60724" lon="1.17309">
        <ele>264</ele>
        <time>2020-11-29T11:28:51Z</time>
      </trkpt>
      <trkpt lat="43.60728" lon="1.1731">
        <ele>264</ele>
        <time>2020-11-29T11:28:52Z</time>
      </trkpt>
      <trkpt lat="43.60732" lon="1.17312">
        <ele>263.9</ele>
        <time>2020-11-29T11:28:53Z</time>
      </trkpt>
      <trkpt lat="43.60733" lon="1.17314">
        <ele>263.9</ele>
        <time>2020-11-29T11:28:54Z</time>
      </trkpt>
      <trkpt lat="43.60738" lon="1.17316">
        <ele>264</ele>
        <time>2020-11-29T11:28:55Z</time>
      </trkpt>
      <trkpt lat="43.60743" lon="1.17318">
        <ele>264.1</ele>
        <time>2020-11-29T11:28:56Z</time>
      </trkpt>
      <trkpt lat="43.60748" lon="1.17321">
        <ele>264.2</ele>
        <time>2020-11-29T11:28:57Z</time>
      </trkpt>
      <trkpt lat="43.60755" lon="1.17325">
        <ele>264.3</ele>
        <time>2020-11-29T11:28:58Z</time>
      </trkpt>
      <trkpt lat="43.6076" lon="1.17328">
        <ele>264.4</ele>
        <time>2020-11-29T11:28:59Z</time>
      </trkpt>
      <trkpt lat="43.60766" lon="1.17331">
        <ele>264.5</ele>
        <time>2020-11-29T11:29:00Z</time>
      </trkpt>
      <trkpt lat="43.60773" lon="1.17337">
        <ele>264.5</ele>
        <time>2020-11-29T11:29:01Z</time>
      </trkpt>
      <trkpt lat="43.60778" lon="1.17341">
        <ele>264.4</ele>
        <time>2020-11-29T11:29:02Z</time>
      </trkpt>
      <trkpt lat="43.60785" lon="1.17344">
        <ele>264.3</ele>
        <time>2020-11-29T11:29:03Z</time>
      </trkpt>
      <trkpt lat="43.60789" lon="1.17345">
        <ele>264.2</ele>
        <time>2020-11-29T11:29:04Z</time>
      </trkpt>
      <trkpt lat="43.60794" lon="1.17349">
        <ele>264.1</ele>
        <time>2020-11-29T11:29:05Z</time>
      </trkpt>
      <trkpt lat="43.60801" lon="1.17355">
        <ele>264.1</ele>
        <time>2020-11-29T11:29:06Z</time>
      </trkpt>
      <trkpt lat="43.60805" lon="1.17359">
        <ele>264</ele>
        <time>2020-11-29T11:29:07Z</time>
      </trkpt>
      <trkpt lat="43.60809" lon="1.17364">
        <ele>264</ele>
        <time>2020-11-29T11:29:08Z</time>
      </trkpt>
      <trkpt lat="43.60811" lon="1.17368">
        <ele>264</ele>
        <time>2020-11-29T11:29:09Z</time>
      </trkpt>
      <trkpt lat="43.60813" lon="1.17368">
        <ele>264</ele>
        <time>2020-11-29T11:29:10Z</time>
      </trkpt>
      <trkpt lat="43.60814" lon="1.17368">
        <ele>264</ele>
        <time>2020-11-29T11:29:11Z</time>
      </trkpt>
      <trkpt lat="43.60815" lon="1.17367">
        <ele>264</ele>
        <time>2020-11-29T11:29:12Z</time>
      </trkpt>
      <trkpt lat="43.60818" lon="1.17369">
        <ele>264</ele>
        <time>2020-11-29T11:29:13Z</time>
      </trkpt>
      <trkpt lat="43.6082" lon="1.17369">
        <ele>264</ele>
        <time>2020-11-29T11:29:14Z</time>
      </trkpt>
      <trkpt lat="43.60821" lon="1.17369">
        <ele>264</ele>
        <time>2020-11-29T11:29:15Z</time>
      </trkpt>
      <trkpt lat="43.60824" lon="1.1737">
        <ele>263.9</ele>
        <time>2020-11-29T11:29:16Z</time>
      </trkpt>
      <trkpt lat="43.60826" lon="1.1737">
        <ele>263.9</ele>
        <time>2020-11-29T11:29:17Z</time>
      </trkpt>
      <trkpt lat="43.60828" lon="1.1737">
        <ele>263.9</ele>
        <time>2020-11-29T11:29:18Z</time>
      </trkpt>
      <trkpt lat="43.60829" lon="1.1737">
        <ele>263.9</ele>
        <time>2020-11-29T11:29:19Z</time>
      </trkpt>
      <trkpt lat="43.60831" lon="1.17371">
        <ele>263.9</ele>
        <time>2020-11-29T11:29:20Z</time>
      </trkpt>
      <trkpt lat="43.60832" lon="1.17371">
        <ele>263.9</ele>
        <time>2020-11-29T11:29:21Z</time>
      </trkpt>
      <trkpt lat="43.60833" lon="1.17372">
        <ele>263.9</ele>
        <time>2020-11-29T11:29:22Z</time>
      </trkpt>
      <trkpt lat="43.60834" lon="1.17372">
        <ele>263.9</ele>
        <time>2020-11-29T11:29:23Z</time>
      </trkpt>
      <trkpt lat="43.60835" lon="1.17372">
        <ele>263.9</ele>
        <time>2020-11-29T11:29:24Z</time>
      </trkpt>
      <trkpt lat="43.60835" lon="1.17372">
        <ele>263.9</ele>
        <time>2020-11-29T11:29:25Z</time>
      </trkpt>
      <trkpt lat="43.60835" lon="1.17372">
        <ele>263.9</ele>
        <time>2020-11-29T11:29:26Z</time>
      </trkpt>
      <trkpt lat="43.60834" lon="1.17372">
        <ele>263.9</ele>
        <time>2020-11-29T11:29:27Z</time>
      </trkpt>
      <trkpt lat="43.60835" lon="1.17373">
        <ele>263.9</ele>
        <time>2020-11-29T11:29:28Z</time>
      </trkpt>
      <trkpt lat="43.60834" lon="1.17372">
        <ele>263.9</ele>
        <time>2020-11-29T11:29:29Z</time>
      </trkpt>
      <trkpt lat="43.60834" lon="1.17372">
        <ele>263.9</ele>
        <time>2020-11-29T11:29:30Z</time>
      </trkpt>
      <trkpt lat="43.60834" lon="1.17372">
        <ele>263.9</ele>
        <time>2020-11-29T11:29:31Z</time>
      </trkpt>
      <trkpt lat="43.60834" lon="1.17372">
        <ele>263.9</ele>
        <time>2020-11-29T11:29:32Z</time>
      </trkpt>
      <trkpt lat="43.60834" lon="1.17372">
        <ele>263.9</ele>
        <time>2020-11-29T11:29:33Z</time>
      </trkpt>
      <trkpt lat="43.60834" lon="1.17372">
        <ele>263.9</ele>
        <time>2020-11-29T11:29:34Z</time>
      </trkpt>
      <trkpt lat="43.60834" lon="1.17371">
        <ele>263.9</ele>
        <time>2020-11-29T11:29:35Z</time>
      </trkpt>
      <trkpt lat="43.60834" lon="1.17371">
        <ele>263.9</ele>
        <time>2020-11-29T11:29:36Z</time>
      </trkpt>
      <trkpt lat="43.60835" lon="1.17372">
        <ele>263.9</ele>
        <time>2020-11-29T11:29:37Z</time>
      </trkpt>
      <trkpt lat="43.60835" lon="1.17372">
        <ele>263.9</ele>
        <time>2020-11-29T11:29:38Z</time>
      </trkpt>
      <trkpt lat="43.60836" lon="1.17371">
        <ele>263.9</ele>
        <time>2020-11-29T11:29:39Z</time>
      </trkpt>
      <trkpt lat="43.60837" lon="1.17374">
        <ele>263.9</ele>
        <time>2020-11-29T11:29:40Z</time>
      </trkpt>
      <trkpt lat="43.60838" lon="1.17375">
        <ele>263.9</ele>
        <time>2020-11-29T11:29:41Z</time>
      </trkpt>
      <trkpt lat="43.60838" lon="1.17376">
        <ele>263.9</ele>
        <time>2020-11-29T11:29:42Z</time>
      </trkpt>
      <trkpt lat="43.60839" lon="1.17374">
        <ele>263.9</ele>
        <time>2020-11-29T11:29:43Z</time>
      </trkpt>
      <trkpt lat="43.60839" lon="1.17374">
        <ele>263.9</ele>
        <time>2020-11-29T11:29:44Z</time>
      </trkpt>
      <trkpt lat="43.6084" lon="1.17373">
        <ele>263.9</ele>
        <time>2020-11-29T11:29:45Z</time>
      </trkpt>
      <trkpt lat="43.6084" lon="1.17373">
        <ele>263.9</ele>
        <time>2020-11-29T11:29:46Z</time>
      </trkpt>
      <trkpt lat="43.60841" lon="1.17372">
        <ele>263.9</ele>
        <time>2020-11-29T11:29:47Z</time>
      </trkpt>
      <trkpt lat="43.60842" lon="1.17371">
        <ele>263.9</ele>
        <time>2020-11-29T11:29:48Z</time>
      </trkpt>
      <trkpt lat="43.60842" lon="1.17371">
        <ele>263.9</ele>
        <time>2020-11-29T11:29:49Z</time>
      </trkpt>
      <trkpt lat="43.60842" lon="1.17369">
        <ele>263.8</ele>
        <time>2020-11-29T11:29:50Z</time>
      </trkpt>
      <trkpt lat="43.60842" lon="1.17369">
        <ele>263.8</ele>
        <time>2020-11-29T11:29:51Z</time>
      </trkpt>
      <trkpt lat="43.60843" lon="1.17368">
        <ele>263.8</ele>
        <time>2020-11-29T11:29:52Z</time>
      </trkpt>
      <trkpt lat="43.60843" lon="1.17368">
        <ele>263.8</ele>
        <time>2020-11-29T11:29:53Z</time>
      </trkpt>
      <trkpt lat="43.60843" lon="1.17368">
        <ele>263.8</ele>
        <time>2020-11-29T11:29:54Z</time>
      </trkpt>
      <trkpt lat="43.60843" lon="1.17368">
        <ele>263.8</ele>
        <time>2020-11-29T11:29:55Z</time>
      </trkpt>
      <trkpt lat="43.60844" lon="1.17369">
        <ele>263.8</ele>
        <time>2020-11-29T11:29:56Z</time>
      </trkpt>
      <trkpt lat="43.60845" lon="1.1737">
        <ele>263.8</ele>
        <time>2020-11-29T11:29:57Z</time>
      </trkpt>
      <trkpt lat="43.60848" lon="1.17373">
        <ele>263.8</ele>
        <time>2020-11-29T11:29:58Z</time>
      </trkpt>
      <trkpt lat="43.60849" lon="1.17374">
        <ele>263.8</ele>
        <time>2020-11-29T11:29:59Z</time>
      </trkpt>
      <trkpt lat="43.60851" lon="1.17374">
        <ele>263.8</ele>
        <time>2020-11-29T11:30:00Z</time>
      </trkpt>
      <trkpt lat="43.60851" lon="1.17375">
        <ele>263.8</ele>
        <time>2020-11-29T11:30:01Z</time>
      </trkpt>
      <trkpt lat="43.60851" lon="1.17375">
        <ele>263.8</ele>
        <time>2020-11-29T11:30:02Z</time>
      </trkpt>
      <trkpt lat="43.60852" lon="1.17375">
        <ele>263.7</ele>
        <time>2020-11-29T11:30:03Z</time>
      </trkpt>
      <trkpt lat="43.60852" lon="1.17376">
        <ele>263.7</ele>
        <time>2020-11-29T11:30:04Z</time>
      </trkpt>
      <trkpt lat="43.60852" lon="1.17376">
        <ele>263.7</ele>
        <time>2020-11-29T11:30:05Z</time>
      </trkpt>
      <trkpt lat="43.60852" lon="1.17376">
        <ele>263.7</ele>
        <time>2020-11-29T11:30:06Z</time>
      </trkpt>
      <trkpt lat="43.60852" lon="1.17376">
        <ele>263.7</ele>
        <time>2020-11-29T11:30:07Z</time>
      </trkpt>
      <trkpt lat="43.60853" lon="1.17376">
        <ele>263.7</ele>
        <time>2020-11-29T11:30:08Z</time>
      </trkpt>
      <trkpt lat="43.60853" lon="1.17376">
        <ele>263.7</ele>
        <time>2020-11-29T11:30:09Z</time>
      </trkpt>
      <trkpt lat="43.60853" lon="1.17376">
        <ele>263.7</ele>
        <time>2020-11-29T11:30:10Z</time>
      </trkpt>
      <trkpt lat="43.60853" lon="1.17376">
        <ele>263.6</ele>
        <time>2020-11-29T11:30:11Z</time>
      </trkpt>
      <trkpt lat="43.60853" lon="1.17376">
        <ele>263.6</ele>
        <time>2020-11-29T11:30:12Z</time>
      </trkpt>
      <trkpt lat="43.60854" lon="1.17376">
        <ele>263.6</ele>
        <time>2020-11-29T11:30:13Z</time>
      </trkpt>
      <trkpt lat="43.60854" lon="1.17377">
        <ele>263.6</ele>
        <time>2020-11-29T11:30:14Z</time>
      </trkpt>
      <trkpt lat="43.60854" lon="1.17377">
        <ele>263.6</ele>
        <time>2020-11-29T11:30:15Z</time>
      </trkpt>
      <trkpt lat="43.60854" lon="1.17377">
        <ele>263.6</ele>
        <time>2020-11-29T11:30:16Z</time>
      </trkpt>
      <trkpt lat="43.60855" lon="1.17377">
        <ele>263.5</ele>
        <time>2020-11-29T11:30:17Z</time>
      </trkpt>
      <trkpt lat="43.60855" lon="1.17377">
        <ele>263.5</ele>
        <time>2020-11-29T11:30:18Z</time>
      </trkpt>
      <trkpt lat="43.60855" lon="1.17377">
        <ele>263.5</ele>
        <time>2020-11-29T11:30:19Z</time>
      </trkpt>
      <trkpt lat="43.60857" lon="1.17377">
        <ele>263.4</ele>
        <time>2020-11-29T11:30:20Z</time>
      </trkpt>
      <trkpt lat="43.60858" lon="1.17377">
        <ele>263.3</ele>
        <time>2020-11-29T11:30:21Z</time>
      </trkpt>
      <trkpt lat="43.60859" lon="1.17377">
        <ele>263.3</ele>
        <time>2020-11-29T11:30:22Z</time>
      </trkpt>
      <trkpt lat="43.60859" lon="1.17377">
        <ele>263.2</ele>
        <time>2020-11-29T11:30:23Z</time>
      </trkpt>
      <trkpt lat="43.60861" lon="1.17377">
        <ele>263.1</ele>
        <time>2020-11-29T11:30:24Z</time>
      </trkpt>
      <trkpt lat="43.60862" lon="1.17376">
        <ele>263</ele>
        <time>2020-11-29T11:30:25Z</time>
      </trkpt>
      <trkpt lat="43.60863" lon="1.17376">
        <ele>262.9</ele>
        <time>2020-11-29T11:30:26Z</time>
      </trkpt>
      <trkpt lat="43.60865" lon="1.17375">
        <ele>262.8</ele>
        <time>2020-11-29T11:30:27Z</time>
      </trkpt>
      <trkpt lat="43.60866" lon="1.17375">
        <ele>262.7</ele>
        <time>2020-11-29T11:30:28Z</time>
      </trkpt>
      <trkpt lat="43.60869" lon="1.17374">
        <ele>262.5</ele>
        <time>2020-11-29T11:30:29Z</time>
      </trkpt>
      <trkpt lat="43.60872" lon="1.17372">
        <ele>262</ele>
        <time>2020-11-29T11:30:30Z</time>
      </trkpt>
      <trkpt lat="43.60877" lon="1.17372">
        <ele>261.7</ele>
        <time>2020-11-29T11:30:31Z</time>
      </trkpt>
      <trkpt lat="43.60881" lon="1.17371">
        <ele>261.3</ele>
        <time>2020-11-29T11:30:32Z</time>
      </trkpt>
      <trkpt lat="43.60885" lon="1.1737">
        <ele>261</ele>
        <time>2020-11-29T11:30:33Z</time>
      </trkpt>
      <trkpt lat="43.60889" lon="1.17371">
        <ele>260.8</ele>
        <time>2020-11-29T11:30:34Z</time>
      </trkpt>
      <trkpt lat="43.60892" lon="1.17371">
        <ele>260.6</ele>
        <time>2020-11-29T11:30:35Z</time>
      </trkpt>
      <trkpt lat="43.60896" lon="1.17372">
        <ele>260.4</ele>
        <time>2020-11-29T11:30:36Z</time>
      </trkpt>
      <trkpt lat="43.60899" lon="1.17375">
        <ele>260.2</ele>
        <time>2020-11-29T11:30:37Z</time>
      </trkpt>
      <trkpt lat="43.60902" lon="1.17375">
        <ele>260.1</ele>
        <time>2020-11-29T11:30:38Z</time>
      </trkpt>
      <trkpt lat="43.60905" lon="1.17378">
        <ele>259.9</ele>
        <time>2020-11-29T11:30:39Z</time>
      </trkpt>
      <trkpt lat="43.60907" lon="1.1738">
        <ele>259.9</ele>
        <time>2020-11-29T11:30:40Z</time>
      </trkpt>
      <trkpt lat="43.6091" lon="1.17383">
        <ele>259.7</ele>
        <time>2020-11-29T11:30:41Z</time>
      </trkpt>
      <trkpt lat="43.60913" lon="1.17386">
        <ele>259.6</ele>
        <time>2020-11-29T11:30:42Z</time>
      </trkpt>
      <trkpt lat="43.60915" lon="1.17387">
        <ele>259.6</ele>
        <time>2020-11-29T11:30:43Z</time>
      </trkpt>
      <trkpt lat="43.6092" lon="1.17394">
        <ele>259.4</ele>
        <time>2020-11-29T11:30:44Z</time>
      </trkpt>
      <trkpt lat="43.60926" lon="1.17398">
        <ele>259.3</ele>
        <time>2020-11-29T11:30:45Z</time>
      </trkpt>
      <trkpt lat="43.60931" lon="1.17404">
        <ele>259.2</ele>
        <time>2020-11-29T11:30:46Z</time>
      </trkpt>
      <trkpt lat="43.60934" lon="1.17407">
        <ele>259.1</ele>
        <time>2020-11-29T11:30:47Z</time>
      </trkpt>
      <trkpt lat="43.60937" lon="1.1741">
        <ele>259</ele>
        <time>2020-11-29T11:30:48Z</time>
      </trkpt>
      <trkpt lat="43.60941" lon="1.17413">
        <ele>258.9</ele>
        <time>2020-11-29T11:30:49Z</time>
      </trkpt>
      <trkpt lat="43.60946" lon="1.17414">
        <ele>258.8</ele>
        <time>2020-11-29T11:30:50Z</time>
      </trkpt>
      <trkpt lat="43.60952" lon="1.17417">
        <ele>258.6</ele>
        <time>2020-11-29T11:30:51Z</time>
      </trkpt>
      <trkpt lat="43.60957" lon="1.17422">
        <ele>258.5</ele>
        <time>2020-11-29T11:30:52Z</time>
      </trkpt>
      <trkpt lat="43.60963" lon="1.17425">
        <ele>258.3</ele>
        <time>2020-11-29T11:30:53Z</time>
      </trkpt>
      <trkpt lat="43.60968" lon="1.17429">
        <ele>258.2</ele>
        <time>2020-11-29T11:30:54Z</time>
      </trkpt>
      <trkpt lat="43.60973" lon="1.17433">
        <ele>258.1</ele>
        <time>2020-11-29T11:30:55Z</time>
      </trkpt>
      <trkpt lat="43.60979" lon="1.17438">
        <ele>257.9</ele>
        <time>2020-11-29T11:30:56Z</time>
      </trkpt>
      <trkpt lat="43.60985" lon="1.17443">
        <ele>257.7</ele>
        <time>2020-11-29T11:30:57Z</time>
      </trkpt>
      <trkpt lat="43.60991" lon="1.17448">
        <ele>257.5</ele>
        <time>2020-11-29T11:30:58Z</time>
      </trkpt>
      <trkpt lat="43.60996" lon="1.17451">
        <ele>257.4</ele>
        <time>2020-11-29T11:30:59Z</time>
      </trkpt>
      <trkpt lat="43.61" lon="1.17456">
        <ele>257.2</ele>
        <time>2020-11-29T11:31:00Z</time>
      </trkpt>
      <trkpt lat="43.61009" lon="1.17462">
        <ele>257</ele>
        <time>2020-11-29T11:31:01Z</time>
      </trkpt>
      <trkpt lat="43.61015" lon="1.17469">
        <ele>256.9</ele>
        <time>2020-11-29T11:31:02Z</time>
      </trkpt>
      <trkpt lat="43.61019" lon="1.17474">
        <ele>256.8</ele>
        <time>2020-11-29T11:31:03Z</time>
      </trkpt>
      <trkpt lat="43.61024" lon="1.17478">
        <ele>256.7</ele>
        <time>2020-11-29T11:31:04Z</time>
      </trkpt>
      <trkpt lat="43.61029" lon="1.17481">
        <ele>256.7</ele>
        <time>2020-11-29T11:31:05Z</time>
      </trkpt>
      <trkpt lat="43.61033" lon="1.17484">
        <ele>256.6</ele>
        <time>2020-11-29T11:31:06Z</time>
      </trkpt>
      <trkpt lat="43.61038" lon="1.17487">
        <ele>256.6</ele>
        <time>2020-11-29T11:31:07Z</time>
      </trkpt>
      <trkpt lat="43.61042" lon="1.17491">
        <ele>256.6</ele>
        <time>2020-11-29T11:31:08Z</time>
      </trkpt>
      <trkpt lat="43.61045" lon="1.17496">
        <ele>256.5</ele>
        <time>2020-11-29T11:31:09Z</time>
      </trkpt>
      <trkpt lat="43.61049" lon="1.17501">
        <ele>257.3</ele>
        <time>2020-11-29T11:31:10Z</time>
      </trkpt>
      <trkpt lat="43.61051" lon="1.17505">
        <ele>257.6</ele>
        <time>2020-11-29T11:31:11Z</time>
      </trkpt>
      <trkpt lat="43.61054" lon="1.17511">
        <ele>257.9</ele>
        <time>2020-11-29T11:31:12Z</time>
      </trkpt>
      <trkpt lat="43.61058" lon="1.17516">
        <ele>258.2</ele>
        <time>2020-11-29T11:31:13Z</time>
      </trkpt>
      <trkpt lat="43.61062" lon="1.17521">
        <ele>258.5</ele>
        <time>2020-11-29T11:31:14Z</time>
      </trkpt>
      <trkpt lat="43.61064" lon="1.17528">
        <ele>258.8</ele>
        <time>2020-11-29T11:31:15Z</time>
      </trkpt>
      <trkpt lat="43.61066" lon="1.17536">
        <ele>259</ele>
        <time>2020-11-29T11:31:16Z</time>
      </trkpt>
      <trkpt lat="43.61069" lon="1.17541">
        <ele>259.1</ele>
        <time>2020-11-29T11:31:17Z</time>
      </trkpt>
      <trkpt lat="43.61073" lon="1.17547">
        <ele>259.3</ele>
        <time>2020-11-29T11:31:18Z</time>
      </trkpt>
      <trkpt lat="43.61077" lon="1.17551">
        <ele>259.4</ele>
        <time>2020-11-29T11:31:19Z</time>
      </trkpt>
      <trkpt lat="43.61081" lon="1.17558">
        <ele>259.6</ele>
        <time>2020-11-29T11:31:20Z</time>
      </trkpt>
      <trkpt lat="43.61084" lon="1.17565">
        <ele>259.7</ele>
        <time>2020-11-29T11:31:21Z</time>
      </trkpt>
      <trkpt lat="43.61085" lon="1.17569">
        <ele>259.8</ele>
        <time>2020-11-29T11:31:22Z</time>
      </trkpt>
      <trkpt lat="43.61086" lon="1.1757">
        <ele>259.8</ele>
        <time>2020-11-29T11:31:23Z</time>
      </trkpt>
      <trkpt lat="43.6109" lon="1.17572">
        <ele>259.9</ele>
        <time>2020-11-29T11:31:24Z</time>
      </trkpt>
      <trkpt lat="43.61092" lon="1.17574">
        <ele>260</ele>
        <time>2020-11-29T11:31:25Z</time>
      </trkpt>
      <trkpt lat="43.61095" lon="1.17577">
        <ele>260.1</ele>
        <time>2020-11-29T11:31:26Z</time>
      </trkpt>
      <trkpt lat="43.61098" lon="1.1758">
        <ele>260.2</ele>
        <time>2020-11-29T11:31:27Z</time>
      </trkpt>
      <trkpt lat="43.611" lon="1.17582">
        <ele>260.2</ele>
        <time>2020-11-29T11:31:28Z</time>
      </trkpt>
      <trkpt lat="43.61103" lon="1.17589">
        <ele>260.4</ele>
        <time>2020-11-29T11:31:29Z</time>
      </trkpt>
      <trkpt lat="43.61106" lon="1.17595">
        <ele>260.5</ele>
        <time>2020-11-29T11:31:30Z</time>
      </trkpt>
      <trkpt lat="43.61108" lon="1.17597">
        <ele>260.5</ele>
        <time>2020-11-29T11:31:31Z</time>
      </trkpt>
      <trkpt lat="43.6111" lon="1.176">
        <ele>260.6</ele>
        <time>2020-11-29T11:31:32Z</time>
      </trkpt>
      <trkpt lat="43.61113" lon="1.17604">
        <ele>260.7</ele>
        <time>2020-11-29T11:31:33Z</time>
      </trkpt>
      <trkpt lat="43.61116" lon="1.17608">
        <ele>260.8</ele>
        <time>2020-11-29T11:31:34Z</time>
      </trkpt>
      <trkpt lat="43.61118" lon="1.17612">
        <ele>260.8</ele>
        <time>2020-11-29T11:31:35Z</time>
      </trkpt>
      <trkpt lat="43.61122" lon="1.17618">
        <ele>260.9</ele>
        <time>2020-11-29T11:31:36Z</time>
      </trkpt>
      <trkpt lat="43.61125" lon="1.17624">
        <ele>261</ele>
        <time>2020-11-29T11:31:37Z</time>
      </trkpt>
      <trkpt lat="43.61128" lon="1.17631">
        <ele>261.2</ele>
        <time>2020-11-29T11:31:38Z</time>
      </trkpt>
      <trkpt lat="43.61133" lon="1.17634">
        <ele>261.2</ele>
        <time>2020-11-29T11:31:39Z</time>
      </trkpt>
      <trkpt lat="43.61136" lon="1.17638">
        <ele>261.3</ele>
        <time>2020-11-29T11:31:40Z</time>
      </trkpt>
      <trkpt lat="43.6114" lon="1.17643">
        <ele>261.4</ele>
        <time>2020-11-29T11:31:41Z</time>
      </trkpt>
      <trkpt lat="43.61144" lon="1.17647">
        <ele>261.5</ele>
        <time>2020-11-29T11:31:42Z</time>
      </trkpt>
      <trkpt lat="43.61147" lon="1.17652">
        <ele>261.5</ele>
        <time>2020-11-29T11:31:43Z</time>
      </trkpt>
      <trkpt lat="43.61151" lon="1.17657">
        <ele>261.8</ele>
        <time>2020-11-29T11:31:44Z</time>
      </trkpt>
      <trkpt lat="43.61153" lon="1.17664">
        <ele>262</ele>
        <time>2020-11-29T11:31:45Z</time>
      </trkpt>
      <trkpt lat="43.61156" lon="1.17669">
        <ele>262.1</ele>
        <time>2020-11-29T11:31:46Z</time>
      </trkpt>
      <trkpt lat="43.61158" lon="1.17673">
        <ele>262.2</ele>
        <time>2020-11-29T11:31:47Z</time>
      </trkpt>
      <trkpt lat="43.61161" lon="1.17677">
        <ele>262.4</ele>
        <time>2020-11-29T11:31:48Z</time>
      </trkpt>
      <trkpt lat="43.61163" lon="1.17682">
        <ele>262.6</ele>
        <time>2020-11-29T11:31:49Z</time>
      </trkpt>
      <trkpt lat="43.61167" lon="1.17687">
        <ele>262.8</ele>
        <time>2020-11-29T11:31:50Z</time>
      </trkpt>
      <trkpt lat="43.61171" lon="1.17691">
        <ele>263.2</ele>
        <time>2020-11-29T11:31:51Z</time>
      </trkpt>
      <trkpt lat="43.61175" lon="1.17697">
        <ele>263.4</ele>
        <time>2020-11-29T11:31:52Z</time>
      </trkpt>
      <trkpt lat="43.61177" lon="1.17701">
        <ele>263.7</ele>
        <time>2020-11-29T11:31:53Z</time>
      </trkpt>
      <trkpt lat="43.61181" lon="1.17706">
        <ele>263.9</ele>
        <time>2020-11-29T11:31:54Z</time>
      </trkpt>
      <trkpt lat="43.61183" lon="1.17712">
        <ele>264</ele>
        <time>2020-11-29T11:31:55Z</time>
      </trkpt>
      <trkpt lat="43.61184" lon="1.17718">
        <ele>264.4</ele>
        <time>2020-11-29T11:31:56Z</time>
      </trkpt>
      <trkpt lat="43.61185" lon="1.17723">
        <ele>264.6</ele>
        <time>2020-11-29T11:31:57Z</time>
      </trkpt>
      <trkpt lat="43.61186" lon="1.17726">
        <ele>264.7</ele>
        <time>2020-11-29T11:31:58Z</time>
      </trkpt>
      <trkpt lat="43.61187" lon="1.17732">
        <ele>264.8</ele>
        <time>2020-11-29T11:31:59Z</time>
      </trkpt>
      <trkpt lat="43.61189" lon="1.17736">
        <ele>264.9</ele>
        <time>2020-11-29T11:32:00Z</time>
      </trkpt>
      <trkpt lat="43.61191" lon="1.1774">
        <ele>264.8</ele>
        <time>2020-11-29T11:32:01Z</time>
      </trkpt>
      <trkpt lat="43.61193" lon="1.17745">
        <ele>264.9</ele>
        <time>2020-11-29T11:32:02Z</time>
      </trkpt>
      <trkpt lat="43.61194" lon="1.1775">
        <ele>264.8</ele>
        <time>2020-11-29T11:32:03Z</time>
      </trkpt>
      <trkpt lat="43.61196" lon="1.17755">
        <ele>264.8</ele>
        <time>2020-11-29T11:32:04Z</time>
      </trkpt>
      <trkpt lat="43.61197" lon="1.17761">
        <ele>264.7</ele>
        <time>2020-11-29T11:32:05Z</time>
      </trkpt>
      <trkpt lat="43.612" lon="1.17767">
        <ele>264.6</ele>
        <time>2020-11-29T11:32:06Z</time>
      </trkpt>
      <trkpt lat="43.61204" lon="1.17772">
        <ele>264.4</ele>
        <time>2020-11-29T11:32:07Z</time>
      </trkpt>
      <trkpt lat="43.61205" lon="1.17776">
        <ele>264.4</ele>
        <time>2020-11-29T11:32:08Z</time>
      </trkpt>
      <trkpt lat="43.61207" lon="1.17781">
        <ele>264.2</ele>
        <time>2020-11-29T11:32:09Z</time>
      </trkpt>
      <trkpt lat="43.61209" lon="1.17784">
        <ele>264.2</ele>
        <time>2020-11-29T11:32:10Z</time>
      </trkpt>
      <trkpt lat="43.61212" lon="1.17787">
        <ele>264</ele>
        <time>2020-11-29T11:32:11Z</time>
      </trkpt>
      <trkpt lat="43.61215" lon="1.1779">
        <ele>263.7</ele>
        <time>2020-11-29T11:32:12Z</time>
      </trkpt>
      <trkpt lat="43.61216" lon="1.17791">
        <ele>263.3</ele>
        <time>2020-11-29T11:32:13Z</time>
      </trkpt>
      <trkpt lat="43.61219" lon="1.17796">
        <ele>262.8</ele>
        <time>2020-11-29T11:32:14Z</time>
      </trkpt>
      <trkpt lat="43.61221" lon="1.17798">
        <ele>262.8</ele>
        <time>2020-11-29T11:32:15Z</time>
      </trkpt>
      <trkpt lat="43.61222" lon="1.17799">
        <ele>262</ele>
        <time>2020-11-29T11:32:16Z</time>
      </trkpt>
      <trkpt lat="43.61226" lon="1.17802">
        <ele>261.5</ele>
        <time>2020-11-29T11:32:17Z</time>
      </trkpt>
      <trkpt lat="43.61227" lon="1.17806">
        <ele>261.4</ele>
        <time>2020-11-29T11:32:18Z</time>
      </trkpt>
      <trkpt lat="43.61231" lon="1.17809">
        <ele>260.9</ele>
        <time>2020-11-29T11:32:19Z</time>
      </trkpt>
      <trkpt lat="43.61234" lon="1.17811">
        <ele>260.1</ele>
        <time>2020-11-29T11:32:20Z</time>
      </trkpt>
      <trkpt lat="43.6124" lon="1.17814">
        <ele>259.6</ele>
        <time>2020-11-29T11:32:21Z</time>
      </trkpt>
      <trkpt lat="43.61244" lon="1.17818">
        <ele>258.9</ele>
        <time>2020-11-29T11:32:22Z</time>
      </trkpt>
      <trkpt lat="43.61249" lon="1.17822">
        <ele>258.5</ele>
        <time>2020-11-29T11:32:23Z</time>
      </trkpt>
      <trkpt lat="43.61252" lon="1.17827">
        <ele>258.1</ele>
        <time>2020-11-29T11:32:24Z</time>
      </trkpt>
      <trkpt lat="43.61255" lon="1.17832">
        <ele>257.8</ele>
        <time>2020-11-29T11:32:25Z</time>
      </trkpt>
      <trkpt lat="43.61259" lon="1.17838">
        <ele>257.5</ele>
        <time>2020-11-29T11:32:26Z</time>
      </trkpt>
      <trkpt lat="43.61262" lon="1.17844">
        <ele>257.3</ele>
        <time>2020-11-29T11:32:27Z</time>
      </trkpt>
      <trkpt lat="43.61265" lon="1.17848">
        <ele>256.8</ele>
        <time>2020-11-29T11:32:28Z</time>
      </trkpt>
      <trkpt lat="43.61268" lon="1.17852">
        <ele>256.8</ele>
        <time>2020-11-29T11:32:29Z</time>
      </trkpt>
      <trkpt lat="43.61271" lon="1.17857">
        <ele>256.5</ele>
        <time>2020-11-29T11:32:30Z</time>
      </trkpt>
      <trkpt lat="43.61273" lon="1.17861">
        <ele>256.3</ele>
        <time>2020-11-29T11:32:31Z</time>
      </trkpt>
      <trkpt lat="43.61276" lon="1.17867">
        <ele>256</ele>
        <time>2020-11-29T11:32:32Z</time>
      </trkpt>
      <trkpt lat="43.61279" lon="1.17872">
        <ele>255.9</ele>
        <time>2020-11-29T11:32:33Z</time>
      </trkpt>
      <trkpt lat="43.61281" lon="1.17877">
        <ele>255.7</ele>
        <time>2020-11-29T11:32:34Z</time>
      </trkpt>
      <trkpt lat="43.61284" lon="1.17881">
        <ele>255.7</ele>
        <time>2020-11-29T11:32:35Z</time>
      </trkpt>
      <trkpt lat="43.61286" lon="1.17884">
        <ele>255.5</ele>
        <time>2020-11-29T11:32:36Z</time>
      </trkpt>
      <trkpt lat="43.61289" lon="1.17888">
        <ele>255.4</ele>
        <time>2020-11-29T11:32:37Z</time>
      </trkpt>
      <trkpt lat="43.61292" lon="1.17891">
        <ele>255.2</ele>
        <time>2020-11-29T11:32:38Z</time>
      </trkpt>
      <trkpt lat="43.61295" lon="1.17893">
        <ele>255.1</ele>
        <time>2020-11-29T11:32:39Z</time>
      </trkpt>
      <trkpt lat="43.61299" lon="1.17896">
        <ele>255</ele>
        <time>2020-11-29T11:32:40Z</time>
      </trkpt>
      <trkpt lat="43.61303" lon="1.179">
        <ele>254.8</ele>
        <time>2020-11-29T11:32:41Z</time>
      </trkpt>
      <trkpt lat="43.61306" lon="1.17903">
        <ele>254.7</ele>
        <time>2020-11-29T11:32:42Z</time>
      </trkpt>
      <trkpt lat="43.61313" lon="1.17908">
        <ele>254.5</ele>
        <time>2020-11-29T11:32:43Z</time>
      </trkpt>
      <trkpt lat="43.61317" lon="1.17914">
        <ele>254.4</ele>
        <time>2020-11-29T11:32:44Z</time>
      </trkpt>
      <trkpt lat="43.6132" lon="1.1792">
        <ele>254.4</ele>
        <time>2020-11-29T11:32:45Z</time>
      </trkpt>
      <trkpt lat="43.61322" lon="1.17925">
        <ele>254.4</ele>
        <time>2020-11-29T11:32:46Z</time>
      </trkpt>
      <trkpt lat="43.61325" lon="1.17932">
        <ele>254.5</ele>
        <time>2020-11-29T11:32:47Z</time>
      </trkpt>
      <trkpt lat="43.61326" lon="1.17936">
        <ele>254.4</ele>
        <time>2020-11-29T11:32:48Z</time>
      </trkpt>
      <trkpt lat="43.61328" lon="1.17939">
        <ele>254.4</ele>
        <time>2020-11-29T11:32:49Z</time>
      </trkpt>
      <trkpt lat="43.61331" lon="1.17943">
        <ele>254.4</ele>
        <time>2020-11-29T11:32:50Z</time>
      </trkpt>
      <trkpt lat="43.61333" lon="1.17947">
        <ele>254.4</ele>
        <time>2020-11-29T11:32:51Z</time>
      </trkpt>
      <trkpt lat="43.61337" lon="1.17952">
        <ele>254.5</ele>
        <time>2020-11-29T11:32:52Z</time>
      </trkpt>
      <trkpt lat="43.61339" lon="1.17955">
        <ele>254.5</ele>
        <time>2020-11-29T11:32:53Z</time>
      </trkpt>
      <trkpt lat="43.61342" lon="1.17957">
        <ele>254.6</ele>
        <time>2020-11-29T11:32:54Z</time>
      </trkpt>
      <trkpt lat="43.61346" lon="1.17957">
        <ele>254.4</ele>
        <time>2020-11-29T11:32:55Z</time>
      </trkpt>
      <trkpt lat="43.6135" lon="1.17959">
        <ele>254.5</ele>
        <time>2020-11-29T11:32:56Z</time>
      </trkpt>
      <trkpt lat="43.61351" lon="1.17959">
        <ele>254.5</ele>
        <time>2020-11-29T11:32:57Z</time>
      </trkpt>
      <trkpt lat="43.61355" lon="1.17963">
        <ele>254.5</ele>
        <time>2020-11-29T11:32:58Z</time>
      </trkpt>
      <trkpt lat="43.61357" lon="1.17965">
        <ele>254.5</ele>
        <time>2020-11-29T11:32:59Z</time>
      </trkpt>
      <trkpt lat="43.61361" lon="1.17966">
        <ele>254.5</ele>
        <time>2020-11-29T11:33:00Z</time>
      </trkpt>
      <trkpt lat="43.61364" lon="1.17967">
        <ele>254.5</ele>
        <time>2020-11-29T11:33:01Z</time>
      </trkpt>
      <trkpt lat="43.61367" lon="1.1797">
        <ele>254.5</ele>
        <time>2020-11-29T11:33:02Z</time>
      </trkpt>
      <trkpt lat="43.61371" lon="1.17974">
        <ele>254.4</ele>
        <time>2020-11-29T11:33:03Z</time>
      </trkpt>
      <trkpt lat="43.61375" lon="1.17978">
        <ele>254.3</ele>
        <time>2020-11-29T11:33:04Z</time>
      </trkpt>
      <trkpt lat="43.61379" lon="1.17983">
        <ele>254.3</ele>
        <time>2020-11-29T11:33:05Z</time>
      </trkpt>
      <trkpt lat="43.61383" lon="1.17989">
        <ele>254.3</ele>
        <time>2020-11-29T11:33:06Z</time>
      </trkpt>
      <trkpt lat="43.61388" lon="1.17993">
        <ele>254.2</ele>
        <time>2020-11-29T11:33:07Z</time>
      </trkpt>
      <trkpt lat="43.61393" lon="1.17997">
        <ele>254.1</ele>
        <time>2020-11-29T11:33:08Z</time>
      </trkpt>
      <trkpt lat="43.61399" lon="1.18001">
        <ele>253.9</ele>
        <time>2020-11-29T11:33:09Z</time>
      </trkpt>
      <trkpt lat="43.61404" lon="1.18007">
        <ele>253.9</ele>
        <time>2020-11-29T11:33:10Z</time>
      </trkpt>
      <trkpt lat="43.61407" lon="1.18012">
        <ele>253.8</ele>
        <time>2020-11-29T11:33:11Z</time>
      </trkpt>
      <trkpt lat="43.61409" lon="1.18017">
        <ele>253.7</ele>
        <time>2020-11-29T11:33:12Z</time>
      </trkpt>
      <trkpt lat="43.61411" lon="1.18019">
        <ele>253.8</ele>
        <time>2020-11-29T11:33:13Z</time>
      </trkpt>
      <trkpt lat="43.61413" lon="1.18026">
        <ele>253.8</ele>
        <time>2020-11-29T11:33:14Z</time>
      </trkpt>
      <trkpt lat="43.61415" lon="1.18034">
        <ele>253.8</ele>
        <time>2020-11-29T11:33:15Z</time>
      </trkpt>
      <trkpt lat="43.61416" lon="1.1804">
        <ele>254</ele>
        <time>2020-11-29T11:33:16Z</time>
      </trkpt>
      <trkpt lat="43.61416" lon="1.18042">
        <ele>253.9</ele>
        <time>2020-11-29T11:33:17Z</time>
      </trkpt>
      <trkpt lat="43.61418" lon="1.18046">
        <ele>253.8</ele>
        <time>2020-11-29T11:33:18Z</time>
      </trkpt>
      <trkpt lat="43.61421" lon="1.1805">
        <ele>253.8</ele>
        <time>2020-11-29T11:33:19Z</time>
      </trkpt>
      <trkpt lat="43.61424" lon="1.1805">
        <ele>253.6</ele>
        <time>2020-11-29T11:33:20Z</time>
      </trkpt>
      <trkpt lat="43.61427" lon="1.18053">
        <ele>253.5</ele>
        <time>2020-11-29T11:33:21Z</time>
      </trkpt>
      <trkpt lat="43.61431" lon="1.18055">
        <ele>253.3</ele>
        <time>2020-11-29T11:33:22Z</time>
      </trkpt>
      <trkpt lat="43.61434" lon="1.18057">
        <ele>253.3</ele>
        <time>2020-11-29T11:33:23Z</time>
      </trkpt>
      <trkpt lat="43.61435" lon="1.18057">
        <ele>253.2</ele>
        <time>2020-11-29T11:33:24Z</time>
      </trkpt>
      <trkpt lat="43.61439" lon="1.18058">
        <ele>253</ele>
        <time>2020-11-29T11:33:25Z</time>
      </trkpt>
      <trkpt lat="43.6144" lon="1.18059">
        <ele>252.8</ele>
        <time>2020-11-29T11:33:26Z</time>
      </trkpt>
      <trkpt lat="43.61443" lon="1.18059">
        <ele>252.6</ele>
        <time>2020-11-29T11:33:27Z</time>
      </trkpt>
      <trkpt lat="43.61444" lon="1.18058">
        <ele>252.5</ele>
        <time>2020-11-29T11:33:28Z</time>
      </trkpt>
      <trkpt lat="43.61446" lon="1.18058">
        <ele>252.3</ele>
        <time>2020-11-29T11:33:29Z</time>
      </trkpt>
      <trkpt lat="43.61447" lon="1.18058">
        <ele>252.2</ele>
        <time>2020-11-29T11:33:30Z</time>
      </trkpt>
      <trkpt lat="43.6145" lon="1.18058">
        <ele>252</ele>
        <time>2020-11-29T11:33:31Z</time>
      </trkpt>
      <trkpt lat="43.61451" lon="1.18059">
        <ele>251.9</ele>
        <time>2020-11-29T11:33:32Z</time>
      </trkpt>
      <trkpt lat="43.61453" lon="1.18059">
        <ele>251.7</ele>
        <time>2020-11-29T11:33:33Z</time>
      </trkpt>
      <trkpt lat="43.61454" lon="1.18057">
        <ele>251.7</ele>
        <time>2020-11-29T11:33:34Z</time>
      </trkpt>
      <trkpt lat="43.61454" lon="1.18058">
        <ele>251.6</ele>
        <time>2020-11-29T11:33:35Z</time>
      </trkpt>
      <trkpt lat="43.61455" lon="1.1806">
        <ele>251.5</ele>
        <time>2020-11-29T11:33:36Z</time>
      </trkpt>
      <trkpt lat="43.61454" lon="1.18061">
        <ele>251.6</ele>
        <time>2020-11-29T11:33:37Z</time>
      </trkpt>
      <trkpt lat="43.61455" lon="1.18061">
        <ele>251.5</ele>
        <time>2020-11-29T11:33:38Z</time>
      </trkpt>
      <trkpt lat="43.61455" lon="1.1806">
        <ele>251.2</ele>
        <time>2020-11-29T11:33:39Z</time>
      </trkpt>
      <trkpt lat="43.61455" lon="1.1806">
        <ele>251.1</ele>
        <time>2020-11-29T11:33:40Z</time>
      </trkpt>
      <trkpt lat="43.61456" lon="1.18059">
        <ele>251.1</ele>
        <time>2020-11-29T11:33:41Z</time>
      </trkpt>
      <trkpt lat="43.61457" lon="1.18058">
        <ele>251</ele>
        <time>2020-11-29T11:33:42Z</time>
      </trkpt>
      <trkpt lat="43.6146" lon="1.18059">
        <ele>250.8</ele>
        <time>2020-11-29T11:33:43Z</time>
      </trkpt>
      <trkpt lat="43.61461" lon="1.18059">
        <ele>250.6</ele>
        <time>2020-11-29T11:33:44Z</time>
      </trkpt>
      <trkpt lat="43.61463" lon="1.18058">
        <ele>250.5</ele>
        <time>2020-11-29T11:33:45Z</time>
      </trkpt>
      <trkpt lat="43.61464" lon="1.18058">
        <ele>250.5</ele>
        <time>2020-11-29T11:33:46Z</time>
      </trkpt>
      <trkpt lat="43.61465" lon="1.18058">
        <ele>250.3</ele>
        <time>2020-11-29T11:33:47Z</time>
      </trkpt>
      <trkpt lat="43.61466" lon="1.18059">
        <ele>250.2</ele>
        <time>2020-11-29T11:33:48Z</time>
      </trkpt>
      <trkpt lat="43.61467" lon="1.18059">
        <ele>250.1</ele>
        <time>2020-11-29T11:33:49Z</time>
      </trkpt>
      <trkpt lat="43.61468" lon="1.1806">
        <ele>249.9</ele>
        <time>2020-11-29T11:33:50Z</time>
      </trkpt>
      <trkpt lat="43.61469" lon="1.1806">
        <ele>249.9</ele>
        <time>2020-11-29T11:33:51Z</time>
      </trkpt>
      <trkpt lat="43.6147" lon="1.18061">
        <ele>249.9</ele>
        <time>2020-11-29T11:33:52Z</time>
      </trkpt>
      <trkpt lat="43.6147" lon="1.18061">
        <ele>249.8</ele>
        <time>2020-11-29T11:33:53Z</time>
      </trkpt>
      <trkpt lat="43.61471" lon="1.18062">
        <ele>249.6</ele>
        <time>2020-11-29T11:33:54Z</time>
      </trkpt>
      <trkpt lat="43.61472" lon="1.18063">
        <ele>249.5</ele>
        <time>2020-11-29T11:33:55Z</time>
      </trkpt>
      <trkpt lat="43.61472" lon="1.18063">
        <ele>249.5</ele>
        <time>2020-11-29T11:33:56Z</time>
      </trkpt>
      <trkpt lat="43.61473" lon="1.18063">
        <ele>249.4</ele>
        <time>2020-11-29T11:33:57Z</time>
      </trkpt>
      <trkpt lat="43.61473" lon="1.18064">
        <ele>249.4</ele>
        <time>2020-11-29T11:33:58Z</time>
      </trkpt>
      <trkpt lat="43.61472" lon="1.18064">
        <ele>249.3</ele>
        <time>2020-11-29T11:33:59Z</time>
      </trkpt>
      <trkpt lat="43.61471" lon="1.18064">
        <ele>249.2</ele>
        <time>2020-11-29T11:34:00Z</time>
      </trkpt>
      <trkpt lat="43.6147" lon="1.18063">
        <ele>249.3</ele>
        <time>2020-11-29T11:34:01Z</time>
      </trkpt>
      <trkpt lat="43.61469" lon="1.18062">
        <ele>249.2</ele>
        <time>2020-11-29T11:34:02Z</time>
      </trkpt>
      <trkpt lat="43.61468" lon="1.18061">
        <ele>249.2</ele>
        <time>2020-11-29T11:34:03Z</time>
      </trkpt>
      <trkpt lat="43.61467" lon="1.1806">
        <ele>249.2</ele>
        <time>2020-11-29T11:34:04Z</time>
      </trkpt>
      <trkpt lat="43.61466" lon="1.18059">
        <ele>249.1</ele>
        <time>2020-11-29T11:34:05Z</time>
      </trkpt>
      <trkpt lat="43.61465" lon="1.18058">
        <ele>249</ele>
        <time>2020-11-29T11:34:06Z</time>
      </trkpt>
      <trkpt lat="43.61465" lon="1.18057">
        <ele>249</ele>
        <time>2020-11-29T11:34:07Z</time>
      </trkpt>
      <trkpt lat="43.61465" lon="1.18057">
        <ele>248.9</ele>
        <time>2020-11-29T11:34:08Z</time>
      </trkpt>
      <trkpt lat="43.61465" lon="1.18058">
        <ele>248.8</ele>
        <time>2020-11-29T11:34:09Z</time>
      </trkpt>
      <trkpt lat="43.61465" lon="1.18058">
        <ele>248.8</ele>
        <time>2020-11-29T11:34:10Z</time>
      </trkpt>
      <trkpt lat="43.61466" lon="1.18058">
        <ele>248.7</ele>
        <time>2020-11-29T11:34:11Z</time>
      </trkpt>
      <trkpt lat="43.61466" lon="1.18059">
        <ele>248.6</ele>
        <time>2020-11-29T11:34:12Z</time>
      </trkpt>
      <trkpt lat="43.61466" lon="1.18059">
        <ele>248.6</ele>
        <time>2020-11-29T11:34:13Z</time>
      </trkpt>
      <trkpt lat="43.61467" lon="1.18059">
        <ele>248.5</ele>
        <time>2020-11-29T11:34:14Z</time>
      </trkpt>
      <trkpt lat="43.61467" lon="1.18059">
        <ele>248.4</ele>
        <time>2020-11-29T11:34:15Z</time>
      </trkpt>
      <trkpt lat="43.61467" lon="1.1806">
        <ele>248.2</ele>
        <time>2020-11-29T11:34:16Z</time>
      </trkpt>
      <trkpt lat="43.61468" lon="1.1806">
        <ele>248.2</ele>
        <time>2020-11-29T11:34:17Z</time>
      </trkpt>
      <trkpt lat="43.61468" lon="1.1806">
        <ele>248.2</ele>
        <time>2020-11-29T11:34:18Z</time>
      </trkpt>
      <trkpt lat="43.61468" lon="1.18061">
        <ele>248.1</ele>
        <time>2020-11-29T11:34:19Z</time>
      </trkpt>
      <trkpt lat="43.6147" lon="1.18063">
        <ele>247.9</ele>
        <time>2020-11-29T11:34:20Z</time>
      </trkpt>
      <trkpt lat="43.61472" lon="1.18067">
        <ele>247.9</ele>
        <time>2020-11-29T11:34:21Z</time>
      </trkpt>
      <trkpt lat="43.61475" lon="1.1807">
        <ele>247.8</ele>
        <time>2020-11-29T11:34:22Z</time>
      </trkpt>
      <trkpt lat="43.61476" lon="1.18071">
        <ele>247.7</ele>
        <time>2020-11-29T11:34:23Z</time>
      </trkpt>
      <trkpt lat="43.61477" lon="1.18071">
        <ele>247.7</ele>
        <time>2020-11-29T11:34:24Z</time>
      </trkpt>
      <trkpt lat="43.61479" lon="1.18071">
        <ele>247.7</ele>
        <time>2020-11-29T11:34:25Z</time>
      </trkpt>
      <trkpt lat="43.61479" lon="1.18069">
        <ele>247.7</ele>
        <time>2020-11-29T11:34:26Z</time>
      </trkpt>
      <trkpt lat="43.61481" lon="1.18069">
        <ele>247.6</ele>
        <time>2020-11-29T11:34:27Z</time>
      </trkpt>
      <trkpt lat="43.61481" lon="1.1807">
        <ele>247.6</ele>
        <time>2020-11-29T11:34:28Z</time>
      </trkpt>
      <trkpt lat="43.61481" lon="1.18069">
        <ele>247.6</ele>
        <time>2020-11-29T11:34:29Z</time>
      </trkpt>
      <trkpt lat="43.61481" lon="1.18068">
        <ele>247.6</ele>
        <time>2020-11-29T11:34:30Z</time>
      </trkpt>
      <trkpt lat="43.61482" lon="1.18067">
        <ele>247.6</ele>
        <time>2020-11-29T11:34:31Z</time>
      </trkpt>
      <trkpt lat="43.61484" lon="1.18066">
        <ele>247.6</ele>
        <time>2020-11-29T11:34:32Z</time>
      </trkpt>
      <trkpt lat="43.61485" lon="1.18066">
        <ele>247.5</ele>
        <time>2020-11-29T11:34:33Z</time>
      </trkpt>
      <trkpt lat="43.61486" lon="1.18065">
        <ele>247.5</ele>
        <time>2020-11-29T11:34:34Z</time>
      </trkpt>
      <trkpt lat="43.61487" lon="1.18064">
        <ele>247.5</ele>
        <time>2020-11-29T11:34:35Z</time>
      </trkpt>
      <trkpt lat="43.61487" lon="1.18062">
        <ele>247.5</ele>
        <time>2020-11-29T11:34:36Z</time>
      </trkpt>
      <trkpt lat="43.61488" lon="1.18062">
        <ele>247.5</ele>
        <time>2020-11-29T11:34:37Z</time>
      </trkpt>
      <trkpt lat="43.61489" lon="1.18062">
        <ele>247.5</ele>
        <time>2020-11-29T11:34:38Z</time>
      </trkpt>
      <trkpt lat="43.6149" lon="1.18062">
        <ele>247.4</ele>
        <time>2020-11-29T11:34:39Z</time>
      </trkpt>
      <trkpt lat="43.61491" lon="1.18062">
        <ele>247.4</ele>
        <time>2020-11-29T11:34:40Z</time>
      </trkpt>
      <trkpt lat="43.61492" lon="1.18062">
        <ele>247.4</ele>
        <time>2020-11-29T11:34:41Z</time>
      </trkpt>
      <trkpt lat="43.61496" lon="1.18063">
        <ele>247.3</ele>
        <time>2020-11-29T11:34:42Z</time>
      </trkpt>
      <trkpt lat="43.61497" lon="1.18062">
        <ele>247.3</ele>
        <time>2020-11-29T11:34:43Z</time>
      </trkpt>
      <trkpt lat="43.615" lon="1.18064">
        <ele>247.3</ele>
        <time>2020-11-29T11:34:44Z</time>
      </trkpt>
      <trkpt lat="43.61503" lon="1.18065">
        <ele>247.2</ele>
        <time>2020-11-29T11:34:45Z</time>
      </trkpt>
      <trkpt lat="43.61506" lon="1.18066">
        <ele>247.2</ele>
        <time>2020-11-29T11:34:46Z</time>
      </trkpt>
      <trkpt lat="43.61507" lon="1.18067">
        <ele>247.2</ele>
        <time>2020-11-29T11:34:47Z</time>
      </trkpt>
      <trkpt lat="43.6151" lon="1.18069">
        <ele>247.1</ele>
        <time>2020-11-29T11:34:48Z</time>
      </trkpt>
      <trkpt lat="43.6151" lon="1.1807">
        <ele>247.1</ele>
        <time>2020-11-29T11:34:49Z</time>
      </trkpt>
      <trkpt lat="43.61513" lon="1.18075">
        <ele>247</ele>
        <time>2020-11-29T11:34:50Z</time>
      </trkpt>
      <trkpt lat="43.61514" lon="1.18077">
        <ele>246.9</ele>
        <time>2020-11-29T11:34:51Z</time>
      </trkpt>
      <trkpt lat="43.61516" lon="1.1808">
        <ele>246.9</ele>
        <time>2020-11-29T11:34:52Z</time>
      </trkpt>
      <trkpt lat="43.61519" lon="1.18083">
        <ele>246.8</ele>
        <time>2020-11-29T11:34:53Z</time>
      </trkpt>
      <trkpt lat="43.61521" lon="1.18087">
        <ele>246.8</ele>
        <time>2020-11-29T11:34:54Z</time>
      </trkpt>
      <trkpt lat="43.61522" lon="1.18088">
        <ele>246.8</ele>
        <time>2020-11-29T11:34:55Z</time>
      </trkpt>
      <trkpt lat="43.61524" lon="1.18092">
        <ele>246.8</ele>
        <time>2020-11-29T11:34:56Z</time>
      </trkpt>
      <trkpt lat="43.61525" lon="1.18094">
        <ele>246.8</ele>
        <time>2020-11-29T11:34:57Z</time>
      </trkpt>
      <trkpt lat="43.61527" lon="1.18099">
        <ele>246.7</ele>
        <time>2020-11-29T11:34:58Z</time>
      </trkpt>
      <trkpt lat="43.61529" lon="1.18103">
        <ele>246.7</ele>
        <time>2020-11-29T11:34:59Z</time>
      </trkpt>
      <trkpt lat="43.61532" lon="1.18106">
        <ele>246.7</ele>
        <time>2020-11-29T11:35:00Z</time>
      </trkpt>
      <trkpt lat="43.61535" lon="1.1811">
        <ele>246.6</ele>
        <time>2020-11-29T11:35:01Z</time>
      </trkpt>
      <trkpt lat="43.61538" lon="1.18113">
        <ele>246.6</ele>
        <time>2020-11-29T11:35:02Z</time>
      </trkpt>
      <trkpt lat="43.61541" lon="1.18118">
        <ele>246.5</ele>
        <time>2020-11-29T11:35:03Z</time>
      </trkpt>
      <trkpt lat="43.61544" lon="1.18121">
        <ele>246.4</ele>
        <time>2020-11-29T11:35:04Z</time>
      </trkpt>
      <trkpt lat="43.61548" lon="1.18122">
        <ele>246.4</ele>
        <time>2020-11-29T11:35:05Z</time>
      </trkpt>
      <trkpt lat="43.6155" lon="1.18124">
        <ele>246.4</ele>
        <time>2020-11-29T11:35:06Z</time>
      </trkpt>
      <trkpt lat="43.61552" lon="1.18125">
        <ele>246.4</ele>
        <time>2020-11-29T11:35:07Z</time>
      </trkpt>
      <trkpt lat="43.61553" lon="1.18125">
        <ele>246.4</ele>
        <time>2020-11-29T11:35:08Z</time>
      </trkpt>
      <trkpt lat="43.61555" lon="1.18126">
        <ele>246.4</ele>
        <time>2020-11-29T11:35:09Z</time>
      </trkpt>
      <trkpt lat="43.61556" lon="1.18126">
        <ele>246.4</ele>
        <time>2020-11-29T11:35:10Z</time>
      </trkpt>
      <trkpt lat="43.61557" lon="1.18126">
        <ele>246.4</ele>
        <time>2020-11-29T11:35:11Z</time>
      </trkpt>
      <trkpt lat="43.61559" lon="1.18126">
        <ele>246.3</ele>
        <time>2020-11-29T11:35:12Z</time>
      </trkpt>
      <trkpt lat="43.6156" lon="1.18126">
        <ele>246.3</ele>
        <time>2020-11-29T11:35:13Z</time>
      </trkpt>
      <trkpt lat="43.61561" lon="1.18127">
        <ele>246.3</ele>
        <time>2020-11-29T11:35:14Z</time>
      </trkpt>
      <trkpt lat="43.61561" lon="1.18127">
        <ele>246.3</ele>
        <time>2020-11-29T11:35:15Z</time>
      </trkpt>
      <trkpt lat="43.61564" lon="1.1813">
        <ele>246.3</ele>
        <time>2020-11-29T11:35:16Z</time>
      </trkpt>
      <trkpt lat="43.61565" lon="1.18131">
        <ele>246.3</ele>
        <time>2020-11-29T11:35:17Z</time>
      </trkpt>
      <trkpt lat="43.61568" lon="1.18132">
        <ele>246.3</ele>
        <time>2020-11-29T11:35:18Z</time>
      </trkpt>
      <trkpt lat="43.61572" lon="1.18136">
        <ele>246.3</ele>
        <time>2020-11-29T11:35:19Z</time>
      </trkpt>
      <trkpt lat="43.61576" lon="1.18141">
        <ele>246.3</ele>
        <time>2020-11-29T11:35:20Z</time>
      </trkpt>
      <trkpt lat="43.61578" lon="1.18142">
        <ele>246.3</ele>
        <time>2020-11-29T11:35:21Z</time>
      </trkpt>
      <trkpt lat="43.6158" lon="1.18143">
        <ele>246.3</ele>
        <time>2020-11-29T11:35:22Z</time>
      </trkpt>
      <trkpt lat="43.61583" lon="1.18147">
        <ele>246.3</ele>
        <time>2020-11-29T11:35:23Z</time>
      </trkpt>
      <trkpt lat="43.61587" lon="1.18149">
        <ele>246.2</ele>
        <time>2020-11-29T11:35:24Z</time>
      </trkpt>
      <trkpt lat="43.61588" lon="1.1815">
        <ele>246.2</ele>
        <time>2020-11-29T11:35:25Z</time>
      </trkpt>
      <trkpt lat="43.61591" lon="1.18151">
        <ele>246.2</ele>
        <time>2020-11-29T11:35:26Z</time>
      </trkpt>
      <trkpt lat="43.61596" lon="1.18156">
        <ele>246.2</ele>
        <time>2020-11-29T11:35:27Z</time>
      </trkpt>
      <trkpt lat="43.61599" lon="1.1816">
        <ele>246.2</ele>
        <time>2020-11-29T11:35:28Z</time>
      </trkpt>
      <trkpt lat="43.61602" lon="1.18165">
        <ele>246.2</ele>
        <time>2020-11-29T11:35:29Z</time>
      </trkpt>
      <trkpt lat="43.61604" lon="1.18169">
        <ele>246.2</ele>
        <time>2020-11-29T11:35:30Z</time>
      </trkpt>
      <trkpt lat="43.61608" lon="1.18172">
        <ele>246.1</ele>
        <time>2020-11-29T11:35:31Z</time>
      </trkpt>
      <trkpt lat="43.61612" lon="1.18174">
        <ele>246.1</ele>
        <time>2020-11-29T11:35:32Z</time>
      </trkpt>
      <trkpt lat="43.61617" lon="1.18177">
        <ele>246.1</ele>
        <time>2020-11-29T11:35:33Z</time>
      </trkpt>
      <trkpt lat="43.6162" lon="1.18183">
        <ele>246</ele>
        <time>2020-11-29T11:35:34Z</time>
      </trkpt>
      <trkpt lat="43.6162" lon="1.18188">
        <ele>246</ele>
        <time>2020-11-29T11:35:35Z</time>
      </trkpt>
      <trkpt lat="43.61621" lon="1.18194">
        <ele>246</ele>
        <time>2020-11-29T11:35:36Z</time>
      </trkpt>
      <trkpt lat="43.61621" lon="1.18198">
        <ele>246</ele>
        <time>2020-11-29T11:35:37Z</time>
      </trkpt>
      <trkpt lat="43.61623" lon="1.18202">
        <ele>246</ele>
        <time>2020-11-29T11:35:38Z</time>
      </trkpt>
      <trkpt lat="43.61626" lon="1.18205">
        <ele>246</ele>
        <time>2020-11-29T11:35:39Z</time>
      </trkpt>
      <trkpt lat="43.6163" lon="1.18208">
        <ele>246.1</ele>
        <time>2020-11-29T11:35:40Z</time>
      </trkpt>
      <trkpt lat="43.61633" lon="1.18212">
        <ele>246.1</ele>
        <time>2020-11-29T11:35:41Z</time>
      </trkpt>
      <trkpt lat="43.61636" lon="1.18214">
        <ele>246.1</ele>
        <time>2020-11-29T11:35:42Z</time>
      </trkpt>
      <trkpt lat="43.61639" lon="1.18217">
        <ele>246.1</ele>
        <time>2020-11-29T11:35:43Z</time>
      </trkpt>
      <trkpt lat="43.61641" lon="1.18219">
        <ele>246.2</ele>
        <time>2020-11-29T11:35:44Z</time>
      </trkpt>
      <trkpt lat="43.61644" lon="1.18222">
        <ele>246.2</ele>
        <time>2020-11-29T11:35:45Z</time>
      </trkpt>
      <trkpt lat="43.61647" lon="1.18226">
        <ele>246.2</ele>
        <time>2020-11-29T11:35:46Z</time>
      </trkpt>
      <trkpt lat="43.61648" lon="1.18231">
        <ele>246.2</ele>
        <time>2020-11-29T11:35:47Z</time>
      </trkpt>
      <trkpt lat="43.61648" lon="1.18236">
        <ele>246.2</ele>
        <time>2020-11-29T11:35:48Z</time>
      </trkpt>
      <trkpt lat="43.61649" lon="1.18237">
        <ele>246.1</ele>
        <time>2020-11-29T11:35:49Z</time>
      </trkpt>
      <trkpt lat="43.6165" lon="1.18241">
        <ele>246.1</ele>
        <time>2020-11-29T11:35:50Z</time>
      </trkpt>
      <trkpt lat="43.61653" lon="1.18243">
        <ele>246</ele>
        <time>2020-11-29T11:35:51Z</time>
      </trkpt>
      <trkpt lat="43.61654" lon="1.18244">
        <ele>246</ele>
        <time>2020-11-29T11:35:52Z</time>
      </trkpt>
      <trkpt lat="43.61654" lon="1.18246">
        <ele>246</ele>
        <time>2020-11-29T11:35:53Z</time>
      </trkpt>
      <trkpt lat="43.61655" lon="1.18247">
        <ele>246</ele>
        <time>2020-11-29T11:35:54Z</time>
      </trkpt>
      <trkpt lat="43.61657" lon="1.18251">
        <ele>246</ele>
        <time>2020-11-29T11:35:55Z</time>
      </trkpt>
      <trkpt lat="43.61658" lon="1.18252">
        <ele>245.9</ele>
        <time>2020-11-29T11:35:56Z</time>
      </trkpt>
      <trkpt lat="43.61661" lon="1.18256">
        <ele>245.9</ele>
        <time>2020-11-29T11:35:57Z</time>
      </trkpt>
      <trkpt lat="43.61662" lon="1.18257">
        <ele>245.9</ele>
        <time>2020-11-29T11:35:58Z</time>
      </trkpt>
      <trkpt lat="43.61665" lon="1.18261">
        <ele>245.9</ele>
        <time>2020-11-29T11:35:59Z</time>
      </trkpt>
      <trkpt lat="43.61668" lon="1.18266">
        <ele>245.9</ele>
        <time>2020-11-29T11:36:00Z</time>
      </trkpt>
      <trkpt lat="43.61671" lon="1.18271">
        <ele>246</ele>
        <time>2020-11-29T11:36:01Z</time>
      </trkpt>
      <trkpt lat="43.61673" lon="1.18276">
        <ele>246</ele>
        <time>2020-11-29T11:36:02Z</time>
      </trkpt>
      <trkpt lat="43.61675" lon="1.18281">
        <ele>246.1</ele>
        <time>2020-11-29T11:36:03Z</time>
      </trkpt>
      <trkpt lat="43.61677" lon="1.18286">
        <ele>246.9</ele>
        <time>2020-11-29T11:36:04Z</time>
      </trkpt>
      <trkpt lat="43.6168" lon="1.18291">
        <ele>247.1</ele>
        <time>2020-11-29T11:36:05Z</time>
      </trkpt>
      <trkpt lat="43.61682" lon="1.18297">
        <ele>247.2</ele>
        <time>2020-11-29T11:36:06Z</time>
      </trkpt>
      <trkpt lat="43.61685" lon="1.18301">
        <ele>247.3</ele>
        <time>2020-11-29T11:36:07Z</time>
      </trkpt>
      <trkpt lat="43.61687" lon="1.18306">
        <ele>247.3</ele>
        <time>2020-11-29T11:36:08Z</time>
      </trkpt>
      <trkpt lat="43.6169" lon="1.18311">
        <ele>247.2</ele>
        <time>2020-11-29T11:36:09Z</time>
      </trkpt>
      <trkpt lat="43.61694" lon="1.18317">
        <ele>247</ele>
        <time>2020-11-29T11:36:10Z</time>
      </trkpt>
      <trkpt lat="43.61698" lon="1.18323">
        <ele>246.6</ele>
        <time>2020-11-29T11:36:11Z</time>
      </trkpt>
      <trkpt lat="43.61703" lon="1.18329">
        <ele>246.2</ele>
        <time>2020-11-29T11:36:12Z</time>
      </trkpt>
      <trkpt lat="43.61706" lon="1.18334">
        <ele>245.9</ele>
        <time>2020-11-29T11:36:13Z</time>
      </trkpt>
      <trkpt lat="43.61709" lon="1.18339">
        <ele>245.6</ele>
        <time>2020-11-29T11:36:14Z</time>
      </trkpt>
      <trkpt lat="43.61711" lon="1.18343">
        <ele>245.4</ele>
        <time>2020-11-29T11:36:15Z</time>
      </trkpt>
      <trkpt lat="43.61713" lon="1.18348">
        <ele>245.2</ele>
        <time>2020-11-29T11:36:16Z</time>
      </trkpt>
      <trkpt lat="43.61715" lon="1.18352">
        <ele>245.1</ele>
        <time>2020-11-29T11:36:17Z</time>
      </trkpt>
      <trkpt lat="43.61719" lon="1.18356">
        <ele>245</ele>
        <time>2020-11-29T11:36:18Z</time>
      </trkpt>
      <trkpt lat="43.61725" lon="1.1836">
        <ele>244.8</ele>
        <time>2020-11-29T11:36:19Z</time>
      </trkpt>
      <trkpt lat="43.61729" lon="1.18363">
        <ele>244.8</ele>
        <time>2020-11-29T11:36:20Z</time>
      </trkpt>
      <trkpt lat="43.61733" lon="1.18364">
        <ele>244.8</ele>
        <time>2020-11-29T11:36:21Z</time>
      </trkpt>
      <trkpt lat="43.61736" lon="1.18366">
        <ele>244.8</ele>
        <time>2020-11-29T11:36:22Z</time>
      </trkpt>
      <trkpt lat="43.61739" lon="1.18369">
        <ele>244.9</ele>
        <time>2020-11-29T11:36:23Z</time>
      </trkpt>
      <trkpt lat="43.61742" lon="1.18373">
        <ele>245</ele>
        <time>2020-11-29T11:36:24Z</time>
      </trkpt>
      <trkpt lat="43.61743" lon="1.18375">
        <ele>245</ele>
        <time>2020-11-29T11:36:25Z</time>
      </trkpt>
      <trkpt lat="43.61745" lon="1.18378">
        <ele>245.1</ele>
        <time>2020-11-29T11:36:26Z</time>
      </trkpt>
      <trkpt lat="43.61748" lon="1.18382">
        <ele>245.2</ele>
        <time>2020-11-29T11:36:27Z</time>
      </trkpt>
      <trkpt lat="43.6175" lon="1.18386">
        <ele>245.3</ele>
        <time>2020-11-29T11:36:28Z</time>
      </trkpt>
      <trkpt lat="43.61753" lon="1.1839">
        <ele>245.4</ele>
        <time>2020-11-29T11:36:29Z</time>
      </trkpt>
      <trkpt lat="43.61757" lon="1.18397">
        <ele>245.4</ele>
        <time>2020-11-29T11:36:30Z</time>
      </trkpt>
      <trkpt lat="43.61761" lon="1.18402">
        <ele>245.3</ele>
        <time>2020-11-29T11:36:31Z</time>
      </trkpt>
      <trkpt lat="43.61765" lon="1.18408">
        <ele>245</ele>
        <time>2020-11-29T11:36:32Z</time>
      </trkpt>
      <trkpt lat="43.61769" lon="1.18412">
        <ele>244.7</ele>
        <time>2020-11-29T11:36:33Z</time>
      </trkpt>
      <trkpt lat="43.61773" lon="1.18416">
        <ele>244.3</ele>
        <time>2020-11-29T11:36:34Z</time>
      </trkpt>
      <trkpt lat="43.61776" lon="1.18419">
        <ele>244.1</ele>
        <time>2020-11-29T11:36:35Z</time>
      </trkpt>
      <trkpt lat="43.61777" lon="1.18422">
        <ele>243.9</ele>
        <time>2020-11-29T11:36:36Z</time>
      </trkpt>
      <trkpt lat="43.61782" lon="1.18428">
        <ele>243.5</ele>
        <time>2020-11-29T11:36:37Z</time>
      </trkpt>
      <trkpt lat="43.61783" lon="1.18433">
        <ele>243.3</ele>
        <time>2020-11-29T11:36:38Z</time>
      </trkpt>
      <trkpt lat="43.61782" lon="1.18436">
        <ele>243.2</ele>
        <time>2020-11-29T11:36:39Z</time>
      </trkpt>
      <trkpt lat="43.61784" lon="1.1844">
        <ele>243.1</ele>
        <time>2020-11-29T11:36:40Z</time>
      </trkpt>
      <trkpt lat="43.61786" lon="1.18446">
        <ele>242.9</ele>
        <time>2020-11-29T11:36:41Z</time>
      </trkpt>
      <trkpt lat="43.61788" lon="1.18451">
        <ele>242.8</ele>
        <time>2020-11-29T11:36:42Z</time>
      </trkpt>
      <trkpt lat="43.6179" lon="1.18458">
        <ele>242.6</ele>
        <time>2020-11-29T11:36:43Z</time>
      </trkpt>
      <trkpt lat="43.61791" lon="1.18462">
        <ele>242.6</ele>
        <time>2020-11-29T11:36:44Z</time>
      </trkpt>
      <trkpt lat="43.61793" lon="1.18467">
        <ele>242.5</ele>
        <time>2020-11-29T11:36:45Z</time>
      </trkpt>
      <trkpt lat="43.61796" lon="1.18472">
        <ele>242.5</ele>
        <time>2020-11-29T11:36:46Z</time>
      </trkpt>
      <trkpt lat="43.61799" lon="1.18477">
        <ele>242.4</ele>
        <time>2020-11-29T11:36:47Z</time>
      </trkpt>
      <trkpt lat="43.61801" lon="1.18483">
        <ele>242.4</ele>
        <time>2020-11-29T11:36:48Z</time>
      </trkpt>
      <trkpt lat="43.61803" lon="1.18486">
        <ele>242.4</ele>
        <time>2020-11-29T11:36:49Z</time>
      </trkpt>
      <trkpt lat="43.61808" lon="1.18493">
        <ele>242.5</ele>
        <time>2020-11-29T11:36:50Z</time>
      </trkpt>
      <trkpt lat="43.61811" lon="1.18498">
        <ele>242.5</ele>
        <time>2020-11-29T11:36:51Z</time>
      </trkpt>
      <trkpt lat="43.61814" lon="1.18503">
        <ele>242.6</ele>
        <time>2020-11-29T11:36:52Z</time>
      </trkpt>
      <trkpt lat="43.61816" lon="1.18509">
        <ele>242.6</ele>
        <time>2020-11-29T11:36:53Z</time>
      </trkpt>
      <trkpt lat="43.61817" lon="1.18514">
        <ele>242.7</ele>
        <time>2020-11-29T11:36:54Z</time>
      </trkpt>
      <trkpt lat="43.61827" lon="1.18536">
        <ele>242.5</ele>
        <time>2020-11-29T11:36:55Z</time>
      </trkpt>
      <trkpt lat="43.61829" lon="1.18539">
        <ele>242.4</ele>
        <time>2020-11-29T11:36:56Z</time>
      </trkpt>
      <trkpt lat="43.61834" lon="1.18549">
        <ele>242.1</ele>
        <time>2020-11-29T11:36:57Z</time>
      </trkpt>
      <trkpt lat="43.61837" lon="1.18566">
        <ele>241.6</ele>
        <time>2020-11-29T11:36:58Z</time>
      </trkpt>
      <trkpt lat="43.6184" lon="1.18576">
        <ele>241.4</ele>
        <time>2020-11-29T11:36:59Z</time>
      </trkpt>
      <trkpt lat="43.61843" lon="1.18587">
        <ele>241.1</ele>
        <time>2020-11-29T11:37:00Z</time>
      </trkpt>
      <trkpt lat="43.61845" lon="1.18596">
        <ele>240.9</ele>
        <time>2020-11-29T11:37:01Z</time>
      </trkpt>
      <trkpt lat="43.61847" lon="1.18604">
        <ele>240.7</ele>
        <time>2020-11-29T11:37:02Z</time>
      </trkpt>
      <trkpt lat="43.6185" lon="1.18611">
        <ele>240.6</ele>
        <time>2020-11-29T11:37:03Z</time>
      </trkpt>
      <trkpt lat="43.61853" lon="1.18618">
        <ele>240.4</ele>
        <time>2020-11-29T11:37:04Z</time>
      </trkpt>
      <trkpt lat="43.61856" lon="1.18624">
        <ele>240.3</ele>
        <time>2020-11-29T11:37:05Z</time>
      </trkpt>
      <trkpt lat="43.61858" lon="1.18629">
        <ele>240.2</ele>
        <time>2020-11-29T11:37:06Z</time>
      </trkpt>
      <trkpt lat="43.61862" lon="1.18638">
        <ele>239.9</ele>
        <time>2020-11-29T11:37:07Z</time>
      </trkpt>
      <trkpt lat="43.61865" lon="1.18645">
        <ele>239.7</ele>
        <time>2020-11-29T11:37:08Z</time>
      </trkpt>
      <trkpt lat="43.6187" lon="1.18653">
        <ele>239.5</ele>
        <time>2020-11-29T11:37:09Z</time>
      </trkpt>
      <trkpt lat="43.61872" lon="1.18661">
        <ele>239.3</ele>
        <time>2020-11-29T11:37:10Z</time>
      </trkpt>
      <trkpt lat="43.61875" lon="1.18668">
        <ele>239.1</ele>
        <time>2020-11-29T11:37:11Z</time>
      </trkpt>
      <trkpt lat="43.61878" lon="1.18677">
        <ele>238.9</ele>
        <time>2020-11-29T11:37:12Z</time>
      </trkpt>
      <trkpt lat="43.61879" lon="1.18684">
        <ele>238.8</ele>
        <time>2020-11-29T11:37:13Z</time>
      </trkpt>
      <trkpt lat="43.6188" lon="1.1869">
        <ele>238.7</ele>
        <time>2020-11-29T11:37:14Z</time>
      </trkpt>
      <trkpt lat="43.61878" lon="1.18695">
        <ele>238</ele>
        <time>2020-11-29T11:37:15Z</time>
      </trkpt>
      <trkpt lat="43.61877" lon="1.18699">
        <ele>238</ele>
        <time>2020-11-29T11:37:16Z</time>
      </trkpt>
      <trkpt lat="43.61877" lon="1.18702">
        <ele>238</ele>
        <time>2020-11-29T11:37:17Z</time>
      </trkpt>
      <trkpt lat="43.61877" lon="1.18706">
        <ele>238</ele>
        <time>2020-11-29T11:37:18Z</time>
      </trkpt>
      <trkpt lat="43.61877" lon="1.18712">
        <ele>238.1</ele>
        <time>2020-11-29T11:37:19Z</time>
      </trkpt>
      <trkpt lat="43.61876" lon="1.18717">
        <ele>238.3</ele>
        <time>2020-11-29T11:37:20Z</time>
      </trkpt>
      <trkpt lat="43.61876" lon="1.18721">
        <ele>238.4</ele>
        <time>2020-11-29T11:37:21Z</time>
      </trkpt>
      <trkpt lat="43.61875" lon="1.18727">
        <ele>238.6</ele>
        <time>2020-11-29T11:37:22Z</time>
      </trkpt>
      <trkpt lat="43.61875" lon="1.18731">
        <ele>238.7</ele>
        <time>2020-11-29T11:37:23Z</time>
      </trkpt>
      <trkpt lat="43.61874" lon="1.18737">
        <ele>238.9</ele>
        <time>2020-11-29T11:37:24Z</time>
      </trkpt>
      <trkpt lat="43.61873" lon="1.18743">
        <ele>239.2</ele>
        <time>2020-11-29T11:37:25Z</time>
      </trkpt>
      <trkpt lat="43.61872" lon="1.18749">
        <ele>239.4</ele>
        <time>2020-11-29T11:37:26Z</time>
      </trkpt>
      <trkpt lat="43.61871" lon="1.18754">
        <ele>239.6</ele>
        <time>2020-11-29T11:37:27Z</time>
      </trkpt>
      <trkpt lat="43.61869" lon="1.18759">
        <ele>239.8</ele>
        <time>2020-11-29T11:37:28Z</time>
      </trkpt>
      <trkpt lat="43.61867" lon="1.18763">
        <ele>240</ele>
        <time>2020-11-29T11:37:29Z</time>
      </trkpt>
      <trkpt lat="43.61866" lon="1.18768">
        <ele>240.2</ele>
        <time>2020-11-29T11:37:30Z</time>
      </trkpt>
      <trkpt lat="43.61865" lon="1.18773">
        <ele>240.3</ele>
        <time>2020-11-29T11:37:31Z</time>
      </trkpt>
      <trkpt lat="43.61864" lon="1.18778">
        <ele>240.5</ele>
        <time>2020-11-29T11:37:32Z</time>
      </trkpt>
      <trkpt lat="43.61862" lon="1.18783">
        <ele>240.6</ele>
        <time>2020-11-29T11:37:33Z</time>
      </trkpt>
      <trkpt lat="43.61861" lon="1.18787">
        <ele>240.7</ele>
        <time>2020-11-29T11:37:34Z</time>
      </trkpt>
      <trkpt lat="43.61859" lon="1.18791">
        <ele>240.7</ele>
        <time>2020-11-29T11:37:35Z</time>
      </trkpt>
      <trkpt lat="43.61857" lon="1.18795">
        <ele>240.8</ele>
        <time>2020-11-29T11:37:36Z</time>
      </trkpt>
      <trkpt lat="43.61855" lon="1.18799">
        <ele>240.8</ele>
        <time>2020-11-29T11:37:37Z</time>
      </trkpt>
      <trkpt lat="43.61853" lon="1.18802">
        <ele>240.8</ele>
        <time>2020-11-29T11:37:38Z</time>
      </trkpt>
      <trkpt lat="43.61851" lon="1.18808">
        <ele>240.8</ele>
        <time>2020-11-29T11:37:39Z</time>
      </trkpt>
      <trkpt lat="43.6185" lon="1.18814">
        <ele>240.7</ele>
        <time>2020-11-29T11:37:40Z</time>
      </trkpt>
      <trkpt lat="43.61849" lon="1.1882">
        <ele>240.6</ele>
        <time>2020-11-29T11:37:41Z</time>
      </trkpt>
      <trkpt lat="43.61846" lon="1.18825">
        <ele>240.5</ele>
        <time>2020-11-29T11:37:42Z</time>
      </trkpt>
      <trkpt lat="43.61845" lon="1.1883">
        <ele>240.5</ele>
        <time>2020-11-29T11:37:43Z</time>
      </trkpt>
      <trkpt lat="43.61843" lon="1.18834">
        <ele>240.4</ele>
        <time>2020-11-29T11:37:44Z</time>
      </trkpt>
      <trkpt lat="43.61841" lon="1.1884">
        <ele>240.3</ele>
        <time>2020-11-29T11:37:45Z</time>
      </trkpt>
      <trkpt lat="43.6184" lon="1.18845">
        <ele>240.3</ele>
        <time>2020-11-29T11:37:46Z</time>
      </trkpt>
      <trkpt lat="43.61839" lon="1.18851">
        <ele>240.2</ele>
        <time>2020-11-29T11:37:47Z</time>
      </trkpt>
      <trkpt lat="43.61839" lon="1.18858">
        <ele>240.1</ele>
        <time>2020-11-29T11:37:48Z</time>
      </trkpt>
      <trkpt lat="43.61839" lon="1.18865">
        <ele>239.9</ele>
        <time>2020-11-29T11:37:49Z</time>
      </trkpt>
      <trkpt lat="43.6184" lon="1.18872">
        <ele>239.8</ele>
        <time>2020-11-29T11:37:50Z</time>
      </trkpt>
      <trkpt lat="43.61841" lon="1.18879">
        <ele>239.6</ele>
        <time>2020-11-29T11:37:51Z</time>
      </trkpt>
      <trkpt lat="43.61841" lon="1.18886">
        <ele>239.5</ele>
        <time>2020-11-29T11:37:52Z</time>
      </trkpt>
      <trkpt lat="43.61841" lon="1.18892">
        <ele>239.3</ele>
        <time>2020-11-29T11:37:53Z</time>
      </trkpt>
      <trkpt lat="43.6184" lon="1.18899">
        <ele>239.2</ele>
        <time>2020-11-29T11:37:54Z</time>
      </trkpt>
      <trkpt lat="43.61838" lon="1.18903">
        <ele>239.1</ele>
        <time>2020-11-29T11:37:55Z</time>
      </trkpt>
      <trkpt lat="43.61836" lon="1.18907">
        <ele>239</ele>
        <time>2020-11-29T11:37:56Z</time>
      </trkpt>
      <trkpt lat="43.61834" lon="1.18911">
        <ele>238.9</ele>
        <time>2020-11-29T11:37:57Z</time>
      </trkpt>
      <trkpt lat="43.61831" lon="1.18915">
        <ele>238.9</ele>
        <time>2020-11-29T11:37:58Z</time>
      </trkpt>
      <trkpt lat="43.61829" lon="1.1892">
        <ele>238.8</ele>
        <time>2020-11-29T11:37:59Z</time>
      </trkpt>
      <trkpt lat="43.61827" lon="1.18925">
        <ele>238.8</ele>
        <time>2020-11-29T11:38:00Z</time>
      </trkpt>
      <trkpt lat="43.61825" lon="1.1893">
        <ele>238.8</ele>
        <time>2020-11-29T11:38:01Z</time>
      </trkpt>
      <trkpt lat="43.61824" lon="1.18933">
        <ele>238.8</ele>
        <time>2020-11-29T11:38:02Z</time>
      </trkpt>
      <trkpt lat="43.61823" lon="1.18934">
        <ele>238.8</ele>
        <time>2020-11-29T11:38:03Z</time>
      </trkpt>
      <trkpt lat="43.61823" lon="1.18936">
        <ele>238.8</ele>
        <time>2020-11-29T11:38:04Z</time>
      </trkpt>
      <trkpt lat="43.61824" lon="1.18936">
        <ele>238.8</ele>
        <time>2020-11-29T11:38:05Z</time>
      </trkpt>
      <trkpt lat="43.61824" lon="1.18936">
        <ele>238.8</ele>
        <time>2020-11-29T11:38:06Z</time>
      </trkpt>
      <trkpt lat="43.61824" lon="1.18936">
        <ele>238.8</ele>
        <time>2020-11-29T11:38:07Z</time>
      </trkpt>
      <trkpt lat="43.61824" lon="1.18936">
        <ele>238.8</ele>
        <time>2020-11-29T11:38:08Z</time>
      </trkpt>
      <trkpt lat="43.61824" lon="1.18937">
        <ele>238.8</ele>
        <time>2020-11-29T11:38:09Z</time>
      </trkpt>
      <trkpt lat="43.61824" lon="1.18939">
        <ele>238.8</ele>
        <time>2020-11-29T11:38:10Z</time>
      </trkpt>
      <trkpt lat="43.61824" lon="1.1894">
        <ele>238.9</ele>
        <time>2020-11-29T11:38:11Z</time>
      </trkpt>
      <trkpt lat="43.61824" lon="1.18941">
        <ele>238.9</ele>
        <time>2020-11-29T11:38:12Z</time>
      </trkpt>
      <trkpt lat="43.61825" lon="1.18942">
        <ele>238.9</ele>
        <time>2020-11-29T11:38:13Z</time>
      </trkpt>
      <trkpt lat="43.61826" lon="1.18942">
        <ele>239</ele>
        <time>2020-11-29T11:38:14Z</time>
      </trkpt>
      <trkpt lat="43.61826" lon="1.18942">
        <ele>239</ele>
        <time>2020-11-29T11:38:15Z</time>
      </trkpt>
      <trkpt lat="43.61826" lon="1.18941">
        <ele>239</ele>
        <time>2020-11-29T11:38:16Z</time>
      </trkpt>
      <trkpt lat="43.61825" lon="1.18941">
        <ele>239</ele>
        <time>2020-11-29T11:38:17Z</time>
      </trkpt>
      <trkpt lat="43.61825" lon="1.1894">
        <ele>239.1</ele>
        <time>2020-11-29T11:38:18Z</time>
      </trkpt>
      <trkpt lat="43.61825" lon="1.1894">
        <ele>239.1</ele>
        <time>2020-11-29T11:38:19Z</time>
      </trkpt>
      <trkpt lat="43.61825" lon="1.1894">
        <ele>239.1</ele>
        <time>2020-11-29T11:38:20Z</time>
      </trkpt>
      <trkpt lat="43.61825" lon="1.1894">
        <ele>239.1</ele>
        <time>2020-11-29T11:38:21Z</time>
      </trkpt>
      <trkpt lat="43.61825" lon="1.18942">
        <ele>239.2</ele>
        <time>2020-11-29T11:38:22Z</time>
      </trkpt>
      <trkpt lat="43.61826" lon="1.18943">
        <ele>239.2</ele>
        <time>2020-11-29T11:38:23Z</time>
      </trkpt>
      <trkpt lat="43.61826" lon="1.18942">
        <ele>239.2</ele>
        <time>2020-11-29T11:38:24Z</time>
      </trkpt>
      <trkpt lat="43.61826" lon="1.18942">
        <ele>239.3</ele>
        <time>2020-11-29T11:38:25Z</time>
      </trkpt>
      <trkpt lat="43.61827" lon="1.18942">
        <ele>239.3</ele>
        <time>2020-11-29T11:38:26Z</time>
      </trkpt>
      <trkpt lat="43.61826" lon="1.18942">
        <ele>239.3</ele>
        <time>2020-11-29T11:38:27Z</time>
      </trkpt>
      <trkpt lat="43.61827" lon="1.18943">
        <ele>239.3</ele>
        <time>2020-11-29T11:38:28Z</time>
      </trkpt>
      <trkpt lat="43.61827" lon="1.18943">
        <ele>239.4</ele>
        <time>2020-11-29T11:38:29Z</time>
      </trkpt>
      <trkpt lat="43.61828" lon="1.18943">
        <ele>239.4</ele>
        <time>2020-11-29T11:38:30Z</time>
      </trkpt>
      <trkpt lat="43.61829" lon="1.18944">
        <ele>239.5</ele>
        <time>2020-11-29T11:38:31Z</time>
      </trkpt>
      <trkpt lat="43.61829" lon="1.18945">
        <ele>239.5</ele>
        <time>2020-11-29T11:38:32Z</time>
      </trkpt>
      <trkpt lat="43.61828" lon="1.18943">
        <ele>239.6</ele>
        <time>2020-11-29T11:38:33Z</time>
      </trkpt>
      <trkpt lat="43.61828" lon="1.18944">
        <ele>239.6</ele>
        <time>2020-11-29T11:38:34Z</time>
      </trkpt>
      <trkpt lat="43.61828" lon="1.18943">
        <ele>239.7</ele>
        <time>2020-11-29T11:38:35Z</time>
      </trkpt>
      <trkpt lat="43.61827" lon="1.18943">
        <ele>239.7</ele>
        <time>2020-11-29T11:38:36Z</time>
      </trkpt>
      <trkpt lat="43.61827" lon="1.18941">
        <ele>239.7</ele>
        <time>2020-11-29T11:38:37Z</time>
      </trkpt>
      <trkpt lat="43.61828" lon="1.18941">
        <ele>239.8</ele>
        <time>2020-11-29T11:38:38Z</time>
      </trkpt>
      <trkpt lat="43.61828" lon="1.1894">
        <ele>239.8</ele>
        <time>2020-11-29T11:38:39Z</time>
      </trkpt>
      <trkpt lat="43.61828" lon="1.1894">
        <ele>239.8</ele>
        <time>2020-11-29T11:38:40Z</time>
      </trkpt>
      <trkpt lat="43.61828" lon="1.18939">
        <ele>239.9</ele>
        <time>2020-11-29T11:38:41Z</time>
      </trkpt>
      <trkpt lat="43.61827" lon="1.18938">
        <ele>240</ele>
        <time>2020-11-29T11:38:42Z</time>
      </trkpt>
      <trkpt lat="43.61827" lon="1.18936">
        <ele>240</ele>
        <time>2020-11-29T11:38:43Z</time>
      </trkpt>
      <trkpt lat="43.61828" lon="1.18937">
        <ele>240.1</ele>
        <time>2020-11-29T11:38:44Z</time>
      </trkpt>
      <trkpt lat="43.61827" lon="1.18937">
        <ele>240.1</ele>
        <time>2020-11-29T11:38:45Z</time>
      </trkpt>
      <trkpt lat="43.61828" lon="1.18939">
        <ele>240.2</ele>
        <time>2020-11-29T11:38:46Z</time>
      </trkpt>
      <trkpt lat="43.61829" lon="1.18939">
        <ele>240.2</ele>
        <time>2020-11-29T11:38:47Z</time>
      </trkpt>
      <trkpt lat="43.61829" lon="1.18938">
        <ele>240.2</ele>
        <time>2020-11-29T11:38:48Z</time>
      </trkpt>
      <trkpt lat="43.61829" lon="1.18938">
        <ele>240.2</ele>
        <time>2020-11-29T11:38:49Z</time>
      </trkpt>
      <trkpt lat="43.61829" lon="1.18938">
        <ele>240.3</ele>
        <time>2020-11-29T11:38:50Z</time>
      </trkpt>
      <trkpt lat="43.61828" lon="1.18939">
        <ele>240.3</ele>
        <time>2020-11-29T11:38:51Z</time>
      </trkpt>
      <trkpt lat="43.61827" lon="1.18939">
        <ele>240.4</ele>
        <time>2020-11-29T11:38:52Z</time>
      </trkpt>
      <trkpt lat="43.61827" lon="1.18941">
        <ele>240.5</ele>
        <time>2020-11-29T11:38:53Z</time>
      </trkpt>
      <trkpt lat="43.61827" lon="1.18941">
        <ele>240.5</ele>
        <time>2020-11-29T11:38:54Z</time>
      </trkpt>
      <trkpt lat="43.61826" lon="1.18941">
        <ele>240.5</ele>
        <time>2020-11-29T11:38:55Z</time>
      </trkpt>
      <trkpt lat="43.61826" lon="1.18941">
        <ele>240.5</ele>
        <time>2020-11-29T11:38:56Z</time>
      </trkpt>
      <trkpt lat="43.61826" lon="1.18941">
        <ele>240.5</ele>
        <time>2020-11-29T11:38:57Z</time>
      </trkpt>
      <trkpt lat="43.61826" lon="1.18941">
        <ele>240.5</ele>
        <time>2020-11-29T11:38:58Z</time>
      </trkpt>
      <trkpt lat="43.61826" lon="1.18941">
        <ele>240.5</ele>
        <time>2020-11-29T11:38:59Z</time>
      </trkpt>
      <trkpt lat="43.61826" lon="1.18941">
        <ele>240.5</ele>
        <time>2020-11-29T11:39:00Z</time>
      </trkpt>
      <trkpt lat="43.61826" lon="1.18941">
        <ele>240.5</ele>
        <time>2020-11-29T11:39:01Z</time>
      </trkpt>
      <trkpt lat="43.61826" lon="1.18941">
        <ele>240.5</ele>
        <time>2020-11-29T11:39:02Z</time>
      </trkpt>
      <trkpt lat="43.61826" lon="1.18941">
        <ele>240.5</ele>
        <time>2020-11-29T11:39:03Z</time>
      </trkpt>
      <trkpt lat="43.61826" lon="1.18941">
        <ele>240.6</ele>
        <time>2020-11-29T11:39:04Z</time>
      </trkpt>
      <trkpt lat="43.61826" lon="1.18941">
        <ele>240.6</ele>
        <time>2020-11-29T11:39:05Z</time>
      </trkpt>
      <trkpt lat="43.61826" lon="1.18941">
        <ele>240.6</ele>
        <time>2020-11-29T11:39:06Z</time>
      </trkpt>
      <trkpt lat="43.61826" lon="1.18941">
        <ele>240.6</ele>
        <time>2020-11-29T11:39:07Z</time>
      </trkpt>
      <trkpt lat="43.61826" lon="1.18941">
        <ele>240.6</ele>
        <time>2020-11-29T11:39:08Z</time>
      </trkpt>
      <trkpt lat="43.61826" lon="1.18941">
        <ele>240.6</ele>
        <time>2020-11-29T11:39:09Z</time>
      </trkpt>
      <trkpt lat="43.61826" lon="1.18941">
        <ele>240.6</ele>
        <time>2020-11-29T11:39:10Z</time>
      </trkpt>
      <trkpt lat="43.61826" lon="1.18941">
        <ele>240.6</ele>
        <time>2020-11-29T11:39:11Z</time>
      </trkpt>
      <trkpt lat="43.61826" lon="1.18941">
        <ele>240.6</ele>
        <time>2020-11-29T11:39:12Z</time>
      </trkpt>
      <trkpt lat="43.61826" lon="1.18941">
        <ele>240.6</ele>
        <time>2020-11-29T11:39:13Z</time>
      </trkpt>
      <trkpt lat="43.61826" lon="1.18941">
        <ele>240.6</ele>
        <time>2020-11-29T11:39:14Z</time>
      </trkpt>
      <trkpt lat="43.61826" lon="1.18941">
        <ele>240.6</ele>
        <time>2020-11-29T11:39:15Z</time>
      </trkpt>
      <trkpt lat="43.61826" lon="1.18941">
        <ele>240.6</ele>
        <time>2020-11-29T11:39:16Z</time>
      </trkpt>
      <trkpt lat="43.61826" lon="1.18941">
        <ele>240.6</ele>
        <time>2020-11-29T11:39:17Z</time>
      </trkpt>
      <trkpt lat="43.61826" lon="1.18941">
        <ele>240.6</ele>
        <time>2020-11-29T11:39:18Z</time>
      </trkpt>
      <trkpt lat="43.61826" lon="1.18941">
        <ele>240.6</ele>
        <time>2020-11-29T11:39:19Z</time>
      </trkpt>
      <trkpt lat="43.61826" lon="1.18941">
        <ele>240.6</ele>
        <time>2020-11-29T11:39:20Z</time>
      </trkpt>
      <trkpt lat="43.61826" lon="1.18941">
        <ele>240.6</ele>
        <time>2020-11-29T11:39:21Z</time>
      </trkpt>
      <trkpt lat="43.61826" lon="1.18941">
        <ele>240.6</ele>
        <time>2020-11-29T11:39:22Z</time>
      </trkpt>
      <trkpt lat="43.61826" lon="1.18941">
        <ele>240.6</ele>
        <time>2020-11-29T11:39:23Z</time>
      </trkpt>
      <trkpt lat="43.61826" lon="1.18941">
        <ele>240.6</ele>
        <time>2020-11-29T11:39:24Z</time>
      </trkpt>
      <trkpt lat="43.61826" lon="1.18941">
        <ele>240.6</ele>
        <time>2020-11-29T11:39:25Z</time>
      </trkpt>
      <trkpt lat="43.61826" lon="1.18941">
        <ele>240.7</ele>
        <time>2020-11-29T11:39:26Z</time>
      </trkpt>
      <trkpt lat="43.61826" lon="1.18941">
        <ele>240.7</ele>
        <time>2020-11-29T11:39:27Z</time>
      </trkpt>
      <trkpt lat="43.61826" lon="1.18941">
        <ele>240.7</ele>
        <time>2020-11-29T11:39:28Z</time>
      </trkpt>
      <trkpt lat="43.61826" lon="1.18941">
        <ele>240.7</ele>
        <time>2020-11-29T11:39:29Z</time>
      </trkpt>
      <trkpt lat="43.61826" lon="1.18941">
        <ele>240.7</ele>
        <time>2020-11-29T11:39:30Z</time>
      </trkpt>
      <trkpt lat="43.61826" lon="1.18941">
        <ele>240.7</ele>
        <time>2020-11-29T11:39:31Z</time>
      </trkpt>
      <trkpt lat="43.61826" lon="1.18941">
        <ele>240.7</ele>
        <time>2020-11-29T11:39:32Z</time>
      </trkpt>
      <trkpt lat="43.61826" lon="1.18941">
        <ele>240.7</ele>
        <time>2020-11-29T11:39:33Z</time>
      </trkpt>
      <trkpt lat="43.61826" lon="1.18941">
        <ele>240.7</ele>
        <time>2020-11-29T11:39:34Z</time>
      </trkpt>
      <trkpt lat="43.61826" lon="1.18941">
        <ele>240.8</ele>
        <time>2020-11-29T11:39:35Z</time>
      </trkpt>
      <trkpt lat="43.61827" lon="1.18941">
        <ele>240.8</ele>
        <time>2020-11-29T11:39:36Z</time>
      </trkpt>
      <trkpt lat="43.61826" lon="1.18941">
        <ele>240.8</ele>
        <time>2020-11-29T11:39:37Z</time>
      </trkpt>
      <trkpt lat="43.61827" lon="1.18942">
        <ele>240.8</ele>
        <time>2020-11-29T11:39:38Z</time>
      </trkpt>
      <trkpt lat="43.61827" lon="1.18942">
        <ele>240.8</ele>
        <time>2020-11-29T11:39:39Z</time>
      </trkpt>
      <trkpt lat="43.61827" lon="1.18942">
        <ele>240.8</ele>
        <time>2020-11-29T11:39:40Z</time>
      </trkpt>
      <trkpt lat="43.61827" lon="1.18942">
        <ele>240.9</ele>
        <time>2020-11-29T11:39:41Z</time>
      </trkpt>
      <trkpt lat="43.61827" lon="1.18942">
        <ele>240.9</ele>
        <time>2020-11-29T11:39:42Z</time>
      </trkpt>
      <trkpt lat="43.61827" lon="1.18942">
        <ele>240.9</ele>
        <time>2020-11-29T11:39:43Z</time>
      </trkpt>
      <trkpt lat="43.61827" lon="1.18942">
        <ele>240.9</ele>
        <time>2020-11-29T11:39:44Z</time>
      </trkpt>
      <trkpt lat="43.61827" lon="1.18942">
        <ele>240.9</ele>
        <time>2020-11-29T11:39:45Z</time>
      </trkpt>
      <trkpt lat="43.6183" lon="1.18942">
        <ele>241.1</ele>
        <time>2020-11-29T11:39:46Z</time>
      </trkpt>
      <trkpt lat="43.61831" lon="1.18941">
        <ele>241.1</ele>
        <time>2020-11-29T11:39:47Z</time>
      </trkpt>
      <trkpt lat="43.61832" lon="1.18941">
        <ele>241.2</ele>
        <time>2020-11-29T11:39:48Z</time>
      </trkpt>
      <trkpt lat="43.61833" lon="1.18941">
        <ele>241.2</ele>
        <time>2020-11-29T11:39:49Z</time>
      </trkpt>
      <trkpt lat="43.61833" lon="1.18942">
        <ele>241.3</ele>
        <time>2020-11-29T11:39:50Z</time>
      </trkpt>
      <trkpt lat="43.61833" lon="1.18942">
        <ele>241.3</ele>
        <time>2020-11-29T11:39:51Z</time>
      </trkpt>
      <trkpt lat="43.61833" lon="1.18942">
        <ele>241.3</ele>
        <time>2020-11-29T11:39:52Z</time>
      </trkpt>
      <trkpt lat="43.61833" lon="1.18942">
        <ele>241.3</ele>
        <time>2020-11-29T11:39:53Z</time>
      </trkpt>
      <trkpt lat="43.61833" lon="1.18942">
        <ele>241.4</ele>
        <time>2020-11-29T11:39:54Z</time>
      </trkpt>
      <trkpt lat="43.61832" lon="1.18941">
        <ele>241.4</ele>
        <time>2020-11-29T11:39:55Z</time>
      </trkpt>
      <trkpt lat="43.61832" lon="1.18941">
        <ele>241.4</ele>
        <time>2020-11-29T11:39:56Z</time>
      </trkpt>
      <trkpt lat="43.61832" lon="1.18941">
        <ele>241.4</ele>
        <time>2020-11-29T11:39:57Z</time>
      </trkpt>
      <trkpt lat="43.61832" lon="1.18941">
        <ele>241.4</ele>
        <time>2020-11-29T11:39:58Z</time>
      </trkpt>
      <trkpt lat="43.61832" lon="1.18941">
        <ele>241.4</ele>
        <time>2020-11-29T11:39:59Z</time>
      </trkpt>
      <trkpt lat="43.61832" lon="1.18941">
        <ele>241.4</ele>
        <time>2020-11-29T11:40:00Z</time>
      </trkpt>
      <trkpt lat="43.61831" lon="1.18941">
        <ele>241.4</ele>
        <time>2020-11-29T11:40:01Z</time>
      </trkpt>
      <trkpt lat="43.61831" lon="1.18941">
        <ele>241.5</ele>
        <time>2020-11-29T11:40:02Z</time>
      </trkpt>
      <trkpt lat="43.61831" lon="1.18941">
        <ele>241.5</ele>
        <time>2020-11-29T11:40:03Z</time>
      </trkpt>
      <trkpt lat="43.61831" lon="1.1894">
        <ele>241.5</ele>
        <time>2020-11-29T11:40:04Z</time>
      </trkpt>
      <trkpt lat="43.61831" lon="1.1894">
        <ele>241.5</ele>
        <time>2020-11-29T11:40:05Z</time>
      </trkpt>
      <trkpt lat="43.61831" lon="1.1894">
        <ele>241.5</ele>
        <time>2020-11-29T11:40:06Z</time>
      </trkpt>
      <trkpt lat="43.6183" lon="1.1894">
        <ele>241.5</ele>
        <time>2020-11-29T11:40:07Z</time>
      </trkpt>
      <trkpt lat="43.6183" lon="1.1894">
        <ele>241.5</ele>
        <time>2020-11-29T11:40:08Z</time>
      </trkpt>
      <trkpt lat="43.6183" lon="1.1894">
        <ele>241.5</ele>
        <time>2020-11-29T11:40:09Z</time>
      </trkpt>
      <trkpt lat="43.6183" lon="1.1894">
        <ele>241.6</ele>
        <time>2020-11-29T11:40:10Z</time>
      </trkpt>
      <trkpt lat="43.6183" lon="1.1894">
        <ele>241.6</ele>
        <time>2020-11-29T11:40:11Z</time>
      </trkpt>
      <trkpt lat="43.6183" lon="1.1894">
        <ele>241.6</ele>
        <time>2020-11-29T11:40:12Z</time>
      </trkpt>
      <trkpt lat="43.6183" lon="1.1894">
        <ele>241.6</ele>
        <time>2020-11-29T11:40:13Z</time>
      </trkpt>
      <trkpt lat="43.61829" lon="1.18939">
        <ele>241.6</ele>
        <time>2020-11-29T11:40:14Z</time>
      </trkpt>
      <trkpt lat="43.61829" lon="1.18939">
        <ele>241.6</ele>
        <time>2020-11-29T11:40:15Z</time>
      </trkpt>
      <trkpt lat="43.61829" lon="1.18939">
        <ele>241.6</ele>
        <time>2020-11-29T11:40:16Z</time>
      </trkpt>
      <trkpt lat="43.61829" lon="1.18939">
        <ele>241.6</ele>
        <time>2020-11-29T11:40:17Z</time>
      </trkpt>
      <trkpt lat="43.61829" lon="1.18939">
        <ele>241.6</ele>
        <time>2020-11-29T11:40:18Z</time>
      </trkpt>
      <trkpt lat="43.61829" lon="1.18939">
        <ele>241.7</ele>
        <time>2020-11-29T11:40:19Z</time>
      </trkpt>
      <trkpt lat="43.61825" lon="1.18938">
        <ele>241.9</ele>
        <time>2020-11-29T11:40:20Z</time>
      </trkpt>
      <trkpt lat="43.61824" lon="1.18938">
        <ele>242</ele>
        <time>2020-11-29T11:40:21Z</time>
      </trkpt>
      <trkpt lat="43.61824" lon="1.18936">
        <ele>242</ele>
        <time>2020-11-29T11:40:22Z</time>
      </trkpt>
      <trkpt lat="43.61824" lon="1.18934">
        <ele>242.2</ele>
        <time>2020-11-29T11:40:23Z</time>
      </trkpt>
      <trkpt lat="43.61823" lon="1.18928">
        <ele>242.4</ele>
        <time>2020-11-29T11:40:24Z</time>
      </trkpt>
      <trkpt lat="43.61823" lon="1.18926">
        <ele>242.5</ele>
        <time>2020-11-29T11:40:25Z</time>
      </trkpt>
      <trkpt lat="43.61823" lon="1.18921">
        <ele>242.8</ele>
        <time>2020-11-29T11:40:26Z</time>
      </trkpt>
      <trkpt lat="43.61822" lon="1.18915">
        <ele>243.1</ele>
        <time>2020-11-29T11:40:27Z</time>
      </trkpt>
      <trkpt lat="43.61821" lon="1.1891">
        <ele>243.4</ele>
        <time>2020-11-29T11:40:28Z</time>
      </trkpt>
      <trkpt lat="43.6182" lon="1.18905">
        <ele>243.6</ele>
        <time>2020-11-29T11:40:29Z</time>
      </trkpt>
      <trkpt lat="43.61819" lon="1.189">
        <ele>243.9</ele>
        <time>2020-11-29T11:40:30Z</time>
      </trkpt>
      <trkpt lat="43.61817" lon="1.18894">
        <ele>244.2</ele>
        <time>2020-11-29T11:40:31Z</time>
      </trkpt>
      <trkpt lat="43.61816" lon="1.18889">
        <ele>244.4</ele>
        <time>2020-11-29T11:40:32Z</time>
      </trkpt>
      <trkpt lat="43.61814" lon="1.18884">
        <ele>244.7</ele>
        <time>2020-11-29T11:40:33Z</time>
      </trkpt>
      <trkpt lat="43.61813" lon="1.18879">
        <ele>244.9</ele>
        <time>2020-11-29T11:40:34Z</time>
      </trkpt>
      <trkpt lat="43.61812" lon="1.18873">
        <ele>245.1</ele>
        <time>2020-11-29T11:40:35Z</time>
      </trkpt>
      <trkpt lat="43.6181" lon="1.18869">
        <ele>245.3</ele>
        <time>2020-11-29T11:40:36Z</time>
      </trkpt>
      <trkpt lat="43.61809" lon="1.18863">
        <ele>245.6</ele>
        <time>2020-11-29T11:40:37Z</time>
      </trkpt>
      <trkpt lat="43.61807" lon="1.1886">
        <ele>245.7</ele>
        <time>2020-11-29T11:40:38Z</time>
      </trkpt>
      <trkpt lat="43.61805" lon="1.18854">
        <ele>245.9</ele>
        <time>2020-11-29T11:40:39Z</time>
      </trkpt>
      <trkpt lat="43.61803" lon="1.18848">
        <ele>246.1</ele>
        <time>2020-11-29T11:40:40Z</time>
      </trkpt>
      <trkpt lat="43.61802" lon="1.18843">
        <ele>246.3</ele>
        <time>2020-11-29T11:40:41Z</time>
      </trkpt>
      <trkpt lat="43.618" lon="1.18839">
        <ele>246.5</ele>
        <time>2020-11-29T11:40:42Z</time>
      </trkpt>
      <trkpt lat="43.61798" lon="1.18834">
        <ele>246.6</ele>
        <time>2020-11-29T11:40:43Z</time>
      </trkpt>
      <trkpt lat="43.61797" lon="1.18829">
        <ele>246.8</ele>
        <time>2020-11-29T11:40:44Z</time>
      </trkpt>
      <trkpt lat="43.61796" lon="1.18825">
        <ele>246.9</ele>
        <time>2020-11-29T11:40:45Z</time>
      </trkpt>
      <trkpt lat="43.61795" lon="1.18821">
        <ele>247.1</ele>
        <time>2020-11-29T11:40:46Z</time>
      </trkpt>
      <trkpt lat="43.61795" lon="1.18816">
        <ele>247.2</ele>
        <time>2020-11-29T11:40:47Z</time>
      </trkpt>
      <trkpt lat="43.61794" lon="1.18812">
        <ele>247.4</ele>
        <time>2020-11-29T11:40:48Z</time>
      </trkpt>
      <trkpt lat="43.61793" lon="1.18807">
        <ele>247.5</ele>
        <time>2020-11-29T11:40:49Z</time>
      </trkpt>
      <trkpt lat="43.61793" lon="1.18802">
        <ele>247.7</ele>
        <time>2020-11-29T11:40:50Z</time>
      </trkpt>
      <trkpt lat="43.61792" lon="1.18798">
        <ele>247.8</ele>
        <time>2020-11-29T11:40:51Z</time>
      </trkpt>
      <trkpt lat="43.61792" lon="1.18794">
        <ele>247.9</ele>
        <time>2020-11-29T11:40:52Z</time>
      </trkpt>
      <trkpt lat="43.61791" lon="1.18789">
        <ele>248</ele>
        <time>2020-11-29T11:40:53Z</time>
      </trkpt>
      <trkpt lat="43.61791" lon="1.18784">
        <ele>248.1</ele>
        <time>2020-11-29T11:40:54Z</time>
      </trkpt>
      <trkpt lat="43.61793" lon="1.18779">
        <ele>248.3</ele>
        <time>2020-11-29T11:40:55Z</time>
      </trkpt>
      <trkpt lat="43.61795" lon="1.18775">
        <ele>248.4</ele>
        <time>2020-11-29T11:40:56Z</time>
      </trkpt>
      <trkpt lat="43.61797" lon="1.1877">
        <ele>248.5</ele>
        <time>2020-11-29T11:40:57Z</time>
      </trkpt>
      <trkpt lat="43.618" lon="1.18766">
        <ele>248.6</ele>
        <time>2020-11-29T11:40:58Z</time>
      </trkpt>
      <trkpt lat="43.61803" lon="1.18763">
        <ele>248.7</ele>
        <time>2020-11-29T11:40:59Z</time>
      </trkpt>
      <trkpt lat="43.61804" lon="1.18759">
        <ele>248.8</ele>
        <time>2020-11-29T11:41:00Z</time>
      </trkpt>
      <trkpt lat="43.61805" lon="1.18754">
        <ele>248.8</ele>
        <time>2020-11-29T11:41:01Z</time>
      </trkpt>
      <trkpt lat="43.61807" lon="1.18749">
        <ele>248.9</ele>
        <time>2020-11-29T11:41:02Z</time>
      </trkpt>
      <trkpt lat="43.61807" lon="1.18744">
        <ele>249</ele>
        <time>2020-11-29T11:41:03Z</time>
      </trkpt>
      <trkpt lat="43.61806" lon="1.18738">
        <ele>249.1</ele>
        <time>2020-11-29T11:41:04Z</time>
      </trkpt>
      <trkpt lat="43.61805" lon="1.18733">
        <ele>249.2</ele>
        <time>2020-11-29T11:41:05Z</time>
      </trkpt>
      <trkpt lat="43.61804" lon="1.18728">
        <ele>249.3</ele>
        <time>2020-11-29T11:41:06Z</time>
      </trkpt>
      <trkpt lat="43.61804" lon="1.18722">
        <ele>249.4</ele>
        <time>2020-11-29T11:41:07Z</time>
      </trkpt>
      <trkpt lat="43.61805" lon="1.18715">
        <ele>249.5</ele>
        <time>2020-11-29T11:41:08Z</time>
      </trkpt>
      <trkpt lat="43.61807" lon="1.1871">
        <ele>249.5</ele>
        <time>2020-11-29T11:41:09Z</time>
      </trkpt>
      <trkpt lat="43.61809" lon="1.18705">
        <ele>249.6</ele>
        <time>2020-11-29T11:41:10Z</time>
      </trkpt>
      <trkpt lat="43.61811" lon="1.18701">
        <ele>249.6</ele>
        <time>2020-11-29T11:41:11Z</time>
      </trkpt>
      <trkpt lat="43.61812" lon="1.18698">
        <ele>249.7</ele>
        <time>2020-11-29T11:41:12Z</time>
      </trkpt>
      <trkpt lat="43.61813" lon="1.18693">
        <ele>249.7</ele>
        <time>2020-11-29T11:41:13Z</time>
      </trkpt>
      <trkpt lat="43.61815" lon="1.18688">
        <ele>249.8</ele>
        <time>2020-11-29T11:41:14Z</time>
      </trkpt>
      <trkpt lat="43.61817" lon="1.18682">
        <ele>249.8</ele>
        <time>2020-11-29T11:41:15Z</time>
      </trkpt>
      <trkpt lat="43.61818" lon="1.18675">
        <ele>249.9</ele>
        <time>2020-11-29T11:41:16Z</time>
      </trkpt>
      <trkpt lat="43.61819" lon="1.18672">
        <ele>249.9</ele>
        <time>2020-11-29T11:41:17Z</time>
      </trkpt>
      <trkpt lat="43.61819" lon="1.18668">
        <ele>249.9</ele>
        <time>2020-11-29T11:41:18Z</time>
      </trkpt>
      <trkpt lat="43.61819" lon="1.18664">
        <ele>250</ele>
        <time>2020-11-29T11:41:19Z</time>
      </trkpt>
      <trkpt lat="43.6182" lon="1.1866">
        <ele>250</ele>
        <time>2020-11-29T11:41:20Z</time>
      </trkpt>
      <trkpt lat="43.6182" lon="1.18659">
        <ele>250</ele>
        <time>2020-11-29T11:41:21Z</time>
      </trkpt>
      <trkpt lat="43.61821" lon="1.18654">
        <ele>250</ele>
        <time>2020-11-29T11:41:22Z</time>
      </trkpt>
      <trkpt lat="43.61821" lon="1.18647">
        <ele>250.1</ele>
        <time>2020-11-29T11:41:23Z</time>
      </trkpt>
      <trkpt lat="43.61821" lon="1.18644">
        <ele>250.1</ele>
        <time>2020-11-29T11:41:24Z</time>
      </trkpt>
      <trkpt lat="43.61821" lon="1.1864">
        <ele>250.1</ele>
        <time>2020-11-29T11:41:25Z</time>
      </trkpt>
      <trkpt lat="43.61822" lon="1.18635">
        <ele>250.2</ele>
        <time>2020-11-29T11:41:26Z</time>
      </trkpt>
      <trkpt lat="43.61822" lon="1.18629">
        <ele>250.2</ele>
        <time>2020-11-29T11:41:27Z</time>
      </trkpt>
      <trkpt lat="43.61821" lon="1.18624">
        <ele>250.2</ele>
        <time>2020-11-29T11:41:28Z</time>
      </trkpt>
      <trkpt lat="43.61821" lon="1.18619">
        <ele>250.2</ele>
        <time>2020-11-29T11:41:29Z</time>
      </trkpt>
      <trkpt lat="43.6182" lon="1.18615">
        <ele>250.3</ele>
        <time>2020-11-29T11:41:30Z</time>
      </trkpt>
      <trkpt lat="43.61818" lon="1.1861">
        <ele>250.3</ele>
        <time>2020-11-29T11:41:31Z</time>
      </trkpt>
      <trkpt lat="43.61816" lon="1.18605">
        <ele>250.4</ele>
        <time>2020-11-29T11:41:32Z</time>
      </trkpt>
      <trkpt lat="43.61812" lon="1.18599">
        <ele>250.5</ele>
        <time>2020-11-29T11:41:33Z</time>
      </trkpt>
      <trkpt lat="43.6181" lon="1.18595">
        <ele>250.6</ele>
        <time>2020-11-29T11:41:34Z</time>
      </trkpt>
      <trkpt lat="43.61807" lon="1.18591">
        <ele>250.7</ele>
        <time>2020-11-29T11:41:35Z</time>
      </trkpt>
      <trkpt lat="43.61803" lon="1.18588">
        <ele>250.8</ele>
        <time>2020-11-29T11:41:36Z</time>
      </trkpt>
      <trkpt lat="43.61801" lon="1.18585">
        <ele>250.9</ele>
        <time>2020-11-29T11:41:37Z</time>
      </trkpt>
      <trkpt lat="43.61799" lon="1.18582">
        <ele>251</ele>
        <time>2020-11-29T11:41:38Z</time>
      </trkpt>
      <trkpt lat="43.61798" lon="1.1858">
        <ele>251</ele>
        <time>2020-11-29T11:41:39Z</time>
      </trkpt>
      <trkpt lat="43.61796" lon="1.18576">
        <ele>251.1</ele>
        <time>2020-11-29T11:41:40Z</time>
      </trkpt>
      <trkpt lat="43.61794" lon="1.18572">
        <ele>251.1</ele>
        <time>2020-11-29T11:41:41Z</time>
      </trkpt>
      <trkpt lat="43.61793" lon="1.18568">
        <ele>251.2</ele>
        <time>2020-11-29T11:41:42Z</time>
      </trkpt>
      <trkpt lat="43.61792" lon="1.18564">
        <ele>251.2</ele>
        <time>2020-11-29T11:41:43Z</time>
      </trkpt>
      <trkpt lat="43.61791" lon="1.1856">
        <ele>251.2</ele>
        <time>2020-11-29T11:41:44Z</time>
      </trkpt>
      <trkpt lat="43.6179" lon="1.18555">
        <ele>251.3</ele>
        <time>2020-11-29T11:41:45Z</time>
      </trkpt>
      <trkpt lat="43.6179" lon="1.18553">
        <ele>251.3</ele>
        <time>2020-11-29T11:41:46Z</time>
      </trkpt>
      <trkpt lat="43.61789" lon="1.18547">
        <ele>251.3</ele>
        <time>2020-11-29T11:41:47Z</time>
      </trkpt>
      <trkpt lat="43.61789" lon="1.18544">
        <ele>251.3</ele>
        <time>2020-11-29T11:41:48Z</time>
      </trkpt>
      <trkpt lat="43.61788" lon="1.18539">
        <ele>251.3</ele>
        <time>2020-11-29T11:41:49Z</time>
      </trkpt>
      <trkpt lat="43.61786" lon="1.18534">
        <ele>251.4</ele>
        <time>2020-11-29T11:41:50Z</time>
      </trkpt>
      <trkpt lat="43.61783" lon="1.18531">
        <ele>251.4</ele>
        <time>2020-11-29T11:41:51Z</time>
      </trkpt>
      <trkpt lat="43.61779" lon="1.1853">
        <ele>251.4</ele>
        <time>2020-11-29T11:41:52Z</time>
      </trkpt>
      <trkpt lat="43.61776" lon="1.1853">
        <ele>251.5</ele>
        <time>2020-11-29T11:41:53Z</time>
      </trkpt>
      <trkpt lat="43.61773" lon="1.18531">
        <ele>251.5</ele>
        <time>2020-11-29T11:41:54Z</time>
      </trkpt>
      <trkpt lat="43.61769" lon="1.18531">
        <ele>251.6</ele>
        <time>2020-11-29T11:41:55Z</time>
      </trkpt>
      <trkpt lat="43.61766" lon="1.18532">
        <ele>251.7</ele>
        <time>2020-11-29T11:41:56Z</time>
      </trkpt>
      <trkpt lat="43.61762" lon="1.18533">
        <ele>251.7</ele>
        <time>2020-11-29T11:41:57Z</time>
      </trkpt>
      <trkpt lat="43.61759" lon="1.18534">
        <ele>251.8</ele>
        <time>2020-11-29T11:41:58Z</time>
      </trkpt>
      <trkpt lat="43.61756" lon="1.18535">
        <ele>251.9</ele>
        <time>2020-11-29T11:41:59Z</time>
      </trkpt>
      <trkpt lat="43.61752" lon="1.18537">
        <ele>251.9</ele>
        <time>2020-11-29T11:42:00Z</time>
      </trkpt>
      <trkpt lat="43.61749" lon="1.1854">
        <ele>252</ele>
        <time>2020-11-29T11:42:01Z</time>
      </trkpt>
      <trkpt lat="43.61745" lon="1.18548">
        <ele>252</ele>
        <time>2020-11-29T11:42:02Z</time>
      </trkpt>
      <trkpt lat="43.61744" lon="1.18552">
        <ele>252.1</ele>
        <time>2020-11-29T11:42:03Z</time>
      </trkpt>
      <trkpt lat="43.61743" lon="1.18556">
        <ele>252.1</ele>
        <time>2020-11-29T11:42:04Z</time>
      </trkpt>
      <trkpt lat="43.61745" lon="1.1856">
        <ele>252.1</ele>
        <time>2020-11-29T11:42:05Z</time>
      </trkpt>
      <trkpt lat="43.61746" lon="1.18561">
        <ele>252</ele>
        <time>2020-11-29T11:42:06Z</time>
      </trkpt>
      <trkpt lat="43.61747" lon="1.18565">
        <ele>252</ele>
        <time>2020-11-29T11:42:07Z</time>
      </trkpt>
      <trkpt lat="43.61749" lon="1.18568">
        <ele>252</ele>
        <time>2020-11-29T11:42:08Z</time>
      </trkpt>
      <trkpt lat="43.61752" lon="1.18573">
        <ele>251.9</ele>
        <time>2020-11-29T11:42:09Z</time>
      </trkpt>
      <trkpt lat="43.61753" lon="1.18578">
        <ele>251.9</ele>
        <time>2020-11-29T11:42:10Z</time>
      </trkpt>
      <trkpt lat="43.61754" lon="1.18584">
        <ele>251.8</ele>
        <time>2020-11-29T11:42:11Z</time>
      </trkpt>
      <trkpt lat="43.61754" lon="1.18589">
        <ele>251.7</ele>
        <time>2020-11-29T11:42:12Z</time>
      </trkpt>
      <trkpt lat="43.61754" lon="1.18595">
        <ele>251.7</ele>
        <time>2020-11-29T11:42:13Z</time>
      </trkpt>
      <trkpt lat="43.61753" lon="1.18599">
        <ele>251.6</ele>
        <time>2020-11-29T11:42:14Z</time>
      </trkpt>
      <trkpt lat="43.61753" lon="1.18601">
        <ele>251.6</ele>
        <time>2020-11-29T11:42:15Z</time>
      </trkpt>
      <trkpt lat="43.61752" lon="1.18606">
        <ele>251.5</ele>
        <time>2020-11-29T11:42:16Z</time>
      </trkpt>
      <trkpt lat="43.61752" lon="1.18608">
        <ele>251.5</ele>
        <time>2020-11-29T11:42:17Z</time>
      </trkpt>
      <trkpt lat="43.61751" lon="1.18614">
        <ele>251.4</ele>
        <time>2020-11-29T11:42:18Z</time>
      </trkpt>
      <trkpt lat="43.6175" lon="1.18616">
        <ele>251.4</ele>
        <time>2020-11-29T11:42:19Z</time>
      </trkpt>
      <trkpt lat="43.61748" lon="1.1862">
        <ele>251.4</ele>
        <time>2020-11-29T11:42:20Z</time>
      </trkpt>
      <trkpt lat="43.61746" lon="1.18624">
        <ele>251.3</ele>
        <time>2020-11-29T11:42:21Z</time>
      </trkpt>
      <trkpt lat="43.61744" lon="1.18628">
        <ele>251.3</ele>
        <time>2020-11-29T11:42:22Z</time>
      </trkpt>
      <trkpt lat="43.61742" lon="1.18632">
        <ele>251.2</ele>
        <time>2020-11-29T11:42:23Z</time>
      </trkpt>
      <trkpt lat="43.61739" lon="1.18637">
        <ele>251.2</ele>
        <time>2020-11-29T11:42:24Z</time>
      </trkpt>
      <trkpt lat="43.61737" lon="1.18641">
        <ele>251.1</ele>
        <time>2020-11-29T11:42:25Z</time>
      </trkpt>
      <trkpt lat="43.61733" lon="1.18648">
        <ele>251</ele>
        <time>2020-11-29T11:42:26Z</time>
      </trkpt>
      <trkpt lat="43.61729" lon="1.18653">
        <ele>250.9</ele>
        <time>2020-11-29T11:42:27Z</time>
      </trkpt>
      <trkpt lat="43.61725" lon="1.1866">
        <ele>250.8</ele>
        <time>2020-11-29T11:42:28Z</time>
      </trkpt>
      <trkpt lat="43.6172" lon="1.18667">
        <ele>250.6</ele>
        <time>2020-11-29T11:42:29Z</time>
      </trkpt>
      <trkpt lat="43.61717" lon="1.18672">
        <ele>250.4</ele>
        <time>2020-11-29T11:42:30Z</time>
      </trkpt>
      <trkpt lat="43.61713" lon="1.18678">
        <ele>250.2</ele>
        <time>2020-11-29T11:42:31Z</time>
      </trkpt>
      <trkpt lat="43.61709" lon="1.18683">
        <ele>250.1</ele>
        <time>2020-11-29T11:42:32Z</time>
      </trkpt>
      <trkpt lat="43.61705" lon="1.1869">
        <ele>249.9</ele>
        <time>2020-11-29T11:42:33Z</time>
      </trkpt>
      <trkpt lat="43.617" lon="1.18694">
        <ele>249.8</ele>
        <time>2020-11-29T11:42:34Z</time>
      </trkpt>
      <trkpt lat="43.61696" lon="1.18699">
        <ele>249.7</ele>
        <time>2020-11-29T11:42:35Z</time>
      </trkpt>
      <trkpt lat="43.61692" lon="1.18706">
        <ele>249.5</ele>
        <time>2020-11-29T11:42:36Z</time>
      </trkpt>
      <trkpt lat="43.61688" lon="1.18714">
        <ele>249.4</ele>
        <time>2020-11-29T11:42:37Z</time>
      </trkpt>
      <trkpt lat="43.61684" lon="1.1872">
        <ele>249.3</ele>
        <time>2020-11-29T11:42:38Z</time>
      </trkpt>
      <trkpt lat="43.61681" lon="1.18728">
        <ele>249.1</ele>
        <time>2020-11-29T11:42:39Z</time>
      </trkpt>
      <trkpt lat="43.61678" lon="1.18735">
        <ele>249</ele>
        <time>2020-11-29T11:42:41Z</time>
      </trkpt>
      <trkpt lat="43.61674" lon="1.18741">
        <ele>248.9</ele>
        <time>2020-11-29T11:42:42Z</time>
      </trkpt>
      <trkpt lat="43.61672" lon="1.18749">
        <ele>248.8</ele>
        <time>2020-11-29T11:42:43Z</time>
      </trkpt>
      <trkpt lat="43.61669" lon="1.18756">
        <ele>248.7</ele>
        <time>2020-11-29T11:42:44Z</time>
      </trkpt>
      <trkpt lat="43.61666" lon="1.18763">
        <ele>248.5</ele>
        <time>2020-11-29T11:42:45Z</time>
      </trkpt>
      <trkpt lat="43.61662" lon="1.18772">
        <ele>248.4</ele>
        <time>2020-11-29T11:42:46Z</time>
      </trkpt>
      <trkpt lat="43.6166" lon="1.18777">
        <ele>248.3</ele>
        <time>2020-11-29T11:42:47Z</time>
      </trkpt>
      <trkpt lat="43.61658" lon="1.18787">
        <ele>248.2</ele>
        <time>2020-11-29T11:42:48Z</time>
      </trkpt>
      <trkpt lat="43.61657" lon="1.18795">
        <ele>248.1</ele>
        <time>2020-11-29T11:42:49Z</time>
      </trkpt>
      <trkpt lat="43.61657" lon="1.18805">
        <ele>248</ele>
        <time>2020-11-29T11:42:50Z</time>
      </trkpt>
      <trkpt lat="43.61655" lon="1.1881">
        <ele>247.9</ele>
        <time>2020-11-29T11:42:51Z</time>
      </trkpt>
      <trkpt lat="43.61654" lon="1.18815">
        <ele>247.8</ele>
        <time>2020-11-29T11:42:52Z</time>
      </trkpt>
      <trkpt lat="43.61654" lon="1.18819">
        <ele>247.8</ele>
        <time>2020-11-29T11:42:53Z</time>
      </trkpt>
      <trkpt lat="43.61655" lon="1.18825">
        <ele>247.7</ele>
        <time>2020-11-29T11:42:54Z</time>
      </trkpt>
      <trkpt lat="43.61656" lon="1.1883">
        <ele>247.7</ele>
        <time>2020-11-29T11:42:55Z</time>
      </trkpt>
      <trkpt lat="43.61657" lon="1.18836">
        <ele>247.6</ele>
        <time>2020-11-29T11:42:56Z</time>
      </trkpt>
      <trkpt lat="43.61659" lon="1.18841">
        <ele>247.5</ele>
        <time>2020-11-29T11:42:57Z</time>
      </trkpt>
      <trkpt lat="43.61662" lon="1.18846">
        <ele>247.5</ele>
        <time>2020-11-29T11:42:58Z</time>
      </trkpt>
      <trkpt lat="43.61665" lon="1.18853">
        <ele>247.4</ele>
        <time>2020-11-29T11:42:59Z</time>
      </trkpt>
      <trkpt lat="43.61667" lon="1.1886">
        <ele>247.3</ele>
        <time>2020-11-29T11:43:00Z</time>
      </trkpt>
      <trkpt lat="43.61671" lon="1.18867">
        <ele>247.3</ele>
        <time>2020-11-29T11:43:01Z</time>
      </trkpt>
      <trkpt lat="43.61675" lon="1.18873">
        <ele>247.2</ele>
        <time>2020-11-29T11:43:02Z</time>
      </trkpt>
      <trkpt lat="43.61676" lon="1.18878">
        <ele>247.1</ele>
        <time>2020-11-29T11:43:03Z</time>
      </trkpt>
      <trkpt lat="43.61677" lon="1.18886">
        <ele>247.1</ele>
        <time>2020-11-29T11:43:04Z</time>
      </trkpt>
      <trkpt lat="43.61675" lon="1.18891">
        <ele>247</ele>
        <time>2020-11-29T11:43:05Z</time>
      </trkpt>
      <trkpt lat="43.61673" lon="1.18894">
        <ele>247.1</ele>
        <time>2020-11-29T11:43:06Z</time>
      </trkpt>
      <trkpt lat="43.61672" lon="1.18894">
        <ele>247.1</ele>
        <time>2020-11-29T11:43:07Z</time>
      </trkpt>
      <trkpt lat="43.61672" lon="1.18895">
        <ele>247.1</ele>
        <time>2020-11-29T11:43:08Z</time>
      </trkpt>
      <trkpt lat="43.6167" lon="1.18894">
        <ele>247.1</ele>
        <time>2020-11-29T11:43:09Z</time>
      </trkpt>
      <trkpt lat="43.61669" lon="1.18892">
        <ele>247.1</ele>
        <time>2020-11-29T11:43:10Z</time>
      </trkpt>
      <trkpt lat="43.61666" lon="1.1889">
        <ele>247.2</ele>
        <time>2020-11-29T11:43:11Z</time>
      </trkpt>
      <trkpt lat="43.61663" lon="1.18889">
        <ele>247.2</ele>
        <time>2020-11-29T11:43:12Z</time>
      </trkpt>
      <trkpt lat="43.6166" lon="1.18887">
        <ele>247.2</ele>
        <time>2020-11-29T11:43:13Z</time>
      </trkpt>
      <trkpt lat="43.61656" lon="1.18887">
        <ele>247.2</ele>
        <time>2020-11-29T11:43:14Z</time>
      </trkpt>
      <trkpt lat="43.61654" lon="1.18886">
        <ele>247.2</ele>
        <time>2020-11-29T11:43:15Z</time>
      </trkpt>
      <trkpt lat="43.61651" lon="1.18884">
        <ele>247.2</ele>
        <time>2020-11-29T11:43:16Z</time>
      </trkpt>
      <trkpt lat="43.61647" lon="1.18882">
        <ele>247.2</ele>
        <time>2020-11-29T11:43:17Z</time>
      </trkpt>
      <trkpt lat="43.61643" lon="1.18881">
        <ele>247.2</ele>
        <time>2020-11-29T11:43:18Z</time>
      </trkpt>
      <trkpt lat="43.61636" lon="1.18882">
        <ele>247.1</ele>
        <time>2020-11-29T11:43:19Z</time>
      </trkpt>
      <trkpt lat="43.6163" lon="1.18881">
        <ele>247.1</ele>
        <time>2020-11-29T11:43:20Z</time>
      </trkpt>
      <trkpt lat="43.61624" lon="1.18883">
        <ele>247</ele>
        <time>2020-11-29T11:43:21Z</time>
      </trkpt>
      <trkpt lat="43.61618" lon="1.18885">
        <ele>246.9</ele>
        <time>2020-11-29T11:43:22Z</time>
      </trkpt>
      <trkpt lat="43.61613" lon="1.18888">
        <ele>246.8</ele>
        <time>2020-11-29T11:43:23Z</time>
      </trkpt>
      <trkpt lat="43.61606" lon="1.18891">
        <ele>246.7</ele>
        <time>2020-11-29T11:43:24Z</time>
      </trkpt>
      <trkpt lat="43.61601" lon="1.18894">
        <ele>246.6</ele>
        <time>2020-11-29T11:43:25Z</time>
      </trkpt>
      <trkpt lat="43.61595" lon="1.18898">
        <ele>246.4</ele>
        <time>2020-11-29T11:43:26Z</time>
      </trkpt>
      <trkpt lat="43.61589" lon="1.18903">
        <ele>246.3</ele>
        <time>2020-11-29T11:43:27Z</time>
      </trkpt>
      <trkpt lat="43.61582" lon="1.18906">
        <ele>246.2</ele>
        <time>2020-11-29T11:43:28Z</time>
      </trkpt>
      <trkpt lat="43.61575" lon="1.18907">
        <ele>246</ele>
        <time>2020-11-29T11:43:29Z</time>
      </trkpt>
      <trkpt lat="43.61569" lon="1.18911">
        <ele>245.8</ele>
        <time>2020-11-29T11:43:30Z</time>
      </trkpt>
      <trkpt lat="43.61564" lon="1.18913">
        <ele>245.7</ele>
        <time>2020-11-29T11:43:31Z</time>
      </trkpt>
      <trkpt lat="43.61558" lon="1.18915">
        <ele>245.6</ele>
        <time>2020-11-29T11:43:32Z</time>
      </trkpt>
      <trkpt lat="43.61552" lon="1.18917">
        <ele>245.4</ele>
        <time>2020-11-29T11:43:33Z</time>
      </trkpt>
      <trkpt lat="43.61545" lon="1.1892">
        <ele>245.2</ele>
        <time>2020-11-29T11:43:34Z</time>
      </trkpt>
      <trkpt lat="43.61537" lon="1.18921">
        <ele>245</ele>
        <time>2020-11-29T11:43:35Z</time>
      </trkpt>
      <trkpt lat="43.61532" lon="1.18922">
        <ele>244.9</ele>
        <time>2020-11-29T11:43:36Z</time>
      </trkpt>
      <trkpt lat="43.61524" lon="1.18923">
        <ele>244.7</ele>
        <time>2020-11-29T11:43:37Z</time>
      </trkpt>
      <trkpt lat="43.61519" lon="1.18928">
        <ele>244.5</ele>
        <time>2020-11-29T11:43:38Z</time>
      </trkpt>
      <trkpt lat="43.61513" lon="1.18934">
        <ele>244.4</ele>
        <time>2020-11-29T11:43:39Z</time>
      </trkpt>
      <trkpt lat="43.61509" lon="1.18941">
        <ele>244.3</ele>
        <time>2020-11-29T11:43:40Z</time>
      </trkpt>
      <trkpt lat="43.61507" lon="1.18949">
        <ele>244.3</ele>
        <time>2020-11-29T11:43:41Z</time>
      </trkpt>
      <trkpt lat="43.61503" lon="1.18956">
        <ele>244.3</ele>
        <time>2020-11-29T11:43:42Z</time>
      </trkpt>
      <trkpt lat="43.61501" lon="1.18961">
        <ele>244.3</ele>
        <time>2020-11-29T11:43:43Z</time>
      </trkpt>
      <trkpt lat="43.61497" lon="1.18969">
        <ele>244.4</ele>
        <time>2020-11-29T11:43:44Z</time>
      </trkpt>
      <trkpt lat="43.61494" lon="1.18975">
        <ele>244.5</ele>
        <time>2020-11-29T11:43:45Z</time>
      </trkpt>
      <trkpt lat="43.61489" lon="1.18984">
        <ele>244.7</ele>
        <time>2020-11-29T11:43:46Z</time>
      </trkpt>
      <trkpt lat="43.61485" lon="1.1899">
        <ele>244.7</ele>
        <time>2020-11-29T11:43:47Z</time>
      </trkpt>
      <trkpt lat="43.61482" lon="1.18995">
        <ele>244.7</ele>
        <time>2020-11-29T11:43:48Z</time>
      </trkpt>
      <trkpt lat="43.61478" lon="1.19001">
        <ele>244.6</ele>
        <time>2020-11-29T11:43:49Z</time>
      </trkpt>
      <trkpt lat="43.61475" lon="1.19007">
        <ele>244.7</ele>
        <time>2020-11-29T11:43:50Z</time>
      </trkpt>
      <trkpt lat="43.61472" lon="1.19012">
        <ele>244.7</ele>
        <time>2020-11-29T11:43:51Z</time>
      </trkpt>
      <trkpt lat="43.61469" lon="1.19017">
        <ele>244.7</ele>
        <time>2020-11-29T11:43:52Z</time>
      </trkpt>
      <trkpt lat="43.61466" lon="1.19023">
        <ele>244.8</ele>
        <time>2020-11-29T11:43:53Z</time>
      </trkpt>
      <trkpt lat="43.61463" lon="1.19029">
        <ele>244.8</ele>
        <time>2020-11-29T11:43:54Z</time>
      </trkpt>
      <trkpt lat="43.61459" lon="1.19035">
        <ele>244.9</ele>
        <time>2020-11-29T11:43:55Z</time>
      </trkpt>
      <trkpt lat="43.61458" lon="1.1904">
        <ele>244.9</ele>
        <time>2020-11-29T11:43:56Z</time>
      </trkpt>
      <trkpt lat="43.61456" lon="1.19044">
        <ele>244.9</ele>
        <time>2020-11-29T11:43:57Z</time>
      </trkpt>
      <trkpt lat="43.61455" lon="1.19045">
        <ele>244.9</ele>
        <time>2020-11-29T11:43:58Z</time>
      </trkpt>
      <trkpt lat="43.61451" lon="1.19047">
        <ele>244.8</ele>
        <time>2020-11-29T11:43:59Z</time>
      </trkpt>
      <trkpt lat="43.61448" lon="1.19047">
        <ele>244.8</ele>
        <time>2020-11-29T11:44:00Z</time>
      </trkpt>
      <trkpt lat="43.61447" lon="1.19046">
        <ele>244.8</ele>
        <time>2020-11-29T11:44:01Z</time>
      </trkpt>
      <trkpt lat="43.61442" lon="1.19046">
        <ele>244.8</ele>
        <time>2020-11-29T11:44:02Z</time>
      </trkpt>
      <trkpt lat="43.61439" lon="1.19045">
        <ele>244.7</ele>
        <time>2020-11-29T11:44:03Z</time>
      </trkpt>
      <trkpt lat="43.61436" lon="1.19046">
        <ele>244.7</ele>
        <time>2020-11-29T11:44:04Z</time>
      </trkpt>
      <trkpt lat="43.61433" lon="1.19047">
        <ele>244.7</ele>
        <time>2020-11-29T11:44:05Z</time>
      </trkpt>
      <trkpt lat="43.61429" lon="1.19049">
        <ele>244.7</ele>
        <time>2020-11-29T11:44:06Z</time>
      </trkpt>
      <trkpt lat="43.61425" lon="1.19053">
        <ele>244.6</ele>
        <time>2020-11-29T11:44:07Z</time>
      </trkpt>
      <trkpt lat="43.61421" lon="1.19056">
        <ele>244.6</ele>
        <time>2020-11-29T11:44:08Z</time>
      </trkpt>
      <trkpt lat="43.61416" lon="1.19059">
        <ele>244.6</ele>
        <time>2020-11-29T11:44:09Z</time>
      </trkpt>
      <trkpt lat="43.6141" lon="1.19063">
        <ele>244.6</ele>
        <time>2020-11-29T11:44:10Z</time>
      </trkpt>
      <trkpt lat="43.61406" lon="1.19065">
        <ele>244.7</ele>
        <time>2020-11-29T11:44:11Z</time>
      </trkpt>
      <trkpt lat="43.61402" lon="1.19066">
        <ele>244.7</ele>
        <time>2020-11-29T11:44:12Z</time>
      </trkpt>
      <trkpt lat="43.61397" lon="1.19068">
        <ele>244.8</ele>
        <time>2020-11-29T11:44:13Z</time>
      </trkpt>
      <trkpt lat="43.61393" lon="1.19071">
        <ele>244.9</ele>
        <time>2020-11-29T11:44:14Z</time>
      </trkpt>
      <trkpt lat="43.61388" lon="1.19075">
        <ele>245</ele>
        <time>2020-11-29T11:44:15Z</time>
      </trkpt>
      <trkpt lat="43.61384" lon="1.19078">
        <ele>245.1</ele>
        <time>2020-11-29T11:44:16Z</time>
      </trkpt>
      <trkpt lat="43.61381" lon="1.19081">
        <ele>245.1</ele>
        <time>2020-11-29T11:44:17Z</time>
      </trkpt>
      <trkpt lat="43.61378" lon="1.19082">
        <ele>245.2</ele>
        <time>2020-11-29T11:44:18Z</time>
      </trkpt>
      <trkpt lat="43.61375" lon="1.19084">
        <ele>245.3</ele>
        <time>2020-11-29T11:44:19Z</time>
      </trkpt>
      <trkpt lat="43.61372" lon="1.19085">
        <ele>245.4</ele>
        <time>2020-11-29T11:44:20Z</time>
      </trkpt>
      <trkpt lat="43.61367" lon="1.19087">
        <ele>245.5</ele>
        <time>2020-11-29T11:44:21Z</time>
      </trkpt>
      <trkpt lat="43.61364" lon="1.19088">
        <ele>245.6</ele>
        <time>2020-11-29T11:44:22Z</time>
      </trkpt>
      <trkpt lat="43.61361" lon="1.19089">
        <ele>245.6</ele>
        <time>2020-11-29T11:44:23Z</time>
      </trkpt>
      <trkpt lat="43.61357" lon="1.1909">
        <ele>245.7</ele>
        <time>2020-11-29T11:44:24Z</time>
      </trkpt>
      <trkpt lat="43.61354" lon="1.19091">
        <ele>245.8</ele>
        <time>2020-11-29T11:44:25Z</time>
      </trkpt>
      <trkpt lat="43.6135" lon="1.19092">
        <ele>245.9</ele>
        <time>2020-11-29T11:44:26Z</time>
      </trkpt>
      <trkpt lat="43.61346" lon="1.19094">
        <ele>246</ele>
        <time>2020-11-29T11:44:27Z</time>
      </trkpt>
      <trkpt lat="43.61342" lon="1.19096">
        <ele>246</ele>
        <time>2020-11-29T11:44:28Z</time>
      </trkpt>
      <trkpt lat="43.61338" lon="1.19098">
        <ele>246.1</ele>
        <time>2020-11-29T11:44:29Z</time>
      </trkpt>
      <trkpt lat="43.61333" lon="1.19101">
        <ele>246.1</ele>
        <time>2020-11-29T11:44:30Z</time>
      </trkpt>
      <trkpt lat="43.61328" lon="1.19104">
        <ele>246.1</ele>
        <time>2020-11-29T11:44:31Z</time>
      </trkpt>
      <trkpt lat="43.61325" lon="1.19106">
        <ele>246.1</ele>
        <time>2020-11-29T11:44:32Z</time>
      </trkpt>
      <trkpt lat="43.6132" lon="1.19108">
        <ele>246.1</ele>
        <time>2020-11-29T11:44:33Z</time>
      </trkpt>
      <trkpt lat="43.61316" lon="1.1911">
        <ele>246.1</ele>
        <time>2020-11-29T11:44:34Z</time>
      </trkpt>
      <trkpt lat="43.61312" lon="1.19112">
        <ele>246.1</ele>
        <time>2020-11-29T11:44:35Z</time>
      </trkpt>
      <trkpt lat="43.61308" lon="1.19115">
        <ele>246.1</ele>
        <time>2020-11-29T11:44:36Z</time>
      </trkpt>
      <trkpt lat="43.61304" lon="1.19117">
        <ele>246.1</ele>
        <time>2020-11-29T11:44:37Z</time>
      </trkpt>
      <trkpt lat="43.613" lon="1.19118">
        <ele>246</ele>
        <time>2020-11-29T11:44:38Z</time>
      </trkpt>
      <trkpt lat="43.61296" lon="1.1912">
        <ele>246</ele>
        <time>2020-11-29T11:44:39Z</time>
      </trkpt>
      <trkpt lat="43.61292" lon="1.19124">
        <ele>245.9</ele>
        <time>2020-11-29T11:44:40Z</time>
      </trkpt>
      <trkpt lat="43.61289" lon="1.19127">
        <ele>245.9</ele>
        <time>2020-11-29T11:44:41Z</time>
      </trkpt>
      <trkpt lat="43.61285" lon="1.19129">
        <ele>245.9</ele>
        <time>2020-11-29T11:44:42Z</time>
      </trkpt>
      <trkpt lat="43.6128" lon="1.19131">
        <ele>245.8</ele>
        <time>2020-11-29T11:44:43Z</time>
      </trkpt>
      <trkpt lat="43.61275" lon="1.19134">
        <ele>245.7</ele>
        <time>2020-11-29T11:44:44Z</time>
      </trkpt>
      <trkpt lat="43.6127" lon="1.19137">
        <ele>245.7</ele>
        <time>2020-11-29T11:44:45Z</time>
      </trkpt>
      <trkpt lat="43.61265" lon="1.19138">
        <ele>245.6</ele>
        <time>2020-11-29T11:44:46Z</time>
      </trkpt>
      <trkpt lat="43.6126" lon="1.19141">
        <ele>245.6</ele>
        <time>2020-11-29T11:44:47Z</time>
      </trkpt>
      <trkpt lat="43.61255" lon="1.19142">
        <ele>245.6</ele>
        <time>2020-11-29T11:44:48Z</time>
      </trkpt>
      <trkpt lat="43.6125" lon="1.19146">
        <ele>245.5</ele>
        <time>2020-11-29T11:44:49Z</time>
      </trkpt>
      <trkpt lat="43.61245" lon="1.19149">
        <ele>245.5</ele>
        <time>2020-11-29T11:44:50Z</time>
      </trkpt>
      <trkpt lat="43.6124" lon="1.19151">
        <ele>245.5</ele>
        <time>2020-11-29T11:44:51Z</time>
      </trkpt>
      <trkpt lat="43.61236" lon="1.19152">
        <ele>245.5</ele>
        <time>2020-11-29T11:44:52Z</time>
      </trkpt>
      <trkpt lat="43.61232" lon="1.19155">
        <ele>245.5</ele>
        <time>2020-11-29T11:44:53Z</time>
      </trkpt>
      <trkpt lat="43.61228" lon="1.19158">
        <ele>245.6</ele>
        <time>2020-11-29T11:44:54Z</time>
      </trkpt>
      <trkpt lat="43.61222" lon="1.19161">
        <ele>245.6</ele>
        <time>2020-11-29T11:44:55Z</time>
      </trkpt>
      <trkpt lat="43.61219" lon="1.19164">
        <ele>245.7</ele>
        <time>2020-11-29T11:44:56Z</time>
      </trkpt>
      <trkpt lat="43.61215" lon="1.19165">
        <ele>245.7</ele>
        <time>2020-11-29T11:44:57Z</time>
      </trkpt>
      <trkpt lat="43.61211" lon="1.19167">
        <ele>245.8</ele>
        <time>2020-11-29T11:44:58Z</time>
      </trkpt>
      <trkpt lat="43.61208" lon="1.19169">
        <ele>245.8</ele>
        <time>2020-11-29T11:44:59Z</time>
      </trkpt>
      <trkpt lat="43.61204" lon="1.19171">
        <ele>245.9</ele>
        <time>2020-11-29T11:45:00Z</time>
      </trkpt>
      <trkpt lat="43.61199" lon="1.19173">
        <ele>245.9</ele>
        <time>2020-11-29T11:45:01Z</time>
      </trkpt>
      <trkpt lat="43.61196" lon="1.19174">
        <ele>246</ele>
        <time>2020-11-29T11:45:02Z</time>
      </trkpt>
      <trkpt lat="43.61191" lon="1.19175">
        <ele>246</ele>
        <time>2020-11-29T11:45:03Z</time>
      </trkpt>
      <trkpt lat="43.61187" lon="1.19176">
        <ele>246</ele>
        <time>2020-11-29T11:45:04Z</time>
      </trkpt>
      <trkpt lat="43.61183" lon="1.19178">
        <ele>246.1</ele>
        <time>2020-11-29T11:45:05Z</time>
      </trkpt>
      <trkpt lat="43.61179" lon="1.19181">
        <ele>246.1</ele>
        <time>2020-11-29T11:45:06Z</time>
      </trkpt>
      <trkpt lat="43.61175" lon="1.19183">
        <ele>246.1</ele>
        <time>2020-11-29T11:45:07Z</time>
      </trkpt>
      <trkpt lat="43.61171" lon="1.19184">
        <ele>246.1</ele>
        <time>2020-11-29T11:45:08Z</time>
      </trkpt>
      <trkpt lat="43.61167" lon="1.19187">
        <ele>246.1</ele>
        <time>2020-11-29T11:45:09Z</time>
      </trkpt>
      <trkpt lat="43.61163" lon="1.19187">
        <ele>246.2</ele>
        <time>2020-11-29T11:45:10Z</time>
      </trkpt>
      <trkpt lat="43.61159" lon="1.19189">
        <ele>246.2</ele>
        <time>2020-11-29T11:45:11Z</time>
      </trkpt>
      <trkpt lat="43.61154" lon="1.1919">
        <ele>246.2</ele>
        <time>2020-11-29T11:45:12Z</time>
      </trkpt>
      <trkpt lat="43.6115" lon="1.1919">
        <ele>246.2</ele>
        <time>2020-11-29T11:45:13Z</time>
      </trkpt>
      <trkpt lat="43.61143" lon="1.19196">
        <ele>246.2</ele>
        <time>2020-11-29T11:45:14Z</time>
      </trkpt>
      <trkpt lat="43.61136" lon="1.19202">
        <ele>246.3</ele>
        <time>2020-11-29T11:45:15Z</time>
      </trkpt>
      <trkpt lat="43.61129" lon="1.19207">
        <ele>246.3</ele>
        <time>2020-11-29T11:45:16Z</time>
      </trkpt>
      <trkpt lat="43.61122" lon="1.19211">
        <ele>246.3</ele>
        <time>2020-11-29T11:45:17Z</time>
      </trkpt>
      <trkpt lat="43.61116" lon="1.19216">
        <ele>246.3</ele>
        <time>2020-11-29T11:45:18Z</time>
      </trkpt>
      <trkpt lat="43.61109" lon="1.1922">
        <ele>246.2</ele>
        <time>2020-11-29T11:45:19Z</time>
      </trkpt>
      <trkpt lat="43.61103" lon="1.19224">
        <ele>246.2</ele>
        <time>2020-11-29T11:45:20Z</time>
      </trkpt>
      <trkpt lat="43.61097" lon="1.19228">
        <ele>246.1</ele>
        <time>2020-11-29T11:45:21Z</time>
      </trkpt>
      <trkpt lat="43.61091" lon="1.19233">
        <ele>246.1</ele>
        <time>2020-11-29T11:45:22Z</time>
      </trkpt>
      <trkpt lat="43.61084" lon="1.19237">
        <ele>246</ele>
        <time>2020-11-29T11:45:23Z</time>
      </trkpt>
      <trkpt lat="43.61078" lon="1.19243">
        <ele>245.8</ele>
        <time>2020-11-29T11:45:24Z</time>
      </trkpt>
      <trkpt lat="43.61071" lon="1.19247">
        <ele>245.7</ele>
        <time>2020-11-29T11:45:25Z</time>
      </trkpt>
      <trkpt lat="43.61064" lon="1.1925">
        <ele>245.5</ele>
        <time>2020-11-29T11:45:26Z</time>
      </trkpt>
      <trkpt lat="43.61059" lon="1.19253">
        <ele>245.3</ele>
        <time>2020-11-29T11:45:27Z</time>
      </trkpt>
      <trkpt lat="43.61054" lon="1.19254">
        <ele>245.2</ele>
        <time>2020-11-29T11:45:28Z</time>
      </trkpt>
      <trkpt lat="43.61049" lon="1.19256">
        <ele>245.1</ele>
        <time>2020-11-29T11:45:29Z</time>
      </trkpt>
      <trkpt lat="43.61044" lon="1.1926">
        <ele>245.1</ele>
        <time>2020-11-29T11:45:30Z</time>
      </trkpt>
      <trkpt lat="43.61039" lon="1.19262">
        <ele>245.1</ele>
        <time>2020-11-29T11:45:31Z</time>
      </trkpt>
      <trkpt lat="43.61034" lon="1.19265">
        <ele>245.1</ele>
        <time>2020-11-29T11:45:32Z</time>
      </trkpt>
      <trkpt lat="43.61029" lon="1.19268">
        <ele>245.2</ele>
        <time>2020-11-29T11:45:33Z</time>
      </trkpt>
      <trkpt lat="43.61025" lon="1.19271">
        <ele>245.3</ele>
        <time>2020-11-29T11:45:34Z</time>
      </trkpt>
      <trkpt lat="43.61019" lon="1.19274">
        <ele>245.4</ele>
        <time>2020-11-29T11:45:35Z</time>
      </trkpt>
      <trkpt lat="43.61014" lon="1.19277">
        <ele>245.5</ele>
        <time>2020-11-29T11:45:36Z</time>
      </trkpt>
      <trkpt lat="43.61009" lon="1.19278">
        <ele>245.6</ele>
        <time>2020-11-29T11:45:37Z</time>
      </trkpt>
      <trkpt lat="43.61003" lon="1.19281">
        <ele>245.8</ele>
        <time>2020-11-29T11:45:38Z</time>
      </trkpt>
      <trkpt lat="43.60997" lon="1.19285">
        <ele>245.9</ele>
        <time>2020-11-29T11:45:39Z</time>
      </trkpt>
      <trkpt lat="43.6099" lon="1.19288">
        <ele>246</ele>
        <time>2020-11-29T11:45:40Z</time>
      </trkpt>
      <trkpt lat="43.60985" lon="1.19291">
        <ele>246</ele>
        <time>2020-11-29T11:45:41Z</time>
      </trkpt>
      <trkpt lat="43.6098" lon="1.19294">
        <ele>246.1</ele>
        <time>2020-11-29T11:45:42Z</time>
      </trkpt>
      <trkpt lat="43.60974" lon="1.19297">
        <ele>246.1</ele>
        <time>2020-11-29T11:45:43Z</time>
      </trkpt>
      <trkpt lat="43.60968" lon="1.19301">
        <ele>246.1</ele>
        <time>2020-11-29T11:45:44Z</time>
      </trkpt>
      <trkpt lat="43.60962" lon="1.19304">
        <ele>246.2</ele>
        <time>2020-11-29T11:45:45Z</time>
      </trkpt>
      <trkpt lat="43.60957" lon="1.19307">
        <ele>246.2</ele>
        <time>2020-11-29T11:45:46Z</time>
      </trkpt>
      <trkpt lat="43.60953" lon="1.19309">
        <ele>246.2</ele>
        <time>2020-11-29T11:45:47Z</time>
      </trkpt>
      <trkpt lat="43.60948" lon="1.1931">
        <ele>246.2</ele>
        <time>2020-11-29T11:45:48Z</time>
      </trkpt>
      <trkpt lat="43.60944" lon="1.19311">
        <ele>246.2</ele>
        <time>2020-11-29T11:45:49Z</time>
      </trkpt>
      <trkpt lat="43.6094" lon="1.19313">
        <ele>246.2</ele>
        <time>2020-11-29T11:45:50Z</time>
      </trkpt>
      <trkpt lat="43.60936" lon="1.19314">
        <ele>246.2</ele>
        <time>2020-11-29T11:45:51Z</time>
      </trkpt>
      <trkpt lat="43.60933" lon="1.19315">
        <ele>246.2</ele>
        <time>2020-11-29T11:45:52Z</time>
      </trkpt>
      <trkpt lat="43.6093" lon="1.19316">
        <ele>246.2</ele>
        <time>2020-11-29T11:45:53Z</time>
      </trkpt>
      <trkpt lat="43.60926" lon="1.19315">
        <ele>246.2</ele>
        <time>2020-11-29T11:45:54Z</time>
      </trkpt>
      <trkpt lat="43.60921" lon="1.19317">
        <ele>246.2</ele>
        <time>2020-11-29T11:45:55Z</time>
      </trkpt>
      <trkpt lat="43.60916" lon="1.19318">
        <ele>246.2</ele>
        <time>2020-11-29T11:45:56Z</time>
      </trkpt>
      <trkpt lat="43.60909" lon="1.19325">
        <ele>246.2</ele>
        <time>2020-11-29T11:45:57Z</time>
      </trkpt>
      <trkpt lat="43.60903" lon="1.1933">
        <ele>246</ele>
        <time>2020-11-29T11:45:58Z</time>
      </trkpt>
      <trkpt lat="43.60898" lon="1.19333">
        <ele>245.9</ele>
        <time>2020-11-29T11:45:59Z</time>
      </trkpt>
      <trkpt lat="43.60892" lon="1.19336">
        <ele>245.9</ele>
        <time>2020-11-29T11:46:00Z</time>
      </trkpt>
      <trkpt lat="43.60886" lon="1.19338">
        <ele>245.8</ele>
        <time>2020-11-29T11:46:01Z</time>
      </trkpt>
      <trkpt lat="43.6088" lon="1.19341">
        <ele>245.8</ele>
        <time>2020-11-29T11:46:02Z</time>
      </trkpt>
      <trkpt lat="43.60874" lon="1.19346">
        <ele>245.8</ele>
        <time>2020-11-29T11:46:03Z</time>
      </trkpt>
      <trkpt lat="43.60867" lon="1.1935">
        <ele>245.8</ele>
        <time>2020-11-29T11:46:04Z</time>
      </trkpt>
      <trkpt lat="43.60861" lon="1.19353">
        <ele>245.8</ele>
        <time>2020-11-29T11:46:05Z</time>
      </trkpt>
      <trkpt lat="43.60855" lon="1.19355">
        <ele>245.8</ele>
        <time>2020-11-29T11:46:06Z</time>
      </trkpt>
      <trkpt lat="43.6085" lon="1.19357">
        <ele>245.8</ele>
        <time>2020-11-29T11:46:07Z</time>
      </trkpt>
      <trkpt lat="43.60844" lon="1.1936">
        <ele>245.9</ele>
        <time>2020-11-29T11:46:08Z</time>
      </trkpt>
      <trkpt lat="43.60839" lon="1.19362">
        <ele>245.9</ele>
        <time>2020-11-29T11:46:09Z</time>
      </trkpt>
      <trkpt lat="43.60834" lon="1.19364">
        <ele>245.9</ele>
        <time>2020-11-29T11:46:10Z</time>
      </trkpt>
      <trkpt lat="43.60828" lon="1.19366">
        <ele>246</ele>
        <time>2020-11-29T11:46:11Z</time>
      </trkpt>
      <trkpt lat="43.60823" lon="1.19367">
        <ele>246</ele>
        <time>2020-11-29T11:46:12Z</time>
      </trkpt>
      <trkpt lat="43.60817" lon="1.19369">
        <ele>246.1</ele>
        <time>2020-11-29T11:46:13Z</time>
      </trkpt>
      <trkpt lat="43.60811" lon="1.19372">
        <ele>246.1</ele>
        <time>2020-11-29T11:46:14Z</time>
      </trkpt>
      <trkpt lat="43.60806" lon="1.19374">
        <ele>246.2</ele>
        <time>2020-11-29T11:46:15Z</time>
      </trkpt>
      <trkpt lat="43.60802" lon="1.19375">
        <ele>246.2</ele>
        <time>2020-11-29T11:46:16Z</time>
      </trkpt>
      <trkpt lat="43.60798" lon="1.19374">
        <ele>246.3</ele>
        <time>2020-11-29T11:46:17Z</time>
      </trkpt>
      <trkpt lat="43.60794" lon="1.19372">
        <ele>246.3</ele>
        <time>2020-11-29T11:46:18Z</time>
      </trkpt>
      <trkpt lat="43.6079" lon="1.19369">
        <ele>246.3</ele>
        <time>2020-11-29T11:46:19Z</time>
      </trkpt>
      <trkpt lat="43.60786" lon="1.19365">
        <ele>246.4</ele>
        <time>2020-11-29T11:46:20Z</time>
      </trkpt>
      <trkpt lat="43.60781" lon="1.19361">
        <ele>246.4</ele>
        <time>2020-11-29T11:46:21Z</time>
      </trkpt>
      <trkpt lat="43.60776" lon="1.19357">
        <ele>246.4</ele>
        <time>2020-11-29T11:46:22Z</time>
      </trkpt>
      <trkpt lat="43.60771" lon="1.19353">
        <ele>246.4</ele>
        <time>2020-11-29T11:46:23Z</time>
      </trkpt>
      <trkpt lat="43.60768" lon="1.1935">
        <ele>246.4</ele>
        <time>2020-11-29T11:46:24Z</time>
      </trkpt>
      <trkpt lat="43.60764" lon="1.19347">
        <ele>246.5</ele>
        <time>2020-11-29T11:46:25Z</time>
      </trkpt>
      <trkpt lat="43.6076" lon="1.19344">
        <ele>246.5</ele>
        <time>2020-11-29T11:46:26Z</time>
      </trkpt>
      <trkpt lat="43.60756" lon="1.19341">
        <ele>246.5</ele>
        <time>2020-11-29T11:46:27Z</time>
      </trkpt>
      <trkpt lat="43.60753" lon="1.19338">
        <ele>246.5</ele>
        <time>2020-11-29T11:46:28Z</time>
      </trkpt>
      <trkpt lat="43.6075" lon="1.19336">
        <ele>246.5</ele>
        <time>2020-11-29T11:46:29Z</time>
      </trkpt>
      <trkpt lat="43.60745" lon="1.19334">
        <ele>246.5</ele>
        <time>2020-11-29T11:46:30Z</time>
      </trkpt>
      <trkpt lat="43.60742" lon="1.19333">
        <ele>246.5</ele>
        <time>2020-11-29T11:46:31Z</time>
      </trkpt>
      <trkpt lat="43.60738" lon="1.1933">
        <ele>246.6</ele>
        <time>2020-11-29T11:46:32Z</time>
      </trkpt>
      <trkpt lat="43.60734" lon="1.19328">
        <ele>246.6</ele>
        <time>2020-11-29T11:46:33Z</time>
      </trkpt>
      <trkpt lat="43.6073" lon="1.19326">
        <ele>246.6</ele>
        <time>2020-11-29T11:46:34Z</time>
      </trkpt>
      <trkpt lat="43.60726" lon="1.19323">
        <ele>246.7</ele>
        <time>2020-11-29T11:46:35Z</time>
      </trkpt>
      <trkpt lat="43.60721" lon="1.1932">
        <ele>246.7</ele>
        <time>2020-11-29T11:46:36Z</time>
      </trkpt>
      <trkpt lat="43.60717" lon="1.19318">
        <ele>246.7</ele>
        <time>2020-11-29T11:46:37Z</time>
      </trkpt>
      <trkpt lat="43.60714" lon="1.19315">
        <ele>246.8</ele>
        <time>2020-11-29T11:46:38Z</time>
      </trkpt>
      <trkpt lat="43.6071" lon="1.19313">
        <ele>246.8</ele>
        <time>2020-11-29T11:46:39Z</time>
      </trkpt>
      <trkpt lat="43.60707" lon="1.1931">
        <ele>246.8</ele>
        <time>2020-11-29T11:46:40Z</time>
      </trkpt>
      <trkpt lat="43.60703" lon="1.19306">
        <ele>246.9</ele>
        <time>2020-11-29T11:46:41Z</time>
      </trkpt>
      <trkpt lat="43.60699" lon="1.19302">
        <ele>246.9</ele>
        <time>2020-11-29T11:46:42Z</time>
      </trkpt>
      <trkpt lat="43.60696" lon="1.19299">
        <ele>247</ele>
        <time>2020-11-29T11:46:43Z</time>
      </trkpt>
      <trkpt lat="43.60693" lon="1.19297">
        <ele>247</ele>
        <time>2020-11-29T11:46:44Z</time>
      </trkpt>
      <trkpt lat="43.60688" lon="1.19294">
        <ele>247</ele>
        <time>2020-11-29T11:46:45Z</time>
      </trkpt>
      <trkpt lat="43.60684" lon="1.19291">
        <ele>247.1</ele>
        <time>2020-11-29T11:46:46Z</time>
      </trkpt>
      <trkpt lat="43.60678" lon="1.19288">
        <ele>247.1</ele>
        <time>2020-11-29T11:46:47Z</time>
      </trkpt>
      <trkpt lat="43.60673" lon="1.19285">
        <ele>247.1</ele>
        <time>2020-11-29T11:46:48Z</time>
      </trkpt>
      <trkpt lat="43.60668" lon="1.19282">
        <ele>247.1</ele>
        <time>2020-11-29T11:46:49Z</time>
      </trkpt>
      <trkpt lat="43.60664" lon="1.19279">
        <ele>247.1</ele>
        <time>2020-11-29T11:46:50Z</time>
      </trkpt>
      <trkpt lat="43.6066" lon="1.19276">
        <ele>247.1</ele>
        <time>2020-11-29T11:46:51Z</time>
      </trkpt>
      <trkpt lat="43.60656" lon="1.19273">
        <ele>247.1</ele>
        <time>2020-11-29T11:46:52Z</time>
      </trkpt>
      <trkpt lat="43.60653" lon="1.19269">
        <ele>247.1</ele>
        <time>2020-11-29T11:46:53Z</time>
      </trkpt>
      <trkpt lat="43.60649" lon="1.19265">
        <ele>247.1</ele>
        <time>2020-11-29T11:46:54Z</time>
      </trkpt>
      <trkpt lat="43.60645" lon="1.1926">
        <ele>247.1</ele>
        <time>2020-11-29T11:46:55Z</time>
      </trkpt>
      <trkpt lat="43.6064" lon="1.19256">
        <ele>247.1</ele>
        <time>2020-11-29T11:46:56Z</time>
      </trkpt>
      <trkpt lat="43.60634" lon="1.19251">
        <ele>247</ele>
        <time>2020-11-29T11:46:57Z</time>
      </trkpt>
      <trkpt lat="43.60629" lon="1.19247">
        <ele>247</ele>
        <time>2020-11-29T11:46:58Z</time>
      </trkpt>
      <trkpt lat="43.60624" lon="1.19243">
        <ele>246.9</ele>
        <time>2020-11-29T11:46:59Z</time>
      </trkpt>
      <trkpt lat="43.6062" lon="1.19238">
        <ele>246.9</ele>
        <time>2020-11-29T11:47:00Z</time>
      </trkpt>
      <trkpt lat="43.60615" lon="1.19234">
        <ele>246.7</ele>
        <time>2020-11-29T11:47:01Z</time>
      </trkpt>
      <trkpt lat="43.6061" lon="1.19229">
        <ele>246.5</ele>
        <time>2020-11-29T11:47:02Z</time>
      </trkpt>
      <trkpt lat="43.60605" lon="1.19224">
        <ele>246.3</ele>
        <time>2020-11-29T11:47:03Z</time>
      </trkpt>
      <trkpt lat="43.606" lon="1.1922">
        <ele>246.1</ele>
        <time>2020-11-29T11:47:04Z</time>
      </trkpt>
      <trkpt lat="43.60595" lon="1.19216">
        <ele>245.9</ele>
        <time>2020-11-29T11:47:05Z</time>
      </trkpt>
      <trkpt lat="43.6059" lon="1.19212">
        <ele>245.7</ele>
        <time>2020-11-29T11:47:06Z</time>
      </trkpt>
      <trkpt lat="43.60586" lon="1.19208">
        <ele>245.4</ele>
        <time>2020-11-29T11:47:07Z</time>
      </trkpt>
      <trkpt lat="43.60581" lon="1.19204">
        <ele>245.1</ele>
        <time>2020-11-29T11:47:08Z</time>
      </trkpt>
      <trkpt lat="43.60575" lon="1.192">
        <ele>244.7</ele>
        <time>2020-11-29T11:47:09Z</time>
      </trkpt>
      <trkpt lat="43.60569" lon="1.19197">
        <ele>244.4</ele>
        <time>2020-11-29T11:47:10Z</time>
      </trkpt>
      <trkpt lat="43.60563" lon="1.19193">
        <ele>244</ele>
        <time>2020-11-29T11:47:11Z</time>
      </trkpt>
      <trkpt lat="43.60557" lon="1.19188">
        <ele>243.5</ele>
        <time>2020-11-29T11:47:12Z</time>
      </trkpt>
      <trkpt lat="43.60552" lon="1.19184">
        <ele>243.2</ele>
        <time>2020-11-29T11:47:13Z</time>
      </trkpt>
      <trkpt lat="43.60547" lon="1.19177">
        <ele>242.7</ele>
        <time>2020-11-29T11:47:14Z</time>
      </trkpt>
      <trkpt lat="43.60541" lon="1.19173">
        <ele>242.2</ele>
        <time>2020-11-29T11:47:15Z</time>
      </trkpt>
      <trkpt lat="43.60533" lon="1.19168">
        <ele>241.7</ele>
        <time>2020-11-29T11:47:16Z</time>
      </trkpt>
      <trkpt lat="43.60526" lon="1.19164">
        <ele>241.1</ele>
        <time>2020-11-29T11:47:17Z</time>
      </trkpt>
      <trkpt lat="43.60518" lon="1.19158">
        <ele>240.5</ele>
        <time>2020-11-29T11:47:18Z</time>
      </trkpt>
      <trkpt lat="43.6051" lon="1.19153">
        <ele>240</ele>
        <time>2020-11-29T11:47:19Z</time>
      </trkpt>
      <trkpt lat="43.60503" lon="1.19148">
        <ele>239.5</ele>
        <time>2020-11-29T11:47:20Z</time>
      </trkpt>
      <trkpt lat="43.60495" lon="1.19143">
        <ele>239</ele>
        <time>2020-11-29T11:47:21Z</time>
      </trkpt>
      <trkpt lat="43.60488" lon="1.19137">
        <ele>238.8</ele>
        <time>2020-11-29T11:47:22Z</time>
      </trkpt>
      <trkpt lat="43.60482" lon="1.1913">
        <ele>238.6</ele>
        <time>2020-11-29T11:47:23Z</time>
      </trkpt>
      <trkpt lat="43.60475" lon="1.19124">
        <ele>238.5</ele>
        <time>2020-11-29T11:47:24Z</time>
      </trkpt>
      <trkpt lat="43.60468" lon="1.19119">
        <ele>238.4</ele>
        <time>2020-11-29T11:47:25Z</time>
      </trkpt>
      <trkpt lat="43.60461" lon="1.19114">
        <ele>238.4</ele>
        <time>2020-11-29T11:47:26Z</time>
      </trkpt>
      <trkpt lat="43.60455" lon="1.19108">
        <ele>238.5</ele>
        <time>2020-11-29T11:47:27Z</time>
      </trkpt>
      <trkpt lat="43.60449" lon="1.19103">
        <ele>238.7</ele>
        <time>2020-11-29T11:47:28Z</time>
      </trkpt>
      <trkpt lat="43.60444" lon="1.19098">
        <ele>238.8</ele>
        <time>2020-11-29T11:47:29Z</time>
      </trkpt>
      <trkpt lat="43.60439" lon="1.19094">
        <ele>239</ele>
        <time>2020-11-29T11:47:30Z</time>
      </trkpt>
      <trkpt lat="43.60435" lon="1.1909">
        <ele>239.2</ele>
        <time>2020-11-29T11:47:31Z</time>
      </trkpt>
      <trkpt lat="43.60431" lon="1.19087">
        <ele>239.4</ele>
        <time>2020-11-29T11:47:32Z</time>
      </trkpt>
      <trkpt lat="43.60427" lon="1.19085">
        <ele>239.5</ele>
        <time>2020-11-29T11:47:33Z</time>
      </trkpt>
      <trkpt lat="43.60424" lon="1.19083">
        <ele>239.7</ele>
        <time>2020-11-29T11:47:34Z</time>
      </trkpt>
      <trkpt lat="43.60421" lon="1.19081">
        <ele>239.8</ele>
        <time>2020-11-29T11:47:35Z</time>
      </trkpt>
      <trkpt lat="43.60418" lon="1.19078">
        <ele>239.9</ele>
        <time>2020-11-29T11:47:36Z</time>
      </trkpt>
      <trkpt lat="43.60415" lon="1.19075">
        <ele>240.1</ele>
        <time>2020-11-29T11:47:37Z</time>
      </trkpt>
      <trkpt lat="43.60413" lon="1.19074">
        <ele>240.1</ele>
        <time>2020-11-29T11:47:38Z</time>
      </trkpt>
      <trkpt lat="43.6041" lon="1.19072">
        <ele>240.3</ele>
        <time>2020-11-29T11:47:39Z</time>
      </trkpt>
      <trkpt lat="43.60407" lon="1.19071">
        <ele>240.6</ele>
        <time>2020-11-29T11:47:40Z</time>
      </trkpt>
      <trkpt lat="43.60403" lon="1.19068">
        <ele>240.8</ele>
        <time>2020-11-29T11:47:41Z</time>
      </trkpt>
      <trkpt lat="43.60399" lon="1.19065">
        <ele>241</ele>
        <time>2020-11-29T11:47:42Z</time>
      </trkpt>
      <trkpt lat="43.60395" lon="1.19061">
        <ele>241.3</ele>
        <time>2020-11-29T11:47:43Z</time>
      </trkpt>
      <trkpt lat="43.60392" lon="1.19058">
        <ele>241.5</ele>
        <time>2020-11-29T11:47:44Z</time>
      </trkpt>
      <trkpt lat="43.60388" lon="1.19056">
        <ele>241.7</ele>
        <time>2020-11-29T11:47:45Z</time>
      </trkpt>
      <trkpt lat="43.60385" lon="1.19053">
        <ele>241.9</ele>
        <time>2020-11-29T11:47:46Z</time>
      </trkpt>
      <trkpt lat="43.60381" lon="1.1905">
        <ele>242</ele>
        <time>2020-11-29T11:47:47Z</time>
      </trkpt>
      <trkpt lat="43.60377" lon="1.19047">
        <ele>242.1</ele>
        <time>2020-11-29T11:47:48Z</time>
      </trkpt>
      <trkpt lat="43.60371" lon="1.19042">
        <ele>242.1</ele>
        <time>2020-11-29T11:47:49Z</time>
      </trkpt>
      <trkpt lat="43.60367" lon="1.19039">
        <ele>242.1</ele>
        <time>2020-11-29T11:47:50Z</time>
      </trkpt>
      <trkpt lat="43.60362" lon="1.19034">
        <ele>242</ele>
        <time>2020-11-29T11:47:51Z</time>
      </trkpt>
      <trkpt lat="43.60357" lon="1.19029">
        <ele>241.9</ele>
        <time>2020-11-29T11:47:52Z</time>
      </trkpt>
      <trkpt lat="43.60352" lon="1.19024">
        <ele>241.6</ele>
        <time>2020-11-29T11:47:53Z</time>
      </trkpt>
      <trkpt lat="43.60347" lon="1.1902">
        <ele>241.4</ele>
        <time>2020-11-29T11:47:54Z</time>
      </trkpt>
      <trkpt lat="43.60341" lon="1.19016">
        <ele>241.1</ele>
        <time>2020-11-29T11:47:55Z</time>
      </trkpt>
      <trkpt lat="43.60338" lon="1.19012">
        <ele>240.9</ele>
        <time>2020-11-29T11:47:56Z</time>
      </trkpt>
      <trkpt lat="43.60333" lon="1.19009">
        <ele>240.7</ele>
        <time>2020-11-29T11:47:57Z</time>
      </trkpt>
      <trkpt lat="43.60326" lon="1.19003">
        <ele>240.4</ele>
        <time>2020-11-29T11:47:58Z</time>
      </trkpt>
      <trkpt lat="43.6032" lon="1.18998">
        <ele>240.1</ele>
        <time>2020-11-29T11:47:59Z</time>
      </trkpt>
      <trkpt lat="43.60315" lon="1.18994">
        <ele>239.9</ele>
        <time>2020-11-29T11:48:00Z</time>
      </trkpt>
      <trkpt lat="43.60309" lon="1.18992">
        <ele>239.6</ele>
        <time>2020-11-29T11:48:01Z</time>
      </trkpt>
      <trkpt lat="43.60303" lon="1.18988">
        <ele>239.3</ele>
        <time>2020-11-29T11:48:02Z</time>
      </trkpt>
      <trkpt lat="43.60297" lon="1.18983">
        <ele>239</ele>
        <time>2020-11-29T11:48:03Z</time>
      </trkpt>
      <trkpt lat="43.60291" lon="1.1898">
        <ele>238.7</ele>
        <time>2020-11-29T11:48:04Z</time>
      </trkpt>
      <trkpt lat="43.60286" lon="1.18974">
        <ele>238.4</ele>
        <time>2020-11-29T11:48:05Z</time>
      </trkpt>
      <trkpt lat="43.6028" lon="1.18969">
        <ele>238.1</ele>
        <time>2020-11-29T11:48:06Z</time>
      </trkpt>
      <trkpt lat="43.60274" lon="1.18966">
        <ele>237.8</ele>
        <time>2020-11-29T11:48:07Z</time>
      </trkpt>
      <trkpt lat="43.60269" lon="1.18962">
        <ele>237.5</ele>
        <time>2020-11-29T11:48:08Z</time>
      </trkpt>
      <trkpt lat="43.60264" lon="1.18958">
        <ele>237.3</ele>
        <time>2020-11-29T11:48:09Z</time>
      </trkpt>
      <trkpt lat="43.60262" lon="1.18954">
        <ele>237.2</ele>
        <time>2020-11-29T11:48:10Z</time>
      </trkpt>
      <trkpt lat="43.60258" lon="1.18951">
        <ele>237.1</ele>
        <time>2020-11-29T11:48:11Z</time>
      </trkpt>
      <trkpt lat="43.60256" lon="1.18948">
        <ele>237.1</ele>
        <time>2020-11-29T11:48:12Z</time>
      </trkpt>
      <trkpt lat="43.60254" lon="1.18945">
        <ele>237</ele>
        <time>2020-11-29T11:48:13Z</time>
      </trkpt>
      <trkpt lat="43.60253" lon="1.18941">
        <ele>237</ele>
        <time>2020-11-29T11:48:14Z</time>
      </trkpt>
      <trkpt lat="43.60254" lon="1.18937">
        <ele>237.1</ele>
        <time>2020-11-29T11:48:15Z</time>
      </trkpt>
      <trkpt lat="43.60255" lon="1.18935">
        <ele>237.1</ele>
        <time>2020-11-29T11:48:16Z</time>
      </trkpt>
      <trkpt lat="43.60258" lon="1.18929">
        <ele>237.2</ele>
        <time>2020-11-29T11:48:17Z</time>
      </trkpt>
      <trkpt lat="43.6026" lon="1.18925">
        <ele>237.3</ele>
        <time>2020-11-29T11:48:18Z</time>
      </trkpt>
      <trkpt lat="43.60262" lon="1.18921">
        <ele>237.4</ele>
        <time>2020-11-29T11:48:19Z</time>
      </trkpt>
      <trkpt lat="43.60264" lon="1.18918">
        <ele>237.6</ele>
        <time>2020-11-29T11:48:20Z</time>
      </trkpt>
      <trkpt lat="43.60267" lon="1.18914">
        <ele>237.7</ele>
        <time>2020-11-29T11:48:21Z</time>
      </trkpt>
      <trkpt lat="43.60268" lon="1.18911">
        <ele>237.9</ele>
        <time>2020-11-29T11:48:22Z</time>
      </trkpt>
      <trkpt lat="43.6027" lon="1.18907">
        <ele>238</ele>
        <time>2020-11-29T11:48:23Z</time>
      </trkpt>
      <trkpt lat="43.6027" lon="1.18906">
        <ele>238.1</ele>
        <time>2020-11-29T11:48:24Z</time>
      </trkpt>
      <trkpt lat="43.60273" lon="1.18903">
        <ele>238.3</ele>
        <time>2020-11-29T11:48:25Z</time>
      </trkpt>
      <trkpt lat="43.60275" lon="1.18899">
        <ele>238.5</ele>
        <time>2020-11-29T11:48:26Z</time>
      </trkpt>
      <trkpt lat="43.60275" lon="1.18898">
        <ele>238.5</ele>
        <time>2020-11-29T11:48:27Z</time>
      </trkpt>
      <trkpt lat="43.60277" lon="1.18894">
        <ele>238.8</ele>
        <time>2020-11-29T11:48:28Z</time>
      </trkpt>
      <trkpt lat="43.60279" lon="1.18891">
        <ele>239</ele>
        <time>2020-11-29T11:48:29Z</time>
      </trkpt>
      <trkpt lat="43.6028" lon="1.1889">
        <ele>239</ele>
        <time>2020-11-29T11:48:30Z</time>
      </trkpt>
      <trkpt lat="43.60283" lon="1.18889">
        <ele>239.2</ele>
        <time>2020-11-29T11:48:31Z</time>
      </trkpt>
      <trkpt lat="43.60285" lon="1.18885">
        <ele>239.4</ele>
        <time>2020-11-29T11:48:32Z</time>
      </trkpt>
      <trkpt lat="43.60288" lon="1.18881">
        <ele>239.7</ele>
        <time>2020-11-29T11:48:33Z</time>
      </trkpt>
      <trkpt lat="43.6029" lon="1.18876">
        <ele>239.9</ele>
        <time>2020-11-29T11:48:34Z</time>
      </trkpt>
      <trkpt lat="43.60292" lon="1.18872">
        <ele>240.1</ele>
        <time>2020-11-29T11:48:35Z</time>
      </trkpt>
      <trkpt lat="43.60294" lon="1.18869">
        <ele>240.3</ele>
        <time>2020-11-29T11:48:36Z</time>
      </trkpt>
      <trkpt lat="43.60294" lon="1.18867">
        <ele>240.4</ele>
        <time>2020-11-29T11:48:37Z</time>
      </trkpt>
      <trkpt lat="43.60297" lon="1.18864">
        <ele>240.6</ele>
        <time>2020-11-29T11:48:38Z</time>
      </trkpt>
      <trkpt lat="43.60299" lon="1.18861">
        <ele>240.8</ele>
        <time>2020-11-29T11:48:39Z</time>
      </trkpt>
      <trkpt lat="43.603" lon="1.18859">
        <ele>240.9</ele>
        <time>2020-11-29T11:48:40Z</time>
      </trkpt>
      <trkpt lat="43.60302" lon="1.18854">
        <ele>241.1</ele>
        <time>2020-11-29T11:48:41Z</time>
      </trkpt>
      <trkpt lat="43.60303" lon="1.18852">
        <ele>241.3</ele>
        <time>2020-11-29T11:48:42Z</time>
      </trkpt>
      <trkpt lat="43.60305" lon="1.18847">
        <ele>241.5</ele>
        <time>2020-11-29T11:48:43Z</time>
      </trkpt>
      <trkpt lat="43.60308" lon="1.18844">
        <ele>241.6</ele>
        <time>2020-11-29T11:48:44Z</time>
      </trkpt>
      <trkpt lat="43.60308" lon="1.18843">
        <ele>241.7</ele>
        <time>2020-11-29T11:48:45Z</time>
      </trkpt>
      <trkpt lat="43.6031" lon="1.18841">
        <ele>241.8</ele>
        <time>2020-11-29T11:48:46Z</time>
      </trkpt>
      <trkpt lat="43.60313" lon="1.18837">
        <ele>242</ele>
        <time>2020-11-29T11:48:47Z</time>
      </trkpt>
      <trkpt lat="43.60313" lon="1.18833">
        <ele>242.1</ele>
        <time>2020-11-29T11:48:48Z</time>
      </trkpt>
      <trkpt lat="43.60314" lon="1.18831">
        <ele>242.2</ele>
        <time>2020-11-29T11:48:49Z</time>
      </trkpt>
      <trkpt lat="43.60315" lon="1.18827">
        <ele>242.4</ele>
        <time>2020-11-29T11:48:50Z</time>
      </trkpt>
      <trkpt lat="43.60316" lon="1.18821">
        <ele>242.7</ele>
        <time>2020-11-29T11:48:51Z</time>
      </trkpt>
      <trkpt lat="43.60317" lon="1.18817">
        <ele>242.9</ele>
        <time>2020-11-29T11:48:52Z</time>
      </trkpt>
      <trkpt lat="43.60319" lon="1.18812">
        <ele>243.2</ele>
        <time>2020-11-29T11:48:53Z</time>
      </trkpt>
      <trkpt lat="43.60321" lon="1.18806">
        <ele>243.6</ele>
        <time>2020-11-29T11:48:54Z</time>
      </trkpt>
      <trkpt lat="43.60322" lon="1.18801">
        <ele>243.9</ele>
        <time>2020-11-29T11:48:55Z</time>
      </trkpt>
      <trkpt lat="43.60323" lon="1.18799">
        <ele>244</ele>
        <time>2020-11-29T11:48:56Z</time>
      </trkpt>
      <trkpt lat="43.60324" lon="1.18792">
        <ele>244.5</ele>
        <time>2020-11-29T11:48:57Z</time>
      </trkpt>
      <trkpt lat="43.60325" lon="1.1879">
        <ele>244.7</ele>
        <time>2020-11-29T11:48:58Z</time>
      </trkpt>
      <trkpt lat="43.60327" lon="1.18783">
        <ele>245.2</ele>
        <time>2020-11-29T11:48:59Z</time>
      </trkpt>
      <trkpt lat="43.60329" lon="1.18778">
        <ele>245.7</ele>
        <time>2020-11-29T11:49:00Z</time>
      </trkpt>
      <trkpt lat="43.60329" lon="1.18774">
        <ele>246.2</ele>
        <time>2020-11-29T11:49:01Z</time>
      </trkpt>
      <trkpt lat="43.6033" lon="1.18772">
        <ele>246.3</ele>
        <time>2020-11-29T11:49:02Z</time>
      </trkpt>
      <trkpt lat="43.60333" lon="1.18769">
        <ele>246.8</ele>
        <time>2020-11-29T11:49:03Z</time>
      </trkpt>
      <trkpt lat="43.60334" lon="1.18766">
        <ele>247.2</ele>
        <time>2020-11-29T11:49:04Z</time>
      </trkpt>
      <trkpt lat="43.60337" lon="1.18762">
        <ele>247.8</ele>
        <time>2020-11-29T11:49:05Z</time>
      </trkpt>
      <trkpt lat="43.60338" lon="1.18761">
        <ele>247.9</ele>
        <time>2020-11-29T11:49:06Z</time>
      </trkpt>
      <trkpt lat="43.60338" lon="1.18761">
        <ele>248</ele>
        <time>2020-11-29T11:49:07Z</time>
      </trkpt>
      <trkpt lat="43.6034" lon="1.1876">
        <ele>248.3</ele>
        <time>2020-11-29T11:49:08Z</time>
      </trkpt>
      <trkpt lat="43.60343" lon="1.18757">
        <ele>248.8</ele>
        <time>2020-11-29T11:49:09Z</time>
      </trkpt>
      <trkpt lat="43.60344" lon="1.18756">
        <ele>249</ele>
        <time>2020-11-29T11:49:10Z</time>
      </trkpt>
      <trkpt lat="43.60346" lon="1.18753">
        <ele>249.4</ele>
        <time>2020-11-29T11:49:11Z</time>
      </trkpt>
      <trkpt lat="43.60348" lon="1.18749">
        <ele>249.9</ele>
        <time>2020-11-29T11:49:12Z</time>
      </trkpt>
      <trkpt lat="43.60349" lon="1.18748">
        <ele>250</ele>
        <time>2020-11-29T11:49:13Z</time>
      </trkpt>
      <trkpt lat="43.6035" lon="1.18746">
        <ele>250.3</ele>
        <time>2020-11-29T11:49:14Z</time>
      </trkpt>
      <trkpt lat="43.6035" lon="1.18743">
        <ele>250.5</ele>
        <time>2020-11-29T11:49:15Z</time>
      </trkpt>
      <trkpt lat="43.60351" lon="1.18739">
        <ele>250.9</ele>
        <time>2020-11-29T11:49:16Z</time>
      </trkpt>
      <trkpt lat="43.60351" lon="1.18737">
        <ele>251</ele>
        <time>2020-11-29T11:49:17Z</time>
      </trkpt>
      <trkpt lat="43.6035" lon="1.18735">
        <ele>251.3</ele>
        <time>2020-11-29T11:49:18Z</time>
      </trkpt>
      <trkpt lat="43.6035" lon="1.18733">
        <ele>251.5</ele>
        <time>2020-11-29T11:49:19Z</time>
      </trkpt>
      <trkpt lat="43.60353" lon="1.18729">
        <ele>251.9</ele>
        <time>2020-11-29T11:49:20Z</time>
      </trkpt>
      <trkpt lat="43.60355" lon="1.18727">
        <ele>252.2</ele>
        <time>2020-11-29T11:49:21Z</time>
      </trkpt>
      <trkpt lat="43.60357" lon="1.18724">
        <ele>252.6</ele>
        <time>2020-11-29T11:49:22Z</time>
      </trkpt>
      <trkpt lat="43.60359" lon="1.1872">
        <ele>252.9</ele>
        <time>2020-11-29T11:49:23Z</time>
      </trkpt>
      <trkpt lat="43.60362" lon="1.18715">
        <ele>253.4</ele>
        <time>2020-11-29T11:49:24Z</time>
      </trkpt>
      <trkpt lat="43.60363" lon="1.18712">
        <ele>253.6</ele>
        <time>2020-11-29T11:49:25Z</time>
      </trkpt>
      <trkpt lat="43.60366" lon="1.18708">
        <ele>253.6</ele>
        <time>2020-11-29T11:49:26Z</time>
      </trkpt>
      <trkpt lat="43.60368" lon="1.18702">
        <ele>253.7</ele>
        <time>2020-11-29T11:49:27Z</time>
      </trkpt>
      <trkpt lat="43.6037" lon="1.18697">
        <ele>254</ele>
        <time>2020-11-29T11:49:28Z</time>
      </trkpt>
      <trkpt lat="43.6037" lon="1.18696">
        <ele>254.1</ele>
        <time>2020-11-29T11:49:29Z</time>
      </trkpt>
      <trkpt lat="43.60372" lon="1.1869">
        <ele>254.4</ele>
        <time>2020-11-29T11:49:30Z</time>
      </trkpt>
      <trkpt lat="43.60373" lon="1.18687">
        <ele>254.5</ele>
        <time>2020-11-29T11:49:31Z</time>
      </trkpt>
      <trkpt lat="43.60375" lon="1.18681">
        <ele>254.8</ele>
        <time>2020-11-29T11:49:32Z</time>
      </trkpt>
      <trkpt lat="43.60376" lon="1.18676">
        <ele>255.1</ele>
        <time>2020-11-29T11:49:33Z</time>
      </trkpt>
      <trkpt lat="43.60378" lon="1.18672">
        <ele>255.4</ele>
        <time>2020-11-29T11:49:34Z</time>
      </trkpt>
      <trkpt lat="43.60379" lon="1.18669">
        <ele>255.5</ele>
        <time>2020-11-29T11:49:35Z</time>
      </trkpt>
      <trkpt lat="43.60379" lon="1.18666">
        <ele>255.7</ele>
        <time>2020-11-29T11:49:36Z</time>
      </trkpt>
      <trkpt lat="43.60379" lon="1.1866">
        <ele>256</ele>
        <time>2020-11-29T11:49:37Z</time>
      </trkpt>
      <trkpt lat="43.6038" lon="1.18657">
        <ele>256.1</ele>
        <time>2020-11-29T11:49:38Z</time>
      </trkpt>
      <trkpt lat="43.60381" lon="1.18652">
        <ele>256.4</ele>
        <time>2020-11-29T11:49:39Z</time>
      </trkpt>
      <trkpt lat="43.60382" lon="1.18649">
        <ele>256.6</ele>
        <time>2020-11-29T11:49:40Z</time>
      </trkpt>
      <trkpt lat="43.60383" lon="1.18645">
        <ele>256.8</ele>
        <time>2020-11-29T11:49:41Z</time>
      </trkpt>
      <trkpt lat="43.60386" lon="1.18643">
        <ele>257</ele>
        <time>2020-11-29T11:49:42Z</time>
      </trkpt>
      <trkpt lat="43.60387" lon="1.18642">
        <ele>257.1</ele>
        <time>2020-11-29T11:49:43Z</time>
      </trkpt>
      <trkpt lat="43.6039" lon="1.1864">
        <ele>257.3</ele>
        <time>2020-11-29T11:49:44Z</time>
      </trkpt>
      <trkpt lat="43.60393" lon="1.18636">
        <ele>257.6</ele>
        <time>2020-11-29T11:49:45Z</time>
      </trkpt>
      <trkpt lat="43.60394" lon="1.18633">
        <ele>257.8</ele>
        <time>2020-11-29T11:49:46Z</time>
      </trkpt>
      <trkpt lat="43.60396" lon="1.18629">
        <ele>258</ele>
        <time>2020-11-29T11:49:47Z</time>
      </trkpt>
      <trkpt lat="43.60398" lon="1.18625">
        <ele>258.3</ele>
        <time>2020-11-29T11:49:48Z</time>
      </trkpt>
      <trkpt lat="43.604" lon="1.18622">
        <ele>258.5</ele>
        <time>2020-11-29T11:49:49Z</time>
      </trkpt>
      <trkpt lat="43.60401" lon="1.1862">
        <ele>258.6</ele>
        <time>2020-11-29T11:49:50Z</time>
      </trkpt>
      <trkpt lat="43.60403" lon="1.18618">
        <ele>258.8</ele>
        <time>2020-11-29T11:49:51Z</time>
      </trkpt>
      <trkpt lat="43.60405" lon="1.18614">
        <ele>259</ele>
        <time>2020-11-29T11:49:52Z</time>
      </trkpt>
      <trkpt lat="43.60408" lon="1.18607">
        <ele>259.4</ele>
        <time>2020-11-29T11:49:53Z</time>
      </trkpt>
      <trkpt lat="43.6041" lon="1.18605">
        <ele>259.6</ele>
        <time>2020-11-29T11:49:54Z</time>
      </trkpt>
      <trkpt lat="43.60411" lon="1.18604">
        <ele>259.6</ele>
        <time>2020-11-29T11:49:55Z</time>
      </trkpt>
      <trkpt lat="43.60413" lon="1.18601">
        <ele>259.9</ele>
        <time>2020-11-29T11:49:56Z</time>
      </trkpt>
      <trkpt lat="43.60414" lon="1.18597">
        <ele>260.1</ele>
        <time>2020-11-29T11:49:57Z</time>
      </trkpt>
      <trkpt lat="43.60415" lon="1.1859">
        <ele>260.4</ele>
        <time>2020-11-29T11:49:58Z</time>
      </trkpt>
      <trkpt lat="43.60416" lon="1.18587">
        <ele>260.6</ele>
        <time>2020-11-29T11:49:59Z</time>
      </trkpt>
      <trkpt lat="43.60417" lon="1.1858">
        <ele>261</ele>
        <time>2020-11-29T11:50:00Z</time>
      </trkpt>
      <trkpt lat="43.60418" lon="1.18576">
        <ele>261.2</ele>
        <time>2020-11-29T11:50:01Z</time>
      </trkpt>
      <trkpt lat="43.60419" lon="1.18572">
        <ele>261.4</ele>
        <time>2020-11-29T11:50:02Z</time>
      </trkpt>
      <trkpt lat="43.6042" lon="1.18569">
        <ele>261.6</ele>
        <time>2020-11-29T11:50:03Z</time>
      </trkpt>
      <trkpt lat="43.60423" lon="1.18566">
        <ele>261.8</ele>
        <time>2020-11-29T11:50:04Z</time>
      </trkpt>
      <trkpt lat="43.60423" lon="1.18564">
        <ele>261.9</ele>
        <time>2020-11-29T11:50:05Z</time>
      </trkpt>
      <trkpt lat="43.60425" lon="1.18561">
        <ele>262.1</ele>
        <time>2020-11-29T11:50:06Z</time>
      </trkpt>
      <trkpt lat="43.60426" lon="1.18559">
        <ele>262.2</ele>
        <time>2020-11-29T11:50:07Z</time>
      </trkpt>
      <trkpt lat="43.60427" lon="1.18553">
        <ele>262.5</ele>
        <time>2020-11-29T11:50:08Z</time>
      </trkpt>
      <trkpt lat="43.60428" lon="1.18548">
        <ele>262.8</ele>
        <time>2020-11-29T11:50:09Z</time>
      </trkpt>
      <trkpt lat="43.60429" lon="1.18545">
        <ele>263</ele>
        <time>2020-11-29T11:50:10Z</time>
      </trkpt>
      <trkpt lat="43.6043" lon="1.18541">
        <ele>263.2</ele>
        <time>2020-11-29T11:50:11Z</time>
      </trkpt>
      <trkpt lat="43.6043" lon="1.18536">
        <ele>263.5</ele>
        <time>2020-11-29T11:50:12Z</time>
      </trkpt>
      <trkpt lat="43.60433" lon="1.18531">
        <ele>263.8</ele>
        <time>2020-11-29T11:50:13Z</time>
      </trkpt>
      <trkpt lat="43.60434" lon="1.18529">
        <ele>263.9</ele>
        <time>2020-11-29T11:50:14Z</time>
      </trkpt>
      <trkpt lat="43.60436" lon="1.18525">
        <ele>264.1</ele>
        <time>2020-11-29T11:50:15Z</time>
      </trkpt>
      <trkpt lat="43.60437" lon="1.18523">
        <ele>264.2</ele>
        <time>2020-11-29T11:50:16Z</time>
      </trkpt>
      <trkpt lat="43.60438" lon="1.1852">
        <ele>264.4</ele>
        <time>2020-11-29T11:50:17Z</time>
      </trkpt>
      <trkpt lat="43.6044" lon="1.18514">
        <ele>264.7</ele>
        <time>2020-11-29T11:50:18Z</time>
      </trkpt>
      <trkpt lat="43.60442" lon="1.1851">
        <ele>264.9</ele>
        <time>2020-11-29T11:50:19Z</time>
      </trkpt>
      <trkpt lat="43.60444" lon="1.18506">
        <ele>265.2</ele>
        <time>2020-11-29T11:50:20Z</time>
      </trkpt>
      <trkpt lat="43.60445" lon="1.18501">
        <ele>265.5</ele>
        <time>2020-11-29T11:50:21Z</time>
      </trkpt>
      <trkpt lat="43.60446" lon="1.18499">
        <ele>265.6</ele>
        <time>2020-11-29T11:50:22Z</time>
      </trkpt>
      <trkpt lat="43.60446" lon="1.18497">
        <ele>265.7</ele>
        <time>2020-11-29T11:50:23Z</time>
      </trkpt>
      <trkpt lat="43.60447" lon="1.18493">
        <ele>266</ele>
        <time>2020-11-29T11:50:24Z</time>
      </trkpt>
      <trkpt lat="43.60448" lon="1.18491">
        <ele>266.2</ele>
        <time>2020-11-29T11:50:25Z</time>
      </trkpt>
      <trkpt lat="43.6045" lon="1.18487">
        <ele>266.5</ele>
        <time>2020-11-29T11:50:26Z</time>
      </trkpt>
      <trkpt lat="43.6045" lon="1.18486">
        <ele>266.6</ele>
        <time>2020-11-29T11:50:27Z</time>
      </trkpt>
      <trkpt lat="43.60453" lon="1.18484">
        <ele>266.8</ele>
        <time>2020-11-29T11:50:28Z</time>
      </trkpt>
      <trkpt lat="43.60455" lon="1.1848">
        <ele>267.2</ele>
        <time>2020-11-29T11:50:29Z</time>
      </trkpt>
      <trkpt lat="43.60456" lon="1.18478">
        <ele>267.3</ele>
        <time>2020-11-29T11:50:30Z</time>
      </trkpt>
      <trkpt lat="43.60459" lon="1.18475">
        <ele>267.7</ele>
        <time>2020-11-29T11:50:31Z</time>
      </trkpt>
      <trkpt lat="43.60461" lon="1.18474">
        <ele>267.8</ele>
        <time>2020-11-29T11:50:32Z</time>
      </trkpt>
      <trkpt lat="43.60464" lon="1.1847">
        <ele>268.2</ele>
        <time>2020-11-29T11:50:33Z</time>
      </trkpt>
      <trkpt lat="43.60464" lon="1.18464">
        <ele>268.7</ele>
        <time>2020-11-29T11:50:34Z</time>
      </trkpt>
      <trkpt lat="43.60466" lon="1.18459">
        <ele>269</ele>
        <time>2020-11-29T11:50:35Z</time>
      </trkpt>
      <trkpt lat="43.60467" lon="1.18458">
        <ele>269.2</ele>
        <time>2020-11-29T11:50:36Z</time>
      </trkpt>
      <trkpt lat="43.60468" lon="1.18455">
        <ele>269.5</ele>
        <time>2020-11-29T11:50:37Z</time>
      </trkpt>
      <trkpt lat="43.60468" lon="1.18454">
        <ele>269.5</ele>
        <time>2020-11-29T11:50:38Z</time>
      </trkpt>
      <trkpt lat="43.60469" lon="1.18453">
        <ele>269.6</ele>
        <time>2020-11-29T11:50:39Z</time>
      </trkpt>
      <trkpt lat="43.6047" lon="1.18449">
        <ele>269.8</ele>
        <time>2020-11-29T11:50:40Z</time>
      </trkpt>
      <trkpt lat="43.60471" lon="1.18447">
        <ele>269.9</ele>
        <time>2020-11-29T11:50:41Z</time>
      </trkpt>
      <trkpt lat="43.60473" lon="1.18444">
        <ele>270.1</ele>
        <time>2020-11-29T11:50:42Z</time>
      </trkpt>
      <trkpt lat="43.60473" lon="1.1844">
        <ele>270.2</ele>
        <time>2020-11-29T11:50:43Z</time>
      </trkpt>
      <trkpt lat="43.60476" lon="1.18436">
        <ele>270.4</ele>
        <time>2020-11-29T11:50:44Z</time>
      </trkpt>
      <trkpt lat="43.60478" lon="1.18432">
        <ele>270.6</ele>
        <time>2020-11-29T11:50:45Z</time>
      </trkpt>
      <trkpt lat="43.60479" lon="1.18427">
        <ele>270.8</ele>
        <time>2020-11-29T11:50:46Z</time>
      </trkpt>
      <trkpt lat="43.60481" lon="1.18423">
        <ele>271</ele>
        <time>2020-11-29T11:50:47Z</time>
      </trkpt>
      <trkpt lat="43.60484" lon="1.18418">
        <ele>271.2</ele>
        <time>2020-11-29T11:50:48Z</time>
      </trkpt>
      <trkpt lat="43.60485" lon="1.18416">
        <ele>271.3</ele>
        <time>2020-11-29T11:50:49Z</time>
      </trkpt>
      <trkpt lat="43.60486" lon="1.18412">
        <ele>271.5</ele>
        <time>2020-11-29T11:50:50Z</time>
      </trkpt>
      <trkpt lat="43.60488" lon="1.18409">
        <ele>271.6</ele>
        <time>2020-11-29T11:50:51Z</time>
      </trkpt>
      <trkpt lat="43.60488" lon="1.18408">
        <ele>271.7</ele>
        <time>2020-11-29T11:50:52Z</time>
      </trkpt>
      <trkpt lat="43.6049" lon="1.18404">
        <ele>271.9</ele>
        <time>2020-11-29T11:50:53Z</time>
      </trkpt>
      <trkpt lat="43.60493" lon="1.18401">
        <ele>272</ele>
        <time>2020-11-29T11:50:54Z</time>
      </trkpt>
      <trkpt lat="43.60494" lon="1.184">
        <ele>272.1</ele>
        <time>2020-11-29T11:50:55Z</time>
      </trkpt>
      <trkpt lat="43.60494" lon="1.18396">
        <ele>272.3</ele>
        <time>2020-11-29T11:50:56Z</time>
      </trkpt>
      <trkpt lat="43.60493" lon="1.18392">
        <ele>272.5</ele>
        <time>2020-11-29T11:50:57Z</time>
      </trkpt>
      <trkpt lat="43.60493" lon="1.18391">
        <ele>272.5</ele>
        <time>2020-11-29T11:50:58Z</time>
      </trkpt>
      <trkpt lat="43.60494" lon="1.18387">
        <ele>272.7</ele>
        <time>2020-11-29T11:50:59Z</time>
      </trkpt>
      <trkpt lat="43.60496" lon="1.18382">
        <ele>272.9</ele>
        <time>2020-11-29T11:51:00Z</time>
      </trkpt>
      <trkpt lat="43.60497" lon="1.1838">
        <ele>273.1</ele>
        <time>2020-11-29T11:51:01Z</time>
      </trkpt>
      <trkpt lat="43.60499" lon="1.18376">
        <ele>273.3</ele>
        <time>2020-11-29T11:51:02Z</time>
      </trkpt>
      <trkpt lat="43.605" lon="1.18373">
        <ele>273.4</ele>
        <time>2020-11-29T11:51:03Z</time>
      </trkpt>
      <trkpt lat="43.60503" lon="1.18368">
        <ele>273.7</ele>
        <time>2020-11-29T11:51:04Z</time>
      </trkpt>
      <trkpt lat="43.60505" lon="1.18362">
        <ele>274</ele>
        <time>2020-11-29T11:51:05Z</time>
      </trkpt>
      <trkpt lat="43.60506" lon="1.18359">
        <ele>274.1</ele>
        <time>2020-11-29T11:51:06Z</time>
      </trkpt>
      <trkpt lat="43.60509" lon="1.18355">
        <ele>274.4</ele>
        <time>2020-11-29T11:51:07Z</time>
      </trkpt>
      <trkpt lat="43.6051" lon="1.18353">
        <ele>274.5</ele>
        <time>2020-11-29T11:51:08Z</time>
      </trkpt>
      <trkpt lat="43.60512" lon="1.18348">
        <ele>274.7</ele>
        <time>2020-11-29T11:51:09Z</time>
      </trkpt>
      <trkpt lat="43.60513" lon="1.18344">
        <ele>274.9</ele>
        <time>2020-11-29T11:51:10Z</time>
      </trkpt>
      <trkpt lat="43.60516" lon="1.18342">
        <ele>275.1</ele>
        <time>2020-11-29T11:51:11Z</time>
      </trkpt>
      <trkpt lat="43.60516" lon="1.18342">
        <ele>275.2</ele>
        <time>2020-11-29T11:51:12Z</time>
      </trkpt>
      <trkpt lat="43.60518" lon="1.18339">
        <ele>275.3</ele>
        <time>2020-11-29T11:51:13Z</time>
      </trkpt>
      <trkpt lat="43.6052" lon="1.18337">
        <ele>275.5</ele>
        <time>2020-11-29T11:51:14Z</time>
      </trkpt>
      <trkpt lat="43.60521" lon="1.18336">
        <ele>275.5</ele>
        <time>2020-11-29T11:51:15Z</time>
      </trkpt>
      <trkpt lat="43.60523" lon="1.18333">
        <ele>275.7</ele>
        <time>2020-11-29T11:51:16Z</time>
      </trkpt>
      <trkpt lat="43.60524" lon="1.18328">
        <ele>275.9</ele>
        <time>2020-11-29T11:51:17Z</time>
      </trkpt>
      <trkpt lat="43.60525" lon="1.18323">
        <ele>276.2</ele>
        <time>2020-11-29T11:51:18Z</time>
      </trkpt>
      <trkpt lat="43.60525" lon="1.18319">
        <ele>276.3</ele>
        <time>2020-11-29T11:51:19Z</time>
      </trkpt>
      <trkpt lat="43.60528" lon="1.18315">
        <ele>276.5</ele>
        <time>2020-11-29T11:51:20Z</time>
      </trkpt>
      <trkpt lat="43.6053" lon="1.1831">
        <ele>276.7</ele>
        <time>2020-11-29T11:51:21Z</time>
      </trkpt>
      <trkpt lat="43.60533" lon="1.18305">
        <ele>276.9</ele>
        <time>2020-11-29T11:51:22Z</time>
      </trkpt>
      <trkpt lat="43.60534" lon="1.183">
        <ele>277.1</ele>
        <time>2020-11-29T11:51:23Z</time>
      </trkpt>
      <trkpt lat="43.60537" lon="1.18296">
        <ele>277.3</ele>
        <time>2020-11-29T11:51:24Z</time>
      </trkpt>
      <trkpt lat="43.60538" lon="1.18295">
        <ele>277.4</ele>
        <time>2020-11-29T11:51:25Z</time>
      </trkpt>
      <trkpt lat="43.60538" lon="1.1829">
        <ele>277.5</ele>
        <time>2020-11-29T11:51:26Z</time>
      </trkpt>
      <trkpt lat="43.6054" lon="1.18287">
        <ele>277.7</ele>
        <time>2020-11-29T11:51:27Z</time>
      </trkpt>
      <trkpt lat="43.60541" lon="1.18282">
        <ele>277.8</ele>
        <time>2020-11-29T11:51:28Z</time>
      </trkpt>
      <trkpt lat="43.60543" lon="1.18278">
        <ele>278</ele>
        <time>2020-11-29T11:51:29Z</time>
      </trkpt>
      <trkpt lat="43.60544" lon="1.18274">
        <ele>278.1</ele>
        <time>2020-11-29T11:51:30Z</time>
      </trkpt>
      <trkpt lat="43.60545" lon="1.18273">
        <ele>278.2</ele>
        <time>2020-11-29T11:51:31Z</time>
      </trkpt>
      <trkpt lat="43.60546" lon="1.18269">
        <ele>278.3</ele>
        <time>2020-11-29T11:51:32Z</time>
      </trkpt>
      <trkpt lat="43.60546" lon="1.18264">
        <ele>278.4</ele>
        <time>2020-11-29T11:51:33Z</time>
      </trkpt>
      <trkpt lat="43.60546" lon="1.18263">
        <ele>278.5</ele>
        <time>2020-11-29T11:51:34Z</time>
      </trkpt>
      <trkpt lat="43.60549" lon="1.18259">
        <ele>278.6</ele>
        <time>2020-11-29T11:51:35Z</time>
      </trkpt>
      <trkpt lat="43.60551" lon="1.18257">
        <ele>278.7</ele>
        <time>2020-11-29T11:51:36Z</time>
      </trkpt>
      <trkpt lat="43.60553" lon="1.18252">
        <ele>278.8</ele>
        <time>2020-11-29T11:51:37Z</time>
      </trkpt>
      <trkpt lat="43.60555" lon="1.18248">
        <ele>278.9</ele>
        <time>2020-11-29T11:51:38Z</time>
      </trkpt>
      <trkpt lat="43.60555" lon="1.18246">
        <ele>279</ele>
        <time>2020-11-29T11:51:39Z</time>
      </trkpt>
      <trkpt lat="43.60557" lon="1.18242">
        <ele>279.1</ele>
        <time>2020-11-29T11:51:40Z</time>
      </trkpt>
      <trkpt lat="43.60559" lon="1.18237">
        <ele>279.2</ele>
        <time>2020-11-29T11:51:41Z</time>
      </trkpt>
      <trkpt lat="43.60561" lon="1.18234">
        <ele>279.3</ele>
        <time>2020-11-29T11:51:42Z</time>
      </trkpt>
      <trkpt lat="43.60562" lon="1.18227">
        <ele>279.4</ele>
        <time>2020-11-29T11:51:43Z</time>
      </trkpt>
      <trkpt lat="43.60563" lon="1.18222">
        <ele>279.5</ele>
        <time>2020-11-29T11:51:44Z</time>
      </trkpt>
      <trkpt lat="43.60566" lon="1.18216">
        <ele>279.6</ele>
        <time>2020-11-29T11:51:45Z</time>
      </trkpt>
      <trkpt lat="43.60567" lon="1.1821">
        <ele>279.8</ele>
        <time>2020-11-29T11:51:46Z</time>
      </trkpt>
      <trkpt lat="43.60569" lon="1.18205">
        <ele>279.9</ele>
        <time>2020-11-29T11:51:47Z</time>
      </trkpt>
      <trkpt lat="43.6057" lon="1.182">
        <ele>280</ele>
        <time>2020-11-29T11:51:48Z</time>
      </trkpt>
      <trkpt lat="43.60571" lon="1.18195">
        <ele>280.1</ele>
        <time>2020-11-29T11:51:49Z</time>
      </trkpt>
      <trkpt lat="43.60571" lon="1.18189">
        <ele>280.2</ele>
        <time>2020-11-29T11:51:50Z</time>
      </trkpt>
      <trkpt lat="43.60569" lon="1.18181">
        <ele>280.8</ele>
        <time>2020-11-29T11:51:51Z</time>
      </trkpt>
      <trkpt lat="43.60568" lon="1.18176">
        <ele>280.9</ele>
        <time>2020-11-29T11:51:52Z</time>
      </trkpt>
      <trkpt lat="43.60564" lon="1.18172">
        <ele>280.9</ele>
        <time>2020-11-29T11:51:53Z</time>
      </trkpt>
      <trkpt lat="43.60563" lon="1.1817">
        <ele>281</ele>
        <time>2020-11-29T11:51:54Z</time>
      </trkpt>
      <trkpt lat="43.60559" lon="1.18167">
        <ele>281.1</ele>
        <time>2020-11-29T11:51:55Z</time>
      </trkpt>
      <trkpt lat="43.60557" lon="1.18164">
        <ele>281.1</ele>
        <time>2020-11-29T11:51:56Z</time>
      </trkpt>
      <trkpt lat="43.60554" lon="1.18162">
        <ele>281.2</ele>
        <time>2020-11-29T11:51:57Z</time>
      </trkpt>
      <trkpt lat="43.60551" lon="1.1816">
        <ele>281.3</ele>
        <time>2020-11-29T11:51:58Z</time>
      </trkpt>
      <trkpt lat="43.60551" lon="1.18159">
        <ele>281.3</ele>
        <time>2020-11-29T11:51:59Z</time>
      </trkpt>
      <trkpt lat="43.60548" lon="1.18157">
        <ele>281.3</ele>
        <time>2020-11-29T11:52:00Z</time>
      </trkpt>
      <trkpt lat="43.60544" lon="1.18154">
        <ele>281.4</ele>
        <time>2020-11-29T11:52:01Z</time>
      </trkpt>
      <trkpt lat="43.60542" lon="1.18152">
        <ele>281.5</ele>
        <time>2020-11-29T11:52:02Z</time>
      </trkpt>
      <trkpt lat="43.60538" lon="1.1815">
        <ele>281.5</ele>
        <time>2020-11-29T11:52:03Z</time>
      </trkpt>
      <trkpt lat="43.60536" lon="1.18148">
        <ele>281.5</ele>
        <time>2020-11-29T11:52:04Z</time>
      </trkpt>
      <trkpt lat="43.60534" lon="1.18146">
        <ele>281.6</ele>
        <time>2020-11-29T11:52:05Z</time>
      </trkpt>
      <trkpt lat="43.60533" lon="1.18146">
        <ele>281.6</ele>
        <time>2020-11-29T11:52:06Z</time>
      </trkpt>
      <trkpt lat="43.60529" lon="1.18144">
        <ele>281.6</ele>
        <time>2020-11-29T11:52:07Z</time>
      </trkpt>
      <trkpt lat="43.60527" lon="1.18141">
        <ele>281.7</ele>
        <time>2020-11-29T11:52:08Z</time>
      </trkpt>
      <trkpt lat="43.60526" lon="1.18139">
        <ele>281.7</ele>
        <time>2020-11-29T11:52:09Z</time>
      </trkpt>
      <trkpt lat="43.60523" lon="1.18136">
        <ele>281.7</ele>
        <time>2020-11-29T11:52:10Z</time>
      </trkpt>
      <trkpt lat="43.60521" lon="1.18134">
        <ele>281.7</ele>
        <time>2020-11-29T11:52:11Z</time>
      </trkpt>
      <trkpt lat="43.60518" lon="1.18132">
        <ele>281.8</ele>
        <time>2020-11-29T11:52:12Z</time>
      </trkpt>
      <trkpt lat="43.60515" lon="1.18129">
        <ele>281.8</ele>
        <time>2020-11-29T11:52:13Z</time>
      </trkpt>
      <trkpt lat="43.60512" lon="1.18126">
        <ele>281.8</ele>
        <time>2020-11-29T11:52:14Z</time>
      </trkpt>
      <trkpt lat="43.60509" lon="1.18125">
        <ele>281.7</ele>
        <time>2020-11-29T11:52:15Z</time>
      </trkpt>
      <trkpt lat="43.60506" lon="1.18123">
        <ele>281.7</ele>
        <time>2020-11-29T11:52:16Z</time>
      </trkpt>
      <trkpt lat="43.60503" lon="1.18121">
        <ele>281.7</ele>
        <time>2020-11-29T11:52:17Z</time>
      </trkpt>
      <trkpt lat="43.60498" lon="1.18118">
        <ele>281.6</ele>
        <time>2020-11-29T11:52:18Z</time>
      </trkpt>
      <trkpt lat="43.60496" lon="1.18116">
        <ele>281.6</ele>
        <time>2020-11-29T11:52:19Z</time>
      </trkpt>
      <trkpt lat="43.60493" lon="1.18113">
        <ele>281.5</ele>
        <time>2020-11-29T11:52:20Z</time>
      </trkpt>
      <trkpt lat="43.6049" lon="1.1811">
        <ele>281.4</ele>
        <time>2020-11-29T11:52:21Z</time>
      </trkpt>
      <trkpt lat="43.60485" lon="1.18106">
        <ele>281.2</ele>
        <time>2020-11-29T11:52:22Z</time>
      </trkpt>
      <trkpt lat="43.60481" lon="1.18104">
        <ele>281</ele>
        <time>2020-11-29T11:52:23Z</time>
      </trkpt>
      <trkpt lat="43.60477" lon="1.18101">
        <ele>280.8</ele>
        <time>2020-11-29T11:52:24Z</time>
      </trkpt>
      <trkpt lat="43.60473" lon="1.18099">
        <ele>280.5</ele>
        <time>2020-11-29T11:52:25Z</time>
      </trkpt>
      <trkpt lat="43.60469" lon="1.18096">
        <ele>280.2</ele>
        <time>2020-11-29T11:52:26Z</time>
      </trkpt>
      <trkpt lat="43.60464" lon="1.18091">
        <ele>279.7</ele>
        <time>2020-11-29T11:52:27Z</time>
      </trkpt>
      <trkpt lat="43.60459" lon="1.18087">
        <ele>279.1</ele>
        <time>2020-11-29T11:52:28Z</time>
      </trkpt>
      <trkpt lat="43.60453" lon="1.18081">
        <ele>278.4</ele>
        <time>2020-11-29T11:52:29Z</time>
      </trkpt>
      <trkpt lat="43.60447" lon="1.18076">
        <ele>277.4</ele>
        <time>2020-11-29T11:52:30Z</time>
      </trkpt>
      <trkpt lat="43.6044" lon="1.18071">
        <ele>276.3</ele>
        <time>2020-11-29T11:52:31Z</time>
      </trkpt>
      <trkpt lat="43.60433" lon="1.18063">
        <ele>275.1</ele>
        <time>2020-11-29T11:52:32Z</time>
      </trkpt>
      <trkpt lat="43.60426" lon="1.18057">
        <ele>273.9</ele>
        <time>2020-11-29T11:52:33Z</time>
      </trkpt>
      <trkpt lat="43.60417" lon="1.1805">
        <ele>272.8</ele>
        <time>2020-11-29T11:52:34Z</time>
      </trkpt>
      <trkpt lat="43.60408" lon="1.18042">
        <ele>271.7</ele>
        <time>2020-11-29T11:52:35Z</time>
      </trkpt>
      <trkpt lat="43.60398" lon="1.18034">
        <ele>270.9</ele>
        <time>2020-11-29T11:52:36Z</time>
      </trkpt>
      <trkpt lat="43.6039" lon="1.18027">
        <ele>270.6</ele>
        <time>2020-11-29T11:52:37Z</time>
      </trkpt>
      <trkpt lat="43.60383" lon="1.18022">
        <ele>270.8</ele>
        <time>2020-11-29T11:52:38Z</time>
      </trkpt>
      <trkpt lat="43.60377" lon="1.18018">
        <ele>271.2</ele>
        <time>2020-11-29T11:52:39Z</time>
      </trkpt>
      <trkpt lat="43.60372" lon="1.18015">
        <ele>271.6</ele>
        <time>2020-11-29T11:52:40Z</time>
      </trkpt>
      <trkpt lat="43.60368" lon="1.18013">
        <ele>271.9</ele>
        <time>2020-11-29T11:52:41Z</time>
      </trkpt>
      <trkpt lat="43.60366" lon="1.18009">
        <ele>272.2</ele>
        <time>2020-11-29T11:52:42Z</time>
      </trkpt>
      <trkpt lat="43.60362" lon="1.18007">
        <ele>272.5</ele>
        <time>2020-11-29T11:52:43Z</time>
      </trkpt>
      <trkpt lat="43.60359" lon="1.18003">
        <ele>272.8</ele>
        <time>2020-11-29T11:52:44Z</time>
      </trkpt>
      <trkpt lat="43.60356" lon="1.18">
        <ele>273</ele>
        <time>2020-11-29T11:52:45Z</time>
      </trkpt>
      <trkpt lat="43.60353" lon="1.17998">
        <ele>273.3</ele>
        <time>2020-11-29T11:52:46Z</time>
      </trkpt>
      <trkpt lat="43.60351" lon="1.17995">
        <ele>273.5</ele>
        <time>2020-11-29T11:52:47Z</time>
      </trkpt>
      <trkpt lat="43.60347" lon="1.17994">
        <ele>273.7</ele>
        <time>2020-11-29T11:52:48Z</time>
      </trkpt>
      <trkpt lat="43.60345" lon="1.17992">
        <ele>273.8</ele>
        <time>2020-11-29T11:52:49Z</time>
      </trkpt>
      <trkpt lat="43.60341" lon="1.1799">
        <ele>274</ele>
        <time>2020-11-29T11:52:50Z</time>
      </trkpt>
      <trkpt lat="43.6034" lon="1.17989">
        <ele>274.1</ele>
        <time>2020-11-29T11:52:51Z</time>
      </trkpt>
      <trkpt lat="43.60336" lon="1.17988">
        <ele>274.3</ele>
        <time>2020-11-29T11:52:52Z</time>
      </trkpt>
      <trkpt lat="43.60332" lon="1.17985">
        <ele>274.6</ele>
        <time>2020-11-29T11:52:53Z</time>
      </trkpt>
      <trkpt lat="43.60329" lon="1.17984">
        <ele>274.7</ele>
        <time>2020-11-29T11:52:54Z</time>
      </trkpt>
      <trkpt lat="43.60327" lon="1.1798">
        <ele>274.9</ele>
        <time>2020-11-29T11:52:55Z</time>
      </trkpt>
      <trkpt lat="43.60322" lon="1.17974">
        <ele>275.1</ele>
        <time>2020-11-29T11:52:56Z</time>
      </trkpt>
      <trkpt lat="43.60315" lon="1.17967">
        <ele>275.4</ele>
        <time>2020-11-29T11:52:57Z</time>
      </trkpt>
      <trkpt lat="43.60309" lon="1.17963">
        <ele>275.5</ele>
        <time>2020-11-29T11:52:58Z</time>
      </trkpt>
      <trkpt lat="43.60302" lon="1.17956">
        <ele>275.3</ele>
        <time>2020-11-29T11:52:59Z</time>
      </trkpt>
      <trkpt lat="43.60294" lon="1.17951">
        <ele>274.9</ele>
        <time>2020-11-29T11:53:00Z</time>
      </trkpt>
      <trkpt lat="43.60287" lon="1.17943">
        <ele>274.2</ele>
        <time>2020-11-29T11:53:01Z</time>
      </trkpt>
      <trkpt lat="43.60281" lon="1.17939">
        <ele>273.6</ele>
        <time>2020-11-29T11:53:02Z</time>
      </trkpt>
      <trkpt lat="43.60273" lon="1.17933">
        <ele>272.7</ele>
        <time>2020-11-29T11:53:03Z</time>
      </trkpt>
      <trkpt lat="43.60265" lon="1.17929">
        <ele>271.7</ele>
        <time>2020-11-29T11:53:04Z</time>
      </trkpt>
      <trkpt lat="43.60257" lon="1.17925">
        <ele>270.8</ele>
        <time>2020-11-29T11:53:05Z</time>
      </trkpt>
      <trkpt lat="43.6025" lon="1.17917">
        <ele>269.9</ele>
        <time>2020-11-29T11:53:06Z</time>
      </trkpt>
      <trkpt lat="43.60245" lon="1.17912">
        <ele>269.6</ele>
        <time>2020-11-29T11:53:07Z</time>
      </trkpt>
      <trkpt lat="43.60244" lon="1.17911">
        <ele>269.6</ele>
        <time>2020-11-29T11:53:08Z</time>
      </trkpt>
      <trkpt lat="43.60244" lon="1.17909">
        <ele>269.6</ele>
        <time>2020-11-29T11:53:09Z</time>
      </trkpt>
      <trkpt lat="43.60244" lon="1.17908">
        <ele>269.6</ele>
        <time>2020-11-29T11:53:10Z</time>
      </trkpt>
      <trkpt lat="43.60246" lon="1.17904">
        <ele>271.2</ele>
        <time>2020-11-29T11:53:11Z</time>
      </trkpt>
      <trkpt lat="43.60248" lon="1.17898">
        <ele>271.5</ele>
        <time>2020-11-29T11:53:12Z</time>
      </trkpt>
      <trkpt lat="43.60249" lon="1.17895">
        <ele>271.7</ele>
        <time>2020-11-29T11:53:13Z</time>
      </trkpt>
      <trkpt lat="43.60251" lon="1.17892">
        <ele>272</ele>
        <time>2020-11-29T11:53:14Z</time>
      </trkpt>
      <trkpt lat="43.60252" lon="1.1789">
        <ele>272.1</ele>
        <time>2020-11-29T11:53:15Z</time>
      </trkpt>
      <trkpt lat="43.60253" lon="1.17887">
        <ele>272.3</ele>
        <time>2020-11-29T11:53:16Z</time>
      </trkpt>
      <trkpt lat="43.60254" lon="1.17881">
        <ele>272.7</ele>
        <time>2020-11-29T11:53:17Z</time>
      </trkpt>
      <trkpt lat="43.60257" lon="1.17877">
        <ele>273</ele>
        <time>2020-11-29T11:53:18Z</time>
      </trkpt>
      <trkpt lat="43.60259" lon="1.17874">
        <ele>273.2</ele>
        <time>2020-11-29T11:53:19Z</time>
      </trkpt>
      <trkpt lat="43.6026" lon="1.1787">
        <ele>273.5</ele>
        <time>2020-11-29T11:53:20Z</time>
      </trkpt>
      <trkpt lat="43.60262" lon="1.17867">
        <ele>273.7</ele>
        <time>2020-11-29T11:53:21Z</time>
      </trkpt>
      <trkpt lat="43.60264" lon="1.17863">
        <ele>274</ele>
        <time>2020-11-29T11:53:22Z</time>
      </trkpt>
      <trkpt lat="43.60266" lon="1.17858">
        <ele>274.3</ele>
        <time>2020-11-29T11:53:23Z</time>
      </trkpt>
      <trkpt lat="43.60266" lon="1.17854">
        <ele>274.6</ele>
        <time>2020-11-29T11:53:24Z</time>
      </trkpt>
      <trkpt lat="43.60268" lon="1.17848">
        <ele>274.9</ele>
        <time>2020-11-29T11:53:25Z</time>
      </trkpt>
      <trkpt lat="43.60268" lon="1.17846">
        <ele>275.1</ele>
        <time>2020-11-29T11:53:26Z</time>
      </trkpt>
      <trkpt lat="43.60269" lon="1.17842">
        <ele>275.3</ele>
        <time>2020-11-29T11:53:27Z</time>
      </trkpt>
      <trkpt lat="43.60271" lon="1.17837">
        <ele>275.7</ele>
        <time>2020-11-29T11:53:28Z</time>
      </trkpt>
      <trkpt lat="43.60272" lon="1.17834">
        <ele>275.9</ele>
        <time>2020-11-29T11:53:29Z</time>
      </trkpt>
      <trkpt lat="43.60274" lon="1.1783">
        <ele>276.2</ele>
        <time>2020-11-29T11:53:30Z</time>
      </trkpt>
      <trkpt lat="43.60274" lon="1.17828">
        <ele>276.3</ele>
        <time>2020-11-29T11:53:31Z</time>
      </trkpt>
      <trkpt lat="43.60275" lon="1.17825">
        <ele>276.4</ele>
        <time>2020-11-29T11:53:32Z</time>
      </trkpt>
      <trkpt lat="43.60276" lon="1.1782">
        <ele>276.7</ele>
        <time>2020-11-29T11:53:33Z</time>
      </trkpt>
      <trkpt lat="43.60277" lon="1.17816">
        <ele>277</ele>
        <time>2020-11-29T11:53:34Z</time>
      </trkpt>
      <trkpt lat="43.60279" lon="1.17812">
        <ele>277.2</ele>
        <time>2020-11-29T11:53:35Z</time>
      </trkpt>
      <trkpt lat="43.60282" lon="1.17808">
        <ele>277.4</ele>
        <time>2020-11-29T11:53:36Z</time>
      </trkpt>
      <trkpt lat="43.60284" lon="1.17805">
        <ele>277.6</ele>
        <time>2020-11-29T11:53:37Z</time>
      </trkpt>
      <trkpt lat="43.60286" lon="1.17802">
        <ele>277.8</ele>
        <time>2020-11-29T11:53:38Z</time>
      </trkpt>
      <trkpt lat="43.60288" lon="1.17796">
        <ele>278</ele>
        <time>2020-11-29T11:53:39Z</time>
      </trkpt>
      <trkpt lat="43.60289" lon="1.17793">
        <ele>278.1</ele>
        <time>2020-11-29T11:53:40Z</time>
      </trkpt>
      <trkpt lat="43.6029" lon="1.1779">
        <ele>278.3</ele>
        <time>2020-11-29T11:53:41Z</time>
      </trkpt>
      <trkpt lat="43.60291" lon="1.17784">
        <ele>278.5</ele>
        <time>2020-11-29T11:53:42Z</time>
      </trkpt>
      <trkpt lat="43.60291" lon="1.17782">
        <ele>278.6</ele>
        <time>2020-11-29T11:53:43Z</time>
      </trkpt>
      <trkpt lat="43.60295" lon="1.17778">
        <ele>278.7</ele>
        <time>2020-11-29T11:53:44Z</time>
      </trkpt>
      <trkpt lat="43.60296" lon="1.17775">
        <ele>278.8</ele>
        <time>2020-11-29T11:53:45Z</time>
      </trkpt>
      <trkpt lat="43.60298" lon="1.1777">
        <ele>279</ele>
        <time>2020-11-29T11:53:46Z</time>
      </trkpt>
      <trkpt lat="43.603" lon="1.17763">
        <ele>279.1</ele>
        <time>2020-11-29T11:53:47Z</time>
      </trkpt>
      <trkpt lat="43.60301" lon="1.17758">
        <ele>279.2</ele>
        <time>2020-11-29T11:53:48Z</time>
      </trkpt>
      <trkpt lat="43.60304" lon="1.17754">
        <ele>279.3</ele>
        <time>2020-11-29T11:53:49Z</time>
      </trkpt>
      <trkpt lat="43.60306" lon="1.1775">
        <ele>279.4</ele>
        <time>2020-11-29T11:53:50Z</time>
      </trkpt>
      <trkpt lat="43.60308" lon="1.17745">
        <ele>279.5</ele>
        <time>2020-11-29T11:53:51Z</time>
      </trkpt>
      <trkpt lat="43.6031" lon="1.17742">
        <ele>279.6</ele>
        <time>2020-11-29T11:53:52Z</time>
      </trkpt>
      <trkpt lat="43.60312" lon="1.17738">
        <ele>279.7</ele>
        <time>2020-11-29T11:53:53Z</time>
      </trkpt>
      <trkpt lat="43.60312" lon="1.17731">
        <ele>279.9</ele>
        <time>2020-11-29T11:53:54Z</time>
      </trkpt>
      <trkpt lat="43.60314" lon="1.17725">
        <ele>280.1</ele>
        <time>2020-11-29T11:53:55Z</time>
      </trkpt>
      <trkpt lat="43.60315" lon="1.17721">
        <ele>280.2</ele>
        <time>2020-11-29T11:53:56Z</time>
      </trkpt>
      <trkpt lat="43.60317" lon="1.17715">
        <ele>280.4</ele>
        <time>2020-11-29T11:53:57Z</time>
      </trkpt>
      <trkpt lat="43.60319" lon="1.17711">
        <ele>280.5</ele>
        <time>2020-11-29T11:53:58Z</time>
      </trkpt>
      <trkpt lat="43.6032" lon="1.17709">
        <ele>280.6</ele>
        <time>2020-11-29T11:53:59Z</time>
      </trkpt>
      <trkpt lat="43.60323" lon="1.17704">
        <ele>280.8</ele>
        <time>2020-11-29T11:54:00Z</time>
      </trkpt>
      <trkpt lat="43.60324" lon="1.17701">
        <ele>280.9</ele>
        <time>2020-11-29T11:54:01Z</time>
      </trkpt>
      <trkpt lat="43.60325" lon="1.17698">
        <ele>281.4</ele>
        <time>2020-11-29T11:54:02Z</time>
      </trkpt>
      <trkpt lat="43.60325" lon="1.17695">
        <ele>281.4</ele>
        <time>2020-11-29T11:54:03Z</time>
      </trkpt>
      <trkpt lat="43.60326" lon="1.17694">
        <ele>281.4</ele>
        <time>2020-11-29T11:54:04Z</time>
      </trkpt>
      <trkpt lat="43.60326" lon="1.17691">
        <ele>281.4</ele>
        <time>2020-11-29T11:54:05Z</time>
      </trkpt>
      <trkpt lat="43.60324" lon="1.17689">
        <ele>281.5</ele>
        <time>2020-11-29T11:54:06Z</time>
      </trkpt>
      <trkpt lat="43.60323" lon="1.17687">
        <ele>281.5</ele>
        <time>2020-11-29T11:54:07Z</time>
      </trkpt>
      <trkpt lat="43.60319" lon="1.17685">
        <ele>281.5</ele>
        <time>2020-11-29T11:54:08Z</time>
      </trkpt>
      <trkpt lat="43.60315" lon="1.17682">
        <ele>281.5</ele>
        <time>2020-11-29T11:54:09Z</time>
      </trkpt>
      <trkpt lat="43.60312" lon="1.17677">
        <ele>281.6</ele>
        <time>2020-11-29T11:54:10Z</time>
      </trkpt>
      <trkpt lat="43.6031" lon="1.17675">
        <ele>281.6</ele>
        <time>2020-11-29T11:54:11Z</time>
      </trkpt>
      <trkpt lat="43.60307" lon="1.17671">
        <ele>281.7</ele>
        <time>2020-11-29T11:54:12Z</time>
      </trkpt>
      <trkpt lat="43.60305" lon="1.17668">
        <ele>281.7</ele>
        <time>2020-11-29T11:54:13Z</time>
      </trkpt>
      <trkpt lat="43.60302" lon="1.17665">
        <ele>281.7</ele>
        <time>2020-11-29T11:54:14Z</time>
      </trkpt>
      <trkpt lat="43.60298" lon="1.17661">
        <ele>281.8</ele>
        <time>2020-11-29T11:54:15Z</time>
      </trkpt>
      <trkpt lat="43.60295" lon="1.17657">
        <ele>281.8</ele>
        <time>2020-11-29T11:54:16Z</time>
      </trkpt>
      <trkpt lat="43.60292" lon="1.17651">
        <ele>281.9</ele>
        <time>2020-11-29T11:54:17Z</time>
      </trkpt>
      <trkpt lat="43.60289" lon="1.17647">
        <ele>281.9</ele>
        <time>2020-11-29T11:54:18Z</time>
      </trkpt>
      <trkpt lat="43.60284" lon="1.17643">
        <ele>282</ele>
        <time>2020-11-29T11:54:19Z</time>
      </trkpt>
      <trkpt lat="43.60281" lon="1.17638">
        <ele>282.1</ele>
        <time>2020-11-29T11:54:20Z</time>
      </trkpt>
      <trkpt lat="43.6028" lon="1.17637">
        <ele>282.1</ele>
        <time>2020-11-29T11:54:21Z</time>
      </trkpt>
      <trkpt lat="43.60277" lon="1.17633">
        <ele>282.1</ele>
        <time>2020-11-29T11:54:22Z</time>
      </trkpt>
      <trkpt lat="43.60272" lon="1.1763">
        <ele>282.2</ele>
        <time>2020-11-29T11:54:23Z</time>
      </trkpt>
      <trkpt lat="43.60269" lon="1.17628">
        <ele>282.3</ele>
        <time>2020-11-29T11:54:24Z</time>
      </trkpt>
      <trkpt lat="43.60265" lon="1.17625">
        <ele>282.3</ele>
        <time>2020-11-29T11:54:25Z</time>
      </trkpt>
      <trkpt lat="43.60262" lon="1.17622">
        <ele>282.3</ele>
        <time>2020-11-29T11:54:26Z</time>
      </trkpt>
      <trkpt lat="43.60257" lon="1.17619">
        <ele>282.4</ele>
        <time>2020-11-29T11:54:27Z</time>
      </trkpt>
      <trkpt lat="43.60253" lon="1.17616">
        <ele>282.4</ele>
        <time>2020-11-29T11:54:28Z</time>
      </trkpt>
      <trkpt lat="43.6025" lon="1.17614">
        <ele>282.5</ele>
        <time>2020-11-29T11:54:29Z</time>
      </trkpt>
      <trkpt lat="43.60246" lon="1.17611">
        <ele>282.5</ele>
        <time>2020-11-29T11:54:30Z</time>
      </trkpt>
      <trkpt lat="43.60242" lon="1.17607">
        <ele>282.5</ele>
        <time>2020-11-29T11:54:31Z</time>
      </trkpt>
      <trkpt lat="43.60239" lon="1.17604">
        <ele>282.5</ele>
        <time>2020-11-29T11:54:32Z</time>
      </trkpt>
      <trkpt lat="43.60234" lon="1.176">
        <ele>282.6</ele>
        <time>2020-11-29T11:54:33Z</time>
      </trkpt>
      <trkpt lat="43.6023" lon="1.17598">
        <ele>282.6</ele>
        <time>2020-11-29T11:54:34Z</time>
      </trkpt>
      <trkpt lat="43.60227" lon="1.17596">
        <ele>282.6</ele>
        <time>2020-11-29T11:54:35Z</time>
      </trkpt>
      <trkpt lat="43.60223" lon="1.17592">
        <ele>282.6</ele>
        <time>2020-11-29T11:54:36Z</time>
      </trkpt>
      <trkpt lat="43.60221" lon="1.17591">
        <ele>282.6</ele>
        <time>2020-11-29T11:54:37Z</time>
      </trkpt>
      <trkpt lat="43.60216" lon="1.17587">
        <ele>282.6</ele>
        <time>2020-11-29T11:54:38Z</time>
      </trkpt>
      <trkpt lat="43.60212" lon="1.17584">
        <ele>282.6</ele>
        <time>2020-11-29T11:54:39Z</time>
      </trkpt>
      <trkpt lat="43.60208" lon="1.1758">
        <ele>282.6</ele>
        <time>2020-11-29T11:54:40Z</time>
      </trkpt>
      <trkpt lat="43.60205" lon="1.17575">
        <ele>282.5</ele>
        <time>2020-11-29T11:54:41Z</time>
      </trkpt>
      <trkpt lat="43.602" lon="1.17572">
        <ele>282.4</ele>
        <time>2020-11-29T11:54:42Z</time>
      </trkpt>
      <trkpt lat="43.60196" lon="1.1757">
        <ele>282.4</ele>
        <time>2020-11-29T11:54:43Z</time>
      </trkpt>
      <trkpt lat="43.60192" lon="1.17564">
        <ele>282.3</ele>
        <time>2020-11-29T11:54:44Z</time>
      </trkpt>
      <trkpt lat="43.60189" lon="1.17559">
        <ele>282.2</ele>
        <time>2020-11-29T11:54:45Z</time>
      </trkpt>
      <trkpt lat="43.60184" lon="1.17554">
        <ele>282</ele>
        <time>2020-11-29T11:54:46Z</time>
      </trkpt>
      <trkpt lat="43.6018" lon="1.17551">
        <ele>281.8</ele>
        <time>2020-11-29T11:54:47Z</time>
      </trkpt>
      <trkpt lat="43.60173" lon="1.17546">
        <ele>281.4</ele>
        <time>2020-11-29T11:54:48Z</time>
      </trkpt>
      <trkpt lat="43.60169" lon="1.17544">
        <ele>281.1</ele>
        <time>2020-11-29T11:54:49Z</time>
      </trkpt>
      <trkpt lat="43.60165" lon="1.17541">
        <ele>280.8</ele>
        <time>2020-11-29T11:54:50Z</time>
      </trkpt>
      <trkpt lat="43.60159" lon="1.17535">
        <ele>280.1</ele>
        <time>2020-11-29T11:54:51Z</time>
      </trkpt>
      <trkpt lat="43.60153" lon="1.17528">
        <ele>279.3</ele>
        <time>2020-11-29T11:54:52Z</time>
      </trkpt>
      <trkpt lat="43.60149" lon="1.17522">
        <ele>278.6</ele>
        <time>2020-11-29T11:54:53Z</time>
      </trkpt>
      <trkpt lat="43.60144" lon="1.17517">
        <ele>277.7</ele>
        <time>2020-11-29T11:54:54Z</time>
      </trkpt>
      <trkpt lat="43.60138" lon="1.1751">
        <ele>276.6</ele>
        <time>2020-11-29T11:54:55Z</time>
      </trkpt>
      <trkpt lat="43.6013" lon="1.17503">
        <ele>275.4</ele>
        <time>2020-11-29T11:54:56Z</time>
      </trkpt>
      <trkpt lat="43.60123" lon="1.17497">
        <ele>274.2</ele>
        <time>2020-11-29T11:54:57Z</time>
      </trkpt>
      <trkpt lat="43.60113" lon="1.17489">
        <ele>272.6</ele>
        <time>2020-11-29T11:54:58Z</time>
      </trkpt>
      <trkpt lat="43.60103" lon="1.17481">
        <ele>271</ele>
        <time>2020-11-29T11:54:59Z</time>
      </trkpt>
      <trkpt lat="43.60093" lon="1.17473">
        <ele>269.9</ele>
        <time>2020-11-29T11:55:00Z</time>
      </trkpt>
      <trkpt lat="43.60083" lon="1.17465">
        <ele>269.8</ele>
        <time>2020-11-29T11:55:01Z</time>
      </trkpt>
      <trkpt lat="43.60076" lon="1.17461">
        <ele>269.8</ele>
        <time>2020-11-29T11:55:02Z</time>
      </trkpt>
      <trkpt lat="43.6007" lon="1.17457">
        <ele>270.1</ele>
        <time>2020-11-29T11:55:03Z</time>
      </trkpt>
      <trkpt lat="43.60064" lon="1.17454">
        <ele>270.6</ele>
        <time>2020-11-29T11:55:04Z</time>
      </trkpt>
      <trkpt lat="43.60059" lon="1.17451">
        <ele>271</ele>
        <time>2020-11-29T11:55:05Z</time>
      </trkpt>
      <trkpt lat="43.60056" lon="1.17449">
        <ele>271.4</ele>
        <time>2020-11-29T11:55:06Z</time>
      </trkpt>
      <trkpt lat="43.60053" lon="1.17448">
        <ele>271.6</ele>
        <time>2020-11-29T11:55:07Z</time>
      </trkpt>
      <trkpt lat="43.60046" lon="1.17444">
        <ele>272.2</ele>
        <time>2020-11-29T11:55:08Z</time>
      </trkpt>
      <trkpt lat="43.60041" lon="1.17442">
        <ele>272.8</ele>
        <time>2020-11-29T11:55:09Z</time>
      </trkpt>
      <trkpt lat="43.60037" lon="1.17439">
        <ele>273.2</ele>
        <time>2020-11-29T11:55:10Z</time>
      </trkpt>
      <trkpt lat="43.60033" lon="1.17437">
        <ele>273.5</ele>
        <time>2020-11-29T11:55:11Z</time>
      </trkpt>
      <trkpt lat="43.6003" lon="1.17435">
        <ele>273.8</ele>
        <time>2020-11-29T11:55:12Z</time>
      </trkpt>
      <trkpt lat="43.60026" lon="1.17432">
        <ele>274.2</ele>
        <time>2020-11-29T11:55:13Z</time>
      </trkpt>
      <trkpt lat="43.60023" lon="1.1743">
        <ele>274.4</ele>
        <time>2020-11-29T11:55:14Z</time>
      </trkpt>
      <trkpt lat="43.6002" lon="1.17428">
        <ele>274.7</ele>
        <time>2020-11-29T11:55:15Z</time>
      </trkpt>
      <trkpt lat="43.60016" lon="1.17427">
        <ele>275</ele>
        <time>2020-11-29T11:55:16Z</time>
      </trkpt>
      <trkpt lat="43.60013" lon="1.17425">
        <ele>275.2</ele>
        <time>2020-11-29T11:55:17Z</time>
      </trkpt>
      <trkpt lat="43.60009" lon="1.17422">
        <ele>275.5</ele>
        <time>2020-11-29T11:55:18Z</time>
      </trkpt>
      <trkpt lat="43.60007" lon="1.17421">
        <ele>275.6</ele>
        <time>2020-11-29T11:55:19Z</time>
      </trkpt>
      <trkpt lat="43.60003" lon="1.17418">
        <ele>275.9</ele>
        <time>2020-11-29T11:55:20Z</time>
      </trkpt>
      <trkpt lat="43.6" lon="1.17415">
        <ele>276.1</ele>
        <time>2020-11-29T11:55:21Z</time>
      </trkpt>
      <trkpt lat="43.59995" lon="1.1741">
        <ele>276.4</ele>
        <time>2020-11-29T11:55:22Z</time>
      </trkpt>
      <trkpt lat="43.5999" lon="1.17406">
        <ele>276.7</ele>
        <time>2020-11-29T11:55:23Z</time>
      </trkpt>
      <trkpt lat="43.59987" lon="1.17402">
        <ele>276.9</ele>
        <time>2020-11-29T11:55:24Z</time>
      </trkpt>
      <trkpt lat="43.59985" lon="1.17401">
        <ele>277</ele>
        <time>2020-11-29T11:55:25Z</time>
      </trkpt>
      <trkpt lat="43.59982" lon="1.17398">
        <ele>277.2</ele>
        <time>2020-11-29T11:55:26Z</time>
      </trkpt>
      <trkpt lat="43.59978" lon="1.17395">
        <ele>277.4</ele>
        <time>2020-11-29T11:55:27Z</time>
      </trkpt>
      <trkpt lat="43.59974" lon="1.17393">
        <ele>277.6</ele>
        <time>2020-11-29T11:55:28Z</time>
      </trkpt>
      <trkpt lat="43.59971" lon="1.17391">
        <ele>277.7</ele>
        <time>2020-11-29T11:55:29Z</time>
      </trkpt>
      <trkpt lat="43.59966" lon="1.17388">
        <ele>277.8</ele>
        <time>2020-11-29T11:55:30Z</time>
      </trkpt>
      <trkpt lat="43.59964" lon="1.17385">
        <ele>277.9</ele>
        <time>2020-11-29T11:55:31Z</time>
      </trkpt>
      <trkpt lat="43.5996" lon="1.17381">
        <ele>278.1</ele>
        <time>2020-11-29T11:55:32Z</time>
      </trkpt>
      <trkpt lat="43.59956" lon="1.17378">
        <ele>278.2</ele>
        <time>2020-11-29T11:55:33Z</time>
      </trkpt>
      <trkpt lat="43.59952" lon="1.17373">
        <ele>278.4</ele>
        <time>2020-11-29T11:55:34Z</time>
      </trkpt>
      <trkpt lat="43.59949" lon="1.1737">
        <ele>278.5</ele>
        <time>2020-11-29T11:55:35Z</time>
      </trkpt>
      <trkpt lat="43.59947" lon="1.17367">
        <ele>278.7</ele>
        <time>2020-11-29T11:55:36Z</time>
      </trkpt>
      <trkpt lat="43.59945" lon="1.17365">
        <ele>278.8</ele>
        <time>2020-11-29T11:55:37Z</time>
      </trkpt>
      <trkpt lat="43.59944" lon="1.17365">
        <ele>278.8</ele>
        <time>2020-11-29T11:55:38Z</time>
      </trkpt>
      <trkpt lat="43.59942" lon="1.17362">
        <ele>279</ele>
        <time>2020-11-29T11:55:39Z</time>
      </trkpt>
      <trkpt lat="43.59938" lon="1.17358">
        <ele>279.2</ele>
        <time>2020-11-29T11:55:40Z</time>
      </trkpt>
      <trkpt lat="43.59935" lon="1.17354">
        <ele>279.5</ele>
        <time>2020-11-29T11:55:41Z</time>
      </trkpt>
      <trkpt lat="43.59934" lon="1.17353">
        <ele>279.6</ele>
        <time>2020-11-29T11:55:42Z</time>
      </trkpt>
      <trkpt lat="43.59931" lon="1.1735">
        <ele>279.8</ele>
        <time>2020-11-29T11:55:43Z</time>
      </trkpt>
      <trkpt lat="43.59928" lon="1.17349">
        <ele>280</ele>
        <time>2020-11-29T11:55:44Z</time>
      </trkpt>
      <trkpt lat="43.59925" lon="1.17345">
        <ele>280.3</ele>
        <time>2020-11-29T11:55:45Z</time>
      </trkpt>
      <trkpt lat="43.59923" lon="1.17343">
        <ele>280.5</ele>
        <time>2020-11-29T11:55:46Z</time>
      </trkpt>
      <trkpt lat="43.5992" lon="1.17339">
        <ele>280.8</ele>
        <time>2020-11-29T11:55:47Z</time>
      </trkpt>
      <trkpt lat="43.59916" lon="1.17335">
        <ele>281.1</ele>
        <time>2020-11-29T11:55:48Z</time>
      </trkpt>
      <trkpt lat="43.59912" lon="1.17332">
        <ele>281.4</ele>
        <time>2020-11-29T11:55:49Z</time>
      </trkpt>
      <trkpt lat="43.59909" lon="1.17331">
        <ele>281.5</ele>
        <time>2020-11-29T11:55:50Z</time>
      </trkpt>
      <trkpt lat="43.59906" lon="1.17329">
        <ele>281.7</ele>
        <time>2020-11-29T11:55:51Z</time>
      </trkpt>
      <trkpt lat="43.59903" lon="1.17327">
        <ele>281.9</ele>
        <time>2020-11-29T11:55:52Z</time>
      </trkpt>
      <trkpt lat="43.59899" lon="1.17325">
        <ele>282.1</ele>
        <time>2020-11-29T11:55:53Z</time>
      </trkpt>
      <trkpt lat="43.59896" lon="1.17324">
        <ele>282.3</ele>
        <time>2020-11-29T11:55:54Z</time>
      </trkpt>
      <trkpt lat="43.59894" lon="1.17322">
        <ele>282.4</ele>
        <time>2020-11-29T11:55:55Z</time>
      </trkpt>
      <trkpt lat="43.59892" lon="1.17318">
        <ele>282.5</ele>
        <time>2020-11-29T11:55:56Z</time>
      </trkpt>
      <trkpt lat="43.59891" lon="1.17317">
        <ele>282.6</ele>
        <time>2020-11-29T11:55:57Z</time>
      </trkpt>
      <trkpt lat="43.59893" lon="1.1731">
        <ele>282.8</ele>
        <time>2020-11-29T11:55:58Z</time>
      </trkpt>
      <trkpt lat="43.59894" lon="1.17306">
        <ele>282.8</ele>
        <time>2020-11-29T11:55:59Z</time>
      </trkpt>
      <trkpt lat="43.59895" lon="1.17302">
        <ele>282.8</ele>
        <time>2020-11-29T11:56:00Z</time>
      </trkpt>
      <trkpt lat="43.59898" lon="1.17297">
        <ele>282.8</ele>
        <time>2020-11-29T11:56:01Z</time>
      </trkpt>
      <trkpt lat="43.59899" lon="1.17295">
        <ele>282.8</ele>
        <time>2020-11-29T11:56:02Z</time>
      </trkpt>
      <trkpt lat="43.59901" lon="1.17291">
        <ele>282.8</ele>
        <time>2020-11-29T11:56:03Z</time>
      </trkpt>
      <trkpt lat="43.59904" lon="1.17288">
        <ele>282.8</ele>
        <time>2020-11-29T11:56:04Z</time>
      </trkpt>
      <trkpt lat="43.59907" lon="1.17283">
        <ele>282.8</ele>
        <time>2020-11-29T11:56:05Z</time>
      </trkpt>
      <trkpt lat="43.5991" lon="1.17279">
        <ele>282.7</ele>
        <time>2020-11-29T11:56:06Z</time>
      </trkpt>
      <trkpt lat="43.59914" lon="1.17275">
        <ele>282.7</ele>
        <time>2020-11-29T11:56:07Z</time>
      </trkpt>
      <trkpt lat="43.59918" lon="1.17273">
        <ele>282.6</ele>
        <time>2020-11-29T11:56:08Z</time>
      </trkpt>
      <trkpt lat="43.5992" lon="1.1727">
        <ele>282.6</ele>
        <time>2020-11-29T11:56:09Z</time>
      </trkpt>
      <trkpt lat="43.59924" lon="1.17267">
        <ele>282.5</ele>
        <time>2020-11-29T11:56:10Z</time>
      </trkpt>
      <trkpt lat="43.59928" lon="1.17263">
        <ele>282.4</ele>
        <time>2020-11-29T11:56:11Z</time>
      </trkpt>
      <trkpt lat="43.59931" lon="1.17259">
        <ele>282.4</ele>
        <time>2020-11-29T11:56:12Z</time>
      </trkpt>
      <trkpt lat="43.59935" lon="1.17256">
        <ele>282.3</ele>
        <time>2020-11-29T11:56:13Z</time>
      </trkpt>
      <trkpt lat="43.59938" lon="1.17253">
        <ele>282.2</ele>
        <time>2020-11-29T11:56:14Z</time>
      </trkpt>
      <trkpt lat="43.59941" lon="1.1725">
        <ele>282.2</ele>
        <time>2020-11-29T11:56:15Z</time>
      </trkpt>
      <trkpt lat="43.59945" lon="1.17247">
        <ele>282.1</ele>
        <time>2020-11-29T11:56:16Z</time>
      </trkpt>
      <trkpt lat="43.59947" lon="1.17244">
        <ele>282.1</ele>
        <time>2020-11-29T11:56:17Z</time>
      </trkpt>
      <trkpt lat="43.5995" lon="1.17238">
        <ele>282.1</ele>
        <time>2020-11-29T11:56:18Z</time>
      </trkpt>
      <trkpt lat="43.59951" lon="1.17232">
        <ele>282</ele>
        <time>2020-11-29T11:56:19Z</time>
      </trkpt>
      <trkpt lat="43.59951" lon="1.17229">
        <ele>282</ele>
        <time>2020-11-29T11:56:20Z</time>
      </trkpt>
      <trkpt lat="43.59953" lon="1.17223">
        <ele>281.9</ele>
        <time>2020-11-29T11:56:21Z</time>
      </trkpt>
      <trkpt lat="43.59955" lon="1.17215">
        <ele>281.9</ele>
        <time>2020-11-29T11:56:22Z</time>
      </trkpt>
      <trkpt lat="43.59957" lon="1.17209">
        <ele>281.9</ele>
        <time>2020-11-29T11:56:23Z</time>
      </trkpt>
      <trkpt lat="43.59959" lon="1.17202">
        <ele>281.8</ele>
        <time>2020-11-29T11:56:24Z</time>
      </trkpt>
      <trkpt lat="43.59961" lon="1.17196">
        <ele>281.8</ele>
        <time>2020-11-29T11:56:25Z</time>
      </trkpt>
      <trkpt lat="43.59963" lon="1.1719">
        <ele>281.8</ele>
        <time>2020-11-29T11:56:26Z</time>
      </trkpt>
      <trkpt lat="43.59965" lon="1.17184">
        <ele>281.8</ele>
        <time>2020-11-29T11:56:27Z</time>
      </trkpt>
      <trkpt lat="43.59967" lon="1.1718">
        <ele>281.7</ele>
        <time>2020-11-29T11:56:28Z</time>
      </trkpt>
      <trkpt lat="43.59969" lon="1.17177">
        <ele>281.7</ele>
        <time>2020-11-29T11:56:29Z</time>
      </trkpt>
      <trkpt lat="43.59971" lon="1.17172">
        <ele>281.7</ele>
        <time>2020-11-29T11:56:30Z</time>
      </trkpt>
      <trkpt lat="43.59973" lon="1.17168">
        <ele>281.7</ele>
        <time>2020-11-29T11:56:31Z</time>
      </trkpt>
      <trkpt lat="43.59975" lon="1.17163">
        <ele>281.7</ele>
        <time>2020-11-29T11:56:32Z</time>
      </trkpt>
      <trkpt lat="43.59976" lon="1.17159">
        <ele>281.7</ele>
        <time>2020-11-29T11:56:33Z</time>
      </trkpt>
      <trkpt lat="43.5998" lon="1.17153">
        <ele>281.6</ele>
        <time>2020-11-29T11:56:34Z</time>
      </trkpt>
      <trkpt lat="43.59984" lon="1.17148">
        <ele>281.6</ele>
        <time>2020-11-29T11:56:35Z</time>
      </trkpt>
      <trkpt lat="43.59989" lon="1.17144">
        <ele>281.5</ele>
        <time>2020-11-29T11:56:36Z</time>
      </trkpt>
      <trkpt lat="43.59994" lon="1.1714">
        <ele>281.5</ele>
        <time>2020-11-29T11:56:37Z</time>
      </trkpt>
      <trkpt lat="43.59999" lon="1.17134">
        <ele>281.5</ele>
        <time>2020-11-29T11:56:38Z</time>
      </trkpt>
      <trkpt lat="43.60002" lon="1.17129">
        <ele>281.5</ele>
        <time>2020-11-29T11:56:39Z</time>
      </trkpt>
      <trkpt lat="43.60007" lon="1.17124">
        <ele>281.5</ele>
        <time>2020-11-29T11:56:40Z</time>
      </trkpt>
      <trkpt lat="43.60012" lon="1.17119">
        <ele>281.5</ele>
        <time>2020-11-29T11:56:41Z</time>
      </trkpt>
      <trkpt lat="43.60016" lon="1.17115">
        <ele>281.5</ele>
        <time>2020-11-29T11:56:42Z</time>
      </trkpt>
      <trkpt lat="43.6002" lon="1.17111">
        <ele>281.6</ele>
        <time>2020-11-29T11:56:43Z</time>
      </trkpt>
      <trkpt lat="43.60023" lon="1.17109">
        <ele>281.6</ele>
        <time>2020-11-29T11:56:44Z</time>
      </trkpt>
      <trkpt lat="43.60027" lon="1.17105">
        <ele>281.6</ele>
        <time>2020-11-29T11:56:45Z</time>
      </trkpt>
      <trkpt lat="43.60032" lon="1.17101">
        <ele>281.7</ele>
        <time>2020-11-29T11:56:46Z</time>
      </trkpt>
      <trkpt lat="43.60037" lon="1.17096">
        <ele>281.7</ele>
        <time>2020-11-29T11:56:47Z</time>
      </trkpt>
      <trkpt lat="43.60039" lon="1.17092">
        <ele>281.7</ele>
        <time>2020-11-29T11:56:48Z</time>
      </trkpt>
      <trkpt lat="43.60039" lon="1.17088">
        <ele>281.8</ele>
        <time>2020-11-29T11:56:49Z</time>
      </trkpt>
      <trkpt lat="43.60042" lon="1.17084">
        <ele>281.8</ele>
        <time>2020-11-29T11:56:50Z</time>
      </trkpt>
      <trkpt lat="43.60044" lon="1.17081">
        <ele>281.8</ele>
        <time>2020-11-29T11:56:51Z</time>
      </trkpt>
      <trkpt lat="43.60047" lon="1.17079">
        <ele>281.9</ele>
        <time>2020-11-29T11:56:52Z</time>
      </trkpt>
      <trkpt lat="43.60049" lon="1.17074">
        <ele>281.9</ele>
        <time>2020-11-29T11:56:53Z</time>
      </trkpt>
      <trkpt lat="43.60052" lon="1.1707">
        <ele>281.9</ele>
        <time>2020-11-29T11:56:54Z</time>
      </trkpt>
      <trkpt lat="43.60055" lon="1.17065">
        <ele>282</ele>
        <time>2020-11-29T11:56:55Z</time>
      </trkpt>
      <trkpt lat="43.60057" lon="1.17062">
        <ele>282</ele>
        <time>2020-11-29T11:56:56Z</time>
      </trkpt>
      <trkpt lat="43.60059" lon="1.17062">
        <ele>282</ele>
        <time>2020-11-29T11:56:57Z</time>
      </trkpt>
      <trkpt lat="43.60061" lon="1.17064">
        <ele>282</ele>
        <time>2020-11-29T11:56:58Z</time>
      </trkpt>
      <trkpt lat="43.60062" lon="1.17064">
        <ele>281.3</ele>
        <time>2020-11-29T11:56:59Z</time>
      </trkpt>
      <trkpt lat="43.60065" lon="1.17065">
        <ele>281.1</ele>
        <time>2020-11-29T11:57:00Z</time>
      </trkpt>
      <trkpt lat="43.60066" lon="1.17065">
        <ele>281.1</ele>
        <time>2020-11-29T11:57:01Z</time>
      </trkpt>
      <trkpt lat="43.60067" lon="1.17063">
        <ele>281</ele>
        <time>2020-11-29T11:57:02Z</time>
      </trkpt>
      <trkpt lat="43.60067" lon="1.1706">
        <ele>280.9</ele>
        <time>2020-11-29T11:57:03Z</time>
      </trkpt>
      <trkpt lat="43.60066" lon="1.17055">
        <ele>280.7</ele>
        <time>2020-11-29T11:57:04Z</time>
      </trkpt>
      <trkpt lat="43.60065" lon="1.17062">
        <ele>280.5</ele>
        <time>2020-11-29T11:57:05Z</time>
      </trkpt>
      <trkpt lat="43.60065" lon="1.17065">
        <ele>280.4</ele>
        <time>2020-11-29T11:57:06Z</time>
      </trkpt>
      <trkpt lat="43.60065" lon="1.17072">
        <ele>280.2</ele>
        <time>2020-11-29T11:57:07Z</time>
      </trkpt>
      <trkpt lat="43.60065" lon="1.17079">
        <ele>279.9</ele>
        <time>2020-11-29T11:57:08Z</time>
      </trkpt>
      <trkpt lat="43.60066" lon="1.17087">
        <ele>279.7</ele>
        <time>2020-11-29T11:57:09Z</time>
      </trkpt>
      <trkpt lat="43.60066" lon="1.17091">
        <ele>279.5</ele>
        <time>2020-11-29T11:57:10Z</time>
      </trkpt>
      <trkpt lat="43.60068" lon="1.17098">
        <ele>279.2</ele>
        <time>2020-11-29T11:57:11Z</time>
      </trkpt>
      <trkpt lat="43.6007" lon="1.17104">
        <ele>279</ele>
        <time>2020-11-29T11:57:12Z</time>
      </trkpt>
      <trkpt lat="43.60072" lon="1.17113">
        <ele>278.6</ele>
        <time>2020-11-29T11:57:13Z</time>
      </trkpt>
      <trkpt lat="43.60073" lon="1.17119">
        <ele>278.4</ele>
        <time>2020-11-29T11:57:14Z</time>
      </trkpt>
      <trkpt lat="43.60073" lon="1.17128">
        <ele>278</ele>
        <time>2020-11-29T11:57:15Z</time>
      </trkpt>
      <trkpt lat="43.60073" lon="1.17139">
        <ele>277.6</ele>
        <time>2020-11-29T11:57:16Z</time>
      </trkpt>
      <trkpt lat="43.60075" lon="1.1715">
        <ele>277.1</ele>
        <time>2020-11-29T11:57:17Z</time>
      </trkpt>
      <trkpt lat="43.60078" lon="1.17159">
        <ele>276.7</ele>
        <time>2020-11-29T11:57:18Z</time>
      </trkpt>
      <trkpt lat="43.60079" lon="1.17168">
        <ele>276.4</ele>
        <time>2020-11-29T11:57:19Z</time>
      </trkpt>
      <trkpt lat="43.60078" lon="1.17177">
        <ele>276.1</ele>
        <time>2020-11-29T11:57:20Z</time>
      </trkpt>
      <trkpt lat="43.60076" lon="1.17186">
        <ele>275.8</ele>
        <time>2020-11-29T11:57:21Z</time>
      </trkpt>
      <trkpt lat="43.60077" lon="1.17195">
        <ele>275.6</ele>
        <time>2020-11-29T11:57:22Z</time>
      </trkpt>
      <trkpt lat="43.60078" lon="1.17203">
        <ele>275.5</ele>
        <time>2020-11-29T11:57:23Z</time>
      </trkpt>
      <trkpt lat="43.60078" lon="1.17211">
        <ele>275.4</ele>
        <time>2020-11-29T11:57:24Z</time>
      </trkpt>
      <trkpt lat="43.60076" lon="1.1722">
        <ele>275.3</ele>
        <time>2020-11-29T11:57:25Z</time>
      </trkpt>
      <trkpt lat="43.60074" lon="1.17229">
        <ele>275.3</ele>
        <time>2020-11-29T11:57:26Z</time>
      </trkpt>
      <trkpt lat="43.60073" lon="1.1724">
        <ele>275.2</ele>
        <time>2020-11-29T11:57:27Z</time>
      </trkpt>
      <trkpt lat="43.60073" lon="1.1725">
        <ele>275.2</ele>
        <time>2020-11-29T11:57:28Z</time>
      </trkpt>
      <trkpt lat="43.60074" lon="1.17258">
        <ele>275.1</ele>
        <time>2020-11-29T11:57:29Z</time>
      </trkpt>
      <trkpt lat="43.60076" lon="1.17266">
        <ele>275</ele>
        <time>2020-11-29T11:57:30Z</time>
      </trkpt>
      <trkpt lat="43.60077" lon="1.17273">
        <ele>275</ele>
        <time>2020-11-29T11:57:31Z</time>
      </trkpt>
      <trkpt lat="43.60075" lon="1.1728">
        <ele>274.8</ele>
        <time>2020-11-29T11:57:32Z</time>
      </trkpt>
      <trkpt lat="43.60072" lon="1.17288">
        <ele>274.7</ele>
        <time>2020-11-29T11:57:33Z</time>
      </trkpt>
      <trkpt lat="43.60072" lon="1.17293">
        <ele>274.5</ele>
        <time>2020-11-29T11:57:34Z</time>
      </trkpt>
      <trkpt lat="43.60073" lon="1.17295">
        <ele>274.5</ele>
        <time>2020-11-29T11:57:35Z</time>
      </trkpt>
      <trkpt lat="43.60074" lon="1.173">
        <ele>274.3</ele>
        <time>2020-11-29T11:57:36Z</time>
      </trkpt>
      <trkpt lat="43.60074" lon="1.17306">
        <ele>274.1</ele>
        <time>2020-11-29T11:57:37Z</time>
      </trkpt>
      <trkpt lat="43.60075" lon="1.17315">
        <ele>273.8</ele>
        <time>2020-11-29T11:57:38Z</time>
      </trkpt>
      <trkpt lat="43.60073" lon="1.17322">
        <ele>273.6</ele>
        <time>2020-11-29T11:57:39Z</time>
      </trkpt>
      <trkpt lat="43.60072" lon="1.17327">
        <ele>273.4</ele>
        <time>2020-11-29T11:57:40Z</time>
      </trkpt>
      <trkpt lat="43.60071" lon="1.17328">
        <ele>273.4</ele>
        <time>2020-11-29T11:57:41Z</time>
      </trkpt>
      <trkpt lat="43.60074" lon="1.17331">
        <ele>273.2</ele>
        <time>2020-11-29T11:57:42Z</time>
      </trkpt>
      <trkpt lat="43.60075" lon="1.17337">
        <ele>273</ele>
        <time>2020-11-29T11:57:43Z</time>
      </trkpt>
      <trkpt lat="43.60076" lon="1.17345">
        <ele>272.8</ele>
        <time>2020-11-29T11:57:44Z</time>
      </trkpt>
      <trkpt lat="43.60076" lon="1.17349">
        <ele>272.6</ele>
        <time>2020-11-29T11:57:45Z</time>
      </trkpt>
      <trkpt lat="43.60077" lon="1.17356">
        <ele>272.3</ele>
        <time>2020-11-29T11:57:46Z</time>
      </trkpt>
      <trkpt lat="43.60078" lon="1.17359">
        <ele>272.2</ele>
        <time>2020-11-29T11:57:47Z</time>
      </trkpt>
      <trkpt lat="43.60077" lon="1.17361">
        <ele>272.1</ele>
        <time>2020-11-29T11:57:48Z</time>
      </trkpt>
      <trkpt lat="43.6008" lon="1.17362">
        <ele>272</ele>
        <time>2020-11-29T11:57:49Z</time>
      </trkpt>
      <trkpt lat="43.6008" lon="1.17368">
        <ele>271.8</ele>
        <time>2020-11-29T11:57:50Z</time>
      </trkpt>
      <trkpt lat="43.60081" lon="1.17374">
        <ele>271.6</ele>
        <time>2020-11-29T11:57:51Z</time>
      </trkpt>
      <trkpt lat="43.60079" lon="1.17384">
        <ele>271.3</ele>
        <time>2020-11-29T11:57:52Z</time>
      </trkpt>
      <trkpt lat="43.60076" lon="1.1739">
        <ele>271.2</ele>
        <time>2020-11-29T11:57:53Z</time>
      </trkpt>
      <trkpt lat="43.60073" lon="1.17397">
        <ele>271.1</ele>
        <time>2020-11-29T11:57:54Z</time>
      </trkpt>
      <trkpt lat="43.60072" lon="1.17402">
        <ele>271</ele>
        <time>2020-11-29T11:57:55Z</time>
      </trkpt>
      <trkpt lat="43.60072" lon="1.17409">
        <ele>270.8</ele>
        <time>2020-11-29T11:57:56Z</time>
      </trkpt>
      <trkpt lat="43.60072" lon="1.17414">
        <ele>270.8</ele>
        <time>2020-11-29T11:57:57Z</time>
      </trkpt>
      <trkpt lat="43.60072" lon="1.17418">
        <ele>270.7</ele>
        <time>2020-11-29T11:57:58Z</time>
      </trkpt>
      <trkpt lat="43.60072" lon="1.17419">
        <ele>270.7</ele>
        <time>2020-11-29T11:57:59Z</time>
      </trkpt>
      <trkpt lat="43.60074" lon="1.17419">
        <ele>270.6</ele>
        <time>2020-11-29T11:58:00Z</time>
      </trkpt>
      <trkpt lat="43.60075" lon="1.17422">
        <ele>270.3</ele>
        <time>2020-11-29T11:58:01Z</time>
      </trkpt>
      <trkpt lat="43.60077" lon="1.17422">
        <ele>270.3</ele>
        <time>2020-11-29T11:58:02Z</time>
      </trkpt>
      <trkpt lat="43.60078" lon="1.1742">
        <ele>270.3</ele>
        <time>2020-11-29T11:58:03Z</time>
      </trkpt>
      <trkpt lat="43.60079" lon="1.17417">
        <ele>270.3</ele>
        <time>2020-11-29T11:58:04Z</time>
      </trkpt>
      <trkpt lat="43.60082" lon="1.17413">
        <ele>270.4</ele>
        <time>2020-11-29T11:58:05Z</time>
      </trkpt>
      <trkpt lat="43.60084" lon="1.17411">
        <ele>270.4</ele>
        <time>2020-11-29T11:58:06Z</time>
      </trkpt>
      <trkpt lat="43.60086" lon="1.17408">
        <ele>270.4</ele>
        <time>2020-11-29T11:58:07Z</time>
      </trkpt>
      <trkpt lat="43.60089" lon="1.17407">
        <ele>270.4</ele>
        <time>2020-11-29T11:58:08Z</time>
      </trkpt>
      <trkpt lat="43.60092" lon="1.17404">
        <ele>270.5</ele>
        <time>2020-11-29T11:58:09Z</time>
      </trkpt>
      <trkpt lat="43.60094" lon="1.17401">
        <ele>270.5</ele>
        <time>2020-11-29T11:58:10Z</time>
      </trkpt>
      <trkpt lat="43.60098" lon="1.17398">
        <ele>270.6</ele>
        <time>2020-11-29T11:58:11Z</time>
      </trkpt>
      <trkpt lat="43.60102" lon="1.17394">
        <ele>270.6</ele>
        <time>2020-11-29T11:58:12Z</time>
      </trkpt>
      <trkpt lat="43.60107" lon="1.17391">
        <ele>270.7</ele>
        <time>2020-11-29T11:58:13Z</time>
      </trkpt>
      <trkpt lat="43.60111" lon="1.17387">
        <ele>270.8</ele>
        <time>2020-11-29T11:58:14Z</time>
      </trkpt>
      <trkpt lat="43.60114" lon="1.17383">
        <ele>270.8</ele>
        <time>2020-11-29T11:58:15Z</time>
      </trkpt>
      <trkpt lat="43.60119" lon="1.17378">
        <ele>270.9</ele>
        <time>2020-11-29T11:58:16Z</time>
      </trkpt>
      <trkpt lat="43.60123" lon="1.1737">
        <ele>271.1</ele>
        <time>2020-11-29T11:58:17Z</time>
      </trkpt>
      <trkpt lat="43.60127" lon="1.17362">
        <ele>271.5</ele>
        <time>2020-11-29T11:58:18Z</time>
      </trkpt>
      <trkpt lat="43.60129" lon="1.17357">
        <ele>271.7</ele>
        <time>2020-11-29T11:58:19Z</time>
      </trkpt>
      <trkpt lat="43.6013" lon="1.17352">
        <ele>272</ele>
        <time>2020-11-29T11:58:20Z</time>
      </trkpt>
      <trkpt lat="43.60134" lon="1.17347">
        <ele>272.2</ele>
        <time>2020-11-29T11:58:21Z</time>
      </trkpt>
      <trkpt lat="43.60136" lon="1.17343">
        <ele>272.4</ele>
        <time>2020-11-29T11:58:22Z</time>
      </trkpt>
      <trkpt lat="43.60139" lon="1.17339">
        <ele>272.6</ele>
        <time>2020-11-29T11:58:23Z</time>
      </trkpt>
      <trkpt lat="43.60142" lon="1.17336">
        <ele>272.8</ele>
        <time>2020-11-29T11:58:24Z</time>
      </trkpt>
      <trkpt lat="43.60143" lon="1.17332">
        <ele>273</ele>
        <time>2020-11-29T11:58:25Z</time>
      </trkpt>
      <trkpt lat="43.60143" lon="1.17331">
        <ele>273</ele>
        <time>2020-11-29T11:58:26Z</time>
      </trkpt>
      <trkpt lat="43.60144" lon="1.17327">
        <ele>273.2</ele>
        <time>2020-11-29T11:58:27Z</time>
      </trkpt>
      <trkpt lat="43.60146" lon="1.17323">
        <ele>273.3</ele>
        <time>2020-11-29T11:58:28Z</time>
      </trkpt>
      <trkpt lat="43.60147" lon="1.1732">
        <ele>273.4</ele>
        <time>2020-11-29T11:58:29Z</time>
      </trkpt>
      <trkpt lat="43.60149" lon="1.17313">
        <ele>273.7</ele>
        <time>2020-11-29T11:58:30Z</time>
      </trkpt>
      <trkpt lat="43.60149" lon="1.17308">
        <ele>273.8</ele>
        <time>2020-11-29T11:58:31Z</time>
      </trkpt>
      <trkpt lat="43.60152" lon="1.17303">
        <ele>274.1</ele>
        <time>2020-11-29T11:58:32Z</time>
      </trkpt>
      <trkpt lat="43.60153" lon="1.17299">
        <ele>274.2</ele>
        <time>2020-11-29T11:58:33Z</time>
      </trkpt>
      <trkpt lat="43.60154" lon="1.17294">
        <ele>274.4</ele>
        <time>2020-11-29T11:58:34Z</time>
      </trkpt>
      <trkpt lat="43.60156" lon="1.17288">
        <ele>274.6</ele>
        <time>2020-11-29T11:58:35Z</time>
      </trkpt>
      <trkpt lat="43.60157" lon="1.17284">
        <ele>274.7</ele>
        <time>2020-11-29T11:58:36Z</time>
      </trkpt>
      <trkpt lat="43.60159" lon="1.1728">
        <ele>274.8</ele>
        <time>2020-11-29T11:58:37Z</time>
      </trkpt>
      <trkpt lat="43.6016" lon="1.17276">
        <ele>275</ele>
        <time>2020-11-29T11:58:38Z</time>
      </trkpt>
      <trkpt lat="43.60163" lon="1.17269">
        <ele>275.2</ele>
        <time>2020-11-29T11:58:39Z</time>
      </trkpt>
      <trkpt lat="43.60165" lon="1.17263">
        <ele>275.4</ele>
        <time>2020-11-29T11:58:40Z</time>
      </trkpt>
      <trkpt lat="43.60167" lon="1.17259">
        <ele>275.6</ele>
        <time>2020-11-29T11:58:41Z</time>
      </trkpt>
      <trkpt lat="43.60168" lon="1.17255">
        <ele>275.7</ele>
        <time>2020-11-29T11:58:42Z</time>
      </trkpt>
      <trkpt lat="43.6017" lon="1.17252">
        <ele>275.8</ele>
        <time>2020-11-29T11:58:43Z</time>
      </trkpt>
      <trkpt lat="43.60172" lon="1.17249">
        <ele>275.9</ele>
        <time>2020-11-29T11:58:44Z</time>
      </trkpt>
      <trkpt lat="43.60174" lon="1.17246">
        <ele>276</ele>
        <time>2020-11-29T11:58:45Z</time>
      </trkpt>
      <trkpt lat="43.60176" lon="1.17242">
        <ele>276.2</ele>
        <time>2020-11-29T11:58:46Z</time>
      </trkpt>
      <trkpt lat="43.60179" lon="1.17238">
        <ele>276.3</ele>
        <time>2020-11-29T11:58:47Z</time>
      </trkpt>
      <trkpt lat="43.60179" lon="1.17236">
        <ele>276.4</ele>
        <time>2020-11-29T11:58:48Z</time>
      </trkpt>
      <trkpt lat="43.60181" lon="1.17233">
        <ele>276.5</ele>
        <time>2020-11-29T11:58:49Z</time>
      </trkpt>
      <trkpt lat="43.60183" lon="1.17228">
        <ele>276.6</ele>
        <time>2020-11-29T11:58:50Z</time>
      </trkpt>
      <trkpt lat="43.60186" lon="1.17225">
        <ele>276.7</ele>
        <time>2020-11-29T11:58:51Z</time>
      </trkpt>
      <trkpt lat="43.60189" lon="1.17221">
        <ele>276.9</ele>
        <time>2020-11-29T11:58:52Z</time>
      </trkpt>
      <trkpt lat="43.60192" lon="1.1722">
        <ele>276.9</ele>
        <time>2020-11-29T11:58:53Z</time>
      </trkpt>
      <trkpt lat="43.60193" lon="1.17216">
        <ele>277</ele>
        <time>2020-11-29T11:58:54Z</time>
      </trkpt>
      <trkpt lat="43.60195" lon="1.17212">
        <ele>277.1</ele>
        <time>2020-11-29T11:58:55Z</time>
      </trkpt>
      <trkpt lat="43.60195" lon="1.1721">
        <ele>277.2</ele>
        <time>2020-11-29T11:58:56Z</time>
      </trkpt>
      <trkpt lat="43.60196" lon="1.17206">
        <ele>277.3</ele>
        <time>2020-11-29T11:58:57Z</time>
      </trkpt>
      <trkpt lat="43.60197" lon="1.17202">
        <ele>277.4</ele>
        <time>2020-11-29T11:58:58Z</time>
      </trkpt>
      <trkpt lat="43.60198" lon="1.17201">
        <ele>277.4</ele>
        <time>2020-11-29T11:58:59Z</time>
      </trkpt>
      <trkpt lat="43.60198" lon="1.17196">
        <ele>277.5</ele>
        <time>2020-11-29T11:59:00Z</time>
      </trkpt>
      <trkpt lat="43.60199" lon="1.17189">
        <ele>277.6</ele>
        <time>2020-11-29T11:59:02Z</time>
      </trkpt>
      <trkpt lat="43.602" lon="1.17186">
        <ele>277.7</ele>
        <time>2020-11-29T11:59:03Z</time>
      </trkpt>
      <trkpt lat="43.602" lon="1.17183">
        <ele>277.8</ele>
        <time>2020-11-29T11:59:04Z</time>
      </trkpt>
      <trkpt lat="43.60199" lon="1.17177">
        <ele>278.3</ele>
        <time>2020-11-29T11:59:05Z</time>
      </trkpt>
      <trkpt lat="43.60198" lon="1.17171">
        <ele>278.3</ele>
        <time>2020-11-29T11:59:06Z</time>
      </trkpt>
      <trkpt lat="43.60194" lon="1.17167">
        <ele>278.2</ele>
        <time>2020-11-29T11:59:07Z</time>
      </trkpt>
      <trkpt lat="43.6019" lon="1.17163">
        <ele>278.2</ele>
        <time>2020-11-29T11:59:08Z</time>
      </trkpt>
      <trkpt lat="43.60188" lon="1.17159">
        <ele>278.2</ele>
        <time>2020-11-29T11:59:09Z</time>
      </trkpt>
      <trkpt lat="43.60186" lon="1.17156">
        <ele>278.2</ele>
        <time>2020-11-29T11:59:10Z</time>
      </trkpt>
      <trkpt lat="43.60183" lon="1.17153">
        <ele>278.1</ele>
        <time>2020-11-29T11:59:11Z</time>
      </trkpt>
      <trkpt lat="43.6018" lon="1.17149">
        <ele>278.2</ele>
        <time>2020-11-29T11:59:12Z</time>
      </trkpt>
      <trkpt lat="43.60179" lon="1.17147">
        <ele>278.2</ele>
        <time>2020-11-29T11:59:13Z</time>
      </trkpt>
      <trkpt lat="43.60174" lon="1.17143">
        <ele>278.2</ele>
        <time>2020-11-29T11:59:14Z</time>
      </trkpt>
      <trkpt lat="43.60172" lon="1.17139">
        <ele>278.3</ele>
        <time>2020-11-29T11:59:15Z</time>
      </trkpt>
      <trkpt lat="43.60168" lon="1.17135">
        <ele>278.4</ele>
        <time>2020-11-29T11:59:16Z</time>
      </trkpt>
      <trkpt lat="43.60164" lon="1.1713">
        <ele>278.4</ele>
        <time>2020-11-29T11:59:17Z</time>
      </trkpt>
      <trkpt lat="43.60161" lon="1.17127">
        <ele>278.5</ele>
        <time>2020-11-29T11:59:18Z</time>
      </trkpt>
      <trkpt lat="43.60157" lon="1.17124">
        <ele>278.6</ele>
        <time>2020-11-29T11:59:19Z</time>
      </trkpt>
      <trkpt lat="43.60153" lon="1.1712">
        <ele>278.6</ele>
        <time>2020-11-29T11:59:20Z</time>
      </trkpt>
      <trkpt lat="43.60149" lon="1.17118">
        <ele>278.7</ele>
        <time>2020-11-29T11:59:21Z</time>
      </trkpt>
      <trkpt lat="43.60144" lon="1.17114">
        <ele>278.7</ele>
        <time>2020-11-29T11:59:22Z</time>
      </trkpt>
      <trkpt lat="43.6014" lon="1.17111">
        <ele>278.8</ele>
        <time>2020-11-29T11:59:23Z</time>
      </trkpt>
      <trkpt lat="43.60135" lon="1.17108">
        <ele>278.9</ele>
        <time>2020-11-29T11:59:24Z</time>
      </trkpt>
      <trkpt lat="43.60132" lon="1.17105">
        <ele>278.9</ele>
        <time>2020-11-29T11:59:25Z</time>
      </trkpt>
      <trkpt lat="43.60127" lon="1.17101">
        <ele>279</ele>
        <time>2020-11-29T11:59:26Z</time>
      </trkpt>
      <trkpt lat="43.60124" lon="1.17098">
        <ele>279.1</ele>
        <time>2020-11-29T11:59:27Z</time>
      </trkpt>
      <trkpt lat="43.60121" lon="1.17093">
        <ele>279.1</ele>
        <time>2020-11-29T11:59:28Z</time>
      </trkpt>
      <trkpt lat="43.60117" lon="1.17088">
        <ele>279.2</ele>
        <time>2020-11-29T11:59:29Z</time>
      </trkpt>
      <trkpt lat="43.60113" lon="1.17083">
        <ele>279.4</ele>
        <time>2020-11-29T11:59:30Z</time>
      </trkpt>
      <trkpt lat="43.6011" lon="1.1708">
        <ele>279.4</ele>
        <time>2020-11-29T11:59:31Z</time>
      </trkpt>
      <trkpt lat="43.60106" lon="1.17076">
        <ele>279.5</ele>
        <time>2020-11-29T11:59:32Z</time>
      </trkpt>
      <trkpt lat="43.60102" lon="1.17074">
        <ele>279.7</ele>
        <time>2020-11-29T11:59:33Z</time>
      </trkpt>
      <trkpt lat="43.60098" lon="1.1707">
        <ele>279.8</ele>
        <time>2020-11-29T11:59:34Z</time>
      </trkpt>
      <trkpt lat="43.60094" lon="1.17068">
        <ele>279.9</ele>
        <time>2020-11-29T11:59:35Z</time>
      </trkpt>
      <trkpt lat="43.60089" lon="1.17064">
        <ele>280.1</ele>
        <time>2020-11-29T11:59:36Z</time>
      </trkpt>
      <trkpt lat="43.60086" lon="1.17061">
        <ele>280.2</ele>
        <time>2020-11-29T11:59:37Z</time>
      </trkpt>
      <trkpt lat="43.60083" lon="1.17059">
        <ele>280.3</ele>
        <time>2020-11-29T11:59:38Z</time>
      </trkpt>
      <trkpt lat="43.6008" lon="1.17056">
        <ele>280.5</ele>
        <time>2020-11-29T11:59:39Z</time>
      </trkpt>
      <trkpt lat="43.60076" lon="1.17055">
        <ele>280.6</ele>
        <time>2020-11-29T11:59:40Z</time>
      </trkpt>
      <trkpt lat="43.60072" lon="1.17052">
        <ele>280.8</ele>
        <time>2020-11-29T11:59:41Z</time>
      </trkpt>
      <trkpt lat="43.60068" lon="1.17051">
        <ele>281</ele>
        <time>2020-11-29T11:59:42Z</time>
      </trkpt>
      <trkpt lat="43.60065" lon="1.17048">
        <ele>281.1</ele>
        <time>2020-11-29T11:59:43Z</time>
      </trkpt>
      <trkpt lat="43.60063" lon="1.17046">
        <ele>281.2</ele>
        <time>2020-11-29T11:59:44Z</time>
      </trkpt>
      <trkpt lat="43.60061" lon="1.17042">
        <ele>281.4</ele>
        <time>2020-11-29T11:59:45Z</time>
      </trkpt>
      <trkpt lat="43.6006" lon="1.17041">
        <ele>281.4</ele>
        <time>2020-11-29T11:59:46Z</time>
      </trkpt>
      <trkpt lat="43.60059" lon="1.17038">
        <ele>281.5</ele>
        <time>2020-11-29T11:59:47Z</time>
      </trkpt>
      <trkpt lat="43.60059" lon="1.17037">
        <ele>281.5</ele>
        <time>2020-11-29T11:59:48Z</time>
      </trkpt>
      <trkpt lat="43.60058" lon="1.17036">
        <ele>281.6</ele>
        <time>2020-11-29T11:59:49Z</time>
      </trkpt>
      <trkpt lat="43.60057" lon="1.17035">
        <ele>281.6</ele>
        <time>2020-11-29T11:59:50Z</time>
      </trkpt>
      <trkpt lat="43.60059" lon="1.17035">
        <ele>281.6</ele>
        <time>2020-11-29T11:59:51Z</time>
      </trkpt>
      <trkpt lat="43.6006" lon="1.17035">
        <ele>281.7</ele>
        <time>2020-11-29T11:59:52Z</time>
      </trkpt>
      <trkpt lat="43.6006" lon="1.17035">
        <ele>281.7</ele>
        <time>2020-11-29T11:59:53Z</time>
      </trkpt>
      <trkpt lat="43.6006" lon="1.17034">
        <ele>281.7</ele>
        <time>2020-11-29T11:59:54Z</time>
      </trkpt>
      <trkpt lat="43.6006" lon="1.17034">
        <ele>281.7</ele>
        <time>2020-11-29T11:59:55Z</time>
      </trkpt>
      <trkpt lat="43.6006" lon="1.17033">
        <ele>281.7</ele>
        <time>2020-11-29T11:59:56Z</time>
      </trkpt>
      <trkpt lat="43.60059" lon="1.17032">
        <ele>281.8</ele>
        <time>2020-11-29T11:59:57Z</time>
      </trkpt>
      <trkpt lat="43.6006" lon="1.17032">
        <ele>281.8</ele>
        <time>2020-11-29T11:59:58Z</time>
      </trkpt>
      <trkpt lat="43.6006" lon="1.17032">
        <ele>281.8</ele>
        <time>2020-11-29T11:59:59Z</time>
      </trkpt>
      <trkpt lat="43.60059" lon="1.17034">
        <ele>281.8</ele>
        <time>2020-11-29T12:00:00Z</time>
      </trkpt>
      <trkpt lat="43.6006" lon="1.17033">
        <ele>281.8</ele>
        <time>2020-11-29T12:00:01Z</time>
      </trkpt>
      <trkpt lat="43.6006" lon="1.17033">
        <ele>281.8</ele>
        <time>2020-11-29T12:00:02Z</time>
      </trkpt>
      <trkpt lat="43.6006" lon="1.17033">
        <ele>281.9</ele>
        <time>2020-11-29T12:00:03Z</time>
      </trkpt>
      <trkpt lat="43.6006" lon="1.17033">
        <ele>281.9</ele>
        <time>2020-11-29T12:00:04Z</time>
      </trkpt>
      <trkpt lat="43.6006" lon="1.17033">
        <ele>281.9</ele>
        <time>2020-11-29T12:00:05Z</time>
      </trkpt>
      <trkpt lat="43.6006" lon="1.17033">
        <ele>281.9</ele>
        <time>2020-11-29T12:00:06Z</time>
      </trkpt>
      <trkpt lat="43.6006" lon="1.17033">
        <ele>281.9</ele>
        <time>2020-11-29T12:00:07Z</time>
      </trkpt>
      <trkpt lat="43.6006" lon="1.17033">
        <ele>281.9</ele>
        <time>2020-11-29T12:00:08Z</time>
      </trkpt>
      <trkpt lat="43.6006" lon="1.17033">
        <ele>281.9</ele>
        <time>2020-11-29T12:00:09Z</time>
      </trkpt>
      <trkpt lat="43.6006" lon="1.17032">
        <ele>281.9</ele>
        <time>2020-11-29T12:00:10Z</time>
      </trkpt>
      <trkpt lat="43.60059" lon="1.17033">
        <ele>281.9</ele>
        <time>2020-11-29T12:00:11Z</time>
      </trkpt>
      <trkpt lat="43.60059" lon="1.17033">
        <ele>281.9</ele>
        <time>2020-11-29T12:00:12Z</time>
      </trkpt>
      <trkpt lat="43.60059" lon="1.17034">
        <ele>281.9</ele>
        <time>2020-11-29T12:00:13Z</time>
      </trkpt>
      <trkpt lat="43.60059" lon="1.17034">
        <ele>281.9</ele>
        <time>2020-11-29T12:00:14Z</time>
      </trkpt>
      <trkpt lat="43.60059" lon="1.17034">
        <ele>281.9</ele>
        <time>2020-11-29T12:00:15Z</time>
      </trkpt>
      <trkpt lat="43.60059" lon="1.17035">
        <ele>281.9</ele>
        <time>2020-11-29T12:00:16Z</time>
      </trkpt>
      <trkpt lat="43.60058" lon="1.17034">
        <ele>281.9</ele>
        <time>2020-11-29T12:00:17Z</time>
      </trkpt>
      <trkpt lat="43.60058" lon="1.17035">
        <ele>281.9</ele>
        <time>2020-11-29T12:00:18Z</time>
      </trkpt>
      <trkpt lat="43.60057" lon="1.17035">
        <ele>282</ele>
        <time>2020-11-29T12:00:19Z</time>
      </trkpt>
      <trkpt lat="43.60057" lon="1.17034">
        <ele>282</ele>
        <time>2020-11-29T12:00:20Z</time>
      </trkpt>
      <trkpt lat="43.60056" lon="1.17033">
        <ele>282</ele>
        <time>2020-11-29T12:00:21Z</time>
      </trkpt>
      <trkpt lat="43.60055" lon="1.17032">
        <ele>282</ele>
        <time>2020-11-29T12:00:22Z</time>
      </trkpt>
      <trkpt lat="43.60055" lon="1.17031">
        <ele>282</ele>
        <time>2020-11-29T12:00:23Z</time>
      </trkpt>
      <trkpt lat="43.60054" lon="1.1703">
        <ele>282</ele>
        <time>2020-11-29T12:00:24Z</time>
      </trkpt>
      <trkpt lat="43.60053" lon="1.17029">
        <ele>282.1</ele>
        <time>2020-11-29T12:00:25Z</time>
      </trkpt>
      <trkpt lat="43.60051" lon="1.17028">
        <ele>282.1</ele>
        <time>2020-11-29T12:00:26Z</time>
      </trkpt>
      <trkpt lat="43.60048" lon="1.17026">
        <ele>282.1</ele>
        <time>2020-11-29T12:00:27Z</time>
      </trkpt>
      <trkpt lat="43.60045" lon="1.17025">
        <ele>282.1</ele>
        <time>2020-11-29T12:00:28Z</time>
      </trkpt>
      <trkpt lat="43.60043" lon="1.17023">
        <ele>282.1</ele>
        <time>2020-11-29T12:00:29Z</time>
      </trkpt>
      <trkpt lat="43.60039" lon="1.17021">
        <ele>282.1</ele>
        <time>2020-11-29T12:00:30Z</time>
      </trkpt>
      <trkpt lat="43.60036" lon="1.1702">
        <ele>282.1</ele>
        <time>2020-11-29T12:00:31Z</time>
      </trkpt>
      <trkpt lat="43.60036" lon="1.1702">
        <ele>282.1</ele>
        <time>2020-11-29T12:00:32Z</time>
      </trkpt>
      <trkpt lat="43.6003" lon="1.17017">
        <ele>281.9</ele>
        <time>2020-11-29T12:00:33Z</time>
      </trkpt>
      <trkpt lat="43.60028" lon="1.17015">
        <ele>281.7</ele>
        <time>2020-11-29T12:00:34Z</time>
      </trkpt>
      <trkpt lat="43.60023" lon="1.17009">
        <ele>281.1</ele>
        <time>2020-11-29T12:00:35Z</time>
      </trkpt>
      <trkpt lat="43.60016" lon="1.17003">
        <ele>280.1</ele>
        <time>2020-11-29T12:00:36Z</time>
      </trkpt>
      <trkpt lat="43.60009" lon="1.16996">
        <ele>278.7</ele>
        <time>2020-11-29T12:00:37Z</time>
      </trkpt>
      <trkpt lat="43.60001" lon="1.16991">
        <ele>277.2</ele>
        <time>2020-11-29T12:00:38Z</time>
      </trkpt>
      <trkpt lat="43.59993" lon="1.1699">
        <ele>275.7</ele>
        <time>2020-11-29T12:00:39Z</time>
      </trkpt>
      <trkpt lat="43.59988" lon="1.16987">
        <ele>274.7</ele>
        <time>2020-11-29T12:00:40Z</time>
      </trkpt>
      <trkpt lat="43.59985" lon="1.16987">
        <ele>274.2</ele>
        <time>2020-11-29T12:00:41Z</time>
      </trkpt>
      <trkpt lat="43.59983" lon="1.16985">
        <ele>273.7</ele>
        <time>2020-11-29T12:00:42Z</time>
      </trkpt>
      <trkpt lat="43.59982" lon="1.16985">
        <ele>273.6</ele>
        <time>2020-11-29T12:00:43Z</time>
      </trkpt>
      <trkpt lat="43.59981" lon="1.16984">
        <ele>273.4</ele>
        <time>2020-11-29T12:00:44Z</time>
      </trkpt>
      <trkpt lat="43.59978" lon="1.16982">
        <ele>273</ele>
        <time>2020-11-29T12:00:45Z</time>
      </trkpt>
      <trkpt lat="43.59977" lon="1.16982">
        <ele>272.8</ele>
        <time>2020-11-29T12:00:46Z</time>
      </trkpt>
      <trkpt lat="43.59975" lon="1.16981">
        <ele>272.6</ele>
        <time>2020-11-29T12:00:47Z</time>
      </trkpt>
      <trkpt lat="43.59974" lon="1.16979">
        <ele>272.3</ele>
        <time>2020-11-29T12:00:48Z</time>
      </trkpt>
      <trkpt lat="43.59972" lon="1.16978">
        <ele>272.1</ele>
        <time>2020-11-29T12:00:49Z</time>
      </trkpt>
      <trkpt lat="43.59971" lon="1.16978">
        <ele>272</ele>
        <time>2020-11-29T12:00:50Z</time>
      </trkpt>
      <trkpt lat="43.59969" lon="1.16976">
        <ele>271.7</ele>
        <time>2020-11-29T12:00:51Z</time>
      </trkpt>
      <trkpt lat="43.59968" lon="1.16975">
        <ele>271.6</ele>
        <time>2020-11-29T12:00:52Z</time>
      </trkpt>
      <trkpt lat="43.59967" lon="1.16975">
        <ele>271.5</ele>
        <time>2020-11-29T12:00:53Z</time>
      </trkpt>
      <trkpt lat="43.59966" lon="1.16974">
        <ele>271.4</ele>
        <time>2020-11-29T12:00:54Z</time>
      </trkpt>
      <trkpt lat="43.59965" lon="1.16973">
        <ele>271.2</ele>
        <time>2020-11-29T12:00:55Z</time>
      </trkpt>
      <trkpt lat="43.59963" lon="1.16972">
        <ele>271</ele>
        <time>2020-11-29T12:00:56Z</time>
      </trkpt>
      <trkpt lat="43.59962" lon="1.16972">
        <ele>270.9</ele>
        <time>2020-11-29T12:00:57Z</time>
      </trkpt>
      <trkpt lat="43.59961" lon="1.16972">
        <ele>270.8</ele>
        <time>2020-11-29T12:00:58Z</time>
      </trkpt>
      <trkpt lat="43.59959" lon="1.16972">
        <ele>270.7</ele>
        <time>2020-11-29T12:00:59Z</time>
      </trkpt>
      <trkpt lat="43.59959" lon="1.16971">
        <ele>270.6</ele>
        <time>2020-11-29T12:01:00Z</time>
      </trkpt>
      <trkpt lat="43.59958" lon="1.16971">
        <ele>270.6</ele>
        <time>2020-11-29T12:01:01Z</time>
      </trkpt>
      <trkpt lat="43.59955" lon="1.16971">
        <ele>270.4</ele>
        <time>2020-11-29T12:01:02Z</time>
      </trkpt>
      <trkpt lat="43.59954" lon="1.16971">
        <ele>270.3</ele>
        <time>2020-11-29T12:01:03Z</time>
      </trkpt>
      <trkpt lat="43.59951" lon="1.1697">
        <ele>270.1</ele>
        <time>2020-11-29T12:01:04Z</time>
      </trkpt>
      <trkpt lat="43.59949" lon="1.1697">
        <ele>270</ele>
        <time>2020-11-29T12:01:05Z</time>
      </trkpt>
      <trkpt lat="43.59946" lon="1.16969">
        <ele>269.8</ele>
        <time>2020-11-29T12:01:06Z</time>
      </trkpt>
      <trkpt lat="43.59943" lon="1.16968">
        <ele>269.7</ele>
        <time>2020-11-29T12:01:07Z</time>
      </trkpt>
      <trkpt lat="43.59941" lon="1.16967">
        <ele>269.7</ele>
        <time>2020-11-29T12:01:08Z</time>
      </trkpt>
      <trkpt lat="43.5994" lon="1.16967">
        <ele>269.6</ele>
        <time>2020-11-29T12:01:09Z</time>
      </trkpt>
      <trkpt lat="43.59939" lon="1.16966">
        <ele>269.6</ele>
        <time>2020-11-29T12:01:10Z</time>
      </trkpt>
      <trkpt lat="43.59939" lon="1.16966">
        <ele>269.6</ele>
        <time>2020-11-29T12:01:11Z</time>
      </trkpt>
      <trkpt lat="43.59938" lon="1.16965">
        <ele>269.6</ele>
        <time>2020-11-29T12:01:12Z</time>
      </trkpt>
      <trkpt lat="43.59938" lon="1.16965">
        <ele>269.5</ele>
        <time>2020-11-29T12:01:13Z</time>
      </trkpt>
      <trkpt lat="43.59938" lon="1.16965">
        <ele>269.5</ele>
        <time>2020-11-29T12:01:14Z</time>
      </trkpt>
      <trkpt lat="43.59938" lon="1.16966">
        <ele>269.5</ele>
        <time>2020-11-29T12:01:15Z</time>
      </trkpt>
      <trkpt lat="43.59939" lon="1.16966">
        <ele>269.5</ele>
        <time>2020-11-29T12:01:16Z</time>
      </trkpt>
      <trkpt lat="43.59939" lon="1.16966">
        <ele>269.5</ele>
        <time>2020-11-29T12:01:17Z</time>
      </trkpt>
      <trkpt lat="43.5994" lon="1.16965">
        <ele>269.5</ele>
        <time>2020-11-29T12:01:18Z</time>
      </trkpt>
      <trkpt lat="43.59941" lon="1.16964">
        <ele>269.5</ele>
        <time>2020-11-29T12:01:19Z</time>
      </trkpt>
      <trkpt lat="43.59941" lon="1.16963">
        <ele>269.4</ele>
        <time>2020-11-29T12:01:20Z</time>
      </trkpt>
      <trkpt lat="43.59942" lon="1.16961">
        <ele>269.4</ele>
        <time>2020-11-29T12:01:21Z</time>
      </trkpt>
      <trkpt lat="43.59942" lon="1.1696">
        <ele>269.4</ele>
        <time>2020-11-29T12:01:22Z</time>
      </trkpt>
      <trkpt lat="43.59943" lon="1.16959">
        <ele>269.4</ele>
        <time>2020-11-29T12:01:23Z</time>
      </trkpt>
      <trkpt lat="43.59943" lon="1.16958">
        <ele>269.4</ele>
        <time>2020-11-29T12:01:24Z</time>
      </trkpt>
      <trkpt lat="43.59944" lon="1.16955">
        <ele>269.3</ele>
        <time>2020-11-29T12:01:25Z</time>
      </trkpt>
      <trkpt lat="43.59944" lon="1.16956">
        <ele>269.3</ele>
        <time>2020-11-29T12:01:26Z</time>
      </trkpt>
      <trkpt lat="43.59945" lon="1.16956">
        <ele>269.3</ele>
        <time>2020-11-29T12:01:27Z</time>
      </trkpt>
      <trkpt lat="43.59946" lon="1.16954">
        <ele>269.3</ele>
        <time>2020-11-29T12:01:28Z</time>
      </trkpt>
      <trkpt lat="43.59946" lon="1.16951">
        <ele>269.3</ele>
        <time>2020-11-29T12:01:29Z</time>
      </trkpt>
      <trkpt lat="43.59946" lon="1.16948">
        <ele>269.2</ele>
        <time>2020-11-29T12:01:30Z</time>
      </trkpt>
      <trkpt lat="43.59946" lon="1.16946">
        <ele>269.2</ele>
        <time>2020-11-29T12:01:31Z</time>
      </trkpt>
      <trkpt lat="43.59946" lon="1.16942">
        <ele>268.9</ele>
        <time>2020-11-29T12:01:32Z</time>
      </trkpt>
      <trkpt lat="43.59946" lon="1.16941">
        <ele>269.1</ele>
        <time>2020-11-29T12:01:33Z</time>
      </trkpt>
      <trkpt lat="43.59946" lon="1.16939">
        <ele>269.3</ele>
        <time>2020-11-29T12:01:34Z</time>
      </trkpt>
      <trkpt lat="43.59946" lon="1.16935">
        <ele>269.8</ele>
        <time>2020-11-29T12:01:35Z</time>
      </trkpt>
      <trkpt lat="43.59944" lon="1.16933">
        <ele>270.3</ele>
        <time>2020-11-29T12:01:36Z</time>
      </trkpt>
      <trkpt lat="43.59944" lon="1.16932">
        <ele>270.5</ele>
        <time>2020-11-29T12:01:37Z</time>
      </trkpt>
      <trkpt lat="43.59943" lon="1.1693">
        <ele>270.7</ele>
        <time>2020-11-29T12:01:38Z</time>
      </trkpt>
      <trkpt lat="43.59943" lon="1.16929">
        <ele>271</ele>
        <time>2020-11-29T12:01:39Z</time>
      </trkpt>
      <trkpt lat="43.59943" lon="1.16927">
        <ele>271.2</ele>
        <time>2020-11-29T12:01:40Z</time>
      </trkpt>
      <trkpt lat="43.59943" lon="1.16924">
        <ele>271.6</ele>
        <time>2020-11-29T12:01:41Z</time>
      </trkpt>
      <trkpt lat="43.59944" lon="1.16922">
        <ele>271.8</ele>
        <time>2020-11-29T12:01:42Z</time>
      </trkpt>
      <trkpt lat="43.59944" lon="1.16921">
        <ele>272.1</ele>
        <time>2020-11-29T12:01:43Z</time>
      </trkpt>
      <trkpt lat="43.59943" lon="1.16919">
        <ele>272.4</ele>
        <time>2020-11-29T12:01:44Z</time>
      </trkpt>
      <trkpt lat="43.59944" lon="1.16914">
        <ele>273.2</ele>
        <time>2020-11-29T12:01:45Z</time>
      </trkpt>
      <trkpt lat="43.59944" lon="1.16912">
        <ele>273.5</ele>
        <time>2020-11-29T12:01:46Z</time>
      </trkpt>
      <trkpt lat="43.59944" lon="1.1691">
        <ele>273.9</ele>
        <time>2020-11-29T12:01:47Z</time>
      </trkpt>
      <trkpt lat="43.59944" lon="1.16908">
        <ele>274.1</ele>
        <time>2020-11-29T12:01:48Z</time>
      </trkpt>
      <trkpt lat="43.59944" lon="1.16906">
        <ele>274.4</ele>
        <time>2020-11-29T12:01:49Z</time>
      </trkpt>
      <trkpt lat="43.59945" lon="1.16904">
        <ele>274.9</ele>
        <time>2020-11-29T12:01:50Z</time>
      </trkpt>
      <trkpt lat="43.59946" lon="1.16901">
        <ele>275.3</ele>
        <time>2020-11-29T12:01:51Z</time>
      </trkpt>
      <trkpt lat="43.59946" lon="1.16899">
        <ele>275.7</ele>
        <time>2020-11-29T12:01:52Z</time>
      </trkpt>
      <trkpt lat="43.59948" lon="1.16898">
        <ele>276.1</ele>
        <time>2020-11-29T12:01:53Z</time>
      </trkpt>
      <trkpt lat="43.59948" lon="1.16897">
        <ele>276.3</ele>
        <time>2020-11-29T12:01:54Z</time>
      </trkpt>
      <trkpt lat="43.59949" lon="1.16897">
        <ele>276.4</ele>
        <time>2020-11-29T12:01:55Z</time>
      </trkpt>
      <trkpt lat="43.59951" lon="1.16895">
        <ele>277.1</ele>
        <time>2020-11-29T12:01:56Z</time>
      </trkpt>
      <trkpt lat="43.59952" lon="1.16894">
        <ele>277.3</ele>
        <time>2020-11-29T12:01:57Z</time>
      </trkpt>
      <trkpt lat="43.59954" lon="1.16892">
        <ele>277.7</ele>
        <time>2020-11-29T12:01:58Z</time>
      </trkpt>
      <trkpt lat="43.59955" lon="1.16892">
        <ele>278.1</ele>
        <time>2020-11-29T12:01:59Z</time>
      </trkpt>
      <trkpt lat="43.59956" lon="1.16891">
        <ele>278.5</ele>
        <time>2020-11-29T12:02:00Z</time>
      </trkpt>
      <trkpt lat="43.59958" lon="1.1689">
        <ele>278.8</ele>
        <time>2020-11-29T12:02:01Z</time>
      </trkpt>
      <trkpt lat="43.59958" lon="1.16889">
        <ele>278.8</ele>
        <time>2020-11-29T12:02:02Z</time>
      </trkpt>
      <trkpt lat="43.59959" lon="1.16889">
        <ele>279</ele>
        <time>2020-11-29T12:02:03Z</time>
      </trkpt>
      <trkpt lat="43.59961" lon="1.16889">
        <ele>279.5</ele>
        <time>2020-11-29T12:02:04Z</time>
      </trkpt>
      <trkpt lat="43.59962" lon="1.16888">
        <ele>279.8</ele>
        <time>2020-11-29T12:02:05Z</time>
      </trkpt>
      <trkpt lat="43.59964" lon="1.16887">
        <ele>280.2</ele>
        <time>2020-11-29T12:02:06Z</time>
      </trkpt>
      <trkpt lat="43.59967" lon="1.16886">
        <ele>280.8</ele>
        <time>2020-11-29T12:02:07Z</time>
      </trkpt>
      <trkpt lat="43.59969" lon="1.16884">
        <ele>281.3</ele>
        <time>2020-11-29T12:02:08Z</time>
      </trkpt>
      <trkpt lat="43.5997" lon="1.16883">
        <ele>281.5</ele>
        <time>2020-11-29T12:02:09Z</time>
      </trkpt>
      <trkpt lat="43.59972" lon="1.16881">
        <ele>281.8</ele>
        <time>2020-11-29T12:02:10Z</time>
      </trkpt>
      <trkpt lat="43.59973" lon="1.16879">
        <ele>282.1</ele>
        <time>2020-11-29T12:02:11Z</time>
      </trkpt>
      <trkpt lat="43.59975" lon="1.16876">
        <ele>282.5</ele>
        <time>2020-11-29T12:02:12Z</time>
      </trkpt>
      <trkpt lat="43.59975" lon="1.16875">
        <ele>282.6</ele>
        <time>2020-11-29T12:02:13Z</time>
      </trkpt>
      <trkpt lat="43.59976" lon="1.16874">
        <ele>282.8</ele>
        <time>2020-11-29T12:02:14Z</time>
      </trkpt>
      <trkpt lat="43.59977" lon="1.16872">
        <ele>282.9</ele>
        <time>2020-11-29T12:02:15Z</time>
      </trkpt>
      <trkpt lat="43.59978" lon="1.16871">
        <ele>283.1</ele>
        <time>2020-11-29T12:02:16Z</time>
      </trkpt>
      <trkpt lat="43.59978" lon="1.16868">
        <ele>283.3</ele>
        <time>2020-11-29T12:02:17Z</time>
      </trkpt>
      <trkpt lat="43.5998" lon="1.16865">
        <ele>283.6</ele>
        <time>2020-11-29T12:02:18Z</time>
      </trkpt>
      <trkpt lat="43.5998" lon="1.16863">
        <ele>283.7</ele>
        <time>2020-11-29T12:02:19Z</time>
      </trkpt>
      <trkpt lat="43.59981" lon="1.16862">
        <ele>283.9</ele>
        <time>2020-11-29T12:02:20Z</time>
      </trkpt>
      <trkpt lat="43.59982" lon="1.1686">
        <ele>284</ele>
        <time>2020-11-29T12:02:21Z</time>
      </trkpt>
      <trkpt lat="43.59983" lon="1.16859">
        <ele>284</ele>
        <time>2020-11-29T12:02:22Z</time>
      </trkpt>
      <trkpt lat="43.59982" lon="1.16858">
        <ele>284.1</ele>
        <time>2020-11-29T12:02:23Z</time>
      </trkpt>
      <trkpt lat="43.59982" lon="1.16855">
        <ele>284.2</ele>
        <time>2020-11-29T12:02:24Z</time>
      </trkpt>
      <trkpt lat="43.59981" lon="1.1685">
        <ele>284.3</ele>
        <time>2020-11-29T12:02:25Z</time>
      </trkpt>
      <trkpt lat="43.59981" lon="1.16849">
        <ele>284.3</ele>
        <time>2020-11-29T12:02:26Z</time>
      </trkpt>
      <trkpt lat="43.5998" lon="1.16844">
        <ele>284.5</ele>
        <time>2020-11-29T12:02:27Z</time>
      </trkpt>
      <trkpt lat="43.5998" lon="1.16842">
        <ele>284.5</ele>
        <time>2020-11-29T12:02:28Z</time>
      </trkpt>
      <trkpt lat="43.5998" lon="1.16837">
        <ele>284.7</ele>
        <time>2020-11-29T12:02:29Z</time>
      </trkpt>
      <trkpt lat="43.5998" lon="1.16833">
        <ele>284.8</ele>
        <time>2020-11-29T12:02:30Z</time>
      </trkpt>
      <trkpt lat="43.5998" lon="1.16828">
        <ele>284.9</ele>
        <time>2020-11-29T12:02:31Z</time>
      </trkpt>
      <trkpt lat="43.5998" lon="1.16826">
        <ele>285</ele>
        <time>2020-11-29T12:02:32Z</time>
      </trkpt>
      <trkpt lat="43.5998" lon="1.16821">
        <ele>285.1</ele>
        <time>2020-11-29T12:02:33Z</time>
      </trkpt>
      <trkpt lat="43.59979" lon="1.16819">
        <ele>285.2</ele>
        <time>2020-11-29T12:02:34Z</time>
      </trkpt>
      <trkpt lat="43.59979" lon="1.16815">
        <ele>285.3</ele>
        <time>2020-11-29T12:02:35Z</time>
      </trkpt>
      <trkpt lat="43.59979" lon="1.1681">
        <ele>285.5</ele>
        <time>2020-11-29T12:02:36Z</time>
      </trkpt>
      <trkpt lat="43.59979" lon="1.16809">
        <ele>285.5</ele>
        <time>2020-11-29T12:02:37Z</time>
      </trkpt>
      <trkpt lat="43.5998" lon="1.16804">
        <ele>285.7</ele>
        <time>2020-11-29T12:02:38Z</time>
      </trkpt>
      <trkpt lat="43.5998" lon="1.16802">
        <ele>285.8</ele>
        <time>2020-11-29T12:02:39Z</time>
      </trkpt>
      <trkpt lat="43.59981" lon="1.16799">
        <ele>286</ele>
        <time>2020-11-29T12:02:40Z</time>
      </trkpt>
      <trkpt lat="43.59982" lon="1.16797">
        <ele>286</ele>
        <time>2020-11-29T12:02:41Z</time>
      </trkpt>
      <trkpt lat="43.59983" lon="1.16793">
        <ele>286.2</ele>
        <time>2020-11-29T12:02:42Z</time>
      </trkpt>
      <trkpt lat="43.59983" lon="1.16788">
        <ele>286.4</ele>
        <time>2020-11-29T12:02:43Z</time>
      </trkpt>
      <trkpt lat="43.59984" lon="1.16783">
        <ele>286.7</ele>
        <time>2020-11-29T12:02:44Z</time>
      </trkpt>
      <trkpt lat="43.59983" lon="1.16781">
        <ele>286.7</ele>
        <time>2020-11-29T12:02:45Z</time>
      </trkpt>
      <trkpt lat="43.59984" lon="1.16777">
        <ele>286.8</ele>
        <time>2020-11-29T12:02:46Z</time>
      </trkpt>
      <trkpt lat="43.59986" lon="1.16773">
        <ele>287</ele>
        <time>2020-11-29T12:02:47Z</time>
      </trkpt>
      <trkpt lat="43.59987" lon="1.16769">
        <ele>287.2</ele>
        <time>2020-11-29T12:02:48Z</time>
      </trkpt>
      <trkpt lat="43.59987" lon="1.16765">
        <ele>287.4</ele>
        <time>2020-11-29T12:02:49Z</time>
      </trkpt>
      <trkpt lat="43.59988" lon="1.16761">
        <ele>287.5</ele>
        <time>2020-11-29T12:02:50Z</time>
      </trkpt>
      <trkpt lat="43.59988" lon="1.16756">
        <ele>287.7</ele>
        <time>2020-11-29T12:02:51Z</time>
      </trkpt>
      <trkpt lat="43.59988" lon="1.16752">
        <ele>287.9</ele>
        <time>2020-11-29T12:02:52Z</time>
      </trkpt>
      <trkpt lat="43.59988" lon="1.16747">
        <ele>288.1</ele>
        <time>2020-11-29T12:02:53Z</time>
      </trkpt>
      <trkpt lat="43.59988" lon="1.16745">
        <ele>288.1</ele>
        <time>2020-11-29T12:02:54Z</time>
      </trkpt>
      <trkpt lat="43.59989" lon="1.16741">
        <ele>288.3</ele>
        <time>2020-11-29T12:02:55Z</time>
      </trkpt>
      <trkpt lat="43.5999" lon="1.16736">
        <ele>288.5</ele>
        <time>2020-11-29T12:02:56Z</time>
      </trkpt>
      <trkpt lat="43.5999" lon="1.16734">
        <ele>288.5</ele>
        <time>2020-11-29T12:02:57Z</time>
      </trkpt>
      <trkpt lat="43.59991" lon="1.16729">
        <ele>288.7</ele>
        <time>2020-11-29T12:02:58Z</time>
      </trkpt>
      <trkpt lat="43.59992" lon="1.16725">
        <ele>288.9</ele>
        <time>2020-11-29T12:02:59Z</time>
      </trkpt>
      <trkpt lat="43.59993" lon="1.16718">
        <ele>289.1</ele>
        <time>2020-11-29T12:03:00Z</time>
      </trkpt>
      <trkpt lat="43.59993" lon="1.16715">
        <ele>289.2</ele>
        <time>2020-11-29T12:03:01Z</time>
      </trkpt>
      <trkpt lat="43.59993" lon="1.1671">
        <ele>289.3</ele>
        <time>2020-11-29T12:03:02Z</time>
      </trkpt>
      <trkpt lat="43.59993" lon="1.16704">
        <ele>289.4</ele>
        <time>2020-11-29T12:03:03Z</time>
      </trkpt>
      <trkpt lat="43.59993" lon="1.16698">
        <ele>289.6</ele>
        <time>2020-11-29T12:03:04Z</time>
      </trkpt>
      <trkpt lat="43.59994" lon="1.16693">
        <ele>289.7</ele>
        <time>2020-11-29T12:03:05Z</time>
      </trkpt>
      <trkpt lat="43.59995" lon="1.16686">
        <ele>289.8</ele>
        <time>2020-11-29T12:03:06Z</time>
      </trkpt>
      <trkpt lat="43.59997" lon="1.1668">
        <ele>289.9</ele>
        <time>2020-11-29T12:03:07Z</time>
      </trkpt>
      <trkpt lat="43.59997" lon="1.16676">
        <ele>290</ele>
        <time>2020-11-29T12:03:08Z</time>
      </trkpt>
      <trkpt lat="43.59998" lon="1.16671">
        <ele>290</ele>
        <time>2020-11-29T12:03:09Z</time>
      </trkpt>
      <trkpt lat="43.59999" lon="1.16667">
        <ele>290.1</ele>
        <time>2020-11-29T12:03:10Z</time>
      </trkpt>
      <trkpt lat="43.6" lon="1.16663">
        <ele>290.2</ele>
        <time>2020-11-29T12:03:11Z</time>
      </trkpt>
      <trkpt lat="43.60001" lon="1.16659">
        <ele>290.2</ele>
        <time>2020-11-29T12:03:12Z</time>
      </trkpt>
      <trkpt lat="43.60003" lon="1.16656">
        <ele>290.3</ele>
        <time>2020-11-29T12:03:13Z</time>
      </trkpt>
      <trkpt lat="43.60005" lon="1.16651">
        <ele>290.4</ele>
        <time>2020-11-29T12:03:14Z</time>
      </trkpt>
      <trkpt lat="43.60006" lon="1.16647">
        <ele>290.4</ele>
        <time>2020-11-29T12:03:15Z</time>
      </trkpt>
      <trkpt lat="43.60007" lon="1.16642">
        <ele>290.5</ele>
        <time>2020-11-29T12:03:16Z</time>
      </trkpt>
      <trkpt lat="43.60009" lon="1.16636">
        <ele>290.6</ele>
        <time>2020-11-29T12:03:17Z</time>
      </trkpt>
      <trkpt lat="43.6001" lon="1.16631">
        <ele>290.7</ele>
        <time>2020-11-29T12:03:18Z</time>
      </trkpt>
      <trkpt lat="43.60012" lon="1.16626">
        <ele>290.8</ele>
        <time>2020-11-29T12:03:19Z</time>
      </trkpt>
      <trkpt lat="43.60014" lon="1.16619">
        <ele>290.8</ele>
        <time>2020-11-29T12:03:20Z</time>
      </trkpt>
      <trkpt lat="43.60016" lon="1.16613">
        <ele>290.9</ele>
        <time>2020-11-29T12:03:21Z</time>
      </trkpt>
      <trkpt lat="43.60017" lon="1.16607">
        <ele>291</ele>
        <time>2020-11-29T12:03:22Z</time>
      </trkpt>
      <trkpt lat="43.60019" lon="1.16602">
        <ele>291</ele>
        <time>2020-11-29T12:03:23Z</time>
      </trkpt>
      <trkpt lat="43.6002" lon="1.16597">
        <ele>291</ele>
        <time>2020-11-29T12:03:24Z</time>
      </trkpt>
      <trkpt lat="43.60022" lon="1.16592">
        <ele>291.1</ele>
        <time>2020-11-29T12:03:25Z</time>
      </trkpt>
      <trkpt lat="43.60023" lon="1.16587">
        <ele>291.1</ele>
        <time>2020-11-29T12:03:26Z</time>
      </trkpt>
      <trkpt lat="43.60024" lon="1.16582">
        <ele>291</ele>
        <time>2020-11-29T12:03:27Z</time>
      </trkpt>
      <trkpt lat="43.60026" lon="1.16576">
        <ele>291</ele>
        <time>2020-11-29T12:03:28Z</time>
      </trkpt>
      <trkpt lat="43.60027" lon="1.1657">
        <ele>290.9</ele>
        <time>2020-11-29T12:03:29Z</time>
      </trkpt>
      <trkpt lat="43.60029" lon="1.16562">
        <ele>290.9</ele>
        <time>2020-11-29T12:03:30Z</time>
      </trkpt>
      <trkpt lat="43.6003" lon="1.16553">
        <ele>290.8</ele>
        <time>2020-11-29T12:03:31Z</time>
      </trkpt>
      <trkpt lat="43.60032" lon="1.16545">
        <ele>290.7</ele>
        <time>2020-11-29T12:03:32Z</time>
      </trkpt>
      <trkpt lat="43.60034" lon="1.16539">
        <ele>290.6</ele>
        <time>2020-11-29T12:03:33Z</time>
      </trkpt>
      <trkpt lat="43.60035" lon="1.16532">
        <ele>290.5</ele>
        <time>2020-11-29T12:03:34Z</time>
      </trkpt>
      <trkpt lat="43.60037" lon="1.16523">
        <ele>290.4</ele>
        <time>2020-11-29T12:03:35Z</time>
      </trkpt>
      <trkpt lat="43.60038" lon="1.16515">
        <ele>290.4</ele>
        <time>2020-11-29T12:03:36Z</time>
      </trkpt>
      <trkpt lat="43.60039" lon="1.16507">
        <ele>290.4</ele>
        <time>2020-11-29T12:03:37Z</time>
      </trkpt>
      <trkpt lat="43.6004" lon="1.165">
        <ele>290.4</ele>
        <time>2020-11-29T12:03:38Z</time>
      </trkpt>
      <trkpt lat="43.60041" lon="1.16494">
        <ele>290.4</ele>
        <time>2020-11-29T12:03:39Z</time>
      </trkpt>
      <trkpt lat="43.60043" lon="1.16488">
        <ele>290.4</ele>
        <time>2020-11-29T12:03:40Z</time>
      </trkpt>
      <trkpt lat="43.60045" lon="1.16481">
        <ele>290.4</ele>
        <time>2020-11-29T12:03:41Z</time>
      </trkpt>
      <trkpt lat="43.60046" lon="1.16475">
        <ele>290.5</ele>
        <time>2020-11-29T12:03:42Z</time>
      </trkpt>
      <trkpt lat="43.60048" lon="1.1647">
        <ele>290.5</ele>
        <time>2020-11-29T12:03:43Z</time>
      </trkpt>
      <trkpt lat="43.6005" lon="1.16462">
        <ele>290.5</ele>
        <time>2020-11-29T12:03:44Z</time>
      </trkpt>
      <trkpt lat="43.60051" lon="1.16455">
        <ele>290.5</ele>
        <time>2020-11-29T12:03:45Z</time>
      </trkpt>
      <trkpt lat="43.60053" lon="1.1645">
        <ele>290.5</ele>
        <time>2020-11-29T12:03:46Z</time>
      </trkpt>
      <trkpt lat="43.60056" lon="1.16441">
        <ele>290.6</ele>
        <time>2020-11-29T12:03:47Z</time>
      </trkpt>
      <trkpt lat="43.60059" lon="1.16433">
        <ele>290.8</ele>
        <time>2020-11-29T12:03:48Z</time>
      </trkpt>
      <trkpt lat="43.60061" lon="1.16427">
        <ele>290.9</ele>
        <time>2020-11-29T12:03:49Z</time>
      </trkpt>
      <trkpt lat="43.60062" lon="1.16422">
        <ele>291.1</ele>
        <time>2020-11-29T12:03:50Z</time>
      </trkpt>
      <trkpt lat="43.60063" lon="1.16417">
        <ele>291.2</ele>
        <time>2020-11-29T12:03:51Z</time>
      </trkpt>
      <trkpt lat="43.60065" lon="1.16413">
        <ele>291.3</ele>
        <time>2020-11-29T12:03:52Z</time>
      </trkpt>
      <trkpt lat="43.60065" lon="1.16407">
        <ele>291.5</ele>
        <time>2020-11-29T12:03:53Z</time>
      </trkpt>
      <trkpt lat="43.60067" lon="1.16402">
        <ele>291.6</ele>
        <time>2020-11-29T12:03:54Z</time>
      </trkpt>
      <trkpt lat="43.60069" lon="1.16395">
        <ele>291.8</ele>
        <time>2020-11-29T12:03:55Z</time>
      </trkpt>
      <trkpt lat="43.60069" lon="1.16389">
        <ele>291.9</ele>
        <time>2020-11-29T12:03:56Z</time>
      </trkpt>
      <trkpt lat="43.6007" lon="1.16383">
        <ele>292</ele>
        <time>2020-11-29T12:03:57Z</time>
      </trkpt>
      <trkpt lat="43.60072" lon="1.16379">
        <ele>292.1</ele>
        <time>2020-11-29T12:03:58Z</time>
      </trkpt>
      <trkpt lat="43.60073" lon="1.16373">
        <ele>292.1</ele>
        <time>2020-11-29T12:03:59Z</time>
      </trkpt>
      <trkpt lat="43.60074" lon="1.16368">
        <ele>292.2</ele>
        <time>2020-11-29T12:04:00Z</time>
      </trkpt>
      <trkpt lat="43.60076" lon="1.16363">
        <ele>292.2</ele>
        <time>2020-11-29T12:04:01Z</time>
      </trkpt>
      <trkpt lat="43.60076" lon="1.16356">
        <ele>292.2</ele>
        <time>2020-11-29T12:04:02Z</time>
      </trkpt>
      <trkpt lat="43.60077" lon="1.16351">
        <ele>292.2</ele>
        <time>2020-11-29T12:04:03Z</time>
      </trkpt>
      <trkpt lat="43.60078" lon="1.16347">
        <ele>292.2</ele>
        <time>2020-11-29T12:04:04Z</time>
      </trkpt>
      <trkpt lat="43.60078" lon="1.16345">
        <ele>292.2</ele>
        <time>2020-11-29T12:04:05Z</time>
      </trkpt>
      <trkpt lat="43.60079" lon="1.16339">
        <ele>292.2</ele>
        <time>2020-11-29T12:04:06Z</time>
      </trkpt>
      <trkpt lat="43.6008" lon="1.16336">
        <ele>292.2</ele>
        <time>2020-11-29T12:04:07Z</time>
      </trkpt>
      <trkpt lat="43.60082" lon="1.16331">
        <ele>292.2</ele>
        <time>2020-11-29T12:04:08Z</time>
      </trkpt>
      <trkpt lat="43.60083" lon="1.16325">
        <ele>292.2</ele>
        <time>2020-11-29T12:04:09Z</time>
      </trkpt>
      <trkpt lat="43.60085" lon="1.16318">
        <ele>292.2</ele>
        <time>2020-11-29T12:04:10Z</time>
      </trkpt>
      <trkpt lat="43.60086" lon="1.16314">
        <ele>292.2</ele>
        <time>2020-11-29T12:04:11Z</time>
      </trkpt>
      <trkpt lat="43.60088" lon="1.1631">
        <ele>292.2</ele>
        <time>2020-11-29T12:04:12Z</time>
      </trkpt>
      <trkpt lat="43.60088" lon="1.1631">
        <ele>292.2</ele>
        <time>2020-11-29T12:04:13Z</time>
      </trkpt>
      <trkpt lat="43.6009" lon="1.16305">
        <ele>292.2</ele>
        <time>2020-11-29T12:04:14Z</time>
      </trkpt>
      <trkpt lat="43.60092" lon="1.163">
        <ele>292.2</ele>
        <time>2020-11-29T12:04:15Z</time>
      </trkpt>
      <trkpt lat="43.60093" lon="1.16295">
        <ele>292.2</ele>
        <time>2020-11-29T12:04:16Z</time>
      </trkpt>
      <trkpt lat="43.60095" lon="1.1629">
        <ele>292.3</ele>
        <time>2020-11-29T12:04:17Z</time>
      </trkpt>
      <trkpt lat="43.60096" lon="1.16284">
        <ele>292.3</ele>
        <time>2020-11-29T12:04:18Z</time>
      </trkpt>
      <trkpt lat="43.60097" lon="1.16281">
        <ele>292.3</ele>
        <time>2020-11-29T12:04:19Z</time>
      </trkpt>
      <trkpt lat="43.60098" lon="1.16275">
        <ele>292.3</ele>
        <time>2020-11-29T12:04:20Z</time>
      </trkpt>
      <trkpt lat="43.60099" lon="1.16268">
        <ele>292.4</ele>
        <time>2020-11-29T12:04:21Z</time>
      </trkpt>
      <trkpt lat="43.60099" lon="1.16263">
        <ele>292.4</ele>
        <time>2020-11-29T12:04:22Z</time>
      </trkpt>
      <trkpt lat="43.601" lon="1.16258">
        <ele>292.5</ele>
        <time>2020-11-29T12:04:23Z</time>
      </trkpt>
      <trkpt lat="43.60102" lon="1.16251">
        <ele>292.5</ele>
        <time>2020-11-29T12:04:24Z</time>
      </trkpt>
      <trkpt lat="43.60103" lon="1.16248">
        <ele>292.5</ele>
        <time>2020-11-29T12:04:25Z</time>
      </trkpt>
      <trkpt lat="43.60104" lon="1.16242">
        <ele>292.6</ele>
        <time>2020-11-29T12:04:26Z</time>
      </trkpt>
      <trkpt lat="43.60105" lon="1.16237">
        <ele>292.6</ele>
        <time>2020-11-29T12:04:27Z</time>
      </trkpt>
      <trkpt lat="43.60106" lon="1.16231">
        <ele>292.7</ele>
        <time>2020-11-29T12:04:28Z</time>
      </trkpt>
      <trkpt lat="43.6011" lon="1.16227">
        <ele>292.8</ele>
        <time>2020-11-29T12:04:29Z</time>
      </trkpt>
      <trkpt lat="43.60112" lon="1.16223">
        <ele>292.8</ele>
        <time>2020-11-29T12:04:30Z</time>
      </trkpt>
      <trkpt lat="43.60114" lon="1.1622">
        <ele>292.9</ele>
        <time>2020-11-29T12:04:31Z</time>
      </trkpt>
      <trkpt lat="43.60117" lon="1.16217">
        <ele>292.9</ele>
        <time>2020-11-29T12:04:32Z</time>
      </trkpt>
      <trkpt lat="43.60118" lon="1.16211">
        <ele>292.8</ele>
        <time>2020-11-29T12:04:33Z</time>
      </trkpt>
      <trkpt lat="43.6012" lon="1.16208">
        <ele>292.8</ele>
        <time>2020-11-29T12:04:34Z</time>
      </trkpt>
      <trkpt lat="43.60122" lon="1.16204">
        <ele>292.7</ele>
        <time>2020-11-29T12:04:35Z</time>
      </trkpt>
      <trkpt lat="43.60123" lon="1.162">
        <ele>292.7</ele>
        <time>2020-11-29T12:04:36Z</time>
      </trkpt>
      <trkpt lat="43.60125" lon="1.16195">
        <ele>292.6</ele>
        <time>2020-11-29T12:04:37Z</time>
      </trkpt>
      <trkpt lat="43.60126" lon="1.1619">
        <ele>292.6</ele>
        <time>2020-11-29T12:04:38Z</time>
      </trkpt>
      <trkpt lat="43.60127" lon="1.16184">
        <ele>292.6</ele>
        <time>2020-11-29T12:04:39Z</time>
      </trkpt>
      <trkpt lat="43.60128" lon="1.16179">
        <ele>292.5</ele>
        <time>2020-11-29T12:04:40Z</time>
      </trkpt>
      <trkpt lat="43.60129" lon="1.16174">
        <ele>292.5</ele>
        <time>2020-11-29T12:04:41Z</time>
      </trkpt>
      <trkpt lat="43.60129" lon="1.16168">
        <ele>292.5</ele>
        <time>2020-11-29T12:04:42Z</time>
      </trkpt>
      <trkpt lat="43.6013" lon="1.16164">
        <ele>292.5</ele>
        <time>2020-11-29T12:04:43Z</time>
      </trkpt>
      <trkpt lat="43.6013" lon="1.1616">
        <ele>292.5</ele>
        <time>2020-11-29T12:04:44Z</time>
      </trkpt>
      <trkpt lat="43.60131" lon="1.16155">
        <ele>292.4</ele>
        <time>2020-11-29T12:04:45Z</time>
      </trkpt>
      <trkpt lat="43.60133" lon="1.16151">
        <ele>292.4</ele>
        <time>2020-11-29T12:04:46Z</time>
      </trkpt>
      <trkpt lat="43.60135" lon="1.16146">
        <ele>292.4</ele>
        <time>2020-11-29T12:04:47Z</time>
      </trkpt>
      <trkpt lat="43.60136" lon="1.16141">
        <ele>292.4</ele>
        <time>2020-11-29T12:04:48Z</time>
      </trkpt>
      <trkpt lat="43.60137" lon="1.16137">
        <ele>292.3</ele>
        <time>2020-11-29T12:04:49Z</time>
      </trkpt>
      <trkpt lat="43.60137" lon="1.16133">
        <ele>292.3</ele>
        <time>2020-11-29T12:04:50Z</time>
      </trkpt>
      <trkpt lat="43.60137" lon="1.16132">
        <ele>292.3</ele>
        <time>2020-11-29T12:04:51Z</time>
      </trkpt>
      <trkpt lat="43.60136" lon="1.16128">
        <ele>292.3</ele>
        <time>2020-11-29T12:04:52Z</time>
      </trkpt>
      <trkpt lat="43.60136" lon="1.16123">
        <ele>292.2</ele>
        <time>2020-11-29T12:04:53Z</time>
      </trkpt>
      <trkpt lat="43.60134" lon="1.16118">
        <ele>292.2</ele>
        <time>2020-11-29T12:04:54Z</time>
      </trkpt>
      <trkpt lat="43.60134" lon="1.16114">
        <ele>292.2</ele>
        <time>2020-11-29T12:04:55Z</time>
      </trkpt>
      <trkpt lat="43.60133" lon="1.16112">
        <ele>292.2</ele>
        <time>2020-11-29T12:04:56Z</time>
      </trkpt>
      <trkpt lat="43.60133" lon="1.16107">
        <ele>292.1</ele>
        <time>2020-11-29T12:04:57Z</time>
      </trkpt>
      <trkpt lat="43.60133" lon="1.16101">
        <ele>292.1</ele>
        <time>2020-11-29T12:04:58Z</time>
      </trkpt>
      <trkpt lat="43.60133" lon="1.16097">
        <ele>292</ele>
        <time>2020-11-29T12:04:59Z</time>
      </trkpt>
      <trkpt lat="43.60134" lon="1.16095">
        <ele>292</ele>
        <time>2020-11-29T12:05:00Z</time>
      </trkpt>
      <trkpt lat="43.60135" lon="1.1609">
        <ele>291.9</ele>
        <time>2020-11-29T12:05:01Z</time>
      </trkpt>
      <trkpt lat="43.60136" lon="1.16088">
        <ele>291.9</ele>
        <time>2020-11-29T12:05:02Z</time>
      </trkpt>
      <trkpt lat="43.60137" lon="1.16084">
        <ele>291.9</ele>
        <time>2020-11-29T12:05:03Z</time>
      </trkpt>
      <trkpt lat="43.60137" lon="1.1608">
        <ele>291.8</ele>
        <time>2020-11-29T12:05:04Z</time>
      </trkpt>
      <trkpt lat="43.60138" lon="1.16076">
        <ele>291.8</ele>
        <time>2020-11-29T12:05:05Z</time>
      </trkpt>
      <trkpt lat="43.6014" lon="1.1607">
        <ele>291.7</ele>
        <time>2020-11-29T12:05:06Z</time>
      </trkpt>
      <trkpt lat="43.60142" lon="1.16065">
        <ele>291.7</ele>
        <time>2020-11-29T12:05:07Z</time>
      </trkpt>
      <trkpt lat="43.60145" lon="1.16061">
        <ele>291.6</ele>
        <time>2020-11-29T12:05:08Z</time>
      </trkpt>
      <trkpt lat="43.60147" lon="1.16058">
        <ele>291.6</ele>
        <time>2020-11-29T12:05:09Z</time>
      </trkpt>
      <trkpt lat="43.60149" lon="1.16055">
        <ele>291.6</ele>
        <time>2020-11-29T12:05:10Z</time>
      </trkpt>
      <trkpt lat="43.60151" lon="1.1605">
        <ele>291.5</ele>
        <time>2020-11-29T12:05:11Z</time>
      </trkpt>
      <trkpt lat="43.60151" lon="1.16047">
        <ele>291.5</ele>
        <time>2020-11-29T12:05:12Z</time>
      </trkpt>
      <trkpt lat="43.60152" lon="1.16042">
        <ele>291.5</ele>
        <time>2020-11-29T12:05:13Z</time>
      </trkpt>
      <trkpt lat="43.60154" lon="1.16038">
        <ele>291.4</ele>
        <time>2020-11-29T12:05:14Z</time>
      </trkpt>
      <trkpt lat="43.60156" lon="1.16034">
        <ele>291.4</ele>
        <time>2020-11-29T12:05:15Z</time>
      </trkpt>
      <trkpt lat="43.60159" lon="1.1603">
        <ele>291.3</ele>
        <time>2020-11-29T12:05:16Z</time>
      </trkpt>
      <trkpt lat="43.60159" lon="1.16027">
        <ele>291.3</ele>
        <time>2020-11-29T12:05:17Z</time>
      </trkpt>
      <trkpt lat="43.60158" lon="1.16023">
        <ele>291.3</ele>
        <time>2020-11-29T12:05:18Z</time>
      </trkpt>
      <trkpt lat="43.60158" lon="1.16021">
        <ele>291.2</ele>
        <time>2020-11-29T12:05:19Z</time>
      </trkpt>
      <trkpt lat="43.60159" lon="1.16019">
        <ele>291.2</ele>
        <time>2020-11-29T12:05:20Z</time>
      </trkpt>
      <trkpt lat="43.6016" lon="1.16018">
        <ele>291.2</ele>
        <time>2020-11-29T12:05:21Z</time>
      </trkpt>
      <trkpt lat="43.60161" lon="1.16017">
        <ele>291.2</ele>
        <time>2020-11-29T12:05:22Z</time>
      </trkpt>
      <trkpt lat="43.60162" lon="1.16013">
        <ele>291.1</ele>
        <time>2020-11-29T12:05:23Z</time>
      </trkpt>
      <trkpt lat="43.60164" lon="1.16008">
        <ele>291</ele>
        <time>2020-11-29T12:05:24Z</time>
      </trkpt>
      <trkpt lat="43.60166" lon="1.16001">
        <ele>290.9</ele>
        <time>2020-11-29T12:05:25Z</time>
      </trkpt>
      <trkpt lat="43.60169" lon="1.15997">
        <ele>290.8</ele>
        <time>2020-11-29T12:05:26Z</time>
      </trkpt>
      <trkpt lat="43.60172" lon="1.15994">
        <ele>290.8</ele>
        <time>2020-11-29T12:05:27Z</time>
      </trkpt>
      <trkpt lat="43.60176" lon="1.15991">
        <ele>290.8</ele>
        <time>2020-11-29T12:05:28Z</time>
      </trkpt>
      <trkpt lat="43.60179" lon="1.15987">
        <ele>290.7</ele>
        <time>2020-11-29T12:05:29Z</time>
      </trkpt>
      <trkpt lat="43.60181" lon="1.15983">
        <ele>290.7</ele>
        <time>2020-11-29T12:05:30Z</time>
      </trkpt>
      <trkpt lat="43.60181" lon="1.15978">
        <ele>290.8</ele>
        <time>2020-11-29T12:05:31Z</time>
      </trkpt>
      <trkpt lat="43.60182" lon="1.15976">
        <ele>290.8</ele>
        <time>2020-11-29T12:05:32Z</time>
      </trkpt>
      <trkpt lat="43.60182" lon="1.15974">
        <ele>290.8</ele>
        <time>2020-11-29T12:05:33Z</time>
      </trkpt>
      <trkpt lat="43.60181" lon="1.1597">
        <ele>290.8</ele>
        <time>2020-11-29T12:05:34Z</time>
      </trkpt>
      <trkpt lat="43.60181" lon="1.15968">
        <ele>290.8</ele>
        <time>2020-11-29T12:05:35Z</time>
      </trkpt>
      <trkpt lat="43.60181" lon="1.15964">
        <ele>290.8</ele>
        <time>2020-11-29T12:05:36Z</time>
      </trkpt>
      <trkpt lat="43.60179" lon="1.15959">
        <ele>290.8</ele>
        <time>2020-11-29T12:05:37Z</time>
      </trkpt>
      <trkpt lat="43.60179" lon="1.15953">
        <ele>290.7</ele>
        <time>2020-11-29T12:05:38Z</time>
      </trkpt>
      <trkpt lat="43.60179" lon="1.15949">
        <ele>290.4</ele>
        <time>2020-11-29T12:05:39Z</time>
      </trkpt>
      <trkpt lat="43.6018" lon="1.15944">
        <ele>290.3</ele>
        <time>2020-11-29T12:05:40Z</time>
      </trkpt>
      <trkpt lat="43.6018" lon="1.15939">
        <ele>290.1</ele>
        <time>2020-11-29T12:05:41Z</time>
      </trkpt>
      <trkpt lat="43.6018" lon="1.15934">
        <ele>290</ele>
        <time>2020-11-29T12:05:42Z</time>
      </trkpt>
      <trkpt lat="43.60179" lon="1.15927">
        <ele>289.8</ele>
        <time>2020-11-29T12:05:43Z</time>
      </trkpt>
      <trkpt lat="43.60179" lon="1.15922">
        <ele>289.6</ele>
        <time>2020-11-29T12:05:44Z</time>
      </trkpt>
      <trkpt lat="43.60179" lon="1.15917">
        <ele>289.5</ele>
        <time>2020-11-29T12:05:45Z</time>
      </trkpt>
      <trkpt lat="43.6018" lon="1.15913">
        <ele>289.4</ele>
        <time>2020-11-29T12:05:46Z</time>
      </trkpt>
      <trkpt lat="43.60183" lon="1.15909">
        <ele>289.2</ele>
        <time>2020-11-29T12:05:47Z</time>
      </trkpt>
      <trkpt lat="43.60183" lon="1.15903">
        <ele>289.1</ele>
        <time>2020-11-29T12:05:48Z</time>
      </trkpt>
      <trkpt lat="43.60181" lon="1.15896">
        <ele>289</ele>
        <time>2020-11-29T12:05:49Z</time>
      </trkpt>
      <trkpt lat="43.6018" lon="1.15891">
        <ele>288.8</ele>
        <time>2020-11-29T12:05:50Z</time>
      </trkpt>
      <trkpt lat="43.60178" lon="1.15885">
        <ele>288.7</ele>
        <time>2020-11-29T12:05:51Z</time>
      </trkpt>
      <trkpt lat="43.60177" lon="1.15879">
        <ele>288.6</ele>
        <time>2020-11-29T12:05:52Z</time>
      </trkpt>
      <trkpt lat="43.60176" lon="1.15871">
        <ele>288.4</ele>
        <time>2020-11-29T12:05:53Z</time>
      </trkpt>
      <trkpt lat="43.60176" lon="1.15863">
        <ele>288.3</ele>
        <time>2020-11-29T12:05:54Z</time>
      </trkpt>
      <trkpt lat="43.60176" lon="1.15854">
        <ele>288.1</ele>
        <time>2020-11-29T12:05:55Z</time>
      </trkpt>
      <trkpt lat="43.60177" lon="1.15847">
        <ele>287.8</ele>
        <time>2020-11-29T12:05:56Z</time>
      </trkpt>
      <trkpt lat="43.60177" lon="1.1584">
        <ele>287.6</ele>
        <time>2020-11-29T12:05:57Z</time>
      </trkpt>
      <trkpt lat="43.60178" lon="1.15836">
        <ele>287.4</ele>
        <time>2020-11-29T12:05:58Z</time>
      </trkpt>
      <trkpt lat="43.60177" lon="1.1583">
        <ele>287.1</ele>
        <time>2020-11-29T12:05:59Z</time>
      </trkpt>
      <trkpt lat="43.60176" lon="1.15822">
        <ele>286.7</ele>
        <time>2020-11-29T12:06:00Z</time>
      </trkpt>
      <trkpt lat="43.60174" lon="1.15816">
        <ele>286.4</ele>
        <time>2020-11-29T12:06:01Z</time>
      </trkpt>
      <trkpt lat="43.60171" lon="1.1581">
        <ele>286.2</ele>
        <time>2020-11-29T12:06:02Z</time>
      </trkpt>
      <trkpt lat="43.60168" lon="1.15802">
        <ele>285.9</ele>
        <time>2020-11-29T12:06:03Z</time>
      </trkpt>
      <trkpt lat="43.60164" lon="1.15791">
        <ele>285.5</ele>
        <time>2020-11-29T12:06:04Z</time>
      </trkpt>
      <trkpt lat="43.6016" lon="1.15781">
        <ele>285</ele>
        <time>2020-11-29T12:06:05Z</time>
      </trkpt>
      <trkpt lat="43.60157" lon="1.15774">
        <ele>284.6</ele>
        <time>2020-11-29T12:06:06Z</time>
      </trkpt>
      <trkpt lat="43.60154" lon="1.15767">
        <ele>284.3</ele>
        <time>2020-11-29T12:06:07Z</time>
      </trkpt>
      <trkpt lat="43.6015" lon="1.1576">
        <ele>283.9</ele>
        <time>2020-11-29T12:06:08Z</time>
      </trkpt>
      <trkpt lat="43.60145" lon="1.15753">
        <ele>283.6</ele>
        <time>2020-11-29T12:06:09Z</time>
      </trkpt>
      <trkpt lat="43.60141" lon="1.15747">
        <ele>283.5</ele>
        <time>2020-11-29T12:06:10Z</time>
      </trkpt>
      <trkpt lat="43.60136" lon="1.15741">
        <ele>283.5</ele>
        <time>2020-11-29T12:06:11Z</time>
      </trkpt>
      <trkpt lat="43.60131" lon="1.15734">
        <ele>283.6</ele>
        <time>2020-11-29T12:06:12Z</time>
      </trkpt>
      <trkpt lat="43.60125" lon="1.15727">
        <ele>283.8</ele>
        <time>2020-11-29T12:06:13Z</time>
      </trkpt>
      <trkpt lat="43.60121" lon="1.15723">
        <ele>284</ele>
        <time>2020-11-29T12:06:14Z</time>
      </trkpt>
      <trkpt lat="43.60117" lon="1.15718">
        <ele>284.2</ele>
        <time>2020-11-29T12:06:15Z</time>
      </trkpt>
      <trkpt lat="43.60113" lon="1.15714">
        <ele>284.5</ele>
        <time>2020-11-29T12:06:16Z</time>
      </trkpt>
      <trkpt lat="43.60109" lon="1.15709">
        <ele>284.9</ele>
        <time>2020-11-29T12:06:17Z</time>
      </trkpt>
      <trkpt lat="43.60106" lon="1.15705">
        <ele>285.2</ele>
        <time>2020-11-29T12:06:18Z</time>
      </trkpt>
      <trkpt lat="43.60104" lon="1.157">
        <ele>285.5</ele>
        <time>2020-11-29T12:06:19Z</time>
      </trkpt>
      <trkpt lat="43.601" lon="1.15694">
        <ele>285.9</ele>
        <time>2020-11-29T12:06:20Z</time>
      </trkpt>
      <trkpt lat="43.60098" lon="1.15689">
        <ele>286.2</ele>
        <time>2020-11-29T12:06:21Z</time>
      </trkpt>
      <trkpt lat="43.60096" lon="1.15684">
        <ele>286.5</ele>
        <time>2020-11-29T12:06:22Z</time>
      </trkpt>
      <trkpt lat="43.60093" lon="1.15678">
        <ele>286.8</ele>
        <time>2020-11-29T12:06:23Z</time>
      </trkpt>
      <trkpt lat="43.6009" lon="1.15673">
        <ele>287.1</ele>
        <time>2020-11-29T12:06:24Z</time>
      </trkpt>
      <trkpt lat="43.60087" lon="1.15669">
        <ele>287.3</ele>
        <time>2020-11-29T12:06:25Z</time>
      </trkpt>
      <trkpt lat="43.60083" lon="1.15663">
        <ele>287.6</ele>
        <time>2020-11-29T12:06:26Z</time>
      </trkpt>
      <trkpt lat="43.6008" lon="1.15657">
        <ele>287.7</ele>
        <time>2020-11-29T12:06:27Z</time>
      </trkpt>
      <trkpt lat="43.60077" lon="1.1565">
        <ele>287.7</ele>
        <time>2020-11-29T12:06:28Z</time>
      </trkpt>
      <trkpt lat="43.60076" lon="1.15643">
        <ele>287.7</ele>
        <time>2020-11-29T12:06:29Z</time>
      </trkpt>
      <trkpt lat="43.60075" lon="1.15637">
        <ele>287.6</ele>
        <time>2020-11-29T12:06:30Z</time>
      </trkpt>
      <trkpt lat="43.60074" lon="1.15631">
        <ele>287.6</ele>
        <time>2020-11-29T12:06:31Z</time>
      </trkpt>
      <trkpt lat="43.60075" lon="1.15624">
        <ele>287.5</ele>
        <time>2020-11-29T12:06:32Z</time>
      </trkpt>
      <trkpt lat="43.60076" lon="1.15618">
        <ele>287.4</ele>
        <time>2020-11-29T12:06:33Z</time>
      </trkpt>
      <trkpt lat="43.60076" lon="1.15612">
        <ele>287.4</ele>
        <time>2020-11-29T12:06:34Z</time>
      </trkpt>
      <trkpt lat="43.60075" lon="1.15607">
        <ele>287.4</ele>
        <time>2020-11-29T12:06:35Z</time>
      </trkpt>
      <trkpt lat="43.60073" lon="1.156">
        <ele>287.4</ele>
        <time>2020-11-29T12:06:36Z</time>
      </trkpt>
      <trkpt lat="43.60071" lon="1.15594">
        <ele>287.4</ele>
        <time>2020-11-29T12:06:37Z</time>
      </trkpt>
      <trkpt lat="43.60069" lon="1.1559">
        <ele>287.5</ele>
        <time>2020-11-29T12:06:38Z</time>
      </trkpt>
      <trkpt lat="43.60066" lon="1.15583">
        <ele>287.5</ele>
        <time>2020-11-29T12:06:39Z</time>
      </trkpt>
      <trkpt lat="43.60063" lon="1.15578">
        <ele>287.4</ele>
        <time>2020-11-29T12:06:40Z</time>
      </trkpt>
      <trkpt lat="43.60061" lon="1.15574">
        <ele>287.4</ele>
        <time>2020-11-29T12:06:41Z</time>
      </trkpt>
      <trkpt lat="43.60058" lon="1.15571">
        <ele>287.2</ele>
        <time>2020-11-29T12:06:42Z</time>
      </trkpt>
      <trkpt lat="43.60053" lon="1.15569">
        <ele>287</ele>
        <time>2020-11-29T12:06:43Z</time>
      </trkpt>
      <trkpt lat="43.60049" lon="1.15566">
        <ele>286.6</ele>
        <time>2020-11-29T12:06:44Z</time>
      </trkpt>
      <trkpt lat="43.60047" lon="1.15561">
        <ele>286.3</ele>
        <time>2020-11-29T12:06:45Z</time>
      </trkpt>
      <trkpt lat="43.60044" lon="1.15553">
        <ele>285.7</ele>
        <time>2020-11-29T12:06:46Z</time>
      </trkpt>
      <trkpt lat="43.6004" lon="1.15547">
        <ele>285.1</ele>
        <time>2020-11-29T12:06:47Z</time>
      </trkpt>
      <trkpt lat="43.60035" lon="1.15541">
        <ele>284.5</ele>
        <time>2020-11-29T12:06:48Z</time>
      </trkpt>
      <trkpt lat="43.60029" lon="1.15538">
        <ele>283.8</ele>
        <time>2020-11-29T12:06:49Z</time>
      </trkpt>
      <trkpt lat="43.60022" lon="1.15535">
        <ele>283</ele>
        <time>2020-11-29T12:06:50Z</time>
      </trkpt>
      <trkpt lat="43.60015" lon="1.15533">
        <ele>282.2</ele>
        <time>2020-11-29T12:06:51Z</time>
      </trkpt>
      <trkpt lat="43.60009" lon="1.15531">
        <ele>281.3</ele>
        <time>2020-11-29T12:06:52Z</time>
      </trkpt>
      <trkpt lat="43.60002" lon="1.15528">
        <ele>280.3</ele>
        <time>2020-11-29T12:06:53Z</time>
      </trkpt>
      <trkpt lat="43.59995" lon="1.15526">
        <ele>279.2</ele>
        <time>2020-11-29T12:06:54Z</time>
      </trkpt>
      <trkpt lat="43.59989" lon="1.15524">
        <ele>278.1</ele>
        <time>2020-11-29T12:06:55Z</time>
      </trkpt>
      <trkpt lat="43.59982" lon="1.15522">
        <ele>277.1</ele>
        <time>2020-11-29T12:06:56Z</time>
      </trkpt>
      <trkpt lat="43.59977" lon="1.15521">
        <ele>276.3</ele>
        <time>2020-11-29T12:06:57Z</time>
      </trkpt>
      <trkpt lat="43.59973" lon="1.15518">
        <ele>275.6</ele>
        <time>2020-11-29T12:06:58Z</time>
      </trkpt>
      <trkpt lat="43.59967" lon="1.15516">
        <ele>274.9</ele>
        <time>2020-11-29T12:06:59Z</time>
      </trkpt>
      <trkpt lat="43.59962" lon="1.15514">
        <ele>274.1</ele>
        <time>2020-11-29T12:07:00Z</time>
      </trkpt>
      <trkpt lat="43.59957" lon="1.15512">
        <ele>273.6</ele>
        <time>2020-11-29T12:07:01Z</time>
      </trkpt>
      <trkpt lat="43.59953" lon="1.15511">
        <ele>273.2</ele>
        <time>2020-11-29T12:07:02Z</time>
      </trkpt>
      <trkpt lat="43.59949" lon="1.15507">
        <ele>272.7</ele>
        <time>2020-11-29T12:07:03Z</time>
      </trkpt>
      <trkpt lat="43.59945" lon="1.15502">
        <ele>272.3</ele>
        <time>2020-11-29T12:07:04Z</time>
      </trkpt>
      <trkpt lat="43.59942" lon="1.15497">
        <ele>272</ele>
        <time>2020-11-29T12:07:05Z</time>
      </trkpt>
      <trkpt lat="43.5994" lon="1.15493">
        <ele>271.8</ele>
        <time>2020-11-29T12:07:06Z</time>
      </trkpt>
      <trkpt lat="43.59935" lon="1.1549">
        <ele>271.5</ele>
        <time>2020-11-29T12:07:07Z</time>
      </trkpt>
      <trkpt lat="43.59931" lon="1.15488">
        <ele>271.2</ele>
        <time>2020-11-29T12:07:08Z</time>
      </trkpt>
      <trkpt lat="43.59926" lon="1.15484">
        <ele>271</ele>
        <time>2020-11-29T12:07:09Z</time>
      </trkpt>
      <trkpt lat="43.59922" lon="1.15478">
        <ele>270.8</ele>
        <time>2020-11-29T12:07:10Z</time>
      </trkpt>
      <trkpt lat="43.59919" lon="1.15474">
        <ele>270.7</ele>
        <time>2020-11-29T12:07:11Z</time>
      </trkpt>
      <trkpt lat="43.59915" lon="1.15469">
        <ele>270.6</ele>
        <time>2020-11-29T12:07:12Z</time>
      </trkpt>
      <trkpt lat="43.59911" lon="1.15463">
        <ele>270.7</ele>
        <time>2020-11-29T12:07:13Z</time>
      </trkpt>
      <trkpt lat="43.59907" lon="1.15458">
        <ele>270.8</ele>
        <time>2020-11-29T12:07:14Z</time>
      </trkpt>
      <trkpt lat="43.59904" lon="1.15453">
        <ele>271.1</ele>
        <time>2020-11-29T12:07:15Z</time>
      </trkpt>
      <trkpt lat="43.59901" lon="1.15448">
        <ele>271.4</ele>
        <time>2020-11-29T12:07:16Z</time>
      </trkpt>
      <trkpt lat="43.59898" lon="1.15444">
        <ele>271.7</ele>
        <time>2020-11-29T12:07:17Z</time>
      </trkpt>
      <trkpt lat="43.59895" lon="1.15439">
        <ele>272.1</ele>
        <time>2020-11-29T12:07:18Z</time>
      </trkpt>
      <trkpt lat="43.59892" lon="1.15435">
        <ele>272.4</ele>
        <time>2020-11-29T12:07:19Z</time>
      </trkpt>
      <trkpt lat="43.59889" lon="1.15433">
        <ele>272.7</ele>
        <time>2020-11-29T12:07:20Z</time>
      </trkpt>
      <trkpt lat="43.59886" lon="1.1543">
        <ele>273</ele>
        <time>2020-11-29T12:07:21Z</time>
      </trkpt>
      <trkpt lat="43.59882" lon="1.15427">
        <ele>273.4</ele>
        <time>2020-11-29T12:07:22Z</time>
      </trkpt>
      <trkpt lat="43.59878" lon="1.15423">
        <ele>273.8</ele>
        <time>2020-11-29T12:07:23Z</time>
      </trkpt>
      <trkpt lat="43.59875" lon="1.1542">
        <ele>274.1</ele>
        <time>2020-11-29T12:07:24Z</time>
      </trkpt>
      <trkpt lat="43.59871" lon="1.15417">
        <ele>274.5</ele>
        <time>2020-11-29T12:07:25Z</time>
      </trkpt>
      <trkpt lat="43.59866" lon="1.15413">
        <ele>274.9</ele>
        <time>2020-11-29T12:07:26Z</time>
      </trkpt>
      <trkpt lat="43.59863" lon="1.15412">
        <ele>275.2</ele>
        <time>2020-11-29T12:07:27Z</time>
      </trkpt>
      <trkpt lat="43.59859" lon="1.15407">
        <ele>275.6</ele>
        <time>2020-11-29T12:07:28Z</time>
      </trkpt>
      <trkpt lat="43.59856" lon="1.15404">
        <ele>275.9</ele>
        <time>2020-11-29T12:07:29Z</time>
      </trkpt>
      <trkpt lat="43.59854" lon="1.15402">
        <ele>276.2</ele>
        <time>2020-11-29T12:07:30Z</time>
      </trkpt>
      <trkpt lat="43.59851" lon="1.15398">
        <ele>276.5</ele>
        <time>2020-11-29T12:07:31Z</time>
      </trkpt>
      <trkpt lat="43.59849" lon="1.15395">
        <ele>276.8</ele>
        <time>2020-11-29T12:07:32Z</time>
      </trkpt>
      <trkpt lat="43.59847" lon="1.15392">
        <ele>277</ele>
        <time>2020-11-29T12:07:33Z</time>
      </trkpt>
      <trkpt lat="43.59845" lon="1.15388">
        <ele>277.4</ele>
        <time>2020-11-29T12:07:34Z</time>
      </trkpt>
      <trkpt lat="43.59843" lon="1.15384">
        <ele>277.7</ele>
        <time>2020-11-29T12:07:35Z</time>
      </trkpt>
      <trkpt lat="43.59842" lon="1.15379">
        <ele>278</ele>
        <time>2020-11-29T12:07:36Z</time>
      </trkpt>
      <trkpt lat="43.59841" lon="1.15377">
        <ele>278.1</ele>
        <time>2020-11-29T12:07:37Z</time>
      </trkpt>
      <trkpt lat="43.5984" lon="1.15373">
        <ele>278.4</ele>
        <time>2020-11-29T12:07:38Z</time>
      </trkpt>
      <trkpt lat="43.59838" lon="1.15368">
        <ele>278.8</ele>
        <time>2020-11-29T12:07:39Z</time>
      </trkpt>
      <trkpt lat="43.59837" lon="1.15366">
        <ele>278.9</ele>
        <time>2020-11-29T12:07:40Z</time>
      </trkpt>
      <trkpt lat="43.59835" lon="1.15362">
        <ele>279.2</ele>
        <time>2020-11-29T12:07:41Z</time>
      </trkpt>
      <trkpt lat="43.59832" lon="1.15356">
        <ele>279.7</ele>
        <time>2020-11-29T12:07:42Z</time>
      </trkpt>
      <trkpt lat="43.59829" lon="1.15351">
        <ele>280</ele>
        <time>2020-11-29T12:07:43Z</time>
      </trkpt>
      <trkpt lat="43.59827" lon="1.15349">
        <ele>280.2</ele>
        <time>2020-11-29T12:07:44Z</time>
      </trkpt>
      <trkpt lat="43.59825" lon="1.15345">
        <ele>280.6</ele>
        <time>2020-11-29T12:07:45Z</time>
      </trkpt>
      <trkpt lat="43.59824" lon="1.15344">
        <ele>280.7</ele>
        <time>2020-11-29T12:07:46Z</time>
      </trkpt>
      <trkpt lat="43.59821" lon="1.15341">
        <ele>281</ele>
        <time>2020-11-29T12:07:47Z</time>
      </trkpt>
      <trkpt lat="43.59818" lon="1.15337">
        <ele>281.5</ele>
        <time>2020-11-29T12:07:48Z</time>
      </trkpt>
      <trkpt lat="43.59817" lon="1.15335">
        <ele>281.7</ele>
        <time>2020-11-29T12:07:49Z</time>
      </trkpt>
      <trkpt lat="43.59815" lon="1.15332">
        <ele>282.1</ele>
        <time>2020-11-29T12:07:50Z</time>
      </trkpt>
      <trkpt lat="43.59813" lon="1.15329">
        <ele>282.5</ele>
        <time>2020-11-29T12:07:51Z</time>
      </trkpt>
      <trkpt lat="43.59812" lon="1.15329">
        <ele>282.6</ele>
        <time>2020-11-29T12:07:52Z</time>
      </trkpt>
      <trkpt lat="43.59809" lon="1.15326">
        <ele>283.1</ele>
        <time>2020-11-29T12:07:53Z</time>
      </trkpt>
      <trkpt lat="43.59807" lon="1.15322">
        <ele>283.7</ele>
        <time>2020-11-29T12:07:54Z</time>
      </trkpt>
      <trkpt lat="43.59806" lon="1.15321">
        <ele>283.8</ele>
        <time>2020-11-29T12:07:55Z</time>
      </trkpt>
      <trkpt lat="43.59803" lon="1.15317">
        <ele>284.4</ele>
        <time>2020-11-29T12:07:56Z</time>
      </trkpt>
      <trkpt lat="43.59802" lon="1.15316">
        <ele>284.7</ele>
        <time>2020-11-29T12:07:57Z</time>
      </trkpt>
      <trkpt lat="43.59799" lon="1.15311">
        <ele>285.4</ele>
        <time>2020-11-29T12:07:58Z</time>
      </trkpt>
      <trkpt lat="43.59798" lon="1.15309">
        <ele>285.7</ele>
        <time>2020-11-29T12:07:59Z</time>
      </trkpt>
      <trkpt lat="43.59796" lon="1.15304">
        <ele>286.3</ele>
        <time>2020-11-29T12:08:00Z</time>
      </trkpt>
      <trkpt lat="43.59795" lon="1.15302">
        <ele>286.6</ele>
        <time>2020-11-29T12:08:01Z</time>
      </trkpt>
      <trkpt lat="43.59793" lon="1.15298">
        <ele>287.1</ele>
        <time>2020-11-29T12:08:02Z</time>
      </trkpt>
      <trkpt lat="43.59792" lon="1.15293">
        <ele>287.6</ele>
        <time>2020-11-29T12:08:03Z</time>
      </trkpt>
      <trkpt lat="43.59792" lon="1.15292">
        <ele>287.8</ele>
        <time>2020-11-29T12:08:04Z</time>
      </trkpt>
      <trkpt lat="43.5979" lon="1.15288">
        <ele>288.3</ele>
        <time>2020-11-29T12:08:05Z</time>
      </trkpt>
      <trkpt lat="43.5979" lon="1.15286">
        <ele>288.4</ele>
        <time>2020-11-29T12:08:06Z</time>
      </trkpt>
      <trkpt lat="43.59789" lon="1.15281">
        <ele>288.8</ele>
        <time>2020-11-29T12:08:07Z</time>
      </trkpt>
      <trkpt lat="43.59789" lon="1.15279">
        <ele>289</ele>
        <time>2020-11-29T12:08:08Z</time>
      </trkpt>
      <trkpt lat="43.59788" lon="1.15275">
        <ele>289.4</ele>
        <time>2020-11-29T12:08:09Z</time>
      </trkpt>
      <trkpt lat="43.59789" lon="1.1527">
        <ele>289.7</ele>
        <time>2020-11-29T12:08:10Z</time>
      </trkpt>
      <trkpt lat="43.5979" lon="1.15266">
        <ele>290</ele>
        <time>2020-11-29T12:08:11Z</time>
      </trkpt>
      <trkpt lat="43.59791" lon="1.15261">
        <ele>290.2</ele>
        <time>2020-11-29T12:08:12Z</time>
      </trkpt>
      <trkpt lat="43.59792" lon="1.15257">
        <ele>290.4</ele>
        <time>2020-11-29T12:08:13Z</time>
      </trkpt>
      <trkpt lat="43.59793" lon="1.15253">
        <ele>290.6</ele>
        <time>2020-11-29T12:08:14Z</time>
      </trkpt>
      <trkpt lat="43.59795" lon="1.1525">
        <ele>290.7</ele>
        <time>2020-11-29T12:08:15Z</time>
      </trkpt>
      <trkpt lat="43.59796" lon="1.15246">
        <ele>290.8</ele>
        <time>2020-11-29T12:08:16Z</time>
      </trkpt>
      <trkpt lat="43.59796" lon="1.15243">
        <ele>291</ele>
        <time>2020-11-29T12:08:17Z</time>
      </trkpt>
      <trkpt lat="43.59796" lon="1.15242">
        <ele>291</ele>
        <time>2020-11-29T12:08:18Z</time>
      </trkpt>
      <trkpt lat="43.59797" lon="1.1524">
        <ele>291</ele>
        <time>2020-11-29T12:08:19Z</time>
      </trkpt>
      <trkpt lat="43.59797" lon="1.15239">
        <ele>291.1</ele>
        <time>2020-11-29T12:08:20Z</time>
      </trkpt>
      <trkpt lat="43.59797" lon="1.15238">
        <ele>291.1</ele>
        <time>2020-11-29T12:08:21Z</time>
      </trkpt>
      <trkpt lat="43.59796" lon="1.15236">
        <ele>291.2</ele>
        <time>2020-11-29T12:08:22Z</time>
      </trkpt>
      <trkpt lat="43.59796" lon="1.15235">
        <ele>291.2</ele>
        <time>2020-11-29T12:08:23Z</time>
      </trkpt>
      <trkpt lat="43.59796" lon="1.15234">
        <ele>291.2</ele>
        <time>2020-11-29T12:08:24Z</time>
      </trkpt>
      <trkpt lat="43.59795" lon="1.15233">
        <ele>291.3</ele>
        <time>2020-11-29T12:08:25Z</time>
      </trkpt>
      <trkpt lat="43.59795" lon="1.15232">
        <ele>291.3</ele>
        <time>2020-11-29T12:08:26Z</time>
      </trkpt>
      <trkpt lat="43.59795" lon="1.15231">
        <ele>291.3</ele>
        <time>2020-11-29T12:08:27Z</time>
      </trkpt>
      <trkpt lat="43.59795" lon="1.1523">
        <ele>291.4</ele>
        <time>2020-11-29T12:08:28Z</time>
      </trkpt>
      <trkpt lat="43.59795" lon="1.15228">
        <ele>291.4</ele>
        <time>2020-11-29T12:08:29Z</time>
      </trkpt>
      <trkpt lat="43.59796" lon="1.15225">
        <ele>291.6</ele>
        <time>2020-11-29T12:08:30Z</time>
      </trkpt>
      <trkpt lat="43.59797" lon="1.15223">
        <ele>291.6</ele>
        <time>2020-11-29T12:08:31Z</time>
      </trkpt>
      <trkpt lat="43.59798" lon="1.15219">
        <ele>291.7</ele>
        <time>2020-11-29T12:08:32Z</time>
      </trkpt>
      <trkpt lat="43.59799" lon="1.15215">
        <ele>291.9</ele>
        <time>2020-11-29T12:08:33Z</time>
      </trkpt>
      <trkpt lat="43.59799" lon="1.15213">
        <ele>292</ele>
        <time>2020-11-29T12:08:34Z</time>
      </trkpt>
      <trkpt lat="43.598" lon="1.15209">
        <ele>292.1</ele>
        <time>2020-11-29T12:08:35Z</time>
      </trkpt>
      <trkpt lat="43.598" lon="1.15205">
        <ele>292.3</ele>
        <time>2020-11-29T12:08:36Z</time>
      </trkpt>
      <trkpt lat="43.59799" lon="1.15201">
        <ele>292.5</ele>
        <time>2020-11-29T12:08:37Z</time>
      </trkpt>
      <trkpt lat="43.59798" lon="1.15201">
        <ele>292.5</ele>
        <time>2020-11-29T12:08:38Z</time>
      </trkpt>
      <trkpt lat="43.59795" lon="1.15199">
        <ele>292.7</ele>
        <time>2020-11-29T12:08:39Z</time>
      </trkpt>
      <trkpt lat="43.59792" lon="1.15197">
        <ele>292.9</ele>
        <time>2020-11-29T12:08:40Z</time>
      </trkpt>
      <trkpt lat="43.59788" lon="1.15196">
        <ele>293.2</ele>
        <time>2020-11-29T12:08:41Z</time>
      </trkpt>
      <trkpt lat="43.59787" lon="1.15196">
        <ele>293.3</ele>
        <time>2020-11-29T12:08:42Z</time>
      </trkpt>
      <trkpt lat="43.59783" lon="1.15195">
        <ele>293.6</ele>
        <time>2020-11-29T12:08:43Z</time>
      </trkpt>
      <trkpt lat="43.59782" lon="1.15195">
        <ele>293.7</ele>
        <time>2020-11-29T12:08:44Z</time>
      </trkpt>
      <trkpt lat="43.59779" lon="1.15195">
        <ele>293.9</ele>
        <time>2020-11-29T12:08:45Z</time>
      </trkpt>
      <trkpt lat="43.59778" lon="1.15195">
        <ele>294</ele>
        <time>2020-11-29T12:08:46Z</time>
      </trkpt>
      <trkpt lat="43.59775" lon="1.15192">
        <ele>294.2</ele>
        <time>2020-11-29T12:08:47Z</time>
      </trkpt>
      <trkpt lat="43.59772" lon="1.15191">
        <ele>294.5</ele>
        <time>2020-11-29T12:08:48Z</time>
      </trkpt>
      <trkpt lat="43.59769" lon="1.15187">
        <ele>294.8</ele>
        <time>2020-11-29T12:08:49Z</time>
      </trkpt>
      <trkpt lat="43.59768" lon="1.15186">
        <ele>294.9</ele>
        <time>2020-11-29T12:08:50Z</time>
      </trkpt>
      <trkpt lat="43.59765" lon="1.15187">
        <ele>295.1</ele>
        <time>2020-11-29T12:08:51Z</time>
      </trkpt>
      <trkpt lat="43.59764" lon="1.15187">
        <ele>295.3</ele>
        <time>2020-11-29T12:08:52Z</time>
      </trkpt>
      <trkpt lat="43.5976" lon="1.15187">
        <ele>295.6</ele>
        <time>2020-11-29T12:08:53Z</time>
      </trkpt>
      <trkpt lat="43.59759" lon="1.15187">
        <ele>295.7</ele>
        <time>2020-11-29T12:08:54Z</time>
      </trkpt>
      <trkpt lat="43.59756" lon="1.15186">
        <ele>295.9</ele>
        <time>2020-11-29T12:08:55Z</time>
      </trkpt>
      <trkpt lat="43.59753" lon="1.15186">
        <ele>296.1</ele>
        <time>2020-11-29T12:08:56Z</time>
      </trkpt>
      <trkpt lat="43.5975" lon="1.15185">
        <ele>296.4</ele>
        <time>2020-11-29T12:08:57Z</time>
      </trkpt>
      <trkpt lat="43.59749" lon="1.15185">
        <ele>296.5</ele>
        <time>2020-11-29T12:08:58Z</time>
      </trkpt>
      <trkpt lat="43.59745" lon="1.15184">
        <ele>296.7</ele>
        <time>2020-11-29T12:08:59Z</time>
      </trkpt>
      <trkpt lat="43.59742" lon="1.15183">
        <ele>296.9</ele>
        <time>2020-11-29T12:09:00Z</time>
      </trkpt>
      <trkpt lat="43.59738" lon="1.15182">
        <ele>297.1</ele>
        <time>2020-11-29T12:09:01Z</time>
      </trkpt>
      <trkpt lat="43.59735" lon="1.1518">
        <ele>297.2</ele>
        <time>2020-11-29T12:09:02Z</time>
      </trkpt>
      <trkpt lat="43.59731" lon="1.15178">
        <ele>297.4</ele>
        <time>2020-11-29T12:09:03Z</time>
      </trkpt>
      <trkpt lat="43.59728" lon="1.15177">
        <ele>297.5</ele>
        <time>2020-11-29T12:09:04Z</time>
      </trkpt>
      <trkpt lat="43.59723" lon="1.15173">
        <ele>297.6</ele>
        <time>2020-11-29T12:09:05Z</time>
      </trkpt>
      <trkpt lat="43.5972" lon="1.15171">
        <ele>297.7</ele>
        <time>2020-11-29T12:09:06Z</time>
      </trkpt>
      <trkpt lat="43.59717" lon="1.1517">
        <ele>297.8</ele>
        <time>2020-11-29T12:09:07Z</time>
      </trkpt>
      <trkpt lat="43.59713" lon="1.15168">
        <ele>297.8</ele>
        <time>2020-11-29T12:09:08Z</time>
      </trkpt>
      <trkpt lat="43.59712" lon="1.15167">
        <ele>297.8</ele>
        <time>2020-11-29T12:09:09Z</time>
      </trkpt>
      <trkpt lat="43.59709" lon="1.15166">
        <ele>297.9</ele>
        <time>2020-11-29T12:09:10Z</time>
      </trkpt>
      <trkpt lat="43.59708" lon="1.15166">
        <ele>297.9</ele>
        <time>2020-11-29T12:09:11Z</time>
      </trkpt>
      <trkpt lat="43.59704" lon="1.15165">
        <ele>297.9</ele>
        <time>2020-11-29T12:09:12Z</time>
      </trkpt>
      <trkpt lat="43.597" lon="1.15164">
        <ele>297.9</ele>
        <time>2020-11-29T12:09:13Z</time>
      </trkpt>
      <trkpt lat="43.59695" lon="1.15162">
        <ele>297.9</ele>
        <time>2020-11-29T12:09:14Z</time>
      </trkpt>
      <trkpt lat="43.5969" lon="1.15159">
        <ele>297.9</ele>
        <time>2020-11-29T12:09:15Z</time>
      </trkpt>
      <trkpt lat="43.59685" lon="1.15155">
        <ele>297.8</ele>
        <time>2020-11-29T12:09:16Z</time>
      </trkpt>
      <trkpt lat="43.59679" lon="1.15152">
        <ele>297.7</ele>
        <time>2020-11-29T12:09:17Z</time>
      </trkpt>
      <trkpt lat="43.59674" lon="1.1515">
        <ele>297.5</ele>
        <time>2020-11-29T12:09:18Z</time>
      </trkpt>
      <trkpt lat="43.59669" lon="1.15148">
        <ele>297.4</ele>
        <time>2020-11-29T12:09:19Z</time>
      </trkpt>
      <trkpt lat="43.59664" lon="1.15146">
        <ele>297.1</ele>
        <time>2020-11-29T12:09:20Z</time>
      </trkpt>
      <trkpt lat="43.5966" lon="1.15144">
        <ele>296.9</ele>
        <time>2020-11-29T12:09:21Z</time>
      </trkpt>
      <trkpt lat="43.59655" lon="1.15143">
        <ele>296.7</ele>
        <time>2020-11-29T12:09:22Z</time>
      </trkpt>
      <trkpt lat="43.59652" lon="1.15141">
        <ele>296.6</ele>
        <time>2020-11-29T12:09:23Z</time>
      </trkpt>
      <trkpt lat="43.59647" lon="1.15141">
        <ele>296.3</ele>
        <time>2020-11-29T12:09:24Z</time>
      </trkpt>
      <trkpt lat="43.5964" lon="1.1514">
        <ele>295.9</ele>
        <time>2020-11-29T12:09:25Z</time>
      </trkpt>
      <trkpt lat="43.59635" lon="1.15139">
        <ele>295.7</ele>
        <time>2020-11-29T12:09:26Z</time>
      </trkpt>
      <trkpt lat="43.59632" lon="1.15138">
        <ele>295.5</ele>
        <time>2020-11-29T12:09:27Z</time>
      </trkpt>
      <trkpt lat="43.59626" lon="1.15137">
        <ele>295.2</ele>
        <time>2020-11-29T12:09:28Z</time>
      </trkpt>
      <trkpt lat="43.59621" lon="1.15136">
        <ele>294.9</ele>
        <time>2020-11-29T12:09:29Z</time>
      </trkpt>
      <trkpt lat="43.59616" lon="1.15134">
        <ele>294.6</ele>
        <time>2020-11-29T12:09:30Z</time>
      </trkpt>
      <trkpt lat="43.5961" lon="1.15132">
        <ele>294.3</ele>
        <time>2020-11-29T12:09:31Z</time>
      </trkpt>
      <trkpt lat="43.59605" lon="1.1513">
        <ele>294</ele>
        <time>2020-11-29T12:09:32Z</time>
      </trkpt>
      <trkpt lat="43.59601" lon="1.15128">
        <ele>293.8</ele>
        <time>2020-11-29T12:09:33Z</time>
      </trkpt>
      <trkpt lat="43.59597" lon="1.15126">
        <ele>293.6</ele>
        <time>2020-11-29T12:09:34Z</time>
      </trkpt>
      <trkpt lat="43.59591" lon="1.15126">
        <ele>293.4</ele>
        <time>2020-11-29T12:09:35Z</time>
      </trkpt>
      <trkpt lat="43.59586" lon="1.15123">
        <ele>293.2</ele>
        <time>2020-11-29T12:09:36Z</time>
      </trkpt>
      <trkpt lat="43.59581" lon="1.15122">
        <ele>293.2</ele>
        <time>2020-11-29T12:09:37Z</time>
      </trkpt>
      <trkpt lat="43.59577" lon="1.15121">
        <ele>293.1</ele>
        <time>2020-11-29T12:09:38Z</time>
      </trkpt>
      <trkpt lat="43.59573" lon="1.15118">
        <ele>293.1</ele>
        <time>2020-11-29T12:09:39Z</time>
      </trkpt>
      <trkpt lat="43.59569" lon="1.15116">
        <ele>293.1</ele>
        <time>2020-11-29T12:09:40Z</time>
      </trkpt>
      <trkpt lat="43.59565" lon="1.15114">
        <ele>293.2</ele>
        <time>2020-11-29T12:09:41Z</time>
      </trkpt>
      <trkpt lat="43.59561" lon="1.15112">
        <ele>293.3</ele>
        <time>2020-11-29T12:09:42Z</time>
      </trkpt>
      <trkpt lat="43.59557" lon="1.1511">
        <ele>293.4</ele>
        <time>2020-11-29T12:09:43Z</time>
      </trkpt>
      <trkpt lat="43.59553" lon="1.15108">
        <ele>293.5</ele>
        <time>2020-11-29T12:09:44Z</time>
      </trkpt>
      <trkpt lat="43.59549" lon="1.15107">
        <ele>293.6</ele>
        <time>2020-11-29T12:09:45Z</time>
      </trkpt>
      <trkpt lat="43.59544" lon="1.15104">
        <ele>293.8</ele>
        <time>2020-11-29T12:09:46Z</time>
      </trkpt>
      <trkpt lat="43.59539" lon="1.15102">
        <ele>294</ele>
        <time>2020-11-29T12:09:47Z</time>
      </trkpt>
      <trkpt lat="43.59535" lon="1.151">
        <ele>294.2</ele>
        <time>2020-11-29T12:09:48Z</time>
      </trkpt>
      <trkpt lat="43.5953" lon="1.15099">
        <ele>294.4</ele>
        <time>2020-11-29T12:09:49Z</time>
      </trkpt>
      <trkpt lat="43.59524" lon="1.15098">
        <ele>294.7</ele>
        <time>2020-11-29T12:09:50Z</time>
      </trkpt>
      <trkpt lat="43.5952" lon="1.15096">
        <ele>294.9</ele>
        <time>2020-11-29T12:09:51Z</time>
      </trkpt>
      <trkpt lat="43.59517" lon="1.15094">
        <ele>295</ele>
        <time>2020-11-29T12:09:52Z</time>
      </trkpt>
      <trkpt lat="43.59513" lon="1.15092">
        <ele>295.3</ele>
        <time>2020-11-29T12:09:53Z</time>
      </trkpt>
      <trkpt lat="43.59509" lon="1.1509">
        <ele>295.5</ele>
        <time>2020-11-29T12:09:54Z</time>
      </trkpt>
      <trkpt lat="43.59506" lon="1.15088">
        <ele>295.6</ele>
        <time>2020-11-29T12:09:55Z</time>
      </trkpt>
      <trkpt lat="43.59503" lon="1.15087">
        <ele>295.8</ele>
        <time>2020-11-29T12:09:56Z</time>
      </trkpt>
      <trkpt lat="43.59497" lon="1.15086">
        <ele>296.2</ele>
        <time>2020-11-29T12:09:57Z</time>
      </trkpt>
      <trkpt lat="43.59492" lon="1.15083">
        <ele>296.5</ele>
        <time>2020-11-29T12:09:58Z</time>
      </trkpt>
      <trkpt lat="43.59488" lon="1.15081">
        <ele>296.7</ele>
        <time>2020-11-29T12:09:59Z</time>
      </trkpt>
      <trkpt lat="43.59486" lon="1.15081">
        <ele>296.8</ele>
        <time>2020-11-29T12:10:00Z</time>
      </trkpt>
      <trkpt lat="43.59483" lon="1.15079">
        <ele>297</ele>
        <time>2020-11-29T12:10:01Z</time>
      </trkpt>
      <trkpt lat="43.59479" lon="1.15078">
        <ele>297.1</ele>
        <time>2020-11-29T12:10:02Z</time>
      </trkpt>
      <trkpt lat="43.59474" lon="1.15076">
        <ele>297.4</ele>
        <time>2020-11-29T12:10:03Z</time>
      </trkpt>
      <trkpt lat="43.59469" lon="1.15075">
        <ele>297.6</ele>
        <time>2020-11-29T12:10:04Z</time>
      </trkpt>
      <trkpt lat="43.59465" lon="1.15074">
        <ele>297.7</ele>
        <time>2020-11-29T12:10:05Z</time>
      </trkpt>
      <trkpt lat="43.5946" lon="1.15072">
        <ele>297.9</ele>
        <time>2020-11-29T12:10:06Z</time>
      </trkpt>
      <trkpt lat="43.59456" lon="1.15068">
        <ele>298.1</ele>
        <time>2020-11-29T12:10:07Z</time>
      </trkpt>
      <trkpt lat="43.59453" lon="1.15065">
        <ele>298.1</ele>
        <time>2020-11-29T12:10:08Z</time>
      </trkpt>
      <trkpt lat="43.59449" lon="1.15063">
        <ele>298.2</ele>
        <time>2020-11-29T12:10:09Z</time>
      </trkpt>
      <trkpt lat="43.59447" lon="1.15062">
        <ele>298.4</ele>
        <time>2020-11-29T12:10:10Z</time>
      </trkpt>
      <trkpt lat="43.59443" lon="1.15058">
        <ele>298.5</ele>
        <time>2020-11-29T12:10:11Z</time>
      </trkpt>
      <trkpt lat="43.59442" lon="1.15058">
        <ele>298.5</ele>
        <time>2020-11-29T12:10:12Z</time>
      </trkpt>
      <trkpt lat="43.5944" lon="1.15055">
        <ele>298.5</ele>
        <time>2020-11-29T12:10:13Z</time>
      </trkpt>
      <trkpt lat="43.59439" lon="1.15052">
        <ele>298.5</ele>
        <time>2020-11-29T12:10:14Z</time>
      </trkpt>
      <trkpt lat="43.59438" lon="1.15049">
        <ele>298.6</ele>
        <time>2020-11-29T12:10:15Z</time>
      </trkpt>
      <trkpt lat="43.59434" lon="1.15047">
        <ele>298.6</ele>
        <time>2020-11-29T12:10:16Z</time>
      </trkpt>
      <trkpt lat="43.59431" lon="1.15046">
        <ele>298.9</ele>
        <time>2020-11-29T12:10:17Z</time>
      </trkpt>
      <trkpt lat="43.59428" lon="1.15048">
        <ele>298.8</ele>
        <time>2020-11-29T12:10:18Z</time>
      </trkpt>
      <trkpt lat="43.59426" lon="1.15049">
        <ele>298.8</ele>
        <time>2020-11-29T12:10:19Z</time>
      </trkpt>
      <trkpt lat="43.59426" lon="1.15054">
        <ele>298.8</ele>
        <time>2020-11-29T12:10:20Z</time>
      </trkpt>
      <trkpt lat="43.59425" lon="1.1506">
        <ele>298.8</ele>
        <time>2020-11-29T12:10:21Z</time>
      </trkpt>
      <trkpt lat="43.59425" lon="1.15066">
        <ele>298.7</ele>
        <time>2020-11-29T12:10:22Z</time>
      </trkpt>
      <trkpt lat="43.59424" lon="1.15072">
        <ele>298.7</ele>
        <time>2020-11-29T12:10:23Z</time>
      </trkpt>
      <trkpt lat="43.59423" lon="1.15079">
        <ele>298.7</ele>
        <time>2020-11-29T12:10:24Z</time>
      </trkpt>
      <trkpt lat="43.59423" lon="1.15086">
        <ele>298.6</ele>
        <time>2020-11-29T12:10:25Z</time>
      </trkpt>
      <trkpt lat="43.59422" lon="1.15098">
        <ele>298.6</ele>
        <time>2020-11-29T12:10:26Z</time>
      </trkpt>
      <trkpt lat="43.59422" lon="1.15104">
        <ele>298.6</ele>
        <time>2020-11-29T12:10:27Z</time>
      </trkpt>
      <trkpt lat="43.59422" lon="1.15109">
        <ele>298.6</ele>
        <time>2020-11-29T12:10:28Z</time>
      </trkpt>
      <trkpt lat="43.59422" lon="1.15115">
        <ele>298.5</ele>
        <time>2020-11-29T12:10:29Z</time>
      </trkpt>
      <trkpt lat="43.59422" lon="1.15121">
        <ele>298.5</ele>
        <time>2020-11-29T12:10:30Z</time>
      </trkpt>
      <trkpt lat="43.59422" lon="1.15126">
        <ele>298.5</ele>
        <time>2020-11-29T12:10:31Z</time>
      </trkpt>
      <trkpt lat="43.59422" lon="1.15131">
        <ele>298.5</ele>
        <time>2020-11-29T12:10:32Z</time>
      </trkpt>
      <trkpt lat="43.59422" lon="1.15136">
        <ele>298.4</ele>
        <time>2020-11-29T12:10:33Z</time>
      </trkpt>
      <trkpt lat="43.59421" lon="1.15142">
        <ele>298.4</ele>
        <time>2020-11-29T12:10:34Z</time>
      </trkpt>
      <trkpt lat="43.59421" lon="1.15148">
        <ele>298.3</ele>
        <time>2020-11-29T12:10:35Z</time>
      </trkpt>
      <trkpt lat="43.59422" lon="1.15153">
        <ele>298.2</ele>
        <time>2020-11-29T12:10:36Z</time>
      </trkpt>
      <trkpt lat="43.59422" lon="1.15159">
        <ele>298.1</ele>
        <time>2020-11-29T12:10:37Z</time>
      </trkpt>
      <trkpt lat="43.59421" lon="1.15163">
        <ele>298.1</ele>
        <time>2020-11-29T12:10:38Z</time>
      </trkpt>
      <trkpt lat="43.59421" lon="1.15168">
        <ele>298</ele>
        <time>2020-11-29T12:10:39Z</time>
      </trkpt>
      <trkpt lat="43.59422" lon="1.15176">
        <ele>297.9</ele>
        <time>2020-11-29T12:10:40Z</time>
      </trkpt>
      <trkpt lat="43.59421" lon="1.15182">
        <ele>297.9</ele>
        <time>2020-11-29T12:10:41Z</time>
      </trkpt>
      <trkpt lat="43.5942" lon="1.15185">
        <ele>297.8</ele>
        <time>2020-11-29T12:10:42Z</time>
      </trkpt>
      <trkpt lat="43.59418" lon="1.15191">
        <ele>297.7</ele>
        <time>2020-11-29T12:10:43Z</time>
      </trkpt>
      <trkpt lat="43.59417" lon="1.15192">
        <ele>297.7</ele>
        <time>2020-11-29T12:10:44Z</time>
      </trkpt>
      <trkpt lat="43.59416" lon="1.15199">
        <ele>297.6</ele>
        <time>2020-11-29T12:10:45Z</time>
      </trkpt>
      <trkpt lat="43.59415" lon="1.15202">
        <ele>297.5</ele>
        <time>2020-11-29T12:10:46Z</time>
      </trkpt>
      <trkpt lat="43.59413" lon="1.15207">
        <ele>297.5</ele>
        <time>2020-11-29T12:10:47Z</time>
      </trkpt>
      <trkpt lat="43.59413" lon="1.15208">
        <ele>297.4</ele>
        <time>2020-11-29T12:10:48Z</time>
      </trkpt>
      <trkpt lat="43.5941" lon="1.1521">
        <ele>296.3</ele>
        <time>2020-11-29T12:10:49Z</time>
      </trkpt>
      <trkpt lat="43.59409" lon="1.15211">
        <ele>296.2</ele>
        <time>2020-11-29T12:10:50Z</time>
      </trkpt>
      <trkpt lat="43.59406" lon="1.15212">
        <ele>295.9</ele>
        <time>2020-11-29T12:10:51Z</time>
      </trkpt>
      <trkpt lat="43.59403" lon="1.1521">
        <ele>295.5</ele>
        <time>2020-11-29T12:10:52Z</time>
      </trkpt>
      <trkpt lat="43.59399" lon="1.15208">
        <ele>295.2</ele>
        <time>2020-11-29T12:10:53Z</time>
      </trkpt>
      <trkpt lat="43.59393" lon="1.15207">
        <ele>294.7</ele>
        <time>2020-11-29T12:10:54Z</time>
      </trkpt>
      <trkpt lat="43.59388" lon="1.15204">
        <ele>294.3</ele>
        <time>2020-11-29T12:10:55Z</time>
      </trkpt>
      <trkpt lat="43.59382" lon="1.15201">
        <ele>293.8</ele>
        <time>2020-11-29T12:10:56Z</time>
      </trkpt>
      <trkpt lat="43.59375" lon="1.15197">
        <ele>293.3</ele>
        <time>2020-11-29T12:10:57Z</time>
      </trkpt>
      <trkpt lat="43.59368" lon="1.15192">
        <ele>292.9</ele>
        <time>2020-11-29T12:10:58Z</time>
      </trkpt>
      <trkpt lat="43.59362" lon="1.15189">
        <ele>292.5</ele>
        <time>2020-11-29T12:10:59Z</time>
      </trkpt>
      <trkpt lat="43.59355" lon="1.15188">
        <ele>292.3</ele>
        <time>2020-11-29T12:11:00Z</time>
      </trkpt>
      <trkpt lat="43.59348" lon="1.15187">
        <ele>292</ele>
        <time>2020-11-29T12:11:01Z</time>
      </trkpt>
      <trkpt lat="43.59341" lon="1.15184">
        <ele>291.7</ele>
        <time>2020-11-29T12:11:02Z</time>
      </trkpt>
      <trkpt lat="43.59334" lon="1.15182">
        <ele>291.5</ele>
        <time>2020-11-29T12:11:03Z</time>
      </trkpt>
      <trkpt lat="43.59328" lon="1.15181">
        <ele>291.3</ele>
        <time>2020-11-29T12:11:04Z</time>
      </trkpt>
      <trkpt lat="43.59321" lon="1.15179">
        <ele>291.1</ele>
        <time>2020-11-29T12:11:05Z</time>
      </trkpt>
      <trkpt lat="43.59314" lon="1.15177">
        <ele>290.9</ele>
        <time>2020-11-29T12:11:06Z</time>
      </trkpt>
      <trkpt lat="43.59308" lon="1.15174">
        <ele>290.8</ele>
        <time>2020-11-29T12:11:07Z</time>
      </trkpt>
      <trkpt lat="43.59302" lon="1.15171">
        <ele>290.8</ele>
        <time>2020-11-29T12:11:08Z</time>
      </trkpt>
      <trkpt lat="43.59298" lon="1.1517">
        <ele>290.8</ele>
        <time>2020-11-29T12:11:09Z</time>
      </trkpt>
      <trkpt lat="43.59293" lon="1.15169">
        <ele>290.8</ele>
        <time>2020-11-29T12:11:10Z</time>
      </trkpt>
      <trkpt lat="43.59288" lon="1.15168">
        <ele>290.9</ele>
        <time>2020-11-29T12:11:11Z</time>
      </trkpt>
      <trkpt lat="43.59282" lon="1.15166">
        <ele>291</ele>
        <time>2020-11-29T12:11:12Z</time>
      </trkpt>
      <trkpt lat="43.59278" lon="1.15167">
        <ele>291.1</ele>
        <time>2020-11-29T12:11:13Z</time>
      </trkpt>
      <trkpt lat="43.59273" lon="1.15166">
        <ele>291.2</ele>
        <time>2020-11-29T12:11:14Z</time>
      </trkpt>
      <trkpt lat="43.59269" lon="1.15166">
        <ele>291.3</ele>
        <time>2020-11-29T12:11:15Z</time>
      </trkpt>
      <trkpt lat="43.59262" lon="1.15165">
        <ele>291.5</ele>
        <time>2020-11-29T12:11:16Z</time>
      </trkpt>
      <trkpt lat="43.59258" lon="1.15164">
        <ele>291.7</ele>
        <time>2020-11-29T12:11:17Z</time>
      </trkpt>
      <trkpt lat="43.59253" lon="1.15163">
        <ele>291.8</ele>
        <time>2020-11-29T12:11:18Z</time>
      </trkpt>
      <trkpt lat="43.59248" lon="1.15162">
        <ele>292</ele>
        <time>2020-11-29T12:11:19Z</time>
      </trkpt>
      <trkpt lat="43.59244" lon="1.15161">
        <ele>292.2</ele>
        <time>2020-11-29T12:11:20Z</time>
      </trkpt>
      <trkpt lat="43.59239" lon="1.15161">
        <ele>292.4</ele>
        <time>2020-11-29T12:11:21Z</time>
      </trkpt>
      <trkpt lat="43.59235" lon="1.15159">
        <ele>292.6</ele>
        <time>2020-11-29T12:11:22Z</time>
      </trkpt>
      <trkpt lat="43.59231" lon="1.15158">
        <ele>292.8</ele>
        <time>2020-11-29T12:11:23Z</time>
      </trkpt>
      <trkpt lat="43.59226" lon="1.15156">
        <ele>293.1</ele>
        <time>2020-11-29T12:11:24Z</time>
      </trkpt>
      <trkpt lat="43.59223" lon="1.15154">
        <ele>293.3</ele>
        <time>2020-11-29T12:11:25Z</time>
      </trkpt>
      <trkpt lat="43.59219" lon="1.15152">
        <ele>293.6</ele>
        <time>2020-11-29T12:11:26Z</time>
      </trkpt>
      <trkpt lat="43.59218" lon="1.15151">
        <ele>293.7</ele>
        <time>2020-11-29T12:11:27Z</time>
      </trkpt>
      <trkpt lat="43.59212" lon="1.15148">
        <ele>294.3</ele>
        <time>2020-11-29T12:11:28Z</time>
      </trkpt>
      <trkpt lat="43.59207" lon="1.15146">
        <ele>294.7</ele>
        <time>2020-11-29T12:11:29Z</time>
      </trkpt>
      <trkpt lat="43.59205" lon="1.15145">
        <ele>294.9</ele>
        <time>2020-11-29T12:11:30Z</time>
      </trkpt>
      <trkpt lat="43.59201" lon="1.15143">
        <ele>295.2</ele>
        <time>2020-11-29T12:11:31Z</time>
      </trkpt>
      <trkpt lat="43.59199" lon="1.15142">
        <ele>295.4</ele>
        <time>2020-11-29T12:11:32Z</time>
      </trkpt>
      <trkpt lat="43.59194" lon="1.15141">
        <ele>295.9</ele>
        <time>2020-11-29T12:11:33Z</time>
      </trkpt>
      <trkpt lat="43.59189" lon="1.1514">
        <ele>296.2</ele>
        <time>2020-11-29T12:11:34Z</time>
      </trkpt>
      <trkpt lat="43.59186" lon="1.15139">
        <ele>296.4</ele>
        <time>2020-11-29T12:11:35Z</time>
      </trkpt>
      <trkpt lat="43.59183" lon="1.15139">
        <ele>296.6</ele>
        <time>2020-11-29T12:11:36Z</time>
      </trkpt>
      <trkpt lat="43.59179" lon="1.15138">
        <ele>296.8</ele>
        <time>2020-11-29T12:11:37Z</time>
      </trkpt>
      <trkpt lat="43.59175" lon="1.15137">
        <ele>297</ele>
        <time>2020-11-29T12:11:38Z</time>
      </trkpt>
      <trkpt lat="43.59171" lon="1.15136">
        <ele>297.2</ele>
        <time>2020-11-29T12:11:39Z</time>
      </trkpt>
      <trkpt lat="43.59168" lon="1.15135">
        <ele>297.3</ele>
        <time>2020-11-29T12:11:40Z</time>
      </trkpt>
      <trkpt lat="43.59166" lon="1.15133">
        <ele>297.3</ele>
        <time>2020-11-29T12:11:41Z</time>
      </trkpt>
      <trkpt lat="43.59162" lon="1.15132">
        <ele>297.4</ele>
        <time>2020-11-29T12:11:42Z</time>
      </trkpt>
      <trkpt lat="43.59158" lon="1.15131">
        <ele>297.5</ele>
        <time>2020-11-29T12:11:43Z</time>
      </trkpt>
      <trkpt lat="43.59154" lon="1.15129">
        <ele>297.5</ele>
        <time>2020-11-29T12:11:44Z</time>
      </trkpt>
      <trkpt lat="43.59153" lon="1.15128">
        <ele>297.5</ele>
        <time>2020-11-29T12:11:45Z</time>
      </trkpt>
      <trkpt lat="43.5915" lon="1.15126">
        <ele>297.6</ele>
        <time>2020-11-29T12:11:46Z</time>
      </trkpt>
      <trkpt lat="43.59146" lon="1.15124">
        <ele>297.6</ele>
        <time>2020-11-29T12:11:47Z</time>
      </trkpt>
      <trkpt lat="43.59141" lon="1.15122">
        <ele>297.6</ele>
        <time>2020-11-29T12:11:48Z</time>
      </trkpt>
      <trkpt lat="43.59137" lon="1.1512">
        <ele>297.6</ele>
        <time>2020-11-29T12:11:49Z</time>
      </trkpt>
      <trkpt lat="43.59134" lon="1.1512">
        <ele>297.6</ele>
        <time>2020-11-29T12:11:50Z</time>
      </trkpt>
      <trkpt lat="43.5913" lon="1.15117">
        <ele>297.6</ele>
        <time>2020-11-29T12:11:51Z</time>
      </trkpt>
      <trkpt lat="43.59125" lon="1.15114">
        <ele>297.7</ele>
        <time>2020-11-29T12:11:52Z</time>
      </trkpt>
      <trkpt lat="43.5912" lon="1.15111">
        <ele>297.7</ele>
        <time>2020-11-29T12:11:53Z</time>
      </trkpt>
      <trkpt lat="43.59115" lon="1.15109">
        <ele>297.8</ele>
        <time>2020-11-29T12:11:54Z</time>
      </trkpt>
      <trkpt lat="43.59112" lon="1.15107">
        <ele>297.8</ele>
        <time>2020-11-29T12:11:55Z</time>
      </trkpt>
      <trkpt lat="43.59108" lon="1.15106">
        <ele>297.8</ele>
        <time>2020-11-29T12:11:56Z</time>
      </trkpt>
      <trkpt lat="43.59103" lon="1.15105">
        <ele>297.9</ele>
        <time>2020-11-29T12:11:57Z</time>
      </trkpt>
      <trkpt lat="43.59097" lon="1.15103">
        <ele>297.8</ele>
        <time>2020-11-29T12:11:58Z</time>
      </trkpt>
      <trkpt lat="43.59093" lon="1.15101">
        <ele>297.8</ele>
        <time>2020-11-29T12:11:59Z</time>
      </trkpt>
      <trkpt lat="43.59088" lon="1.15099">
        <ele>297.8</ele>
        <time>2020-11-29T12:12:00Z</time>
      </trkpt>
      <trkpt lat="43.59082" lon="1.15096">
        <ele>297.8</ele>
        <time>2020-11-29T12:12:01Z</time>
      </trkpt>
      <trkpt lat="43.59077" lon="1.15094">
        <ele>297.8</ele>
        <time>2020-11-29T12:12:02Z</time>
      </trkpt>
      <trkpt lat="43.59074" lon="1.15093">
        <ele>297.9</ele>
        <time>2020-11-29T12:12:03Z</time>
      </trkpt>
      <trkpt lat="43.5907" lon="1.15093">
        <ele>297.9</ele>
        <time>2020-11-29T12:12:04Z</time>
      </trkpt>
      <trkpt lat="43.59069" lon="1.15093">
        <ele>297.9</ele>
        <time>2020-11-29T12:12:05Z</time>
      </trkpt>
      <trkpt lat="43.59064" lon="1.1509">
        <ele>298</ele>
        <time>2020-11-29T12:12:06Z</time>
      </trkpt>
      <trkpt lat="43.59059" lon="1.15088">
        <ele>298.1</ele>
        <time>2020-11-29T12:12:07Z</time>
      </trkpt>
      <trkpt lat="43.59057" lon="1.15086">
        <ele>298.2</ele>
        <time>2020-11-29T12:12:08Z</time>
      </trkpt>
      <trkpt lat="43.59054" lon="1.15085">
        <ele>298.3</ele>
        <time>2020-11-29T12:12:09Z</time>
      </trkpt>
      <trkpt lat="43.59051" lon="1.15083">
        <ele>298.3</ele>
        <time>2020-11-29T12:12:10Z</time>
      </trkpt>
      <trkpt lat="43.5905" lon="1.15083">
        <ele>298.4</ele>
        <time>2020-11-29T12:12:11Z</time>
      </trkpt>
      <trkpt lat="43.59049" lon="1.15084">
        <ele>298.4</ele>
        <time>2020-11-29T12:12:12Z</time>
      </trkpt>
      <trkpt lat="43.59048" lon="1.15084">
        <ele>298.4</ele>
        <time>2020-11-29T12:12:13Z</time>
      </trkpt>
      <trkpt lat="43.59047" lon="1.15084">
        <ele>298.4</ele>
        <time>2020-11-29T12:12:14Z</time>
      </trkpt>
      <trkpt lat="43.59045" lon="1.15085">
        <ele>298.5</ele>
        <time>2020-11-29T12:12:15Z</time>
      </trkpt>
      <trkpt lat="43.59044" lon="1.15085">
        <ele>298.5</ele>
        <time>2020-11-29T12:12:16Z</time>
      </trkpt>
      <trkpt lat="43.59041" lon="1.15085">
        <ele>298.5</ele>
        <time>2020-11-29T12:12:17Z</time>
      </trkpt>
      <trkpt lat="43.5904" lon="1.15086">
        <ele>298.2</ele>
        <time>2020-11-29T12:12:18Z</time>
      </trkpt>
      <trkpt lat="43.59036" lon="1.15085">
        <ele>298</ele>
        <time>2020-11-29T12:12:19Z</time>
      </trkpt>
      <trkpt lat="43.59034" lon="1.15084">
        <ele>297.8</ele>
        <time>2020-11-29T12:12:20Z</time>
      </trkpt>
      <trkpt lat="43.59031" lon="1.15081">
        <ele>297.6</ele>
        <time>2020-11-29T12:12:21Z</time>
      </trkpt>
      <trkpt lat="43.59027" lon="1.1508">
        <ele>297.4</ele>
        <time>2020-11-29T12:12:22Z</time>
      </trkpt>
      <trkpt lat="43.59021" lon="1.15078">
        <ele>297</ele>
        <time>2020-11-29T12:12:23Z</time>
      </trkpt>
      <trkpt lat="43.59015" lon="1.15078">
        <ele>296.6</ele>
        <time>2020-11-29T12:12:24Z</time>
      </trkpt>
      <trkpt lat="43.59011" lon="1.15078">
        <ele>296.5</ele>
        <time>2020-11-29T12:12:25Z</time>
      </trkpt>
      <trkpt lat="43.59008" lon="1.15078">
        <ele>296.3</ele>
        <time>2020-11-29T12:12:26Z</time>
      </trkpt>
      <trkpt lat="43.59004" lon="1.15076">
        <ele>296.2</ele>
        <time>2020-11-29T12:12:27Z</time>
      </trkpt>
      <trkpt lat="43.59001" lon="1.15072">
        <ele>296</ele>
        <time>2020-11-29T12:12:28Z</time>
      </trkpt>
      <trkpt lat="43.58997" lon="1.1507">
        <ele>295.9</ele>
        <time>2020-11-29T12:12:29Z</time>
      </trkpt>
      <trkpt lat="43.58995" lon="1.1507">
        <ele>295.8</ele>
        <time>2020-11-29T12:12:30Z</time>
      </trkpt>
      <trkpt lat="43.58992" lon="1.1507">
        <ele>295.7</ele>
        <time>2020-11-29T12:12:31Z</time>
      </trkpt>
      <trkpt lat="43.58987" lon="1.15069">
        <ele>295.6</ele>
        <time>2020-11-29T12:12:32Z</time>
      </trkpt>
      <trkpt lat="43.58982" lon="1.15067">
        <ele>295.2</ele>
        <time>2020-11-29T12:12:33Z</time>
      </trkpt>
      <trkpt lat="43.58976" lon="1.15066">
        <ele>294.4</ele>
        <time>2020-11-29T12:12:34Z</time>
      </trkpt>
      <trkpt lat="43.58968" lon="1.15062">
        <ele>293.2</ele>
        <time>2020-11-29T12:12:35Z</time>
      </trkpt>
      <trkpt lat="43.58959" lon="1.15058">
        <ele>292</ele>
        <time>2020-11-29T12:12:36Z</time>
      </trkpt>
      <trkpt lat="43.58952" lon="1.15055">
        <ele>290.9</ele>
        <time>2020-11-29T12:12:37Z</time>
      </trkpt>
      <trkpt lat="43.58942" lon="1.1505">
        <ele>289.3</ele>
        <time>2020-11-29T12:12:38Z</time>
      </trkpt>
      <trkpt lat="43.58932" lon="1.15046">
        <ele>287.9</ele>
        <time>2020-11-29T12:12:39Z</time>
      </trkpt>
      <trkpt lat="43.58922" lon="1.15041">
        <ele>286.3</ele>
        <time>2020-11-29T12:12:40Z</time>
      </trkpt>
      <trkpt lat="43.58909" lon="1.15034">
        <ele>284.2</ele>
        <time>2020-11-29T12:12:41Z</time>
      </trkpt>
      <trkpt lat="43.58896" lon="1.15027">
        <ele>282.2</ele>
        <time>2020-11-29T12:12:42Z</time>
      </trkpt>
      <trkpt lat="43.58883" lon="1.1502">
        <ele>280.4</ele>
        <time>2020-11-29T12:12:43Z</time>
      </trkpt>
      <trkpt lat="43.5887" lon="1.15012">
        <ele>279.7</ele>
        <time>2020-11-29T12:12:44Z</time>
      </trkpt>
      <trkpt lat="43.58857" lon="1.15005">
        <ele>278.9</ele>
        <time>2020-11-29T12:12:45Z</time>
      </trkpt>
      <trkpt lat="43.58845" lon="1.14995">
        <ele>278.5</ele>
        <time>2020-11-29T12:12:46Z</time>
      </trkpt>
      <trkpt lat="43.58836" lon="1.14986">
        <ele>278.7</ele>
        <time>2020-11-29T12:12:47Z</time>
      </trkpt>
      <trkpt lat="43.58827" lon="1.14976">
        <ele>279.1</ele>
        <time>2020-11-29T12:12:48Z</time>
      </trkpt>
      <trkpt lat="43.5882" lon="1.14968">
        <ele>279.6</ele>
        <time>2020-11-29T12:12:49Z</time>
      </trkpt>
      <trkpt lat="43.58814" lon="1.14961">
        <ele>280.1</ele>
        <time>2020-11-29T12:12:50Z</time>
      </trkpt>
      <trkpt lat="43.58808" lon="1.14954">
        <ele>280.6</ele>
        <time>2020-11-29T12:12:51Z</time>
      </trkpt>
      <trkpt lat="43.58803" lon="1.14949">
        <ele>281.1</ele>
        <time>2020-11-29T12:12:52Z</time>
      </trkpt>
      <trkpt lat="43.58799" lon="1.14944">
        <ele>281.6</ele>
        <time>2020-11-29T12:12:53Z</time>
      </trkpt>
      <trkpt lat="43.58796" lon="1.1494">
        <ele>282</ele>
        <time>2020-11-29T12:12:54Z</time>
      </trkpt>
      <trkpt lat="43.58794" lon="1.14937">
        <ele>282.3</ele>
        <time>2020-11-29T12:12:55Z</time>
      </trkpt>
      <trkpt lat="43.58791" lon="1.14935">
        <ele>282.6</ele>
        <time>2020-11-29T12:12:56Z</time>
      </trkpt>
      <trkpt lat="43.58788" lon="1.14935">
        <ele>283</ele>
        <time>2020-11-29T12:12:57Z</time>
      </trkpt>
      <trkpt lat="43.58785" lon="1.14933">
        <ele>283.4</ele>
        <time>2020-11-29T12:12:58Z</time>
      </trkpt>
      <trkpt lat="43.58783" lon="1.14931">
        <ele>283.9</ele>
        <time>2020-11-29T12:12:59Z</time>
      </trkpt>
      <trkpt lat="43.58778" lon="1.14931">
        <ele>284.5</ele>
        <time>2020-11-29T12:13:00Z</time>
      </trkpt>
      <trkpt lat="43.58775" lon="1.14929">
        <ele>285</ele>
        <time>2020-11-29T12:13:01Z</time>
      </trkpt>
      <trkpt lat="43.58773" lon="1.14926">
        <ele>285.4</ele>
        <time>2020-11-29T12:13:02Z</time>
      </trkpt>
      <trkpt lat="43.5877" lon="1.14924">
        <ele>285.9</ele>
        <time>2020-11-29T12:13:03Z</time>
      </trkpt>
      <trkpt lat="43.58768" lon="1.1492">
        <ele>286.4</ele>
        <time>2020-11-29T12:13:04Z</time>
      </trkpt>
      <trkpt lat="43.58765" lon="1.14917">
        <ele>287</ele>
        <time>2020-11-29T12:13:05Z</time>
      </trkpt>
      <trkpt lat="43.58762" lon="1.14916">
        <ele>287.6</ele>
        <time>2020-11-29T12:13:06Z</time>
      </trkpt>
      <trkpt lat="43.58759" lon="1.14912">
        <ele>288.2</ele>
        <time>2020-11-29T12:13:07Z</time>
      </trkpt>
      <trkpt lat="43.58755" lon="1.14909">
        <ele>288.9</ele>
        <time>2020-11-29T12:13:08Z</time>
      </trkpt>
      <trkpt lat="43.58753" lon="1.14906">
        <ele>289.4</ele>
        <time>2020-11-29T12:13:09Z</time>
      </trkpt>
      <trkpt lat="43.5875" lon="1.14902">
        <ele>290.1</ele>
        <time>2020-11-29T12:13:10Z</time>
      </trkpt>
      <trkpt lat="43.58746" lon="1.14899">
        <ele>290.8</ele>
        <time>2020-11-29T12:13:11Z</time>
      </trkpt>
      <trkpt lat="43.58744" lon="1.14896">
        <ele>291.4</ele>
        <time>2020-11-29T12:13:12Z</time>
      </trkpt>
      <trkpt lat="43.58741" lon="1.14893">
        <ele>291.9</ele>
        <time>2020-11-29T12:13:13Z</time>
      </trkpt>
      <trkpt lat="43.58739" lon="1.1489">
        <ele>292.4</ele>
        <time>2020-11-29T12:13:14Z</time>
      </trkpt>
      <trkpt lat="43.58736" lon="1.14888">
        <ele>292.9</ele>
        <time>2020-11-29T12:13:15Z</time>
      </trkpt>
      <trkpt lat="43.58735" lon="1.14887">
        <ele>293</ele>
        <time>2020-11-29T12:13:16Z</time>
      </trkpt>
      <trkpt lat="43.58732" lon="1.14883">
        <ele>293.7</ele>
        <time>2020-11-29T12:13:17Z</time>
      </trkpt>
      <trkpt lat="43.5873" lon="1.14881">
        <ele>294</ele>
        <time>2020-11-29T12:13:18Z</time>
      </trkpt>
      <trkpt lat="43.58728" lon="1.14877">
        <ele>294.4</ele>
        <time>2020-11-29T12:13:19Z</time>
      </trkpt>
      <trkpt lat="43.58727" lon="1.14876">
        <ele>294.5</ele>
        <time>2020-11-29T12:13:20Z</time>
      </trkpt>
      <trkpt lat="43.58723" lon="1.14875">
        <ele>295</ele>
        <time>2020-11-29T12:13:21Z</time>
      </trkpt>
      <trkpt lat="43.5872" lon="1.14875">
        <ele>296.3</ele>
        <time>2020-11-29T12:13:22Z</time>
      </trkpt>
      <trkpt lat="43.5872" lon="1.14876">
        <ele>296.3</ele>
        <time>2020-11-29T12:13:23Z</time>
      </trkpt>
      <trkpt lat="43.58718" lon="1.1488">
        <ele>296.2</ele>
        <time>2020-11-29T12:13:24Z</time>
      </trkpt>
      <trkpt lat="43.58717" lon="1.14882">
        <ele>296.2</ele>
        <time>2020-11-29T12:13:25Z</time>
      </trkpt>
      <trkpt lat="43.58716" lon="1.14887">
        <ele>296.1</ele>
        <time>2020-11-29T12:13:26Z</time>
      </trkpt>
      <trkpt lat="43.58715" lon="1.14889">
        <ele>296.1</ele>
        <time>2020-11-29T12:13:27Z</time>
      </trkpt>
      <trkpt lat="43.58714" lon="1.14893">
        <ele>296</ele>
        <time>2020-11-29T12:13:28Z</time>
      </trkpt>
      <trkpt lat="43.58711" lon="1.14898">
        <ele>295.8</ele>
        <time>2020-11-29T12:13:29Z</time>
      </trkpt>
      <trkpt lat="43.5871" lon="1.149">
        <ele>295.8</ele>
        <time>2020-11-29T12:13:30Z</time>
      </trkpt>
      <trkpt lat="43.58709" lon="1.14905">
        <ele>295.7</ele>
        <time>2020-11-29T12:13:31Z</time>
      </trkpt>
      <trkpt lat="43.58707" lon="1.14912">
        <ele>295.5</ele>
        <time>2020-11-29T12:13:32Z</time>
      </trkpt>
      <trkpt lat="43.58705" lon="1.14918">
        <ele>295.3</ele>
        <time>2020-11-29T12:13:33Z</time>
      </trkpt>
      <trkpt lat="43.58703" lon="1.14924">
        <ele>295.2</ele>
        <time>2020-11-29T12:13:34Z</time>
      </trkpt>
      <trkpt lat="43.58702" lon="1.14928">
        <ele>295.1</ele>
        <time>2020-11-29T12:13:35Z</time>
      </trkpt>
      <trkpt lat="43.58701" lon="1.14933">
        <ele>295</ele>
        <time>2020-11-29T12:13:36Z</time>
      </trkpt>
      <trkpt lat="43.587" lon="1.14938">
        <ele>294.9</ele>
        <time>2020-11-29T12:13:37Z</time>
      </trkpt>
      <trkpt lat="43.58699" lon="1.14943">
        <ele>294.8</ele>
        <time>2020-11-29T12:13:38Z</time>
      </trkpt>
      <trkpt lat="43.58697" lon="1.14949">
        <ele>294.6</ele>
        <time>2020-11-29T12:13:39Z</time>
      </trkpt>
      <trkpt lat="43.58696" lon="1.14955">
        <ele>294.5</ele>
        <time>2020-11-29T12:13:40Z</time>
      </trkpt>
      <trkpt lat="43.58694" lon="1.1496">
        <ele>294.3</ele>
        <time>2020-11-29T12:13:41Z</time>
      </trkpt>
      <trkpt lat="43.58693" lon="1.14966">
        <ele>294.2</ele>
        <time>2020-11-29T12:13:42Z</time>
      </trkpt>
      <trkpt lat="43.58692" lon="1.14975">
        <ele>294</ele>
        <time>2020-11-29T12:13:43Z</time>
      </trkpt>
      <trkpt lat="43.58691" lon="1.14981">
        <ele>293.8</ele>
        <time>2020-11-29T12:13:44Z</time>
      </trkpt>
      <trkpt lat="43.58691" lon="1.14985">
        <ele>293.7</ele>
        <time>2020-11-29T12:13:45Z</time>
      </trkpt>
      <trkpt lat="43.5869" lon="1.14991">
        <ele>293.5</ele>
        <time>2020-11-29T12:13:46Z</time>
      </trkpt>
      <trkpt lat="43.58689" lon="1.14996">
        <ele>293.4</ele>
        <time>2020-11-29T12:13:48Z</time>
      </trkpt>
      <trkpt lat="43.58687" lon="1.15002">
        <ele>293.2</ele>
        <time>2020-11-29T12:13:49Z</time>
      </trkpt>
      <trkpt lat="43.58685" lon="1.1501">
        <ele>293</ele>
        <time>2020-11-29T12:13:50Z</time>
      </trkpt>
      <trkpt lat="43.58684" lon="1.15016">
        <ele>292.8</ele>
        <time>2020-11-29T12:13:51Z</time>
      </trkpt>
      <trkpt lat="43.58683" lon="1.15023">
        <ele>292.6</ele>
        <time>2020-11-29T12:13:52Z</time>
      </trkpt>
      <trkpt lat="43.58682" lon="1.15029">
        <ele>292.5</ele>
        <time>2020-11-29T12:13:53Z</time>
      </trkpt>
      <trkpt lat="43.58681" lon="1.15037">
        <ele>292.2</ele>
        <time>2020-11-29T12:13:54Z</time>
      </trkpt>
      <trkpt lat="43.58679" lon="1.15049">
        <ele>291.8</ele>
        <time>2020-11-29T12:13:55Z</time>
      </trkpt>
      <trkpt lat="43.58678" lon="1.15057">
        <ele>291.6</ele>
        <time>2020-11-29T12:13:56Z</time>
      </trkpt>
      <trkpt lat="43.58676" lon="1.15065">
        <ele>291.3</ele>
        <time>2020-11-29T12:13:57Z</time>
      </trkpt>
      <trkpt lat="43.58675" lon="1.15074">
        <ele>291</ele>
        <time>2020-11-29T12:13:58Z</time>
      </trkpt>
      <trkpt lat="43.58674" lon="1.15083">
        <ele>290.6</ele>
        <time>2020-11-29T12:13:59Z</time>
      </trkpt>
      <trkpt lat="43.58672" lon="1.1509">
        <ele>290.4</ele>
        <time>2020-11-29T12:14:00Z</time>
      </trkpt>
      <trkpt lat="43.58671" lon="1.15098">
        <ele>290</ele>
        <time>2020-11-29T12:14:01Z</time>
      </trkpt>
      <trkpt lat="43.58671" lon="1.15108">
        <ele>289.5</ele>
        <time>2020-11-29T12:14:02Z</time>
      </trkpt>
      <trkpt lat="43.58669" lon="1.15114">
        <ele>289</ele>
        <time>2020-11-29T12:14:03Z</time>
      </trkpt>
      <trkpt lat="43.58669" lon="1.15124">
        <ele>288.3</ele>
        <time>2020-11-29T12:14:04Z</time>
      </trkpt>
      <trkpt lat="43.58669" lon="1.15134">
        <ele>287.4</ele>
        <time>2020-11-29T12:14:05Z</time>
      </trkpt>
      <trkpt lat="43.58669" lon="1.15143">
        <ele>286.5</ele>
        <time>2020-11-29T12:14:06Z</time>
      </trkpt>
      <trkpt lat="43.5867" lon="1.15151">
        <ele>285.7</ele>
        <time>2020-11-29T12:14:07Z</time>
      </trkpt>
      <trkpt lat="43.5867" lon="1.15157">
        <ele>285.1</ele>
        <time>2020-11-29T12:14:08Z</time>
      </trkpt>
      <trkpt lat="43.58671" lon="1.15162">
        <ele>284.5</ele>
        <time>2020-11-29T12:14:09Z</time>
      </trkpt>
      <trkpt lat="43.58671" lon="1.15167">
        <ele>283.9</ele>
        <time>2020-11-29T12:14:10Z</time>
      </trkpt>
      <trkpt lat="43.58671" lon="1.15172">
        <ele>283.4</ele>
        <time>2020-11-29T12:14:11Z</time>
      </trkpt>
      <trkpt lat="43.58671" lon="1.15173">
        <ele>283.2</ele>
        <time>2020-11-29T12:14:12Z</time>
      </trkpt>
      <trkpt lat="43.58672" lon="1.15178">
        <ele>282.7</ele>
        <time>2020-11-29T12:14:13Z</time>
      </trkpt>
      <trkpt lat="43.58672" lon="1.15179">
        <ele>282.6</ele>
        <time>2020-11-29T12:14:14Z</time>
      </trkpt>
      <trkpt lat="43.58673" lon="1.15186">
        <ele>281.8</ele>
        <time>2020-11-29T12:14:15Z</time>
      </trkpt>
      <trkpt lat="43.58674" lon="1.15192">
        <ele>281.2</ele>
        <time>2020-11-29T12:14:16Z</time>
      </trkpt>
      <trkpt lat="43.58675" lon="1.15197">
        <ele>280.6</ele>
        <time>2020-11-29T12:14:17Z</time>
      </trkpt>
      <trkpt lat="43.58675" lon="1.15201">
        <ele>280.2</ele>
        <time>2020-11-29T12:14:18Z</time>
      </trkpt>
      <trkpt lat="43.58675" lon="1.15208">
        <ele>279.6</ele>
        <time>2020-11-29T12:14:19Z</time>
      </trkpt>
      <trkpt lat="43.58674" lon="1.15214">
        <ele>278.9</ele>
        <time>2020-11-29T12:14:20Z</time>
      </trkpt>
      <trkpt lat="43.58674" lon="1.15222">
        <ele>278.1</ele>
        <time>2020-11-29T12:14:21Z</time>
      </trkpt>
      <trkpt lat="43.58674" lon="1.15232">
        <ele>277.1</ele>
        <time>2020-11-29T12:14:22Z</time>
      </trkpt>
      <trkpt lat="43.58674" lon="1.1524">
        <ele>276.3</ele>
        <time>2020-11-29T12:14:23Z</time>
      </trkpt>
      <trkpt lat="43.58675" lon="1.15249">
        <ele>275.6</ele>
        <time>2020-11-29T12:14:24Z</time>
      </trkpt>
      <trkpt lat="43.58675" lon="1.15256">
        <ele>274.9</ele>
        <time>2020-11-29T12:14:25Z</time>
      </trkpt>
      <trkpt lat="43.58675" lon="1.15262">
        <ele>274.5</ele>
        <time>2020-11-29T12:14:26Z</time>
      </trkpt>
      <trkpt lat="43.58676" lon="1.1527">
        <ele>273.9</ele>
        <time>2020-11-29T12:14:27Z</time>
      </trkpt>
      <trkpt lat="43.58676" lon="1.15279">
        <ele>273.2</ele>
        <time>2020-11-29T12:14:28Z</time>
      </trkpt>
      <trkpt lat="43.58676" lon="1.15287">
        <ele>272.6</ele>
        <time>2020-11-29T12:14:29Z</time>
      </trkpt>
      <trkpt lat="43.58677" lon="1.15295">
        <ele>272.1</ele>
        <time>2020-11-29T12:14:30Z</time>
      </trkpt>
      <trkpt lat="43.58676" lon="1.15306">
        <ele>271.2</ele>
        <time>2020-11-29T12:14:31Z</time>
      </trkpt>
      <trkpt lat="43.58678" lon="1.15312">
        <ele>270.7</ele>
        <time>2020-11-29T12:14:32Z</time>
      </trkpt>
      <trkpt lat="43.58679" lon="1.1532">
        <ele>270</ele>
        <time>2020-11-29T12:14:33Z</time>
      </trkpt>
      <trkpt lat="43.5868" lon="1.15324">
        <ele>269.7</ele>
        <time>2020-11-29T12:14:34Z</time>
      </trkpt>
      <trkpt lat="43.5868" lon="1.15328">
        <ele>269.3</ele>
        <time>2020-11-29T12:14:35Z</time>
      </trkpt>
      <trkpt lat="43.5868" lon="1.15333">
        <ele>268.9</ele>
        <time>2020-11-29T12:14:36Z</time>
      </trkpt>
      <trkpt lat="43.58679" lon="1.15334">
        <ele>268.7</ele>
        <time>2020-11-29T12:14:37Z</time>
      </trkpt>
      <trkpt lat="43.58678" lon="1.15334">
        <ele>268.6</ele>
        <time>2020-11-29T12:14:38Z</time>
      </trkpt>
      <trkpt lat="43.58678" lon="1.15335">
        <ele>268.5</ele>
        <time>2020-11-29T12:14:39Z</time>
      </trkpt>
      <trkpt lat="43.58678" lon="1.15337">
        <ele>268.3</ele>
        <time>2020-11-29T12:14:40Z</time>
      </trkpt>
      <trkpt lat="43.58679" lon="1.15339">
        <ele>268.1</ele>
        <time>2020-11-29T12:14:41Z</time>
      </trkpt>
      <trkpt lat="43.58677" lon="1.15341">
        <ele>265.2</ele>
        <time>2020-11-29T12:14:42Z</time>
      </trkpt>
      <trkpt lat="43.58673" lon="1.15344">
        <ele>264.7</ele>
        <time>2020-11-29T12:14:43Z</time>
      </trkpt>
      <trkpt lat="43.58669" lon="1.15346">
        <ele>264.1</ele>
        <time>2020-11-29T12:14:44Z</time>
      </trkpt>
      <trkpt lat="43.58663" lon="1.15349">
        <ele>263.5</ele>
        <time>2020-11-29T12:14:45Z</time>
      </trkpt>
      <trkpt lat="43.58656" lon="1.15351">
        <ele>262.8</ele>
        <time>2020-11-29T12:14:46Z</time>
      </trkpt>
      <trkpt lat="43.5865" lon="1.15354">
        <ele>262.1</ele>
        <time>2020-11-29T12:14:47Z</time>
      </trkpt>
      <trkpt lat="43.58643" lon="1.15358">
        <ele>261.4</ele>
        <time>2020-11-29T12:14:48Z</time>
      </trkpt>
      <trkpt lat="43.58638" lon="1.15359">
        <ele>260.9</ele>
        <time>2020-11-29T12:14:49Z</time>
      </trkpt>
      <trkpt lat="43.58632" lon="1.15361">
        <ele>260.4</ele>
        <time>2020-11-29T12:14:50Z</time>
      </trkpt>
      <trkpt lat="43.58625" lon="1.15362">
        <ele>259.9</ele>
        <time>2020-11-29T12:14:51Z</time>
      </trkpt>
      <trkpt lat="43.58621" lon="1.15362">
        <ele>259.7</ele>
        <time>2020-11-29T12:14:52Z</time>
      </trkpt>
      <trkpt lat="43.58614" lon="1.15357">
        <ele>259.4</ele>
        <time>2020-11-29T12:14:53Z</time>
      </trkpt>
      <trkpt lat="43.5861" lon="1.15353">
        <ele>259.3</ele>
        <time>2020-11-29T12:14:54Z</time>
      </trkpt>
      <trkpt lat="43.58607" lon="1.15346">
        <ele>259.3</ele>
        <time>2020-11-29T12:14:55Z</time>
      </trkpt>
      <trkpt lat="43.58604" lon="1.15338">
        <ele>259.3</ele>
        <time>2020-11-29T12:14:56Z</time>
      </trkpt>
      <trkpt lat="43.58601" lon="1.15329">
        <ele>259.4</ele>
        <time>2020-11-29T12:14:57Z</time>
      </trkpt>
      <trkpt lat="43.58599" lon="1.15322">
        <ele>259.5</ele>
        <time>2020-11-29T12:14:58Z</time>
      </trkpt>
      <trkpt lat="43.58598" lon="1.15315">
        <ele>259.6</ele>
        <time>2020-11-29T12:14:59Z</time>
      </trkpt>
      <trkpt lat="43.58597" lon="1.15311">
        <ele>259.7</ele>
        <time>2020-11-29T12:15:00Z</time>
      </trkpt>
      <trkpt lat="43.58596" lon="1.15307">
        <ele>259.8</ele>
        <time>2020-11-29T12:15:01Z</time>
      </trkpt>
      <trkpt lat="43.58595" lon="1.15302">
        <ele>259.9</ele>
        <time>2020-11-29T12:15:02Z</time>
      </trkpt>
      <trkpt lat="43.58594" lon="1.15297">
        <ele>260</ele>
        <time>2020-11-29T12:15:03Z</time>
      </trkpt>
      <trkpt lat="43.58593" lon="1.15292">
        <ele>260.1</ele>
        <time>2020-11-29T12:15:04Z</time>
      </trkpt>
      <trkpt lat="43.58591" lon="1.15284">
        <ele>260.3</ele>
        <time>2020-11-29T12:15:05Z</time>
      </trkpt>
      <trkpt lat="43.58591" lon="1.1528">
        <ele>260.4</ele>
        <time>2020-11-29T12:15:06Z</time>
      </trkpt>
      <trkpt lat="43.58589" lon="1.15276">
        <ele>260.4</ele>
        <time>2020-11-29T12:15:07Z</time>
      </trkpt>
      <trkpt lat="43.58588" lon="1.15268">
        <ele>260.6</ele>
        <time>2020-11-29T12:15:08Z</time>
      </trkpt>
      <trkpt lat="43.58587" lon="1.15261">
        <ele>260.7</ele>
        <time>2020-11-29T12:15:09Z</time>
      </trkpt>
      <trkpt lat="43.58586" lon="1.15255">
        <ele>260.8</ele>
        <time>2020-11-29T12:15:10Z</time>
      </trkpt>
      <trkpt lat="43.58585" lon="1.15249">
        <ele>260.8</ele>
        <time>2020-11-29T12:15:11Z</time>
      </trkpt>
      <trkpt lat="43.58585" lon="1.15247">
        <ele>260.9</ele>
        <time>2020-11-29T12:15:12Z</time>
      </trkpt>
      <trkpt lat="43.58583" lon="1.15239">
        <ele>261</ele>
        <time>2020-11-29T12:15:13Z</time>
      </trkpt>
      <trkpt lat="43.58582" lon="1.1523">
        <ele>261.1</ele>
        <time>2020-11-29T12:15:14Z</time>
      </trkpt>
      <trkpt lat="43.58581" lon="1.15223">
        <ele>261.2</ele>
        <time>2020-11-29T12:15:15Z</time>
      </trkpt>
      <trkpt lat="43.58579" lon="1.15216">
        <ele>261.3</ele>
        <time>2020-11-29T12:15:16Z</time>
      </trkpt>
      <trkpt lat="43.58578" lon="1.15208">
        <ele>261.4</ele>
        <time>2020-11-29T12:15:17Z</time>
      </trkpt>
      <trkpt lat="43.58577" lon="1.15199">
        <ele>261.5</ele>
        <time>2020-11-29T12:15:18Z</time>
      </trkpt>
      <trkpt lat="43.58575" lon="1.15191">
        <ele>261.7</ele>
        <time>2020-11-29T12:15:19Z</time>
      </trkpt>
      <trkpt lat="43.58573" lon="1.15184">
        <ele>261.8</ele>
        <time>2020-11-29T12:15:20Z</time>
      </trkpt>
      <trkpt lat="43.58569" lon="1.15177">
        <ele>261.9</ele>
        <time>2020-11-29T12:15:21Z</time>
      </trkpt>
      <trkpt lat="43.58564" lon="1.15174">
        <ele>262</ele>
        <time>2020-11-29T12:15:22Z</time>
      </trkpt>
      <trkpt lat="43.5856" lon="1.15174">
        <ele>262.4</ele>
        <time>2020-11-29T12:15:23Z</time>
      </trkpt>
      <trkpt lat="43.58551" lon="1.15177">
        <ele>262.4</ele>
        <time>2020-11-29T12:15:24Z</time>
      </trkpt>
      <trkpt lat="43.58547" lon="1.1518">
        <ele>262.5</ele>
        <time>2020-11-29T12:15:26Z</time>
      </trkpt>
      <trkpt lat="43.58542" lon="1.15182">
        <ele>262.5</ele>
        <time>2020-11-29T12:15:27Z</time>
      </trkpt>
      <trkpt lat="43.58539" lon="1.15185">
        <ele>262.5</ele>
        <time>2020-11-29T12:15:28Z</time>
      </trkpt>
      <trkpt lat="43.58535" lon="1.15189">
        <ele>262.5</ele>
        <time>2020-11-29T12:15:29Z</time>
      </trkpt>
      <trkpt lat="43.58531" lon="1.1519">
        <ele>262.6</ele>
        <time>2020-11-29T12:15:30Z</time>
      </trkpt>
      <trkpt lat="43.58528" lon="1.15193">
        <ele>262.7</ele>
        <time>2020-11-29T12:15:31Z</time>
      </trkpt>
      <trkpt lat="43.58525" lon="1.15193">
        <ele>262.8</ele>
        <time>2020-11-29T12:15:32Z</time>
      </trkpt>
      <trkpt lat="43.58525" lon="1.15196">
        <ele>262.9</ele>
        <time>2020-11-29T12:15:33Z</time>
      </trkpt>
      <trkpt lat="43.58524" lon="1.152">
        <ele>263</ele>
        <time>2020-11-29T12:15:34Z</time>
      </trkpt>
      <trkpt lat="43.58525" lon="1.15206">
        <ele>263.2</ele>
        <time>2020-11-29T12:15:35Z</time>
      </trkpt>
      <trkpt lat="43.58525" lon="1.15211">
        <ele>263.3</ele>
        <time>2020-11-29T12:15:36Z</time>
      </trkpt>
      <trkpt lat="43.58526" lon="1.15217">
        <ele>263.5</ele>
        <time>2020-11-29T12:15:37Z</time>
      </trkpt>
      <trkpt lat="43.58527" lon="1.15222">
        <ele>263.7</ele>
        <time>2020-11-29T12:15:38Z</time>
      </trkpt>
      <trkpt lat="43.58528" lon="1.15227">
        <ele>263.9</ele>
        <time>2020-11-29T12:15:39Z</time>
      </trkpt>
      <trkpt lat="43.5853" lon="1.15232">
        <ele>264.1</ele>
        <time>2020-11-29T12:15:40Z</time>
      </trkpt>
      <trkpt lat="43.58531" lon="1.1524">
        <ele>264.4</ele>
        <time>2020-11-29T12:15:41Z</time>
      </trkpt>
      <trkpt lat="43.58533" lon="1.15245">
        <ele>264.6</ele>
        <time>2020-11-29T12:15:42Z</time>
      </trkpt>
      <trkpt lat="43.58534" lon="1.15248">
        <ele>264.7</ele>
        <time>2020-11-29T12:15:43Z</time>
      </trkpt>
      <trkpt lat="43.58535" lon="1.15255">
        <ele>265</ele>
        <time>2020-11-29T12:15:44Z</time>
      </trkpt>
      <trkpt lat="43.58537" lon="1.1526">
        <ele>265.2</ele>
        <time>2020-11-29T12:15:45Z</time>
      </trkpt>
      <trkpt lat="43.58537" lon="1.15268">
        <ele>265.6</ele>
        <time>2020-11-29T12:15:46Z</time>
      </trkpt>
      <trkpt lat="43.58536" lon="1.15273">
        <ele>265.9</ele>
        <time>2020-11-29T12:15:47Z</time>
      </trkpt>
      <trkpt lat="43.58536" lon="1.15278">
        <ele>266.1</ele>
        <time>2020-11-29T12:15:48Z</time>
      </trkpt>
      <trkpt lat="43.58535" lon="1.15285">
        <ele>266.6</ele>
        <time>2020-11-29T12:15:49Z</time>
      </trkpt>
      <trkpt lat="43.58534" lon="1.15289">
        <ele>266.8</ele>
        <time>2020-11-29T12:15:50Z</time>
      </trkpt>
      <trkpt lat="43.58531" lon="1.15295">
        <ele>267.4</ele>
        <time>2020-11-29T12:15:51Z</time>
      </trkpt>
      <trkpt lat="43.58528" lon="1.15299">
        <ele>267.8</ele>
        <time>2020-11-29T12:15:52Z</time>
      </trkpt>
      <trkpt lat="43.58525" lon="1.15301">
        <ele>268.1</ele>
        <time>2020-11-29T12:15:53Z</time>
      </trkpt>
      <trkpt lat="43.58522" lon="1.15302">
        <ele>268.5</ele>
        <time>2020-11-29T12:15:54Z</time>
      </trkpt>
      <trkpt lat="43.58521" lon="1.15302">
        <ele>268.7</ele>
        <time>2020-11-29T12:15:55Z</time>
      </trkpt>
      <trkpt lat="43.58517" lon="1.15301">
        <ele>269.2</ele>
        <time>2020-11-29T12:15:56Z</time>
      </trkpt>
      <trkpt lat="43.58515" lon="1.153">
        <ele>269.4</ele>
        <time>2020-11-29T12:15:57Z</time>
      </trkpt>
      <trkpt lat="43.58512" lon="1.15298">
        <ele>269.9</ele>
        <time>2020-11-29T12:15:58Z</time>
      </trkpt>
      <trkpt lat="43.5851" lon="1.15296">
        <ele>270.3</ele>
        <time>2020-11-29T12:15:59Z</time>
      </trkpt>
      <trkpt lat="43.58506" lon="1.15293">
        <ele>270.9</ele>
        <time>2020-11-29T12:16:00Z</time>
      </trkpt>
      <trkpt lat="43.58504" lon="1.1529">
        <ele>271.4</ele>
        <time>2020-11-29T12:16:01Z</time>
      </trkpt>
      <trkpt lat="43.58502" lon="1.15287">
        <ele>271.7</ele>
        <time>2020-11-29T12:16:02Z</time>
      </trkpt>
      <trkpt lat="43.58499" lon="1.15284">
        <ele>272.2</ele>
        <time>2020-11-29T12:16:03Z</time>
      </trkpt>
      <trkpt lat="43.58499" lon="1.15284">
        <ele>272.2</ele>
        <time>2020-11-29T12:16:04Z</time>
      </trkpt>
      <trkpt lat="43.58497" lon="1.1528">
        <ele>272.6</ele>
        <time>2020-11-29T12:16:05Z</time>
      </trkpt>
      <trkpt lat="43.58496" lon="1.15278">
        <ele>272.8</ele>
        <time>2020-11-29T12:16:06Z</time>
      </trkpt>
      <trkpt lat="43.58493" lon="1.15274">
        <ele>273.2</ele>
        <time>2020-11-29T12:16:07Z</time>
      </trkpt>
      <trkpt lat="43.58492" lon="1.15273">
        <ele>273.3</ele>
        <time>2020-11-29T12:16:08Z</time>
      </trkpt>
      <trkpt lat="43.5849" lon="1.15271">
        <ele>273.6</ele>
        <time>2020-11-29T12:16:09Z</time>
      </trkpt>
      <trkpt lat="43.58488" lon="1.15268">
        <ele>273.9</ele>
        <time>2020-11-29T12:16:10Z</time>
      </trkpt>
      <trkpt lat="43.58485" lon="1.15264">
        <ele>274.3</ele>
        <time>2020-11-29T12:16:11Z</time>
      </trkpt>
      <trkpt lat="43.58483" lon="1.1526">
        <ele>274.6</ele>
        <time>2020-11-29T12:16:12Z</time>
      </trkpt>
      <trkpt lat="43.5848" lon="1.15256">
        <ele>274.9</ele>
        <time>2020-11-29T12:16:13Z</time>
      </trkpt>
      <trkpt lat="43.58478" lon="1.15251">
        <ele>275.3</ele>
        <time>2020-11-29T12:16:14Z</time>
      </trkpt>
      <trkpt lat="43.58476" lon="1.15247">
        <ele>275.6</ele>
        <time>2020-11-29T12:16:15Z</time>
      </trkpt>
      <trkpt lat="43.58474" lon="1.15243">
        <ele>275.9</ele>
        <time>2020-11-29T12:16:16Z</time>
      </trkpt>
      <trkpt lat="43.58473" lon="1.15241">
        <ele>276</ele>
        <time>2020-11-29T12:16:17Z</time>
      </trkpt>
      <trkpt lat="43.58471" lon="1.15238">
        <ele>276.3</ele>
        <time>2020-11-29T12:16:18Z</time>
      </trkpt>
      <trkpt lat="43.58469" lon="1.15235">
        <ele>276.6</ele>
        <time>2020-11-29T12:16:19Z</time>
      </trkpt>
      <trkpt lat="43.58468" lon="1.15234">
        <ele>276.7</ele>
        <time>2020-11-29T12:16:20Z</time>
      </trkpt>
      <trkpt lat="43.58466" lon="1.15231">
        <ele>276.9</ele>
        <time>2020-11-29T12:16:21Z</time>
      </trkpt>
      <trkpt lat="43.58465" lon="1.15231">
        <ele>277</ele>
        <time>2020-11-29T12:16:22Z</time>
      </trkpt>
      <trkpt lat="43.58463" lon="1.15228">
        <ele>277.2</ele>
        <time>2020-11-29T12:16:23Z</time>
      </trkpt>
      <trkpt lat="43.58461" lon="1.15226">
        <ele>277.5</ele>
        <time>2020-11-29T12:16:24Z</time>
      </trkpt>
      <trkpt lat="43.5846" lon="1.15222">
        <ele>277.7</ele>
        <time>2020-11-29T12:16:25Z</time>
      </trkpt>
      <trkpt lat="43.58459" lon="1.15221">
        <ele>277.8</ele>
        <time>2020-11-29T12:16:26Z</time>
      </trkpt>
      <trkpt lat="43.58459" lon="1.1522">
        <ele>277.8</ele>
        <time>2020-11-29T12:16:27Z</time>
      </trkpt>
      <trkpt lat="43.58458" lon="1.15217">
        <ele>278.1</ele>
        <time>2020-11-29T12:16:28Z</time>
      </trkpt>
      <trkpt lat="43.58458" lon="1.15216">
        <ele>278.1</ele>
        <time>2020-11-29T12:16:29Z</time>
      </trkpt>
      <trkpt lat="43.58457" lon="1.15216">
        <ele>278.2</ele>
        <time>2020-11-29T12:16:30Z</time>
      </trkpt>
      <trkpt lat="43.58455" lon="1.15214">
        <ele>278.4</ele>
        <time>2020-11-29T12:16:31Z</time>
      </trkpt>
      <trkpt lat="43.58454" lon="1.15213">
        <ele>278.5</ele>
        <time>2020-11-29T12:16:32Z</time>
      </trkpt>
      <trkpt lat="43.58452" lon="1.15211">
        <ele>278.7</ele>
        <time>2020-11-29T12:16:33Z</time>
      </trkpt>
      <trkpt lat="43.58451" lon="1.15209">
        <ele>278.8</ele>
        <time>2020-11-29T12:16:34Z</time>
      </trkpt>
      <trkpt lat="43.58449" lon="1.15206">
        <ele>279.1</ele>
        <time>2020-11-29T12:16:35Z</time>
      </trkpt>
      <trkpt lat="43.58448" lon="1.15204">
        <ele>279.2</ele>
        <time>2020-11-29T12:16:36Z</time>
      </trkpt>
      <trkpt lat="43.58447" lon="1.15201">
        <ele>279.4</ele>
        <time>2020-11-29T12:16:37Z</time>
      </trkpt>
      <trkpt lat="43.58445" lon="1.15198">
        <ele>279.6</ele>
        <time>2020-11-29T12:16:38Z</time>
      </trkpt>
      <trkpt lat="43.58444" lon="1.15197">
        <ele>279.7</ele>
        <time>2020-11-29T12:16:39Z</time>
      </trkpt>
      <trkpt lat="43.58442" lon="1.15194">
        <ele>279.9</ele>
        <time>2020-11-29T12:16:40Z</time>
      </trkpt>
      <trkpt lat="43.58439" lon="1.15193">
        <ele>280.1</ele>
        <time>2020-11-29T12:16:41Z</time>
      </trkpt>
      <trkpt lat="43.58438" lon="1.15188">
        <ele>280.3</ele>
        <time>2020-11-29T12:16:42Z</time>
      </trkpt>
      <trkpt lat="43.58437" lon="1.15186">
        <ele>280.4</ele>
        <time>2020-11-29T12:16:43Z</time>
      </trkpt>
      <trkpt lat="43.58436" lon="1.15183">
        <ele>280.6</ele>
        <time>2020-11-29T12:16:44Z</time>
      </trkpt>
      <trkpt lat="43.58436" lon="1.15181">
        <ele>280.7</ele>
        <time>2020-11-29T12:16:45Z</time>
      </trkpt>
      <trkpt lat="43.58434" lon="1.15178">
        <ele>281</ele>
        <time>2020-11-29T12:16:46Z</time>
      </trkpt>
      <trkpt lat="43.58433" lon="1.15173">
        <ele>281.2</ele>
        <time>2020-11-29T12:16:47Z</time>
      </trkpt>
      <trkpt lat="43.58432" lon="1.15171">
        <ele>281.3</ele>
        <time>2020-11-29T12:16:48Z</time>
      </trkpt>
      <trkpt lat="43.58432" lon="1.15168">
        <ele>281.5</ele>
        <time>2020-11-29T12:16:49Z</time>
      </trkpt>
      <trkpt lat="43.58431" lon="1.15166">
        <ele>281.6</ele>
        <time>2020-11-29T12:16:50Z</time>
      </trkpt>
      <trkpt lat="43.58429" lon="1.15162">
        <ele>281.9</ele>
        <time>2020-11-29T12:16:51Z</time>
      </trkpt>
      <trkpt lat="43.58429" lon="1.1516">
        <ele>282</ele>
        <time>2020-11-29T12:16:52Z</time>
      </trkpt>
      <trkpt lat="43.58427" lon="1.15156">
        <ele>282.2</ele>
        <time>2020-11-29T12:16:53Z</time>
      </trkpt>
      <trkpt lat="43.58426" lon="1.15155">
        <ele>282.3</ele>
        <time>2020-11-29T12:16:54Z</time>
      </trkpt>
      <trkpt lat="43.58423" lon="1.15152">
        <ele>282.7</ele>
        <time>2020-11-29T12:16:55Z</time>
      </trkpt>
      <trkpt lat="43.58422" lon="1.15152">
        <ele>282.8</ele>
        <time>2020-11-29T12:16:56Z</time>
      </trkpt>
      <trkpt lat="43.58419" lon="1.1515">
        <ele>283</ele>
        <time>2020-11-29T12:16:57Z</time>
      </trkpt>
      <trkpt lat="43.58416" lon="1.15147">
        <ele>283.4</ele>
        <time>2020-11-29T12:16:58Z</time>
      </trkpt>
      <trkpt lat="43.58414" lon="1.15144">
        <ele>283.7</ele>
        <time>2020-11-29T12:16:59Z</time>
      </trkpt>
      <trkpt lat="43.58411" lon="1.1514">
        <ele>284.1</ele>
        <time>2020-11-29T12:17:00Z</time>
      </trkpt>
      <trkpt lat="43.58409" lon="1.15138">
        <ele>284.3</ele>
        <time>2020-11-29T12:17:01Z</time>
      </trkpt>
      <trkpt lat="43.58406" lon="1.15134">
        <ele>284.8</ele>
        <time>2020-11-29T12:17:02Z</time>
      </trkpt>
      <trkpt lat="43.58405" lon="1.15129">
        <ele>285.1</ele>
        <time>2020-11-29T12:17:03Z</time>
      </trkpt>
      <trkpt lat="43.58405" lon="1.15128">
        <ele>285.2</ele>
        <time>2020-11-29T12:17:04Z</time>
      </trkpt>
      <trkpt lat="43.58404" lon="1.15127">
        <ele>285.4</ele>
        <time>2020-11-29T12:17:05Z</time>
      </trkpt>
      <trkpt lat="43.58403" lon="1.15124">
        <ele>285.7</ele>
        <time>2020-11-29T12:17:06Z</time>
      </trkpt>
      <trkpt lat="43.58403" lon="1.1512">
        <ele>286</ele>
        <time>2020-11-29T12:17:07Z</time>
      </trkpt>
      <trkpt lat="43.58401" lon="1.15116">
        <ele>286.4</ele>
        <time>2020-11-29T12:17:08Z</time>
      </trkpt>
      <trkpt lat="43.584" lon="1.15115">
        <ele>286.5</ele>
        <time>2020-11-29T12:17:09Z</time>
      </trkpt>
      <trkpt lat="43.58398" lon="1.15113">
        <ele>286.9</ele>
        <time>2020-11-29T12:17:10Z</time>
      </trkpt>
      <trkpt lat="43.58397" lon="1.15112">
        <ele>287.1</ele>
        <time>2020-11-29T12:17:11Z</time>
      </trkpt>
      <trkpt lat="43.58393" lon="1.1511">
        <ele>287.6</ele>
        <time>2020-11-29T12:17:12Z</time>
      </trkpt>
      <trkpt lat="43.58392" lon="1.15109">
        <ele>287.8</ele>
        <time>2020-11-29T12:17:13Z</time>
      </trkpt>
      <trkpt lat="43.58389" lon="1.15108">
        <ele>288.3</ele>
        <time>2020-11-29T12:17:14Z</time>
      </trkpt>
      <trkpt lat="43.58386" lon="1.15108">
        <ele>288.7</ele>
        <time>2020-11-29T12:17:15Z</time>
      </trkpt>
      <trkpt lat="43.58384" lon="1.15108">
        <ele>288.9</ele>
        <time>2020-11-29T12:17:16Z</time>
      </trkpt>
      <trkpt lat="43.58381" lon="1.15107">
        <ele>289.3</ele>
        <time>2020-11-29T12:17:17Z</time>
      </trkpt>
      <trkpt lat="43.58378" lon="1.15106">
        <ele>289.8</ele>
        <time>2020-11-29T12:17:18Z</time>
      </trkpt>
      <trkpt lat="43.58376" lon="1.15105">
        <ele>289.9</ele>
        <time>2020-11-29T12:17:19Z</time>
      </trkpt>
      <trkpt lat="43.58373" lon="1.15104">
        <ele>290.2</ele>
        <time>2020-11-29T12:17:20Z</time>
      </trkpt>
      <trkpt lat="43.5837" lon="1.15103">
        <ele>290.6</ele>
        <time>2020-11-29T12:17:21Z</time>
      </trkpt>
      <trkpt lat="43.58368" lon="1.15102">
        <ele>290.7</ele>
        <time>2020-11-29T12:17:22Z</time>
      </trkpt>
      <trkpt lat="43.58364" lon="1.15101">
        <ele>290.8</ele>
        <time>2020-11-29T12:17:23Z</time>
      </trkpt>
      <trkpt lat="43.58362" lon="1.15101">
        <ele>290.9</ele>
        <time>2020-11-29T12:17:24Z</time>
      </trkpt>
      <trkpt lat="43.58359" lon="1.15101">
        <ele>291</ele>
        <time>2020-11-29T12:17:25Z</time>
      </trkpt>
      <trkpt lat="43.58356" lon="1.15102">
        <ele>291</ele>
        <time>2020-11-29T12:17:26Z</time>
      </trkpt>
      <trkpt lat="43.58351" lon="1.151">
        <ele>291</ele>
        <time>2020-11-29T12:17:27Z</time>
      </trkpt>
      <trkpt lat="43.58346" lon="1.15098">
        <ele>291.1</ele>
        <time>2020-11-29T12:17:28Z</time>
      </trkpt>
      <trkpt lat="43.58344" lon="1.15096">
        <ele>291.1</ele>
        <time>2020-11-29T12:17:29Z</time>
      </trkpt>
      <trkpt lat="43.5834" lon="1.15095">
        <ele>291.1</ele>
        <time>2020-11-29T12:17:30Z</time>
      </trkpt>
      <trkpt lat="43.58339" lon="1.15094">
        <ele>291.1</ele>
        <time>2020-11-29T12:17:31Z</time>
      </trkpt>
      <trkpt lat="43.58336" lon="1.15093">
        <ele>291.1</ele>
        <time>2020-11-29T12:17:32Z</time>
      </trkpt>
      <trkpt lat="43.58332" lon="1.15092">
        <ele>291.1</ele>
        <time>2020-11-29T12:17:33Z</time>
      </trkpt>
      <trkpt lat="43.58328" lon="1.15091">
        <ele>291.1</ele>
        <time>2020-11-29T12:17:34Z</time>
      </trkpt>
      <trkpt lat="43.58324" lon="1.15091">
        <ele>291.1</ele>
        <time>2020-11-29T12:17:35Z</time>
      </trkpt>
      <trkpt lat="43.58319" lon="1.15089">
        <ele>291.1</ele>
        <time>2020-11-29T12:17:36Z</time>
      </trkpt>
      <trkpt lat="43.58315" lon="1.15087">
        <ele>291</ele>
        <time>2020-11-29T12:17:37Z</time>
      </trkpt>
      <trkpt lat="43.58314" lon="1.15086">
        <ele>291</ele>
        <time>2020-11-29T12:17:38Z</time>
      </trkpt>
      <trkpt lat="43.5831" lon="1.15086">
        <ele>291</ele>
        <time>2020-11-29T12:17:39Z</time>
      </trkpt>
      <trkpt lat="43.58305" lon="1.15085">
        <ele>291</ele>
        <time>2020-11-29T12:17:40Z</time>
      </trkpt>
      <trkpt lat="43.58301" lon="1.15084">
        <ele>291</ele>
        <time>2020-11-29T12:17:41Z</time>
      </trkpt>
      <trkpt lat="43.58297" lon="1.15083">
        <ele>291</ele>
        <time>2020-11-29T12:17:42Z</time>
      </trkpt>
      <trkpt lat="43.58293" lon="1.15082">
        <ele>291</ele>
        <time>2020-11-29T12:17:43Z</time>
      </trkpt>
      <trkpt lat="43.58289" lon="1.15082">
        <ele>291</ele>
        <time>2020-11-29T12:17:44Z</time>
      </trkpt>
      <trkpt lat="43.58286" lon="1.15081">
        <ele>291</ele>
        <time>2020-11-29T12:17:45Z</time>
      </trkpt>
      <trkpt lat="43.58282" lon="1.15081">
        <ele>291</ele>
        <time>2020-11-29T12:17:46Z</time>
      </trkpt>
      <trkpt lat="43.58279" lon="1.15081">
        <ele>291</ele>
        <time>2020-11-29T12:17:47Z</time>
      </trkpt>
      <trkpt lat="43.58275" lon="1.15079">
        <ele>291</ele>
        <time>2020-11-29T12:17:48Z</time>
      </trkpt>
      <trkpt lat="43.58271" lon="1.15079">
        <ele>291</ele>
        <time>2020-11-29T12:17:49Z</time>
      </trkpt>
      <trkpt lat="43.58266" lon="1.15078">
        <ele>291</ele>
        <time>2020-11-29T12:17:50Z</time>
      </trkpt>
      <trkpt lat="43.58263" lon="1.15078">
        <ele>291</ele>
        <time>2020-11-29T12:17:51Z</time>
      </trkpt>
      <trkpt lat="43.58259" lon="1.15077">
        <ele>291</ele>
        <time>2020-11-29T12:17:52Z</time>
      </trkpt>
      <trkpt lat="43.58254" lon="1.15075">
        <ele>291.1</ele>
        <time>2020-11-29T12:17:53Z</time>
      </trkpt>
      <trkpt lat="43.58247" lon="1.15073">
        <ele>291.1</ele>
        <time>2020-11-29T12:17:54Z</time>
      </trkpt>
      <trkpt lat="43.58244" lon="1.15074">
        <ele>291.2</ele>
        <time>2020-11-29T12:17:55Z</time>
      </trkpt>
      <trkpt lat="43.58238" lon="1.15074">
        <ele>291.3</ele>
        <time>2020-11-29T12:17:56Z</time>
      </trkpt>
      <trkpt lat="43.58234" lon="1.15076">
        <ele>291.4</ele>
        <time>2020-11-29T12:17:57Z</time>
      </trkpt>
      <trkpt lat="43.58228" lon="1.15079">
        <ele>291.5</ele>
        <time>2020-11-29T12:17:58Z</time>
      </trkpt>
      <trkpt lat="43.58224" lon="1.15082">
        <ele>291.6</ele>
        <time>2020-11-29T12:17:59Z</time>
      </trkpt>
      <trkpt lat="43.58218" lon="1.15084">
        <ele>291.7</ele>
        <time>2020-11-29T12:18:00Z</time>
      </trkpt>
      <trkpt lat="43.58212" lon="1.15086">
        <ele>291.9</ele>
        <time>2020-11-29T12:18:01Z</time>
      </trkpt>
      <trkpt lat="43.58207" lon="1.15088">
        <ele>292</ele>
        <time>2020-11-29T12:18:02Z</time>
      </trkpt>
      <trkpt lat="43.58201" lon="1.15092">
        <ele>292.3</ele>
        <time>2020-11-29T12:18:03Z</time>
      </trkpt>
      <trkpt lat="43.58197" lon="1.15096">
        <ele>292.5</ele>
        <time>2020-11-29T12:18:04Z</time>
      </trkpt>
      <trkpt lat="43.58193" lon="1.151">
        <ele>292.7</ele>
        <time>2020-11-29T12:18:05Z</time>
      </trkpt>
      <trkpt lat="43.58188" lon="1.15103">
        <ele>292.9</ele>
        <time>2020-11-29T12:18:06Z</time>
      </trkpt>
      <trkpt lat="43.58183" lon="1.15105">
        <ele>293.1</ele>
        <time>2020-11-29T12:18:07Z</time>
      </trkpt>
      <trkpt lat="43.58178" lon="1.15108">
        <ele>293.3</ele>
        <time>2020-11-29T12:18:08Z</time>
      </trkpt>
      <trkpt lat="43.58173" lon="1.15111">
        <ele>293.5</ele>
        <time>2020-11-29T12:18:09Z</time>
      </trkpt>
      <trkpt lat="43.5817" lon="1.15113">
        <ele>293.6</ele>
        <time>2020-11-29T12:18:10Z</time>
      </trkpt>
      <trkpt lat="43.58166" lon="1.15115">
        <ele>293.8</ele>
        <time>2020-11-29T12:18:11Z</time>
      </trkpt>
      <trkpt lat="43.58163" lon="1.15115">
        <ele>293.9</ele>
        <time>2020-11-29T12:18:12Z</time>
      </trkpt>
      <trkpt lat="43.58159" lon="1.15118">
        <ele>294.1</ele>
        <time>2020-11-29T12:18:13Z</time>
      </trkpt>
      <trkpt lat="43.58156" lon="1.15121">
        <ele>294.3</ele>
        <time>2020-11-29T12:18:14Z</time>
      </trkpt>
      <trkpt lat="43.58151" lon="1.15125">
        <ele>294.5</ele>
        <time>2020-11-29T12:18:15Z</time>
      </trkpt>
      <trkpt lat="43.58146" lon="1.15129">
        <ele>294.8</ele>
        <time>2020-11-29T12:18:16Z</time>
      </trkpt>
      <trkpt lat="43.58142" lon="1.15132">
        <ele>294.9</ele>
        <time>2020-11-29T12:18:17Z</time>
      </trkpt>
      <trkpt lat="43.58139" lon="1.15134">
        <ele>295.1</ele>
        <time>2020-11-29T12:18:18Z</time>
      </trkpt>
      <trkpt lat="43.58135" lon="1.15136">
        <ele>295.2</ele>
        <time>2020-11-29T12:18:19Z</time>
      </trkpt>
      <trkpt lat="43.58131" lon="1.15139">
        <ele>295.4</ele>
        <time>2020-11-29T12:18:20Z</time>
      </trkpt>
      <trkpt lat="43.58125" lon="1.15142">
        <ele>295.6</ele>
        <time>2020-11-29T12:18:21Z</time>
      </trkpt>
      <trkpt lat="43.5812" lon="1.15146">
        <ele>295.8</ele>
        <time>2020-11-29T12:18:22Z</time>
      </trkpt>
      <trkpt lat="43.58116" lon="1.15148">
        <ele>296</ele>
        <time>2020-11-29T12:18:23Z</time>
      </trkpt>
      <trkpt lat="43.58111" lon="1.15149">
        <ele>296.1</ele>
        <time>2020-11-29T12:18:24Z</time>
      </trkpt>
      <trkpt lat="43.58108" lon="1.15152">
        <ele>296.1</ele>
        <time>2020-11-29T12:18:25Z</time>
      </trkpt>
      <trkpt lat="43.58103" lon="1.15156">
        <ele>296.2</ele>
        <time>2020-11-29T12:18:26Z</time>
      </trkpt>
      <trkpt lat="43.58097" lon="1.15159">
        <ele>296.2</ele>
        <time>2020-11-29T12:18:27Z</time>
      </trkpt>
      <trkpt lat="43.58091" lon="1.15161">
        <ele>296.2</ele>
        <time>2020-11-29T12:18:28Z</time>
      </trkpt>
      <trkpt lat="43.58088" lon="1.15163">
        <ele>296.2</ele>
        <time>2020-11-29T12:18:29Z</time>
      </trkpt>
      <trkpt lat="43.58084" lon="1.15165">
        <ele>296.2</ele>
        <time>2020-11-29T12:18:30Z</time>
      </trkpt>
      <trkpt lat="43.5808" lon="1.15168">
        <ele>296.1</ele>
        <time>2020-11-29T12:18:31Z</time>
      </trkpt>
      <trkpt lat="43.58074" lon="1.1517">
        <ele>296.1</ele>
        <time>2020-11-29T12:18:32Z</time>
      </trkpt>
      <trkpt lat="43.58068" lon="1.15173">
        <ele>296</ele>
        <time>2020-11-29T12:18:33Z</time>
      </trkpt>
      <trkpt lat="43.58063" lon="1.15176">
        <ele>295.9</ele>
        <time>2020-11-29T12:18:34Z</time>
      </trkpt>
      <trkpt lat="43.58058" lon="1.15178">
        <ele>295.7</ele>
        <time>2020-11-29T12:18:35Z</time>
      </trkpt>
      <trkpt lat="43.58055" lon="1.1518">
        <ele>295.6</ele>
        <time>2020-11-29T12:18:36Z</time>
      </trkpt>
      <trkpt lat="43.5805" lon="1.15182">
        <ele>295.5</ele>
        <time>2020-11-29T12:18:37Z</time>
      </trkpt>
      <trkpt lat="43.58048" lon="1.15184">
        <ele>295.4</ele>
        <time>2020-11-29T12:18:38Z</time>
      </trkpt>
      <trkpt lat="43.58044" lon="1.15187">
        <ele>295.3</ele>
        <time>2020-11-29T12:18:39Z</time>
      </trkpt>
      <trkpt lat="43.5804" lon="1.15189">
        <ele>295.1</ele>
        <time>2020-11-29T12:18:40Z</time>
      </trkpt>
      <trkpt lat="43.58036" lon="1.15193">
        <ele>295</ele>
        <time>2020-11-29T12:18:41Z</time>
      </trkpt>
      <trkpt lat="43.58033" lon="1.15198">
        <ele>294.8</ele>
        <time>2020-11-29T12:18:42Z</time>
      </trkpt>
      <trkpt lat="43.58029" lon="1.15204">
        <ele>294.6</ele>
        <time>2020-11-29T12:18:43Z</time>
      </trkpt>
      <trkpt lat="43.58025" lon="1.1521">
        <ele>294.5</ele>
        <time>2020-11-29T12:18:44Z</time>
      </trkpt>
      <trkpt lat="43.5802" lon="1.15216">
        <ele>294.2</ele>
        <time>2020-11-29T12:18:45Z</time>
      </trkpt>
      <trkpt lat="43.58017" lon="1.15223">
        <ele>294</ele>
        <time>2020-11-29T12:18:46Z</time>
      </trkpt>
      <trkpt lat="43.58012" lon="1.1523">
        <ele>293.8</ele>
        <time>2020-11-29T12:18:47Z</time>
      </trkpt>
      <trkpt lat="43.58006" lon="1.15237">
        <ele>293.6</ele>
        <time>2020-11-29T12:18:48Z</time>
      </trkpt>
      <trkpt lat="43.58" lon="1.15242">
        <ele>293.5</ele>
        <time>2020-11-29T12:18:49Z</time>
      </trkpt>
      <trkpt lat="43.57994" lon="1.15249">
        <ele>293.3</ele>
        <time>2020-11-29T12:18:50Z</time>
      </trkpt>
      <trkpt lat="43.5799" lon="1.15256">
        <ele>293.2</ele>
        <time>2020-11-29T12:18:51Z</time>
      </trkpt>
      <trkpt lat="43.57985" lon="1.15261">
        <ele>293.2</ele>
        <time>2020-11-29T12:18:52Z</time>
      </trkpt>
      <trkpt lat="43.57981" lon="1.15265">
        <ele>293.1</ele>
        <time>2020-11-29T12:18:53Z</time>
      </trkpt>
      <trkpt lat="43.57976" lon="1.15273">
        <ele>293</ele>
        <time>2020-11-29T12:18:54Z</time>
      </trkpt>
      <trkpt lat="43.57972" lon="1.15279">
        <ele>293</ele>
        <time>2020-11-29T12:18:55Z</time>
      </trkpt>
      <trkpt lat="43.57968" lon="1.15284">
        <ele>292.9</ele>
        <time>2020-11-29T12:18:56Z</time>
      </trkpt>
      <trkpt lat="43.57964" lon="1.15288">
        <ele>292.9</ele>
        <time>2020-11-29T12:18:57Z</time>
      </trkpt>
      <trkpt lat="43.5796" lon="1.15292">
        <ele>292.8</ele>
        <time>2020-11-29T12:18:58Z</time>
      </trkpt>
      <trkpt lat="43.57957" lon="1.15297">
        <ele>292.7</ele>
        <time>2020-11-29T12:18:59Z</time>
      </trkpt>
      <trkpt lat="43.57954" lon="1.15302">
        <ele>292.6</ele>
        <time>2020-11-29T12:19:00Z</time>
      </trkpt>
      <trkpt lat="43.5795" lon="1.15308">
        <ele>292.6</ele>
        <time>2020-11-29T12:19:01Z</time>
      </trkpt>
      <trkpt lat="43.57945" lon="1.15314">
        <ele>292.4</ele>
        <time>2020-11-29T12:19:02Z</time>
      </trkpt>
      <trkpt lat="43.57941" lon="1.15321">
        <ele>292.3</ele>
        <time>2020-11-29T12:19:03Z</time>
      </trkpt>
      <trkpt lat="43.57936" lon="1.15328">
        <ele>292.2</ele>
        <time>2020-11-29T12:19:04Z</time>
      </trkpt>
      <trkpt lat="43.57931" lon="1.15334">
        <ele>292</ele>
        <time>2020-11-29T12:19:05Z</time>
      </trkpt>
      <trkpt lat="43.57928" lon="1.1534">
        <ele>291.9</ele>
        <time>2020-11-29T12:19:06Z</time>
      </trkpt>
      <trkpt lat="43.57925" lon="1.15346">
        <ele>291.9</ele>
        <time>2020-11-29T12:19:07Z</time>
      </trkpt>
      <trkpt lat="43.57921" lon="1.15352">
        <ele>291.8</ele>
        <time>2020-11-29T12:19:08Z</time>
      </trkpt>
      <trkpt lat="43.57918" lon="1.15358">
        <ele>291.7</ele>
        <time>2020-11-29T12:19:09Z</time>
      </trkpt>
      <trkpt lat="43.57914" lon="1.15363">
        <ele>291.7</ele>
        <time>2020-11-29T12:19:10Z</time>
      </trkpt>
      <trkpt lat="43.57911" lon="1.15368">
        <ele>291.6</ele>
        <time>2020-11-29T12:19:11Z</time>
      </trkpt>
      <trkpt lat="43.57909" lon="1.15373">
        <ele>291.6</ele>
        <time>2020-11-29T12:19:12Z</time>
      </trkpt>
      <trkpt lat="43.57906" lon="1.15378">
        <ele>291.5</ele>
        <time>2020-11-29T12:19:13Z</time>
      </trkpt>
      <trkpt lat="43.57905" lon="1.15383">
        <ele>291.5</ele>
        <time>2020-11-29T12:19:14Z</time>
      </trkpt>
      <trkpt lat="43.57904" lon="1.15387">
        <ele>291.5</ele>
        <time>2020-11-29T12:19:15Z</time>
      </trkpt>
      <trkpt lat="43.57902" lon="1.15392">
        <ele>291.5</ele>
        <time>2020-11-29T12:19:16Z</time>
      </trkpt>
      <trkpt lat="43.57899" lon="1.15397">
        <ele>291.4</ele>
        <time>2020-11-29T12:19:17Z</time>
      </trkpt>
      <trkpt lat="43.57898" lon="1.15402">
        <ele>291.4</ele>
        <time>2020-11-29T12:19:18Z</time>
      </trkpt>
      <trkpt lat="43.57896" lon="1.15407">
        <ele>291.4</ele>
        <time>2020-11-29T12:19:19Z</time>
      </trkpt>
      <trkpt lat="43.57893" lon="1.15413">
        <ele>291.3</ele>
        <time>2020-11-29T12:19:20Z</time>
      </trkpt>
      <trkpt lat="43.57889" lon="1.15415">
        <ele>291.3</ele>
        <time>2020-11-29T12:19:21Z</time>
      </trkpt>
      <trkpt lat="43.57884" lon="1.15419">
        <ele>291.3</ele>
        <time>2020-11-29T12:19:22Z</time>
      </trkpt>
      <trkpt lat="43.57882" lon="1.15423">
        <ele>291.3</ele>
        <time>2020-11-29T12:19:23Z</time>
      </trkpt>
      <trkpt lat="43.57878" lon="1.15427">
        <ele>291.2</ele>
        <time>2020-11-29T12:19:24Z</time>
      </trkpt>
      <trkpt lat="43.57874" lon="1.15433">
        <ele>291.2</ele>
        <time>2020-11-29T12:19:25Z</time>
      </trkpt>
      <trkpt lat="43.5787" lon="1.15438">
        <ele>291.2</ele>
        <time>2020-11-29T12:19:26Z</time>
      </trkpt>
      <trkpt lat="43.57866" lon="1.15443">
        <ele>291.2</ele>
        <time>2020-11-29T12:19:27Z</time>
      </trkpt>
      <trkpt lat="43.57862" lon="1.15447">
        <ele>291.2</ele>
        <time>2020-11-29T12:19:28Z</time>
      </trkpt>
      <trkpt lat="43.57858" lon="1.15453">
        <ele>291.2</ele>
        <time>2020-11-29T12:19:29Z</time>
      </trkpt>
      <trkpt lat="43.57853" lon="1.15458">
        <ele>291.1</ele>
        <time>2020-11-29T12:19:30Z</time>
      </trkpt>
      <trkpt lat="43.57848" lon="1.15463">
        <ele>291.1</ele>
        <time>2020-11-29T12:19:31Z</time>
      </trkpt>
      <trkpt lat="43.57844" lon="1.15467">
        <ele>291.1</ele>
        <time>2020-11-29T12:19:32Z</time>
      </trkpt>
      <trkpt lat="43.57839" lon="1.15472">
        <ele>291.1</ele>
        <time>2020-11-29T12:19:33Z</time>
      </trkpt>
      <trkpt lat="43.57835" lon="1.15477">
        <ele>291.1</ele>
        <time>2020-11-29T12:19:34Z</time>
      </trkpt>
      <trkpt lat="43.57832" lon="1.15481">
        <ele>291.1</ele>
        <time>2020-11-29T12:19:35Z</time>
      </trkpt>
      <trkpt lat="43.57827" lon="1.15486">
        <ele>291.1</ele>
        <time>2020-11-29T12:19:36Z</time>
      </trkpt>
      <trkpt lat="43.57823" lon="1.15489">
        <ele>291.1</ele>
        <time>2020-11-29T12:19:37Z</time>
      </trkpt>
      <trkpt lat="43.57819" lon="1.15494">
        <ele>291.1</ele>
        <time>2020-11-29T12:19:38Z</time>
      </trkpt>
      <trkpt lat="43.57814" lon="1.15498">
        <ele>291</ele>
        <time>2020-11-29T12:19:39Z</time>
      </trkpt>
      <trkpt lat="43.5781" lon="1.15504">
        <ele>291</ele>
        <time>2020-11-29T12:19:40Z</time>
      </trkpt>
      <trkpt lat="43.57806" lon="1.15509">
        <ele>291</ele>
        <time>2020-11-29T12:19:41Z</time>
      </trkpt>
      <trkpt lat="43.57802" lon="1.15514">
        <ele>291</ele>
        <time>2020-11-29T12:19:42Z</time>
      </trkpt>
      <trkpt lat="43.57799" lon="1.1552">
        <ele>291</ele>
        <time>2020-11-29T12:19:43Z</time>
      </trkpt>
      <trkpt lat="43.57795" lon="1.15524">
        <ele>291</ele>
        <time>2020-11-29T12:19:44Z</time>
      </trkpt>
      <trkpt lat="43.57791" lon="1.15529">
        <ele>290.9</ele>
        <time>2020-11-29T12:19:45Z</time>
      </trkpt>
      <trkpt lat="43.57787" lon="1.15533">
        <ele>290.9</ele>
        <time>2020-11-29T12:19:46Z</time>
      </trkpt>
      <trkpt lat="43.57782" lon="1.15537">
        <ele>290.9</ele>
        <time>2020-11-29T12:19:47Z</time>
      </trkpt>
      <trkpt lat="43.57778" lon="1.15541">
        <ele>290.9</ele>
        <time>2020-11-29T12:19:48Z</time>
      </trkpt>
      <trkpt lat="43.57773" lon="1.15545">
        <ele>290.9</ele>
        <time>2020-11-29T12:19:49Z</time>
      </trkpt>
      <trkpt lat="43.57769" lon="1.1555">
        <ele>290.8</ele>
        <time>2020-11-29T12:19:50Z</time>
      </trkpt>
      <trkpt lat="43.57764" lon="1.15554">
        <ele>290.8</ele>
        <time>2020-11-29T12:19:51Z</time>
      </trkpt>
      <trkpt lat="43.5776" lon="1.15558">
        <ele>290.8</ele>
        <time>2020-11-29T12:19:52Z</time>
      </trkpt>
      <trkpt lat="43.57757" lon="1.15561">
        <ele>290.8</ele>
        <time>2020-11-29T12:19:53Z</time>
      </trkpt>
      <trkpt lat="43.57752" lon="1.15568">
        <ele>290.8</ele>
        <time>2020-11-29T12:19:54Z</time>
      </trkpt>
      <trkpt lat="43.57747" lon="1.15575">
        <ele>290.8</ele>
        <time>2020-11-29T12:19:55Z</time>
      </trkpt>
      <trkpt lat="43.57743" lon="1.15582">
        <ele>290.7</ele>
        <time>2020-11-29T12:19:56Z</time>
      </trkpt>
      <trkpt lat="43.57737" lon="1.1559">
        <ele>290.7</ele>
        <time>2020-11-29T12:19:57Z</time>
      </trkpt>
      <trkpt lat="43.57733" lon="1.15597">
        <ele>290.7</ele>
        <time>2020-11-29T12:19:58Z</time>
      </trkpt>
      <trkpt lat="43.57728" lon="1.15601">
        <ele>290.6</ele>
        <time>2020-11-29T12:19:59Z</time>
      </trkpt>
      <trkpt lat="43.57725" lon="1.15605">
        <ele>290.6</ele>
        <time>2020-11-29T12:20:00Z</time>
      </trkpt>
      <trkpt lat="43.57722" lon="1.15611">
        <ele>290.6</ele>
        <time>2020-11-29T12:20:01Z</time>
      </trkpt>
      <trkpt lat="43.57719" lon="1.15615">
        <ele>290.5</ele>
        <time>2020-11-29T12:20:02Z</time>
      </trkpt>
      <trkpt lat="43.57715" lon="1.1562">
        <ele>290.5</ele>
        <time>2020-11-29T12:20:03Z</time>
      </trkpt>
      <trkpt lat="43.57713" lon="1.15624">
        <ele>290.4</ele>
        <time>2020-11-29T12:20:04Z</time>
      </trkpt>
      <trkpt lat="43.57709" lon="1.1563">
        <ele>290.3</ele>
        <time>2020-11-29T12:20:05Z</time>
      </trkpt>
      <trkpt lat="43.57704" lon="1.15636">
        <ele>290.3</ele>
        <time>2020-11-29T12:20:06Z</time>
      </trkpt>
      <trkpt lat="43.577" lon="1.15642">
        <ele>290.2</ele>
        <time>2020-11-29T12:20:07Z</time>
      </trkpt>
      <trkpt lat="43.57696" lon="1.15646">
        <ele>290.1</ele>
        <time>2020-11-29T12:20:08Z</time>
      </trkpt>
      <trkpt lat="43.57692" lon="1.1565">
        <ele>290.1</ele>
        <time>2020-11-29T12:20:09Z</time>
      </trkpt>
      <trkpt lat="43.57688" lon="1.15656">
        <ele>290</ele>
        <time>2020-11-29T12:20:10Z</time>
      </trkpt>
      <trkpt lat="43.57684" lon="1.15662">
        <ele>289.9</ele>
        <time>2020-11-29T12:20:11Z</time>
      </trkpt>
      <trkpt lat="43.5768" lon="1.15667">
        <ele>289.9</ele>
        <time>2020-11-29T12:20:12Z</time>
      </trkpt>
      <trkpt lat="43.57676" lon="1.15672">
        <ele>289.8</ele>
        <time>2020-11-29T12:20:13Z</time>
      </trkpt>
      <trkpt lat="43.57672" lon="1.15678">
        <ele>289.8</ele>
        <time>2020-11-29T12:20:14Z</time>
      </trkpt>
      <trkpt lat="43.57668" lon="1.15685">
        <ele>289.7</ele>
        <time>2020-11-29T12:20:15Z</time>
      </trkpt>
      <trkpt lat="43.57664" lon="1.15693">
        <ele>289.7</ele>
        <time>2020-11-29T12:20:16Z</time>
      </trkpt>
      <trkpt lat="43.57659" lon="1.15699">
        <ele>289.6</ele>
        <time>2020-11-29T12:20:17Z</time>
      </trkpt>
      <trkpt lat="43.57655" lon="1.15705">
        <ele>289.6</ele>
        <time>2020-11-29T12:20:18Z</time>
      </trkpt>
      <trkpt lat="43.57651" lon="1.15709">
        <ele>289.6</ele>
        <time>2020-11-29T12:20:19Z</time>
      </trkpt>
      <trkpt lat="43.57647" lon="1.15714">
        <ele>289.7</ele>
        <time>2020-11-29T12:20:20Z</time>
      </trkpt>
      <trkpt lat="43.57642" lon="1.15721">
        <ele>289.7</ele>
        <time>2020-11-29T12:20:21Z</time>
      </trkpt>
      <trkpt lat="43.57638" lon="1.15726">
        <ele>289.7</ele>
        <time>2020-11-29T12:20:22Z</time>
      </trkpt>
      <trkpt lat="43.57634" lon="1.15733">
        <ele>289.8</ele>
        <time>2020-11-29T12:20:23Z</time>
      </trkpt>
      <trkpt lat="43.5763" lon="1.15737">
        <ele>289.8</ele>
        <time>2020-11-29T12:20:24Z</time>
      </trkpt>
      <trkpt lat="43.57627" lon="1.15741">
        <ele>289.8</ele>
        <time>2020-11-29T12:20:25Z</time>
      </trkpt>
      <trkpt lat="43.57622" lon="1.15748">
        <ele>289.8</ele>
        <time>2020-11-29T12:20:26Z</time>
      </trkpt>
      <trkpt lat="43.57618" lon="1.15752">
        <ele>289.8</ele>
        <time>2020-11-29T12:20:27Z</time>
      </trkpt>
      <trkpt lat="43.57614" lon="1.15756">
        <ele>289.9</ele>
        <time>2020-11-29T12:20:28Z</time>
      </trkpt>
      <trkpt lat="43.57611" lon="1.15761">
        <ele>289.9</ele>
        <time>2020-11-29T12:20:29Z</time>
      </trkpt>
      <trkpt lat="43.57607" lon="1.15765">
        <ele>289.9</ele>
        <time>2020-11-29T12:20:30Z</time>
      </trkpt>
      <trkpt lat="43.57604" lon="1.15769">
        <ele>289.9</ele>
        <time>2020-11-29T12:20:31Z</time>
      </trkpt>
      <trkpt lat="43.576" lon="1.15773">
        <ele>289.9</ele>
        <time>2020-11-29T12:20:32Z</time>
      </trkpt>
      <trkpt lat="43.57597" lon="1.15777">
        <ele>289.9</ele>
        <time>2020-11-29T12:20:33Z</time>
      </trkpt>
      <trkpt lat="43.57593" lon="1.15784">
        <ele>289.9</ele>
        <time>2020-11-29T12:20:34Z</time>
      </trkpt>
      <trkpt lat="43.57589" lon="1.15789">
        <ele>289.9</ele>
        <time>2020-11-29T12:20:35Z</time>
      </trkpt>
      <trkpt lat="43.57584" lon="1.15795">
        <ele>289.8</ele>
        <time>2020-11-29T12:20:36Z</time>
      </trkpt>
      <trkpt lat="43.57581" lon="1.15801">
        <ele>289.8</ele>
        <time>2020-11-29T12:20:37Z</time>
      </trkpt>
      <trkpt lat="43.57575" lon="1.15806">
        <ele>289.8</ele>
        <time>2020-11-29T12:20:38Z</time>
      </trkpt>
      <trkpt lat="43.57571" lon="1.15811">
        <ele>289.7</ele>
        <time>2020-11-29T12:20:39Z</time>
      </trkpt>
      <trkpt lat="43.57567" lon="1.15815">
        <ele>289.7</ele>
        <time>2020-11-29T12:20:40Z</time>
      </trkpt>
      <trkpt lat="43.57564" lon="1.15818">
        <ele>289.7</ele>
        <time>2020-11-29T12:20:41Z</time>
      </trkpt>
      <trkpt lat="43.57562" lon="1.15821">
        <ele>289.7</ele>
        <time>2020-11-29T12:20:42Z</time>
      </trkpt>
      <trkpt lat="43.5756" lon="1.15824">
        <ele>289.7</ele>
        <time>2020-11-29T12:20:43Z</time>
      </trkpt>
      <trkpt lat="43.57557" lon="1.15827">
        <ele>289.7</ele>
        <time>2020-11-29T12:20:44Z</time>
      </trkpt>
      <trkpt lat="43.57555" lon="1.15831">
        <ele>289.6</ele>
        <time>2020-11-29T12:20:45Z</time>
      </trkpt>
      <trkpt lat="43.57553" lon="1.15835">
        <ele>289.6</ele>
        <time>2020-11-29T12:20:46Z</time>
      </trkpt>
      <trkpt lat="43.5755" lon="1.1584">
        <ele>289.6</ele>
        <time>2020-11-29T12:20:47Z</time>
      </trkpt>
      <trkpt lat="43.57546" lon="1.15846">
        <ele>289.6</ele>
        <time>2020-11-29T12:20:48Z</time>
      </trkpt>
      <trkpt lat="43.57544" lon="1.15852">
        <ele>289.6</ele>
        <time>2020-11-29T12:20:49Z</time>
      </trkpt>
      <trkpt lat="43.57542" lon="1.15857">
        <ele>289.5</ele>
        <time>2020-11-29T12:20:50Z</time>
      </trkpt>
      <trkpt lat="43.5754" lon="1.15866">
        <ele>289.5</ele>
        <time>2020-11-29T12:20:51Z</time>
      </trkpt>
      <trkpt lat="43.57539" lon="1.15874">
        <ele>289.4</ele>
        <time>2020-11-29T12:20:52Z</time>
      </trkpt>
      <trkpt lat="43.57536" lon="1.15881">
        <ele>289.3</ele>
        <time>2020-11-29T12:20:53Z</time>
      </trkpt>
      <trkpt lat="43.57534" lon="1.15887">
        <ele>289.2</ele>
        <time>2020-11-29T12:20:54Z</time>
      </trkpt>
      <trkpt lat="43.57531" lon="1.15894">
        <ele>289.1</ele>
        <time>2020-11-29T12:20:55Z</time>
      </trkpt>
      <trkpt lat="43.57529" lon="1.15901">
        <ele>289</ele>
        <time>2020-11-29T12:20:56Z</time>
      </trkpt>
      <trkpt lat="43.57526" lon="1.1591">
        <ele>288.9</ele>
        <time>2020-11-29T12:20:57Z</time>
      </trkpt>
      <trkpt lat="43.57523" lon="1.15918">
        <ele>288.8</ele>
        <time>2020-11-29T12:20:58Z</time>
      </trkpt>
      <trkpt lat="43.57521" lon="1.15928">
        <ele>288.6</ele>
        <time>2020-11-29T12:20:59Z</time>
      </trkpt>
      <trkpt lat="43.57519" lon="1.15937">
        <ele>288.5</ele>
        <time>2020-11-29T12:21:00Z</time>
      </trkpt>
      <trkpt lat="43.57517" lon="1.15944">
        <ele>288.3</ele>
        <time>2020-11-29T12:21:01Z</time>
      </trkpt>
      <trkpt lat="43.57514" lon="1.15954">
        <ele>288.1</ele>
        <time>2020-11-29T12:21:02Z</time>
      </trkpt>
      <trkpt lat="43.57512" lon="1.15962">
        <ele>288</ele>
        <time>2020-11-29T12:21:03Z</time>
      </trkpt>
      <trkpt lat="43.57509" lon="1.1597">
        <ele>287.8</ele>
        <time>2020-11-29T12:21:04Z</time>
      </trkpt>
      <trkpt lat="43.57506" lon="1.15977">
        <ele>287.7</ele>
        <time>2020-11-29T12:21:05Z</time>
      </trkpt>
      <trkpt lat="43.57502" lon="1.15985">
        <ele>287.6</ele>
        <time>2020-11-29T12:21:06Z</time>
      </trkpt>
      <trkpt lat="43.57498" lon="1.15993">
        <ele>287.6</ele>
        <time>2020-11-29T12:21:07Z</time>
      </trkpt>
      <trkpt lat="43.57494" lon="1.16001">
        <ele>287.5</ele>
        <time>2020-11-29T12:21:08Z</time>
      </trkpt>
      <trkpt lat="43.5749" lon="1.16008">
        <ele>287.5</ele>
        <time>2020-11-29T12:21:09Z</time>
      </trkpt>
      <trkpt lat="43.57489" lon="1.16016">
        <ele>287.4</ele>
        <time>2020-11-29T12:21:10Z</time>
      </trkpt>
      <trkpt lat="43.57488" lon="1.1602">
        <ele>287.4</ele>
        <time>2020-11-29T12:21:11Z</time>
      </trkpt>
      <trkpt lat="43.57485" lon="1.16026">
        <ele>287.3</ele>
        <time>2020-11-29T12:21:12Z</time>
      </trkpt>
      <trkpt lat="43.57482" lon="1.16033">
        <ele>287.2</ele>
        <time>2020-11-29T12:21:13Z</time>
      </trkpt>
      <trkpt lat="43.57479" lon="1.1604">
        <ele>287.2</ele>
        <time>2020-11-29T12:21:14Z</time>
      </trkpt>
      <trkpt lat="43.57476" lon="1.16047">
        <ele>287.1</ele>
        <time>2020-11-29T12:21:15Z</time>
      </trkpt>
      <trkpt lat="43.57473" lon="1.16053">
        <ele>287</ele>
        <time>2020-11-29T12:21:16Z</time>
      </trkpt>
      <trkpt lat="43.5747" lon="1.16059">
        <ele>287</ele>
        <time>2020-11-29T12:21:17Z</time>
      </trkpt>
      <trkpt lat="43.57467" lon="1.16065">
        <ele>286.9</ele>
        <time>2020-11-29T12:21:18Z</time>
      </trkpt>
      <trkpt lat="43.57463" lon="1.16073">
        <ele>286.9</ele>
        <time>2020-11-29T12:21:19Z</time>
      </trkpt>
      <trkpt lat="43.57461" lon="1.16078">
        <ele>286.8</ele>
        <time>2020-11-29T12:21:20Z</time>
      </trkpt>
      <trkpt lat="43.57458" lon="1.16085">
        <ele>286.8</ele>
        <time>2020-11-29T12:21:21Z</time>
      </trkpt>
      <trkpt lat="43.57456" lon="1.16091">
        <ele>286.8</ele>
        <time>2020-11-29T12:21:22Z</time>
      </trkpt>
      <trkpt lat="43.57452" lon="1.16097">
        <ele>286.8</ele>
        <time>2020-11-29T12:21:23Z</time>
      </trkpt>
      <trkpt lat="43.57449" lon="1.16103">
        <ele>286.8</ele>
        <time>2020-11-29T12:21:24Z</time>
      </trkpt>
      <trkpt lat="43.57446" lon="1.1611">
        <ele>286.8</ele>
        <time>2020-11-29T12:21:25Z</time>
      </trkpt>
      <trkpt lat="43.57443" lon="1.16115">
        <ele>286.8</ele>
        <time>2020-11-29T12:21:26Z</time>
      </trkpt>
      <trkpt lat="43.5744" lon="1.16121">
        <ele>286.8</ele>
        <time>2020-11-29T12:21:27Z</time>
      </trkpt>
      <trkpt lat="43.57437" lon="1.16128">
        <ele>286.8</ele>
        <time>2020-11-29T12:21:28Z</time>
      </trkpt>
      <trkpt lat="43.57434" lon="1.16134">
        <ele>286.8</ele>
        <time>2020-11-29T12:21:29Z</time>
      </trkpt>
      <trkpt lat="43.5743" lon="1.16142">
        <ele>286.8</ele>
        <time>2020-11-29T12:21:30Z</time>
      </trkpt>
      <trkpt lat="43.57427" lon="1.16148">
        <ele>286.8</ele>
        <time>2020-11-29T12:21:31Z</time>
      </trkpt>
      <trkpt lat="43.57425" lon="1.16156">
        <ele>286.8</ele>
        <time>2020-11-29T12:21:32Z</time>
      </trkpt>
      <trkpt lat="43.57421" lon="1.16164">
        <ele>286.8</ele>
        <time>2020-11-29T12:21:33Z</time>
      </trkpt>
      <trkpt lat="43.57418" lon="1.16172">
        <ele>286.8</ele>
        <time>2020-11-29T12:21:34Z</time>
      </trkpt>
      <trkpt lat="43.57416" lon="1.16179">
        <ele>286.8</ele>
        <time>2020-11-29T12:21:35Z</time>
      </trkpt>
      <trkpt lat="43.57413" lon="1.16186">
        <ele>286.7</ele>
        <time>2020-11-29T12:21:36Z</time>
      </trkpt>
      <trkpt lat="43.5741" lon="1.16192">
        <ele>286.7</ele>
        <time>2020-11-29T12:21:37Z</time>
      </trkpt>
      <trkpt lat="43.57408" lon="1.16198">
        <ele>286.7</ele>
        <time>2020-11-29T12:21:38Z</time>
      </trkpt>
      <trkpt lat="43.57406" lon="1.16204">
        <ele>286.6</ele>
        <time>2020-11-29T12:21:39Z</time>
      </trkpt>
      <trkpt lat="43.57403" lon="1.16209">
        <ele>286.6</ele>
        <time>2020-11-29T12:21:40Z</time>
      </trkpt>
      <trkpt lat="43.574" lon="1.16215">
        <ele>286.6</ele>
        <time>2020-11-29T12:21:41Z</time>
      </trkpt>
      <trkpt lat="43.57395" lon="1.16221">
        <ele>286.4</ele>
        <time>2020-11-29T12:21:42Z</time>
      </trkpt>
      <trkpt lat="43.57392" lon="1.16228">
        <ele>286.3</ele>
        <time>2020-11-29T12:21:43Z</time>
      </trkpt>
      <trkpt lat="43.57389" lon="1.16235">
        <ele>286.1</ele>
        <time>2020-11-29T12:21:44Z</time>
      </trkpt>
      <trkpt lat="43.57385" lon="1.16241">
        <ele>285.9</ele>
        <time>2020-11-29T12:21:45Z</time>
      </trkpt>
      <trkpt lat="43.57383" lon="1.16246">
        <ele>285.7</ele>
        <time>2020-11-29T12:21:46Z</time>
      </trkpt>
      <trkpt lat="43.57379" lon="1.16252">
        <ele>285.4</ele>
        <time>2020-11-29T12:21:47Z</time>
      </trkpt>
      <trkpt lat="43.57375" lon="1.16258">
        <ele>285.1</ele>
        <time>2020-11-29T12:21:48Z</time>
      </trkpt>
      <trkpt lat="43.5737" lon="1.16264">
        <ele>284.6</ele>
        <time>2020-11-29T12:21:49Z</time>
      </trkpt>
      <trkpt lat="43.57366" lon="1.1627">
        <ele>284.1</ele>
        <time>2020-11-29T12:21:50Z</time>
      </trkpt>
      <trkpt lat="43.57361" lon="1.16277">
        <ele>283.4</ele>
        <time>2020-11-29T12:21:51Z</time>
      </trkpt>
      <trkpt lat="43.57356" lon="1.16285">
        <ele>282.6</ele>
        <time>2020-11-29T12:21:52Z</time>
      </trkpt>
      <trkpt lat="43.57353" lon="1.1629">
        <ele>281.8</ele>
        <time>2020-11-29T12:21:53Z</time>
      </trkpt>
      <trkpt lat="43.57347" lon="1.16299">
        <ele>280.8</ele>
        <time>2020-11-29T12:21:54Z</time>
      </trkpt>
      <trkpt lat="43.57342" lon="1.16306">
        <ele>279.8</ele>
        <time>2020-11-29T12:21:55Z</time>
      </trkpt>
      <trkpt lat="43.57338" lon="1.16311">
        <ele>279.2</ele>
        <time>2020-11-29T12:21:56Z</time>
      </trkpt>
      <trkpt lat="43.57333" lon="1.16316">
        <ele>278.5</ele>
        <time>2020-11-29T12:21:57Z</time>
      </trkpt>
      <trkpt lat="43.57328" lon="1.16321">
        <ele>277.8</ele>
        <time>2020-11-29T12:21:58Z</time>
      </trkpt>
      <trkpt lat="43.57324" lon="1.16326">
        <ele>277.1</ele>
        <time>2020-11-29T12:21:59Z</time>
      </trkpt>
      <trkpt lat="43.5732" lon="1.16334">
        <ele>276.2</ele>
        <time>2020-11-29T12:22:00Z</time>
      </trkpt>
      <trkpt lat="43.57311" lon="1.16345">
        <ele>274.6</ele>
        <time>2020-11-29T12:22:01Z</time>
      </trkpt>
      <trkpt lat="43.57304" lon="1.16353">
        <ele>273.3</ele>
        <time>2020-11-29T12:22:02Z</time>
      </trkpt>
      <trkpt lat="43.57297" lon="1.1636">
        <ele>272.1</ele>
        <time>2020-11-29T12:22:03Z</time>
      </trkpt>
      <trkpt lat="43.57292" lon="1.16366">
        <ele>271</ele>
        <time>2020-11-29T12:22:04Z</time>
      </trkpt>
      <trkpt lat="43.57286" lon="1.16372">
        <ele>270.3</ele>
        <time>2020-11-29T12:22:05Z</time>
      </trkpt>
      <trkpt lat="43.57279" lon="1.16377">
        <ele>269.3</ele>
        <time>2020-11-29T12:22:06Z</time>
      </trkpt>
      <trkpt lat="43.57269" lon="1.16381">
        <ele>268.2</ele>
        <time>2020-11-29T12:22:07Z</time>
      </trkpt>
      <trkpt lat="43.57262" lon="1.16385">
        <ele>267.3</ele>
        <time>2020-11-29T12:22:08Z</time>
      </trkpt>
      <trkpt lat="43.57254" lon="1.16391">
        <ele>266.3</ele>
        <time>2020-11-29T12:22:09Z</time>
      </trkpt>
      <trkpt lat="43.57245" lon="1.16398">
        <ele>264.9</ele>
        <time>2020-11-29T12:22:10Z</time>
      </trkpt>
      <trkpt lat="43.57237" lon="1.16404">
        <ele>263.9</ele>
        <time>2020-11-29T12:22:11Z</time>
      </trkpt>
      <trkpt lat="43.57231" lon="1.1641">
        <ele>262.9</ele>
        <time>2020-11-29T12:22:12Z</time>
      </trkpt>
      <trkpt lat="43.57224" lon="1.16419">
        <ele>261.8</ele>
        <time>2020-11-29T12:22:13Z</time>
      </trkpt>
      <trkpt lat="43.57217" lon="1.16425">
        <ele>260.9</ele>
        <time>2020-11-29T12:22:14Z</time>
      </trkpt>
      <trkpt lat="43.57211" lon="1.16433">
        <ele>260</ele>
        <time>2020-11-29T12:22:15Z</time>
      </trkpt>
      <trkpt lat="43.57204" lon="1.16441">
        <ele>259.1</ele>
        <time>2020-11-29T12:22:16Z</time>
      </trkpt>
      <trkpt lat="43.57197" lon="1.16449">
        <ele>258.3</ele>
        <time>2020-11-29T12:22:17Z</time>
      </trkpt>
      <trkpt lat="43.5719" lon="1.16456">
        <ele>257.6</ele>
        <time>2020-11-29T12:22:18Z</time>
      </trkpt>
      <trkpt lat="43.57182" lon="1.16462">
        <ele>256.7</ele>
        <time>2020-11-29T12:22:19Z</time>
      </trkpt>
      <trkpt lat="43.57174" lon="1.16467">
        <ele>255.9</ele>
        <time>2020-11-29T12:22:20Z</time>
      </trkpt>
      <trkpt lat="43.57168" lon="1.16474">
        <ele>255</ele>
        <time>2020-11-29T12:22:21Z</time>
      </trkpt>
      <trkpt lat="43.57159" lon="1.16481">
        <ele>254</ele>
        <time>2020-11-29T12:22:22Z</time>
      </trkpt>
      <trkpt lat="43.57153" lon="1.16486">
        <ele>253.3</ele>
        <time>2020-11-29T12:22:23Z</time>
      </trkpt>
      <trkpt lat="43.57146" lon="1.16491">
        <ele>252.6</ele>
        <time>2020-11-29T12:22:24Z</time>
      </trkpt>
      <trkpt lat="43.57139" lon="1.16495">
        <ele>252</ele>
        <time>2020-11-29T12:22:25Z</time>
      </trkpt>
      <trkpt lat="43.57132" lon="1.16499">
        <ele>251.3</ele>
        <time>2020-11-29T12:22:26Z</time>
      </trkpt>
      <trkpt lat="43.57125" lon="1.16504">
        <ele>250.8</ele>
        <time>2020-11-29T12:22:27Z</time>
      </trkpt>
      <trkpt lat="43.5712" lon="1.16508">
        <ele>250.3</ele>
        <time>2020-11-29T12:22:28Z</time>
      </trkpt>
      <trkpt lat="43.57114" lon="1.16513">
        <ele>249.8</ele>
        <time>2020-11-29T12:22:29Z</time>
      </trkpt>
      <trkpt lat="43.57108" lon="1.16518">
        <ele>249.4</ele>
        <time>2020-11-29T12:22:30Z</time>
      </trkpt>
      <trkpt lat="43.57104" lon="1.16526">
        <ele>248.9</ele>
        <time>2020-11-29T12:22:31Z</time>
      </trkpt>
      <trkpt lat="43.571" lon="1.16534">
        <ele>248.4</ele>
        <time>2020-11-29T12:22:32Z</time>
      </trkpt>
      <trkpt lat="43.57097" lon="1.16542">
        <ele>247.9</ele>
        <time>2020-11-29T12:22:33Z</time>
      </trkpt>
      <trkpt lat="43.57096" lon="1.1655">
        <ele>247.5</ele>
        <time>2020-11-29T12:22:34Z</time>
      </trkpt>
      <trkpt lat="43.57093" lon="1.16558">
        <ele>247.1</ele>
        <time>2020-11-29T12:22:35Z</time>
      </trkpt>
      <trkpt lat="43.5709" lon="1.16566">
        <ele>246.6</ele>
        <time>2020-11-29T12:22:36Z</time>
      </trkpt>
      <trkpt lat="43.57085" lon="1.16574">
        <ele>246.1</ele>
        <time>2020-11-29T12:22:37Z</time>
      </trkpt>
      <trkpt lat="43.57081" lon="1.16587">
        <ele>245.4</ele>
        <time>2020-11-29T12:22:38Z</time>
      </trkpt>
      <trkpt lat="43.57078" lon="1.16594">
        <ele>245.1</ele>
        <time>2020-11-29T12:22:39Z</time>
      </trkpt>
      <trkpt lat="43.57073" lon="1.16604">
        <ele>244.6</ele>
        <time>2020-11-29T12:22:40Z</time>
      </trkpt>
      <trkpt lat="43.57068" lon="1.16614">
        <ele>244</ele>
        <time>2020-11-29T12:22:41Z</time>
      </trkpt>
      <trkpt lat="43.57064" lon="1.16623">
        <ele>243.4</ele>
        <time>2020-11-29T12:22:42Z</time>
      </trkpt>
      <trkpt lat="43.57058" lon="1.1663">
        <ele>244.8</ele>
        <time>2020-11-29T12:22:43Z</time>
      </trkpt>
      <trkpt lat="43.57052" lon="1.16635">
        <ele>245.9</ele>
        <time>2020-11-29T12:22:44Z</time>
      </trkpt>
      <trkpt lat="43.57047" lon="1.16637">
        <ele>246.7</ele>
        <time>2020-11-29T12:22:45Z</time>
      </trkpt>
      <trkpt lat="43.57042" lon="1.16638">
        <ele>247.4</ele>
        <time>2020-11-29T12:22:46Z</time>
      </trkpt>
      <trkpt lat="43.57037" lon="1.1664">
        <ele>243.5</ele>
        <time>2020-11-29T12:22:47Z</time>
      </trkpt>
      <trkpt lat="43.57032" lon="1.1664">
        <ele>242.3</ele>
        <time>2020-11-29T12:22:48Z</time>
      </trkpt>
      <trkpt lat="43.57029" lon="1.1664">
        <ele>241.4</ele>
        <time>2020-11-29T12:22:49Z</time>
      </trkpt>
      <trkpt lat="43.57028" lon="1.1664">
        <ele>241.1</ele>
        <time>2020-11-29T12:22:50Z</time>
      </trkpt>
      <trkpt lat="43.57025" lon="1.16641">
        <ele>240.4</ele>
        <time>2020-11-29T12:22:51Z</time>
      </trkpt>
      <trkpt lat="43.57025" lon="1.16644">
        <ele>239.9</ele>
        <time>2020-11-29T12:22:52Z</time>
      </trkpt>
      <trkpt lat="43.57026" lon="1.16645">
        <ele>239.6</ele>
        <time>2020-11-29T12:22:53Z</time>
      </trkpt>
      <trkpt lat="43.57026" lon="1.16647">
        <ele>239.3</ele>
        <time>2020-11-29T12:22:54Z</time>
      </trkpt>
      <trkpt lat="43.57025" lon="1.16653">
        <ele>238.1</ele>
        <time>2020-11-29T12:22:55Z</time>
      </trkpt>
      <trkpt lat="43.57025" lon="1.16656">
        <ele>237.5</ele>
        <time>2020-11-29T12:22:56Z</time>
      </trkpt>
      <trkpt lat="43.57026" lon="1.16658">
        <ele>236.8</ele>
        <time>2020-11-29T12:22:57Z</time>
      </trkpt>
      <trkpt lat="43.57024" lon="1.1666">
        <ele>236.7</ele>
        <time>2020-11-29T12:22:58Z</time>
      </trkpt>
      <trkpt lat="43.57024" lon="1.16661">
        <ele>236.6</ele>
        <time>2020-11-29T12:22:59Z</time>
      </trkpt>
      <trkpt lat="43.57024" lon="1.16662">
        <ele>236.5</ele>
        <time>2020-11-29T12:23:00Z</time>
      </trkpt>
      <trkpt lat="43.57023" lon="1.16663">
        <ele>236.5</ele>
        <time>2020-11-29T12:23:01Z</time>
      </trkpt>
      <trkpt lat="43.57022" lon="1.16663">
        <ele>236.4</ele>
        <time>2020-11-29T12:23:02Z</time>
      </trkpt>
      <trkpt lat="43.57022" lon="1.16663">
        <ele>236.4</ele>
        <time>2020-11-29T12:23:03Z</time>
      </trkpt>
      <trkpt lat="43.57021" lon="1.16664">
        <ele>236.3</ele>
        <time>2020-11-29T12:23:04Z</time>
      </trkpt>
      <trkpt lat="43.5702" lon="1.16664">
        <ele>236.3</ele>
        <time>2020-11-29T12:23:05Z</time>
      </trkpt>
      <trkpt lat="43.57019" lon="1.16665">
        <ele>236.2</ele>
        <time>2020-11-29T12:23:06Z</time>
      </trkpt>
      <trkpt lat="43.57019" lon="1.16665">
        <ele>236.2</ele>
        <time>2020-11-29T12:23:07Z</time>
      </trkpt>
      <trkpt lat="43.57019" lon="1.16665">
        <ele>236.2</ele>
        <time>2020-11-29T12:23:08Z</time>
      </trkpt>
      <trkpt lat="43.5702" lon="1.16665">
        <ele>236.1</ele>
        <time>2020-11-29T12:23:09Z</time>
      </trkpt>
      <trkpt lat="43.5702" lon="1.16666">
        <ele>236.1</ele>
        <time>2020-11-29T12:23:10Z</time>
      </trkpt>
      <trkpt lat="43.57019" lon="1.16666">
        <ele>236</ele>
        <time>2020-11-29T12:23:11Z</time>
      </trkpt>
      <trkpt lat="43.57019" lon="1.16666">
        <ele>236</ele>
        <time>2020-11-29T12:23:12Z</time>
      </trkpt>
      <trkpt lat="43.57019" lon="1.16666">
        <ele>235.9</ele>
        <time>2020-11-29T12:23:13Z</time>
      </trkpt>
      <trkpt lat="43.57019" lon="1.16667">
        <ele>235.9</ele>
        <time>2020-11-29T12:23:14Z</time>
      </trkpt>
      <trkpt lat="43.57019" lon="1.16667">
        <ele>235.9</ele>
        <time>2020-11-29T12:23:15Z</time>
      </trkpt>
      <trkpt lat="43.57019" lon="1.16668">
        <ele>235.8</ele>
        <time>2020-11-29T12:23:16Z</time>
      </trkpt>
      <trkpt lat="43.57019" lon="1.16668">
        <ele>235.8</ele>
        <time>2020-11-29T12:23:17Z</time>
      </trkpt>
      <trkpt lat="43.57019" lon="1.16669">
        <ele>235.8</ele>
        <time>2020-11-29T12:23:18Z</time>
      </trkpt>
      <trkpt lat="43.57019" lon="1.16669">
        <ele>235.8</ele>
        <time>2020-11-29T12:23:19Z</time>
      </trkpt>
      <trkpt lat="43.57019" lon="1.16669">
        <ele>235.8</ele>
        <time>2020-11-29T12:23:20Z</time>
      </trkpt>
      <trkpt lat="43.57019" lon="1.16669">
        <ele>235.7</ele>
        <time>2020-11-29T12:23:21Z</time>
      </trkpt>
      <trkpt lat="43.57019" lon="1.16669">
        <ele>235.7</ele>
        <time>2020-11-29T12:23:22Z</time>
      </trkpt>
      <trkpt lat="43.57018" lon="1.16669">
        <ele>235.7</ele>
        <time>2020-11-29T12:23:23Z</time>
      </trkpt>
      <trkpt lat="43.57018" lon="1.16669">
        <ele>235.7</ele>
        <time>2020-11-29T12:23:24Z</time>
      </trkpt>
      <trkpt lat="43.57017" lon="1.16669">
        <ele>235.6</ele>
        <time>2020-11-29T12:23:25Z</time>
      </trkpt>
      <trkpt lat="43.57017" lon="1.16669">
        <ele>235.6</ele>
        <time>2020-11-29T12:23:26Z</time>
      </trkpt>
      <trkpt lat="43.57016" lon="1.16668">
        <ele>235.5</ele>
        <time>2020-11-29T12:23:27Z</time>
      </trkpt>
      <trkpt lat="43.57015" lon="1.16667">
        <ele>235.4</ele>
        <time>2020-11-29T12:23:28Z</time>
      </trkpt>
      <trkpt lat="43.57014" lon="1.16666">
        <ele>235.3</ele>
        <time>2020-11-29T12:23:29Z</time>
      </trkpt>
      <trkpt lat="43.57014" lon="1.16666">
        <ele>235.3</ele>
        <time>2020-11-29T12:23:30Z</time>
      </trkpt>
      <trkpt lat="43.57013" lon="1.16666">
        <ele>235.2</ele>
        <time>2020-11-29T12:23:31Z</time>
      </trkpt>
      <trkpt lat="43.57012" lon="1.16665">
        <ele>235.2</ele>
        <time>2020-11-29T12:23:32Z</time>
      </trkpt>
      <trkpt lat="43.57012" lon="1.16665">
        <ele>235.1</ele>
        <time>2020-11-29T12:23:33Z</time>
      </trkpt>
      <trkpt lat="43.57011" lon="1.16666">
        <ele>235.1</ele>
        <time>2020-11-29T12:23:34Z</time>
      </trkpt>
      <trkpt lat="43.57011" lon="1.16666">
        <ele>235.1</ele>
        <time>2020-11-29T12:23:35Z</time>
      </trkpt>
      <trkpt lat="43.57011" lon="1.16666">
        <ele>235</ele>
        <time>2020-11-29T12:23:36Z</time>
      </trkpt>
      <trkpt lat="43.57011" lon="1.16666">
        <ele>235</ele>
        <time>2020-11-29T12:23:37Z</time>
      </trkpt>
      <trkpt lat="43.5701" lon="1.16666">
        <ele>235</ele>
        <time>2020-11-29T12:23:38Z</time>
      </trkpt>
      <trkpt lat="43.5701" lon="1.16666">
        <ele>235</ele>
        <time>2020-11-29T12:23:39Z</time>
      </trkpt>
      <trkpt lat="43.5701" lon="1.16667">
        <ele>234.9</ele>
        <time>2020-11-29T12:23:40Z</time>
      </trkpt>
      <trkpt lat="43.57009" lon="1.16667">
        <ele>234.9</ele>
        <time>2020-11-29T12:23:41Z</time>
      </trkpt>
      <trkpt lat="43.57009" lon="1.16667">
        <ele>234.9</ele>
        <time>2020-11-29T12:23:42Z</time>
      </trkpt>
      <trkpt lat="43.57009" lon="1.16667">
        <ele>234.9</ele>
        <time>2020-11-29T12:23:43Z</time>
      </trkpt>
      <trkpt lat="43.57009" lon="1.16667">
        <ele>234.8</ele>
        <time>2020-11-29T12:23:44Z</time>
      </trkpt>
      <trkpt lat="43.57008" lon="1.16668">
        <ele>234.8</ele>
        <time>2020-11-29T12:23:45Z</time>
      </trkpt>
      <trkpt lat="43.57005" lon="1.16668">
        <ele>234.5</ele>
        <time>2020-11-29T12:23:46Z</time>
      </trkpt>
      <trkpt lat="43.57004" lon="1.16668">
        <ele>234.5</ele>
        <time>2020-11-29T12:23:47Z</time>
      </trkpt>
      <trkpt lat="43.57" lon="1.16668">
        <ele>234.2</ele>
        <time>2020-11-29T12:23:48Z</time>
      </trkpt>
      <trkpt lat="43.56999" lon="1.16668">
        <ele>234</ele>
        <time>2020-11-29T12:23:49Z</time>
      </trkpt>
      <trkpt lat="43.56995" lon="1.16667">
        <ele>233.7</ele>
        <time>2020-11-29T12:23:50Z</time>
      </trkpt>
      <trkpt lat="43.56992" lon="1.16665">
        <ele>233.4</ele>
        <time>2020-11-29T12:23:51Z</time>
      </trkpt>
      <trkpt lat="43.56989" lon="1.16664">
        <ele>233.1</ele>
        <time>2020-11-29T12:23:52Z</time>
      </trkpt>
      <trkpt lat="43.56985" lon="1.16663">
        <ele>232.7</ele>
        <time>2020-11-29T12:23:53Z</time>
      </trkpt>
      <trkpt lat="43.56981" lon="1.16662">
        <ele>232.4</ele>
        <time>2020-11-29T12:23:54Z</time>
      </trkpt>
      <trkpt lat="43.56976" lon="1.1666">
        <ele>231.9</ele>
        <time>2020-11-29T12:23:55Z</time>
      </trkpt>
      <trkpt lat="43.5697" lon="1.16659">
        <ele>231.5</ele>
        <time>2020-11-29T12:23:56Z</time>
      </trkpt>
      <trkpt lat="43.56964" lon="1.16657">
        <ele>230.9</ele>
        <time>2020-11-29T12:23:57Z</time>
      </trkpt>
      <trkpt lat="43.56958" lon="1.16654">
        <ele>230.4</ele>
        <time>2020-11-29T12:23:58Z</time>
      </trkpt>
      <trkpt lat="43.56952" lon="1.16653">
        <ele>230</ele>
        <time>2020-11-29T12:23:59Z</time>
      </trkpt>
      <trkpt lat="43.56946" lon="1.1665">
        <ele>229.6</ele>
        <time>2020-11-29T12:24:00Z</time>
      </trkpt>
      <trkpt lat="43.56941" lon="1.16649">
        <ele>229.3</ele>
        <time>2020-11-29T12:24:01Z</time>
      </trkpt>
      <trkpt lat="43.56935" lon="1.16648">
        <ele>228.9</ele>
        <time>2020-11-29T12:24:02Z</time>
      </trkpt>
      <trkpt lat="43.56929" lon="1.16647">
        <ele>228.5</ele>
        <time>2020-11-29T12:24:03Z</time>
      </trkpt>
      <trkpt lat="43.56923" lon="1.16647">
        <ele>228.1</ele>
        <time>2020-11-29T12:24:04Z</time>
      </trkpt>
      <trkpt lat="43.56916" lon="1.16649">
        <ele>227.6</ele>
        <time>2020-11-29T12:24:05Z</time>
      </trkpt>
      <trkpt lat="43.56908" lon="1.1665">
        <ele>227.1</ele>
        <time>2020-11-29T12:24:06Z</time>
      </trkpt>
      <trkpt lat="43.56902" lon="1.16649">
        <ele>226.8</ele>
        <time>2020-11-29T12:24:07Z</time>
      </trkpt>
      <trkpt lat="43.56897" lon="1.16649">
        <ele>226.5</ele>
        <time>2020-11-29T12:24:08Z</time>
      </trkpt>
      <trkpt lat="43.56891" lon="1.16649">
        <ele>226.2</ele>
        <time>2020-11-29T12:24:09Z</time>
      </trkpt>
      <trkpt lat="43.56886" lon="1.1665">
        <ele>226</ele>
        <time>2020-11-29T12:24:10Z</time>
      </trkpt>
      <trkpt lat="43.56882" lon="1.16648">
        <ele>225.7</ele>
        <time>2020-11-29T12:24:11Z</time>
      </trkpt>
      <trkpt lat="43.56878" lon="1.16647">
        <ele>225.6</ele>
        <time>2020-11-29T12:24:12Z</time>
      </trkpt>
      <trkpt lat="43.5687" lon="1.16647">
        <ele>225.1</ele>
        <time>2020-11-29T12:24:13Z</time>
      </trkpt>
      <trkpt lat="43.56863" lon="1.16647">
        <ele>224.7</ele>
        <time>2020-11-29T12:24:14Z</time>
      </trkpt>
      <trkpt lat="43.56858" lon="1.16648">
        <ele>224.5</ele>
        <time>2020-11-29T12:24:15Z</time>
      </trkpt>
      <trkpt lat="43.56852" lon="1.16648">
        <ele>224.3</ele>
        <time>2020-11-29T12:24:16Z</time>
      </trkpt>
      <trkpt lat="43.56846" lon="1.1665">
        <ele>224</ele>
        <time>2020-11-29T12:24:17Z</time>
      </trkpt>
      <trkpt lat="43.56842" lon="1.16651">
        <ele>223.9</ele>
        <time>2020-11-29T12:24:18Z</time>
      </trkpt>
      <trkpt lat="43.56837" lon="1.16652">
        <ele>223.7</ele>
        <time>2020-11-29T12:24:19Z</time>
      </trkpt>
      <trkpt lat="43.56833" lon="1.16652">
        <ele>223.6</ele>
        <time>2020-11-29T12:24:20Z</time>
      </trkpt>
      <trkpt lat="43.56826" lon="1.16651">
        <ele>223.4</ele>
        <time>2020-11-29T12:24:21Z</time>
      </trkpt>
      <trkpt lat="43.56822" lon="1.16651">
        <ele>223.3</ele>
        <time>2020-11-29T12:24:22Z</time>
      </trkpt>
      <trkpt lat="43.56819" lon="1.1665">
        <ele>223.2</ele>
        <time>2020-11-29T12:24:23Z</time>
      </trkpt>
      <trkpt lat="43.56815" lon="1.16649">
        <ele>223</ele>
        <time>2020-11-29T12:24:24Z</time>
      </trkpt>
      <trkpt lat="43.56811" lon="1.16649">
        <ele>222.9</ele>
        <time>2020-11-29T12:24:25Z</time>
      </trkpt>
      <trkpt lat="43.56807" lon="1.16651">
        <ele>222.7</ele>
        <time>2020-11-29T12:24:26Z</time>
      </trkpt>
      <trkpt lat="43.56804" lon="1.16653">
        <ele>222.6</ele>
        <time>2020-11-29T12:24:27Z</time>
      </trkpt>
      <trkpt lat="43.56802" lon="1.16653">
        <ele>222.5</ele>
        <time>2020-11-29T12:24:28Z</time>
      </trkpt>
      <trkpt lat="43.56799" lon="1.16651">
        <ele>222.4</ele>
        <time>2020-11-29T12:24:29Z</time>
      </trkpt>
      <trkpt lat="43.56796" lon="1.1665">
        <ele>222.2</ele>
        <time>2020-11-29T12:24:30Z</time>
      </trkpt>
      <trkpt lat="43.56789" lon="1.16651">
        <ele>221.8</ele>
        <time>2020-11-29T12:24:31Z</time>
      </trkpt>
      <trkpt lat="43.56785" lon="1.16652">
        <ele>221.7</ele>
        <time>2020-11-29T12:24:32Z</time>
      </trkpt>
      <trkpt lat="43.56782" lon="1.16653">
        <ele>221.5</ele>
        <time>2020-11-29T12:24:33Z</time>
      </trkpt>
      <trkpt lat="43.56779" lon="1.16653">
        <ele>221.4</ele>
        <time>2020-11-29T12:24:34Z</time>
      </trkpt>
      <trkpt lat="43.56776" lon="1.16653">
        <ele>221.3</ele>
        <time>2020-11-29T12:24:35Z</time>
      </trkpt>
      <trkpt lat="43.56771" lon="1.16654">
        <ele>221.1</ele>
        <time>2020-11-29T12:24:36Z</time>
      </trkpt>
      <trkpt lat="43.56767" lon="1.16656">
        <ele>221</ele>
        <time>2020-11-29T12:24:37Z</time>
      </trkpt>
      <trkpt lat="43.56764" lon="1.16657">
        <ele>220.9</ele>
        <time>2020-11-29T12:24:38Z</time>
      </trkpt>
      <trkpt lat="43.5676" lon="1.16657">
        <ele>220.7</ele>
        <time>2020-11-29T12:24:39Z</time>
      </trkpt>
      <trkpt lat="43.56756" lon="1.16657">
        <ele>220.6</ele>
        <time>2020-11-29T12:24:40Z</time>
      </trkpt>
      <trkpt lat="43.56752" lon="1.16656">
        <ele>220.5</ele>
        <time>2020-11-29T12:24:41Z</time>
      </trkpt>
      <trkpt lat="43.56747" lon="1.16655">
        <ele>220.4</ele>
        <time>2020-11-29T12:24:42Z</time>
      </trkpt>
      <trkpt lat="43.56744" lon="1.16655">
        <ele>220.3</ele>
        <time>2020-11-29T12:24:43Z</time>
      </trkpt>
      <trkpt lat="43.56744" lon="1.16655">
        <ele>220.3</ele>
        <time>2020-11-29T12:24:44Z</time>
      </trkpt>
      <trkpt lat="43.56742" lon="1.16654">
        <ele>220.2</ele>
        <time>2020-11-29T12:24:45Z</time>
      </trkpt>
      <trkpt lat="43.56741" lon="1.16654">
        <ele>220.2</ele>
        <time>2020-11-29T12:24:46Z</time>
      </trkpt>
      <trkpt lat="43.56741" lon="1.16653">
        <ele>220.2</ele>
        <time>2020-11-29T12:24:47Z</time>
      </trkpt>
      <trkpt lat="43.5674" lon="1.16652">
        <ele>220.2</ele>
        <time>2020-11-29T12:24:48Z</time>
      </trkpt>
      <trkpt lat="43.56739" lon="1.1665">
        <ele>220.2</ele>
        <time>2020-11-29T12:24:49Z</time>
      </trkpt>
      <trkpt lat="43.56738" lon="1.16649">
        <ele>220.1</ele>
        <time>2020-11-29T12:24:50Z</time>
      </trkpt>
      <trkpt lat="43.56738" lon="1.16648">
        <ele>220.1</ele>
        <time>2020-11-29T12:24:51Z</time>
      </trkpt>
      <trkpt lat="43.56735" lon="1.16645">
        <ele>220</ele>
        <time>2020-11-29T12:24:52Z</time>
      </trkpt>
      <trkpt lat="43.56727" lon="1.16639">
        <ele>219.9</ele>
        <time>2020-11-29T12:24:53Z</time>
      </trkpt>
      <trkpt lat="43.56723" lon="1.16639">
        <ele>219.8</ele>
        <time>2020-11-29T12:24:54Z</time>
      </trkpt>
      <trkpt lat="43.56718" lon="1.16639">
        <ele>219.7</ele>
        <time>2020-11-29T12:24:55Z</time>
      </trkpt>
      <trkpt lat="43.56716" lon="1.16639">
        <ele>219.6</ele>
        <time>2020-11-29T12:24:56Z</time>
      </trkpt>
      <trkpt lat="43.56712" lon="1.16641">
        <ele>219.5</ele>
        <time>2020-11-29T12:24:57Z</time>
      </trkpt>
      <trkpt lat="43.5671" lon="1.16642">
        <ele>219.5</ele>
        <time>2020-11-29T12:24:58Z</time>
      </trkpt>
      <trkpt lat="43.56706" lon="1.16644">
        <ele>219.3</ele>
        <time>2020-11-29T12:24:59Z</time>
      </trkpt>
      <trkpt lat="43.56702" lon="1.16644">
        <ele>219.2</ele>
        <time>2020-11-29T12:25:00Z</time>
      </trkpt>
      <trkpt lat="43.56698" lon="1.16643">
        <ele>219</ele>
        <time>2020-11-29T12:25:01Z</time>
      </trkpt>
      <trkpt lat="43.56694" lon="1.16643">
        <ele>218.8</ele>
        <time>2020-11-29T12:25:02Z</time>
      </trkpt>
      <trkpt lat="43.56689" lon="1.16643">
        <ele>218.6</ele>
        <time>2020-11-29T12:25:03Z</time>
      </trkpt>
      <trkpt lat="43.56682" lon="1.1664">
        <ele>218.1</ele>
        <time>2020-11-29T12:25:04Z</time>
      </trkpt>
      <trkpt lat="43.56677" lon="1.16641">
        <ele>217.8</ele>
        <time>2020-11-29T12:25:05Z</time>
      </trkpt>
      <trkpt lat="43.56673" lon="1.1664">
        <ele>217.5</ele>
        <time>2020-11-29T12:25:07Z</time>
      </trkpt>
      <trkpt lat="43.56668" lon="1.16638">
        <ele>217.2</ele>
        <time>2020-11-29T12:25:08Z</time>
      </trkpt>
      <trkpt lat="43.56662" lon="1.16637">
        <ele>216.7</ele>
        <time>2020-11-29T12:25:09Z</time>
      </trkpt>
      <trkpt lat="43.56657" lon="1.16637">
        <ele>216.3</ele>
        <time>2020-11-29T12:25:10Z</time>
      </trkpt>
      <trkpt lat="43.56649" lon="1.16635">
        <ele>215.8</ele>
        <time>2020-11-29T12:25:11Z</time>
      </trkpt>
      <trkpt lat="43.56644" lon="1.16634">
        <ele>215.4</ele>
        <time>2020-11-29T12:25:12Z</time>
      </trkpt>
      <trkpt lat="43.56638" lon="1.16633">
        <ele>214.9</ele>
        <time>2020-11-29T12:25:13Z</time>
      </trkpt>
      <trkpt lat="43.56633" lon="1.1663">
        <ele>214.6</ele>
        <time>2020-11-29T12:25:14Z</time>
      </trkpt>
      <trkpt lat="43.56628" lon="1.16628">
        <ele>214.4</ele>
        <time>2020-11-29T12:25:15Z</time>
      </trkpt>
      <trkpt lat="43.56625" lon="1.16626">
        <ele>214.3</ele>
        <time>2020-11-29T12:25:16Z</time>
      </trkpt>
      <trkpt lat="43.56621" lon="1.16626">
        <ele>214.1</ele>
        <time>2020-11-29T12:25:17Z</time>
      </trkpt>
      <trkpt lat="43.56617" lon="1.16626">
        <ele>214</ele>
        <time>2020-11-29T12:25:18Z</time>
      </trkpt>
      <trkpt lat="43.56612" lon="1.16625">
        <ele>213.9</ele>
        <time>2020-11-29T12:25:19Z</time>
      </trkpt>
      <trkpt lat="43.56606" lon="1.16623">
        <ele>213.7</ele>
        <time>2020-11-29T12:25:20Z</time>
      </trkpt>
      <trkpt lat="43.56601" lon="1.16623">
        <ele>213.6</ele>
        <time>2020-11-29T12:25:21Z</time>
      </trkpt>
      <trkpt lat="43.56596" lon="1.16622">
        <ele>213.5</ele>
        <time>2020-11-29T12:25:22Z</time>
      </trkpt>
      <trkpt lat="43.56593" lon="1.16621">
        <ele>213.5</ele>
        <time>2020-11-29T12:25:23Z</time>
      </trkpt>
      <trkpt lat="43.56589" lon="1.1662">
        <ele>213.4</ele>
        <time>2020-11-29T12:25:24Z</time>
      </trkpt>
      <trkpt lat="43.56585" lon="1.16618">
        <ele>213.3</ele>
        <time>2020-11-29T12:25:25Z</time>
      </trkpt>
      <trkpt lat="43.56579" lon="1.16618">
        <ele>213.3</ele>
        <time>2020-11-29T12:25:26Z</time>
      </trkpt>
      <trkpt lat="43.56573" lon="1.16616">
        <ele>213.2</ele>
        <time>2020-11-29T12:25:27Z</time>
      </trkpt>
      <trkpt lat="43.56568" lon="1.16614">
        <ele>213.2</ele>
        <time>2020-11-29T12:25:28Z</time>
      </trkpt>
      <trkpt lat="43.56563" lon="1.16613">
        <ele>213.2</ele>
        <time>2020-11-29T12:25:29Z</time>
      </trkpt>
      <trkpt lat="43.56557" lon="1.16612">
        <ele>213.2</ele>
        <time>2020-11-29T12:25:30Z</time>
      </trkpt>
      <trkpt lat="43.56552" lon="1.16612">
        <ele>213.2</ele>
        <time>2020-11-29T12:25:31Z</time>
      </trkpt>
      <trkpt lat="43.56549" lon="1.16613">
        <ele>213.2</ele>
        <time>2020-11-29T12:25:32Z</time>
      </trkpt>
      <trkpt lat="43.56545" lon="1.16612">
        <ele>213.2</ele>
        <time>2020-11-29T12:25:33Z</time>
      </trkpt>
      <trkpt lat="43.5654" lon="1.16611">
        <ele>213.2</ele>
        <time>2020-11-29T12:25:34Z</time>
      </trkpt>
      <trkpt lat="43.56536" lon="1.1661">
        <ele>213.2</ele>
        <time>2020-11-29T12:25:35Z</time>
      </trkpt>
      <trkpt lat="43.56534" lon="1.1661">
        <ele>213.2</ele>
        <time>2020-11-29T12:25:36Z</time>
      </trkpt>
      <trkpt lat="43.56528" lon="1.16608">
        <ele>213.2</ele>
        <time>2020-11-29T12:25:37Z</time>
      </trkpt>
      <trkpt lat="43.56525" lon="1.16608">
        <ele>213.2</ele>
        <time>2020-11-29T12:25:38Z</time>
      </trkpt>
      <trkpt lat="43.56524" lon="1.16607">
        <ele>213.2</ele>
        <time>2020-11-29T12:25:39Z</time>
      </trkpt>
      <trkpt lat="43.56524" lon="1.16606">
        <ele>213.2</ele>
        <time>2020-11-29T12:25:40Z</time>
      </trkpt>
      <trkpt lat="43.56524" lon="1.16606">
        <ele>213.2</ele>
        <time>2020-11-29T12:25:41Z</time>
      </trkpt>
      <trkpt lat="43.56523" lon="1.16606">
        <ele>213.2</ele>
        <time>2020-11-29T12:25:42Z</time>
      </trkpt>
      <trkpt lat="43.56523" lon="1.16608">
        <ele>213.3</ele>
        <time>2020-11-29T12:25:43Z</time>
      </trkpt>
      <trkpt lat="43.56523" lon="1.16607">
        <ele>213.3</ele>
        <time>2020-11-29T12:25:44Z</time>
      </trkpt>
      <trkpt lat="43.56524" lon="1.16604">
        <ele>213.3</ele>
        <time>2020-11-29T12:25:45Z</time>
      </trkpt>
      <trkpt lat="43.56524" lon="1.16602">
        <ele>213.3</ele>
        <time>2020-11-29T12:25:46Z</time>
      </trkpt>
      <trkpt lat="43.56525" lon="1.16595">
        <ele>213.4</ele>
        <time>2020-11-29T12:25:47Z</time>
      </trkpt>
      <trkpt lat="43.56523" lon="1.1659">
        <ele>213.4</ele>
        <time>2020-11-29T12:25:48Z</time>
      </trkpt>
      <trkpt lat="43.56522" lon="1.16584">
        <ele>213.4</ele>
        <time>2020-11-29T12:25:49Z</time>
      </trkpt>
      <trkpt lat="43.56522" lon="1.16581">
        <ele>213.4</ele>
        <time>2020-11-29T12:25:50Z</time>
      </trkpt>
      <trkpt lat="43.56522" lon="1.16576">
        <ele>213.4</ele>
        <time>2020-11-29T12:25:51Z</time>
      </trkpt>
      <trkpt lat="43.56523" lon="1.16573">
        <ele>213.4</ele>
        <time>2020-11-29T12:25:52Z</time>
      </trkpt>
      <trkpt lat="43.56523" lon="1.16571">
        <ele>213.4</ele>
        <time>2020-11-29T12:25:53Z</time>
      </trkpt>
      <trkpt lat="43.56525" lon="1.16564">
        <ele>213.4</ele>
        <time>2020-11-29T12:25:54Z</time>
      </trkpt>
      <trkpt lat="43.56524" lon="1.1656">
        <ele>213.4</ele>
        <time>2020-11-29T12:25:55Z</time>
      </trkpt>
      <trkpt lat="43.56524" lon="1.16554">
        <ele>213.4</ele>
        <time>2020-11-29T12:25:56Z</time>
      </trkpt>
      <trkpt lat="43.56524" lon="1.16551">
        <ele>213.4</ele>
        <time>2020-11-29T12:25:57Z</time>
      </trkpt>
      <trkpt lat="43.56523" lon="1.16544">
        <ele>213.4</ele>
        <time>2020-11-29T12:25:58Z</time>
      </trkpt>
      <trkpt lat="43.56524" lon="1.16535">
        <ele>213.5</ele>
        <time>2020-11-29T12:25:59Z</time>
      </trkpt>
      <trkpt lat="43.56524" lon="1.1653">
        <ele>213.5</ele>
        <time>2020-11-29T12:26:00Z</time>
      </trkpt>
      <trkpt lat="43.56523" lon="1.16525">
        <ele>213.5</ele>
        <time>2020-11-29T12:26:01Z</time>
      </trkpt>
      <trkpt lat="43.56523" lon="1.16522">
        <ele>213.5</ele>
        <time>2020-11-29T12:26:02Z</time>
      </trkpt>
      <trkpt lat="43.56523" lon="1.16515">
        <ele>213.5</ele>
        <time>2020-11-29T12:26:03Z</time>
      </trkpt>
      <trkpt lat="43.56524" lon="1.16511">
        <ele>213.5</ele>
        <time>2020-11-29T12:26:04Z</time>
      </trkpt>
      <trkpt lat="43.56524" lon="1.16503">
        <ele>213.5</ele>
        <time>2020-11-29T12:26:05Z</time>
      </trkpt>
      <trkpt lat="43.56525" lon="1.16496">
        <ele>213.5</ele>
        <time>2020-11-29T12:26:06Z</time>
      </trkpt>
      <trkpt lat="43.56525" lon="1.16487">
        <ele>213.5</ele>
        <time>2020-11-29T12:26:07Z</time>
      </trkpt>
      <trkpt lat="43.56525" lon="1.16479">
        <ele>213.5</ele>
        <time>2020-11-29T12:26:08Z</time>
      </trkpt>
      <trkpt lat="43.56525" lon="1.16473">
        <ele>213.6</ele>
        <time>2020-11-29T12:26:09Z</time>
      </trkpt>
      <trkpt lat="43.56525" lon="1.16466">
        <ele>213.6</ele>
        <time>2020-11-29T12:26:10Z</time>
      </trkpt>
      <trkpt lat="43.56525" lon="1.16462">
        <ele>213.6</ele>
        <time>2020-11-29T12:26:11Z</time>
      </trkpt>
      <trkpt lat="43.56526" lon="1.16454">
        <ele>213.6</ele>
        <time>2020-11-29T12:26:12Z</time>
      </trkpt>
      <trkpt lat="43.56527" lon="1.16444">
        <ele>213.6</ele>
        <time>2020-11-29T12:26:13Z</time>
      </trkpt>
      <trkpt lat="43.56527" lon="1.1644">
        <ele>213.7</ele>
        <time>2020-11-29T12:26:14Z</time>
      </trkpt>
      <trkpt lat="43.56527" lon="1.16433">
        <ele>213.7</ele>
        <time>2020-11-29T12:26:15Z</time>
      </trkpt>
      <trkpt lat="43.56528" lon="1.16425">
        <ele>213.7</ele>
        <time>2020-11-29T12:26:16Z</time>
      </trkpt>
      <trkpt lat="43.56529" lon="1.16417">
        <ele>213.7</ele>
        <time>2020-11-29T12:26:17Z</time>
      </trkpt>
      <trkpt lat="43.56531" lon="1.16408">
        <ele>213.8</ele>
        <time>2020-11-29T12:26:18Z</time>
      </trkpt>
      <trkpt lat="43.56531" lon="1.16403">
        <ele>213.8</ele>
        <time>2020-11-29T12:26:19Z</time>
      </trkpt>
      <trkpt lat="43.56533" lon="1.16395">
        <ele>213.8</ele>
        <time>2020-11-29T12:26:20Z</time>
      </trkpt>
      <trkpt lat="43.56534" lon="1.16387">
        <ele>213.8</ele>
        <time>2020-11-29T12:26:21Z</time>
      </trkpt>
      <trkpt lat="43.56536" lon="1.1638">
        <ele>213.8</ele>
        <time>2020-11-29T12:26:22Z</time>
      </trkpt>
      <trkpt lat="43.56536" lon="1.16375">
        <ele>213.9</ele>
        <time>2020-11-29T12:26:23Z</time>
      </trkpt>
      <trkpt lat="43.56537" lon="1.16369">
        <ele>213.9</ele>
        <time>2020-11-29T12:26:24Z</time>
      </trkpt>
      <trkpt lat="43.56537" lon="1.16365">
        <ele>213.9</ele>
        <time>2020-11-29T12:26:25Z</time>
      </trkpt>
      <trkpt lat="43.56539" lon="1.16357">
        <ele>213.9</ele>
        <time>2020-11-29T12:26:26Z</time>
      </trkpt>
      <trkpt lat="43.5654" lon="1.1635">
        <ele>213.9</ele>
        <time>2020-11-29T12:26:27Z</time>
      </trkpt>
      <trkpt lat="43.56542" lon="1.16344">
        <ele>213.9</ele>
        <time>2020-11-29T12:26:28Z</time>
      </trkpt>
      <trkpt lat="43.56542" lon="1.16338">
        <ele>213.9</ele>
        <time>2020-11-29T12:26:29Z</time>
      </trkpt>
      <trkpt lat="43.56543" lon="1.16333">
        <ele>213.9</ele>
        <time>2020-11-29T12:26:30Z</time>
      </trkpt>
      <trkpt lat="43.56544" lon="1.16326">
        <ele>214</ele>
        <time>2020-11-29T12:26:31Z</time>
      </trkpt>
      <trkpt lat="43.56545" lon="1.16319">
        <ele>214</ele>
        <time>2020-11-29T12:26:32Z</time>
      </trkpt>
      <trkpt lat="43.56547" lon="1.16311">
        <ele>214</ele>
        <time>2020-11-29T12:26:33Z</time>
      </trkpt>
      <trkpt lat="43.56548" lon="1.16304">
        <ele>214</ele>
        <time>2020-11-29T12:26:34Z</time>
      </trkpt>
      <trkpt lat="43.5655" lon="1.16297">
        <ele>214.1</ele>
        <time>2020-11-29T12:26:35Z</time>
      </trkpt>
      <trkpt lat="43.5655" lon="1.16291">
        <ele>214.1</ele>
        <time>2020-11-29T12:26:36Z</time>
      </trkpt>
      <trkpt lat="43.56552" lon="1.16286">
        <ele>214.1</ele>
        <time>2020-11-29T12:26:37Z</time>
      </trkpt>
      <trkpt lat="43.56553" lon="1.16278">
        <ele>214.1</ele>
        <time>2020-11-29T12:26:38Z</time>
      </trkpt>
      <trkpt lat="43.56555" lon="1.16272">
        <ele>214.2</ele>
        <time>2020-11-29T12:26:39Z</time>
      </trkpt>
      <trkpt lat="43.56556" lon="1.16265">
        <ele>214.2</ele>
        <time>2020-11-29T12:26:40Z</time>
      </trkpt>
      <trkpt lat="43.56557" lon="1.16258">
        <ele>214.2</ele>
        <time>2020-11-29T12:26:41Z</time>
      </trkpt>
      <trkpt lat="43.56558" lon="1.16251">
        <ele>214.3</ele>
        <time>2020-11-29T12:26:42Z</time>
      </trkpt>
      <trkpt lat="43.56559" lon="1.16244">
        <ele>214.4</ele>
        <time>2020-11-29T12:26:43Z</time>
      </trkpt>
      <trkpt lat="43.56559" lon="1.16239">
        <ele>214.4</ele>
        <time>2020-11-29T12:26:44Z</time>
      </trkpt>
      <trkpt lat="43.56559" lon="1.16234">
        <ele>214.5</ele>
        <time>2020-11-29T12:26:45Z</time>
      </trkpt>
      <trkpt lat="43.5656" lon="1.1623">
        <ele>214.5</ele>
        <time>2020-11-29T12:26:46Z</time>
      </trkpt>
      <trkpt lat="43.5656" lon="1.16228">
        <ele>214.5</ele>
        <time>2020-11-29T12:26:47Z</time>
      </trkpt>
      <trkpt lat="43.56561" lon="1.16224">
        <ele>214.6</ele>
        <time>2020-11-29T12:26:48Z</time>
      </trkpt>
      <trkpt lat="43.56561" lon="1.16217">
        <ele>214.7</ele>
        <time>2020-11-29T12:26:49Z</time>
      </trkpt>
      <trkpt lat="43.56561" lon="1.1621">
        <ele>214.7</ele>
        <time>2020-11-29T12:26:50Z</time>
      </trkpt>
      <trkpt lat="43.56561" lon="1.16206">
        <ele>214.8</ele>
        <time>2020-11-29T12:26:51Z</time>
      </trkpt>
      <trkpt lat="43.56561" lon="1.16204">
        <ele>214.8</ele>
        <time>2020-11-29T12:26:52Z</time>
      </trkpt>
      <trkpt lat="43.56558" lon="1.16198">
        <ele>214.9</ele>
        <time>2020-11-29T12:26:53Z</time>
      </trkpt>
      <trkpt lat="43.56554" lon="1.16195">
        <ele>215.1</ele>
        <time>2020-11-29T12:26:54Z</time>
      </trkpt>
      <trkpt lat="43.56551" lon="1.16191">
        <ele>215.2</ele>
        <time>2020-11-29T12:26:55Z</time>
      </trkpt>
      <trkpt lat="43.56549" lon="1.16189">
        <ele>215.3</ele>
        <time>2020-11-29T12:26:56Z</time>
      </trkpt>
      <trkpt lat="43.56548" lon="1.16189">
        <ele>215.3</ele>
        <time>2020-11-29T12:26:57Z</time>
      </trkpt>
      <trkpt lat="43.56546" lon="1.16188">
        <ele>215.3</ele>
        <time>2020-11-29T12:26:58Z</time>
      </trkpt>
      <trkpt lat="43.56545" lon="1.16187">
        <ele>215.3</ele>
        <time>2020-11-29T12:26:59Z</time>
      </trkpt>
      <trkpt lat="43.56543" lon="1.16187">
        <ele>215.3</ele>
        <time>2020-11-29T12:27:00Z</time>
      </trkpt>
      <trkpt lat="43.56541" lon="1.16187">
        <ele>215.4</ele>
        <time>2020-11-29T12:27:01Z</time>
      </trkpt>
      <trkpt lat="43.5654" lon="1.16186">
        <ele>215.4</ele>
        <time>2020-11-29T12:27:02Z</time>
      </trkpt>
      <trkpt lat="43.56539" lon="1.16186">
        <ele>215.4</ele>
        <time>2020-11-29T12:27:03Z</time>
      </trkpt>
      <trkpt lat="43.56536" lon="1.16184">
        <ele>215.4</ele>
        <time>2020-11-29T12:27:04Z</time>
      </trkpt>
      <trkpt lat="43.56534" lon="1.16182">
        <ele>215.5</ele>
        <time>2020-11-29T12:27:05Z</time>
      </trkpt>
      <trkpt lat="43.5653" lon="1.16181">
        <ele>215.5</ele>
        <time>2020-11-29T12:27:06Z</time>
      </trkpt>
      <trkpt lat="43.56527" lon="1.1618">
        <ele>215.5</ele>
        <time>2020-11-29T12:27:07Z</time>
      </trkpt>
      <trkpt lat="43.56524" lon="1.16178">
        <ele>215.6</ele>
        <time>2020-11-29T12:27:08Z</time>
      </trkpt>
      <trkpt lat="43.56522" lon="1.16176">
        <ele>215.6</ele>
        <time>2020-11-29T12:27:09Z</time>
      </trkpt>
      <trkpt lat="43.56519" lon="1.16174">
        <ele>215.6</ele>
        <time>2020-11-29T12:27:10Z</time>
      </trkpt>
      <trkpt lat="43.56515" lon="1.16171">
        <ele>215.6</ele>
        <time>2020-11-29T12:27:11Z</time>
      </trkpt>
      <trkpt lat="43.56512" lon="1.1617">
        <ele>215.6</ele>
        <time>2020-11-29T12:27:12Z</time>
      </trkpt>
      <trkpt lat="43.56511" lon="1.1617">
        <ele>215.6</ele>
        <time>2020-11-29T12:27:13Z</time>
      </trkpt>
      <trkpt lat="43.56508" lon="1.1617">
        <ele>215.6</ele>
        <time>2020-11-29T12:27:14Z</time>
      </trkpt>
      <trkpt lat="43.56507" lon="1.16169">
        <ele>215.6</ele>
        <time>2020-11-29T12:27:15Z</time>
      </trkpt>
      <trkpt lat="43.56506" lon="1.16168">
        <ele>215.6</ele>
        <time>2020-11-29T12:27:16Z</time>
      </trkpt>
      <trkpt lat="43.56505" lon="1.16167">
        <ele>215.6</ele>
        <time>2020-11-29T12:27:17Z</time>
      </trkpt>
      <trkpt lat="43.56504" lon="1.16167">
        <ele>215.6</ele>
        <time>2020-11-29T12:27:18Z</time>
      </trkpt>
      <trkpt lat="43.56501" lon="1.16167">
        <ele>215.6</ele>
        <time>2020-11-29T12:27:19Z</time>
      </trkpt>
      <trkpt lat="43.565" lon="1.16167">
        <ele>215.6</ele>
        <time>2020-11-29T12:27:20Z</time>
      </trkpt>
      <trkpt lat="43.56499" lon="1.16166">
        <ele>215.6</ele>
        <time>2020-11-29T12:27:21Z</time>
      </trkpt>
      <trkpt lat="43.56496" lon="1.16166">
        <ele>215.6</ele>
        <time>2020-11-29T12:27:22Z</time>
      </trkpt>
      <trkpt lat="43.56493" lon="1.16164">
        <ele>215.6</ele>
        <time>2020-11-29T12:27:23Z</time>
      </trkpt>
      <trkpt lat="43.5649" lon="1.16162">
        <ele>215.6</ele>
        <time>2020-11-29T12:27:24Z</time>
      </trkpt>
      <trkpt lat="43.56486" lon="1.16161">
        <ele>215.7</ele>
        <time>2020-11-29T12:27:25Z</time>
      </trkpt>
      <trkpt lat="43.56485" lon="1.16161">
        <ele>215.7</ele>
        <time>2020-11-29T12:27:26Z</time>
      </trkpt>
      <trkpt lat="43.56482" lon="1.1616">
        <ele>215.7</ele>
        <time>2020-11-29T12:27:27Z</time>
      </trkpt>
      <trkpt lat="43.5648" lon="1.16159">
        <ele>215.7</ele>
        <time>2020-11-29T12:27:28Z</time>
      </trkpt>
      <trkpt lat="43.56477" lon="1.16158">
        <ele>215.7</ele>
        <time>2020-11-29T12:27:29Z</time>
      </trkpt>
      <trkpt lat="43.56473" lon="1.16156">
        <ele>215.8</ele>
        <time>2020-11-29T12:27:30Z</time>
      </trkpt>
      <trkpt lat="43.5647" lon="1.16155">
        <ele>215.8</ele>
        <time>2020-11-29T12:27:31Z</time>
      </trkpt>
      <trkpt lat="43.56469" lon="1.16154">
        <ele>215.8</ele>
        <time>2020-11-29T12:27:32Z</time>
      </trkpt>
      <trkpt lat="43.56466" lon="1.16155">
        <ele>215.9</ele>
        <time>2020-11-29T12:27:33Z</time>
      </trkpt>
      <trkpt lat="43.56465" lon="1.16154">
        <ele>215.9</ele>
        <time>2020-11-29T12:27:34Z</time>
      </trkpt>
      <trkpt lat="43.56463" lon="1.16152">
        <ele>215.9</ele>
        <time>2020-11-29T12:27:35Z</time>
      </trkpt>
      <trkpt lat="43.56458" lon="1.16147">
        <ele>216</ele>
        <time>2020-11-29T12:27:36Z</time>
      </trkpt>
      <trkpt lat="43.56455" lon="1.16144">
        <ele>216</ele>
        <time>2020-11-29T12:27:37Z</time>
      </trkpt>
      <trkpt lat="43.56451" lon="1.16141">
        <ele>216.1</ele>
        <time>2020-11-29T12:27:38Z</time>
      </trkpt>
      <trkpt lat="43.5645" lon="1.1614">
        <ele>216.1</ele>
        <time>2020-11-29T12:27:39Z</time>
      </trkpt>
      <trkpt lat="43.56446" lon="1.16137">
        <ele>216.1</ele>
        <time>2020-11-29T12:27:40Z</time>
      </trkpt>
      <trkpt lat="43.56443" lon="1.16135">
        <ele>216.1</ele>
        <time>2020-11-29T12:27:41Z</time>
      </trkpt>
      <trkpt lat="43.56441" lon="1.16134">
        <ele>216.1</ele>
        <time>2020-11-29T12:27:42Z</time>
      </trkpt>
      <trkpt lat="43.56438" lon="1.16131">
        <ele>216.1</ele>
        <time>2020-11-29T12:27:43Z</time>
      </trkpt>
      <trkpt lat="43.56435" lon="1.16129">
        <ele>216</ele>
        <time>2020-11-29T12:27:44Z</time>
      </trkpt>
      <trkpt lat="43.56433" lon="1.16127">
        <ele>216</ele>
        <time>2020-11-29T12:27:45Z</time>
      </trkpt>
      <trkpt lat="43.56432" lon="1.16127">
        <ele>216</ele>
        <time>2020-11-29T12:27:46Z</time>
      </trkpt>
      <trkpt lat="43.56432" lon="1.16128">
        <ele>215.9</ele>
        <time>2020-11-29T12:27:47Z</time>
      </trkpt>
      <trkpt lat="43.56429" lon="1.16128">
        <ele>215.9</ele>
        <time>2020-11-29T12:27:48Z</time>
      </trkpt>
      <trkpt lat="43.56427" lon="1.16128">
        <ele>215.8</ele>
        <time>2020-11-29T12:27:49Z</time>
      </trkpt>
      <trkpt lat="43.56426" lon="1.1613">
        <ele>215.7</ele>
        <time>2020-11-29T12:27:50Z</time>
      </trkpt>
      <trkpt lat="43.56425" lon="1.1613">
        <ele>215.7</ele>
        <time>2020-11-29T12:27:51Z</time>
      </trkpt>
      <trkpt lat="43.56424" lon="1.16129">
        <ele>215.6</ele>
        <time>2020-11-29T12:27:52Z</time>
      </trkpt>
      <trkpt lat="43.56422" lon="1.16128">
        <ele>215.5</ele>
        <time>2020-11-29T12:27:53Z</time>
      </trkpt>
      <trkpt lat="43.56421" lon="1.16127">
        <ele>215.5</ele>
        <time>2020-11-29T12:27:54Z</time>
      </trkpt>
      <trkpt lat="43.56421" lon="1.16127">
        <ele>215.5</ele>
        <time>2020-11-29T12:27:55Z</time>
      </trkpt>
      <trkpt lat="43.5642" lon="1.16127">
        <ele>215.4</ele>
        <time>2020-11-29T12:27:56Z</time>
      </trkpt>
      <trkpt lat="43.56419" lon="1.16127">
        <ele>215.4</ele>
        <time>2020-11-29T12:27:57Z</time>
      </trkpt>
      <trkpt lat="43.56418" lon="1.16127">
        <ele>215.4</ele>
        <time>2020-11-29T12:27:58Z</time>
      </trkpt>
      <trkpt lat="43.56417" lon="1.16127">
        <ele>215.3</ele>
        <time>2020-11-29T12:27:59Z</time>
      </trkpt>
      <trkpt lat="43.56415" lon="1.16127">
        <ele>215.3</ele>
        <time>2020-11-29T12:28:00Z</time>
      </trkpt>
      <trkpt lat="43.56414" lon="1.16126">
        <ele>215.3</ele>
        <time>2020-11-29T12:28:01Z</time>
      </trkpt>
      <trkpt lat="43.56413" lon="1.16125">
        <ele>215.3</ele>
        <time>2020-11-29T12:28:02Z</time>
      </trkpt>
      <trkpt lat="43.56412" lon="1.16125">
        <ele>215.3</ele>
        <time>2020-11-29T12:28:03Z</time>
      </trkpt>
      <trkpt lat="43.56412" lon="1.16125">
        <ele>215.3</ele>
        <time>2020-11-29T12:28:04Z</time>
      </trkpt>
      <trkpt lat="43.56412" lon="1.16126">
        <ele>215.4</ele>
        <time>2020-11-29T12:28:05Z</time>
      </trkpt>
      <trkpt lat="43.56412" lon="1.16126">
        <ele>215.4</ele>
        <time>2020-11-29T12:28:06Z</time>
      </trkpt>
      <trkpt lat="43.56411" lon="1.16126">
        <ele>215.4</ele>
        <time>2020-11-29T12:28:07Z</time>
      </trkpt>
      <trkpt lat="43.56411" lon="1.16126">
        <ele>215.4</ele>
        <time>2020-11-29T12:28:08Z</time>
      </trkpt>
      <trkpt lat="43.5641" lon="1.16126">
        <ele>215.4</ele>
        <time>2020-11-29T12:28:09Z</time>
      </trkpt>
      <trkpt lat="43.5641" lon="1.16127">
        <ele>215.4</ele>
        <time>2020-11-29T12:28:10Z</time>
      </trkpt>
      <trkpt lat="43.5641" lon="1.16126">
        <ele>215.4</ele>
        <time>2020-11-29T12:28:11Z</time>
      </trkpt>
      <trkpt lat="43.5641" lon="1.16126">
        <ele>215.4</ele>
        <time>2020-11-29T12:28:12Z</time>
      </trkpt>
      <trkpt lat="43.56409" lon="1.16126">
        <ele>215.4</ele>
        <time>2020-11-29T12:28:13Z</time>
      </trkpt>
      <trkpt lat="43.56409" lon="1.16126">
        <ele>215.5</ele>
        <time>2020-11-29T12:28:14Z</time>
      </trkpt>
      <trkpt lat="43.56408" lon="1.16126">
        <ele>215.5</ele>
        <time>2020-11-29T12:28:15Z</time>
      </trkpt>
      <trkpt lat="43.56408" lon="1.16126">
        <ele>215.5</ele>
        <time>2020-11-29T12:28:16Z</time>
      </trkpt>
      <trkpt lat="43.56407" lon="1.16127">
        <ele>215.5</ele>
        <time>2020-11-29T12:28:17Z</time>
      </trkpt>
      <trkpt lat="43.56406" lon="1.16128">
        <ele>215.6</ele>
        <time>2020-11-29T12:28:18Z</time>
      </trkpt>
      <trkpt lat="43.56406" lon="1.16128">
        <ele>215.6</ele>
        <time>2020-11-29T12:28:19Z</time>
      </trkpt>
      <trkpt lat="43.56404" lon="1.16128">
        <ele>215.7</ele>
        <time>2020-11-29T12:28:20Z</time>
      </trkpt>
      <trkpt lat="43.56402" lon="1.16127">
        <ele>215.8</ele>
        <time>2020-11-29T12:28:21Z</time>
      </trkpt>
      <trkpt lat="43.56401" lon="1.16126">
        <ele>215.9</ele>
        <time>2020-11-29T12:28:22Z</time>
      </trkpt>
      <trkpt lat="43.564" lon="1.16125">
        <ele>216</ele>
        <time>2020-11-29T12:28:23Z</time>
      </trkpt>
      <trkpt lat="43.56398" lon="1.16123">
        <ele>216.1</ele>
        <time>2020-11-29T12:28:24Z</time>
      </trkpt>
      <trkpt lat="43.56397" lon="1.16122">
        <ele>216.2</ele>
        <time>2020-11-29T12:28:25Z</time>
      </trkpt>
      <trkpt lat="43.56396" lon="1.1612">
        <ele>216.2</ele>
        <time>2020-11-29T12:28:26Z</time>
      </trkpt>
      <trkpt lat="43.56396" lon="1.16118">
        <ele>216.3</ele>
        <time>2020-11-29T12:28:27Z</time>
      </trkpt>
      <trkpt lat="43.56395" lon="1.16117">
        <ele>216.4</ele>
        <time>2020-11-29T12:28:28Z</time>
      </trkpt>
      <trkpt lat="43.56395" lon="1.16116">
        <ele>216.4</ele>
        <time>2020-11-29T12:28:29Z</time>
      </trkpt>
      <trkpt lat="43.56394" lon="1.16114">
        <ele>216.5</ele>
        <time>2020-11-29T12:28:30Z</time>
      </trkpt>
      <trkpt lat="43.56395" lon="1.16114">
        <ele>216.5</ele>
        <time>2020-11-29T12:28:31Z</time>
      </trkpt>
      <trkpt lat="43.56393" lon="1.16113">
        <ele>216.6</ele>
        <time>2020-11-29T12:28:32Z</time>
      </trkpt>
      <trkpt lat="43.56391" lon="1.16113">
        <ele>216.7</ele>
        <time>2020-11-29T12:28:33Z</time>
      </trkpt>
      <trkpt lat="43.5639" lon="1.16113">
        <ele>216.7</ele>
        <time>2020-11-29T12:28:34Z</time>
      </trkpt>
      <trkpt lat="43.56389" lon="1.16114">
        <ele>216.8</ele>
        <time>2020-11-29T12:28:35Z</time>
      </trkpt>
      <trkpt lat="43.56386" lon="1.16112">
        <ele>216.9</ele>
        <time>2020-11-29T12:28:36Z</time>
      </trkpt>
      <trkpt lat="43.56384" lon="1.16111">
        <ele>216.9</ele>
        <time>2020-11-29T12:28:37Z</time>
      </trkpt>
      <trkpt lat="43.5638" lon="1.16111">
        <ele>217</ele>
        <time>2020-11-29T12:28:38Z</time>
      </trkpt>
      <trkpt lat="43.56379" lon="1.16111">
        <ele>217.1</ele>
        <time>2020-11-29T12:28:39Z</time>
      </trkpt>
      <trkpt lat="43.56376" lon="1.16111">
        <ele>217.2</ele>
        <time>2020-11-29T12:28:40Z</time>
      </trkpt>
      <trkpt lat="43.56373" lon="1.16111">
        <ele>217.3</ele>
        <time>2020-11-29T12:28:41Z</time>
      </trkpt>
      <trkpt lat="43.56372" lon="1.1611">
        <ele>217.3</ele>
        <time>2020-11-29T12:28:42Z</time>
      </trkpt>
      <trkpt lat="43.56369" lon="1.16107">
        <ele>217.5</ele>
        <time>2020-11-29T12:28:43Z</time>
      </trkpt>
      <trkpt lat="43.56368" lon="1.16105">
        <ele>217.5</ele>
        <time>2020-11-29T12:28:44Z</time>
      </trkpt>
      <trkpt lat="43.56368" lon="1.16105">
        <ele>217.5</ele>
        <time>2020-11-29T12:28:45Z</time>
      </trkpt>
      <trkpt lat="43.56365" lon="1.16106">
        <ele>217.7</ele>
        <time>2020-11-29T12:28:46Z</time>
      </trkpt>
      <trkpt lat="43.56362" lon="1.16106">
        <ele>217.8</ele>
        <time>2020-11-29T12:28:47Z</time>
      </trkpt>
      <trkpt lat="43.56358" lon="1.16106">
        <ele>217.9</ele>
        <time>2020-11-29T12:28:48Z</time>
      </trkpt>
      <trkpt lat="43.56355" lon="1.16107">
        <ele>218</ele>
        <time>2020-11-29T12:28:49Z</time>
      </trkpt>
      <trkpt lat="43.56354" lon="1.16108">
        <ele>218</ele>
        <time>2020-11-29T12:28:50Z</time>
      </trkpt>
      <trkpt lat="43.56352" lon="1.1611">
        <ele>218.1</ele>
        <time>2020-11-29T12:28:51Z</time>
      </trkpt>
      <trkpt lat="43.5635" lon="1.16109">
        <ele>218.1</ele>
        <time>2020-11-29T12:28:52Z</time>
      </trkpt>
      <trkpt lat="43.56349" lon="1.16109">
        <ele>218.1</ele>
        <time>2020-11-29T12:28:53Z</time>
      </trkpt>
      <trkpt lat="43.56345" lon="1.16108">
        <ele>218.2</ele>
        <time>2020-11-29T12:28:54Z</time>
      </trkpt>
      <trkpt lat="43.56342" lon="1.16109">
        <ele>218.2</ele>
        <time>2020-11-29T12:28:55Z</time>
      </trkpt>
      <trkpt lat="43.56339" lon="1.16109">
        <ele>218.2</ele>
        <time>2020-11-29T12:28:56Z</time>
      </trkpt>
      <trkpt lat="43.56337" lon="1.16113">
        <ele>218.2</ele>
        <time>2020-11-29T12:28:57Z</time>
      </trkpt>
      <trkpt lat="43.56333" lon="1.16114">
        <ele>218.2</ele>
        <time>2020-11-29T12:28:58Z</time>
      </trkpt>
      <trkpt lat="43.56332" lon="1.16114">
        <ele>218.2</ele>
        <time>2020-11-29T12:28:59Z</time>
      </trkpt>
      <trkpt lat="43.56328" lon="1.16114">
        <ele>218.2</ele>
        <time>2020-11-29T12:29:00Z</time>
      </trkpt>
      <trkpt lat="43.56324" lon="1.16113">
        <ele>218.2</ele>
        <time>2020-11-29T12:29:01Z</time>
      </trkpt>
      <trkpt lat="43.5632" lon="1.16114">
        <ele>218.2</ele>
        <time>2020-11-29T12:29:02Z</time>
      </trkpt>
      <trkpt lat="43.56316" lon="1.16115">
        <ele>218.2</ele>
        <time>2020-11-29T12:29:03Z</time>
      </trkpt>
      <trkpt lat="43.56313" lon="1.16116">
        <ele>218.3</ele>
        <time>2020-11-29T12:29:04Z</time>
      </trkpt>
      <trkpt lat="43.5631" lon="1.16117">
        <ele>218.3</ele>
        <time>2020-11-29T12:29:05Z</time>
      </trkpt>
      <trkpt lat="43.56307" lon="1.16116">
        <ele>218.3</ele>
        <time>2020-11-29T12:29:06Z</time>
      </trkpt>
      <trkpt lat="43.56303" lon="1.16116">
        <ele>218.4</ele>
        <time>2020-11-29T12:29:07Z</time>
      </trkpt>
      <trkpt lat="43.56299" lon="1.16114">
        <ele>218.5</ele>
        <time>2020-11-29T12:29:08Z</time>
      </trkpt>
      <trkpt lat="43.56296" lon="1.16113">
        <ele>218.6</ele>
        <time>2020-11-29T12:29:09Z</time>
      </trkpt>
      <trkpt lat="43.56292" lon="1.16111">
        <ele>218.7</ele>
        <time>2020-11-29T12:29:10Z</time>
      </trkpt>
      <trkpt lat="43.5629" lon="1.1611">
        <ele>218.7</ele>
        <time>2020-11-29T12:29:11Z</time>
      </trkpt>
      <trkpt lat="43.56286" lon="1.1611">
        <ele>218.8</ele>
        <time>2020-11-29T12:29:12Z</time>
      </trkpt>
      <trkpt lat="43.56282" lon="1.16111">
        <ele>218.9</ele>
        <time>2020-11-29T12:29:13Z</time>
      </trkpt>
      <trkpt lat="43.5628" lon="1.16111">
        <ele>219</ele>
        <time>2020-11-29T12:29:14Z</time>
      </trkpt>
      <trkpt lat="43.56278" lon="1.16112">
        <ele>219.1</ele>
        <time>2020-11-29T12:29:15Z</time>
      </trkpt>
      <trkpt lat="43.56275" lon="1.16112">
        <ele>219.1</ele>
        <time>2020-11-29T12:29:16Z</time>
      </trkpt>
      <trkpt lat="43.56271" lon="1.16111">
        <ele>219.2</ele>
        <time>2020-11-29T12:29:17Z</time>
      </trkpt>
      <trkpt lat="43.56268" lon="1.16111">
        <ele>219.2</ele>
        <time>2020-11-29T12:29:18Z</time>
      </trkpt>
      <trkpt lat="43.56265" lon="1.1611">
        <ele>219.3</ele>
        <time>2020-11-29T12:29:19Z</time>
      </trkpt>
      <trkpt lat="43.56261" lon="1.1611">
        <ele>219.4</ele>
        <time>2020-11-29T12:29:20Z</time>
      </trkpt>
      <trkpt lat="43.56257" lon="1.16109">
        <ele>219.5</ele>
        <time>2020-11-29T12:29:21Z</time>
      </trkpt>
      <trkpt lat="43.56253" lon="1.16109">
        <ele>219.5</ele>
        <time>2020-11-29T12:29:22Z</time>
      </trkpt>
      <trkpt lat="43.56249" lon="1.16108">
        <ele>219.6</ele>
        <time>2020-11-29T12:29:23Z</time>
      </trkpt>
      <trkpt lat="43.56245" lon="1.16107">
        <ele>219.7</ele>
        <time>2020-11-29T12:29:24Z</time>
      </trkpt>
      <trkpt lat="43.5624" lon="1.16106">
        <ele>219.8</ele>
        <time>2020-11-29T12:29:25Z</time>
      </trkpt>
      <trkpt lat="43.56238" lon="1.16105">
        <ele>219.9</ele>
        <time>2020-11-29T12:29:26Z</time>
      </trkpt>
      <trkpt lat="43.56234" lon="1.16104">
        <ele>220</ele>
        <time>2020-11-29T12:29:27Z</time>
      </trkpt>
      <trkpt lat="43.5623" lon="1.16103">
        <ele>220.1</ele>
        <time>2020-11-29T12:29:28Z</time>
      </trkpt>
      <trkpt lat="43.56225" lon="1.16101">
        <ele>220.3</ele>
        <time>2020-11-29T12:29:29Z</time>
      </trkpt>
      <trkpt lat="43.56222" lon="1.16101">
        <ele>220.5</ele>
        <time>2020-11-29T12:29:30Z</time>
      </trkpt>
      <trkpt lat="43.56218" lon="1.16099">
        <ele>220.6</ele>
        <time>2020-11-29T12:29:31Z</time>
      </trkpt>
      <trkpt lat="43.56214" lon="1.16099">
        <ele>220.8</ele>
        <time>2020-11-29T12:29:32Z</time>
      </trkpt>
      <trkpt lat="43.56211" lon="1.16098">
        <ele>221</ele>
        <time>2020-11-29T12:29:33Z</time>
      </trkpt>
      <trkpt lat="43.56207" lon="1.16098">
        <ele>221.2</ele>
        <time>2020-11-29T12:29:34Z</time>
      </trkpt>
      <trkpt lat="43.56203" lon="1.16098">
        <ele>221.4</ele>
        <time>2020-11-29T12:29:35Z</time>
      </trkpt>
      <trkpt lat="43.562" lon="1.16098">
        <ele>221.6</ele>
        <time>2020-11-29T12:29:36Z</time>
      </trkpt>
      <trkpt lat="43.56196" lon="1.16098">
        <ele>221.8</ele>
        <time>2020-11-29T12:29:37Z</time>
      </trkpt>
      <trkpt lat="43.56192" lon="1.16097">
        <ele>222</ele>
        <time>2020-11-29T12:29:38Z</time>
      </trkpt>
      <trkpt lat="43.56188" lon="1.16096">
        <ele>222.2</ele>
        <time>2020-11-29T12:29:39Z</time>
      </trkpt>
      <trkpt lat="43.56185" lon="1.16095">
        <ele>222.4</ele>
        <time>2020-11-29T12:29:40Z</time>
      </trkpt>
      <trkpt lat="43.56182" lon="1.16095">
        <ele>222.6</ele>
        <time>2020-11-29T12:29:41Z</time>
      </trkpt>
      <trkpt lat="43.56177" lon="1.16095">
        <ele>222.9</ele>
        <time>2020-11-29T12:29:42Z</time>
      </trkpt>
      <trkpt lat="43.56173" lon="1.16096">
        <ele>223.1</ele>
        <time>2020-11-29T12:29:43Z</time>
      </trkpt>
      <trkpt lat="43.5617" lon="1.16096">
        <ele>223.3</ele>
        <time>2020-11-29T12:29:44Z</time>
      </trkpt>
      <trkpt lat="43.56166" lon="1.16096">
        <ele>223.5</ele>
        <time>2020-11-29T12:29:45Z</time>
      </trkpt>
      <trkpt lat="43.56163" lon="1.16096">
        <ele>223.7</ele>
        <time>2020-11-29T12:29:46Z</time>
      </trkpt>
      <trkpt lat="43.5616" lon="1.16096">
        <ele>223.8</ele>
        <time>2020-11-29T12:29:47Z</time>
      </trkpt>
      <trkpt lat="43.56157" lon="1.16097">
        <ele>224</ele>
        <time>2020-11-29T12:29:48Z</time>
      </trkpt>
      <trkpt lat="43.56156" lon="1.16098">
        <ele>224</ele>
        <time>2020-11-29T12:29:49Z</time>
      </trkpt>
      <trkpt lat="43.56154" lon="1.16099">
        <ele>224.2</ele>
        <time>2020-11-29T12:29:50Z</time>
      </trkpt>
      <trkpt lat="43.56153" lon="1.16098">
        <ele>224.2</ele>
        <time>2020-11-29T12:29:51Z</time>
      </trkpt>
      <trkpt lat="43.5615" lon="1.16098">
        <ele>224.4</ele>
        <time>2020-11-29T12:29:52Z</time>
      </trkpt>
      <trkpt lat="43.56149" lon="1.16097">
        <ele>224.4</ele>
        <time>2020-11-29T12:29:53Z</time>
      </trkpt>
      <trkpt lat="43.56144" lon="1.16095">
        <ele>224.7</ele>
        <time>2020-11-29T12:29:54Z</time>
      </trkpt>
      <trkpt lat="43.56143" lon="1.16092">
        <ele>224.8</ele>
        <time>2020-11-29T12:29:55Z</time>
      </trkpt>
      <trkpt lat="43.56142" lon="1.16093">
        <ele>224.8</ele>
        <time>2020-11-29T12:29:56Z</time>
      </trkpt>
      <trkpt lat="43.56141" lon="1.16094">
        <ele>224.9</ele>
        <time>2020-11-29T12:29:57Z</time>
      </trkpt>
      <trkpt lat="43.56141" lon="1.16097">
        <ele>225</ele>
        <time>2020-11-29T12:29:58Z</time>
      </trkpt>
      <trkpt lat="43.56141" lon="1.16099">
        <ele>225</ele>
        <time>2020-11-29T12:29:59Z</time>
      </trkpt>
      <trkpt lat="43.56141" lon="1.16103">
        <ele>225.2</ele>
        <time>2020-11-29T12:30:00Z</time>
      </trkpt>
      <trkpt lat="43.5614" lon="1.16107">
        <ele>225</ele>
        <time>2020-11-29T12:30:01Z</time>
      </trkpt>
      <trkpt lat="43.5614" lon="1.16113">
        <ele>224.8</ele>
        <time>2020-11-29T12:30:02Z</time>
      </trkpt>
      <trkpt lat="43.56139" lon="1.16118">
        <ele>224.6</ele>
        <time>2020-11-29T12:30:03Z</time>
      </trkpt>
      <trkpt lat="43.56138" lon="1.16126">
        <ele>224.4</ele>
        <time>2020-11-29T12:30:04Z</time>
      </trkpt>
      <trkpt lat="43.56136" lon="1.16133">
        <ele>224.2</ele>
        <time>2020-11-29T12:30:05Z</time>
      </trkpt>
      <trkpt lat="43.56135" lon="1.1614">
        <ele>224</ele>
        <time>2020-11-29T12:30:06Z</time>
      </trkpt>
      <trkpt lat="43.56134" lon="1.16146">
        <ele>223.9</ele>
        <time>2020-11-29T12:30:07Z</time>
      </trkpt>
      <trkpt lat="43.56134" lon="1.16152">
        <ele>223.8</ele>
        <time>2020-11-29T12:30:08Z</time>
      </trkpt>
      <trkpt lat="43.56134" lon="1.16159">
        <ele>223.7</ele>
        <time>2020-11-29T12:30:09Z</time>
      </trkpt>
      <trkpt lat="43.56133" lon="1.16166">
        <ele>223.6</ele>
        <time>2020-11-29T12:30:10Z</time>
      </trkpt>
      <trkpt lat="43.56133" lon="1.16174">
        <ele>223.5</ele>
        <time>2020-11-29T12:30:11Z</time>
      </trkpt>
      <trkpt lat="43.56133" lon="1.16181">
        <ele>223.4</ele>
        <time>2020-11-29T12:30:12Z</time>
      </trkpt>
      <trkpt lat="43.56132" lon="1.16188">
        <ele>223.3</ele>
        <time>2020-11-29T12:30:13Z</time>
      </trkpt>
      <trkpt lat="43.56132" lon="1.16193">
        <ele>223.3</ele>
        <time>2020-11-29T12:30:14Z</time>
      </trkpt>
      <trkpt lat="43.56131" lon="1.16201">
        <ele>223.2</ele>
        <time>2020-11-29T12:30:15Z</time>
      </trkpt>
      <trkpt lat="43.56131" lon="1.16208">
        <ele>223.1</ele>
        <time>2020-11-29T12:30:16Z</time>
      </trkpt>
      <trkpt lat="43.56131" lon="1.16215">
        <ele>223</ele>
        <time>2020-11-29T12:30:17Z</time>
      </trkpt>
      <trkpt lat="43.5613" lon="1.1622">
        <ele>223</ele>
        <time>2020-11-29T12:30:18Z</time>
      </trkpt>
      <trkpt lat="43.5613" lon="1.16225">
        <ele>222.9</ele>
        <time>2020-11-29T12:30:19Z</time>
      </trkpt>
      <trkpt lat="43.5613" lon="1.1623">
        <ele>222.9</ele>
        <time>2020-11-29T12:30:20Z</time>
      </trkpt>
      <trkpt lat="43.56129" lon="1.16234">
        <ele>222.8</ele>
        <time>2020-11-29T12:30:21Z</time>
      </trkpt>
      <trkpt lat="43.56128" lon="1.1624">
        <ele>222.7</ele>
        <time>2020-11-29T12:30:22Z</time>
      </trkpt>
      <trkpt lat="43.56127" lon="1.16246">
        <ele>222.7</ele>
        <time>2020-11-29T12:30:23Z</time>
      </trkpt>
      <trkpt lat="43.56126" lon="1.16253">
        <ele>222.6</ele>
        <time>2020-11-29T12:30:24Z</time>
      </trkpt>
      <trkpt lat="43.56126" lon="1.1626">
        <ele>222.5</ele>
        <time>2020-11-29T12:30:25Z</time>
      </trkpt>
      <trkpt lat="43.56125" lon="1.16266">
        <ele>222.4</ele>
        <time>2020-11-29T12:30:26Z</time>
      </trkpt>
      <trkpt lat="43.56124" lon="1.16273">
        <ele>222.3</ele>
        <time>2020-11-29T12:30:27Z</time>
      </trkpt>
      <trkpt lat="43.56122" lon="1.16277">
        <ele>222.2</ele>
        <time>2020-11-29T12:30:28Z</time>
      </trkpt>
      <trkpt lat="43.56121" lon="1.16283">
        <ele>222.2</ele>
        <time>2020-11-29T12:30:29Z</time>
      </trkpt>
      <trkpt lat="43.56121" lon="1.16289">
        <ele>222.1</ele>
        <time>2020-11-29T12:30:30Z</time>
      </trkpt>
      <trkpt lat="43.5612" lon="1.16294">
        <ele>222.1</ele>
        <time>2020-11-29T12:30:31Z</time>
      </trkpt>
      <trkpt lat="43.5612" lon="1.16299">
        <ele>222</ele>
        <time>2020-11-29T12:30:32Z</time>
      </trkpt>
      <trkpt lat="43.56119" lon="1.16305">
        <ele>222</ele>
        <time>2020-11-29T12:30:33Z</time>
      </trkpt>
      <trkpt lat="43.56118" lon="1.16311">
        <ele>221.9</ele>
        <time>2020-11-29T12:30:34Z</time>
      </trkpt>
      <trkpt lat="43.56117" lon="1.16317">
        <ele>221.9</ele>
        <time>2020-11-29T12:30:35Z</time>
      </trkpt>
      <trkpt lat="43.56117" lon="1.16323">
        <ele>221.8</ele>
        <time>2020-11-29T12:30:36Z</time>
      </trkpt>
      <trkpt lat="43.56116" lon="1.16328">
        <ele>221.8</ele>
        <time>2020-11-29T12:30:37Z</time>
      </trkpt>
      <trkpt lat="43.56116" lon="1.16334">
        <ele>221.8</ele>
        <time>2020-11-29T12:30:38Z</time>
      </trkpt>
      <trkpt lat="43.56115" lon="1.16339">
        <ele>221.8</ele>
        <time>2020-11-29T12:30:39Z</time>
      </trkpt>
      <trkpt lat="43.56113" lon="1.16345">
        <ele>221.7</ele>
        <time>2020-11-29T12:30:40Z</time>
      </trkpt>
      <trkpt lat="43.56112" lon="1.16351">
        <ele>221.7</ele>
        <time>2020-11-29T12:30:41Z</time>
      </trkpt>
      <trkpt lat="43.56111" lon="1.16357">
        <ele>221.7</ele>
        <time>2020-11-29T12:30:42Z</time>
      </trkpt>
      <trkpt lat="43.56111" lon="1.16364">
        <ele>221.7</ele>
        <time>2020-11-29T12:30:43Z</time>
      </trkpt>
      <trkpt lat="43.56111" lon="1.16369">
        <ele>221.6</ele>
        <time>2020-11-29T12:30:44Z</time>
      </trkpt>
      <trkpt lat="43.56111" lon="1.16376">
        <ele>221.6</ele>
        <time>2020-11-29T12:30:45Z</time>
      </trkpt>
      <trkpt lat="43.56112" lon="1.16382">
        <ele>221.6</ele>
        <time>2020-11-29T12:30:46Z</time>
      </trkpt>
      <trkpt lat="43.56112" lon="1.16389">
        <ele>221.6</ele>
        <time>2020-11-29T12:30:47Z</time>
      </trkpt>
      <trkpt lat="43.56112" lon="1.16395">
        <ele>221.6</ele>
        <time>2020-11-29T12:30:48Z</time>
      </trkpt>
      <trkpt lat="43.56112" lon="1.164">
        <ele>221.5</ele>
        <time>2020-11-29T12:30:49Z</time>
      </trkpt>
      <trkpt lat="43.56112" lon="1.16408">
        <ele>221.5</ele>
        <time>2020-11-29T12:30:50Z</time>
      </trkpt>
      <trkpt lat="43.56111" lon="1.16415">
        <ele>221.5</ele>
        <time>2020-11-29T12:30:51Z</time>
      </trkpt>
      <trkpt lat="43.5611" lon="1.16422">
        <ele>221.4</ele>
        <time>2020-11-29T12:30:52Z</time>
      </trkpt>
      <trkpt lat="43.56109" lon="1.16428">
        <ele>221.4</ele>
        <time>2020-11-29T12:30:53Z</time>
      </trkpt>
      <trkpt lat="43.56108" lon="1.16434">
        <ele>221.4</ele>
        <time>2020-11-29T12:30:54Z</time>
      </trkpt>
      <trkpt lat="43.56107" lon="1.1644">
        <ele>221.3</ele>
        <time>2020-11-29T12:30:55Z</time>
      </trkpt>
      <trkpt lat="43.56106" lon="1.16445">
        <ele>221.3</ele>
        <time>2020-11-29T12:30:56Z</time>
      </trkpt>
      <trkpt lat="43.56105" lon="1.16451">
        <ele>221.3</ele>
        <time>2020-11-29T12:30:57Z</time>
      </trkpt>
      <trkpt lat="43.56103" lon="1.16456">
        <ele>221.2</ele>
        <time>2020-11-29T12:30:58Z</time>
      </trkpt>
      <trkpt lat="43.56103" lon="1.16462">
        <ele>221.2</ele>
        <time>2020-11-29T12:30:59Z</time>
      </trkpt>
      <trkpt lat="43.56104" lon="1.16468">
        <ele>221.1</ele>
        <time>2020-11-29T12:31:00Z</time>
      </trkpt>
      <trkpt lat="43.56102" lon="1.16474">
        <ele>221</ele>
        <time>2020-11-29T12:31:01Z</time>
      </trkpt>
      <trkpt lat="43.561" lon="1.16478">
        <ele>220.9</ele>
        <time>2020-11-29T12:31:02Z</time>
      </trkpt>
      <trkpt lat="43.56099" lon="1.16483">
        <ele>220.8</ele>
        <time>2020-11-29T12:31:03Z</time>
      </trkpt>
      <trkpt lat="43.56098" lon="1.16491">
        <ele>220.7</ele>
        <time>2020-11-29T12:31:04Z</time>
      </trkpt>
      <trkpt lat="43.56097" lon="1.16499">
        <ele>220.5</ele>
        <time>2020-11-29T12:31:05Z</time>
      </trkpt>
      <trkpt lat="43.56096" lon="1.16508">
        <ele>220.2</ele>
        <time>2020-11-29T12:31:06Z</time>
      </trkpt>
      <trkpt lat="43.56096" lon="1.16517">
        <ele>219.8</ele>
        <time>2020-11-29T12:31:07Z</time>
      </trkpt>
      <trkpt lat="43.56096" lon="1.16524">
        <ele>219.5</ele>
        <time>2020-11-29T12:31:08Z</time>
      </trkpt>
      <trkpt lat="43.56097" lon="1.16532">
        <ele>219.2</ele>
        <time>2020-11-29T12:31:09Z</time>
      </trkpt>
      <trkpt lat="43.56097" lon="1.1654">
        <ele>218.9</ele>
        <time>2020-11-29T12:31:10Z</time>
      </trkpt>
      <trkpt lat="43.56094" lon="1.16547">
        <ele>218.5</ele>
        <time>2020-11-29T12:31:11Z</time>
      </trkpt>
      <trkpt lat="43.56093" lon="1.16555">
        <ele>218.2</ele>
        <time>2020-11-29T12:31:12Z</time>
      </trkpt>
      <trkpt lat="43.56092" lon="1.16565">
        <ele>217.7</ele>
        <time>2020-11-29T12:31:13Z</time>
      </trkpt>
      <trkpt lat="43.56091" lon="1.16576">
        <ele>217.1</ele>
        <time>2020-11-29T12:31:14Z</time>
      </trkpt>
      <trkpt lat="43.5609" lon="1.16588">
        <ele>216.5</ele>
        <time>2020-11-29T12:31:15Z</time>
      </trkpt>
      <trkpt lat="43.5609" lon="1.16601">
        <ele>215.9</ele>
        <time>2020-11-29T12:31:16Z</time>
      </trkpt>
      <trkpt lat="43.56089" lon="1.16614">
        <ele>215.4</ele>
        <time>2020-11-29T12:31:17Z</time>
      </trkpt>
      <trkpt lat="43.56088" lon="1.16626">
        <ele>214.9</ele>
        <time>2020-11-29T12:31:18Z</time>
      </trkpt>
      <trkpt lat="43.56087" lon="1.1664">
        <ele>214.5</ele>
        <time>2020-11-29T12:31:19Z</time>
      </trkpt>
      <trkpt lat="43.56087" lon="1.16653">
        <ele>214.1</ele>
        <time>2020-11-29T12:31:20Z</time>
      </trkpt>
      <trkpt lat="43.56086" lon="1.16665">
        <ele>213.7</ele>
        <time>2020-11-29T12:31:21Z</time>
      </trkpt>
      <trkpt lat="43.56086" lon="1.16677">
        <ele>213.4</ele>
        <time>2020-11-29T12:31:22Z</time>
      </trkpt>
      <trkpt lat="43.56086" lon="1.16688">
        <ele>213.1</ele>
        <time>2020-11-29T12:31:23Z</time>
      </trkpt>
      <trkpt lat="43.56086" lon="1.167">
        <ele>212.9</ele>
        <time>2020-11-29T12:31:24Z</time>
      </trkpt>
      <trkpt lat="43.56085" lon="1.16711">
        <ele>212.7</ele>
        <time>2020-11-29T12:31:25Z</time>
      </trkpt>
      <trkpt lat="43.56085" lon="1.16722">
        <ele>212.5</ele>
        <time>2020-11-29T12:31:26Z</time>
      </trkpt>
      <trkpt lat="43.56084" lon="1.16732">
        <ele>212.3</ele>
        <time>2020-11-29T12:31:27Z</time>
      </trkpt>
      <trkpt lat="43.56083" lon="1.16741">
        <ele>212.2</ele>
        <time>2020-11-29T12:31:28Z</time>
      </trkpt>
      <trkpt lat="43.56082" lon="1.1675">
        <ele>212.1</ele>
        <time>2020-11-29T12:31:29Z</time>
      </trkpt>
      <trkpt lat="43.56081" lon="1.16759">
        <ele>212</ele>
        <time>2020-11-29T12:31:30Z</time>
      </trkpt>
      <trkpt lat="43.5608" lon="1.16768">
        <ele>211.9</ele>
        <time>2020-11-29T12:31:31Z</time>
      </trkpt>
      <trkpt lat="43.56083" lon="1.16778">
        <ele>211.8</ele>
        <time>2020-11-29T12:31:32Z</time>
      </trkpt>
      <trkpt lat="43.56083" lon="1.16786">
        <ele>211.7</ele>
        <time>2020-11-29T12:31:33Z</time>
      </trkpt>
      <trkpt lat="43.56083" lon="1.16795">
        <ele>211.6</ele>
        <time>2020-11-29T12:31:34Z</time>
      </trkpt>
      <trkpt lat="43.56082" lon="1.16804">
        <ele>211.5</ele>
        <time>2020-11-29T12:31:35Z</time>
      </trkpt>
      <trkpt lat="43.56081" lon="1.16812">
        <ele>211.4</ele>
        <time>2020-11-29T12:31:36Z</time>
      </trkpt>
      <trkpt lat="43.56079" lon="1.1682">
        <ele>211.3</ele>
        <time>2020-11-29T12:31:37Z</time>
      </trkpt>
      <trkpt lat="43.56077" lon="1.16828">
        <ele>211.2</ele>
        <time>2020-11-29T12:31:38Z</time>
      </trkpt>
      <trkpt lat="43.56076" lon="1.16835">
        <ele>211.1</ele>
        <time>2020-11-29T12:31:39Z</time>
      </trkpt>
      <trkpt lat="43.56075" lon="1.16842">
        <ele>211.1</ele>
        <time>2020-11-29T12:31:40Z</time>
      </trkpt>
      <trkpt lat="43.56079" lon="1.1685">
        <ele>211</ele>
        <time>2020-11-29T12:31:41Z</time>
      </trkpt>
      <trkpt lat="43.56079" lon="1.16857">
        <ele>210.9</ele>
        <time>2020-11-29T12:31:42Z</time>
      </trkpt>
      <trkpt lat="43.56079" lon="1.16865">
        <ele>210.8</ele>
        <time>2020-11-29T12:31:43Z</time>
      </trkpt>
      <trkpt lat="43.56078" lon="1.16882">
        <ele>210.7</ele>
        <time>2020-11-29T12:31:44Z</time>
      </trkpt>
      <trkpt lat="43.56078" lon="1.16891">
        <ele>210.6</ele>
        <time>2020-11-29T12:31:45Z</time>
      </trkpt>
      <trkpt lat="43.56078" lon="1.16899">
        <ele>210.6</ele>
        <time>2020-11-29T12:31:46Z</time>
      </trkpt>
      <trkpt lat="43.56078" lon="1.16907">
        <ele>210.5</ele>
        <time>2020-11-29T12:31:47Z</time>
      </trkpt>
      <trkpt lat="43.56077" lon="1.16915">
        <ele>210.5</ele>
        <time>2020-11-29T12:31:49Z</time>
      </trkpt>
      <trkpt lat="43.56077" lon="1.16924">
        <ele>210.4</ele>
        <time>2020-11-29T12:31:50Z</time>
      </trkpt>
      <trkpt lat="43.56076" lon="1.16933">
        <ele>210.3</ele>
        <time>2020-11-29T12:31:51Z</time>
      </trkpt>
      <trkpt lat="43.56076" lon="1.16942">
        <ele>210.3</ele>
        <time>2020-11-29T12:31:52Z</time>
      </trkpt>
      <trkpt lat="43.56076" lon="1.16951">
        <ele>210.2</ele>
        <time>2020-11-29T12:31:53Z</time>
      </trkpt>
      <trkpt lat="43.56075" lon="1.16959">
        <ele>210.2</ele>
        <time>2020-11-29T12:31:54Z</time>
      </trkpt>
      <trkpt lat="43.56075" lon="1.16966">
        <ele>210.2</ele>
        <time>2020-11-29T12:31:55Z</time>
      </trkpt>
      <trkpt lat="43.56074" lon="1.16973">
        <ele>210.1</ele>
        <time>2020-11-29T12:31:56Z</time>
      </trkpt>
      <trkpt lat="43.56073" lon="1.1698">
        <ele>210.1</ele>
        <time>2020-11-29T12:31:57Z</time>
      </trkpt>
      <trkpt lat="43.56072" lon="1.16987">
        <ele>210.2</ele>
        <time>2020-11-29T12:31:58Z</time>
      </trkpt>
      <trkpt lat="43.56072" lon="1.16994">
        <ele>210.2</ele>
        <time>2020-11-29T12:31:59Z</time>
      </trkpt>
      <trkpt lat="43.56071" lon="1.17002">
        <ele>210.2</ele>
        <time>2020-11-29T12:32:00Z</time>
      </trkpt>
      <trkpt lat="43.56071" lon="1.17009">
        <ele>210.2</ele>
        <time>2020-11-29T12:32:01Z</time>
      </trkpt>
      <trkpt lat="43.5607" lon="1.17016">
        <ele>210.2</ele>
        <time>2020-11-29T12:32:02Z</time>
      </trkpt>
      <trkpt lat="43.5607" lon="1.17023">
        <ele>210.2</ele>
        <time>2020-11-29T12:32:03Z</time>
      </trkpt>
      <trkpt lat="43.5607" lon="1.1703">
        <ele>210.2</ele>
        <time>2020-11-29T12:32:04Z</time>
      </trkpt>
      <trkpt lat="43.56069" lon="1.17037">
        <ele>210.2</ele>
        <time>2020-11-29T12:32:05Z</time>
      </trkpt>
      <trkpt lat="43.56068" lon="1.17045">
        <ele>210.1</ele>
        <time>2020-11-29T12:32:06Z</time>
      </trkpt>
      <trkpt lat="43.56068" lon="1.17053">
        <ele>210.1</ele>
        <time>2020-11-29T12:32:07Z</time>
      </trkpt>
      <trkpt lat="43.56068" lon="1.17061">
        <ele>210.1</ele>
        <time>2020-11-29T12:32:08Z</time>
      </trkpt>
      <trkpt lat="43.56067" lon="1.17069">
        <ele>210.1</ele>
        <time>2020-11-29T12:32:09Z</time>
      </trkpt>
      <trkpt lat="43.56066" lon="1.17077">
        <ele>210.1</ele>
        <time>2020-11-29T12:32:10Z</time>
      </trkpt>
      <trkpt lat="43.56066" lon="1.17086">
        <ele>210</ele>
        <time>2020-11-29T12:32:11Z</time>
      </trkpt>
      <trkpt lat="43.56065" lon="1.17094">
        <ele>210</ele>
        <time>2020-11-29T12:32:12Z</time>
      </trkpt>
      <trkpt lat="43.56064" lon="1.17101">
        <ele>210</ele>
        <time>2020-11-29T12:32:13Z</time>
      </trkpt>
      <trkpt lat="43.56064" lon="1.17109">
        <ele>209.9</ele>
        <time>2020-11-29T12:32:14Z</time>
      </trkpt>
      <trkpt lat="43.56063" lon="1.17115">
        <ele>209.9</ele>
        <time>2020-11-29T12:32:15Z</time>
      </trkpt>
      <trkpt lat="43.56063" lon="1.17122">
        <ele>209.9</ele>
        <time>2020-11-29T12:32:16Z</time>
      </trkpt>
      <trkpt lat="43.56062" lon="1.17129">
        <ele>209.8</ele>
        <time>2020-11-29T12:32:17Z</time>
      </trkpt>
      <trkpt lat="43.56062" lon="1.17136">
        <ele>209.8</ele>
        <time>2020-11-29T12:32:18Z</time>
      </trkpt>
      <trkpt lat="43.56061" lon="1.17144">
        <ele>209.8</ele>
        <time>2020-11-29T12:32:19Z</time>
      </trkpt>
      <trkpt lat="43.56061" lon="1.17151">
        <ele>209.8</ele>
        <time>2020-11-29T12:32:20Z</time>
      </trkpt>
      <trkpt lat="43.56061" lon="1.17159">
        <ele>209.8</ele>
        <time>2020-11-29T12:32:21Z</time>
      </trkpt>
      <trkpt lat="43.56061" lon="1.17167">
        <ele>209.7</ele>
        <time>2020-11-29T12:32:22Z</time>
      </trkpt>
      <trkpt lat="43.5606" lon="1.17175">
        <ele>209.7</ele>
        <time>2020-11-29T12:32:23Z</time>
      </trkpt>
      <trkpt lat="43.56059" lon="1.17183">
        <ele>209.7</ele>
        <time>2020-11-29T12:32:24Z</time>
      </trkpt>
      <trkpt lat="43.56059" lon="1.1719">
        <ele>209.7</ele>
        <time>2020-11-29T12:32:25Z</time>
      </trkpt>
      <trkpt lat="43.56059" lon="1.17197">
        <ele>209.6</ele>
        <time>2020-11-29T12:32:26Z</time>
      </trkpt>
      <trkpt lat="43.56058" lon="1.17204">
        <ele>209.6</ele>
        <time>2020-11-29T12:32:27Z</time>
      </trkpt>
      <trkpt lat="43.56058" lon="1.17211">
        <ele>209.6</ele>
        <time>2020-11-29T12:32:28Z</time>
      </trkpt>
      <trkpt lat="43.56057" lon="1.17218">
        <ele>209.6</ele>
        <time>2020-11-29T12:32:29Z</time>
      </trkpt>
      <trkpt lat="43.56056" lon="1.17226">
        <ele>209.6</ele>
        <time>2020-11-29T12:32:30Z</time>
      </trkpt>
      <trkpt lat="43.56056" lon="1.17234">
        <ele>209.5</ele>
        <time>2020-11-29T12:32:31Z</time>
      </trkpt>
      <trkpt lat="43.56055" lon="1.17242">
        <ele>209.5</ele>
        <time>2020-11-29T12:32:32Z</time>
      </trkpt>
      <trkpt lat="43.56055" lon="1.1725">
        <ele>209.5</ele>
        <time>2020-11-29T12:32:33Z</time>
      </trkpt>
      <trkpt lat="43.56053" lon="1.17258">
        <ele>209.5</ele>
        <time>2020-11-29T12:32:34Z</time>
      </trkpt>
      <trkpt lat="43.56052" lon="1.17265">
        <ele>209.4</ele>
        <time>2020-11-29T12:32:35Z</time>
      </trkpt>
      <trkpt lat="43.56049" lon="1.17272">
        <ele>209.4</ele>
        <time>2020-11-29T12:32:36Z</time>
      </trkpt>
      <trkpt lat="43.56048" lon="1.17279">
        <ele>209.4</ele>
        <time>2020-11-29T12:32:37Z</time>
      </trkpt>
      <trkpt lat="43.56047" lon="1.17286">
        <ele>209.4</ele>
        <time>2020-11-29T12:32:38Z</time>
      </trkpt>
      <trkpt lat="43.56046" lon="1.17293">
        <ele>209.3</ele>
        <time>2020-11-29T12:32:39Z</time>
      </trkpt>
      <trkpt lat="43.56044" lon="1.17299">
        <ele>209.3</ele>
        <time>2020-11-29T12:32:40Z</time>
      </trkpt>
      <trkpt lat="43.56043" lon="1.17305">
        <ele>209.3</ele>
        <time>2020-11-29T12:32:41Z</time>
      </trkpt>
      <trkpt lat="43.5604" lon="1.17312">
        <ele>209.2</ele>
        <time>2020-11-29T12:32:42Z</time>
      </trkpt>
      <trkpt lat="43.56037" lon="1.17318">
        <ele>209.2</ele>
        <time>2020-11-29T12:32:43Z</time>
      </trkpt>
      <trkpt lat="43.56033" lon="1.17324">
        <ele>209.2</ele>
        <time>2020-11-29T12:32:44Z</time>
      </trkpt>
      <trkpt lat="43.5603" lon="1.17331">
        <ele>209.2</ele>
        <time>2020-11-29T12:32:45Z</time>
      </trkpt>
      <trkpt lat="43.56026" lon="1.17337">
        <ele>209.1</ele>
        <time>2020-11-29T12:32:46Z</time>
      </trkpt>
      <trkpt lat="43.56022" lon="1.17341">
        <ele>209.1</ele>
        <time>2020-11-29T12:32:47Z</time>
      </trkpt>
      <trkpt lat="43.56019" lon="1.17347">
        <ele>209</ele>
        <time>2020-11-29T12:32:48Z</time>
      </trkpt>
      <trkpt lat="43.56015" lon="1.17352">
        <ele>209</ele>
        <time>2020-11-29T12:32:49Z</time>
      </trkpt>
      <trkpt lat="43.56011" lon="1.17355">
        <ele>209</ele>
        <time>2020-11-29T12:32:50Z</time>
      </trkpt>
      <trkpt lat="43.56007" lon="1.1736">
        <ele>208.9</ele>
        <time>2020-11-29T12:32:51Z</time>
      </trkpt>
      <trkpt lat="43.56004" lon="1.17365">
        <ele>208.9</ele>
        <time>2020-11-29T12:32:52Z</time>
      </trkpt>
      <trkpt lat="43.56001" lon="1.17371">
        <ele>208.9</ele>
        <time>2020-11-29T12:32:53Z</time>
      </trkpt>
      <trkpt lat="43.55998" lon="1.17376">
        <ele>208.9</ele>
        <time>2020-11-29T12:32:54Z</time>
      </trkpt>
      <trkpt lat="43.55994" lon="1.17381">
        <ele>208.8</ele>
        <time>2020-11-29T12:32:55Z</time>
      </trkpt>
      <trkpt lat="43.55991" lon="1.17386">
        <ele>208.8</ele>
        <time>2020-11-29T12:32:56Z</time>
      </trkpt>
      <trkpt lat="43.55989" lon="1.17392">
        <ele>208.8</ele>
        <time>2020-11-29T12:32:57Z</time>
      </trkpt>
      <trkpt lat="43.55989" lon="1.17399">
        <ele>208.7</ele>
        <time>2020-11-29T12:32:58Z</time>
      </trkpt>
      <trkpt lat="43.55988" lon="1.17404">
        <ele>208.7</ele>
        <time>2020-11-29T12:32:59Z</time>
      </trkpt>
      <trkpt lat="43.55986" lon="1.17409">
        <ele>208.7</ele>
        <time>2020-11-29T12:33:00Z</time>
      </trkpt>
      <trkpt lat="43.55985" lon="1.17415">
        <ele>208.6</ele>
        <time>2020-11-29T12:33:01Z</time>
      </trkpt>
      <trkpt lat="43.55983" lon="1.1742">
        <ele>208.6</ele>
        <time>2020-11-29T12:33:02Z</time>
      </trkpt>
      <trkpt lat="43.55981" lon="1.17425">
        <ele>208.6</ele>
        <time>2020-11-29T12:33:03Z</time>
      </trkpt>
      <trkpt lat="43.55979" lon="1.17431">
        <ele>208.5</ele>
        <time>2020-11-29T12:33:04Z</time>
      </trkpt>
      <trkpt lat="43.55978" lon="1.17436">
        <ele>208.5</ele>
        <time>2020-11-29T12:33:05Z</time>
      </trkpt>
      <trkpt lat="43.55976" lon="1.17441">
        <ele>208.5</ele>
        <time>2020-11-29T12:33:06Z</time>
      </trkpt>
      <trkpt lat="43.55973" lon="1.17447">
        <ele>208.5</ele>
        <time>2020-11-29T12:33:07Z</time>
      </trkpt>
      <trkpt lat="43.55969" lon="1.17455">
        <ele>208.4</ele>
        <time>2020-11-29T12:33:08Z</time>
      </trkpt>
      <trkpt lat="43.55966" lon="1.17461">
        <ele>208.4</ele>
        <time>2020-11-29T12:33:09Z</time>
      </trkpt>
      <trkpt lat="43.55963" lon="1.17468">
        <ele>208.4</ele>
        <time>2020-11-29T12:33:10Z</time>
      </trkpt>
      <trkpt lat="43.5596" lon="1.17475">
        <ele>208.3</ele>
        <time>2020-11-29T12:33:11Z</time>
      </trkpt>
      <trkpt lat="43.55957" lon="1.17482">
        <ele>208.3</ele>
        <time>2020-11-29T12:33:12Z</time>
      </trkpt>
      <trkpt lat="43.55953" lon="1.17488">
        <ele>208.3</ele>
        <time>2020-11-29T12:33:13Z</time>
      </trkpt>
      <trkpt lat="43.55949" lon="1.17495">
        <ele>208.2</ele>
        <time>2020-11-29T12:33:14Z</time>
      </trkpt>
      <trkpt lat="43.55945" lon="1.175">
        <ele>208.2</ele>
        <time>2020-11-29T12:33:15Z</time>
      </trkpt>
      <trkpt lat="43.55942" lon="1.17507">
        <ele>208.1</ele>
        <time>2020-11-29T12:33:16Z</time>
      </trkpt>
      <trkpt lat="43.5594" lon="1.17513">
        <ele>208.1</ele>
        <time>2020-11-29T12:33:17Z</time>
      </trkpt>
      <trkpt lat="43.55937" lon="1.17518">
        <ele>208.1</ele>
        <time>2020-11-29T12:33:18Z</time>
      </trkpt>
      <trkpt lat="43.55933" lon="1.17526">
        <ele>208</ele>
        <time>2020-11-29T12:33:19Z</time>
      </trkpt>
      <trkpt lat="43.5593" lon="1.17532">
        <ele>208</ele>
        <time>2020-11-29T12:33:20Z</time>
      </trkpt>
      <trkpt lat="43.55927" lon="1.17537">
        <ele>208</ele>
        <time>2020-11-29T12:33:21Z</time>
      </trkpt>
      <trkpt lat="43.55925" lon="1.17542">
        <ele>208</ele>
        <time>2020-11-29T12:33:22Z</time>
      </trkpt>
      <trkpt lat="43.55924" lon="1.17548">
        <ele>207.9</ele>
        <time>2020-11-29T12:33:23Z</time>
      </trkpt>
      <trkpt lat="43.55921" lon="1.17552">
        <ele>207.9</ele>
        <time>2020-11-29T12:33:24Z</time>
      </trkpt>
      <trkpt lat="43.55916" lon="1.17558">
        <ele>207.9</ele>
        <time>2020-11-29T12:33:25Z</time>
      </trkpt>
      <trkpt lat="43.55912" lon="1.17563">
        <ele>207.8</ele>
        <time>2020-11-29T12:33:26Z</time>
      </trkpt>
      <trkpt lat="43.55907" lon="1.17568">
        <ele>207.8</ele>
        <time>2020-11-29T12:33:27Z</time>
      </trkpt>
      <trkpt lat="43.55903" lon="1.17573">
        <ele>207.8</ele>
        <time>2020-11-29T12:33:28Z</time>
      </trkpt>
      <trkpt lat="43.55899" lon="1.17578">
        <ele>207.7</ele>
        <time>2020-11-29T12:33:29Z</time>
      </trkpt>
      <trkpt lat="43.55895" lon="1.17583">
        <ele>207.7</ele>
        <time>2020-11-29T12:33:30Z</time>
      </trkpt>
      <trkpt lat="43.55892" lon="1.17588">
        <ele>207.7</ele>
        <time>2020-11-29T12:33:31Z</time>
      </trkpt>
      <trkpt lat="43.55887" lon="1.17593">
        <ele>207.7</ele>
        <time>2020-11-29T12:33:32Z</time>
      </trkpt>
      <trkpt lat="43.55884" lon="1.17597">
        <ele>207.7</ele>
        <time>2020-11-29T12:33:33Z</time>
      </trkpt>
      <trkpt lat="43.5588" lon="1.17602">
        <ele>207.7</ele>
        <time>2020-11-29T12:33:34Z</time>
      </trkpt>
      <trkpt lat="43.55877" lon="1.17606">
        <ele>207.6</ele>
        <time>2020-11-29T12:33:35Z</time>
      </trkpt>
      <trkpt lat="43.55874" lon="1.17612">
        <ele>207.6</ele>
        <time>2020-11-29T12:33:36Z</time>
      </trkpt>
      <trkpt lat="43.5587" lon="1.17617">
        <ele>207.5</ele>
        <time>2020-11-29T12:33:37Z</time>
      </trkpt>
      <trkpt lat="43.55866" lon="1.17624">
        <ele>207.5</ele>
        <time>2020-11-29T12:33:38Z</time>
      </trkpt>
      <trkpt lat="43.55861" lon="1.1763">
        <ele>207.5</ele>
        <time>2020-11-29T12:33:39Z</time>
      </trkpt>
      <trkpt lat="43.55857" lon="1.17635">
        <ele>207.4</ele>
        <time>2020-11-29T12:33:40Z</time>
      </trkpt>
      <trkpt lat="43.55853" lon="1.17639">
        <ele>207.4</ele>
        <time>2020-11-29T12:33:41Z</time>
      </trkpt>
      <trkpt lat="43.55848" lon="1.17643">
        <ele>207.4</ele>
        <time>2020-11-29T12:33:42Z</time>
      </trkpt>
      <trkpt lat="43.55843" lon="1.17647">
        <ele>207.4</ele>
        <time>2020-11-29T12:33:43Z</time>
      </trkpt>
      <trkpt lat="43.55839" lon="1.17651">
        <ele>207.3</ele>
        <time>2020-11-29T12:33:44Z</time>
      </trkpt>
      <trkpt lat="43.55835" lon="1.17656">
        <ele>207.3</ele>
        <time>2020-11-29T12:33:45Z</time>
      </trkpt>
      <trkpt lat="43.55831" lon="1.17661">
        <ele>207.3</ele>
        <time>2020-11-29T12:33:46Z</time>
      </trkpt>
      <trkpt lat="43.55828" lon="1.17666">
        <ele>207.2</ele>
        <time>2020-11-29T12:33:47Z</time>
      </trkpt>
      <trkpt lat="43.55823" lon="1.1767">
        <ele>207.2</ele>
        <time>2020-11-29T12:33:48Z</time>
      </trkpt>
      <trkpt lat="43.55818" lon="1.17675">
        <ele>207.1</ele>
        <time>2020-11-29T12:33:49Z</time>
      </trkpt>
      <trkpt lat="43.55813" lon="1.17681">
        <ele>207.1</ele>
        <time>2020-11-29T12:33:50Z</time>
      </trkpt>
      <trkpt lat="43.55809" lon="1.17685">
        <ele>207.1</ele>
        <time>2020-11-29T12:33:51Z</time>
      </trkpt>
      <trkpt lat="43.55804" lon="1.17689">
        <ele>207</ele>
        <time>2020-11-29T12:33:52Z</time>
      </trkpt>
      <trkpt lat="43.558" lon="1.17693">
        <ele>207</ele>
        <time>2020-11-29T12:33:53Z</time>
      </trkpt>
      <trkpt lat="43.55796" lon="1.17696">
        <ele>206.9</ele>
        <time>2020-11-29T12:33:54Z</time>
      </trkpt>
      <trkpt lat="43.55793" lon="1.17699">
        <ele>206.9</ele>
        <time>2020-11-29T12:33:55Z</time>
      </trkpt>
      <trkpt lat="43.55789" lon="1.17703">
        <ele>206.9</ele>
        <time>2020-11-29T12:33:56Z</time>
      </trkpt>
      <trkpt lat="43.55786" lon="1.17707">
        <ele>206.8</ele>
        <time>2020-11-29T12:33:57Z</time>
      </trkpt>
      <trkpt lat="43.55783" lon="1.17709">
        <ele>206.8</ele>
        <time>2020-11-29T12:33:58Z</time>
      </trkpt>
      <trkpt lat="43.55777" lon="1.17714">
        <ele>206.7</ele>
        <time>2020-11-29T12:33:59Z</time>
      </trkpt>
      <trkpt lat="43.55773" lon="1.17717">
        <ele>206.7</ele>
        <time>2020-11-29T12:34:00Z</time>
      </trkpt>
      <trkpt lat="43.55768" lon="1.17718">
        <ele>206.7</ele>
        <time>2020-11-29T12:34:01Z</time>
      </trkpt>
      <trkpt lat="43.55763" lon="1.17717">
        <ele>206.6</ele>
        <time>2020-11-29T12:34:02Z</time>
      </trkpt>
      <trkpt lat="43.5576" lon="1.17717">
        <ele>206.6</ele>
        <time>2020-11-29T12:34:03Z</time>
      </trkpt>
      <trkpt lat="43.55757" lon="1.17719">
        <ele>206.6</ele>
        <time>2020-11-29T12:34:04Z</time>
      </trkpt>
      <trkpt lat="43.55755" lon="1.1772">
        <ele>206.6</ele>
        <time>2020-11-29T12:34:05Z</time>
      </trkpt>
      <trkpt lat="43.55753" lon="1.17723">
        <ele>206.6</ele>
        <time>2020-11-29T12:34:06Z</time>
      </trkpt>
      <trkpt lat="43.55751" lon="1.17727">
        <ele>206.6</ele>
        <time>2020-11-29T12:34:07Z</time>
      </trkpt>
      <trkpt lat="43.5575" lon="1.1773">
        <ele>206.6</ele>
        <time>2020-11-29T12:34:08Z</time>
      </trkpt>
      <trkpt lat="43.55749" lon="1.17732">
        <ele>206.6</ele>
        <time>2020-11-29T12:34:09Z</time>
      </trkpt>
      <trkpt lat="43.55748" lon="1.17734">
        <ele>206.6</ele>
        <time>2020-11-29T12:34:10Z</time>
      </trkpt>
      <trkpt lat="43.55747" lon="1.17734">
        <ele>206.6</ele>
        <time>2020-11-29T12:34:11Z</time>
      </trkpt>
      <trkpt lat="43.55746" lon="1.17734">
        <ele>206.6</ele>
        <time>2020-11-29T12:34:12Z</time>
      </trkpt>
      <trkpt lat="43.55746" lon="1.17734">
        <ele>206.6</ele>
        <time>2020-11-29T12:34:13Z</time>
      </trkpt>
      <trkpt lat="43.55745" lon="1.17734">
        <ele>206.6</ele>
        <time>2020-11-29T12:34:14Z</time>
      </trkpt>
      <trkpt lat="43.55745" lon="1.17735">
        <ele>206.6</ele>
        <time>2020-11-29T12:34:15Z</time>
      </trkpt>
      <trkpt lat="43.55744" lon="1.17736">
        <ele>206.6</ele>
        <time>2020-11-29T12:34:16Z</time>
      </trkpt>
      <trkpt lat="43.55743" lon="1.17738">
        <ele>206.6</ele>
        <time>2020-11-29T12:34:17Z</time>
      </trkpt>
      <trkpt lat="43.55742" lon="1.17739">
        <ele>206.6</ele>
        <time>2020-11-29T12:34:18Z</time>
      </trkpt>
      <trkpt lat="43.55743" lon="1.17738">
        <ele>206.6</ele>
        <time>2020-11-29T12:34:19Z</time>
      </trkpt>
      <trkpt lat="43.55745" lon="1.17738">
        <ele>206.6</ele>
        <time>2020-11-29T12:34:20Z</time>
      </trkpt>
      <trkpt lat="43.55745" lon="1.17739">
        <ele>206.6</ele>
        <time>2020-11-29T12:34:21Z</time>
      </trkpt>
      <trkpt lat="43.55746" lon="1.17739">
        <ele>206.6</ele>
        <time>2020-11-29T12:34:22Z</time>
      </trkpt>
      <trkpt lat="43.55746" lon="1.17738">
        <ele>206.6</ele>
        <time>2020-11-29T12:34:23Z</time>
      </trkpt>
      <trkpt lat="43.55746" lon="1.17737">
        <ele>206.6</ele>
        <time>2020-11-29T12:34:24Z</time>
      </trkpt>
      <trkpt lat="43.55746" lon="1.17737">
        <ele>206.6</ele>
        <time>2020-11-29T12:34:25Z</time>
      </trkpt>
      <trkpt lat="43.55746" lon="1.17737">
        <ele>206.6</ele>
        <time>2020-11-29T12:34:26Z</time>
      </trkpt>
      <trkpt lat="43.55745" lon="1.17737">
        <ele>206.6</ele>
        <time>2020-11-29T12:34:27Z</time>
      </trkpt>
      <trkpt lat="43.55744" lon="1.17737">
        <ele>206.6</ele>
        <time>2020-11-29T12:34:28Z</time>
      </trkpt>
      <trkpt lat="43.55744" lon="1.17736">
        <ele>206.6</ele>
        <time>2020-11-29T12:34:29Z</time>
      </trkpt>
      <trkpt lat="43.55744" lon="1.17736">
        <ele>206.6</ele>
        <time>2020-11-29T12:34:30Z</time>
      </trkpt>
      <trkpt lat="43.55744" lon="1.17737">
        <ele>206.6</ele>
        <time>2020-11-29T12:34:31Z</time>
      </trkpt>
      <trkpt lat="43.55743" lon="1.17736">
        <ele>206.6</ele>
        <time>2020-11-29T12:34:32Z</time>
      </trkpt>
      <trkpt lat="43.55743" lon="1.17736">
        <ele>206.6</ele>
        <time>2020-11-29T12:34:33Z</time>
      </trkpt>
      <trkpt lat="43.55743" lon="1.17736">
        <ele>206.6</ele>
        <time>2020-11-29T12:34:34Z</time>
      </trkpt>
      <trkpt lat="43.55743" lon="1.17736">
        <ele>206.6</ele>
        <time>2020-11-29T12:34:35Z</time>
      </trkpt>
      <trkpt lat="43.55743" lon="1.17737">
        <ele>206.6</ele>
        <time>2020-11-29T12:34:36Z</time>
      </trkpt>
      <trkpt lat="43.55744" lon="1.17737">
        <ele>206.6</ele>
        <time>2020-11-29T12:34:37Z</time>
      </trkpt>
      <trkpt lat="43.55746" lon="1.17737">
        <ele>206.6</ele>
        <time>2020-11-29T12:34:38Z</time>
      </trkpt>
      <trkpt lat="43.55744" lon="1.17735">
        <ele>206.6</ele>
        <time>2020-11-29T12:34:39Z</time>
      </trkpt>
      <trkpt lat="43.55744" lon="1.17734">
        <ele>206.6</ele>
        <time>2020-11-29T12:34:40Z</time>
      </trkpt>
      <trkpt lat="43.55743" lon="1.17734">
        <ele>206.6</ele>
        <time>2020-11-29T12:34:41Z</time>
      </trkpt>
      <trkpt lat="43.55742" lon="1.17733">
        <ele>206.6</ele>
        <time>2020-11-29T12:34:42Z</time>
      </trkpt>
      <trkpt lat="43.55742" lon="1.17733">
        <ele>206.6</ele>
        <time>2020-11-29T12:34:43Z</time>
      </trkpt>
      <trkpt lat="43.55742" lon="1.17733">
        <ele>206.5</ele>
        <time>2020-11-29T12:34:44Z</time>
      </trkpt>
      <trkpt lat="43.55741" lon="1.17734">
        <ele>206.5</ele>
        <time>2020-11-29T12:34:45Z</time>
      </trkpt>
      <trkpt lat="43.55742" lon="1.17734">
        <ele>206.5</ele>
        <time>2020-11-29T12:34:46Z</time>
      </trkpt>
      <trkpt lat="43.55742" lon="1.17734">
        <ele>206.5</ele>
        <time>2020-11-29T12:34:47Z</time>
      </trkpt>
      <trkpt lat="43.55741" lon="1.17734">
        <ele>206.5</ele>
        <time>2020-11-29T12:34:48Z</time>
      </trkpt>
      <trkpt lat="43.55742" lon="1.17734">
        <ele>206.5</ele>
        <time>2020-11-29T12:34:49Z</time>
      </trkpt>
      <trkpt lat="43.55742" lon="1.17734">
        <ele>206.5</ele>
        <time>2020-11-29T12:34:50Z</time>
      </trkpt>
      <trkpt lat="43.55742" lon="1.17732">
        <ele>206.5</ele>
        <time>2020-11-29T12:34:51Z</time>
      </trkpt>
      <trkpt lat="43.55742" lon="1.17732">
        <ele>206.5</ele>
        <time>2020-11-29T12:34:52Z</time>
      </trkpt>
      <trkpt lat="43.55743" lon="1.17731">
        <ele>206.5</ele>
        <time>2020-11-29T12:34:53Z</time>
      </trkpt>
      <trkpt lat="43.55743" lon="1.17732">
        <ele>206.5</ele>
        <time>2020-11-29T12:34:54Z</time>
      </trkpt>
      <trkpt lat="43.55744" lon="1.17732">
        <ele>206.5</ele>
        <time>2020-11-29T12:34:55Z</time>
      </trkpt>
      <trkpt lat="43.55744" lon="1.17731">
        <ele>206.5</ele>
        <time>2020-11-29T12:34:56Z</time>
      </trkpt>
      <trkpt lat="43.55745" lon="1.17732">
        <ele>206.5</ele>
        <time>2020-11-29T12:34:57Z</time>
      </trkpt>
      <trkpt lat="43.55746" lon="1.17732">
        <ele>206.5</ele>
        <time>2020-11-29T12:34:58Z</time>
      </trkpt>
      <trkpt lat="43.55746" lon="1.17732">
        <ele>206.5</ele>
        <time>2020-11-29T12:34:59Z</time>
      </trkpt>
      <trkpt lat="43.55747" lon="1.17731">
        <ele>206.5</ele>
        <time>2020-11-29T12:35:00Z</time>
      </trkpt>
      <trkpt lat="43.55747" lon="1.17731">
        <ele>206.5</ele>
        <time>2020-11-29T12:35:01Z</time>
      </trkpt>
      <trkpt lat="43.55747" lon="1.17731">
        <ele>206.5</ele>
        <time>2020-11-29T12:35:02Z</time>
      </trkpt>
      <trkpt lat="43.55747" lon="1.17731">
        <ele>206.5</ele>
        <time>2020-11-29T12:35:03Z</time>
      </trkpt>
      <trkpt lat="43.55747" lon="1.17732">
        <ele>206.5</ele>
        <time>2020-11-29T12:35:04Z</time>
      </trkpt>
      <trkpt lat="43.55747" lon="1.17732">
        <ele>206.5</ele>
        <time>2020-11-29T12:35:05Z</time>
      </trkpt>
      <trkpt lat="43.55747" lon="1.17732">
        <ele>206.5</ele>
        <time>2020-11-29T12:35:06Z</time>
      </trkpt>
      <trkpt lat="43.55747" lon="1.17732">
        <ele>206.5</ele>
        <time>2020-11-29T12:35:07Z</time>
      </trkpt>
      <trkpt lat="43.55747" lon="1.17732">
        <ele>206.5</ele>
        <time>2020-11-29T12:35:08Z</time>
      </trkpt>
      <trkpt lat="43.55747" lon="1.17732">
        <ele>206.5</ele>
        <time>2020-11-29T12:35:09Z</time>
      </trkpt>
      <trkpt lat="43.55748" lon="1.17732">
        <ele>206.5</ele>
        <time>2020-11-29T12:35:10Z</time>
      </trkpt>
      <trkpt lat="43.55748" lon="1.17732">
        <ele>206.5</ele>
        <time>2020-11-29T12:35:11Z</time>
      </trkpt>
      <trkpt lat="43.55748" lon="1.17732">
        <ele>206.5</ele>
        <time>2020-11-29T12:35:12Z</time>
      </trkpt>
      <trkpt lat="43.55748" lon="1.17732">
        <ele>206.5</ele>
        <time>2020-11-29T12:35:13Z</time>
      </trkpt>
      <trkpt lat="43.55748" lon="1.17732">
        <ele>206.5</ele>
        <time>2020-11-29T12:35:14Z</time>
      </trkpt>
      <trkpt lat="43.55748" lon="1.17732">
        <ele>206.5</ele>
        <time>2020-11-29T12:35:15Z</time>
      </trkpt>
      <trkpt lat="43.55748" lon="1.17732">
        <ele>206.5</ele>
        <time>2020-11-29T12:35:16Z</time>
      </trkpt>
      <trkpt lat="43.55748" lon="1.17732">
        <ele>206.5</ele>
        <time>2020-11-29T12:35:17Z</time>
      </trkpt>
      <trkpt lat="43.55748" lon="1.17732">
        <ele>206.5</ele>
        <time>2020-11-29T12:35:18Z</time>
      </trkpt>
      <trkpt lat="43.55748" lon="1.17732">
        <ele>206.5</ele>
        <time>2020-11-29T12:35:19Z</time>
      </trkpt>
      <trkpt lat="43.55748" lon="1.17732">
        <ele>206.5</ele>
        <time>2020-11-29T12:35:20Z</time>
      </trkpt>
      <trkpt lat="43.55749" lon="1.17732">
        <ele>206.5</ele>
        <time>2020-11-29T12:35:21Z</time>
      </trkpt>
      <trkpt lat="43.55749" lon="1.17733">
        <ele>206.5</ele>
        <time>2020-11-29T12:35:22Z</time>
      </trkpt>
      <trkpt lat="43.55749" lon="1.17733">
        <ele>206.5</ele>
        <time>2020-11-29T12:35:23Z</time>
      </trkpt>
      <trkpt lat="43.55749" lon="1.17733">
        <ele>206.5</ele>
        <time>2020-11-29T12:35:24Z</time>
      </trkpt>
      <trkpt lat="43.55749" lon="1.17733">
        <ele>206.5</ele>
        <time>2020-11-29T12:35:25Z</time>
      </trkpt>
      <trkpt lat="43.55749" lon="1.17733">
        <ele>206.5</ele>
        <time>2020-11-29T12:35:26Z</time>
      </trkpt>
      <trkpt lat="43.55749" lon="1.17733">
        <ele>206.5</ele>
        <time>2020-11-29T12:35:27Z</time>
      </trkpt>
      <trkpt lat="43.55748" lon="1.17732">
        <ele>206.5</ele>
        <time>2020-11-29T12:35:28Z</time>
      </trkpt>
      <trkpt lat="43.55748" lon="1.17731">
        <ele>206.5</ele>
        <time>2020-11-29T12:35:29Z</time>
      </trkpt>
      <trkpt lat="43.55748" lon="1.17731">
        <ele>206.5</ele>
        <time>2020-11-29T12:35:30Z</time>
      </trkpt>
      <trkpt lat="43.55748" lon="1.17731">
        <ele>206.5</ele>
        <time>2020-11-29T12:35:31Z</time>
      </trkpt>
      <trkpt lat="43.55748" lon="1.1773">
        <ele>206.5</ele>
        <time>2020-11-29T12:35:32Z</time>
      </trkpt>
      <trkpt lat="43.55748" lon="1.17731">
        <ele>206.5</ele>
        <time>2020-11-29T12:35:33Z</time>
      </trkpt>
      <trkpt lat="43.55748" lon="1.17731">
        <ele>206.5</ele>
        <time>2020-11-29T12:35:34Z</time>
      </trkpt>
      <trkpt lat="43.55748" lon="1.17731">
        <ele>206.5</ele>
        <time>2020-11-29T12:35:35Z</time>
      </trkpt>
      <trkpt lat="43.55748" lon="1.17731">
        <ele>206.5</ele>
        <time>2020-11-29T12:35:36Z</time>
      </trkpt>
      <trkpt lat="43.55748" lon="1.17731">
        <ele>206.5</ele>
        <time>2020-11-29T12:35:37Z</time>
      </trkpt>
      <trkpt lat="43.55748" lon="1.17731">
        <ele>206.5</ele>
        <time>2020-11-29T12:35:38Z</time>
      </trkpt>
      <trkpt lat="43.55748" lon="1.17731">
        <ele>206.5</ele>
        <time>2020-11-29T12:35:39Z</time>
      </trkpt>
      <trkpt lat="43.55748" lon="1.17731">
        <ele>206.5</ele>
        <time>2020-11-29T12:35:40Z</time>
      </trkpt>
      <trkpt lat="43.55748" lon="1.17731">
        <ele>206.5</ele>
        <time>2020-11-29T12:35:41Z</time>
      </trkpt>
      <trkpt lat="43.55748" lon="1.17731">
        <ele>206.5</ele>
        <time>2020-11-29T12:35:42Z</time>
      </trkpt>
      <trkpt lat="43.55748" lon="1.17731">
        <ele>206.5</ele>
        <time>2020-11-29T12:35:43Z</time>
      </trkpt>
      <trkpt lat="43.55748" lon="1.17731">
        <ele>206.5</ele>
        <time>2020-11-29T12:35:44Z</time>
      </trkpt>
    </trkseg>
  </trk>
</gpx>